<?xml version='1.0' encoding='UTF-8'?><gpx version="1.1" creator="JPX - https://github.com/jenetics/jpx" xmlns="http://www.topografix.com/GPX/1/1"><trk><trkseg><trkpt lat="42.1911488" lon="14.220588"><ele>568.0</ele><time>2026-05-01T12:28:39.572Z</time></trkpt><trkpt lat="42.1912118" lon="14.2205919"><ele>568.0</ele><time>2026-05-01T12:32:07.56Z</time></trkpt><trkpt lat="42.1911438" lon="14.2205956"><ele>568.0</ele><time>2026-05-01T12:33:40.605Z</time></trkpt><trkpt lat="42.1912102" lon="14.2206087"><ele>568.0</ele><time>2026-05-01T12:34:07.534Z</time></trkpt><trkpt lat="42.1912741" lon="14.2205813"><ele>568.0</ele><time>2026-05-01T12:34:10.479Z</time></trkpt><trkpt lat="42.1913577" lon="14.220542"><ele>568.0</ele><time>2026-05-01T12:34:13.563Z</time></trkpt><trkpt lat="42.1914419" lon="14.2205142"><ele>568.0</ele><time>2026-05-01T12:34:15.573Z</time></trkpt><trkpt lat="42.1915337" lon="14.2204823"><ele>568.0</ele><time>2026-05-01T12:34:17.582Z</time></trkpt><trkpt lat="42.1908122" lon="14.2205262"><ele>569.0</ele><time>2026-05-01T12:34:18.498Z</time></trkpt><trkpt lat="42.1904759" lon="14.2205208"><ele>570.0</ele><time>2026-05-01T12:34:19.513Z</time></trkpt><trkpt lat="42.1904118" lon="14.2205096"><ele>571.0</ele><time>2026-05-01T12:34:20.514Z</time></trkpt><trkpt lat="42.1903134" lon="14.2204764"><ele>571.0</ele><time>2026-05-01T12:34:22.511Z</time></trkpt><trkpt lat="42.1902463" lon="14.22043"><ele>571.0</ele><time>2026-05-01T12:34:24.511Z</time></trkpt><trkpt lat="42.1901597" lon="14.2203933"><ele>571.0</ele><time>2026-05-01T12:34:28.551Z</time></trkpt><trkpt lat="42.1900737" lon="14.2203533"><ele>571.0</ele><time>2026-05-01T12:34:30.541Z</time></trkpt><trkpt lat="42.1900368" lon="14.2202656"><ele>571.0</ele><time>2026-05-01T12:34:32.57Z</time></trkpt><trkpt lat="42.190048" lon="14.2201556"><ele>571.0</ele><time>2026-05-01T12:34:34.58Z</time></trkpt><trkpt lat="42.1900267" lon="14.2200593"><ele>571.0</ele><time>2026-05-01T12:34:36.42Z</time></trkpt><trkpt lat="42.1899283" lon="14.2200048"><ele>571.0</ele><time>2026-05-01T12:34:38.512Z</time></trkpt><trkpt lat="42.1898336" lon="14.2200116"><ele>571.0</ele><time>2026-05-01T12:34:40.512Z</time></trkpt><trkpt lat="42.1897711" lon="14.2199605"><ele>571.0</ele><time>2026-05-01T12:34:42.518Z</time></trkpt><trkpt lat="42.1898287" lon="14.2199077"><ele>571.0</ele><time>2026-05-01T12:34:45.532Z</time></trkpt><trkpt lat="42.1898717" lon="14.219995"><ele>571.0</ele><time>2026-05-01T12:34:46.514Z</time></trkpt><trkpt lat="42.1899883" lon="14.2199683"><ele>571.0</ele><time>2026-05-01T12:34:48.512Z</time></trkpt><trkpt lat="42.1900583" lon="14.2199367"><ele>571.0</ele><time>2026-05-01T12:34:49.513Z</time></trkpt><trkpt lat="42.19013" lon="14.2199"><ele>571.0</ele><time>2026-05-01T12:34:50.513Z</time></trkpt><trkpt lat="42.1902033" lon="14.2198567"><ele>571.0</ele><time>2026-05-01T12:34:51.51Z</time></trkpt><trkpt lat="42.1902783" lon="14.2198183"><ele>571.0</ele><time>2026-05-01T12:34:52.512Z</time></trkpt><trkpt lat="42.1903517" lon="14.219785"><ele>571.0</ele><time>2026-05-01T12:34:53.515Z</time></trkpt><trkpt lat="42.1904283" lon="14.2197633"><ele>568.8333333333334</ele><time>2026-05-01T12:34:54.513Z</time></trkpt><trkpt lat="42.1905067" lon="14.2197383"><ele>566.6666666666667</ele><time>2026-05-01T12:34:55.512Z</time></trkpt><trkpt lat="42.1905833" lon="14.2197233"><ele>564.5</ele><time>2026-05-01T12:34:56.514Z</time></trkpt><trkpt lat="42.1906617" lon="14.2197167"><ele>562.3333333333334</ele><time>2026-05-01T12:34:57.513Z</time></trkpt><trkpt lat="42.190745" lon="14.219715"><ele>560.1666666666666</ele><time>2026-05-01T12:34:58.512Z</time></trkpt><trkpt lat="42.19083" lon="14.2197017"><ele>558.0</ele><time>2026-05-01T12:34:59.515Z</time></trkpt><trkpt lat="42.1909183" lon="14.2197"><ele>557.0</ele><time>2026-05-01T12:35:00.511Z</time></trkpt><trkpt lat="42.191015" lon="14.2197067"><ele>556.0</ele><time>2026-05-01T12:35:01.511Z</time></trkpt><trkpt lat="42.1911117" lon="14.2197117"><ele>555.0</ele><time>2026-05-01T12:35:02.513Z</time></trkpt><trkpt lat="42.191205" lon="14.219715"><ele>554.0</ele><time>2026-05-01T12:35:03.513Z</time></trkpt><trkpt lat="42.191295" lon="14.21972"><ele>553.0</ele><time>2026-05-01T12:35:04.515Z</time></trkpt><trkpt lat="42.19139" lon="14.2197317"><ele>553.0</ele><time>2026-05-01T12:35:05.51Z</time></trkpt><trkpt lat="42.1914883" lon="14.2197383"><ele>553.0</ele><time>2026-05-01T12:35:06.512Z</time></trkpt><trkpt lat="42.1915817" lon="14.2197433"><ele>553.0</ele><time>2026-05-01T12:35:07.511Z</time></trkpt><trkpt lat="42.19168" lon="14.21975"><ele>553.0</ele><time>2026-05-01T12:35:08.511Z</time></trkpt><trkpt lat="42.191785" lon="14.2197583"><ele>553.0</ele><time>2026-05-01T12:35:09.511Z</time></trkpt><trkpt lat="42.1918917" lon="14.2197667"><ele>552.1999999999999</ele><time>2026-05-01T12:35:10.51Z</time></trkpt><trkpt lat="42.1919967" lon="14.21977"><ele>551.4</ele><time>2026-05-01T12:35:11.516Z</time></trkpt><trkpt lat="42.1921017" lon="14.2197817"><ele>550.5999999999999</ele><time>2026-05-01T12:35:12.509Z</time></trkpt><trkpt lat="42.1921933" lon="14.2197867"><ele>549.8</ele><time>2026-05-01T12:35:13.508Z</time></trkpt><trkpt lat="42.1922833" lon="14.2198033"><ele>549.0</ele><time>2026-05-01T12:35:14.513Z</time></trkpt><trkpt lat="42.1923817" lon="14.2198383"><ele>551.2</ele><time>2026-05-01T12:35:15.512Z</time></trkpt><trkpt lat="42.1924867" lon="14.2198767"><ele>553.4</ele><time>2026-05-01T12:35:16.516Z</time></trkpt><trkpt lat="42.1925917" lon="14.2199217"><ele>555.6</ele><time>2026-05-01T12:35:17.512Z</time></trkpt><trkpt lat="42.1926917" lon="14.2199733"><ele>557.8</ele><time>2026-05-01T12:35:18.512Z</time></trkpt><trkpt lat="42.1927783" lon="14.220045"><ele>560.0</ele><time>2026-05-01T12:35:19.51Z</time></trkpt><trkpt lat="42.1928567" lon="14.2201117"><ele>560.0</ele><time>2026-05-01T12:35:20.512Z</time></trkpt><trkpt lat="42.1929183" lon="14.220175"><ele>560.0</ele><time>2026-05-01T12:35:21.511Z</time></trkpt><trkpt lat="42.1930117" lon="14.2202517"><ele>560.0</ele><time>2026-05-01T12:35:23.515Z</time></trkpt><trkpt lat="42.19308" lon="14.2202633"><ele>560.0</ele><time>2026-05-01T12:35:25.511Z</time></trkpt><trkpt lat="42.19318" lon="14.2202883"><ele>560.0</ele><time>2026-05-01T12:35:44.511Z</time></trkpt><trkpt lat="42.1931567" lon="14.2203733"><ele>560.0</ele><time>2026-05-01T12:42:59.514Z</time></trkpt><trkpt lat="42.1932117" lon="14.220425"><ele>558.5714285714286</ele><time>2026-05-01T12:43:01.512Z</time></trkpt><trkpt lat="42.1932867" lon="14.2204683"><ele>557.1428571428571</ele><time>2026-05-01T12:43:03.511Z</time></trkpt><trkpt lat="42.1933533" lon="14.220505"><ele>555.7142857142858</ele><time>2026-05-01T12:43:05.511Z</time></trkpt><trkpt lat="42.1934267" lon="14.220515"><ele>554.2857142857142</ele><time>2026-05-01T12:43:08.511Z</time></trkpt><trkpt lat="42.1934883" lon="14.2205367"><ele>552.8571428571429</ele><time>2026-05-01T12:43:10.51Z</time></trkpt><trkpt lat="42.1935533" lon="14.2205583"><ele>551.4285714285714</ele><time>2026-05-01T12:43:13.511Z</time></trkpt><trkpt lat="42.193625" lon="14.22055"><ele>550.0</ele><time>2026-05-01T12:43:27.511Z</time></trkpt><trkpt lat="42.1936833" lon="14.220605"><ele>550.0</ele><time>2026-05-01T12:43:28.514Z</time></trkpt><trkpt lat="42.1937867" lon="14.22062"><ele>550.0</ele><time>2026-05-01T12:43:30.513Z</time></trkpt><trkpt lat="42.1938717" lon="14.2205717"><ele>550.0</ele><time>2026-05-01T12:43:32.509Z</time></trkpt><trkpt lat="42.193865" lon="14.2204567"><ele>550.0</ele><time>2026-05-01T12:43:34.512Z</time></trkpt><trkpt lat="42.1937733" lon="14.2203383"><ele>550.0</ele><time>2026-05-01T12:43:36.509Z</time></trkpt><trkpt lat="42.1937033" lon="14.2202917"><ele>550.0</ele><time>2026-05-01T12:43:37.509Z</time></trkpt><trkpt lat="42.1936133" lon="14.220245"><ele>550.0</ele><time>2026-05-01T12:43:38.515Z</time></trkpt><trkpt lat="42.19352" lon="14.2201917"><ele>550.0</ele><time>2026-05-01T12:43:39.509Z</time></trkpt><trkpt lat="42.19343" lon="14.220135"><ele>550.0</ele><time>2026-05-01T12:43:40.514Z</time></trkpt><trkpt lat="42.19334" lon="14.2200767"><ele>550.0</ele><time>2026-05-01T12:43:41.511Z</time></trkpt><trkpt lat="42.193255" lon="14.22002"><ele>550.0</ele><time>2026-05-01T12:43:42.513Z</time></trkpt><trkpt lat="42.1931767" lon="14.2199733"><ele>550.0</ele><time>2026-05-01T12:43:43.511Z</time></trkpt><trkpt lat="42.193105" lon="14.2199267"><ele>550.0</ele><time>2026-05-01T12:43:44.513Z</time></trkpt><trkpt lat="42.193035" lon="14.2198683"><ele>550.0</ele><time>2026-05-01T12:43:45.51Z</time></trkpt><trkpt lat="42.19298" lon="14.2197983"><ele>550.0</ele><time>2026-05-01T12:43:46.511Z</time></trkpt><trkpt lat="42.1929483" lon="14.21971"><ele>550.0</ele><time>2026-05-01T12:43:47.512Z</time></trkpt><trkpt lat="42.19293" lon="14.2196133"><ele>548.5</ele><time>2026-05-01T12:43:48.513Z</time></trkpt><trkpt lat="42.1929383" lon="14.219515"><ele>547.0</ele><time>2026-05-01T12:43:49.511Z</time></trkpt><trkpt lat="42.192975" lon="14.2194317"><ele>545.5</ele><time>2026-05-01T12:43:50.517Z</time></trkpt><trkpt lat="42.1930317" lon="14.2193567"><ele>544.0</ele><time>2026-05-01T12:43:51.508Z</time></trkpt><trkpt lat="42.1931017" lon="14.2192817"><ele>542.5</ele><time>2026-05-01T12:43:52.51Z</time></trkpt><trkpt lat="42.1931833" lon="14.2192267"><ele>541.0</ele><time>2026-05-01T12:43:53.511Z</time></trkpt><trkpt lat="42.1932717" lon="14.2192"><ele>541.0</ele><time>2026-05-01T12:43:54.512Z</time></trkpt><trkpt lat="42.1933617" lon="14.2191983"><ele>541.0</ele><time>2026-05-01T12:43:55.51Z</time></trkpt><trkpt lat="42.1934483" lon="14.2192"><ele>541.0</ele><time>2026-05-01T12:43:56.512Z</time></trkpt><trkpt lat="42.1935133" lon="14.2192133"><ele>541.0</ele><time>2026-05-01T12:43:57.51Z</time></trkpt><trkpt lat="42.19357" lon="14.2192583"><ele>541.0</ele><time>2026-05-01T12:43:58.512Z</time></trkpt><trkpt lat="42.19363" lon="14.2193133"><ele>541.0</ele><time>2026-05-01T12:43:59.513Z</time></trkpt><trkpt lat="42.19371" lon="14.2193867"><ele>541.0</ele><time>2026-05-01T12:44:01.509Z</time></trkpt><trkpt lat="42.1937683" lon="14.21945"><ele>541.0</ele><time>2026-05-01T12:44:03.512Z</time></trkpt><trkpt lat="42.1937117" lon="14.2193717"><ele>541.0</ele><time>2026-05-01T12:44:21.508Z</time></trkpt><trkpt lat="42.19359" lon="14.2192967"><ele>541.0</ele><time>2026-05-01T12:44:22.512Z</time></trkpt><trkpt lat="42.1934733" lon="14.2192483"><ele>541.0</ele><time>2026-05-01T12:44:23.508Z</time></trkpt><trkpt lat="42.193375" lon="14.219235"><ele>541.0</ele><time>2026-05-01T12:44:24.51Z</time></trkpt><trkpt lat="42.1932717" lon="14.2192517"><ele>541.0</ele><time>2026-05-01T12:44:25.508Z</time></trkpt><trkpt lat="42.1931683" lon="14.2192983"><ele>541.0</ele><time>2026-05-01T12:44:26.51Z</time></trkpt><trkpt lat="42.1930717" lon="14.2193733"><ele>541.0</ele><time>2026-05-01T12:44:27.508Z</time></trkpt><trkpt lat="42.1929867" lon="14.2194817"><ele>541.0</ele><time>2026-05-01T12:44:28.511Z</time></trkpt><trkpt lat="42.19293" lon="14.2195867"><ele>540.5</ele><time>2026-05-01T12:44:29.51Z</time></trkpt><trkpt lat="42.1929017" lon="14.219695"><ele>540.0</ele><time>2026-05-01T12:44:30.509Z</time></trkpt><trkpt lat="42.192895" lon="14.219795"><ele>539.5</ele><time>2026-05-01T12:44:31.51Z</time></trkpt><trkpt lat="42.192925" lon="14.2199033"><ele>539.0</ele><time>2026-05-01T12:44:32.51Z</time></trkpt><trkpt lat="42.1929433" lon="14.2200017"><ele>538.5</ele><time>2026-05-01T12:44:33.516Z</time></trkpt><trkpt lat="42.1930133" lon="14.2200633"><ele>538.0</ele><time>2026-05-01T12:44:34.51Z</time></trkpt><trkpt lat="42.1930817" lon="14.2200933"><ele>540.0</ele><time>2026-05-01T12:44:35.512Z</time></trkpt><trkpt lat="42.1931533" lon="14.22007"><ele>542.0</ele><time>2026-05-01T12:44:36.514Z</time></trkpt><trkpt lat="42.1932583" lon="14.2200417"><ele>544.0</ele><time>2026-05-01T12:44:38.512Z</time></trkpt><trkpt lat="42.19336" lon="14.2200767"><ele>546.0</ele><time>2026-05-01T12:44:40.508Z</time></trkpt><trkpt lat="42.193425" lon="14.220105"><ele>548.0</ele><time>2026-05-01T12:44:41.514Z</time></trkpt><trkpt lat="42.1934983" lon="14.2201367"><ele>550.0</ele><time>2026-05-01T12:44:42.51Z</time></trkpt><trkpt lat="42.1935683" lon="14.2201733"><ele>550.0</ele><time>2026-05-01T12:44:43.514Z</time></trkpt><trkpt lat="42.1936417" lon="14.2202117"><ele>550.0</ele><time>2026-05-01T12:44:44.512Z</time></trkpt><trkpt lat="42.1937067" lon="14.2202367"><ele>550.0</ele><time>2026-05-01T12:44:45.511Z</time></trkpt><trkpt lat="42.1937717" lon="14.2202633"><ele>550.0</ele><time>2026-05-01T12:44:46.514Z</time></trkpt><trkpt lat="42.1938367" lon="14.2202883"><ele>550.0</ele><time>2026-05-01T12:44:47.512Z</time></trkpt><trkpt lat="42.1939283" lon="14.2204033"><ele>550.0</ele><time>2026-05-01T12:44:49.508Z</time></trkpt><trkpt lat="42.19396" lon="14.2204933"><ele>550.0</ele><time>2026-05-01T12:44:50.513Z</time></trkpt><trkpt lat="42.193985" lon="14.2205883"><ele>550.0</ele><time>2026-05-01T12:44:51.51Z</time></trkpt><trkpt lat="42.1940083" lon="14.2206783"><ele>550.0</ele><time>2026-05-01T12:44:52.512Z</time></trkpt><trkpt lat="42.19404" lon="14.2207617"><ele>550.0</ele><time>2026-05-01T12:44:53.51Z</time></trkpt><trkpt lat="42.194055" lon="14.2208583"><ele>550.0</ele><time>2026-05-01T12:44:54.51Z</time></trkpt><trkpt lat="42.1940583" lon="14.220975"><ele>550.0</ele><time>2026-05-01T12:44:55.514Z</time></trkpt><trkpt lat="42.1940567" lon="14.221115"><ele>546.0</ele><time>2026-05-01T12:44:56.509Z</time></trkpt><trkpt lat="42.194065" lon="14.2212683"><ele>542.0</ele><time>2026-05-01T12:44:57.511Z</time></trkpt><trkpt lat="42.1940683" lon="14.221425"><ele>538.0</ele><time>2026-05-01T12:44:58.509Z</time></trkpt><trkpt lat="42.19407" lon="14.221585"><ele>534.0</ele><time>2026-05-01T12:44:59.513Z</time></trkpt><trkpt lat="42.1940683" lon="14.2217433"><ele>533.0</ele><time>2026-05-01T12:45:00.51Z</time></trkpt><trkpt lat="42.1940667" lon="14.2218983"><ele>532.0</ele><time>2026-05-01T12:45:01.516Z</time></trkpt><trkpt lat="42.194065" lon="14.22205"><ele>531.0</ele><time>2026-05-01T12:45:02.511Z</time></trkpt><trkpt lat="42.1940667" lon="14.2222"><ele>530.0</ele><time>2026-05-01T12:45:03.51Z</time></trkpt><trkpt lat="42.1940633" lon="14.2223483"><ele>529.0</ele><time>2026-05-01T12:45:04.509Z</time></trkpt><trkpt lat="42.19406" lon="14.2224933"><ele>527.6</ele><time>2026-05-01T12:45:05.51Z</time></trkpt><trkpt lat="42.19406" lon="14.22264"><ele>526.2</ele><time>2026-05-01T12:45:06.511Z</time></trkpt><trkpt lat="42.1940717" lon="14.2227817"><ele>524.8000000000001</ele><time>2026-05-01T12:45:07.509Z</time></trkpt><trkpt lat="42.1940867" lon="14.2229217"><ele>523.4</ele><time>2026-05-01T12:45:08.509Z</time></trkpt><trkpt lat="42.1941017" lon="14.22306"><ele>522.0</ele><time>2026-05-01T12:45:09.508Z</time></trkpt><trkpt lat="42.19411" lon="14.22319"><ele>521.0</ele><time>2026-05-01T12:45:10.514Z</time></trkpt><trkpt lat="42.1941217" lon="14.22331"><ele>520.0</ele><time>2026-05-01T12:45:11.508Z</time></trkpt><trkpt lat="42.1941317" lon="14.2234283"><ele>519.0</ele><time>2026-05-01T12:45:12.509Z</time></trkpt><trkpt lat="42.19414" lon="14.2235467"><ele>518.0</ele><time>2026-05-01T12:45:13.509Z</time></trkpt><trkpt lat="42.194155" lon="14.2236533"><ele>517.0</ele><time>2026-05-01T12:45:14.512Z</time></trkpt><trkpt lat="42.1941667" lon="14.2237483"><ele>516.0</ele><time>2026-05-01T12:45:15.51Z</time></trkpt><trkpt lat="42.1942067" lon="14.22387"><ele>516.0</ele><time>2026-05-01T12:45:17.514Z</time></trkpt><trkpt lat="42.1942633" lon="14.2239133"><ele>516.0</ele><time>2026-05-01T12:45:19.51Z</time></trkpt><trkpt lat="42.1943283" lon="14.223895"><ele>516.0</ele><time>2026-05-01T12:45:28.51Z</time></trkpt><trkpt lat="42.1944183" lon="14.2237883"><ele>516.0</ele><time>2026-05-01T12:45:31.514Z</time></trkpt><trkpt lat="42.194475" lon="14.2237317"><ele>516.0</ele><time>2026-05-01T12:45:32.511Z</time></trkpt><trkpt lat="42.1945383" lon="14.2236733"><ele>516.0</ele><time>2026-05-01T12:45:33.51Z</time></trkpt><trkpt lat="42.1946067" lon="14.2236167"><ele>516.0</ele><time>2026-05-01T12:45:34.509Z</time></trkpt><trkpt lat="42.1946817" lon="14.22355"><ele>516.0</ele><time>2026-05-01T12:45:35.509Z</time></trkpt><trkpt lat="42.1947583" lon="14.2234783"><ele>516.0</ele><time>2026-05-01T12:45:36.51Z</time></trkpt><trkpt lat="42.19483" lon="14.2234"><ele>516.0</ele><time>2026-05-01T12:45:37.51Z</time></trkpt><trkpt lat="42.194905" lon="14.2233283"><ele>516.0</ele><time>2026-05-01T12:45:38.508Z</time></trkpt><trkpt lat="42.1949833" lon="14.22326"><ele>514.8</ele><time>2026-05-01T12:45:39.512Z</time></trkpt><trkpt lat="42.1950683" lon="14.2231917"><ele>513.6</ele><time>2026-05-01T12:45:40.51Z</time></trkpt><trkpt lat="42.1951467" lon="14.2231083"><ele>512.4</ele><time>2026-05-01T12:45:41.51Z</time></trkpt><trkpt lat="42.19522" lon="14.2230183"><ele>511.2</ele><time>2026-05-01T12:45:42.51Z</time></trkpt><trkpt lat="42.1952833" lon="14.2229133"><ele>510.0</ele><time>2026-05-01T12:45:43.51Z</time></trkpt><trkpt lat="42.1953467" lon="14.22281"><ele>510.0</ele><time>2026-05-01T12:45:44.517Z</time></trkpt><trkpt lat="42.195425" lon="14.2227267"><ele>510.0</ele><time>2026-05-01T12:45:45.51Z</time></trkpt><trkpt lat="42.195495" lon="14.2226333"><ele>510.0</ele><time>2026-05-01T12:45:46.512Z</time></trkpt><trkpt lat="42.1955567" lon="14.2225317"><ele>510.0</ele><time>2026-05-01T12:45:47.51Z</time></trkpt><trkpt lat="42.1956033" lon="14.2224133"><ele>510.0</ele><time>2026-05-01T12:45:48.51Z</time></trkpt><trkpt lat="42.1956383" lon="14.222285"><ele>508.6</ele><time>2026-05-01T12:45:49.508Z</time></trkpt><trkpt lat="42.1956717" lon="14.2221583"><ele>507.2</ele><time>2026-05-01T12:45:50.517Z</time></trkpt><trkpt lat="42.1956983" lon="14.222025"><ele>505.79999999999995</ele><time>2026-05-01T12:45:51.51Z</time></trkpt><trkpt lat="42.195725" lon="14.22189"><ele>504.4</ele><time>2026-05-01T12:45:52.511Z</time></trkpt><trkpt lat="42.1957533" lon="14.2217533"><ele>503.0</ele><time>2026-05-01T12:45:53.509Z</time></trkpt><trkpt lat="42.1957767" lon="14.221615"><ele>503.0</ele><time>2026-05-01T12:45:54.509Z</time></trkpt><trkpt lat="42.19579" lon="14.2214833"><ele>502.99999999999994</ele><time>2026-05-01T12:45:55.51Z</time></trkpt><trkpt lat="42.1957833" lon="14.2213533"><ele>502.99999999999994</ele><time>2026-05-01T12:45:56.509Z</time></trkpt><trkpt lat="42.1957833" lon="14.2212183"><ele>503.0</ele><time>2026-05-01T12:45:57.511Z</time></trkpt><trkpt lat="42.1957867" lon="14.2210817"><ele>503.0</ele><time>2026-05-01T12:45:58.516Z</time></trkpt><trkpt lat="42.1957917" lon="14.22094"><ele>503.4</ele><time>2026-05-01T12:45:59.513Z</time></trkpt><trkpt lat="42.1957917" lon="14.2208033"><ele>503.79999999999995</ele><time>2026-05-01T12:46:00.509Z</time></trkpt><trkpt lat="42.195785" lon="14.2206617"><ele>504.2</ele><time>2026-05-01T12:46:01.509Z</time></trkpt><trkpt lat="42.19579" lon="14.22053"><ele>504.6</ele><time>2026-05-01T12:46:02.511Z</time></trkpt><trkpt lat="42.1958067" lon="14.220395"><ele>505.0</ele><time>2026-05-01T12:46:03.508Z</time></trkpt><trkpt lat="42.195835" lon="14.22027"><ele>505.4</ele><time>2026-05-01T12:46:04.511Z</time></trkpt><trkpt lat="42.1958717" lon="14.2201517"><ele>505.8</ele><time>2026-05-01T12:46:05.512Z</time></trkpt><trkpt lat="42.195915" lon="14.2200317"><ele>506.20000000000005</ele><time>2026-05-01T12:46:06.509Z</time></trkpt><trkpt lat="42.1959667" lon="14.2199133"><ele>506.6</ele><time>2026-05-01T12:46:07.51Z</time></trkpt><trkpt lat="42.196025" lon="14.2197983"><ele>507.0</ele><time>2026-05-01T12:46:08.513Z</time></trkpt><trkpt lat="42.1960967" lon="14.2196967"><ele>507.20000000000005</ele><time>2026-05-01T12:46:09.51Z</time></trkpt><trkpt lat="42.1961817" lon="14.21961"><ele>507.40000000000003</ele><time>2026-05-01T12:46:10.508Z</time></trkpt><trkpt lat="42.1962617" lon="14.2195283"><ele>507.59999999999997</ele><time>2026-05-01T12:46:11.511Z</time></trkpt><trkpt lat="42.1963417" lon="14.2194533"><ele>507.79999999999995</ele><time>2026-05-01T12:46:12.508Z</time></trkpt><trkpt lat="42.196415" lon="14.2193833"><ele>508.0</ele><time>2026-05-01T12:46:13.511Z</time></trkpt><trkpt lat="42.1964767" lon="14.21932"><ele>506.79999999999995</ele><time>2026-05-01T12:46:14.512Z</time></trkpt><trkpt lat="42.19653" lon="14.2192683"><ele>505.59999999999997</ele><time>2026-05-01T12:46:15.51Z</time></trkpt><trkpt lat="42.196645" lon="14.2192317"><ele>504.40000000000003</ele><time>2026-05-01T12:46:17.51Z</time></trkpt><trkpt lat="42.1967483" lon="14.2192283"><ele>503.20000000000005</ele><time>2026-05-01T12:46:19.509Z</time></trkpt><trkpt lat="42.1968533" lon="14.2191817"><ele>502.0</ele><time>2026-05-01T12:46:21.51Z</time></trkpt><trkpt lat="42.1969733" lon="14.219105"><ele>502.0</ele><time>2026-05-01T12:46:23.512Z</time></trkpt><trkpt lat="42.197055" lon="14.2190933"><ele>502.00000000000006</ele><time>2026-05-01T12:46:24.51Z</time></trkpt><trkpt lat="42.197145" lon="14.2190933"><ele>502.00000000000006</ele><time>2026-05-01T12:46:25.509Z</time></trkpt><trkpt lat="42.1972417" lon="14.2190917"><ele>502.0</ele><time>2026-05-01T12:46:26.512Z</time></trkpt><trkpt lat="42.1973367" lon="14.2190833"><ele>502.0</ele><time>2026-05-01T12:46:27.514Z</time></trkpt><trkpt lat="42.19744" lon="14.2190683"><ele>501.25</ele><time>2026-05-01T12:46:28.509Z</time></trkpt><trkpt lat="42.1975567" lon="14.219055"><ele>500.5</ele><time>2026-05-01T12:46:29.509Z</time></trkpt><trkpt lat="42.1976683" lon="14.2190333"><ele>499.75</ele><time>2026-05-01T12:46:30.509Z</time></trkpt><trkpt lat="42.19778" lon="14.2190083"><ele>499.0</ele><time>2026-05-01T12:46:31.509Z</time></trkpt><trkpt lat="42.197895" lon="14.2189817"><ele>498.0</ele><time>2026-05-01T12:46:32.51Z</time></trkpt><trkpt lat="42.1980133" lon="14.21895"><ele>497.0</ele><time>2026-05-01T12:46:33.51Z</time></trkpt><trkpt lat="42.1981283" lon="14.2189217"><ele>496.0</ele><time>2026-05-01T12:46:34.512Z</time></trkpt><trkpt lat="42.1982417" lon="14.2188967"><ele>495.0</ele><time>2026-05-01T12:46:35.509Z</time></trkpt><trkpt lat="42.1983583" lon="14.2188583"><ele>494.25</ele><time>2026-05-01T12:46:36.515Z</time></trkpt><trkpt lat="42.198475" lon="14.21881"><ele>493.5</ele><time>2026-05-01T12:46:37.512Z</time></trkpt><trkpt lat="42.1985983" lon="14.218755"><ele>492.75</ele><time>2026-05-01T12:46:38.51Z</time></trkpt><trkpt lat="42.1987267" lon="14.2187"><ele>492.0</ele><time>2026-05-01T12:46:39.51Z</time></trkpt><trkpt lat="42.198855" lon="14.2186367"><ele>492.0</ele><time>2026-05-01T12:46:40.512Z</time></trkpt><trkpt lat="42.198985" lon="14.2185767"><ele>492.0</ele><time>2026-05-01T12:46:41.51Z</time></trkpt><trkpt lat="42.199115" lon="14.218515"><ele>492.0</ele><time>2026-05-01T12:46:42.509Z</time></trkpt><trkpt lat="42.19924" lon="14.21846"><ele>492.0</ele><time>2026-05-01T12:46:43.509Z</time></trkpt><trkpt lat="42.19936" lon="14.2184067"><ele>490.75</ele><time>2026-05-01T12:46:44.512Z</time></trkpt><trkpt lat="42.19948" lon="14.218355"><ele>489.5</ele><time>2026-05-01T12:46:45.511Z</time></trkpt><trkpt lat="42.1995917" lon="14.2183067"><ele>488.25</ele><time>2026-05-01T12:46:46.51Z</time></trkpt><trkpt lat="42.1997017" lon="14.2182633"><ele>487.0</ele><time>2026-05-01T12:46:47.513Z</time></trkpt><trkpt lat="42.1998117" lon="14.2182333"><ele>486.0</ele><time>2026-05-01T12:46:48.512Z</time></trkpt><trkpt lat="42.19992" lon="14.2182117"><ele>485.00000000000006</ele><time>2026-05-01T12:46:49.515Z</time></trkpt><trkpt lat="42.2000267" lon="14.2182017"><ele>484.00000000000006</ele><time>2026-05-01T12:46:50.512Z</time></trkpt><trkpt lat="42.200135" lon="14.218195"><ele>483.0</ele><time>2026-05-01T12:46:51.512Z</time></trkpt><trkpt lat="42.200245" lon="14.2181933"><ele>482.0</ele><time>2026-05-01T12:46:52.512Z</time></trkpt><trkpt lat="42.200355" lon="14.218195"><ele>482.0</ele><time>2026-05-01T12:46:53.512Z</time></trkpt><trkpt lat="42.20046" lon="14.2182"><ele>482.00000000000006</ele><time>2026-05-01T12:46:54.512Z</time></trkpt><trkpt lat="42.2005567" lon="14.2182067"><ele>482.00000000000006</ele><time>2026-05-01T12:46:55.51Z</time></trkpt><trkpt lat="42.2006467" lon="14.2182167"><ele>482.0</ele><time>2026-05-01T12:46:56.511Z</time></trkpt><trkpt lat="42.200735" lon="14.2182317"><ele>482.0</ele><time>2026-05-01T12:46:57.509Z</time></trkpt><trkpt lat="42.2008267" lon="14.2182467"><ele>481.20000000000005</ele><time>2026-05-01T12:46:58.509Z</time></trkpt><trkpt lat="42.2009233" lon="14.2182817"><ele>480.40000000000003</ele><time>2026-05-01T12:46:59.511Z</time></trkpt><trkpt lat="42.2010167" lon="14.2183117"><ele>479.59999999999997</ele><time>2026-05-01T12:47:00.511Z</time></trkpt><trkpt lat="42.2011083" lon="14.21834"><ele>478.79999999999995</ele><time>2026-05-01T12:47:01.513Z</time></trkpt><trkpt lat="42.2012033" lon="14.218375"><ele>478.0</ele><time>2026-05-01T12:47:02.509Z</time></trkpt><trkpt lat="42.2012983" lon="14.2184183"><ele>478.00000000000006</ele><time>2026-05-01T12:47:03.514Z</time></trkpt><trkpt lat="42.2013917" lon="14.218465"><ele>478.0</ele><time>2026-05-01T12:47:04.511Z</time></trkpt><trkpt lat="42.20148" lon="14.218515"><ele>478.0</ele><time>2026-05-01T12:47:05.509Z</time></trkpt><trkpt lat="42.2015633" lon="14.2185633"><ele>478.0</ele><time>2026-05-01T12:47:06.51Z</time></trkpt><trkpt lat="42.2016467" lon="14.2186017"><ele>478.00000000000006</ele><time>2026-05-01T12:47:07.514Z</time></trkpt><trkpt lat="42.201715" lon="14.2186267"><ele>478.0</ele><time>2026-05-01T12:47:08.51Z</time></trkpt><trkpt lat="42.2018317" lon="14.2186333"><ele>476.1666666666667</ele><time>2026-05-01T12:47:10.511Z</time></trkpt><trkpt lat="42.2018817" lon="14.2185583"><ele>474.33333333333337</ele><time>2026-05-01T12:47:12.511Z</time></trkpt><trkpt lat="42.2018517" lon="14.2184683"><ele>472.5</ele><time>2026-05-01T12:47:14.51Z</time></trkpt><trkpt lat="42.2017833" lon="14.2184417"><ele>470.66666666666663</ele><time>2026-05-01T12:47:16.51Z</time></trkpt><trkpt lat="42.2016817" lon="14.21844"><ele>468.8333333333333</ele><time>2026-05-01T12:47:40.516Z</time></trkpt><trkpt lat="42.2016167" lon="14.21843"><ele>467.0</ele><time>2026-05-01T12:47:41.509Z</time></trkpt><trkpt lat="42.2015517" lon="14.218435"><ele>469.20000000000005</ele><time>2026-05-01T12:47:42.511Z</time></trkpt><trkpt lat="42.20147" lon="14.2184633"><ele>471.40000000000003</ele><time>2026-05-01T12:47:44.512Z</time></trkpt><trkpt lat="42.201395" lon="14.2184083"><ele>473.59999999999997</ele><time>2026-05-01T12:47:46.509Z</time></trkpt><trkpt lat="42.20127" lon="14.2183517"><ele>475.79999999999995</ele><time>2026-05-01T12:47:48.511Z</time></trkpt><trkpt lat="42.2011817" lon="14.2183233"><ele>478.0</ele><time>2026-05-01T12:47:49.514Z</time></trkpt><trkpt lat="42.20108" lon="14.2182917"><ele>478.00000000000006</ele><time>2026-05-01T12:47:50.515Z</time></trkpt><trkpt lat="42.2009783" lon="14.2182633"><ele>478.0</ele><time>2026-05-01T12:47:51.509Z</time></trkpt><trkpt lat="42.200885" lon="14.2182467"><ele>478.0</ele><time>2026-05-01T12:47:52.509Z</time></trkpt><trkpt lat="42.2007983" lon="14.21823"><ele>478.0</ele><time>2026-05-01T12:47:53.509Z</time></trkpt><trkpt lat="42.20072" lon="14.2182183"><ele>478.00000000000006</ele><time>2026-05-01T12:47:54.51Z</time></trkpt><trkpt lat="42.2006533" lon="14.2182"><ele>478.0</ele><time>2026-05-01T12:47:55.51Z</time></trkpt><trkpt lat="42.2005867" lon="14.21813"><ele>478.0</ele><time>2026-05-01T12:47:57.509Z</time></trkpt><trkpt lat="42.2006117" lon="14.218045"><ele>477.99999999999994</ele><time>2026-05-01T12:48:01.51Z</time></trkpt><trkpt lat="42.200715" lon="14.2180367"><ele>477.99999999999994</ele><time>2026-05-01T12:48:03.51Z</time></trkpt><trkpt lat="42.200795" lon="14.2180267"><ele>478.0</ele><time>2026-05-01T12:48:04.511Z</time></trkpt><trkpt lat="42.2009033" lon="14.2180083"><ele>478.0</ele><time>2026-05-01T12:48:05.51Z</time></trkpt><trkpt lat="42.2010233" lon="14.2179833"><ele>477.25</ele><time>2026-05-01T12:48:06.51Z</time></trkpt><trkpt lat="42.20114" lon="14.2179617"><ele>476.5</ele><time>2026-05-01T12:48:07.513Z</time></trkpt><trkpt lat="42.2012567" lon="14.2179417"><ele>475.75</ele><time>2026-05-01T12:48:08.512Z</time></trkpt><trkpt lat="42.201375" lon="14.217925"><ele>475.0</ele><time>2026-05-01T12:48:09.514Z</time></trkpt><trkpt lat="42.2014933" lon="14.2179133"><ele>474.25</ele><time>2026-05-01T12:48:10.516Z</time></trkpt><trkpt lat="42.2015967" lon="14.2179083"><ele>473.5</ele><time>2026-05-01T12:48:11.513Z</time></trkpt><trkpt lat="42.2017067" lon="14.21792"><ele>472.75</ele><time>2026-05-01T12:48:12.514Z</time></trkpt><trkpt lat="42.2018283" lon="14.2179483"><ele>472.0</ele><time>2026-05-01T12:48:13.513Z</time></trkpt><trkpt lat="42.201955" lon="14.2179833"><ele>472.0</ele><time>2026-05-01T12:48:14.515Z</time></trkpt><trkpt lat="42.2020867" lon="14.2180167"><ele>472.0</ele><time>2026-05-01T12:48:15.509Z</time></trkpt><trkpt lat="42.2022217" lon="14.2180417"><ele>472.0</ele><time>2026-05-01T12:48:16.51Z</time></trkpt><trkpt lat="42.2023583" lon="14.2180583"><ele>472.0</ele><time>2026-05-01T12:48:17.51Z</time></trkpt><trkpt lat="42.2024967" lon="14.2180733"><ele>471.25</ele><time>2026-05-01T12:48:18.509Z</time></trkpt><trkpt lat="42.20263" lon="14.2180683"><ele>470.5</ele><time>2026-05-01T12:48:19.511Z</time></trkpt><trkpt lat="42.20276" lon="14.2180567"><ele>469.75</ele><time>2026-05-01T12:48:20.51Z</time></trkpt><trkpt lat="42.20288" lon="14.21804"><ele>469.0</ele><time>2026-05-01T12:48:21.51Z</time></trkpt><trkpt lat="42.2029867" lon="14.2180233"><ele>469.0</ele><time>2026-05-01T12:48:22.509Z</time></trkpt><trkpt lat="42.2030767" lon="14.2179983"><ele>469.0</ele><time>2026-05-01T12:48:23.516Z</time></trkpt><trkpt lat="42.203165" lon="14.2179517"><ele>469.0</ele><time>2026-05-01T12:48:24.509Z</time></trkpt><trkpt lat="42.2032533" lon="14.2178767"><ele>469.0</ele><time>2026-05-01T12:48:25.51Z</time></trkpt><trkpt lat="42.2033433" lon="14.2177817"><ele>469.0</ele><time>2026-05-01T12:48:26.51Z</time></trkpt><trkpt lat="42.2034417" lon="14.2177017"><ele>466.75</ele><time>2026-05-01T12:48:27.509Z</time></trkpt><trkpt lat="42.2035417" lon="14.2176183"><ele>464.5</ele><time>2026-05-01T12:48:28.513Z</time></trkpt><trkpt lat="42.2036433" lon="14.2175333"><ele>462.25</ele><time>2026-05-01T12:48:29.509Z</time></trkpt><trkpt lat="42.2037383" lon="14.2174483"><ele>460.0</ele><time>2026-05-01T12:48:30.509Z</time></trkpt><trkpt lat="42.20383" lon="14.2173717"><ele>460.6</ele><time>2026-05-01T12:48:31.512Z</time></trkpt><trkpt lat="42.20392" lon="14.21731"><ele>461.2</ele><time>2026-05-01T12:48:32.509Z</time></trkpt><trkpt lat="42.20402" lon="14.217295"><ele>461.79999999999995</ele><time>2026-05-01T12:48:33.514Z</time></trkpt><trkpt lat="42.2041217" lon="14.2173167"><ele>462.4</ele><time>2026-05-01T12:48:34.509Z</time></trkpt><trkpt lat="42.204225" lon="14.2173483"><ele>463.0</ele><time>2026-05-01T12:48:35.511Z</time></trkpt><trkpt lat="42.20432" lon="14.217345"><ele>463.0</ele><time>2026-05-01T12:48:36.509Z</time></trkpt><trkpt lat="42.20442" lon="14.2173217"><ele>462.99999999999994</ele><time>2026-05-01T12:48:37.51Z</time></trkpt><trkpt lat="42.2045217" lon="14.217265"><ele>462.99999999999994</ele><time>2026-05-01T12:48:38.51Z</time></trkpt><trkpt lat="42.2046233" lon="14.21722"><ele>463.0</ele><time>2026-05-01T12:48:39.509Z</time></trkpt><trkpt lat="42.20471" lon="14.2171883"><ele>463.0</ele><time>2026-05-01T12:48:40.51Z</time></trkpt><trkpt lat="42.204785" lon="14.2171617"><ele>462.0</ele><time>2026-05-01T12:48:41.511Z</time></trkpt><trkpt lat="42.2048883" lon="14.217115"><ele>461.0</ele><time>2026-05-01T12:48:43.512Z</time></trkpt><trkpt lat="42.2049983" lon="14.2170633"><ele>460.0</ele><time>2026-05-01T12:48:45.509Z</time></trkpt><trkpt lat="42.2051117" lon="14.2170017"><ele>459.0</ele><time>2026-05-01T12:48:47.51Z</time></trkpt><trkpt lat="42.2052333" lon="14.2169767"><ele>459.0</ele><time>2026-05-01T12:48:49.513Z</time></trkpt><trkpt lat="42.2053" lon="14.216955"><ele>459.0</ele><time>2026-05-01T12:48:50.511Z</time></trkpt><trkpt lat="42.2053667" lon="14.2169417"><ele>459.0</ele><time>2026-05-01T12:48:51.51Z</time></trkpt><trkpt lat="42.2054833" lon="14.2169417"><ele>459.0</ele><time>2026-05-01T12:48:53.511Z</time></trkpt><trkpt lat="42.2055567" lon="14.2169933"><ele>459.0</ele><time>2026-05-01T12:48:55.51Z</time></trkpt><trkpt lat="42.20564" lon="14.217125"><ele>457.3333333333333</ele><time>2026-05-01T12:48:57.509Z</time></trkpt><trkpt lat="42.205685" lon="14.2172267"><ele>455.66666666666663</ele><time>2026-05-01T12:48:58.517Z</time></trkpt><trkpt lat="42.2057367" lon="14.2173267"><ele>454.0</ele><time>2026-05-01T12:48:59.511Z</time></trkpt><trkpt lat="42.2057833" lon="14.2174233"><ele>452.3333333333333</ele><time>2026-05-01T12:49:00.511Z</time></trkpt><trkpt lat="42.20583" lon="14.2175233"><ele>450.66666666666663</ele><time>2026-05-01T12:49:01.512Z</time></trkpt><trkpt lat="42.2058783" lon="14.2176217"><ele>449.0</ele><time>2026-05-01T12:49:02.512Z</time></trkpt><trkpt lat="42.2059267" lon="14.2177283"><ele>448.0</ele><time>2026-05-01T12:49:03.511Z</time></trkpt><trkpt lat="42.2059767" lon="14.2178433"><ele>447.0</ele><time>2026-05-01T12:49:04.51Z</time></trkpt><trkpt lat="42.2060283" lon="14.21796"><ele>446.0</ele><time>2026-05-01T12:49:05.512Z</time></trkpt><trkpt lat="42.2060867" lon="14.21808"><ele>445.0</ele><time>2026-05-01T12:49:06.512Z</time></trkpt><trkpt lat="42.2061583" lon="14.2181917"><ele>444.0</ele><time>2026-05-01T12:49:07.513Z</time></trkpt><trkpt lat="42.20625" lon="14.2182833"><ele>442.79999999999995</ele><time>2026-05-01T12:49:08.515Z</time></trkpt><trkpt lat="42.2063517" lon="14.218355"><ele>441.59999999999997</ele><time>2026-05-01T12:49:09.509Z</time></trkpt><trkpt lat="42.2064433" lon="14.21842"><ele>440.4</ele><time>2026-05-01T12:49:10.512Z</time></trkpt><trkpt lat="42.2065283" lon="14.2184783"><ele>439.2</ele><time>2026-05-01T12:49:11.51Z</time></trkpt><trkpt lat="42.2066067" lon="14.2185383"><ele>438.0</ele><time>2026-05-01T12:49:12.511Z</time></trkpt><trkpt lat="42.2066817" lon="14.2186033"><ele>436.25</ele><time>2026-05-01T12:49:13.512Z</time></trkpt><trkpt lat="42.20674" lon="14.2187017"><ele>434.5</ele><time>2026-05-01T12:49:14.516Z</time></trkpt><trkpt lat="42.2067967" lon="14.2188333"><ele>432.75</ele><time>2026-05-01T12:49:15.515Z</time></trkpt><trkpt lat="42.2068667" lon="14.2189683"><ele>431.0</ele><time>2026-05-01T12:49:16.514Z</time></trkpt><trkpt lat="42.206935" lon="14.2191067"><ele>430.4</ele><time>2026-05-01T12:49:17.512Z</time></trkpt><trkpt lat="42.2069983" lon="14.219245"><ele>429.8</ele><time>2026-05-01T12:49:18.513Z</time></trkpt><trkpt lat="42.2070533" lon="14.2193817"><ele>429.19999999999993</ele><time>2026-05-01T12:49:19.513Z</time></trkpt><trkpt lat="42.2071083" lon="14.2195083"><ele>428.59999999999997</ele><time>2026-05-01T12:49:20.513Z</time></trkpt><trkpt lat="42.2071617" lon="14.2196233"><ele>428.0</ele><time>2026-05-01T12:49:21.514Z</time></trkpt><trkpt lat="42.2072" lon="14.21973"><ele>427.3333333333333</ele><time>2026-05-01T12:49:22.512Z</time></trkpt><trkpt lat="42.207245" lon="14.2198267"><ele>426.66666666666663</ele><time>2026-05-01T12:49:23.514Z</time></trkpt><trkpt lat="42.2072967" lon="14.2199083"><ele>426.0</ele><time>2026-05-01T12:49:24.51Z</time></trkpt><trkpt lat="42.207365" lon="14.2199717"><ele>425.33333333333337</ele><time>2026-05-01T12:49:25.513Z</time></trkpt><trkpt lat="42.2074383" lon="14.2200217"><ele>424.6666666666667</ele><time>2026-05-01T12:49:26.51Z</time></trkpt><trkpt lat="42.2075183" lon="14.2200483"><ele>424.0</ele><time>2026-05-01T12:49:27.512Z</time></trkpt><trkpt lat="42.2076133" lon="14.2200367"><ele>422.79999999999995</ele><time>2026-05-01T12:49:28.512Z</time></trkpt><trkpt lat="42.2076817" lon="14.2200167"><ele>421.59999999999997</ele><time>2026-05-01T12:49:29.511Z</time></trkpt><trkpt lat="42.2077817" lon="14.220025"><ele>420.4</ele><time>2026-05-01T12:49:31.512Z</time></trkpt><trkpt lat="42.2078183" lon="14.2201467"><ele>419.2</ele><time>2026-05-01T12:49:33.513Z</time></trkpt><trkpt lat="42.20788" lon="14.2202633"><ele>418.0</ele><time>2026-05-01T12:49:35.512Z</time></trkpt><trkpt lat="42.2079333" lon="14.2204233"><ele>418.00000000000006</ele><time>2026-05-01T12:49:37.515Z</time></trkpt><trkpt lat="42.2079433" lon="14.2205317"><ele>418.0</ele><time>2026-05-01T12:49:38.51Z</time></trkpt><trkpt lat="42.2079517" lon="14.2206517"><ele>418.0</ele><time>2026-05-01T12:49:39.512Z</time></trkpt><trkpt lat="42.2079617" lon="14.2207733"><ele>418.0</ele><time>2026-05-01T12:49:40.51Z</time></trkpt><trkpt lat="42.2079733" lon="14.2208933"><ele>418.00000000000006</ele><time>2026-05-01T12:49:41.51Z</time></trkpt><trkpt lat="42.2079833" lon="14.221005"><ele>418.0</ele><time>2026-05-01T12:49:42.513Z</time></trkpt><trkpt lat="42.2079883" lon="14.2211017"><ele>417.79999999999995</ele><time>2026-05-01T12:49:43.51Z</time></trkpt><trkpt lat="42.207995" lon="14.2211883"><ele>417.6</ele><time>2026-05-01T12:49:44.509Z</time></trkpt><trkpt lat="42.2079867" lon="14.221335"><ele>417.4</ele><time>2026-05-01T12:49:46.513Z</time></trkpt><trkpt lat="42.2079533" lon="14.2214533"><ele>417.20000000000005</ele><time>2026-05-01T12:49:48.51Z</time></trkpt><trkpt lat="42.207905" lon="14.221545"><ele>417.0</ele><time>2026-05-01T12:49:50.511Z</time></trkpt><trkpt lat="42.2077833" lon="14.2215517"><ele>417.0</ele><time>2026-05-01T12:50:59.513Z</time></trkpt><trkpt lat="42.207715" lon="14.22162"><ele>417.0</ele><time>2026-05-01T12:53:40.509Z</time></trkpt><trkpt lat="42.2077633" lon="14.2215583"><ele>417.0</ele><time>2026-05-01T12:53:48.511Z</time></trkpt><trkpt lat="42.2078017" lon="14.22147"><ele>417.0</ele><time>2026-05-01T12:53:49.511Z</time></trkpt><trkpt lat="42.2078417" lon="14.2213417"><ele>417.0</ele><time>2026-05-01T12:53:50.512Z</time></trkpt><trkpt lat="42.2078583" lon="14.2211883"><ele>417.0</ele><time>2026-05-01T12:53:51.513Z</time></trkpt><trkpt lat="42.2078483" lon="14.22103"><ele>417.20000000000005</ele><time>2026-05-01T12:53:52.512Z</time></trkpt><trkpt lat="42.2078433" lon="14.2208717"><ele>417.4</ele><time>2026-05-01T12:53:53.511Z</time></trkpt><trkpt lat="42.2078467" lon="14.2207283"><ele>417.6</ele><time>2026-05-01T12:53:54.511Z</time></trkpt><trkpt lat="42.20785" lon="14.2206067"><ele>417.79999999999995</ele><time>2026-05-01T12:53:55.511Z</time></trkpt><trkpt lat="42.2078467" lon="14.2205033"><ele>418.0</ele><time>2026-05-01T12:53:56.512Z</time></trkpt><trkpt lat="42.2078367" lon="14.2204167"><ele>418.00000000000006</ele><time>2026-05-01T12:53:57.51Z</time></trkpt><trkpt lat="42.207795" lon="14.2202833"><ele>418.0</ele><time>2026-05-01T12:53:59.51Z</time></trkpt><trkpt lat="42.2078383" lon="14.22021"><ele>418.0</ele><time>2026-05-01T12:54:15.509Z</time></trkpt><trkpt lat="42.2079133" lon="14.2202067"><ele>418.0</ele><time>2026-05-01T12:54:17.509Z</time></trkpt><trkpt lat="42.2079933" lon="14.2202067"><ele>418.00000000000006</ele><time>2026-05-01T12:54:19.51Z</time></trkpt><trkpt lat="42.20805" lon="14.2202617"><ele>418.0</ele><time>2026-05-01T12:54:21.512Z</time></trkpt><trkpt lat="42.208095" lon="14.220335"><ele>416.33333333333337</ele><time>2026-05-01T12:54:23.511Z</time></trkpt><trkpt lat="42.2081667" lon="14.2203917"><ele>414.6666666666667</ele><time>2026-05-01T12:54:26.511Z</time></trkpt><trkpt lat="42.2082383" lon="14.2204"><ele>413.0</ele><time>2026-05-01T12:54:28.51Z</time></trkpt><trkpt lat="42.2083533" lon="14.2203317"><ele>411.33333333333337</ele><time>2026-05-01T12:54:30.511Z</time></trkpt><trkpt lat="42.2084183" lon="14.2202767"><ele>409.6666666666667</ele><time>2026-05-01T12:54:31.51Z</time></trkpt><trkpt lat="42.2084733" lon="14.2202233"><ele>408.0</ele><time>2026-05-01T12:54:32.51Z</time></trkpt><trkpt lat="42.208575" lon="14.2201183"><ele>408.0</ele><time>2026-05-01T12:54:34.51Z</time></trkpt><trkpt lat="42.2086733" lon="14.220035"><ele>408.0</ele><time>2026-05-01T12:54:36.514Z</time></trkpt><trkpt lat="42.208765" lon="14.2199517"><ele>408.0</ele><time>2026-05-01T12:54:38.511Z</time></trkpt><trkpt lat="42.20886" lon="14.219935"><ele>408.0</ele><time>2026-05-01T12:54:40.509Z</time></trkpt><trkpt lat="42.2089717" lon="14.2199583"><ele>408.0</ele><time>2026-05-01T12:54:42.512Z</time></trkpt><trkpt lat="42.2090783" lon="14.2200033"><ele>405.79999999999995</ele><time>2026-05-01T12:54:44.513Z</time></trkpt><trkpt lat="42.20917" lon="14.2200383"><ele>403.6</ele><time>2026-05-01T12:54:46.513Z</time></trkpt><trkpt lat="42.2092583" lon="14.220055"><ele>401.4</ele><time>2026-05-01T12:54:48.509Z</time></trkpt><trkpt lat="42.2093433" lon="14.2200683"><ele>399.20000000000005</ele><time>2026-05-01T12:54:50.512Z</time></trkpt><trkpt lat="42.2094333" lon="14.220055"><ele>397.0</ele><time>2026-05-01T12:54:52.51Z</time></trkpt><trkpt lat="42.2095233" lon="14.2199917"><ele>397.00000000000006</ele><time>2026-05-01T12:54:54.509Z</time></trkpt><trkpt lat="42.2095767" lon="14.21994"><ele>397.0</ele><time>2026-05-01T12:54:55.513Z</time></trkpt><trkpt lat="42.2096267" lon="14.2198733"><ele>397.0</ele><time>2026-05-01T12:54:56.51Z</time></trkpt><trkpt lat="42.20967" lon="14.2197933"><ele>397.0</ele><time>2026-05-01T12:54:57.509Z</time></trkpt><trkpt lat="42.2097017" lon="14.2197183"><ele>397.00000000000006</ele><time>2026-05-01T12:54:58.509Z</time></trkpt><trkpt lat="42.2097317" lon="14.219585"><ele>397.0</ele><time>2026-05-01T12:55:00.512Z</time></trkpt><trkpt lat="42.2097233" lon="14.21947"><ele>397.00000000000006</ele><time>2026-05-01T12:55:02.516Z</time></trkpt><trkpt lat="42.20975" lon="14.2193733"><ele>397.0</ele><time>2026-05-01T12:55:05.509Z</time></trkpt><trkpt lat="42.2098333" lon="14.2194083"><ele>397.0</ele><time>2026-05-01T12:55:08.509Z</time></trkpt><trkpt lat="42.2098733" lon="14.2195183"><ele>397.0</ele><time>2026-05-01T12:55:10.509Z</time></trkpt><trkpt lat="42.209875" lon="14.219605"><ele>397.00000000000006</ele><time>2026-05-01T12:55:11.509Z</time></trkpt><trkpt lat="42.2098617" lon="14.2197133"><ele>397.0</ele><time>2026-05-01T12:55:12.509Z</time></trkpt><trkpt lat="42.2098483" lon="14.219845"><ele>397.0</ele><time>2026-05-01T12:55:13.509Z</time></trkpt><trkpt lat="42.20983" lon="14.220005"><ele>397.0</ele><time>2026-05-01T12:55:14.513Z</time></trkpt><trkpt lat="42.209815" lon="14.2201867"><ele>397.0</ele><time>2026-05-01T12:55:15.511Z</time></trkpt><trkpt lat="42.2098067" lon="14.2203683"><ele>397.0</ele><time>2026-05-01T12:55:16.509Z</time></trkpt><trkpt lat="42.20981" lon="14.2205117"><ele>397.00000000000006</ele><time>2026-05-01T12:55:17.51Z</time></trkpt><trkpt lat="42.2098183" lon="14.220625"><ele>397.0</ele><time>2026-05-01T12:55:18.509Z</time></trkpt><trkpt lat="42.2098267" lon="14.2207117"><ele>397.0</ele><time>2026-05-01T12:55:19.514Z</time></trkpt><trkpt lat="42.20988" lon="14.2208133"><ele>397.0</ele><time>2026-05-01T12:55:21.509Z</time></trkpt><trkpt lat="42.2099417" lon="14.2208467"><ele>397.00000000000006</ele><time>2026-05-01T12:55:23.511Z</time></trkpt><trkpt lat="42.2100183" lon="14.220825"><ele>397.0</ele><time>2026-05-01T12:55:25.509Z</time></trkpt><trkpt lat="42.2101283" lon="14.2207817"><ele>395.83333333333337</ele><time>2026-05-01T12:55:27.51Z</time></trkpt><trkpt lat="42.2102267" lon="14.2207617"><ele>394.6666666666667</ele><time>2026-05-01T12:55:29.514Z</time></trkpt><trkpt lat="42.210295" lon="14.2207783"><ele>393.5</ele><time>2026-05-01T12:55:31.51Z</time></trkpt><trkpt lat="42.2103517" lon="14.2208633"><ele>392.33333333333337</ele><time>2026-05-01T12:55:33.513Z</time></trkpt><trkpt lat="42.2103983" lon="14.2209433"><ele>391.1666666666667</ele><time>2026-05-01T12:55:35.509Z</time></trkpt><trkpt lat="42.2104817" lon="14.2209583"><ele>390.0</ele><time>2026-05-01T12:55:37.509Z</time></trkpt><trkpt lat="42.2105533" lon="14.220935"><ele>390.0</ele><time>2026-05-01T12:55:38.51Z</time></trkpt><trkpt lat="42.2106367" lon="14.2209017"><ele>390.0</ele><time>2026-05-01T12:55:39.509Z</time></trkpt><trkpt lat="42.21072" lon="14.2208633"><ele>390.0</ele><time>2026-05-01T12:55:40.514Z</time></trkpt><trkpt lat="42.2107917" lon="14.220845"><ele>390.0</ele><time>2026-05-01T12:55:41.513Z</time></trkpt><trkpt lat="42.21086" lon="14.220825"><ele>390.0</ele><time>2026-05-01T12:55:42.515Z</time></trkpt><trkpt lat="42.2109267" lon="14.220805"><ele>390.0</ele><time>2026-05-01T12:55:43.511Z</time></trkpt><trkpt lat="42.210995" lon="14.2207983"><ele>389.0</ele><time>2026-05-01T12:55:44.513Z</time></trkpt><trkpt lat="42.2110617" lon="14.2207867"><ele>388.0</ele><time>2026-05-01T12:55:45.512Z</time></trkpt><trkpt lat="42.2111933" lon="14.2207517"><ele>387.0</ele><time>2026-05-01T12:55:47.51Z</time></trkpt><trkpt lat="42.21126" lon="14.220735"><ele>386.0</ele><time>2026-05-01T12:55:48.509Z</time></trkpt><trkpt lat="42.211375" lon="14.2207167"><ele>385.0</ele><time>2026-05-01T12:55:50.515Z</time></trkpt><trkpt lat="42.2114333" lon="14.2206817"><ele>384.0</ele><time>2026-05-01T12:55:51.509Z</time></trkpt><trkpt lat="42.21155" lon="14.22064"><ele>381.2</ele><time>2026-05-01T12:55:53.511Z</time></trkpt><trkpt lat="42.2116533" lon="14.2206283"><ele>378.4</ele><time>2026-05-01T12:55:55.514Z</time></trkpt><trkpt lat="42.2117567" lon="14.2206017"><ele>375.6</ele><time>2026-05-01T12:55:57.511Z</time></trkpt><trkpt lat="42.2118533" lon="14.2205517"><ele>372.8</ele><time>2026-05-01T12:55:59.51Z</time></trkpt><trkpt lat="42.2119317" lon="14.2205067"><ele>370.0</ele><time>2026-05-01T12:56:01.509Z</time></trkpt><trkpt lat="42.2119717" lon="14.220425"><ele>369.99999999999994</ele><time>2026-05-01T12:56:03.512Z</time></trkpt><trkpt lat="42.212005" lon="14.2203317"><ele>370.0</ele><time>2026-05-01T12:56:06.513Z</time></trkpt><trkpt lat="42.2120333" lon="14.220255"><ele>370.0</ele><time>2026-05-01T12:56:10.511Z</time></trkpt><trkpt lat="42.21208" lon="14.2201917"><ele>370.0</ele><time>2026-05-01T12:56:15.51Z</time></trkpt><trkpt lat="42.2121417" lon="14.22016"><ele>370.0</ele><time>2026-05-01T12:56:18.512Z</time></trkpt><trkpt lat="42.212215" lon="14.22019"><ele>369.99999999999994</ele><time>2026-05-01T12:56:21.515Z</time></trkpt><trkpt lat="42.2122617" lon="14.2203033"><ele>370.0</ele><time>2026-05-01T12:56:24.51Z</time></trkpt><trkpt lat="42.2122633" lon="14.2204267"><ele>370.0</ele><time>2026-05-01T12:56:26.51Z</time></trkpt><trkpt lat="42.21226" lon="14.22055"><ele>370.0</ele><time>2026-05-01T12:56:28.514Z</time></trkpt><trkpt lat="42.2122833" lon="14.2206633"><ele>370.0</ele><time>2026-05-01T12:56:30.51Z</time></trkpt><trkpt lat="42.212325" lon="14.2207833"><ele>370.0</ele><time>2026-05-01T12:56:32.51Z</time></trkpt><trkpt lat="42.2123817" lon="14.22084"><ele>370.0</ele><time>2026-05-01T12:56:34.511Z</time></trkpt><trkpt lat="42.21246" lon="14.220765"><ele>370.0</ele><time>2026-05-01T12:56:39.51Z</time></trkpt><trkpt lat="42.21253" lon="14.22072"><ele>370.3333333333333</ele><time>2026-05-01T12:56:41.51Z</time></trkpt><trkpt lat="42.21261" lon="14.2206733"><ele>370.66666666666663</ele><time>2026-05-01T12:56:43.512Z</time></trkpt><trkpt lat="42.2126883" lon="14.220625"><ele>371.0</ele><time>2026-05-01T12:56:45.509Z</time></trkpt><trkpt lat="42.2127517" lon="14.22059"><ele>371.3333333333333</ele><time>2026-05-01T12:56:47.511Z</time></trkpt><trkpt lat="42.212825" lon="14.220575"><ele>371.6666666666667</ele><time>2026-05-01T12:56:50.512Z</time></trkpt><trkpt lat="42.2128917" lon="14.2205183"><ele>372.0</ele><time>2026-05-01T12:56:52.511Z</time></trkpt><trkpt lat="42.2129633" lon="14.2204567"><ele>372.0</ele><time>2026-05-01T12:56:54.51Z</time></trkpt><trkpt lat="42.2130233" lon="14.2204183"><ele>372.0</ele><time>2026-05-01T12:56:56.51Z</time></trkpt><trkpt lat="42.2131033" lon="14.2203367"><ele>372.0</ele><time>2026-05-01T12:56:59.509Z</time></trkpt><trkpt lat="42.2131733" lon="14.22026"><ele>372.0</ele><time>2026-05-01T12:57:01.513Z</time></trkpt><trkpt lat="42.2132583" lon="14.2202033"><ele>372.0</ele><time>2026-05-01T12:57:03.513Z</time></trkpt><trkpt lat="42.21335" lon="14.22013"><ele>372.8</ele><time>2026-05-01T12:57:05.51Z</time></trkpt><trkpt lat="42.2134383" lon="14.220015"><ele>373.6</ele><time>2026-05-01T12:57:07.512Z</time></trkpt><trkpt lat="42.2134867" lon="14.2199567"><ele>374.40000000000003</ele><time>2026-05-01T12:57:08.514Z</time></trkpt><trkpt lat="42.2135783" lon="14.21987"><ele>375.20000000000005</ele><time>2026-05-01T12:57:10.509Z</time></trkpt><trkpt lat="42.21368" lon="14.2197717"><ele>376.0</ele><time>2026-05-01T12:57:12.512Z</time></trkpt><trkpt lat="42.213735" lon="14.2197133"><ele>374.5</ele><time>2026-05-01T12:57:13.51Z</time></trkpt><trkpt lat="42.2137867" lon="14.2196617"><ele>373.0</ele><time>2026-05-01T12:57:14.513Z</time></trkpt><trkpt lat="42.2138667" lon="14.2195867"><ele>371.5</ele><time>2026-05-01T12:57:16.509Z</time></trkpt><trkpt lat="42.213935" lon="14.219505"><ele>370.0</ele><time>2026-05-01T12:57:18.511Z</time></trkpt><trkpt lat="42.2139883" lon="14.2194233"><ele>368.5</ele><time>2026-05-01T12:57:20.509Z</time></trkpt><trkpt lat="42.2140467" lon="14.2193267"><ele>367.0</ele><time>2026-05-01T12:57:22.51Z</time></trkpt><trkpt lat="42.2141" lon="14.2192367"><ele>367.0</ele><time>2026-05-01T12:57:24.513Z</time></trkpt><trkpt lat="42.2141533" lon="14.219125"><ele>367.0</ele><time>2026-05-01T12:57:26.512Z</time></trkpt><trkpt lat="42.2142" lon="14.219"><ele>367.0</ele><time>2026-05-01T12:57:28.511Z</time></trkpt><trkpt lat="42.2142567" lon="14.218895"><ele>367.0</ele><time>2026-05-01T12:57:30.513Z</time></trkpt><trkpt lat="42.2143367" lon="14.2187883"><ele>367.0</ele><time>2026-05-01T12:57:32.509Z</time></trkpt><trkpt lat="42.214445" lon="14.218705"><ele>366.1428571428571</ele><time>2026-05-01T12:57:34.511Z</time></trkpt><trkpt lat="42.21451" lon="14.21865"><ele>365.28571428571433</ele><time>2026-05-01T12:57:35.51Z</time></trkpt><trkpt lat="42.214565" lon="14.2185967"><ele>364.42857142857144</ele><time>2026-05-01T12:57:36.511Z</time></trkpt><trkpt lat="42.2146183" lon="14.2185433"><ele>363.57142857142856</ele><time>2026-05-01T12:57:37.51Z</time></trkpt><trkpt lat="42.2146767" lon="14.21848"><ele>362.71428571428567</ele><time>2026-05-01T12:57:38.513Z</time></trkpt><trkpt lat="42.214735" lon="14.21841"><ele>361.8571428571429</ele><time>2026-05-01T12:57:39.509Z</time></trkpt><trkpt lat="42.21479" lon="14.21834"><ele>361.0</ele><time>2026-05-01T12:57:40.509Z</time></trkpt><trkpt lat="42.2148383" lon="14.2182783"><ele>361.0</ele><time>2026-05-01T12:57:41.509Z</time></trkpt><trkpt lat="42.2148917" lon="14.2182117"><ele>361.0</ele><time>2026-05-01T12:57:42.51Z</time></trkpt><trkpt lat="42.2149583" lon="14.2181517"><ele>361.0</ele><time>2026-05-01T12:57:43.515Z</time></trkpt><trkpt lat="42.21502" lon="14.218095"><ele>361.0</ele><time>2026-05-01T12:57:44.51Z</time></trkpt><trkpt lat="42.2150767" lon="14.2180433"><ele>361.0</ele><time>2026-05-01T12:57:45.51Z</time></trkpt><trkpt lat="42.2151417" lon="14.2179983"><ele>361.0</ele><time>2026-05-01T12:57:46.51Z</time></trkpt><trkpt lat="42.21521" lon="14.217955"><ele>361.0</ele><time>2026-05-01T12:57:47.51Z</time></trkpt><trkpt lat="42.2152783" lon="14.2179067"><ele>359.20000000000005</ele><time>2026-05-01T12:57:48.515Z</time></trkpt><trkpt lat="42.21534" lon="14.2178617"><ele>357.40000000000003</ele><time>2026-05-01T12:57:49.511Z</time></trkpt><trkpt lat="42.2154583" lon="14.21777"><ele>355.6</ele><time>2026-05-01T12:57:51.514Z</time></trkpt><trkpt lat="42.2155267" lon="14.2177"><ele>353.8</ele><time>2026-05-01T12:57:52.51Z</time></trkpt><trkpt lat="42.2156083" lon="14.21762"><ele>352.0</ele><time>2026-05-01T12:57:53.509Z</time></trkpt><trkpt lat="42.21569" lon="14.2175383"><ele>352.0</ele><time>2026-05-01T12:57:54.509Z</time></trkpt><trkpt lat="42.2157633" lon="14.2174617"><ele>352.0</ele><time>2026-05-01T12:57:55.51Z</time></trkpt><trkpt lat="42.21583" lon="14.217385"><ele>352.0</ele><time>2026-05-01T12:57:56.514Z</time></trkpt><trkpt lat="42.2158983" lon="14.21732"><ele>352.0</ele><time>2026-05-01T12:57:57.509Z</time></trkpt><trkpt lat="42.2159667" lon="14.2172533"><ele>352.0</ele><time>2026-05-01T12:57:58.513Z</time></trkpt><trkpt lat="42.2160317" lon="14.2171917"><ele>352.0</ele><time>2026-05-01T12:57:59.513Z</time></trkpt><trkpt lat="42.2160967" lon="14.2171267"><ele>350.57142857142856</ele><time>2026-05-01T12:58:00.51Z</time></trkpt><trkpt lat="42.2161533" lon="14.217065"><ele>349.1428571428571</ele><time>2026-05-01T12:58:01.515Z</time></trkpt><trkpt lat="42.216215" lon="14.21701"><ele>347.71428571428567</ele><time>2026-05-01T12:58:02.51Z</time></trkpt><trkpt lat="42.2162783" lon="14.2169567"><ele>346.2857142857143</ele><time>2026-05-01T12:58:03.51Z</time></trkpt><trkpt lat="42.2163367" lon="14.2169083"><ele>344.85714285714283</ele><time>2026-05-01T12:58:04.509Z</time></trkpt><trkpt lat="42.2163967" lon="14.2168667"><ele>343.4285714285714</ele><time>2026-05-01T12:58:05.511Z</time></trkpt><trkpt lat="42.2164567" lon="14.2168283"><ele>342.0</ele><time>2026-05-01T12:58:06.511Z</time></trkpt><trkpt lat="42.2165667" lon="14.216775"><ele>342.0</ele><time>2026-05-01T12:58:08.509Z</time></trkpt><trkpt lat="42.2166733" lon="14.2167233"><ele>342.0</ele><time>2026-05-01T12:58:10.511Z</time></trkpt><trkpt lat="42.216795" lon="14.216665"><ele>342.0</ele><time>2026-05-01T12:58:12.509Z</time></trkpt><trkpt lat="42.216905" lon="14.2165933"><ele>342.0</ele><time>2026-05-01T12:58:14.51Z</time></trkpt><trkpt lat="42.2170217" lon="14.2165183"><ele>341.3333333333333</ele><time>2026-05-01T12:58:16.51Z</time></trkpt><trkpt lat="42.2170933" lon="14.21648"><ele>340.6666666666667</ele><time>2026-05-01T12:58:17.511Z</time></trkpt><trkpt lat="42.2171667" lon="14.216435"><ele>340.0</ele><time>2026-05-01T12:58:18.509Z</time></trkpt><trkpt lat="42.2172367" lon="14.2163867"><ele>339.33333333333337</ele><time>2026-05-01T12:58:19.509Z</time></trkpt><trkpt lat="42.2173033" lon="14.216345"><ele>338.6666666666667</ele><time>2026-05-01T12:58:20.511Z</time></trkpt><trkpt lat="42.2173767" lon="14.2163167"><ele>338.0</ele><time>2026-05-01T12:58:21.51Z</time></trkpt><trkpt lat="42.2174383" lon="14.2162917"><ele>337.79999999999995</ele><time>2026-05-01T12:58:22.514Z</time></trkpt><trkpt lat="42.2175267" lon="14.216295"><ele>337.6</ele><time>2026-05-01T12:58:24.509Z</time></trkpt><trkpt lat="42.2175967" lon="14.2163717"><ele>337.4</ele><time>2026-05-01T12:58:26.512Z</time></trkpt><trkpt lat="42.2176617" lon="14.2165033"><ele>337.20000000000005</ele><time>2026-05-01T12:58:28.51Z</time></trkpt><trkpt lat="42.2176883" lon="14.2166067"><ele>337.0</ele><time>2026-05-01T12:58:30.512Z</time></trkpt><trkpt lat="42.21767" lon="14.2167217"><ele>338.40000000000003</ele><time>2026-05-01T12:58:33.514Z</time></trkpt><trkpt lat="42.2176067" lon="14.216765"><ele>339.8</ele><time>2026-05-01T12:58:35.51Z</time></trkpt><trkpt lat="42.2175067" lon="14.2167967"><ele>341.2</ele><time>2026-05-01T12:58:37.509Z</time></trkpt><trkpt lat="42.2174533" lon="14.2168467"><ele>342.6</ele><time>2026-05-01T12:58:39.51Z</time></trkpt><trkpt lat="42.2175517" lon="14.2169033"><ele>344.0</ele><time>2026-05-01T12:58:43.515Z</time></trkpt><trkpt lat="42.2176617" lon="14.2169167"><ele>344.0</ele><time>2026-05-01T12:58:45.509Z</time></trkpt><trkpt lat="42.217725" lon="14.2169217"><ele>344.0</ele><time>2026-05-01T12:58:46.51Z</time></trkpt><trkpt lat="42.2177883" lon="14.2169133"><ele>344.0</ele><time>2026-05-01T12:58:47.511Z</time></trkpt><trkpt lat="42.2179" lon="14.2169033"><ele>344.0</ele><time>2026-05-01T12:58:49.513Z</time></trkpt><trkpt lat="42.2180133" lon="14.2169467"><ele>344.0</ele><time>2026-05-01T12:58:51.513Z</time></trkpt><trkpt lat="42.218075" lon="14.216995"><ele>344.0</ele><time>2026-05-01T12:58:52.516Z</time></trkpt><trkpt lat="42.21813" lon="14.2170517"><ele>344.5</ele><time>2026-05-01T12:58:53.512Z</time></trkpt><trkpt lat="42.2181817" lon="14.2171033"><ele>345.0</ele><time>2026-05-01T12:58:54.51Z</time></trkpt><trkpt lat="42.2182633" lon="14.217195"><ele>345.5</ele><time>2026-05-01T12:58:56.511Z</time></trkpt><trkpt lat="42.2183167" lon="14.2172567"><ele>346.0</ele><time>2026-05-01T12:58:58.511Z</time></trkpt><trkpt lat="42.21839" lon="14.2172967"><ele>346.5</ele><time>2026-05-01T12:59:00.512Z</time></trkpt><trkpt lat="42.2184533" lon="14.217335"><ele>347.0</ele><time>2026-05-01T12:59:01.51Z</time></trkpt><trkpt lat="42.2185267" lon="14.2173917"><ele>350.20000000000005</ele><time>2026-05-01T12:59:02.509Z</time></trkpt><trkpt lat="42.2185983" lon="14.2174483"><ele>353.4</ele><time>2026-05-01T12:59:03.515Z</time></trkpt><trkpt lat="42.21866" lon="14.217495"><ele>356.6</ele><time>2026-05-01T12:59:04.511Z</time></trkpt><trkpt lat="42.2187383" lon="14.2175533"><ele>359.79999999999995</ele><time>2026-05-01T12:59:06.51Z</time></trkpt><trkpt lat="42.2188117" lon="14.2176233"><ele>363.0</ele><time>2026-05-01T12:59:08.512Z</time></trkpt><trkpt lat="42.2187217" lon="14.21752"><ele>363.0</ele><time>2026-05-01T12:59:21.514Z</time></trkpt><trkpt lat="42.2186433" lon="14.217455"><ele>363.0</ele><time>2026-05-01T12:59:22.509Z</time></trkpt><trkpt lat="42.2185633" lon="14.2173933"><ele>363.0</ele><time>2026-05-01T12:59:23.51Z</time></trkpt><trkpt lat="42.21849" lon="14.2173383"><ele>363.0</ele><time>2026-05-01T12:59:24.508Z</time></trkpt><trkpt lat="42.2184267" lon="14.217285"><ele>363.0</ele><time>2026-05-01T12:59:25.509Z</time></trkpt><trkpt lat="42.2183567" lon="14.217165"><ele>359.0</ele><time>2026-05-01T12:59:27.509Z</time></trkpt><trkpt lat="42.21838" lon="14.2169967"><ele>355.0</ele><time>2026-05-01T12:59:29.511Z</time></trkpt><trkpt lat="42.2184667" lon="14.21689"><ele>351.0</ele><time>2026-05-01T12:59:30.513Z</time></trkpt><trkpt lat="42.218575" lon="14.21678"><ele>347.0</ele><time>2026-05-01T12:59:31.509Z</time></trkpt><trkpt lat="42.2186867" lon="14.2166733"><ele>347.0</ele><time>2026-05-01T12:59:32.511Z</time></trkpt><trkpt lat="42.2188117" lon="14.2165533"><ele>347.0</ele><time>2026-05-01T12:59:33.512Z</time></trkpt><trkpt lat="42.2189317" lon="14.216425"><ele>347.0</ele><time>2026-05-01T12:59:34.509Z</time></trkpt><trkpt lat="42.21904" lon="14.216295"><ele>345.5</ele><time>2026-05-01T12:59:35.515Z</time></trkpt><trkpt lat="42.219135" lon="14.2161667"><ele>344.0</ele><time>2026-05-01T12:59:36.514Z</time></trkpt><trkpt lat="42.2192167" lon="14.216035"><ele>342.5</ele><time>2026-05-01T12:59:37.51Z</time></trkpt><trkpt lat="42.2192867" lon="14.2158983"><ele>341.0</ele><time>2026-05-01T12:59:38.509Z</time></trkpt><trkpt lat="42.2193483" lon="14.2157533"><ele>338.5</ele><time>2026-05-01T12:59:39.511Z</time></trkpt><trkpt lat="42.2194" lon="14.2156033"><ele>336.0</ele><time>2026-05-01T12:59:40.51Z</time></trkpt><trkpt lat="42.2194567" lon="14.21545"><ele>333.5</ele><time>2026-05-01T12:59:41.51Z</time></trkpt><trkpt lat="42.2195167" lon="14.2152983"><ele>331.0</ele><time>2026-05-01T12:59:42.509Z</time></trkpt><trkpt lat="42.2195817" lon="14.2151467"><ele>331.0</ele><time>2026-05-01T12:59:43.509Z</time></trkpt><trkpt lat="42.2196517" lon="14.214985"><ele>331.0</ele><time>2026-05-01T12:59:44.511Z</time></trkpt><trkpt lat="42.21973" lon="14.2148167"><ele>331.0</ele><time>2026-05-01T12:59:45.509Z</time></trkpt><trkpt lat="42.21981" lon="14.2146483"><ele>331.0</ele><time>2026-05-01T12:59:46.51Z</time></trkpt><trkpt lat="42.21988" lon="14.2144817"><ele>330.20000000000005</ele><time>2026-05-01T12:59:47.511Z</time></trkpt><trkpt lat="42.2199383" lon="14.2143217"><ele>329.40000000000003</ele><time>2026-05-01T12:59:48.511Z</time></trkpt><trkpt lat="42.21999" lon="14.2141817"><ele>328.6</ele><time>2026-05-01T12:59:49.51Z</time></trkpt><trkpt lat="42.2200267" lon="14.2140633"><ele>327.8</ele><time>2026-05-01T12:59:50.512Z</time></trkpt><trkpt lat="42.2200567" lon="14.2139633"><ele>327.0</ele><time>2026-05-01T12:59:51.511Z</time></trkpt><trkpt lat="42.2200833" lon="14.2138733"><ele>325.8</ele><time>2026-05-01T12:59:52.511Z</time></trkpt><trkpt lat="42.2200967" lon="14.213725"><ele>324.6</ele><time>2026-05-01T12:59:54.512Z</time></trkpt><trkpt lat="42.2200217" lon="14.21362"><ele>323.40000000000003</ele><time>2026-05-01T12:59:56.509Z</time></trkpt><trkpt lat="42.21996" lon="14.2135867"><ele>322.20000000000005</ele><time>2026-05-01T12:59:57.511Z</time></trkpt><trkpt lat="42.2198733" lon="14.2135067"><ele>321.0</ele><time>2026-05-01T12:59:59.511Z</time></trkpt><trkpt lat="42.2198617" lon="14.2133867"><ele>321.0</ele><time>2026-05-01T13:00:01.51Z</time></trkpt><trkpt lat="42.2198917" lon="14.2132983"><ele>321.0</ele><time>2026-05-01T13:00:02.511Z</time></trkpt><trkpt lat="42.2199767" lon="14.2131617"><ele>321.0</ele><time>2026-05-01T13:00:03.511Z</time></trkpt><trkpt lat="42.2200717" lon="14.2130283"><ele>321.0</ele><time>2026-05-01T13:00:04.51Z</time></trkpt><trkpt lat="42.2201733" lon="14.21289"><ele>321.25</ele><time>2026-05-01T13:00:05.514Z</time></trkpt><trkpt lat="42.22028" lon="14.21276"><ele>321.5</ele><time>2026-05-01T13:00:06.512Z</time></trkpt><trkpt lat="42.2203833" lon="14.2126367"><ele>321.75</ele><time>2026-05-01T13:00:07.509Z</time></trkpt><trkpt lat="42.2204783" lon="14.2125233"><ele>322.0</ele><time>2026-05-01T13:00:08.51Z</time></trkpt><trkpt lat="42.22057" lon="14.2124217"><ele>321.5</ele><time>2026-05-01T13:00:09.51Z</time></trkpt><trkpt lat="42.22066" lon="14.2123167"><ele>321.0</ele><time>2026-05-01T13:00:10.512Z</time></trkpt><trkpt lat="42.2207483" lon="14.2122067"><ele>320.5</ele><time>2026-05-01T13:00:11.509Z</time></trkpt><trkpt lat="42.2208333" lon="14.2120967"><ele>320.0</ele><time>2026-05-01T13:00:12.508Z</time></trkpt><trkpt lat="42.2209283" lon="14.2119917"><ele>320.0</ele><time>2026-05-01T13:00:13.51Z</time></trkpt><trkpt lat="42.2210267" lon="14.2118883"><ele>320.0</ele><time>2026-05-01T13:00:14.509Z</time></trkpt><trkpt lat="42.2211267" lon="14.211795"><ele>320.0</ele><time>2026-05-01T13:00:15.508Z</time></trkpt><trkpt lat="42.2212383" lon="14.2117117"><ele>320.0</ele><time>2026-05-01T13:00:16.509Z</time></trkpt><trkpt lat="42.2213583" lon="14.21164"><ele>319.0</ele><time>2026-05-01T13:00:17.512Z</time></trkpt><trkpt lat="42.2214867" lon="14.21157"><ele>318.0</ele><time>2026-05-01T13:00:18.517Z</time></trkpt><trkpt lat="42.22161" lon="14.2114983"><ele>317.0</ele><time>2026-05-01T13:00:19.51Z</time></trkpt><trkpt lat="42.221735" lon="14.2114267"><ele>316.0</ele><time>2026-05-01T13:00:20.515Z</time></trkpt><trkpt lat="42.2218517" lon="14.211355"><ele>315.5</ele><time>2026-05-01T13:00:21.51Z</time></trkpt><trkpt lat="42.2219683" lon="14.2112883"><ele>315.0</ele><time>2026-05-01T13:00:22.512Z</time></trkpt><trkpt lat="42.2220833" lon="14.211235"><ele>314.5</ele><time>2026-05-01T13:00:23.514Z</time></trkpt><trkpt lat="42.2221983" lon="14.2111933"><ele>314.0</ele><time>2026-05-01T13:00:24.509Z</time></trkpt><trkpt lat="42.22232" lon="14.2111517"><ele>313.0</ele><time>2026-05-01T13:00:25.514Z</time></trkpt><trkpt lat="42.2224367" lon="14.2111033"><ele>312.0</ele><time>2026-05-01T13:00:26.509Z</time></trkpt><trkpt lat="42.2225433" lon="14.21105"><ele>311.0</ele><time>2026-05-01T13:00:27.515Z</time></trkpt><trkpt lat="42.2226517" lon="14.2109867"><ele>310.0</ele><time>2026-05-01T13:00:28.511Z</time></trkpt><trkpt lat="42.2227583" lon="14.2109133"><ele>310.0</ele><time>2026-05-01T13:00:29.511Z</time></trkpt><trkpt lat="42.2228567" lon="14.21083"><ele>310.0</ele><time>2026-05-01T13:00:30.51Z</time></trkpt><trkpt lat="42.2229533" lon="14.2107417"><ele>310.0</ele><time>2026-05-01T13:00:31.514Z</time></trkpt><trkpt lat="42.2230583" lon="14.210645"><ele>310.0</ele><time>2026-05-01T13:00:32.514Z</time></trkpt><trkpt lat="42.2231667" lon="14.21055"><ele>309.75</ele><time>2026-05-01T13:00:33.512Z</time></trkpt><trkpt lat="42.2232683" lon="14.2104383"><ele>309.5</ele><time>2026-05-01T13:00:34.512Z</time></trkpt><trkpt lat="42.223365" lon="14.2103333"><ele>309.25</ele><time>2026-05-01T13:00:35.516Z</time></trkpt><trkpt lat="42.2234433" lon="14.210225"><ele>309.0</ele><time>2026-05-01T13:00:36.512Z</time></trkpt><trkpt lat="42.2235133" lon="14.21013"><ele>309.0</ele><time>2026-05-01T13:00:37.512Z</time></trkpt><trkpt lat="42.2235783" lon="14.2100383"><ele>309.0</ele><time>2026-05-01T13:00:38.512Z</time></trkpt><trkpt lat="42.2236483" lon="14.2099667"><ele>309.0</ele><time>2026-05-01T13:00:39.513Z</time></trkpt><trkpt lat="42.2237217" lon="14.20991"><ele>309.0</ele><time>2026-05-01T13:00:40.517Z</time></trkpt><trkpt lat="42.2237933" lon="14.2098633"><ele>309.0</ele><time>2026-05-01T13:00:41.509Z</time></trkpt><trkpt lat="42.223865" lon="14.2098367"><ele>309.0</ele><time>2026-05-01T13:00:42.509Z</time></trkpt><trkpt lat="42.2239283" lon="14.209835"><ele>309.0</ele><time>2026-05-01T13:00:43.509Z</time></trkpt><trkpt lat="42.2239967" lon="14.2098383"><ele>309.0</ele><time>2026-05-01T13:00:44.51Z</time></trkpt><trkpt lat="42.2240783" lon="14.20986"><ele>309.0</ele><time>2026-05-01T13:00:45.512Z</time></trkpt><trkpt lat="42.2241633" lon="14.2098733"><ele>309.0</ele><time>2026-05-01T13:00:46.509Z</time></trkpt><trkpt lat="42.2242483" lon="14.2098517"><ele>309.0</ele><time>2026-05-01T13:00:47.511Z</time></trkpt><trkpt lat="42.22433" lon="14.20981"><ele>309.0</ele><time>2026-05-01T13:00:48.51Z</time></trkpt><trkpt lat="42.224405" lon="14.2097533"><ele>309.4</ele><time>2026-05-01T13:00:49.511Z</time></trkpt><trkpt lat="42.2244683" lon="14.2096317"><ele>309.79999999999995</ele><time>2026-05-01T13:00:50.512Z</time></trkpt><trkpt lat="42.22455" lon="14.20953"><ele>310.20000000000005</ele><time>2026-05-01T13:00:51.511Z</time></trkpt><trkpt lat="42.22463" lon="14.2094333"><ele>310.6</ele><time>2026-05-01T13:00:52.51Z</time></trkpt><trkpt lat="42.2247033" lon="14.2093467"><ele>311.0</ele><time>2026-05-01T13:00:53.514Z</time></trkpt><trkpt lat="42.2247767" lon="14.2092733"><ele>310.0</ele><time>2026-05-01T13:00:54.513Z</time></trkpt><trkpt lat="42.224855" lon="14.209215"><ele>309.0</ele><time>2026-05-01T13:00:55.511Z</time></trkpt><trkpt lat="42.224955" lon="14.2091667"><ele>308.0</ele><time>2026-05-01T13:00:56.513Z</time></trkpt><trkpt lat="42.2250683" lon="14.2091217"><ele>307.0</ele><time>2026-05-01T13:00:57.51Z</time></trkpt><trkpt lat="42.2251983" lon="14.2090683"><ele>307.0</ele><time>2026-05-01T13:00:58.511Z</time></trkpt><trkpt lat="42.2253483" lon="14.2089933"><ele>307.0</ele><time>2026-05-01T13:00:59.516Z</time></trkpt><trkpt lat="42.225495" lon="14.208915"><ele>307.0</ele><time>2026-05-01T13:01:00.512Z</time></trkpt><trkpt lat="42.225635" lon="14.2088417"><ele>306.0</ele><time>2026-05-01T13:01:01.512Z</time></trkpt><trkpt lat="42.2257767" lon="14.2087833"><ele>305.0</ele><time>2026-05-01T13:01:02.513Z</time></trkpt><trkpt lat="42.2259017" lon="14.2087383"><ele>304.0</ele><time>2026-05-01T13:01:03.511Z</time></trkpt><trkpt lat="42.2260067" lon="14.2087067"><ele>303.0</ele><time>2026-05-01T13:01:04.509Z</time></trkpt><trkpt lat="42.2260833" lon="14.2086633"><ele>303.0</ele><time>2026-05-01T13:01:05.512Z</time></trkpt><trkpt lat="42.2261467" lon="14.20861"><ele>303.0</ele><time>2026-05-01T13:01:06.512Z</time></trkpt><trkpt lat="42.2262033" lon="14.2085483"><ele>303.0</ele><time>2026-05-01T13:01:07.509Z</time></trkpt><trkpt lat="42.2262567" lon="14.2084633"><ele>303.0</ele><time>2026-05-01T13:01:08.514Z</time></trkpt><trkpt lat="42.2263083" lon="14.208335"><ele>303.0</ele><time>2026-05-01T13:01:09.51Z</time></trkpt><trkpt lat="42.2263733" lon="14.2081433"><ele>302.5</ele><time>2026-05-01T13:01:10.51Z</time></trkpt><trkpt lat="42.2264367" lon="14.2079767"><ele>302.0</ele><time>2026-05-01T13:01:11.508Z</time></trkpt><trkpt lat="42.2264983" lon="14.2078317"><ele>301.5</ele><time>2026-05-01T13:01:12.512Z</time></trkpt><trkpt lat="42.2265617" lon="14.2077133"><ele>301.0</ele><time>2026-05-01T13:01:13.51Z</time></trkpt><trkpt lat="42.226635" lon="14.2076133"><ele>300.5</ele><time>2026-05-01T13:01:14.509Z</time></trkpt><trkpt lat="42.22672" lon="14.2075217"><ele>300.0</ele><time>2026-05-01T13:01:15.511Z</time></trkpt><trkpt lat="42.2268233" lon="14.207425"><ele>299.5</ele><time>2026-05-01T13:01:16.508Z</time></trkpt><trkpt lat="42.226945" lon="14.2073183"><ele>299.0</ele><time>2026-05-01T13:01:17.515Z</time></trkpt><trkpt lat="42.2270867" lon="14.207215"><ele>298.75</ele><time>2026-05-01T13:01:18.513Z</time></trkpt><trkpt lat="42.2272167" lon="14.207115"><ele>298.5</ele><time>2026-05-01T13:01:19.513Z</time></trkpt><trkpt lat="42.2273317" lon="14.2070333"><ele>298.25</ele><time>2026-05-01T13:01:20.514Z</time></trkpt><trkpt lat="42.2274283" lon="14.2069583"><ele>298.0</ele><time>2026-05-01T13:01:21.512Z</time></trkpt><trkpt lat="42.22751" lon="14.2068783"><ele>297.0</ele><time>2026-05-01T13:01:22.512Z</time></trkpt><trkpt lat="42.22757" lon="14.20678"><ele>296.0</ele><time>2026-05-01T13:01:23.515Z</time></trkpt><trkpt lat="42.2276133" lon="14.20665"><ele>295.0</ele><time>2026-05-01T13:01:24.51Z</time></trkpt><trkpt lat="42.2276483" lon="14.2064817"><ele>294.0</ele><time>2026-05-01T13:01:25.51Z</time></trkpt><trkpt lat="42.22769" lon="14.2063167"><ele>293.4</ele><time>2026-05-01T13:01:26.509Z</time></trkpt><trkpt lat="42.227735" lon="14.2061667"><ele>292.79999999999995</ele><time>2026-05-01T13:01:27.509Z</time></trkpt><trkpt lat="42.2277783" lon="14.2060467"><ele>292.20000000000005</ele><time>2026-05-01T13:01:28.51Z</time></trkpt><trkpt lat="42.227805" lon="14.2059433"><ele>291.6</ele><time>2026-05-01T13:01:29.509Z</time></trkpt><trkpt lat="42.2278117" lon="14.205845"><ele>291.0</ele><time>2026-05-01T13:01:30.511Z</time></trkpt><trkpt lat="42.227805" lon="14.2057383"><ele>290.8333333333333</ele><time>2026-05-01T13:01:31.511Z</time></trkpt><trkpt lat="42.2277733" lon="14.2056233"><ele>290.6666666666667</ele><time>2026-05-01T13:01:32.51Z</time></trkpt><trkpt lat="42.2277383" lon="14.205515"><ele>290.5</ele><time>2026-05-01T13:01:33.517Z</time></trkpt><trkpt lat="42.2277167" lon="14.2054083"><ele>290.33333333333337</ele><time>2026-05-01T13:01:34.512Z</time></trkpt><trkpt lat="42.2277067" lon="14.2053133"><ele>290.1666666666667</ele><time>2026-05-01T13:01:35.512Z</time></trkpt><trkpt lat="42.227715" lon="14.2052217"><ele>290.0</ele><time>2026-05-01T13:01:36.513Z</time></trkpt><trkpt lat="42.2277283" lon="14.2051383"><ele>290.0</ele><time>2026-05-01T13:01:37.513Z</time></trkpt><trkpt lat="42.2277683" lon="14.2050633"><ele>290.0</ele><time>2026-05-01T13:01:38.512Z</time></trkpt><trkpt lat="42.2278233" lon="14.2049967"><ele>290.0</ele><time>2026-05-01T13:01:39.512Z</time></trkpt><trkpt lat="42.2278917" lon="14.20494"><ele>290.0</ele><time>2026-05-01T13:01:40.512Z</time></trkpt><trkpt lat="42.22798" lon="14.204885"><ele>290.0</ele><time>2026-05-01T13:01:41.509Z</time></trkpt><trkpt lat="42.2280733" lon="14.20482"><ele>290.0</ele><time>2026-05-01T13:01:42.51Z</time></trkpt><trkpt lat="42.228155" lon="14.2047467"><ele>290.0</ele><time>2026-05-01T13:01:43.51Z</time></trkpt><trkpt lat="42.22823" lon="14.20466"><ele>290.0</ele><time>2026-05-01T13:01:44.512Z</time></trkpt><trkpt lat="42.22831" lon="14.2045433"><ele>290.0</ele><time>2026-05-01T13:01:45.509Z</time></trkpt><trkpt lat="42.2283783" lon="14.204415"><ele>290.0</ele><time>2026-05-01T13:01:46.512Z</time></trkpt><trkpt lat="42.2284367" lon="14.2042833"><ele>290.0</ele><time>2026-05-01T13:01:47.51Z</time></trkpt><trkpt lat="42.22849" lon="14.20417"><ele>290.0</ele><time>2026-05-01T13:01:48.51Z</time></trkpt><trkpt lat="42.228555" lon="14.204075"><ele>290.0</ele><time>2026-05-01T13:01:49.511Z</time></trkpt><trkpt lat="42.2286333" lon="14.2039983"><ele>290.0</ele><time>2026-05-01T13:01:50.51Z</time></trkpt><trkpt lat="42.228735" lon="14.2039433"><ele>290.0</ele><time>2026-05-01T13:01:51.518Z</time></trkpt><trkpt lat="42.2288583" lon="14.20388"><ele>290.0</ele><time>2026-05-01T13:01:52.508Z</time></trkpt><trkpt lat="42.22898" lon="14.2038067"><ele>289.5</ele><time>2026-05-01T13:01:53.514Z</time></trkpt><trkpt lat="42.2291067" lon="14.2037317"><ele>289.0</ele><time>2026-05-01T13:01:54.51Z</time></trkpt><trkpt lat="42.229225" lon="14.2036417"><ele>288.5</ele><time>2026-05-01T13:01:55.508Z</time></trkpt><trkpt lat="42.2293333" lon="14.2035517"><ele>288.0</ele><time>2026-05-01T13:01:56.516Z</time></trkpt><trkpt lat="42.2294283" lon="14.2034733"><ele>288.0</ele><time>2026-05-01T13:01:57.509Z</time></trkpt><trkpt lat="42.229505" lon="14.2033933"><ele>288.0</ele><time>2026-05-01T13:01:58.511Z</time></trkpt><trkpt lat="42.2295583" lon="14.203295"><ele>288.0</ele><time>2026-05-01T13:01:59.512Z</time></trkpt><trkpt lat="42.2295917" lon="14.20318"><ele>288.0</ele><time>2026-05-01T13:02:00.513Z</time></trkpt><trkpt lat="42.2295983" lon="14.2030183"><ele>288.0</ele><time>2026-05-01T13:02:01.511Z</time></trkpt><trkpt lat="42.2295983" lon="14.202855"><ele>287.2</ele><time>2026-05-01T13:02:02.511Z</time></trkpt><trkpt lat="42.22961" lon="14.2027117"><ele>286.4</ele><time>2026-05-01T13:02:03.514Z</time></trkpt><trkpt lat="42.2296333" lon="14.2025783"><ele>285.59999999999997</ele><time>2026-05-01T13:02:04.516Z</time></trkpt><trkpt lat="42.2296783" lon="14.202445"><ele>284.8</ele><time>2026-05-01T13:02:05.512Z</time></trkpt><trkpt lat="42.2297467" lon="14.2023133"><ele>284.0</ele><time>2026-05-01T13:02:06.511Z</time></trkpt><trkpt lat="42.2298317" lon="14.2021867"><ele>283.75</ele><time>2026-05-01T13:02:07.512Z</time></trkpt><trkpt lat="42.2299067" lon="14.2020633"><ele>283.5</ele><time>2026-05-01T13:02:08.512Z</time></trkpt><trkpt lat="42.2299967" lon="14.2019567"><ele>283.25</ele><time>2026-05-01T13:02:09.513Z</time></trkpt><trkpt lat="42.2301017" lon="14.20186"><ele>283.0</ele><time>2026-05-01T13:02:10.511Z</time></trkpt><trkpt lat="42.2302217" lon="14.2017717"><ele>283.0</ele><time>2026-05-01T13:02:11.509Z</time></trkpt><trkpt lat="42.2303467" lon="14.2016817"><ele>283.0</ele><time>2026-05-01T13:02:12.509Z</time></trkpt><trkpt lat="42.23047" lon="14.2015867"><ele>283.0</ele><time>2026-05-01T13:02:13.51Z</time></trkpt><trkpt lat="42.2305883" lon="14.2014583"><ele>283.0</ele><time>2026-05-01T13:02:14.512Z</time></trkpt><trkpt lat="42.2306967" lon="14.201285"><ele>282.66666666666663</ele><time>2026-05-01T13:02:15.514Z</time></trkpt><trkpt lat="42.2307967" lon="14.2011033"><ele>282.3333333333333</ele><time>2026-05-01T13:02:16.509Z</time></trkpt><trkpt lat="42.2308767" lon="14.2009283"><ele>282.0</ele><time>2026-05-01T13:02:17.51Z</time></trkpt><trkpt lat="42.2309317" lon="14.200755"><ele>280.3333333333333</ele><time>2026-05-01T13:02:18.512Z</time></trkpt><trkpt lat="42.2310217" lon="14.2006083"><ele>278.66666666666663</ele><time>2026-05-01T13:02:19.511Z</time></trkpt><trkpt lat="42.2311483" lon="14.2004783"><ele>277.0</ele><time>2026-05-01T13:02:20.511Z</time></trkpt><trkpt lat="42.23128" lon="14.20033"><ele>277.0</ele><time>2026-05-01T13:02:21.511Z</time></trkpt><trkpt lat="42.23141" lon="14.20016"><ele>277.0</ele><time>2026-05-01T13:02:22.514Z</time></trkpt><trkpt lat="42.2315317" lon="14.19999"><ele>277.0</ele><time>2026-05-01T13:02:23.511Z</time></trkpt><trkpt lat="42.2316417" lon="14.1998333"><ele>276.8</ele><time>2026-05-01T13:02:24.513Z</time></trkpt><trkpt lat="42.2317367" lon="14.1997083"><ele>276.6</ele><time>2026-05-01T13:02:25.512Z</time></trkpt><trkpt lat="42.2318167" lon="14.1996183"><ele>276.40000000000003</ele><time>2026-05-01T13:02:26.514Z</time></trkpt><trkpt lat="42.2318783" lon="14.19955"><ele>276.2</ele><time>2026-05-01T13:02:27.512Z</time></trkpt><trkpt lat="42.23192" lon="14.1994733"><ele>276.0</ele><time>2026-05-01T13:02:28.511Z</time></trkpt><trkpt lat="42.2319617" lon="14.199385"><ele>276.0</ele><time>2026-05-01T13:02:29.512Z</time></trkpt><trkpt lat="42.23201" lon="14.1992833"><ele>276.0</ele><time>2026-05-01T13:02:30.515Z</time></trkpt><trkpt lat="42.2320783" lon="14.1991817"><ele>276.0</ele><time>2026-05-01T13:02:31.512Z</time></trkpt><trkpt lat="42.2321533" lon="14.1990633"><ele>276.0</ele><time>2026-05-01T13:02:32.513Z</time></trkpt><trkpt lat="42.2322267" lon="14.1989483"><ele>276.0</ele><time>2026-05-01T13:02:33.514Z</time></trkpt><trkpt lat="42.232295" lon="14.1988383"><ele>275.2</ele><time>2026-05-01T13:02:34.515Z</time></trkpt><trkpt lat="42.23237" lon="14.198735"><ele>274.40000000000003</ele><time>2026-05-01T13:02:35.512Z</time></trkpt><trkpt lat="42.232445" lon="14.1986317"><ele>273.6</ele><time>2026-05-01T13:02:36.515Z</time></trkpt><trkpt lat="42.2325167" lon="14.1985267"><ele>272.8</ele><time>2026-05-01T13:02:37.511Z</time></trkpt><trkpt lat="42.2325933" lon="14.1984267"><ele>272.0</ele><time>2026-05-01T13:02:38.515Z</time></trkpt><trkpt lat="42.2326533" lon="14.198315"><ele>272.0</ele><time>2026-05-01T13:02:39.516Z</time></trkpt><trkpt lat="42.23272" lon="14.1982217"><ele>272.0</ele><time>2026-05-01T13:02:40.511Z</time></trkpt><trkpt lat="42.2327783" lon="14.1981283"><ele>272.0</ele><time>2026-05-01T13:02:41.514Z</time></trkpt><trkpt lat="42.2328183" lon="14.1980367"><ele>272.0</ele><time>2026-05-01T13:02:42.51Z</time></trkpt><trkpt lat="42.2328467" lon="14.1979567"><ele>272.0</ele><time>2026-05-01T13:02:43.511Z</time></trkpt><trkpt lat="42.2328717" lon="14.19782"><ele>272.0</ele><time>2026-05-01T13:02:45.509Z</time></trkpt><trkpt lat="42.2328967" lon="14.19766"><ele>271.71428571428567</ele><time>2026-05-01T13:02:47.51Z</time></trkpt><trkpt lat="42.2329" lon="14.197575"><ele>271.42857142857144</ele><time>2026-05-01T13:02:48.509Z</time></trkpt><trkpt lat="42.232915" lon="14.1974883"><ele>271.1428571428571</ele><time>2026-05-01T13:02:50.509Z</time></trkpt><trkpt lat="42.23293" lon="14.19739"><ele>270.85714285714283</ele><time>2026-05-01T13:02:54.512Z</time></trkpt><trkpt lat="42.23292" lon="14.19729"><ele>270.57142857142856</ele><time>2026-05-01T13:02:57.509Z</time></trkpt><trkpt lat="42.2329217" lon="14.19719"><ele>270.2857142857143</ele><time>2026-05-01T13:03:01.51Z</time></trkpt><trkpt lat="42.232945" lon="14.1973167"><ele>270.0</ele><time>2026-05-01T13:03:21.511Z</time></trkpt><trkpt lat="42.2329517" lon="14.1974233"><ele>269.5</ele><time>2026-05-01T13:03:23.517Z</time></trkpt><trkpt lat="42.2329333" lon="14.1975383"><ele>269.0</ele><time>2026-05-01T13:03:25.511Z</time></trkpt><trkpt lat="42.2329217" lon="14.19765"><ele>268.5</ele><time>2026-05-01T13:03:27.512Z</time></trkpt><trkpt lat="42.2329283" lon="14.1977633"><ele>268.0</ele><time>2026-05-01T13:03:30.514Z</time></trkpt><trkpt lat="42.232995" lon="14.1978133"><ele>267.5</ele><time>2026-05-01T13:03:33.513Z</time></trkpt><trkpt lat="42.2330767" lon="14.19781"><ele>267.0</ele><time>2026-05-01T13:03:35.51Z</time></trkpt><trkpt lat="42.2331633" lon="14.1977767"><ele>267.0</ele><time>2026-05-01T13:03:37.513Z</time></trkpt><trkpt lat="42.2332483" lon="14.1976867"><ele>267.0</ele><time>2026-05-01T13:03:39.512Z</time></trkpt><trkpt lat="42.2333" lon="14.1976267"><ele>267.0</ele><time>2026-05-01T13:03:40.511Z</time></trkpt><trkpt lat="42.2333617" lon="14.197575"><ele>267.0</ele><time>2026-05-01T13:03:41.511Z</time></trkpt><trkpt lat="42.2334283" lon="14.1975233"><ele>267.0</ele><time>2026-05-01T13:03:42.514Z</time></trkpt><trkpt lat="42.2334967" lon="14.1974717"><ele>267.0</ele><time>2026-05-01T13:03:43.509Z</time></trkpt><trkpt lat="42.233565" lon="14.1974167"><ele>267.0</ele><time>2026-05-01T13:03:44.51Z</time></trkpt><trkpt lat="42.2336233" lon="14.19735"><ele>267.0</ele><time>2026-05-01T13:03:45.509Z</time></trkpt><trkpt lat="42.2336633" lon="14.19724"><ele>267.0</ele><time>2026-05-01T13:03:46.512Z</time></trkpt><trkpt lat="42.2337083" lon="14.1971067"><ele>267.0</ele><time>2026-05-01T13:03:47.51Z</time></trkpt><trkpt lat="42.2337667" lon="14.1969733"><ele>267.0</ele><time>2026-05-01T13:03:48.511Z</time></trkpt><trkpt lat="42.233825" lon="14.1968517"><ele>267.0</ele><time>2026-05-01T13:03:49.512Z</time></trkpt><trkpt lat="42.2338767" lon="14.1967367"><ele>267.0</ele><time>2026-05-01T13:03:50.511Z</time></trkpt><trkpt lat="42.2339233" lon="14.1966167"><ele>267.0</ele><time>2026-05-01T13:03:51.516Z</time></trkpt><trkpt lat="42.2339717" lon="14.1964817"><ele>267.0</ele><time>2026-05-01T13:03:52.512Z</time></trkpt><trkpt lat="42.2340317" lon="14.1963383"><ele>267.0</ele><time>2026-05-01T13:03:53.512Z</time></trkpt><trkpt lat="42.2341" lon="14.196195"><ele>266.8</ele><time>2026-05-01T13:03:54.511Z</time></trkpt><trkpt lat="42.2341633" lon="14.1960667"><ele>266.6</ele><time>2026-05-01T13:03:55.512Z</time></trkpt><trkpt lat="42.2342167" lon="14.1959467"><ele>266.40000000000003</ele><time>2026-05-01T13:03:56.512Z</time></trkpt><trkpt lat="42.2342683" lon="14.1958517"><ele>266.2</ele><time>2026-05-01T13:03:57.511Z</time></trkpt><trkpt lat="42.23433" lon="14.1957417"><ele>266.0</ele><time>2026-05-01T13:03:58.512Z</time></trkpt><trkpt lat="42.2344067" lon="14.19564"><ele>266.6</ele><time>2026-05-01T13:03:59.515Z</time></trkpt><trkpt lat="42.2344833" lon="14.195535"><ele>267.20000000000005</ele><time>2026-05-01T13:04:00.512Z</time></trkpt><trkpt lat="42.23456" lon="14.1954383"><ele>267.79999999999995</ele><time>2026-05-01T13:04:01.513Z</time></trkpt><trkpt lat="42.23463" lon="14.19535"><ele>268.4</ele><time>2026-05-01T13:04:02.514Z</time></trkpt><trkpt lat="42.2346867" lon="14.1952633"><ele>269.0</ele><time>2026-05-01T13:04:03.512Z</time></trkpt><trkpt lat="42.2347617" lon="14.1951967"><ele>268.25</ele><time>2026-05-01T13:04:04.515Z</time></trkpt><trkpt lat="42.2348417" lon="14.1951267"><ele>267.5</ele><time>2026-05-01T13:04:05.511Z</time></trkpt><trkpt lat="42.234945" lon="14.1950283"><ele>266.75</ele><time>2026-05-01T13:04:06.513Z</time></trkpt><trkpt lat="42.2350617" lon="14.1949083"><ele>266.0</ele><time>2026-05-01T13:04:07.511Z</time></trkpt><trkpt lat="42.2351767" lon="14.1947867"><ele>265.8</ele><time>2026-05-01T13:04:08.51Z</time></trkpt><trkpt lat="42.2352767" lon="14.1946667"><ele>265.6</ele><time>2026-05-01T13:04:09.512Z</time></trkpt><trkpt lat="42.2353583" lon="14.194565"><ele>265.4</ele><time>2026-05-01T13:04:10.512Z</time></trkpt><trkpt lat="42.2354367" lon="14.1944983"><ele>265.2</ele><time>2026-05-01T13:04:11.515Z</time></trkpt><trkpt lat="42.2355217" lon="14.1944417"><ele>265.0</ele><time>2026-05-01T13:04:12.511Z</time></trkpt><trkpt lat="42.2356133" lon="14.1943967"><ele>265.0</ele><time>2026-05-01T13:04:13.512Z</time></trkpt><trkpt lat="42.2357133" lon="14.1943533"><ele>265.0</ele><time>2026-05-01T13:04:14.51Z</time></trkpt><trkpt lat="42.2358083" lon="14.1942983"><ele>265.0</ele><time>2026-05-01T13:04:15.513Z</time></trkpt><trkpt lat="42.2358933" lon="14.1942383"><ele>265.0</ele><time>2026-05-01T13:04:16.508Z</time></trkpt><trkpt lat="42.2359667" lon="14.194125"><ele>265.0</ele><time>2026-05-01T13:04:17.511Z</time></trkpt><trkpt lat="42.2360383" lon="14.1939833"><ele>264.25</ele><time>2026-05-01T13:04:18.51Z</time></trkpt><trkpt lat="42.2361067" lon="14.1938067"><ele>263.5</ele><time>2026-05-01T13:04:19.51Z</time></trkpt><trkpt lat="42.2361667" lon="14.1936167"><ele>262.75</ele><time>2026-05-01T13:04:20.511Z</time></trkpt><trkpt lat="42.23622" lon="14.1934433"><ele>262.0</ele><time>2026-05-01T13:04:21.512Z</time></trkpt><trkpt lat="42.2362633" lon="14.19328"><ele>261.0</ele><time>2026-05-01T13:04:22.511Z</time></trkpt><trkpt lat="42.2363017" lon="14.1931183"><ele>260.0</ele><time>2026-05-01T13:04:23.51Z</time></trkpt><trkpt lat="42.2363333" lon="14.1929667"><ele>259.0</ele><time>2026-05-01T13:04:24.515Z</time></trkpt><trkpt lat="42.236365" lon="14.19281"><ele>258.0</ele><time>2026-05-01T13:04:25.511Z</time></trkpt><trkpt lat="42.236395" lon="14.1926633"><ele>258.0</ele><time>2026-05-01T13:04:26.515Z</time></trkpt><trkpt lat="42.2364333" lon="14.1925233"><ele>258.0</ele><time>2026-05-01T13:04:27.511Z</time></trkpt><trkpt lat="42.236485" lon="14.1923783"><ele>258.0</ele><time>2026-05-01T13:04:28.511Z</time></trkpt><trkpt lat="42.2365383" lon="14.1922217"><ele>258.0</ele><time>2026-05-01T13:04:29.516Z</time></trkpt><trkpt lat="42.2365867" lon="14.1920717"><ele>257.75</ele><time>2026-05-01T13:04:30.512Z</time></trkpt><trkpt lat="42.2366367" lon="14.1919283"><ele>257.5</ele><time>2026-05-01T13:04:31.512Z</time></trkpt><trkpt lat="42.236695" lon="14.1917883"><ele>257.25</ele><time>2026-05-01T13:04:32.512Z</time></trkpt><trkpt lat="42.236765" lon="14.191655"><ele>257.0</ele><time>2026-05-01T13:04:33.513Z</time></trkpt><trkpt lat="42.2368417" lon="14.19153"><ele>255.75</ele><time>2026-05-01T13:04:34.514Z</time></trkpt><trkpt lat="42.236925" lon="14.1914117"><ele>254.5</ele><time>2026-05-01T13:04:35.513Z</time></trkpt><trkpt lat="42.2370083" lon="14.1912983"><ele>253.25</ele><time>2026-05-01T13:04:36.513Z</time></trkpt><trkpt lat="42.237075" lon="14.1911783"><ele>252.0</ele><time>2026-05-01T13:04:37.512Z</time></trkpt><trkpt lat="42.237125" lon="14.1910433"><ele>252.0</ele><time>2026-05-01T13:04:38.512Z</time></trkpt><trkpt lat="42.2371733" lon="14.190885"><ele>252.0</ele><time>2026-05-01T13:04:39.512Z</time></trkpt><trkpt lat="42.2372133" lon="14.1907183"><ele>252.0</ele><time>2026-05-01T13:04:40.512Z</time></trkpt><trkpt lat="42.2372767" lon="14.19057"><ele>252.0</ele><time>2026-05-01T13:04:41.512Z</time></trkpt><trkpt lat="42.2373383" lon="14.19044"><ele>252.25</ele><time>2026-05-01T13:04:42.512Z</time></trkpt><trkpt lat="42.2374167" lon="14.1903317"><ele>252.5</ele><time>2026-05-01T13:04:43.512Z</time></trkpt><trkpt lat="42.2375217" lon="14.19024"><ele>252.75</ele><time>2026-05-01T13:04:44.512Z</time></trkpt><trkpt lat="42.2376367" lon="14.1901467"><ele>253.0</ele><time>2026-05-01T13:04:45.514Z</time></trkpt><trkpt lat="42.237735" lon="14.1900133"><ele>253.0</ele><time>2026-05-01T13:04:46.513Z</time></trkpt><trkpt lat="42.2378083" lon="14.1898517"><ele>253.0</ele><time>2026-05-01T13:04:47.513Z</time></trkpt><trkpt lat="42.2378633" lon="14.1896817"><ele>253.0</ele><time>2026-05-01T13:04:48.516Z</time></trkpt><trkpt lat="42.237905" lon="14.18951"><ele>253.0</ele><time>2026-05-01T13:04:49.511Z</time></trkpt><trkpt lat="42.2379283" lon="14.18934"><ele>252.0</ele><time>2026-05-01T13:04:50.512Z</time></trkpt><trkpt lat="42.2379383" lon="14.18917"><ele>251.0</ele><time>2026-05-01T13:04:51.511Z</time></trkpt><trkpt lat="42.2379417" lon="14.1890133"><ele>250.0</ele><time>2026-05-01T13:04:52.511Z</time></trkpt><trkpt lat="42.2379417" lon="14.1888733"><ele>249.0</ele><time>2026-05-01T13:04:53.511Z</time></trkpt><trkpt lat="42.2379317" lon="14.18874"><ele>248.0</ele><time>2026-05-01T13:04:54.513Z</time></trkpt><trkpt lat="42.2379433" lon="14.1885983"><ele>247.4</ele><time>2026-05-01T13:04:55.512Z</time></trkpt><trkpt lat="42.237995" lon="14.1884567"><ele>246.8</ele><time>2026-05-01T13:04:56.514Z</time></trkpt><trkpt lat="42.23806" lon="14.1883283"><ele>246.2</ele><time>2026-05-01T13:04:57.509Z</time></trkpt><trkpt lat="42.238135" lon="14.1882233"><ele>245.6</ele><time>2026-05-01T13:04:58.512Z</time></trkpt><trkpt lat="42.2382117" lon="14.18813"><ele>245.0</ele><time>2026-05-01T13:04:59.512Z</time></trkpt><trkpt lat="42.238275" lon="14.1880417"><ele>244.66666666666669</ele><time>2026-05-01T13:05:00.511Z</time></trkpt><trkpt lat="42.23833" lon="14.1879617"><ele>244.33333333333334</ele><time>2026-05-01T13:05:01.511Z</time></trkpt><trkpt lat="42.2383517" lon="14.1878717"><ele>244.0</ele><time>2026-05-01T13:05:02.512Z</time></trkpt><trkpt lat="42.2383517" lon="14.18777"><ele>243.66666666666669</ele><time>2026-05-01T13:05:03.513Z</time></trkpt><trkpt lat="42.23837" lon="14.18767"><ele>243.33333333333334</ele><time>2026-05-01T13:05:04.51Z</time></trkpt><trkpt lat="42.238375" lon="14.187565"><ele>243.0</ele><time>2026-05-01T13:05:05.511Z</time></trkpt><trkpt lat="42.2383817" lon="14.1874717"><ele>243.0</ele><time>2026-05-01T13:05:06.513Z</time></trkpt><trkpt lat="42.23845" lon="14.1873567"><ele>243.0</ele><time>2026-05-01T13:05:08.518Z</time></trkpt><trkpt lat="42.23857" lon="14.1872717"><ele>243.0</ele><time>2026-05-01T13:05:10.509Z</time></trkpt><trkpt lat="42.2386667" lon="14.1872267"><ele>243.0</ele><time>2026-05-01T13:05:11.512Z</time></trkpt><trkpt lat="42.23876" lon="14.1872033"><ele>243.0</ele><time>2026-05-01T13:05:12.51Z</time></trkpt><trkpt lat="42.238845" lon="14.1871817"><ele>243.8</ele><time>2026-05-01T13:05:13.511Z</time></trkpt><trkpt lat="42.23891" lon="14.1871083"><ele>244.60000000000002</ele><time>2026-05-01T13:05:14.51Z</time></trkpt><trkpt lat="42.2389767" lon="14.1870017"><ele>245.39999999999998</ele><time>2026-05-01T13:05:15.51Z</time></trkpt><trkpt lat="42.23904" lon="14.1868767"><ele>246.2</ele><time>2026-05-01T13:05:16.513Z</time></trkpt><trkpt lat="42.2390983" lon="14.186725"><ele>247.0</ele><time>2026-05-01T13:05:17.51Z</time></trkpt><trkpt lat="42.2391667" lon="14.1865817"><ele>248.6</ele><time>2026-05-01T13:05:18.511Z</time></trkpt><trkpt lat="42.239225" lon="14.1864533"><ele>250.2</ele><time>2026-05-01T13:05:19.509Z</time></trkpt><trkpt lat="42.2392783" lon="14.186345"><ele>251.8</ele><time>2026-05-01T13:05:20.511Z</time></trkpt><trkpt lat="42.239325" lon="14.186255"><ele>253.4</ele><time>2026-05-01T13:05:21.511Z</time></trkpt><trkpt lat="42.23939" lon="14.1861817"><ele>255.0</ele><time>2026-05-01T13:05:22.51Z</time></trkpt><trkpt lat="42.239455" lon="14.1860983"><ele>255.0</ele><time>2026-05-01T13:05:23.514Z</time></trkpt><trkpt lat="42.2395217" lon="14.18601"><ele>255.0</ele><time>2026-05-01T13:05:24.51Z</time></trkpt><trkpt lat="42.2395933" lon="14.1859017"><ele>255.0</ele><time>2026-05-01T13:05:25.513Z</time></trkpt><trkpt lat="42.23967" lon="14.1858017"><ele>255.0</ele><time>2026-05-01T13:05:26.51Z</time></trkpt><trkpt lat="42.2397417" lon="14.185705"><ele>255.0</ele><time>2026-05-01T13:05:27.511Z</time></trkpt><trkpt lat="42.2398" lon="14.185605"><ele>254.6</ele><time>2026-05-01T13:05:28.51Z</time></trkpt><trkpt lat="42.239855" lon="14.1855183"><ele>254.2</ele><time>2026-05-01T13:05:29.51Z</time></trkpt><trkpt lat="42.2399217" lon="14.185405"><ele>253.8</ele><time>2026-05-01T13:05:31.51Z</time></trkpt><trkpt lat="42.2399867" lon="14.1853183"><ele>253.4</ele><time>2026-05-01T13:05:33.514Z</time></trkpt><trkpt lat="42.2400767" lon="14.1852333"><ele>253.0</ele><time>2026-05-01T13:05:35.512Z</time></trkpt><trkpt lat="42.240185" lon="14.1851317"><ele>252.99999999999997</ele><time>2026-05-01T13:05:37.512Z</time></trkpt><trkpt lat="42.24023" lon="14.1850633"><ele>253.0</ele><time>2026-05-01T13:05:38.513Z</time></trkpt><trkpt lat="42.2402733" lon="14.1849983"><ele>253.0</ele><time>2026-05-01T13:05:39.517Z</time></trkpt><trkpt lat="42.2403467" lon="14.1848783"><ele>253.0</ele><time>2026-05-01T13:05:41.51Z</time></trkpt><trkpt lat="42.2404183" lon="14.18479"><ele>252.99999999999997</ele><time>2026-05-01T13:05:43.509Z</time></trkpt><trkpt lat="42.2404667" lon="14.184725"><ele>253.0</ele><time>2026-05-01T13:05:45.509Z</time></trkpt><trkpt lat="42.2405383" lon="14.18467"><ele>252.99999999999997</ele><time>2026-05-01T13:05:48.51Z</time></trkpt><trkpt lat="42.2406033" lon="14.1846567"><ele>253.0</ele><time>2026-05-01T13:05:51.512Z</time></trkpt><trkpt lat="42.24068" lon="14.184645"><ele>253.0</ele><time>2026-05-01T13:05:55.514Z</time></trkpt><trkpt lat="42.2407433" lon="14.1846233"><ele>253.0</ele><time>2026-05-01T13:05:57.508Z</time></trkpt><trkpt lat="42.2408333" lon="14.184635"><ele>252.99999999999997</ele><time>2026-05-01T13:06:00.514Z</time></trkpt><trkpt lat="42.2409217" lon="14.1846617"><ele>253.0</ele><time>2026-05-01T13:06:03.513Z</time></trkpt><trkpt lat="42.2409967" lon="14.1846883"><ele>253.0</ele><time>2026-05-01T13:06:05.511Z</time></trkpt><trkpt lat="42.2410983" lon="14.1847583"><ele>253.0</ele><time>2026-05-01T13:06:07.514Z</time></trkpt><trkpt lat="42.2411883" lon="14.1848383"><ele>253.0</ele><time>2026-05-01T13:06:09.514Z</time></trkpt><trkpt lat="42.241265" lon="14.1848767"><ele>253.0</ele><time>2026-05-01T13:06:12.514Z</time></trkpt><trkpt lat="42.2413333" lon="14.18491"><ele>253.0</ele><time>2026-05-01T13:06:15.509Z</time></trkpt><trkpt lat="42.2412517" lon="14.18488"><ele>252.99999999999997</ele><time>2026-05-01T13:06:37.511Z</time></trkpt><trkpt lat="42.2411617" lon="14.184825"><ele>253.0</ele><time>2026-05-01T13:06:39.509Z</time></trkpt><trkpt lat="42.2410967" lon="14.1847917"><ele>253.0</ele><time>2026-05-01T13:06:40.511Z</time></trkpt><trkpt lat="42.2410183" lon="14.1847367"><ele>253.0</ele><time>2026-05-01T13:06:41.51Z</time></trkpt><trkpt lat="42.2409317" lon="14.1847"><ele>252.99999999999997</ele><time>2026-05-01T13:06:42.512Z</time></trkpt><trkpt lat="42.2408467" lon="14.1846817"><ele>253.0</ele><time>2026-05-01T13:06:43.511Z</time></trkpt><trkpt lat="42.24078" lon="14.18466"><ele>252.99999999999997</ele><time>2026-05-01T13:06:44.517Z</time></trkpt><trkpt lat="42.24069" lon="14.1846517"><ele>253.0</ele><time>2026-05-01T13:06:46.51Z</time></trkpt><trkpt lat="42.240685" lon="14.184745"><ele>253.0</ele><time>2026-05-01T13:06:50.51Z</time></trkpt><trkpt lat="42.2407733" lon="14.1848067"><ele>253.0</ele><time>2026-05-01T13:06:52.51Z</time></trkpt><trkpt lat="42.240845" lon="14.1848467"><ele>252.99999999999997</ele><time>2026-05-01T13:06:53.511Z</time></trkpt><trkpt lat="42.2409217" lon="14.18489"><ele>253.0</ele><time>2026-05-01T13:06:54.516Z</time></trkpt><trkpt lat="42.2410067" lon="14.18494"><ele>252.33333333333331</ele><time>2026-05-01T13:06:55.51Z</time></trkpt><trkpt lat="42.2410917" lon="14.184995"><ele>251.66666666666666</ele><time>2026-05-01T13:06:56.51Z</time></trkpt><trkpt lat="42.2411683" lon="14.18505"><ele>251.0</ele><time>2026-05-01T13:06:57.51Z</time></trkpt><trkpt lat="42.241235" lon="14.1851"><ele>250.33333333333331</ele><time>2026-05-01T13:06:58.511Z</time></trkpt><trkpt lat="42.2412983" lon="14.1851383"><ele>249.66666666666666</ele><time>2026-05-01T13:06:59.513Z</time></trkpt><trkpt lat="42.2413633" lon="14.1851683"><ele>249.0</ele><time>2026-05-01T13:07:00.512Z</time></trkpt><trkpt lat="42.2414267" lon="14.185185"><ele>248.5</ele><time>2026-05-01T13:07:01.513Z</time></trkpt><trkpt lat="42.24149" lon="14.185185"><ele>248.0</ele><time>2026-05-01T13:07:02.512Z</time></trkpt><trkpt lat="42.2415533" lon="14.18516"><ele>247.5</ele><time>2026-05-01T13:07:03.511Z</time></trkpt><trkpt lat="42.2416183" lon="14.1851083"><ele>247.0</ele><time>2026-05-01T13:07:04.511Z</time></trkpt><trkpt lat="42.2416783" lon="14.1850483"><ele>246.5</ele><time>2026-05-01T13:07:05.512Z</time></trkpt><trkpt lat="42.241745" lon="14.1849783"><ele>246.0</ele><time>2026-05-01T13:07:06.515Z</time></trkpt><trkpt lat="42.2418167" lon="14.184895"><ele>246.0</ele><time>2026-05-01T13:07:07.511Z</time></trkpt><trkpt lat="42.24188" lon="14.184795"><ele>246.00000000000003</ele><time>2026-05-01T13:07:08.513Z</time></trkpt><trkpt lat="42.2419417" lon="14.184705"><ele>246.00000000000003</ele><time>2026-05-01T13:07:09.512Z</time></trkpt><trkpt lat="42.2419867" lon="14.1846083"><ele>246.0</ele><time>2026-05-01T13:07:10.51Z</time></trkpt><trkpt lat="42.242015" lon="14.1844983"><ele>246.0</ele><time>2026-05-01T13:07:11.519Z</time></trkpt><trkpt lat="42.2420317" lon="14.18437"><ele>246.0</ele><time>2026-05-01T13:07:12.511Z</time></trkpt><trkpt lat="42.24204" lon="14.1842433"><ele>246.0</ele><time>2026-05-01T13:07:13.512Z</time></trkpt><trkpt lat="42.24205" lon="14.1841267"><ele>246.0</ele><time>2026-05-01T13:07:14.511Z</time></trkpt><trkpt lat="42.2420683" lon="14.1840267"><ele>246.0</ele><time>2026-05-01T13:07:15.51Z</time></trkpt><trkpt lat="42.242095" lon="14.1839217"><ele>246.0</ele><time>2026-05-01T13:07:16.511Z</time></trkpt><trkpt lat="42.2421333" lon="14.183815"><ele>246.0</ele><time>2026-05-01T13:07:17.509Z</time></trkpt><trkpt lat="42.2421867" lon="14.1837017"><ele>246.0</ele><time>2026-05-01T13:07:18.509Z</time></trkpt><trkpt lat="42.2422383" lon="14.18359"><ele>246.0</ele><time>2026-05-01T13:07:19.509Z</time></trkpt><trkpt lat="42.24229" lon="14.18349"><ele>246.0</ele><time>2026-05-01T13:07:20.512Z</time></trkpt><trkpt lat="42.2423533" lon="14.1834067"><ele>246.0</ele><time>2026-05-01T13:07:21.511Z</time></trkpt><trkpt lat="42.2424233" lon="14.1833367"><ele>246.0</ele><time>2026-05-01T13:07:22.509Z</time></trkpt><trkpt lat="42.2425" lon="14.18329"><ele>246.0</ele><time>2026-05-01T13:07:23.511Z</time></trkpt><trkpt lat="42.242585" lon="14.1832683"><ele>246.16666666666666</ele><time>2026-05-01T13:07:24.511Z</time></trkpt><trkpt lat="42.2426767" lon="14.1832783"><ele>246.33333333333331</ele><time>2026-05-01T13:07:25.508Z</time></trkpt><trkpt lat="42.242765" lon="14.183295"><ele>246.5</ele><time>2026-05-01T13:07:26.512Z</time></trkpt><trkpt lat="42.24285" lon="14.1833017"><ele>246.66666666666666</ele><time>2026-05-01T13:07:27.509Z</time></trkpt><trkpt lat="42.24293" lon="14.1833117"><ele>246.83333333333331</ele><time>2026-05-01T13:07:28.509Z</time></trkpt><trkpt lat="42.2430117" lon="14.1833233"><ele>247.0</ele><time>2026-05-01T13:07:29.51Z</time></trkpt><trkpt lat="42.243095" lon="14.183345"><ele>247.0</ele><time>2026-05-01T13:07:30.511Z</time></trkpt><trkpt lat="42.2431683" lon="14.1833683"><ele>247.0</ele><time>2026-05-01T13:07:31.511Z</time></trkpt><trkpt lat="42.24327" lon="14.183345"><ele>247.0</ele><time>2026-05-01T13:07:33.511Z</time></trkpt><trkpt lat="42.2433333" lon="14.1832633"><ele>247.0</ele><time>2026-05-01T13:07:35.511Z</time></trkpt><trkpt lat="42.24327" lon="14.1831817"><ele>247.0</ele><time>2026-05-01T13:07:42.509Z</time></trkpt><trkpt lat="42.2431567" lon="14.18313"><ele>247.5</ele><time>2026-05-01T13:07:44.514Z</time></trkpt><trkpt lat="42.2430733" lon="14.18307"><ele>248.0</ele><time>2026-05-01T13:07:45.509Z</time></trkpt><trkpt lat="42.242965" lon="14.1830117"><ele>248.5</ele><time>2026-05-01T13:07:46.511Z</time></trkpt><trkpt lat="42.242845" lon="14.1829667"><ele>249.0</ele><time>2026-05-01T13:07:47.515Z</time></trkpt><trkpt lat="42.24273" lon="14.1828933"><ele>249.0</ele><time>2026-05-01T13:07:48.513Z</time></trkpt><trkpt lat="42.24262" lon="14.182795"><ele>249.0</ele><time>2026-05-01T13:07:49.516Z</time></trkpt><trkpt lat="42.2425183" lon="14.18268"><ele>249.0</ele><time>2026-05-01T13:07:50.511Z</time></trkpt><trkpt lat="42.24243" lon="14.18256"><ele>249.0</ele><time>2026-05-01T13:07:51.511Z</time></trkpt><trkpt lat="42.2423667" lon="14.1824733"><ele>249.0</ele><time>2026-05-01T13:07:52.51Z</time></trkpt><trkpt lat="42.2423217" lon="14.1824117"><ele>248.99999999999997</ele><time>2026-05-01T13:07:53.512Z</time></trkpt><trkpt lat="42.2422633" lon="14.18232"><ele>249.0</ele><time>2026-05-01T13:07:55.511Z</time></trkpt><trkpt lat="42.24222" lon="14.1822517"><ele>249.0</ele><time>2026-05-01T13:07:57.509Z</time></trkpt><trkpt lat="42.242215" lon="14.1823433"><ele>248.99999999999997</ele><time>2026-05-01T13:08:02.512Z</time></trkpt><trkpt lat="42.2423" lon="14.1823633"><ele>249.0</ele><time>2026-05-01T13:08:05.517Z</time></trkpt><trkpt lat="42.24237" lon="14.1823383"><ele>249.0</ele><time>2026-05-01T13:08:07.512Z</time></trkpt><trkpt lat="42.24249" lon="14.1822883"><ele>249.39999999999998</ele><time>2026-05-01T13:08:09.514Z</time></trkpt><trkpt lat="42.242585" lon="14.1822467"><ele>249.79999999999998</ele><time>2026-05-01T13:08:10.517Z</time></trkpt><trkpt lat="42.24269" lon="14.1821867"><ele>250.20000000000002</ele><time>2026-05-01T13:08:11.512Z</time></trkpt><trkpt lat="42.2427933" lon="14.1821217"><ele>250.60000000000002</ele><time>2026-05-01T13:08:12.51Z</time></trkpt><trkpt lat="42.2428867" lon="14.18206"><ele>251.0</ele><time>2026-05-01T13:08:13.513Z</time></trkpt><trkpt lat="42.24298" lon="14.182005"><ele>251.0</ele><time>2026-05-01T13:08:14.513Z</time></trkpt><trkpt lat="42.24307" lon="14.18196"><ele>251.00000000000003</ele><time>2026-05-01T13:08:15.51Z</time></trkpt><trkpt lat="42.2431583" lon="14.1819217"><ele>251.00000000000003</ele><time>2026-05-01T13:08:16.509Z</time></trkpt><trkpt lat="42.2432467" lon="14.1818733"><ele>251.0</ele><time>2026-05-01T13:08:17.512Z</time></trkpt><trkpt lat="42.2433367" lon="14.1818167"><ele>251.0</ele><time>2026-05-01T13:08:18.513Z</time></trkpt><trkpt lat="42.2434267" lon="14.1817617"><ele>250.4</ele><time>2026-05-01T13:08:19.511Z</time></trkpt><trkpt lat="42.24352" lon="14.18171"><ele>249.8</ele><time>2026-05-01T13:08:20.513Z</time></trkpt><trkpt lat="42.2436167" lon="14.1816617"><ele>249.20000000000002</ele><time>2026-05-01T13:08:21.509Z</time></trkpt><trkpt lat="42.24372" lon="14.18161"><ele>248.60000000000002</ele><time>2026-05-01T13:08:22.512Z</time></trkpt><trkpt lat="42.2438217" lon="14.1815567"><ele>248.0</ele><time>2026-05-01T13:08:23.511Z</time></trkpt><trkpt lat="42.24393" lon="14.1815"><ele>246.25</ele><time>2026-05-01T13:08:24.509Z</time></trkpt><trkpt lat="42.2440367" lon="14.181435"><ele>244.5</ele><time>2026-05-01T13:08:25.514Z</time></trkpt><trkpt lat="42.24415" lon="14.1813683"><ele>242.75</ele><time>2026-05-01T13:08:26.512Z</time></trkpt><trkpt lat="42.24427" lon="14.1813"><ele>241.0</ele><time>2026-05-01T13:08:27.509Z</time></trkpt><trkpt lat="42.2443883" lon="14.1812317"><ele>241.0</ele><time>2026-05-01T13:08:28.513Z</time></trkpt><trkpt lat="42.2445" lon="14.18116"><ele>241.00000000000003</ele><time>2026-05-01T13:08:29.51Z</time></trkpt><trkpt lat="42.2446" lon="14.1811017"><ele>241.00000000000003</ele><time>2026-05-01T13:08:30.514Z</time></trkpt><trkpt lat="42.2446883" lon="14.1810583"><ele>241.0</ele><time>2026-05-01T13:08:31.512Z</time></trkpt><trkpt lat="42.244765" lon="14.18103"><ele>241.0</ele><time>2026-05-01T13:08:32.512Z</time></trkpt><trkpt lat="42.24483" lon="14.1810267"><ele>240.4</ele><time>2026-05-01T13:08:33.51Z</time></trkpt><trkpt lat="42.24495" lon="14.1810733"><ele>239.8</ele><time>2026-05-01T13:08:35.511Z</time></trkpt><trkpt lat="42.2450217" lon="14.1811167"><ele>239.20000000000002</ele><time>2026-05-01T13:08:36.514Z</time></trkpt><trkpt lat="42.2450967" lon="14.1811717"><ele>238.60000000000002</ele><time>2026-05-01T13:08:37.512Z</time></trkpt><trkpt lat="42.24518" lon="14.181245"><ele>238.0</ele><time>2026-05-01T13:08:38.512Z</time></trkpt><trkpt lat="42.245265" lon="14.1813217"><ele>238.0</ele><time>2026-05-01T13:08:39.515Z</time></trkpt><trkpt lat="42.245355" lon="14.181395"><ele>238.0</ele><time>2026-05-01T13:08:40.51Z</time></trkpt><trkpt lat="42.245455" lon="14.1814533"><ele>238.0</ele><time>2026-05-01T13:08:41.511Z</time></trkpt><trkpt lat="42.24556" lon="14.1815033"><ele>238.0</ele><time>2026-05-01T13:08:42.511Z</time></trkpt><trkpt lat="42.2456683" lon="14.1815567"><ele>238.0</ele><time>2026-05-01T13:08:43.51Z</time></trkpt><trkpt lat="42.2457733" lon="14.18162"><ele>237.75</ele><time>2026-05-01T13:08:44.513Z</time></trkpt><trkpt lat="42.2458717" lon="14.1817"><ele>237.5</ele><time>2026-05-01T13:08:45.512Z</time></trkpt><trkpt lat="42.2459667" lon="14.1817817"><ele>237.25</ele><time>2026-05-01T13:08:46.51Z</time></trkpt><trkpt lat="42.2460667" lon="14.1818533"><ele>237.0</ele><time>2026-05-01T13:08:47.51Z</time></trkpt><trkpt lat="42.2461833" lon="14.1818983"><ele>237.0</ele><time>2026-05-01T13:08:48.51Z</time></trkpt><trkpt lat="42.2463117" lon="14.1819183"><ele>237.0</ele><time>2026-05-01T13:08:49.51Z</time></trkpt><trkpt lat="42.246445" lon="14.1819217"><ele>237.0</ele><time>2026-05-01T13:08:50.511Z</time></trkpt><trkpt lat="42.2465733" lon="14.1819167"><ele>237.0</ele><time>2026-05-01T13:08:51.51Z</time></trkpt><trkpt lat="42.2466933" lon="14.181925"><ele>235.75</ele><time>2026-05-01T13:08:52.51Z</time></trkpt><trkpt lat="42.24681" lon="14.1819567"><ele>234.5</ele><time>2026-05-01T13:08:53.512Z</time></trkpt><trkpt lat="42.2469267" lon="14.1820083"><ele>233.25</ele><time>2026-05-01T13:08:54.51Z</time></trkpt><trkpt lat="42.2470317" lon="14.1820683"><ele>232.0</ele><time>2026-05-01T13:08:55.513Z</time></trkpt><trkpt lat="42.2471217" lon="14.1821283"><ele>232.00000000000003</ele><time>2026-05-01T13:08:56.511Z</time></trkpt><trkpt lat="42.247195" lon="14.1821983"><ele>232.0</ele><time>2026-05-01T13:08:57.511Z</time></trkpt><trkpt lat="42.247255" lon="14.1822733"><ele>232.00000000000003</ele><time>2026-05-01T13:08:58.51Z</time></trkpt><trkpt lat="42.2472967" lon="14.1823533"><ele>232.00000000000003</ele><time>2026-05-01T13:08:59.509Z</time></trkpt><trkpt lat="42.2473317" lon="14.1824267"><ele>232.0</ele><time>2026-05-01T13:09:00.511Z</time></trkpt><trkpt lat="42.24736" lon="14.1825033"><ele>232.00000000000003</ele><time>2026-05-01T13:09:01.51Z</time></trkpt><trkpt lat="42.247385" lon="14.1825867"><ele>232.00000000000003</ele><time>2026-05-01T13:09:02.512Z</time></trkpt><trkpt lat="42.247405" lon="14.18267"><ele>231.99999999999997</ele><time>2026-05-01T13:09:03.511Z</time></trkpt><trkpt lat="42.2474717" lon="14.1828017"><ele>232.0</ele><time>2026-05-01T13:09:05.514Z</time></trkpt><trkpt lat="42.2475267" lon="14.1828567"><ele>232.0</ele><time>2026-05-01T13:09:06.511Z</time></trkpt><trkpt lat="42.24759" lon="14.182915"><ele>232.0</ele><time>2026-05-01T13:09:07.509Z</time></trkpt><trkpt lat="42.2476567" lon="14.1829733"><ele>231.99999999999997</ele><time>2026-05-01T13:09:08.514Z</time></trkpt><trkpt lat="42.2477317" lon="14.1830267"><ele>232.0</ele><time>2026-05-01T13:09:09.512Z</time></trkpt><trkpt lat="42.24781" lon="14.1830767"><ele>231.99999999999997</ele><time>2026-05-01T13:09:10.513Z</time></trkpt><trkpt lat="42.2478817" lon="14.1831483"><ele>232.0</ele><time>2026-05-01T13:09:11.51Z</time></trkpt><trkpt lat="42.2479367" lon="14.183245"><ele>232.0</ele><time>2026-05-01T13:09:12.509Z</time></trkpt><trkpt lat="42.2479833" lon="14.1833483"><ele>232.0</ele><time>2026-05-01T13:09:13.51Z</time></trkpt><trkpt lat="42.24802" lon="14.1834517"><ele>231.99999999999997</ele><time>2026-05-01T13:09:14.511Z</time></trkpt><trkpt lat="42.248045" lon="14.18355"><ele>232.0</ele><time>2026-05-01T13:09:15.511Z</time></trkpt><trkpt lat="42.2480583" lon="14.1836417"><ele>232.39999999999998</ele><time>2026-05-01T13:09:16.51Z</time></trkpt><trkpt lat="42.2480533" lon="14.1837333"><ele>232.79999999999998</ele><time>2026-05-01T13:09:17.51Z</time></trkpt><trkpt lat="42.248025" lon="14.1838933"><ele>233.2</ele><time>2026-05-01T13:09:19.512Z</time></trkpt><trkpt lat="42.2479967" lon="14.18403"><ele>233.6</ele><time>2026-05-01T13:09:21.511Z</time></trkpt><trkpt lat="42.2479667" lon="14.184185"><ele>234.0</ele><time>2026-05-01T13:09:23.511Z</time></trkpt><trkpt lat="42.247925" lon="14.1842583"><ele>233.0</ele><time>2026-05-01T13:09:24.514Z</time></trkpt><trkpt lat="42.24787" lon="14.1843267"><ele>232.0</ele><time>2026-05-01T13:09:25.511Z</time></trkpt><trkpt lat="42.2477967" lon="14.18437"><ele>231.0</ele><time>2026-05-01T13:09:26.51Z</time></trkpt><trkpt lat="42.2477117" lon="14.1844033"><ele>230.0</ele><time>2026-05-01T13:09:27.512Z</time></trkpt><trkpt lat="42.247615" lon="14.18442"><ele>229.0</ele><time>2026-05-01T13:09:28.511Z</time></trkpt><trkpt lat="42.247515" lon="14.184415"><ele>228.0</ele><time>2026-05-01T13:09:29.511Z</time></trkpt><trkpt lat="42.2474183" lon="14.1843767"><ele>228.0</ele><time>2026-05-01T13:09:30.512Z</time></trkpt><trkpt lat="42.247325" lon="14.1842983"><ele>228.0</ele><time>2026-05-01T13:09:31.513Z</time></trkpt><trkpt lat="42.247235" lon="14.1841717"><ele>228.0</ele><time>2026-05-01T13:09:32.512Z</time></trkpt><trkpt lat="42.2471333" lon="14.1840433"><ele>228.0</ele><time>2026-05-01T13:09:33.509Z</time></trkpt><trkpt lat="42.2470317" lon="14.183935"><ele>229.33333333333334</ele><time>2026-05-01T13:09:34.51Z</time></trkpt><trkpt lat="42.2469417" lon="14.1838633"><ele>230.66666666666669</ele><time>2026-05-01T13:09:35.51Z</time></trkpt><trkpt lat="42.24687" lon="14.18381"><ele>232.0</ele><time>2026-05-01T13:09:36.511Z</time></trkpt><trkpt lat="42.2468067" lon="14.1837433"><ele>233.33333333333334</ele><time>2026-05-01T13:09:38.51Z</time></trkpt><trkpt lat="42.2468633" lon="14.1838167"><ele>234.66666666666669</ele><time>2026-05-01T13:09:44.509Z</time></trkpt><trkpt lat="42.2469517" lon="14.183855"><ele>236.0</ele><time>2026-05-01T13:09:46.509Z</time></trkpt><trkpt lat="42.24703" lon="14.1839383"><ele>234.4</ele><time>2026-05-01T13:09:48.509Z</time></trkpt><trkpt lat="42.2471033" lon="14.184025"><ele>232.8</ele><time>2026-05-01T13:09:50.511Z</time></trkpt><trkpt lat="42.2471783" lon="14.18411"><ele>231.20000000000002</ele><time>2026-05-01T13:09:52.51Z</time></trkpt><trkpt lat="42.2472333" lon="14.1842117"><ele>229.60000000000002</ele><time>2026-05-01T13:09:54.51Z</time></trkpt><trkpt lat="42.2472817" lon="14.1842933"><ele>228.0</ele><time>2026-05-01T13:09:56.511Z</time></trkpt><trkpt lat="42.2473433" lon="14.1843883"><ele>228.0</ele><time>2026-05-01T13:09:59.512Z</time></trkpt><trkpt lat="42.2473883" lon="14.1844667"><ele>228.0</ele><time>2026-05-01T13:10:01.513Z</time></trkpt><trkpt lat="42.2474667" lon="14.1845833"><ele>228.0</ele><time>2026-05-01T13:10:03.509Z</time></trkpt><trkpt lat="42.24752" lon="14.1846483"><ele>228.0</ele><time>2026-05-01T13:10:04.511Z</time></trkpt><trkpt lat="42.2475667" lon="14.18471"><ele>228.0</ele><time>2026-05-01T13:10:05.511Z</time></trkpt><trkpt lat="42.2476483" lon="14.18483"><ele>228.0</ele><time>2026-05-01T13:10:07.51Z</time></trkpt><trkpt lat="42.24771" lon="14.1849333"><ele>226.83333333333334</ele><time>2026-05-01T13:10:09.515Z</time></trkpt><trkpt lat="42.2477383" lon="14.185095"><ele>225.66666666666669</ele><time>2026-05-01T13:10:11.51Z</time></trkpt><trkpt lat="42.2477483" lon="14.18519"><ele>224.5</ele><time>2026-05-01T13:10:12.509Z</time></trkpt><trkpt lat="42.2477633" lon="14.1852867"><ele>223.33333333333334</ele><time>2026-05-01T13:10:13.51Z</time></trkpt><trkpt lat="42.2477983" lon="14.1853867"><ele>222.16666666666669</ele><time>2026-05-01T13:10:14.511Z</time></trkpt><trkpt lat="42.2478517" lon="14.18549"><ele>221.0</ele><time>2026-05-01T13:10:15.51Z</time></trkpt><trkpt lat="42.247905" lon="14.1856017"><ele>221.00000000000003</ele><time>2026-05-01T13:10:16.512Z</time></trkpt><trkpt lat="42.2479633" lon="14.1857117"><ele>221.0</ele><time>2026-05-01T13:10:17.509Z</time></trkpt><trkpt lat="42.248015" lon="14.1858183"><ele>221.0</ele><time>2026-05-01T13:10:18.509Z</time></trkpt><trkpt lat="42.2480633" lon="14.185915"><ele>221.0</ele><time>2026-05-01T13:10:19.51Z</time></trkpt><trkpt lat="42.2481067" lon="14.186005"><ele>221.00000000000003</ele><time>2026-05-01T13:10:20.511Z</time></trkpt><trkpt lat="42.2481467" lon="14.18609"><ele>221.0</ele><time>2026-05-01T13:10:21.511Z</time></trkpt><trkpt lat="42.2482083" lon="14.18615"><ele>222.0</ele><time>2026-05-01T13:10:22.51Z</time></trkpt><trkpt lat="42.2482867" lon="14.1862033"><ele>223.00000000000003</ele><time>2026-05-01T13:10:23.51Z</time></trkpt><trkpt lat="42.24838" lon="14.18625"><ele>224.00000000000003</ele><time>2026-05-01T13:10:24.509Z</time></trkpt><trkpt lat="42.2484767" lon="14.1862917"><ele>225.0</ele><time>2026-05-01T13:10:25.509Z</time></trkpt><trkpt lat="42.2485683" lon="14.18634"><ele>226.0</ele><time>2026-05-01T13:10:26.51Z</time></trkpt><trkpt lat="42.2486567" lon="14.1863983"><ele>226.0</ele><time>2026-05-01T13:10:27.511Z</time></trkpt><trkpt lat="42.248735" lon="14.1864517"><ele>226.00000000000003</ele><time>2026-05-01T13:10:28.511Z</time></trkpt><trkpt lat="42.24881" lon="14.18648"><ele>226.00000000000003</ele><time>2026-05-01T13:10:29.511Z</time></trkpt><trkpt lat="42.2488767" lon="14.1864983"><ele>226.0</ele><time>2026-05-01T13:10:30.51Z</time></trkpt><trkpt lat="42.2490033" lon="14.1865033"><ele>226.0</ele><time>2026-05-01T13:10:32.515Z</time></trkpt><trkpt lat="42.2491183" lon="14.1865117"><ele>225.4</ele><time>2026-05-01T13:10:34.514Z</time></trkpt><trkpt lat="42.2491817" lon="14.1865083"><ele>224.8</ele><time>2026-05-01T13:10:36.512Z</time></trkpt><trkpt lat="42.2492117" lon="14.1866533"><ele>224.20000000000002</ele><time>2026-05-01T13:10:39.515Z</time></trkpt><trkpt lat="42.2492133" lon="14.1868383"><ele>223.60000000000002</ele><time>2026-05-01T13:10:41.515Z</time></trkpt><trkpt lat="42.2491983" lon="14.1869633"><ele>223.0</ele><time>2026-05-01T13:10:42.512Z</time></trkpt><trkpt lat="42.2491817" lon="14.1870983"><ele>222.60000000000002</ele><time>2026-05-01T13:10:43.509Z</time></trkpt><trkpt lat="42.2491633" lon="14.1872417"><ele>222.20000000000002</ele><time>2026-05-01T13:10:44.514Z</time></trkpt><trkpt lat="42.2491533" lon="14.18739"><ele>221.8</ele><time>2026-05-01T13:10:45.51Z</time></trkpt><trkpt lat="42.2491417" lon="14.187535"><ele>221.4</ele><time>2026-05-01T13:10:46.51Z</time></trkpt><trkpt lat="42.24913" lon="14.1876683"><ele>221.0</ele><time>2026-05-01T13:10:47.512Z</time></trkpt><trkpt lat="42.2491183" lon="14.1878"><ele>221.16666666666669</ele><time>2026-05-01T13:10:48.51Z</time></trkpt><trkpt lat="42.2490983" lon="14.187925"><ele>221.33333333333334</ele><time>2026-05-01T13:10:49.513Z</time></trkpt><trkpt lat="42.24907" lon="14.1880367"><ele>221.5</ele><time>2026-05-01T13:10:50.511Z</time></trkpt><trkpt lat="42.24903" lon="14.1881317"><ele>221.66666666666669</ele><time>2026-05-01T13:10:51.513Z</time></trkpt><trkpt lat="42.2489883" lon="14.1882117"><ele>221.83333333333334</ele><time>2026-05-01T13:10:52.51Z</time></trkpt><trkpt lat="42.2489717" lon="14.188295"><ele>222.0</ele><time>2026-05-01T13:10:53.512Z</time></trkpt><trkpt lat="42.2490017" lon="14.1884367"><ele>222.0</ele><time>2026-05-01T13:10:55.512Z</time></trkpt><trkpt lat="42.2490767" lon="14.1885483"><ele>222.0</ele><time>2026-05-01T13:10:57.512Z</time></trkpt><trkpt lat="42.2491467" lon="14.1885917"><ele>222.0</ele><time>2026-05-01T13:10:58.511Z</time></trkpt><trkpt lat="42.2492333" lon="14.18862"><ele>222.0</ele><time>2026-05-01T13:10:59.511Z</time></trkpt><trkpt lat="42.2493383" lon="14.1886417"><ele>222.0</ele><time>2026-05-01T13:11:00.512Z</time></trkpt><trkpt lat="42.2494617" lon="14.1886717"><ele>222.0</ele><time>2026-05-01T13:11:01.511Z</time></trkpt><trkpt lat="42.24959" lon="14.1887117"><ele>222.0</ele><time>2026-05-01T13:11:02.511Z</time></trkpt><trkpt lat="42.249715" lon="14.1887617"><ele>222.0</ele><time>2026-05-01T13:11:03.514Z</time></trkpt><trkpt lat="42.2498433" lon="14.1888217"><ele>222.0</ele><time>2026-05-01T13:11:04.51Z</time></trkpt><trkpt lat="42.2499783" lon="14.1888967"><ele>221.5</ele><time>2026-05-01T13:11:05.51Z</time></trkpt><trkpt lat="42.2501117" lon="14.1889867"><ele>221.0</ele><time>2026-05-01T13:11:06.511Z</time></trkpt><trkpt lat="42.2502383" lon="14.1890883"><ele>220.5</ele><time>2026-05-01T13:11:07.51Z</time></trkpt><trkpt lat="42.2503633" lon="14.18919"><ele>220.0</ele><time>2026-05-01T13:11:08.512Z</time></trkpt><trkpt lat="42.250485" lon="14.1892683"><ele>221.25</ele><time>2026-05-01T13:11:09.511Z</time></trkpt><trkpt lat="42.250615" lon="14.1893033"><ele>222.5</ele><time>2026-05-01T13:11:10.515Z</time></trkpt><trkpt lat="42.25075" lon="14.189285"><ele>223.75</ele><time>2026-05-01T13:11:11.511Z</time></trkpt><trkpt lat="42.2508783" lon="14.1892217"><ele>225.0</ele><time>2026-05-01T13:11:12.51Z</time></trkpt><trkpt lat="42.2509967" lon="14.1891267"><ele>225.0</ele><time>2026-05-01T13:11:13.508Z</time></trkpt><trkpt lat="42.2511133" lon="14.1890183"><ele>225.0</ele><time>2026-05-01T13:11:14.509Z</time></trkpt><trkpt lat="42.2512317" lon="14.18891"><ele>225.0</ele><time>2026-05-01T13:11:15.51Z</time></trkpt><trkpt lat="42.2513533" lon="14.18882"><ele>225.0</ele><time>2026-05-01T13:11:16.509Z</time></trkpt><trkpt lat="42.2514733" lon="14.18874"><ele>224.75</ele><time>2026-05-01T13:11:17.512Z</time></trkpt><trkpt lat="42.2515883" lon="14.1886667"><ele>224.5</ele><time>2026-05-01T13:11:18.512Z</time></trkpt><trkpt lat="42.2517" lon="14.1885983"><ele>224.25</ele><time>2026-05-01T13:11:19.512Z</time></trkpt><trkpt lat="42.2518167" lon="14.18855"><ele>224.0</ele><time>2026-05-01T13:11:20.513Z</time></trkpt><trkpt lat="42.2519283" lon="14.1885167"><ele>224.0</ele><time>2026-05-01T13:11:21.514Z</time></trkpt><trkpt lat="42.25204" lon="14.18851"><ele>223.99999999999997</ele><time>2026-05-01T13:11:22.511Z</time></trkpt><trkpt lat="42.2521483" lon="14.1885167"><ele>223.99999999999997</ele><time>2026-05-01T13:11:23.513Z</time></trkpt><trkpt lat="42.2522517" lon="14.1885367"><ele>224.0</ele><time>2026-05-01T13:11:24.515Z</time></trkpt><trkpt lat="42.2523517" lon="14.1885517"><ele>224.0</ele><time>2026-05-01T13:11:25.509Z</time></trkpt><trkpt lat="42.2524483" lon="14.18857"><ele>223.79999999999998</ele><time>2026-05-01T13:11:26.513Z</time></trkpt><trkpt lat="42.2525417" lon="14.18858"><ele>223.59999999999997</ele><time>2026-05-01T13:11:27.51Z</time></trkpt><trkpt lat="42.2526333" lon="14.188595"><ele>223.4</ele><time>2026-05-01T13:11:28.511Z</time></trkpt><trkpt lat="42.25272" lon="14.188615"><ele>223.2</ele><time>2026-05-01T13:11:29.514Z</time></trkpt><trkpt lat="42.2527933" lon="14.1886383"><ele>223.0</ele><time>2026-05-01T13:11:30.511Z</time></trkpt><trkpt lat="42.25289" lon="14.18868"><ele>223.0</ele><time>2026-05-01T13:11:32.51Z</time></trkpt><trkpt lat="42.2528683" lon="14.1885933"><ele>223.0</ele><time>2026-05-01T13:12:03.511Z</time></trkpt><trkpt lat="42.25275" lon="14.18857"><ele>223.0</ele><time>2026-05-01T13:12:04.511Z</time></trkpt><trkpt lat="42.2526167" lon="14.188545"><ele>223.0</ele><time>2026-05-01T13:12:05.509Z</time></trkpt><trkpt lat="42.2524833" lon="14.1885233"><ele>223.0</ele><time>2026-05-01T13:12:06.509Z</time></trkpt><trkpt lat="42.2523533" lon="14.1885"><ele>223.0</ele><time>2026-05-01T13:12:07.509Z</time></trkpt><trkpt lat="42.2522267" lon="14.1884833"><ele>223.0</ele><time>2026-05-01T13:12:08.513Z</time></trkpt><trkpt lat="42.252115" lon="14.188475"><ele>223.0</ele><time>2026-05-01T13:12:09.511Z</time></trkpt><trkpt lat="42.2520183" lon="14.1884767"><ele>223.16666666666666</ele><time>2026-05-01T13:12:10.509Z</time></trkpt><trkpt lat="42.2519317" lon="14.1884783"><ele>223.33333333333331</ele><time>2026-05-01T13:12:11.51Z</time></trkpt><trkpt lat="42.25186" lon="14.1884833"><ele>223.5</ele><time>2026-05-01T13:12:12.511Z</time></trkpt><trkpt lat="42.2517667" lon="14.188465"><ele>223.66666666666669</ele><time>2026-05-01T13:12:14.511Z</time></trkpt><trkpt lat="42.2517233" lon="14.1883833"><ele>223.83333333333334</ele><time>2026-05-01T13:12:16.51Z</time></trkpt><trkpt lat="42.2517217" lon="14.188235"><ele>224.0</ele><time>2026-05-01T13:12:18.51Z</time></trkpt><trkpt lat="42.25176" lon="14.1880833"><ele>223.39999999999998</ele><time>2026-05-01T13:12:20.511Z</time></trkpt><trkpt lat="42.2518367" lon="14.187955"><ele>222.79999999999998</ele><time>2026-05-01T13:12:22.511Z</time></trkpt><trkpt lat="42.2519267" lon="14.1878383"><ele>222.20000000000002</ele><time>2026-05-01T13:12:24.514Z</time></trkpt><trkpt lat="42.2519883" lon="14.1877633"><ele>221.60000000000002</ele><time>2026-05-01T13:12:25.511Z</time></trkpt><trkpt lat="42.2520483" lon="14.1876833"><ele>221.0</ele><time>2026-05-01T13:12:26.513Z</time></trkpt><trkpt lat="42.2521117" lon="14.1876067"><ele>221.00000000000003</ele><time>2026-05-01T13:12:27.509Z</time></trkpt><trkpt lat="42.2521617" lon="14.1875267"><ele>221.0</ele><time>2026-05-01T13:12:28.51Z</time></trkpt><trkpt lat="42.2521967" lon="14.1874317"><ele>221.0</ele><time>2026-05-01T13:12:29.515Z</time></trkpt><trkpt lat="42.252215" lon="14.1873333"><ele>221.0</ele><time>2026-05-01T13:12:30.509Z</time></trkpt><trkpt lat="42.25222" lon="14.1872483"><ele>221.00000000000003</ele><time>2026-05-01T13:12:31.513Z</time></trkpt><trkpt lat="42.2522283" lon="14.1871367"><ele>221.0</ele><time>2026-05-01T13:12:33.51Z</time></trkpt><trkpt lat="42.2522267" lon="14.1870383"><ele>220.83333333333334</ele><time>2026-05-01T13:12:36.509Z</time></trkpt><trkpt lat="42.2521717" lon="14.186985"><ele>220.66666666666669</ele><time>2026-05-01T13:12:38.51Z</time></trkpt><trkpt lat="42.2521033" lon="14.1869317"><ele>220.5</ele><time>2026-05-01T13:12:40.511Z</time></trkpt><trkpt lat="42.2520433" lon="14.1868567"><ele>220.33333333333331</ele><time>2026-05-01T13:12:43.512Z</time></trkpt><trkpt lat="42.25211" lon="14.18686"><ele>220.16666666666666</ele><time>2026-05-01T13:12:51.514Z</time></trkpt><trkpt lat="42.2521933" lon="14.18691"><ele>220.0</ele><time>2026-05-01T13:12:53.515Z</time></trkpt><trkpt lat="42.2522917" lon="14.18693"><ele>219.99999999999997</ele><time>2026-05-01T13:12:55.508Z</time></trkpt><trkpt lat="42.252355" lon="14.186955"><ele>220.0</ele><time>2026-05-01T13:12:56.513Z</time></trkpt><trkpt lat="42.25242" lon="14.1870083"><ele>220.0</ele><time>2026-05-01T13:12:57.51Z</time></trkpt><trkpt lat="42.2524833" lon="14.1870767"><ele>220.0</ele><time>2026-05-01T13:12:58.513Z</time></trkpt><trkpt lat="42.2525467" lon="14.1871433"><ele>219.99999999999997</ele><time>2026-05-01T13:12:59.511Z</time></trkpt><trkpt lat="42.2526033" lon="14.1872067"><ele>220.0</ele><time>2026-05-01T13:13:00.511Z</time></trkpt><trkpt lat="42.2526583" lon="14.1872717"><ele>220.33333333333331</ele><time>2026-05-01T13:13:01.511Z</time></trkpt><trkpt lat="42.2527083" lon="14.1873517"><ele>220.66666666666666</ele><time>2026-05-01T13:13:02.509Z</time></trkpt><trkpt lat="42.25275" lon="14.1874333"><ele>221.0</ele><time>2026-05-01T13:13:03.511Z</time></trkpt><trkpt lat="42.2528183" lon="14.187555"><ele>221.33333333333331</ele><time>2026-05-01T13:13:05.51Z</time></trkpt><trkpt lat="42.2528583" lon="14.1876383"><ele>221.66666666666666</ele><time>2026-05-01T13:13:07.508Z</time></trkpt><trkpt lat="42.252815" lon="14.1875633"><ele>222.0</ele><time>2026-05-01T13:13:21.51Z</time></trkpt><trkpt lat="42.2527733" lon="14.1874917"><ele>222.0</ele><time>2026-05-01T13:13:25.509Z</time></trkpt><trkpt lat="42.2527117" lon="14.1873967"><ele>222.0</ele><time>2026-05-01T13:13:27.511Z</time></trkpt><trkpt lat="42.2526683" lon="14.18732"><ele>222.0</ele><time>2026-05-01T13:13:29.508Z</time></trkpt><trkpt lat="42.2526017" lon="14.1872617"><ele>222.0</ele><time>2026-05-01T13:13:46.512Z</time></trkpt><trkpt lat="42.2525283" lon="14.1871867"><ele>222.0</ele><time>2026-05-01T13:13:48.51Z</time></trkpt><trkpt lat="42.2524317" lon="14.1871133"><ele>222.0</ele><time>2026-05-01T13:13:50.513Z</time></trkpt><trkpt lat="42.2523517" lon="14.1870717"><ele>221.6</ele><time>2026-05-01T13:13:52.509Z</time></trkpt><trkpt lat="42.2524117" lon="14.1869783"><ele>221.2</ele><time>2026-05-01T13:14:11.508Z</time></trkpt><trkpt lat="42.2524767" lon="14.1868517"><ele>220.8</ele><time>2026-05-01T13:14:13.509Z</time></trkpt><trkpt lat="42.2525417" lon="14.1867"><ele>220.4</ele><time>2026-05-01T13:14:15.509Z</time></trkpt><trkpt lat="42.252575" lon="14.1866167"><ele>220.0</ele><time>2026-05-01T13:14:16.513Z</time></trkpt><trkpt lat="42.2526033" lon="14.1865383"><ele>218.8</ele><time>2026-05-01T13:14:17.51Z</time></trkpt><trkpt lat="42.2526533" lon="14.1863983"><ele>217.6</ele><time>2026-05-01T13:14:19.512Z</time></trkpt><trkpt lat="42.2527" lon="14.1862717"><ele>216.39999999999998</ele><time>2026-05-01T13:14:21.512Z</time></trkpt><trkpt lat="42.25274" lon="14.18616"><ele>215.2</ele><time>2026-05-01T13:14:23.509Z</time></trkpt><trkpt lat="42.2527933" lon="14.1860517"><ele>214.0</ele><time>2026-05-01T13:14:25.51Z</time></trkpt><trkpt lat="42.2528433" lon="14.1859533"><ele>213.99999999999997</ele><time>2026-05-01T13:14:27.509Z</time></trkpt><trkpt lat="42.2529" lon="14.1858367"><ele>214.0</ele><time>2026-05-01T13:14:29.508Z</time></trkpt><trkpt lat="42.2529533" lon="14.1857183"><ele>214.0</ele><time>2026-05-01T13:14:31.514Z</time></trkpt><trkpt lat="42.2530017" lon="14.1856067"><ele>214.0</ele><time>2026-05-01T13:14:33.509Z</time></trkpt><trkpt lat="42.253035" lon="14.1855117"><ele>213.99999999999997</ele><time>2026-05-01T13:14:35.513Z</time></trkpt><trkpt lat="42.2530933" lon="14.1854683"><ele>214.0</ele><time>2026-05-01T13:14:38.513Z</time></trkpt><trkpt lat="42.2531883" lon="14.185515"><ele>214.2</ele><time>2026-05-01T13:14:41.511Z</time></trkpt><trkpt lat="42.2532883" lon="14.1855733"><ele>214.39999999999998</ele><time>2026-05-01T13:14:43.512Z</time></trkpt><trkpt lat="42.253385" lon="14.185645"><ele>214.6</ele><time>2026-05-01T13:14:45.513Z</time></trkpt><trkpt lat="42.2534617" lon="14.1856917"><ele>214.8</ele><time>2026-05-01T13:14:47.511Z</time></trkpt><trkpt lat="42.2535517" lon="14.1857567"><ele>215.0</ele><time>2026-05-01T13:14:49.511Z</time></trkpt><trkpt lat="42.25363" lon="14.1858017"><ele>215.0</ele><time>2026-05-01T13:14:51.509Z</time></trkpt><trkpt lat="42.2536833" lon="14.185895"><ele>215.0</ele><time>2026-05-01T13:14:54.51Z</time></trkpt><trkpt lat="42.253695" lon="14.18605"><ele>215.0</ele><time>2026-05-01T13:14:56.509Z</time></trkpt><trkpt lat="42.2537" lon="14.1861517"><ele>215.0</ele><time>2026-05-01T13:14:57.509Z</time></trkpt><trkpt lat="42.2536983" lon="14.1862633"><ele>215.0</ele><time>2026-05-01T13:14:58.508Z</time></trkpt><trkpt lat="42.2536883" lon="14.1863883"><ele>215.00000000000003</ele><time>2026-05-01T13:14:59.508Z</time></trkpt><trkpt lat="42.2536833" lon="14.1864983"><ele>215.0</ele><time>2026-05-01T13:15:00.512Z</time></trkpt><trkpt lat="42.2536617" lon="14.1865817"><ele>215.0</ele><time>2026-05-01T13:15:01.512Z</time></trkpt><trkpt lat="42.2535767" lon="14.1866983"><ele>215.0</ele><time>2026-05-01T13:15:03.51Z</time></trkpt><trkpt lat="42.2535" lon="14.186765"><ele>215.00000000000003</ele><time>2026-05-01T13:15:05.512Z</time></trkpt><trkpt lat="42.253505" lon="14.186675"><ele>215.0</ele><time>2026-05-01T13:15:30.508Z</time></trkpt><trkpt lat="42.253595" lon="14.1866617"><ele>215.00000000000003</ele><time>2026-05-01T13:15:41.51Z</time></trkpt><trkpt lat="42.253645" lon="14.18652"><ele>215.0</ele><time>2026-05-01T13:15:43.511Z</time></trkpt><trkpt lat="42.25366" lon="14.1863767"><ele>215.0</ele><time>2026-05-01T13:15:45.512Z</time></trkpt><trkpt lat="42.253675" lon="14.1862717"><ele>215.0</ele><time>2026-05-01T13:15:48.515Z</time></trkpt><trkpt lat="42.253725" lon="14.1862117"><ele>215.00000000000003</ele><time>2026-05-01T13:16:06.509Z</time></trkpt><trkpt lat="42.2537883" lon="14.1861917"><ele>215.0</ele><time>2026-05-01T13:16:08.509Z</time></trkpt><trkpt lat="42.253875" lon="14.1861833"><ele>215.0</ele><time>2026-05-01T13:16:11.511Z</time></trkpt><trkpt lat="42.2539333" lon="14.1862233"><ele>215.0</ele><time>2026-05-01T13:16:13.508Z</time></trkpt><trkpt lat="42.25399" lon="14.186275"><ele>215.0</ele><time>2026-05-01T13:16:15.511Z</time></trkpt><trkpt lat="42.2540583" lon="14.186345"><ele>215.0</ele><time>2026-05-01T13:16:17.51Z</time></trkpt><trkpt lat="42.254115" lon="14.1863833"><ele>215.0</ele><time>2026-05-01T13:16:19.512Z</time></trkpt><trkpt lat="42.2541583" lon="14.18632"><ele>215.0</ele><time>2026-05-01T13:16:22.511Z</time></trkpt><trkpt lat="42.25415" lon="14.1862167"><ele>215.0</ele><time>2026-05-01T13:16:25.511Z</time></trkpt><trkpt lat="42.2541983" lon="14.1861083"><ele>213.50000000000003</ele><time>2026-05-01T13:16:28.511Z</time></trkpt><trkpt lat="42.2542717" lon="14.18603"><ele>212.0</ele><time>2026-05-01T13:16:30.513Z</time></trkpt><trkpt lat="42.2543433" lon="14.1860367"><ele>210.5</ele><time>2026-05-01T13:16:32.509Z</time></trkpt><trkpt lat="42.254445" lon="14.1860833"><ele>209.0</ele><time>2026-05-01T13:16:34.509Z</time></trkpt><trkpt lat="42.25452" lon="14.1861233"><ele>207.50000000000003</ele><time>2026-05-01T13:16:35.508Z</time></trkpt><trkpt lat="42.2546017" lon="14.1861683"><ele>206.0</ele><time>2026-05-01T13:16:36.51Z</time></trkpt><trkpt lat="42.25468" lon="14.18622"><ele>206.0</ele><time>2026-05-01T13:16:37.509Z</time></trkpt><trkpt lat="42.254745" lon="14.18627"><ele>206.0</ele><time>2026-05-01T13:16:38.511Z</time></trkpt><trkpt lat="42.2548367" lon="14.1863633"><ele>206.0</ele><time>2026-05-01T13:16:40.509Z</time></trkpt><trkpt lat="42.254895" lon="14.1864183"><ele>206.0</ele><time>2026-05-01T13:16:42.508Z</time></trkpt><trkpt lat="42.2550517" lon="14.1863317"><ele>206.0</ele><time>2026-05-01T13:19:02.166Z</time></trkpt><trkpt lat="42.2549567" lon="14.1864083"><ele>205.7142857142857</ele><time>2026-05-01T13:19:08.512Z</time></trkpt><trkpt lat="42.255015" lon="14.1864583"><ele>205.42857142857142</ele><time>2026-05-01T13:19:26.512Z</time></trkpt><trkpt lat="42.255095" lon="14.18646"><ele>205.14285714285714</ele><time>2026-05-01T13:19:29.512Z</time></trkpt><trkpt lat="42.2551683" lon="14.18647"><ele>204.85714285714283</ele><time>2026-05-01T13:19:32.512Z</time></trkpt><trkpt lat="42.2552267" lon="14.18651"><ele>204.57142857142858</ele><time>2026-05-01T13:19:35.513Z</time></trkpt><trkpt lat="42.2552767" lon="14.1865833"><ele>204.28571428571428</ele><time>2026-05-01T13:19:39.51Z</time></trkpt><trkpt lat="42.2553583" lon="14.1865867"><ele>204.0</ele><time>2026-05-01T13:19:43.514Z</time></trkpt><trkpt lat="42.255405" lon="14.1865083"><ele>204.0</ele><time>2026-05-01T13:19:46.513Z</time></trkpt><trkpt lat="42.255465" lon="14.18646"><ele>204.0</ele><time>2026-05-01T13:20:31.511Z</time></trkpt><trkpt lat="42.2555383" lon="14.18641"><ele>204.0</ele><time>2026-05-01T13:20:34.514Z</time></trkpt><trkpt lat="42.2556067" lon="14.18636"><ele>204.0</ele><time>2026-05-01T13:20:37.509Z</time></trkpt><trkpt lat="42.2556617" lon="14.1863033"><ele>204.0</ele><time>2026-05-01T13:20:40.511Z</time></trkpt><trkpt lat="42.255735" lon="14.1862983"><ele>204.0</ele><time>2026-05-01T13:20:44.513Z</time></trkpt><trkpt lat="42.255755" lon="14.1862033"><ele>204.0</ele><time>2026-05-01T13:20:57.517Z</time></trkpt><trkpt lat="42.2557517" lon="14.1861183"><ele>204.14285714285714</ele><time>2026-05-01T13:21:03.509Z</time></trkpt><trkpt lat="42.255765" lon="14.1860167"><ele>204.28571428571428</ele><time>2026-05-01T13:21:06.51Z</time></trkpt><trkpt lat="42.2557867" lon="14.1859367"><ele>204.42857142857144</ele><time>2026-05-01T13:21:09.512Z</time></trkpt><trkpt lat="42.2558417" lon="14.18588"><ele>204.57142857142856</ele><time>2026-05-01T13:29:14.511Z</time></trkpt><trkpt lat="42.2558933" lon="14.1858233"><ele>204.7142857142857</ele><time>2026-05-01T13:29:25.508Z</time></trkpt><trkpt lat="42.255945" lon="14.18573"><ele>204.85714285714286</ele><time>2026-05-01T13:29:29.509Z</time></trkpt><trkpt lat="42.255995" lon="14.18567"><ele>205.0</ele><time>2026-05-01T13:29:31.509Z</time></trkpt><trkpt lat="42.25604" lon="14.1855983"><ele>205.99999999999997</ele><time>2026-05-01T13:29:34.509Z</time></trkpt><trkpt lat="42.256095" lon="14.1855233"><ele>207.0</ele><time>2026-05-01T13:29:42.51Z</time></trkpt><trkpt lat="42.25617" lon="14.1853883"><ele>208.0</ele><time>2026-05-01T13:29:44.514Z</time></trkpt><trkpt lat="42.25623" lon="14.1853"><ele>209.0</ele><time>2026-05-01T13:29:46.509Z</time></trkpt><trkpt lat="42.256275" lon="14.1852317"><ele>209.99999999999997</ele><time>2026-05-01T13:30:55.511Z</time></trkpt><trkpt lat="42.2563367" lon="14.1851433"><ele>211.0</ele><time>2026-05-01T13:30:57.511Z</time></trkpt><trkpt lat="42.25641" lon="14.185105"><ele>212.66666666666666</ele><time>2026-05-01T13:30:59.517Z</time></trkpt><trkpt lat="42.256485" lon="14.185085"><ele>214.33333333333331</ele><time>2026-05-01T13:31:02.511Z</time></trkpt><trkpt lat="42.25657" lon="14.1851117"><ele>216.0</ele><time>2026-05-01T13:31:09.513Z</time></trkpt><trkpt lat="42.2566517" lon="14.1850567"><ele>217.66666666666669</ele><time>2026-05-01T13:33:35.509Z</time></trkpt><trkpt lat="42.2567067" lon="14.1849383"><ele>219.33333333333334</ele><time>2026-05-01T13:33:37.512Z</time></trkpt><trkpt lat="42.2567567" lon="14.184845"><ele>221.0</ele><time>2026-05-01T13:33:38.51Z</time></trkpt><trkpt lat="42.25684" lon="14.1847217"><ele>222.5</ele><time>2026-05-01T13:33:39.508Z</time></trkpt><trkpt lat="42.25697" lon="14.1846083"><ele>224.0</ele><time>2026-05-01T13:33:40.51Z</time></trkpt><trkpt lat="42.257085" lon="14.1845133"><ele>225.5</ele><time>2026-05-01T13:33:41.512Z</time></trkpt><trkpt lat="42.2571967" lon="14.184425"><ele>227.0</ele><time>2026-05-01T13:33:42.512Z</time></trkpt><trkpt lat="42.2572783" lon="14.18435"><ele>227.33333333333334</ele><time>2026-05-01T13:33:43.51Z</time></trkpt><trkpt lat="42.257345" lon="14.1842883"><ele>227.66666666666669</ele><time>2026-05-01T13:33:44.519Z</time></trkpt><trkpt lat="42.2573983" lon="14.1842317"><ele>228.0</ele><time>2026-05-01T13:33:45.51Z</time></trkpt><trkpt lat="42.2574667" lon="14.1841317"><ele>228.33333333333331</ele><time>2026-05-01T13:33:47.51Z</time></trkpt><trkpt lat="42.2574983" lon="14.1840267"><ele>228.66666666666666</ele><time>2026-05-01T13:33:49.51Z</time></trkpt><trkpt lat="42.2575217" lon="14.18392"><ele>229.0</ele><time>2026-05-01T13:33:51.511Z</time></trkpt><trkpt lat="42.2575383" lon="14.183815"><ele>230.2</ele><time>2026-05-01T13:33:53.51Z</time></trkpt><trkpt lat="42.2575317" lon="14.1836817"><ele>231.39999999999998</ele><time>2026-05-01T13:33:55.509Z</time></trkpt><trkpt lat="42.2575167" lon="14.18356"><ele>232.6</ele><time>2026-05-01T13:33:57.515Z</time></trkpt><trkpt lat="42.2574933" lon="14.183445"><ele>233.8</ele><time>2026-05-01T13:33:59.51Z</time></trkpt><trkpt lat="42.25746" lon="14.1832917"><ele>235.0</ele><time>2026-05-01T13:34:01.511Z</time></trkpt><trkpt lat="42.257435" lon="14.1832033"><ele>237.2</ele><time>2026-05-01T13:34:02.516Z</time></trkpt><trkpt lat="42.2574167" lon="14.1831067"><ele>239.4</ele><time>2026-05-01T13:34:03.51Z</time></trkpt><trkpt lat="42.257405" lon="14.18301"><ele>241.60000000000002</ele><time>2026-05-01T13:34:04.51Z</time></trkpt><trkpt lat="42.2573633" lon="14.182865"><ele>243.8</ele><time>2026-05-01T13:34:06.51Z</time></trkpt><trkpt lat="42.257265" lon="14.1827767"><ele>246.0</ele><time>2026-05-01T13:34:08.508Z</time></trkpt><trkpt lat="42.257195" lon="14.1827417"><ele>246.33333333333334</ele><time>2026-05-01T13:34:09.508Z</time></trkpt><trkpt lat="42.25713" lon="14.182715"><ele>246.66666666666669</ele><time>2026-05-01T13:34:10.509Z</time></trkpt><trkpt lat="42.2570567" lon="14.182665"><ele>247.0</ele><time>2026-05-01T13:34:12.508Z</time></trkpt><trkpt lat="42.2570183" lon="14.1825883"><ele>247.33333333333334</ele><time>2026-05-01T13:34:14.511Z</time></trkpt><trkpt lat="42.2570333" lon="14.1824633"><ele>247.66666666666669</ele><time>2026-05-01T13:34:16.509Z</time></trkpt><trkpt lat="42.2570367" lon="14.1823783"><ele>248.0</ele><time>2026-05-01T13:34:17.513Z</time></trkpt><trkpt lat="42.25706" lon="14.1822283"><ele>249.4</ele><time>2026-05-01T13:34:19.51Z</time></trkpt><trkpt lat="42.257135" lon="14.182105"><ele>250.8</ele><time>2026-05-01T13:34:21.512Z</time></trkpt><trkpt lat="42.2571967" lon="14.1820333"><ele>252.2</ele><time>2026-05-01T13:34:22.511Z</time></trkpt><trkpt lat="42.2572583" lon="14.1819383"><ele>253.6</ele><time>2026-05-01T13:34:23.511Z</time></trkpt><trkpt lat="42.2573083" lon="14.1818383"><ele>255.0</ele><time>2026-05-01T13:34:24.512Z</time></trkpt><trkpt lat="42.2573467" lon="14.1816967"><ele>255.0</ele><time>2026-05-01T13:34:25.509Z</time></trkpt><trkpt lat="42.257385" lon="14.1815483"><ele>255.0</ele><time>2026-05-01T13:34:26.515Z</time></trkpt><trkpt lat="42.25742" lon="14.1814183"><ele>255.0</ele><time>2026-05-01T13:34:27.511Z</time></trkpt><trkpt lat="42.25745" lon="14.1813233"><ele>255.0</ele><time>2026-05-01T13:34:28.512Z</time></trkpt><trkpt lat="42.2574817" lon="14.1812417"><ele>255.0</ele><time>2026-05-01T13:34:29.511Z</time></trkpt><trkpt lat="42.257545" lon="14.181105"><ele>256.5</ele><time>2026-05-01T13:34:31.509Z</time></trkpt><trkpt lat="42.2575883" lon="14.1810333"><ele>258.0</ele><time>2026-05-01T13:34:32.51Z</time></trkpt><trkpt lat="42.25763" lon="14.1809617"><ele>259.5</ele><time>2026-05-01T13:34:33.513Z</time></trkpt><trkpt lat="42.257675" lon="14.180895"><ele>261.0</ele><time>2026-05-01T13:34:34.517Z</time></trkpt><trkpt lat="42.2577117" lon="14.180825"><ele>262.5</ele><time>2026-05-01T13:34:35.509Z</time></trkpt><trkpt lat="42.2577817" lon="14.1806817"><ele>264.0</ele><time>2026-05-01T13:34:37.51Z</time></trkpt><trkpt lat="42.2578033" lon="14.1805983"><ele>266.1666666666667</ele><time>2026-05-01T13:34:38.513Z</time></trkpt><trkpt lat="42.2578217" lon="14.1805083"><ele>268.3333333333333</ele><time>2026-05-01T13:34:39.512Z</time></trkpt><trkpt lat="42.2578367" lon="14.180395"><ele>270.5</ele><time>2026-05-01T13:34:40.509Z</time></trkpt><trkpt lat="42.2578517" lon="14.18027"><ele>272.66666666666663</ele><time>2026-05-01T13:34:41.512Z</time></trkpt><trkpt lat="42.257865" lon="14.1801433"><ele>274.8333333333333</ele><time>2026-05-01T13:34:42.51Z</time></trkpt><trkpt lat="42.2578767" lon="14.1800067"><ele>277.0</ele><time>2026-05-01T13:34:43.51Z</time></trkpt><trkpt lat="42.2578917" lon="14.1798633"><ele>278.8333333333333</ele><time>2026-05-01T13:34:44.51Z</time></trkpt><trkpt lat="42.2579017" lon="14.1797283"><ele>280.66666666666663</ele><time>2026-05-01T13:34:45.51Z</time></trkpt><trkpt lat="42.2578967" lon="14.1796183"><ele>282.5</ele><time>2026-05-01T13:34:46.513Z</time></trkpt><trkpt lat="42.2578933" lon="14.1795033"><ele>284.3333333333333</ele><time>2026-05-01T13:34:47.512Z</time></trkpt><trkpt lat="42.2578917" lon="14.1794017"><ele>286.1666666666667</ele><time>2026-05-01T13:34:48.508Z</time></trkpt><trkpt lat="42.257895" lon="14.17931"><ele>288.0</ele><time>2026-05-01T13:34:49.511Z</time></trkpt><trkpt lat="42.2579117" lon="14.1792167"><ele>288.0</ele><time>2026-05-01T13:34:50.51Z</time></trkpt><trkpt lat="42.257925" lon="14.1791167"><ele>288.0</ele><time>2026-05-01T13:34:51.513Z</time></trkpt><trkpt lat="42.2579383" lon="14.17901"><ele>288.0</ele><time>2026-05-01T13:34:52.511Z</time></trkpt><trkpt lat="42.2579533" lon="14.1789117"><ele>288.0</ele><time>2026-05-01T13:34:53.895Z</time></trkpt><trkpt lat="42.2579833" lon="14.1787267"><ele>288.0</ele><time>2026-05-01T13:34:55.51Z</time></trkpt><trkpt lat="42.2580017" lon="14.1786333"><ele>288.0</ele><time>2026-05-01T13:34:56.511Z</time></trkpt><trkpt lat="42.2580167" lon="14.1785367"><ele>289.6666666666667</ele><time>2026-05-01T13:34:57.511Z</time></trkpt><trkpt lat="42.25803" lon="14.178445"><ele>291.3333333333333</ele><time>2026-05-01T13:34:58.513Z</time></trkpt><trkpt lat="42.25804" lon="14.1783583"><ele>293.0</ele><time>2026-05-01T13:34:59.51Z</time></trkpt><trkpt lat="42.25806" lon="14.1782083"><ele>294.66666666666663</ele><time>2026-05-01T13:35:01.509Z</time></trkpt><trkpt lat="42.2580683" lon="14.17808"><ele>296.3333333333333</ele><time>2026-05-01T13:35:03.511Z</time></trkpt><trkpt lat="42.2580667" lon="14.17795"><ele>298.0</ele><time>2026-05-01T13:35:05.513Z</time></trkpt><trkpt lat="42.2580033" lon="14.17785"><ele>299.4</ele><time>2026-05-01T13:35:07.509Z</time></trkpt><trkpt lat="42.2579017" lon="14.177785"><ele>300.8</ele><time>2026-05-01T13:35:09.509Z</time></trkpt><trkpt lat="42.2578367" lon="14.1777283"><ele>302.2</ele><time>2026-05-01T13:35:11.509Z</time></trkpt><trkpt lat="42.25776" lon="14.1776817"><ele>303.6</ele><time>2026-05-01T13:35:13.512Z</time></trkpt><trkpt lat="42.2576333" lon="14.177685"><ele>305.0</ele><time>2026-05-01T13:35:15.511Z</time></trkpt><trkpt lat="42.2575667" lon="14.177675"><ele>305.0</ele><time>2026-05-01T13:35:16.511Z</time></trkpt><trkpt lat="42.257495" lon="14.1776717"><ele>305.0</ele><time>2026-05-01T13:35:17.508Z</time></trkpt><trkpt lat="42.2574233" lon="14.1776817"><ele>305.0</ele><time>2026-05-01T13:35:18.51Z</time></trkpt><trkpt lat="42.2573383" lon="14.1777233"><ele>305.0</ele><time>2026-05-01T13:35:19.511Z</time></trkpt><trkpt lat="42.2572617" lon="14.1777683"><ele>305.0</ele><time>2026-05-01T13:35:20.511Z</time></trkpt><trkpt lat="42.2571917" lon="14.177825"><ele>305.0</ele><time>2026-05-01T13:35:21.511Z</time></trkpt><trkpt lat="42.25713" lon="14.17788"><ele>306.83333333333337</ele><time>2026-05-01T13:35:22.517Z</time></trkpt><trkpt lat="42.2570633" lon="14.1779467"><ele>308.6666666666667</ele><time>2026-05-01T13:35:24.51Z</time></trkpt><trkpt lat="42.2569967" lon="14.1779383"><ele>310.5</ele><time>2026-05-01T13:35:27.51Z</time></trkpt><trkpt lat="42.257015" lon="14.177795"><ele>312.3333333333333</ele><time>2026-05-01T13:35:29.514Z</time></trkpt><trkpt lat="42.2570333" lon="14.1776933"><ele>314.16666666666663</ele><time>2026-05-01T13:35:30.51Z</time></trkpt><trkpt lat="42.2570583" lon="14.1775967"><ele>316.0</ele><time>2026-05-01T13:35:31.511Z</time></trkpt><trkpt lat="42.257095" lon="14.177495"><ele>316.0</ele><time>2026-05-01T13:35:32.509Z</time></trkpt><trkpt lat="42.2571417" lon="14.17739"><ele>316.0</ele><time>2026-05-01T13:35:33.511Z</time></trkpt><trkpt lat="42.257195" lon="14.1772833"><ele>316.0</ele><time>2026-05-01T13:35:34.512Z</time></trkpt><trkpt lat="42.2572483" lon="14.1771883"><ele>316.0</ele><time>2026-05-01T13:35:35.51Z</time></trkpt><trkpt lat="42.2573" lon="14.17709"><ele>316.0</ele><time>2026-05-01T13:35:36.509Z</time></trkpt><trkpt lat="42.257345" lon="14.1769817"><ele>315.8333333333333</ele><time>2026-05-01T13:35:37.51Z</time></trkpt><trkpt lat="42.25738" lon="14.17687"><ele>315.66666666666663</ele><time>2026-05-01T13:35:38.51Z</time></trkpt><trkpt lat="42.257415" lon="14.1767583"><ele>315.5</ele><time>2026-05-01T13:35:39.513Z</time></trkpt><trkpt lat="42.257445" lon="14.17665"><ele>315.3333333333333</ele><time>2026-05-01T13:35:40.514Z</time></trkpt><trkpt lat="42.2574767" lon="14.1765567"><ele>315.1666666666667</ele><time>2026-05-01T13:35:41.509Z</time></trkpt><trkpt lat="42.2574983" lon="14.176475"><ele>315.0</ele><time>2026-05-01T13:35:42.51Z</time></trkpt><trkpt lat="42.25753" lon="14.1763867"><ele>316.5</ele><time>2026-05-01T13:35:44.51Z</time></trkpt><trkpt lat="42.2575483" lon="14.176305"><ele>318.0</ele><time>2026-05-01T13:35:46.509Z</time></trkpt><trkpt lat="42.25752" lon="14.1762133"><ele>319.5</ele><time>2026-05-01T13:35:48.513Z</time></trkpt><trkpt lat="42.2574633" lon="14.1761283"><ele>321.0</ele><time>2026-05-01T13:35:50.511Z</time></trkpt><trkpt lat="42.2574033" lon="14.1760733"><ele>322.5</ele><time>2026-05-01T13:35:51.512Z</time></trkpt><trkpt lat="42.2573317" lon="14.1760067"><ele>324.0</ele><time>2026-05-01T13:35:52.513Z</time></trkpt><trkpt lat="42.2572883" lon="14.1759333"><ele>325.0</ele><time>2026-05-01T13:35:53.51Z</time></trkpt><trkpt lat="42.2572317" lon="14.1757883"><ele>326.0</ele><time>2026-05-01T13:35:55.511Z</time></trkpt><trkpt lat="42.2571917" lon="14.175655"><ele>327.0</ele><time>2026-05-01T13:35:57.512Z</time></trkpt><trkpt lat="42.2571517" lon="14.1755167"><ele>328.0</ele><time>2026-05-01T13:35:59.51Z</time></trkpt><trkpt lat="42.2571467" lon="14.175395"><ele>329.0</ele><time>2026-05-01T13:36:01.51Z</time></trkpt><trkpt lat="42.2571783" lon="14.1752567"><ele>329.0</ele><time>2026-05-01T13:36:03.51Z</time></trkpt><trkpt lat="42.2571967" lon="14.175165"><ele>329.0</ele><time>2026-05-01T13:36:04.511Z</time></trkpt><trkpt lat="42.2572233" lon="14.1750683"><ele>329.0</ele><time>2026-05-01T13:36:05.508Z</time></trkpt><trkpt lat="42.257255" lon="14.1749683"><ele>329.0</ele><time>2026-05-01T13:36:06.514Z</time></trkpt><trkpt lat="42.2573017" lon="14.1748467"><ele>329.0</ele><time>2026-05-01T13:36:07.512Z</time></trkpt><trkpt lat="42.2573567" lon="14.1747117"><ele>329.0</ele><time>2026-05-01T13:36:08.51Z</time></trkpt><trkpt lat="42.257415" lon="14.1745717"><ele>331.0</ele><time>2026-05-01T13:36:09.51Z</time></trkpt><trkpt lat="42.2574717" lon="14.1744367"><ele>333.0</ele><time>2026-05-01T13:36:10.51Z</time></trkpt><trkpt lat="42.2575233" lon="14.1743083"><ele>335.0</ele><time>2026-05-01T13:36:11.509Z</time></trkpt><trkpt lat="42.2575717" lon="14.1741817"><ele>337.0</ele><time>2026-05-01T13:36:12.508Z</time></trkpt><trkpt lat="42.2576233" lon="14.1740617"><ele>339.0</ele><time>2026-05-01T13:36:13.513Z</time></trkpt><trkpt lat="42.2576767" lon="14.1739367"><ele>340.75</ele><time>2026-05-01T13:36:14.514Z</time></trkpt><trkpt lat="42.2577417" lon="14.173815"><ele>342.5</ele><time>2026-05-01T13:36:15.509Z</time></trkpt><trkpt lat="42.2578133" lon="14.17369"><ele>344.25</ele><time>2026-05-01T13:36:16.508Z</time></trkpt><trkpt lat="42.2578933" lon="14.1735667"><ele>346.0</ele><time>2026-05-01T13:36:17.516Z</time></trkpt><trkpt lat="42.25798" lon="14.1734517"><ele>346.0</ele><time>2026-05-01T13:36:18.509Z</time></trkpt><trkpt lat="42.2580717" lon="14.173345"><ele>346.0</ele><time>2026-05-01T13:36:19.512Z</time></trkpt><trkpt lat="42.2581683" lon="14.1732417"><ele>346.0</ele><time>2026-05-01T13:36:20.512Z</time></trkpt><trkpt lat="42.2582617" lon="14.1731517"><ele>346.0</ele><time>2026-05-01T13:36:21.51Z</time></trkpt><trkpt lat="42.2583583" lon="14.173085"><ele>348.75</ele><time>2026-05-01T13:36:22.512Z</time></trkpt><trkpt lat="42.2584567" lon="14.1730317"><ele>351.5</ele><time>2026-05-01T13:36:23.51Z</time></trkpt><trkpt lat="42.2585683" lon="14.17301"><ele>354.25</ele><time>2026-05-01T13:36:24.513Z</time></trkpt><trkpt lat="42.2586917" lon="14.1730117"><ele>357.0</ele><time>2026-05-01T13:36:25.509Z</time></trkpt><trkpt lat="42.25882" lon="14.173015"><ele>357.75</ele><time>2026-05-01T13:36:26.511Z</time></trkpt><trkpt lat="42.2589533" lon="14.1730183"><ele>358.5</ele><time>2026-05-01T13:36:27.512Z</time></trkpt><trkpt lat="42.25909" lon="14.17302"><ele>359.25</ele><time>2026-05-01T13:36:28.509Z</time></trkpt><trkpt lat="42.25922" lon="14.1730267"><ele>360.0</ele><time>2026-05-01T13:36:29.51Z</time></trkpt><trkpt lat="42.2593333" lon="14.1730383"><ele>360.0</ele><time>2026-05-01T13:36:30.509Z</time></trkpt><trkpt lat="42.2594217" lon="14.1730483"><ele>360.0</ele><time>2026-05-01T13:36:31.508Z</time></trkpt><trkpt lat="42.25949" lon="14.1730617"><ele>360.0</ele><time>2026-05-01T13:36:32.51Z</time></trkpt><trkpt lat="42.2595833" lon="14.173105"><ele>360.0</ele><time>2026-05-01T13:36:34.511Z</time></trkpt><trkpt lat="42.2596517" lon="14.1731283"><ele>360.0</ele><time>2026-05-01T13:36:36.511Z</time></trkpt><trkpt lat="42.2597283" lon="14.1731217"><ele>360.0</ele><time>2026-05-01T13:36:38.509Z</time></trkpt><trkpt lat="42.2597883" lon="14.1731617"><ele>360.0</ele><time>2026-05-01T13:36:40.51Z</time></trkpt><trkpt lat="42.2598583" lon="14.1731667"><ele>360.0</ele><time>2026-05-01T13:36:43.511Z</time></trkpt><trkpt lat="42.259805" lon="14.173095"><ele>360.0</ele><time>2026-05-01T13:36:46.511Z</time></trkpt><trkpt lat="42.259715" lon="14.1730967"><ele>360.0</ele><time>2026-05-01T13:36:47.509Z</time></trkpt><trkpt lat="42.2596033" lon="14.1730917"><ele>360.0</ele><time>2026-05-01T13:36:48.51Z</time></trkpt><trkpt lat="42.2594833" lon="14.17309"><ele>360.0</ele><time>2026-05-01T13:36:49.509Z</time></trkpt><trkpt lat="42.2593633" lon="14.1730883"><ele>360.0</ele><time>2026-05-01T13:36:50.513Z</time></trkpt><trkpt lat="42.25925" lon="14.173085"><ele>360.0</ele><time>2026-05-01T13:36:51.511Z</time></trkpt><trkpt lat="42.259145" lon="14.1730783"><ele>360.0</ele><time>2026-05-01T13:36:52.509Z</time></trkpt><trkpt lat="42.2590417" lon="14.173065"><ele>360.0</ele><time>2026-05-01T13:36:53.509Z</time></trkpt><trkpt lat="42.2589383" lon="14.17305"><ele>359.4</ele><time>2026-05-01T13:36:54.51Z</time></trkpt><trkpt lat="42.2588267" lon="14.17304"><ele>358.8</ele><time>2026-05-01T13:36:55.509Z</time></trkpt><trkpt lat="42.2587183" lon="14.1730367"><ele>358.20000000000005</ele><time>2026-05-01T13:36:56.509Z</time></trkpt><trkpt lat="42.2586283" lon="14.1730367"><ele>357.6</ele><time>2026-05-01T13:36:57.514Z</time></trkpt><trkpt lat="42.258555" lon="14.1730433"><ele>357.0</ele><time>2026-05-01T13:36:58.51Z</time></trkpt><trkpt lat="42.2584533" lon="14.173045"><ele>357.0</ele><time>2026-05-01T13:37:00.511Z</time></trkpt><trkpt lat="42.2584167" lon="14.1729267"><ele>357.0</ele><time>2026-05-01T13:37:03.512Z</time></trkpt><trkpt lat="42.2584633" lon="14.1727983"><ele>357.0</ele><time>2026-05-01T13:37:05.51Z</time></trkpt><trkpt lat="42.2585283" lon="14.1727067"><ele>357.0</ele><time>2026-05-01T13:37:06.512Z</time></trkpt><trkpt lat="42.2586117" lon="14.1726117"><ele>357.0</ele><time>2026-05-01T13:37:07.513Z</time></trkpt><trkpt lat="42.2586917" lon="14.1725067"><ele>357.0</ele><time>2026-05-01T13:37:08.51Z</time></trkpt><trkpt lat="42.25876" lon="14.172415"><ele>357.0</ele><time>2026-05-01T13:37:09.514Z</time></trkpt><trkpt lat="42.2588233" lon="14.172335"><ele>357.0</ele><time>2026-05-01T13:37:10.508Z</time></trkpt><trkpt lat="42.2588883" lon="14.1722583"><ele>357.0</ele><time>2026-05-01T13:37:11.512Z</time></trkpt><trkpt lat="42.2589567" lon="14.1721817"><ele>357.0</ele><time>2026-05-01T13:37:12.509Z</time></trkpt><trkpt lat="42.259025" lon="14.17211"><ele>357.0</ele><time>2026-05-01T13:37:13.509Z</time></trkpt><trkpt lat="42.2590833" lon="14.1720433"><ele>359.6666666666667</ele><time>2026-05-01T13:37:14.512Z</time></trkpt><trkpt lat="42.2591383" lon="14.1719817"><ele>362.3333333333333</ele><time>2026-05-01T13:37:15.511Z</time></trkpt><trkpt lat="42.259195" lon="14.17192"><ele>365.0</ele><time>2026-05-01T13:37:16.518Z</time></trkpt><trkpt lat="42.2592583" lon="14.1718533"><ele>367.66666666666663</ele><time>2026-05-01T13:37:17.511Z</time></trkpt><trkpt lat="42.2593217" lon="14.1717817"><ele>370.3333333333333</ele><time>2026-05-01T13:37:18.509Z</time></trkpt><trkpt lat="42.2593833" lon="14.1716983"><ele>373.0</ele><time>2026-05-01T13:37:19.51Z</time></trkpt><trkpt lat="42.25944" lon="14.1716117"><ele>374.16666666666663</ele><time>2026-05-01T13:37:20.508Z</time></trkpt><trkpt lat="42.2594817" lon="14.1715233"><ele>375.3333333333333</ele><time>2026-05-01T13:37:21.509Z</time></trkpt><trkpt lat="42.2595167" lon="14.1714467"><ele>376.5</ele><time>2026-05-01T13:37:22.509Z</time></trkpt><trkpt lat="42.25956" lon="14.1713433"><ele>377.6666666666667</ele><time>2026-05-01T13:37:24.509Z</time></trkpt><trkpt lat="42.25959" lon="14.1712633"><ele>378.83333333333337</ele><time>2026-05-01T13:37:26.508Z</time></trkpt><trkpt lat="42.2596517" lon="14.17116"><ele>380.0</ele><time>2026-05-01T13:37:28.51Z</time></trkpt><trkpt lat="42.2597067" lon="14.17109"><ele>380.0</ele><time>2026-05-01T13:37:29.51Z</time></trkpt><trkpt lat="42.2597733" lon="14.1710117"><ele>380.0</ele><time>2026-05-01T13:37:30.514Z</time></trkpt><trkpt lat="42.2598533" lon="14.1709217"><ele>380.0</ele><time>2026-05-01T13:37:31.51Z</time></trkpt><trkpt lat="42.2599383" lon="14.170825"><ele>380.0</ele><time>2026-05-01T13:37:32.51Z</time></trkpt><trkpt lat="42.2600233" lon="14.1707367"><ele>380.0</ele><time>2026-05-01T13:37:33.509Z</time></trkpt><trkpt lat="42.2601167" lon="14.1706467"><ele>377.4</ele><time>2026-05-01T13:37:34.509Z</time></trkpt><trkpt lat="42.26021" lon="14.1705583"><ele>374.8</ele><time>2026-05-01T13:37:35.511Z</time></trkpt><trkpt lat="42.260305" lon="14.1704733"><ele>372.20000000000005</ele><time>2026-05-01T13:37:36.512Z</time></trkpt><trkpt lat="42.260395" lon="14.17039"><ele>369.6</ele><time>2026-05-01T13:37:37.515Z</time></trkpt><trkpt lat="42.260485" lon="14.1703067"><ele>367.0</ele><time>2026-05-01T13:37:38.509Z</time></trkpt><trkpt lat="42.26057" lon="14.170225"><ele>365.0</ele><time>2026-05-01T13:37:39.509Z</time></trkpt><trkpt lat="42.2606383" lon="14.17014"><ele>363.0</ele><time>2026-05-01T13:37:40.513Z</time></trkpt><trkpt lat="42.2607033" lon="14.1700633"><ele>361.0</ele><time>2026-05-01T13:37:41.51Z</time></trkpt><trkpt lat="42.2607633" lon="14.1699967"><ele>359.0</ele><time>2026-05-01T13:37:42.508Z</time></trkpt><trkpt lat="42.260815" lon="14.1699383"><ele>357.0</ele><time>2026-05-01T13:37:43.51Z</time></trkpt><trkpt lat="42.2609067" lon="14.1698333"><ele>355.0</ele><time>2026-05-01T13:37:45.509Z</time></trkpt><trkpt lat="42.26094" lon="14.169755"><ele>353.8333333333333</ele><time>2026-05-01T13:37:46.51Z</time></trkpt><trkpt lat="42.2609583" lon="14.1696567"><ele>352.66666666666663</ele><time>2026-05-01T13:37:47.509Z</time></trkpt><trkpt lat="42.2609767" lon="14.1695533"><ele>351.5</ele><time>2026-05-01T13:37:48.511Z</time></trkpt><trkpt lat="42.2609883" lon="14.1694417"><ele>350.3333333333333</ele><time>2026-05-01T13:37:49.508Z</time></trkpt><trkpt lat="42.261" lon="14.1693333"><ele>349.1666666666667</ele><time>2026-05-01T13:37:50.509Z</time></trkpt><trkpt lat="42.261015" lon="14.1692233"><ele>348.0</ele><time>2026-05-01T13:37:51.512Z</time></trkpt><trkpt lat="42.2610217" lon="14.1691133"><ele>347.1666666666667</ele><time>2026-05-01T13:37:52.508Z</time></trkpt><trkpt lat="42.261025" lon="14.169005"><ele>346.3333333333333</ele><time>2026-05-01T13:37:53.514Z</time></trkpt><trkpt lat="42.26102" lon="14.1689"><ele>345.5</ele><time>2026-05-01T13:37:54.509Z</time></trkpt><trkpt lat="42.261005" lon="14.168795"><ele>344.66666666666663</ele><time>2026-05-01T13:37:55.51Z</time></trkpt><trkpt lat="42.2610017" lon="14.1686767"><ele>343.8333333333333</ele><time>2026-05-01T13:37:56.508Z</time></trkpt><trkpt lat="42.2610117" lon="14.1685533"><ele>343.0</ele><time>2026-05-01T13:37:57.509Z</time></trkpt><trkpt lat="42.2610317" lon="14.16843"><ele>343.0</ele><time>2026-05-01T13:37:58.509Z</time></trkpt><trkpt lat="42.2610633" lon="14.16831"><ele>343.0</ele><time>2026-05-01T13:37:59.513Z</time></trkpt><trkpt lat="42.26109" lon="14.1681983"><ele>343.0</ele><time>2026-05-01T13:38:00.511Z</time></trkpt><trkpt lat="42.261115" lon="14.1680983"><ele>343.0</ele><time>2026-05-01T13:38:01.511Z</time></trkpt><trkpt lat="42.2611367" lon="14.1680117"><ele>343.0</ele><time>2026-05-01T13:38:02.512Z</time></trkpt><trkpt lat="42.261155" lon="14.1679283"><ele>343.0</ele><time>2026-05-01T13:38:03.517Z</time></trkpt><trkpt lat="42.2611633" lon="14.1677533"><ele>341.5</ele><time>2026-05-01T13:38:05.511Z</time></trkpt><trkpt lat="42.2611583" lon="14.1676617"><ele>340.0</ele><time>2026-05-01T13:38:06.51Z</time></trkpt><trkpt lat="42.261145" lon="14.1675733"><ele>338.5</ele><time>2026-05-01T13:38:07.509Z</time></trkpt><trkpt lat="42.2611367" lon="14.16748"><ele>337.0</ele><time>2026-05-01T13:38:08.51Z</time></trkpt><trkpt lat="42.2611233" lon="14.1673883"><ele>335.5</ele><time>2026-05-01T13:38:09.509Z</time></trkpt><trkpt lat="42.2611167" lon="14.1673017"><ele>334.0</ele><time>2026-05-01T13:38:10.515Z</time></trkpt><trkpt lat="42.261095" lon="14.16714"><ele>331.0</ele><time>2026-05-01T13:38:12.511Z</time></trkpt><trkpt lat="42.26113" lon="14.1670133"><ele>328.0</ele><time>2026-05-01T13:38:14.509Z</time></trkpt><trkpt lat="42.2612183" lon="14.1669667"><ele>325.0</ele><time>2026-05-01T13:38:16.51Z</time></trkpt><trkpt lat="42.2613267" lon="14.16701"><ele>322.0</ele><time>2026-05-01T13:38:18.513Z</time></trkpt><trkpt lat="42.261395" lon="14.1670583"><ele>319.0</ele><time>2026-05-01T13:38:19.51Z</time></trkpt><trkpt lat="42.261465" lon="14.167115"><ele>318.66666666666663</ele><time>2026-05-01T13:38:20.51Z</time></trkpt><trkpt lat="42.26153" lon="14.1671783"><ele>318.3333333333333</ele><time>2026-05-01T13:38:21.512Z</time></trkpt><trkpt lat="42.2615967" lon="14.1672467"><ele>318.0</ele><time>2026-05-01T13:38:22.511Z</time></trkpt><trkpt lat="42.2616667" lon="14.167315"><ele>317.6666666666667</ele><time>2026-05-01T13:38:23.511Z</time></trkpt><trkpt lat="42.2617317" lon="14.16739"><ele>317.33333333333337</ele><time>2026-05-01T13:38:24.511Z</time></trkpt><trkpt lat="42.2617933" lon="14.1674633"><ele>317.0</ele><time>2026-05-01T13:38:25.511Z</time></trkpt><trkpt lat="42.2618467" lon="14.1675283"><ele>317.0</ele><time>2026-05-01T13:38:26.512Z</time></trkpt><trkpt lat="42.261895" lon="14.1675883"><ele>317.0</ele><time>2026-05-01T13:38:27.51Z</time></trkpt><trkpt lat="42.26198" lon="14.1676917"><ele>317.0</ele><time>2026-05-01T13:38:29.51Z</time></trkpt><trkpt lat="42.26209" lon="14.16773"><ele>317.0</ele><time>2026-05-01T13:38:31.512Z</time></trkpt><trkpt lat="42.262155" lon="14.1677217"><ele>317.0</ele><time>2026-05-01T13:38:32.511Z</time></trkpt><trkpt lat="42.262225" lon="14.167705"><ele>317.0</ele><time>2026-05-01T13:38:33.51Z</time></trkpt><trkpt lat="42.2622917" lon="14.1676933"><ele>313.14285714285717</ele><time>2026-05-01T13:38:34.509Z</time></trkpt><trkpt lat="42.2623667" lon="14.16767"><ele>309.2857142857143</ele><time>2026-05-01T13:38:35.511Z</time></trkpt><trkpt lat="42.262435" lon="14.1676517"><ele>305.42857142857144</ele><time>2026-05-01T13:38:36.512Z</time></trkpt><trkpt lat="42.262505" lon="14.1676433"><ele>301.57142857142856</ele><time>2026-05-01T13:38:37.509Z</time></trkpt><trkpt lat="42.262575" lon="14.16766"><ele>297.7142857142857</ele><time>2026-05-01T13:38:38.512Z</time></trkpt><trkpt lat="42.2626433" lon="14.1677033"><ele>293.8571428571429</ele><time>2026-05-01T13:38:39.509Z</time></trkpt><trkpt lat="42.2627133" lon="14.1677567"><ele>290.0</ele><time>2026-05-01T13:38:40.51Z</time></trkpt><trkpt lat="42.262785" lon="14.167815"><ele>290.0</ele><time>2026-05-01T13:38:41.509Z</time></trkpt><trkpt lat="42.2628633" lon="14.1678733"><ele>290.0</ele><time>2026-05-01T13:38:42.51Z</time></trkpt><trkpt lat="42.26295" lon="14.1679267"><ele>290.0</ele><time>2026-05-01T13:38:43.511Z</time></trkpt><trkpt lat="42.26304" lon="14.1679833"><ele>290.0</ele><time>2026-05-01T13:38:44.512Z</time></trkpt><trkpt lat="42.2631283" lon="14.1680383"><ele>290.0</ele><time>2026-05-01T13:38:45.515Z</time></trkpt><trkpt lat="42.263215" lon="14.1681033"><ele>287.8</ele><time>2026-05-01T13:38:46.511Z</time></trkpt><trkpt lat="42.2633033" lon="14.168165"><ele>285.6</ele><time>2026-05-01T13:38:47.509Z</time></trkpt><trkpt lat="42.2633883" lon="14.1682267"><ele>283.4</ele><time>2026-05-01T13:38:48.51Z</time></trkpt><trkpt lat="42.2634783" lon="14.1682883"><ele>281.2</ele><time>2026-05-01T13:38:49.51Z</time></trkpt><trkpt lat="42.26356" lon="14.1683517"><ele>279.0</ele><time>2026-05-01T13:38:50.512Z</time></trkpt><trkpt lat="42.263645" lon="14.1684017"><ele>279.0</ele><time>2026-05-01T13:38:51.511Z</time></trkpt><trkpt lat="42.2637333" lon="14.1684267"><ele>279.0</ele><time>2026-05-01T13:38:52.512Z</time></trkpt><trkpt lat="42.2638183" lon="14.16844"><ele>279.0</ele><time>2026-05-01T13:38:53.513Z</time></trkpt><trkpt lat="42.2639" lon="14.16844"><ele>279.0</ele><time>2026-05-01T13:38:54.51Z</time></trkpt><trkpt lat="42.2639767" lon="14.1684267"><ele>279.0</ele><time>2026-05-01T13:38:55.511Z</time></trkpt><trkpt lat="42.2640467" lon="14.16842"><ele>279.0</ele><time>2026-05-01T13:38:56.51Z</time></trkpt><trkpt lat="42.26416" lon="14.1683917"><ele>276.1666666666667</ele><time>2026-05-01T13:38:58.518Z</time></trkpt><trkpt lat="42.2642483" lon="14.1683267"><ele>273.3333333333333</ele><time>2026-05-01T13:39:00.511Z</time></trkpt><trkpt lat="42.26432" lon="14.1682283"><ele>270.5</ele><time>2026-05-01T13:39:02.51Z</time></trkpt><trkpt lat="42.2643483" lon="14.1681467"><ele>267.66666666666663</ele><time>2026-05-01T13:39:03.51Z</time></trkpt><trkpt lat="42.264375" lon="14.1680467"><ele>264.8333333333333</ele><time>2026-05-01T13:39:04.51Z</time></trkpt><trkpt lat="42.2644" lon="14.1679467"><ele>262.0</ele><time>2026-05-01T13:39:05.509Z</time></trkpt><trkpt lat="42.2644367" lon="14.1678633"><ele>260.7142857142857</ele><time>2026-05-01T13:39:06.508Z</time></trkpt><trkpt lat="42.2644717" lon="14.1677817"><ele>259.42857142857144</ele><time>2026-05-01T13:39:07.509Z</time></trkpt><trkpt lat="42.2645033" lon="14.1677017"><ele>258.14285714285717</ele><time>2026-05-01T13:39:08.511Z</time></trkpt><trkpt lat="42.2645467" lon="14.1676283"><ele>256.8571428571429</ele><time>2026-05-01T13:39:09.511Z</time></trkpt><trkpt lat="42.2645783" lon="14.167545"><ele>255.57142857142858</ele><time>2026-05-01T13:39:10.509Z</time></trkpt><trkpt lat="42.264615" lon="14.1674617"><ele>254.28571428571433</ele><time>2026-05-01T13:39:11.511Z</time></trkpt><trkpt lat="42.26467" lon="14.1673933"><ele>253.00000000000003</ele><time>2026-05-01T13:39:12.513Z</time></trkpt><trkpt lat="42.2647383" lon="14.1673433"><ele>248.33333333333331</ele><time>2026-05-01T13:39:13.511Z</time></trkpt><trkpt lat="42.2648533" lon="14.1673033"><ele>243.66666666666666</ele><time>2026-05-01T13:39:15.513Z</time></trkpt><trkpt lat="42.26493" lon="14.1672667"><ele>239.0</ele><time>2026-05-01T13:39:17.512Z</time></trkpt><trkpt lat="42.26499" lon="14.1672233"><ele>234.33333333333331</ele><time>2026-05-01T13:39:19.515Z</time></trkpt><trkpt lat="42.2650417" lon="14.1671683"><ele>229.66666666666666</ele><time>2026-05-01T13:39:21.511Z</time></trkpt><trkpt lat="42.265105" lon="14.1670717"><ele>225.0</ele><time>2026-05-01T13:39:23.512Z</time></trkpt><trkpt lat="42.2652" lon="14.1669583"><ele>225.0</ele><time>2026-05-01T13:39:25.513Z</time></trkpt><trkpt lat="42.2652533" lon="14.1668833"><ele>225.0</ele><time>2026-05-01T13:39:26.513Z</time></trkpt><trkpt lat="42.26531" lon="14.166805"><ele>225.0</ele><time>2026-05-01T13:39:27.512Z</time></trkpt><trkpt lat="42.2653683" lon="14.1667217"><ele>225.0</ele><time>2026-05-01T13:39:28.511Z</time></trkpt><trkpt lat="42.2654267" lon="14.1666367"><ele>225.0</ele><time>2026-05-01T13:39:29.511Z</time></trkpt><trkpt lat="42.2654817" lon="14.16656"><ele>225.0</ele><time>2026-05-01T13:39:30.512Z</time></trkpt><trkpt lat="42.2655333" lon="14.1664917"><ele>222.16666666666666</ele><time>2026-05-01T13:39:31.511Z</time></trkpt><trkpt lat="42.26558" lon="14.1664283"><ele>219.33333333333331</ele><time>2026-05-01T13:39:32.513Z</time></trkpt><trkpt lat="42.2656533" lon="14.166345"><ele>216.5</ele><time>2026-05-01T13:39:34.51Z</time></trkpt><trkpt lat="42.2657" lon="14.1662867"><ele>213.66666666666666</ele><time>2026-05-01T13:39:36.511Z</time></trkpt><trkpt lat="42.265755" lon="14.166205"><ele>210.83333333333331</ele><time>2026-05-01T13:39:38.511Z</time></trkpt><trkpt lat="42.265815" lon="14.1660967"><ele>208.0</ele><time>2026-05-01T13:39:40.512Z</time></trkpt><trkpt lat="42.2658717" lon="14.1659517"><ele>207.99999999999997</ele><time>2026-05-01T13:39:42.512Z</time></trkpt><trkpt lat="42.2658967" lon="14.1658717"><ele>208.0</ele><time>2026-05-01T13:39:43.514Z</time></trkpt><trkpt lat="42.2659367" lon="14.1657217"><ele>208.0</ele><time>2026-05-01T13:39:45.511Z</time></trkpt><trkpt lat="42.265975" lon="14.1656117"><ele>208.0</ele><time>2026-05-01T13:39:47.514Z</time></trkpt><trkpt lat="42.2660417" lon="14.1655833"><ele>207.99999999999997</ele><time>2026-05-01T13:39:49.513Z</time></trkpt><trkpt lat="42.2661033" lon="14.1656283"><ele>208.0</ele><time>2026-05-01T13:39:51.511Z</time></trkpt><trkpt lat="42.2661533" lon="14.1657133"><ele>208.0</ele><time>2026-05-01T13:39:53.511Z</time></trkpt><trkpt lat="42.2661817" lon="14.1658183"><ele>208.0</ele><time>2026-05-01T13:39:55.511Z</time></trkpt><trkpt lat="42.26621" lon="14.1659433"><ele>208.0</ele><time>2026-05-01T13:39:57.512Z</time></trkpt><trkpt lat="42.266255" lon="14.1660917"><ele>208.0</ele><time>2026-05-01T13:39:59.513Z</time></trkpt><trkpt lat="42.2662783" lon="14.16619"><ele>208.0</ele><time>2026-05-01T13:40:00.512Z</time></trkpt><trkpt lat="42.2663033" lon="14.166295"><ele>207.99999999999997</ele><time>2026-05-01T13:40:01.515Z</time></trkpt><trkpt lat="42.26633" lon="14.1664017"><ele>208.0</ele><time>2026-05-01T13:40:02.511Z</time></trkpt><trkpt lat="42.2663667" lon="14.16651"><ele>208.0</ele><time>2026-05-01T13:40:03.509Z</time></trkpt><trkpt lat="42.2664083" lon="14.1666133"><ele>208.0</ele><time>2026-05-01T13:40:04.51Z</time></trkpt><trkpt lat="42.2664533" lon="14.1667183"><ele>207.99999999999997</ele><time>2026-05-01T13:40:05.509Z</time></trkpt><trkpt lat="42.2664983" lon="14.1668183"><ele>208.0</ele><time>2026-05-01T13:40:06.512Z</time></trkpt><trkpt lat="42.26654" lon="14.1669233"><ele>207.66666666666666</ele><time>2026-05-01T13:40:07.51Z</time></trkpt><trkpt lat="42.2665817" lon="14.167025"><ele>207.33333333333331</ele><time>2026-05-01T13:40:08.512Z</time></trkpt><trkpt lat="42.2666233" lon="14.1671217"><ele>207.0</ele><time>2026-05-01T13:40:09.511Z</time></trkpt><trkpt lat="42.2666617" lon="14.1672117"><ele>206.66666666666669</ele><time>2026-05-01T13:40:10.509Z</time></trkpt><trkpt lat="42.2666967" lon="14.167295"><ele>206.33333333333334</ele><time>2026-05-01T13:40:11.513Z</time></trkpt><trkpt lat="42.2667283" lon="14.167375"><ele>206.0</ele><time>2026-05-01T13:40:12.512Z</time></trkpt><trkpt lat="42.26676" lon="14.1674583"><ele>206.00000000000003</ele><time>2026-05-01T13:40:13.512Z</time></trkpt><trkpt lat="42.2667983" lon="14.1675467"><ele>206.0</ele><time>2026-05-01T13:40:14.511Z</time></trkpt><trkpt lat="42.2668367" lon="14.1676333"><ele>206.0</ele><time>2026-05-01T13:40:15.511Z</time></trkpt><trkpt lat="42.2668767" lon="14.16772"><ele>206.0</ele><time>2026-05-01T13:40:16.514Z</time></trkpt><trkpt lat="42.266925" lon="14.1678183"><ele>206.00000000000003</ele><time>2026-05-01T13:40:17.51Z</time></trkpt><trkpt lat="42.266975" lon="14.1679167"><ele>206.0</ele><time>2026-05-01T13:40:18.511Z</time></trkpt><trkpt lat="42.267025" lon="14.168005"><ele>205.99999999999997</ele><time>2026-05-01T13:40:19.513Z</time></trkpt><trkpt lat="42.2670733" lon="14.1680833"><ele>206.0</ele><time>2026-05-01T13:40:20.51Z</time></trkpt><trkpt lat="42.26712" lon="14.1681617"><ele>206.0</ele><time>2026-05-01T13:40:21.514Z</time></trkpt><trkpt lat="42.2671733" lon="14.16823"><ele>206.0</ele><time>2026-05-01T13:40:22.513Z</time></trkpt><trkpt lat="42.2672267" lon="14.168295"><ele>206.0</ele><time>2026-05-01T13:40:23.512Z</time></trkpt><trkpt lat="42.2672733" lon="14.1683567"><ele>205.99999999999997</ele><time>2026-05-01T13:40:24.512Z</time></trkpt><trkpt lat="42.2673183" lon="14.1684183"><ele>206.0</ele><time>2026-05-01T13:40:25.511Z</time></trkpt><trkpt lat="42.2673633" lon="14.168485"><ele>202.66666666666669</ele><time>2026-05-01T13:40:26.515Z</time></trkpt><trkpt lat="42.2674117" lon="14.1685517"><ele>199.33333333333334</ele><time>2026-05-01T13:40:27.512Z</time></trkpt><trkpt lat="42.2674583" lon="14.168615"><ele>196.0</ele><time>2026-05-01T13:40:28.512Z</time></trkpt><trkpt lat="42.2675417" lon="14.1687167"><ele>192.66666666666669</ele><time>2026-05-01T13:40:30.51Z</time></trkpt><trkpt lat="42.2676133" lon="14.1687517"><ele>189.33333333333334</ele><time>2026-05-01T13:40:32.512Z</time></trkpt><trkpt lat="42.267665" lon="14.1686833"><ele>186.0</ele><time>2026-05-01T13:40:35.509Z</time></trkpt><trkpt lat="42.2676567" lon="14.168525"><ele>186.0</ele><time>2026-05-01T13:40:38.51Z</time></trkpt><trkpt lat="42.2676617" lon="14.1684267"><ele>186.0</ele><time>2026-05-01T13:40:39.514Z</time></trkpt><trkpt lat="42.2676717" lon="14.1683167"><ele>186.0</ele><time>2026-05-01T13:40:40.512Z</time></trkpt><trkpt lat="42.2676833" lon="14.168215"><ele>186.0</ele><time>2026-05-01T13:40:41.509Z</time></trkpt><trkpt lat="42.2676867" lon="14.16806"><ele>186.0</ele><time>2026-05-01T13:40:43.511Z</time></trkpt><trkpt lat="42.2676817" lon="14.167965"><ele>186.0</ele><time>2026-05-01T13:40:45.517Z</time></trkpt><trkpt lat="42.2676967" lon="14.1678283"><ele>185.33333333333334</ele><time>2026-05-01T13:40:48.51Z</time></trkpt><trkpt lat="42.2676917" lon="14.16767"><ele>184.66666666666666</ele><time>2026-05-01T13:40:50.511Z</time></trkpt><trkpt lat="42.267685" lon="14.167585"><ele>184.0</ele><time>2026-05-01T13:40:51.512Z</time></trkpt><trkpt lat="42.2676783" lon="14.167485"><ele>183.33333333333331</ele><time>2026-05-01T13:40:52.512Z</time></trkpt><trkpt lat="42.267675" lon="14.16737"><ele>182.66666666666666</ele><time>2026-05-01T13:40:53.51Z</time></trkpt><trkpt lat="42.2676683" lon="14.1672517"><ele>182.0</ele><time>2026-05-01T13:40:54.518Z</time></trkpt><trkpt lat="42.26766" lon="14.1671283"><ele>181.16666666666666</ele><time>2026-05-01T13:40:55.511Z</time></trkpt><trkpt lat="42.2676533" lon="14.16701"><ele>180.33333333333331</ele><time>2026-05-01T13:40:56.511Z</time></trkpt><trkpt lat="42.2676483" lon="14.1669033"><ele>179.5</ele><time>2026-05-01T13:40:57.512Z</time></trkpt><trkpt lat="42.2676467" lon="14.1668083"><ele>178.66666666666666</ele><time>2026-05-01T13:40:58.511Z</time></trkpt><trkpt lat="42.26764" lon="14.1666617"><ele>177.83333333333334</ele><time>2026-05-01T13:41:00.518Z</time></trkpt><trkpt lat="42.267645" lon="14.1665283"><ele>177.0</ele><time>2026-05-01T13:41:02.511Z</time></trkpt><trkpt lat="42.2676733" lon="14.1663617"><ele>176.66666666666666</ele><time>2026-05-01T13:41:04.514Z</time></trkpt><trkpt lat="42.2676983" lon="14.1662833"><ele>176.33333333333334</ele><time>2026-05-01T13:41:05.511Z</time></trkpt><trkpt lat="42.2677583" lon="14.16615"><ele>176.0</ele><time>2026-05-01T13:41:07.512Z</time></trkpt><trkpt lat="42.2678517" lon="14.1660417"><ele>175.66666666666669</ele><time>2026-05-01T13:41:09.512Z</time></trkpt><trkpt lat="42.2679117" lon="14.16599"><ele>175.33333333333334</ele><time>2026-05-01T13:41:10.51Z</time></trkpt><trkpt lat="42.2679683" lon="14.16594"><ele>175.0</ele><time>2026-05-01T13:41:11.513Z</time></trkpt><trkpt lat="42.2680133" lon="14.1658767"><ele>175.0</ele><time>2026-05-01T13:41:12.511Z</time></trkpt><trkpt lat="42.268045" lon="14.1657983"><ele>175.0</ele><time>2026-05-01T13:41:13.512Z</time></trkpt><trkpt lat="42.26807" lon="14.16571"><ele>175.0</ele><time>2026-05-01T13:41:14.512Z</time></trkpt><trkpt lat="42.2680917" lon="14.165575"><ele>175.0</ele><time>2026-05-01T13:41:16.513Z</time></trkpt><trkpt lat="42.2680917" lon="14.1654867"><ele>175.0</ele><time>2026-05-01T13:41:18.514Z</time></trkpt><trkpt lat="42.2680883" lon="14.1653533"><ele>175.0</ele><time>2026-05-01T13:41:20.509Z</time></trkpt><trkpt lat="42.2680833" lon="14.1652533"><ele>174.0</ele><time>2026-05-01T13:41:21.513Z</time></trkpt><trkpt lat="42.2680783" lon="14.165155"><ele>173.0</ele><time>2026-05-01T13:41:22.51Z</time></trkpt><trkpt lat="42.26806" lon="14.165015"><ele>172.0</ele><time>2026-05-01T13:41:24.511Z</time></trkpt><trkpt lat="42.268055" lon="14.1648433"><ele>171.0</ele><time>2026-05-01T13:41:26.511Z</time></trkpt><trkpt lat="42.2680467" lon="14.164745"><ele>170.0</ele><time>2026-05-01T13:41:27.512Z</time></trkpt><trkpt lat="42.2680433" lon="14.1646483"><ele>167.8</ele><time>2026-05-01T13:41:28.512Z</time></trkpt><trkpt lat="42.2680433" lon="14.16456"><ele>165.6</ele><time>2026-05-01T13:41:29.511Z</time></trkpt><trkpt lat="42.2680383" lon="14.1643967"><ele>163.4</ele><time>2026-05-01T13:41:31.513Z</time></trkpt><trkpt lat="42.2680267" lon="14.16423"><ele>161.2</ele><time>2026-05-01T13:41:33.512Z</time></trkpt><trkpt lat="42.2680217" lon="14.1641433"><ele>159.0</ele><time>2026-05-01T13:41:34.513Z</time></trkpt><trkpt lat="42.2680217" lon="14.1639833"><ele>155.6</ele><time>2026-05-01T13:41:36.514Z</time></trkpt><trkpt lat="42.268025" lon="14.16383"><ele>152.2</ele><time>2026-05-01T13:41:38.511Z</time></trkpt><trkpt lat="42.268045" lon="14.1636783"><ele>148.79999999999998</ele><time>2026-05-01T13:41:40.51Z</time></trkpt><trkpt lat="42.26808" lon="14.1635367"><ele>145.4</ele><time>2026-05-01T13:41:42.509Z</time></trkpt><trkpt lat="42.2681067" lon="14.1634583"><ele>142.0</ele><time>2026-05-01T13:41:43.509Z</time></trkpt><trkpt lat="42.2681533" lon="14.1633"><ele>142.79999999999998</ele><time>2026-05-01T13:41:45.51Z</time></trkpt><trkpt lat="42.2682017" lon="14.1631467"><ele>143.6</ele><time>2026-05-01T13:41:47.511Z</time></trkpt><trkpt lat="42.2682317" lon="14.163065"><ele>144.39999999999998</ele><time>2026-05-01T13:41:48.511Z</time></trkpt><trkpt lat="42.2682733" lon="14.1629667"><ele>145.2</ele><time>2026-05-01T13:41:49.511Z</time></trkpt><trkpt lat="42.26832" lon="14.1628583"><ele>146.0</ele><time>2026-05-01T13:41:50.51Z</time></trkpt><trkpt lat="42.2683717" lon="14.162735"><ele>146.0</ele><time>2026-05-01T13:41:51.511Z</time></trkpt><trkpt lat="42.2684333" lon="14.162605"><ele>146.0</ele><time>2026-05-01T13:41:52.51Z</time></trkpt><trkpt lat="42.2684983" lon="14.1624867"><ele>146.0</ele><time>2026-05-01T13:41:53.512Z</time></trkpt><trkpt lat="42.26856" lon="14.1624033"><ele>146.0</ele><time>2026-05-01T13:41:54.513Z</time></trkpt><trkpt lat="42.2686167" lon="14.1623467"><ele>146.0</ele><time>2026-05-01T13:41:55.514Z</time></trkpt><trkpt lat="42.268675" lon="14.162305"><ele>146.0</ele><time>2026-05-01T13:41:56.509Z</time></trkpt><trkpt lat="42.26874" lon="14.1622833"><ele>148.0</ele><time>2026-05-01T13:41:57.509Z</time></trkpt><trkpt lat="42.2688117" lon="14.1622833"><ele>150.0</ele><time>2026-05-01T13:41:58.508Z</time></trkpt><trkpt lat="42.2688783" lon="14.1622883"><ele>152.0</ele><time>2026-05-01T13:41:59.511Z</time></trkpt><trkpt lat="42.2689983" lon="14.162295"><ele>154.0</ele><time>2026-05-01T13:42:01.512Z</time></trkpt><trkpt lat="42.2690983" lon="14.1622783"><ele>156.0</ele><time>2026-05-01T13:42:03.511Z</time></trkpt><trkpt lat="42.2691783" lon="14.1621917"><ele>156.0</ele><time>2026-05-01T13:42:05.51Z</time></trkpt><trkpt lat="42.269205" lon="14.162015"><ele>156.0</ele><time>2026-05-01T13:42:07.51Z</time></trkpt><trkpt lat="42.2692" lon="14.1619067"><ele>156.0</ele><time>2026-05-01T13:42:08.51Z</time></trkpt><trkpt lat="42.2691883" lon="14.1617933"><ele>156.0</ele><time>2026-05-01T13:42:09.51Z</time></trkpt><trkpt lat="42.2691767" lon="14.1616867"><ele>156.0</ele><time>2026-05-01T13:42:10.514Z</time></trkpt><trkpt lat="42.26916" lon="14.1615367"><ele>157.4</ele><time>2026-05-01T13:42:12.508Z</time></trkpt><trkpt lat="42.2691383" lon="14.161395"><ele>158.8</ele><time>2026-05-01T13:42:14.51Z</time></trkpt><trkpt lat="42.2691167" lon="14.1612483"><ele>160.20000000000002</ele><time>2026-05-01T13:42:16.51Z</time></trkpt><trkpt lat="42.2691" lon="14.1611067"><ele>161.6</ele><time>2026-05-01T13:42:18.509Z</time></trkpt><trkpt lat="42.2690617" lon="14.1609567"><ele>163.0</ele><time>2026-05-01T13:42:20.51Z</time></trkpt><trkpt lat="42.2689917" lon="14.1608433"><ele>164.8</ele><time>2026-05-01T13:42:22.509Z</time></trkpt><trkpt lat="42.2688783" lon="14.1607867"><ele>166.60000000000002</ele><time>2026-05-01T13:42:24.51Z</time></trkpt><trkpt lat="42.2687883" lon="14.1607833"><ele>168.39999999999998</ele><time>2026-05-01T13:42:25.51Z</time></trkpt><trkpt lat="42.2686867" lon="14.1608"><ele>170.2</ele><time>2026-05-01T13:42:26.514Z</time></trkpt><trkpt lat="42.2686017" lon="14.160815"><ele>172.0</ele><time>2026-05-01T13:42:27.509Z</time></trkpt><trkpt lat="42.2685333" lon="14.1608367"><ele>172.00000000000003</ele><time>2026-05-01T13:42:28.51Z</time></trkpt><trkpt lat="42.2684667" lon="14.160855"><ele>172.0</ele><time>2026-05-01T13:42:29.51Z</time></trkpt><trkpt lat="42.2684017" lon="14.1608683"><ele>172.0</ele><time>2026-05-01T13:42:30.511Z</time></trkpt><trkpt lat="42.2683383" lon="14.16088"><ele>172.0</ele><time>2026-05-01T13:42:31.511Z</time></trkpt><trkpt lat="42.2682433" lon="14.1608933"><ele>172.0</ele><time>2026-05-01T13:42:33.515Z</time></trkpt><trkpt lat="42.2681783" lon="14.1609217"><ele>172.00000000000003</ele><time>2026-05-01T13:42:35.511Z</time></trkpt><trkpt lat="42.268095" lon="14.1609567"><ele>172.0</ele><time>2026-05-01T13:42:37.511Z</time></trkpt><trkpt lat="42.267985" lon="14.1609767"><ele>172.00000000000003</ele><time>2026-05-01T13:42:39.512Z</time></trkpt><trkpt lat="42.2679217" lon="14.16098"><ele>172.0</ele><time>2026-05-01T13:42:40.512Z</time></trkpt><trkpt lat="42.2678583" lon="14.1609817"><ele>172.0</ele><time>2026-05-01T13:42:41.513Z</time></trkpt><trkpt lat="42.2677933" lon="14.1609783"><ele>172.0</ele><time>2026-05-01T13:42:42.511Z</time></trkpt><trkpt lat="42.2677283" lon="14.1609733"><ele>172.0</ele><time>2026-05-01T13:42:43.512Z</time></trkpt><trkpt lat="42.2676333" lon="14.1609483"><ele>172.00000000000003</ele><time>2026-05-01T13:42:45.514Z</time></trkpt><trkpt lat="42.2675867" lon="14.1608783"><ele>172.0</ele><time>2026-05-01T13:42:47.509Z</time></trkpt><trkpt lat="42.2676" lon="14.1607583"><ele>176.25</ele><time>2026-05-01T13:42:49.511Z</time></trkpt><trkpt lat="42.26767" lon="14.160635"><ele>180.5</ele><time>2026-05-01T13:42:51.509Z</time></trkpt><trkpt lat="42.2677667" lon="14.1605217"><ele>184.75</ele><time>2026-05-01T13:42:52.513Z</time></trkpt><trkpt lat="42.2678567" lon="14.16042"><ele>189.0</ele><time>2026-05-01T13:42:53.511Z</time></trkpt><trkpt lat="42.267935" lon="14.1603283"><ele>189.0</ele><time>2026-05-01T13:42:54.509Z</time></trkpt><trkpt lat="42.2680033" lon="14.1602383"><ele>189.0</ele><time>2026-05-01T13:42:55.512Z</time></trkpt><trkpt lat="42.2680817" lon="14.1601083"><ele>189.0</ele><time>2026-05-01T13:42:56.51Z</time></trkpt><trkpt lat="42.26815" lon="14.1599667"><ele>189.0</ele><time>2026-05-01T13:42:57.51Z</time></trkpt><trkpt lat="42.2682083" lon="14.1598467"><ele>191.16666666666666</ele><time>2026-05-01T13:42:58.511Z</time></trkpt><trkpt lat="42.268255" lon="14.159735"><ele>193.33333333333331</ele><time>2026-05-01T13:42:59.511Z</time></trkpt><trkpt lat="42.2682933" lon="14.1596433"><ele>195.5</ele><time>2026-05-01T13:43:00.51Z</time></trkpt><trkpt lat="42.26832" lon="14.15955"><ele>197.66666666666666</ele><time>2026-05-01T13:43:01.509Z</time></trkpt><trkpt lat="42.2683383" lon="14.1594483"><ele>199.83333333333331</ele><time>2026-05-01T13:43:02.509Z</time></trkpt><trkpt lat="42.2683433" lon="14.159345"><ele>202.0</ele><time>2026-05-01T13:43:03.507Z</time></trkpt><trkpt lat="42.2683417" lon="14.1592367"><ele>201.99999999999997</ele><time>2026-05-01T13:43:04.512Z</time></trkpt><trkpt lat="42.2683333" lon="14.1591217"><ele>202.0</ele><time>2026-05-01T13:43:05.51Z</time></trkpt><trkpt lat="42.2683167" lon="14.1590067"><ele>202.0</ele><time>2026-05-01T13:43:06.512Z</time></trkpt><trkpt lat="42.2683017" lon="14.1588917"><ele>202.0</ele><time>2026-05-01T13:43:07.51Z</time></trkpt><trkpt lat="42.2682867" lon="14.1587683"><ele>201.99999999999997</ele><time>2026-05-01T13:43:08.517Z</time></trkpt><trkpt lat="42.2682717" lon="14.1586383"><ele>202.0</ele><time>2026-05-01T13:43:09.509Z</time></trkpt><trkpt lat="42.268265" lon="14.1585183"><ele>203.83333333333331</ele><time>2026-05-01T13:43:10.51Z</time></trkpt><trkpt lat="42.2682633" lon="14.1583967"><ele>205.66666666666666</ele><time>2026-05-01T13:43:11.509Z</time></trkpt><trkpt lat="42.2682683" lon="14.15827"><ele>207.5</ele><time>2026-05-01T13:43:12.512Z</time></trkpt><trkpt lat="42.2682767" lon="14.158155"><ele>209.33333333333331</ele><time>2026-05-01T13:43:13.511Z</time></trkpt><trkpt lat="42.268285" lon="14.1580533"><ele>211.16666666666666</ele><time>2026-05-01T13:43:14.509Z</time></trkpt><trkpt lat="42.26829" lon="14.157955"><ele>213.0</ele><time>2026-05-01T13:43:15.512Z</time></trkpt><trkpt lat="42.2683017" lon="14.15785"><ele>214.8</ele><time>2026-05-01T13:43:16.511Z</time></trkpt><trkpt lat="42.26831" lon="14.1577467"><ele>216.60000000000002</ele><time>2026-05-01T13:43:17.512Z</time></trkpt><trkpt lat="42.2683433" lon="14.1576033"><ele>218.39999999999998</ele><time>2026-05-01T13:43:19.511Z</time></trkpt><trkpt lat="42.26839" lon="14.1574767"><ele>220.2</ele><time>2026-05-01T13:43:21.511Z</time></trkpt><trkpt lat="42.2684517" lon="14.15734"><ele>222.0</ele><time>2026-05-01T13:43:23.512Z</time></trkpt><trkpt lat="42.2685233" lon="14.15725"><ele>225.2</ele><time>2026-05-01T13:43:25.511Z</time></trkpt><trkpt lat="42.2686383" lon="14.15719"><ele>228.39999999999998</ele><time>2026-05-01T13:43:27.513Z</time></trkpt><trkpt lat="42.2687133" lon="14.1571817"><ele>231.60000000000002</ele><time>2026-05-01T13:43:28.51Z</time></trkpt><trkpt lat="42.2688167" lon="14.1571967"><ele>234.8</ele><time>2026-05-01T13:43:29.515Z</time></trkpt><trkpt lat="42.268915" lon="14.157215"><ele>238.0</ele><time>2026-05-01T13:43:30.511Z</time></trkpt><trkpt lat="42.269015" lon="14.157235"><ele>238.16666666666666</ele><time>2026-05-01T13:43:31.509Z</time></trkpt><trkpt lat="42.2691033" lon="14.1572567"><ele>238.33333333333331</ele><time>2026-05-01T13:43:32.512Z</time></trkpt><trkpt lat="42.26918" lon="14.1572783"><ele>238.5</ele><time>2026-05-01T13:43:33.511Z</time></trkpt><trkpt lat="42.2692517" lon="14.157295"><ele>238.66666666666669</ele><time>2026-05-01T13:43:34.515Z</time></trkpt><trkpt lat="42.26932" lon="14.1573117"><ele>238.83333333333334</ele><time>2026-05-01T13:43:35.513Z</time></trkpt><trkpt lat="42.2693867" lon="14.157325"><ele>239.0</ele><time>2026-05-01T13:43:36.51Z</time></trkpt><trkpt lat="42.2695017" lon="14.1573283"><ele>239.00000000000003</ele><time>2026-05-01T13:43:38.513Z</time></trkpt><trkpt lat="42.269565" lon="14.1573133"><ele>239.0</ele><time>2026-05-01T13:43:39.512Z</time></trkpt><trkpt lat="42.2696317" lon="14.1572833"><ele>239.0</ele><time>2026-05-01T13:43:40.51Z</time></trkpt><trkpt lat="42.2697" lon="14.1572417"><ele>239.0</ele><time>2026-05-01T13:43:41.512Z</time></trkpt><trkpt lat="42.26977" lon="14.1571733"><ele>239.00000000000003</ele><time>2026-05-01T13:43:42.511Z</time></trkpt><trkpt lat="42.2698383" lon="14.1570867"><ele>239.0</ele><time>2026-05-01T13:43:43.509Z</time></trkpt><trkpt lat="42.2698983" lon="14.1569883"><ele>238.39999999999998</ele><time>2026-05-01T13:43:44.514Z</time></trkpt><trkpt lat="42.2699467" lon="14.15687"><ele>237.79999999999998</ele><time>2026-05-01T13:43:45.512Z</time></trkpt><trkpt lat="42.269985" lon="14.1567467"><ele>237.20000000000002</ele><time>2026-05-01T13:43:46.51Z</time></trkpt><trkpt lat="42.27001" lon="14.1566167"><ele>236.60000000000002</ele><time>2026-05-01T13:43:47.512Z</time></trkpt><trkpt lat="42.2700333" lon="14.156485"><ele>236.0</ele><time>2026-05-01T13:43:48.509Z</time></trkpt><trkpt lat="42.2700633" lon="14.1563533"><ele>237.8</ele><time>2026-05-01T13:43:49.512Z</time></trkpt><trkpt lat="42.2700983" lon="14.1562233"><ele>239.60000000000002</ele><time>2026-05-01T13:43:50.51Z</time></trkpt><trkpt lat="42.2701383" lon="14.156105"><ele>241.4</ele><time>2026-05-01T13:43:51.51Z</time></trkpt><trkpt lat="42.270185" lon="14.1559933"><ele>243.2</ele><time>2026-05-01T13:43:52.509Z</time></trkpt><trkpt lat="42.270225" lon="14.1558917"><ele>245.0</ele><time>2026-05-01T13:43:53.509Z</time></trkpt><trkpt lat="42.270255" lon="14.1558"><ele>245.0</ele><time>2026-05-01T13:43:54.514Z</time></trkpt><trkpt lat="42.27027" lon="14.1557167"><ele>245.0</ele><time>2026-05-01T13:43:55.512Z</time></trkpt><trkpt lat="42.270255" lon="14.1555883"><ele>245.0</ele><time>2026-05-01T13:43:57.509Z</time></trkpt><trkpt lat="42.2702033" lon="14.1554933"><ele>245.0</ele><time>2026-05-01T13:43:59.513Z</time></trkpt><trkpt lat="42.2701267" lon="14.155385"><ele>245.0</ele><time>2026-05-01T13:44:01.515Z</time></trkpt><trkpt lat="42.2700467" lon="14.15529"><ele>246.16666666666669</ele><time>2026-05-01T13:44:03.509Z</time></trkpt><trkpt lat="42.2699933" lon="14.1551783"><ele>247.33333333333334</ele><time>2026-05-01T13:44:05.512Z</time></trkpt><trkpt lat="42.2699317" lon="14.1551217"><ele>248.5</ele><time>2026-05-01T13:44:07.509Z</time></trkpt><trkpt lat="42.2698917" lon="14.1550517"><ele>249.66666666666669</ele><time>2026-05-01T13:44:09.51Z</time></trkpt><trkpt lat="42.2699183" lon="14.1549217"><ele>250.83333333333334</ele><time>2026-05-01T13:44:13.51Z</time></trkpt><trkpt lat="42.2699583" lon="14.154835"><ele>252.0</ele><time>2026-05-01T13:44:15.511Z</time></trkpt><trkpt lat="42.270025" lon="14.1547067"><ele>254.39999999999998</ele><time>2026-05-01T13:44:17.511Z</time></trkpt><trkpt lat="42.2700983" lon="14.15455"><ele>256.79999999999995</ele><time>2026-05-01T13:44:19.51Z</time></trkpt><trkpt lat="42.270145" lon="14.1544533"><ele>259.2</ele><time>2026-05-01T13:44:20.512Z</time></trkpt><trkpt lat="42.270195" lon="14.154355"><ele>261.59999999999997</ele><time>2026-05-01T13:44:21.51Z</time></trkpt><trkpt lat="42.2702417" lon="14.1542517"><ele>264.0</ele><time>2026-05-01T13:44:22.51Z</time></trkpt><trkpt lat="42.2703" lon="14.1541533"><ele>265.5</ele><time>2026-05-01T13:44:23.51Z</time></trkpt><trkpt lat="42.2703783" lon="14.15402"><ele>267.0</ele><time>2026-05-01T13:44:24.509Z</time></trkpt><trkpt lat="42.2704817" lon="14.1538817"><ele>268.5</ele><time>2026-05-01T13:44:25.51Z</time></trkpt><trkpt lat="42.2705817" lon="14.1537483"><ele>270.0</ele><time>2026-05-01T13:44:26.509Z</time></trkpt><trkpt lat="42.2706717" lon="14.1536333"><ele>270.0</ele><time>2026-05-01T13:44:27.509Z</time></trkpt><trkpt lat="42.270755" lon="14.1535283"><ele>270.0</ele><time>2026-05-01T13:44:28.512Z</time></trkpt><trkpt lat="42.2708283" lon="14.1534183"><ele>270.0</ele><time>2026-05-01T13:44:29.512Z</time></trkpt><trkpt lat="42.2708933" lon="14.15331"><ele>270.0</ele><time>2026-05-01T13:44:30.511Z</time></trkpt><trkpt lat="42.27095" lon="14.1532117"><ele>270.0</ele><time>2026-05-01T13:44:31.511Z</time></trkpt><trkpt lat="42.2709967" lon="14.1531183"><ele>271.5</ele><time>2026-05-01T13:44:32.512Z</time></trkpt><trkpt lat="42.27103" lon="14.1530283"><ele>273.0</ele><time>2026-05-01T13:44:33.511Z</time></trkpt><trkpt lat="42.27106" lon="14.15294"><ele>274.5</ele><time>2026-05-01T13:44:34.51Z</time></trkpt><trkpt lat="42.27109" lon="14.1528217"><ele>276.0</ele><time>2026-05-01T13:44:36.512Z</time></trkpt><trkpt lat="42.2711483" lon="14.1527367"><ele>277.5</ele><time>2026-05-01T13:44:49.51Z</time></trkpt><trkpt lat="42.2712267" lon="14.1527133"><ele>279.0</ele><time>2026-05-01T13:44:51.512Z</time></trkpt><trkpt lat="42.271335" lon="14.1527133"><ele>276.2</ele><time>2026-05-01T13:44:53.512Z</time></trkpt><trkpt lat="42.27145" lon="14.1527183"><ele>273.4</ele><time>2026-05-01T13:44:55.513Z</time></trkpt><trkpt lat="42.27156" lon="14.152715"><ele>270.6</ele><time>2026-05-01T13:44:57.512Z</time></trkpt><trkpt lat="42.2716617" lon="14.1526883"><ele>267.8</ele><time>2026-05-01T13:44:59.509Z</time></trkpt><trkpt lat="42.2717633" lon="14.1526967"><ele>265.0</ele><time>2026-05-01T13:45:01.512Z</time></trkpt><trkpt lat="42.2718617" lon="14.1527567"><ele>265.0</ele><time>2026-05-01T13:45:03.512Z</time></trkpt><trkpt lat="42.2719483" lon="14.152855"><ele>265.0</ele><time>2026-05-01T13:45:05.509Z</time></trkpt><trkpt lat="42.2720233" lon="14.1529517"><ele>265.0</ele><time>2026-05-01T13:45:07.509Z</time></trkpt><trkpt lat="42.272085" lon="14.1530317"><ele>265.0</ele><time>2026-05-01T13:45:09.511Z</time></trkpt><trkpt lat="42.27214" lon="14.15311"><ele>265.0</ele><time>2026-05-01T13:45:11.509Z</time></trkpt><trkpt lat="42.2721983" lon="14.1532083"><ele>263.0</ele><time>2026-05-01T13:45:13.51Z</time></trkpt><trkpt lat="42.2722633" lon="14.1533117"><ele>261.0</ele><time>2026-05-01T13:45:15.508Z</time></trkpt><trkpt lat="42.2723333" lon="14.1534133"><ele>259.0</ele><time>2026-05-01T13:45:17.515Z</time></trkpt><trkpt lat="42.2723967" lon="14.1535033"><ele>257.0</ele><time>2026-05-01T13:45:19.511Z</time></trkpt><trkpt lat="42.2724567" lon="14.1535933"><ele>255.0</ele><time>2026-05-01T13:45:21.513Z</time></trkpt><trkpt lat="42.2725333" lon="14.153695"><ele>252.4</ele><time>2026-05-01T13:45:23.509Z</time></trkpt><trkpt lat="42.2726083" lon="14.1538133"><ele>249.8</ele><time>2026-05-01T13:45:25.509Z</time></trkpt><trkpt lat="42.2726683" lon="14.1539067"><ele>247.2</ele><time>2026-05-01T13:45:27.509Z</time></trkpt><trkpt lat="42.272745" lon="14.1539833"><ele>244.6</ele><time>2026-05-01T13:45:29.515Z</time></trkpt><trkpt lat="42.2728283" lon="14.1540783"><ele>242.0</ele><time>2026-05-01T13:45:31.515Z</time></trkpt><trkpt lat="42.2729333" lon="14.1541683"><ele>239.39999999999998</ele><time>2026-05-01T13:45:33.509Z</time></trkpt><trkpt lat="42.2730017" lon="14.15421"><ele>236.79999999999998</ele><time>2026-05-01T13:45:34.513Z</time></trkpt><trkpt lat="42.2730733" lon="14.15425"><ele>234.2</ele><time>2026-05-01T13:45:35.511Z</time></trkpt><trkpt lat="42.27314" lon="14.1542933"><ele>231.6</ele><time>2026-05-01T13:45:36.512Z</time></trkpt><trkpt lat="42.2732467" lon="14.1543617"><ele>229.0</ele><time>2026-05-01T13:45:38.509Z</time></trkpt><trkpt lat="42.2733317" lon="14.1544483"><ele>226.0</ele><time>2026-05-01T13:45:40.509Z</time></trkpt><trkpt lat="42.2733833" lon="14.1545833"><ele>222.99999999999997</ele><time>2026-05-01T13:45:42.511Z</time></trkpt><trkpt lat="42.2734217" lon="14.15472"><ele>219.99999999999997</ele><time>2026-05-01T13:45:44.512Z</time></trkpt><trkpt lat="42.2734383" lon="14.15486"><ele>217.0</ele><time>2026-05-01T13:45:46.512Z</time></trkpt><trkpt lat="42.2734667" lon="14.1549617"><ele>214.0</ele><time>2026-05-01T13:45:48.514Z</time></trkpt><trkpt lat="42.2735217" lon="14.15506"><ele>210.25</ele><time>2026-05-01T13:45:50.511Z</time></trkpt><trkpt lat="42.273615" lon="14.15515"><ele>206.5</ele><time>2026-05-01T13:45:52.509Z</time></trkpt><trkpt lat="42.2737117" lon="14.1552367"><ele>202.75</ele><time>2026-05-01T13:45:54.51Z</time></trkpt><trkpt lat="42.2738033" lon="14.1553067"><ele>199.0</ele><time>2026-05-01T13:45:56.512Z</time></trkpt><trkpt lat="42.27389" lon="14.15541"><ele>197.6</ele><time>2026-05-01T13:45:58.511Z</time></trkpt><trkpt lat="42.2739617" lon="14.1555283"><ele>196.2</ele><time>2026-05-01T13:46:00.512Z</time></trkpt><trkpt lat="42.274055" lon="14.15558"><ele>194.79999999999998</ele><time>2026-05-01T13:46:02.512Z</time></trkpt><trkpt lat="42.27414" lon="14.155635"><ele>193.39999999999998</ele><time>2026-05-01T13:46:04.51Z</time></trkpt><trkpt lat="42.27418" lon="14.1557233"><ele>192.0</ele><time>2026-05-01T13:46:06.509Z</time></trkpt><trkpt lat="42.27421" lon="14.1558583"><ele>191.0</ele><time>2026-05-01T13:46:08.51Z</time></trkpt><trkpt lat="42.274235" lon="14.1559367"><ele>190.0</ele><time>2026-05-01T13:46:09.513Z</time></trkpt><trkpt lat="42.2742533" lon="14.1560267"><ele>189.0</ele><time>2026-05-01T13:46:10.511Z</time></trkpt><trkpt lat="42.2742833" lon="14.1561083"><ele>188.0</ele><time>2026-05-01T13:46:11.511Z</time></trkpt><trkpt lat="42.2743133" lon="14.1561833"><ele>187.0</ele><time>2026-05-01T13:46:12.521Z</time></trkpt><trkpt lat="42.2743683" lon="14.1562983"><ele>186.0</ele><time>2026-05-01T13:46:14.51Z</time></trkpt><trkpt lat="42.274405" lon="14.1564083"><ele>186.0</ele><time>2026-05-01T13:46:16.51Z</time></trkpt><trkpt lat="42.2744383" lon="14.1564967"><ele>186.0</ele><time>2026-05-01T13:46:18.51Z</time></trkpt><trkpt lat="42.2745183" lon="14.1565667"><ele>186.0</ele><time>2026-05-01T13:46:21.511Z</time></trkpt><trkpt lat="42.274595" lon="14.1566383"><ele>186.0</ele><time>2026-05-01T13:46:24.511Z</time></trkpt><trkpt lat="42.27466" lon="14.15666"><ele>186.0</ele><time>2026-05-01T13:46:27.51Z</time></trkpt><trkpt lat="42.2747367" lon="14.15662"><ele>186.0</ele><time>2026-05-01T13:46:31.511Z</time></trkpt><trkpt lat="42.2747983" lon="14.1565783"><ele>184.2857142857143</ele><time>2026-05-01T13:46:34.51Z</time></trkpt><trkpt lat="42.2748633" lon="14.1565667"><ele>182.57142857142858</ele><time>2026-05-01T13:46:36.511Z</time></trkpt><trkpt lat="42.2749267" lon="14.1565867"><ele>180.85714285714286</ele><time>2026-05-01T13:46:39.51Z</time></trkpt><trkpt lat="42.2750017" lon="14.1566"><ele>179.14285714285717</ele><time>2026-05-01T13:46:44.511Z</time></trkpt><trkpt lat="42.275085" lon="14.15659"><ele>177.42857142857144</ele><time>2026-05-01T13:46:47.514Z</time></trkpt><trkpt lat="42.275145" lon="14.15654"><ele>175.71428571428572</ele><time>2026-05-01T13:46:49.511Z</time></trkpt><trkpt lat="42.2752017" lon="14.156495"><ele>174.0</ele><time>2026-05-01T13:46:51.512Z</time></trkpt><trkpt lat="42.2752767" lon="14.1564583"><ele>174.0</ele><time>2026-05-01T13:46:54.518Z</time></trkpt><trkpt lat="42.2753617" lon="14.1564333"><ele>174.0</ele><time>2026-05-01T13:46:57.513Z</time></trkpt><trkpt lat="42.2754317" lon="14.1564533"><ele>174.0</ele><time>2026-05-01T13:46:59.512Z</time></trkpt><trkpt lat="42.2754967" lon="14.1565167"><ele>174.0</ele><time>2026-05-01T13:47:01.511Z</time></trkpt><trkpt lat="42.275535" lon="14.15659"><ele>174.0</ele><time>2026-05-01T13:47:04.514Z</time></trkpt><trkpt lat="42.27557" lon="14.1566633"><ele>174.0</ele><time>2026-05-01T13:47:13.511Z</time></trkpt><trkpt lat="42.2756" lon="14.1567483"><ele>174.0</ele><time>2026-05-01T13:47:16.511Z</time></trkpt><trkpt lat="42.2756683" lon="14.1567867"><ele>172.66666666666666</ele><time>2026-05-01T13:47:18.512Z</time></trkpt><trkpt lat="42.2757467" lon="14.156755"><ele>171.33333333333334</ele><time>2026-05-01T13:47:20.512Z</time></trkpt><trkpt lat="42.2758467" lon="14.15667"><ele>170.0</ele><time>2026-05-01T13:47:22.513Z</time></trkpt><trkpt lat="42.2758967" lon="14.156615"><ele>168.66666666666669</ele><time>2026-05-01T13:47:23.516Z</time></trkpt><trkpt lat="42.2759533" lon="14.1565583"><ele>167.33333333333334</ele><time>2026-05-01T13:47:24.513Z</time></trkpt><trkpt lat="42.2760283" lon="14.1565017"><ele>166.0</ele><time>2026-05-01T13:47:25.51Z</time></trkpt><trkpt lat="42.2761133" lon="14.156445"><ele>166.0</ele><time>2026-05-01T13:47:26.51Z</time></trkpt><trkpt lat="42.2761967" lon="14.1563917"><ele>166.0</ele><time>2026-05-01T13:47:27.51Z</time></trkpt><trkpt lat="42.2762783" lon="14.15634"><ele>166.0</ele><time>2026-05-01T13:47:28.511Z</time></trkpt><trkpt lat="42.2763567" lon="14.1562883"><ele>166.0</ele><time>2026-05-01T13:47:29.509Z</time></trkpt><trkpt lat="42.2764267" lon="14.1562333"><ele>166.0</ele><time>2026-05-01T13:47:30.512Z</time></trkpt><trkpt lat="42.2764983" lon="14.1561833"><ele>166.0</ele><time>2026-05-01T13:47:31.509Z</time></trkpt><trkpt lat="42.276575" lon="14.156135"><ele>164.33333333333334</ele><time>2026-05-01T13:47:32.513Z</time></trkpt><trkpt lat="42.276655" lon="14.1560917"><ele>162.66666666666669</ele><time>2026-05-01T13:47:33.514Z</time></trkpt><trkpt lat="42.276725" lon="14.15605"><ele>161.0</ele><time>2026-05-01T13:47:34.51Z</time></trkpt><trkpt lat="42.2768067" lon="14.156005"><ele>159.33333333333334</ele><time>2026-05-01T13:47:35.511Z</time></trkpt><trkpt lat="42.2768933" lon="14.15596"><ele>157.66666666666666</ele><time>2026-05-01T13:47:36.514Z</time></trkpt><trkpt lat="42.2769883" lon="14.1559117"><ele>156.0</ele><time>2026-05-01T13:47:37.51Z</time></trkpt><trkpt lat="42.27708" lon="14.15586"><ele>156.0</ele><time>2026-05-01T13:47:38.512Z</time></trkpt><trkpt lat="42.2771583" lon="14.1558133"><ele>156.0</ele><time>2026-05-01T13:47:39.51Z</time></trkpt><trkpt lat="42.2772267" lon="14.1557767"><ele>156.0</ele><time>2026-05-01T13:47:40.517Z</time></trkpt><trkpt lat="42.2773133" lon="14.1557217"><ele>156.0</ele><time>2026-05-01T13:47:42.51Z</time></trkpt><trkpt lat="42.2774383" lon="14.155635"><ele>156.0</ele><time>2026-05-01T13:47:44.51Z</time></trkpt><trkpt lat="42.2775233" lon="14.15558"><ele>156.0</ele><time>2026-05-01T13:47:45.514Z</time></trkpt><trkpt lat="42.2776117" lon="14.1555267"><ele>156.0</ele><time>2026-05-01T13:47:46.512Z</time></trkpt><trkpt lat="42.2777017" lon="14.1554717"><ele>156.0</ele><time>2026-05-01T13:47:47.51Z</time></trkpt><trkpt lat="42.2777917" lon="14.155415"><ele>156.0</ele><time>2026-05-01T13:47:48.511Z</time></trkpt><trkpt lat="42.27788" lon="14.1553617"><ele>156.0</ele><time>2026-05-01T13:47:49.51Z</time></trkpt><trkpt lat="42.2779633" lon="14.15531"><ele>156.0</ele><time>2026-05-01T13:47:50.514Z</time></trkpt><trkpt lat="42.27805" lon="14.1552633"><ele>156.0</ele><time>2026-05-01T13:47:51.513Z</time></trkpt><trkpt lat="42.27814" lon="14.155215"><ele>156.0</ele><time>2026-05-01T13:47:52.513Z</time></trkpt><trkpt lat="42.2782283" lon="14.1551783"><ele>156.0</ele><time>2026-05-01T13:47:53.512Z</time></trkpt><trkpt lat="42.2783083" lon="14.1551517"><ele>156.0</ele><time>2026-05-01T13:47:54.51Z</time></trkpt><trkpt lat="42.27838" lon="14.1551217"><ele>156.0</ele><time>2026-05-01T13:47:55.513Z</time></trkpt><trkpt lat="42.278455" lon="14.1550833"><ele>155.0</ele><time>2026-05-01T13:47:56.512Z</time></trkpt><trkpt lat="42.2785283" lon="14.15504"><ele>154.0</ele><time>2026-05-01T13:47:57.51Z</time></trkpt><trkpt lat="42.2786017" lon="14.1549933"><ele>153.0</ele><time>2026-05-01T13:47:58.509Z</time></trkpt><trkpt lat="42.2786717" lon="14.1549383"><ele>152.0</ele><time>2026-05-01T13:47:59.511Z</time></trkpt><trkpt lat="42.27875" lon="14.1548783"><ele>151.0</ele><time>2026-05-01T13:48:00.512Z</time></trkpt><trkpt lat="42.2788367" lon="14.154805"><ele>150.0</ele><time>2026-05-01T13:48:01.509Z</time></trkpt><trkpt lat="42.27894" lon="14.1547367"><ele>147.75</ele><time>2026-05-01T13:48:02.511Z</time></trkpt><trkpt lat="42.2790533" lon="14.15466"><ele>145.5</ele><time>2026-05-01T13:48:03.511Z</time></trkpt><trkpt lat="42.2791783" lon="14.154575"><ele>143.25</ele><time>2026-05-01T13:48:04.51Z</time></trkpt><trkpt lat="42.279295" lon="14.154505"><ele>141.0</ele><time>2026-05-01T13:48:05.51Z</time></trkpt><trkpt lat="42.2793933" lon="14.1544467"><ele>141.0</ele><time>2026-05-01T13:48:06.512Z</time></trkpt><trkpt lat="42.2794683" lon="14.1544033"><ele>141.0</ele><time>2026-05-01T13:48:07.511Z</time></trkpt><trkpt lat="42.2795367" lon="14.154345"><ele>141.0</ele><time>2026-05-01T13:48:08.509Z</time></trkpt><trkpt lat="42.27961" lon="14.1542967"><ele>141.0</ele><time>2026-05-01T13:48:09.511Z</time></trkpt><trkpt lat="42.2796933" lon="14.1542383"><ele>141.0</ele><time>2026-05-01T13:48:10.51Z</time></trkpt><trkpt lat="42.2797983" lon="14.1541867"><ele>141.5</ele><time>2026-05-01T13:48:11.513Z</time></trkpt><trkpt lat="42.279905" lon="14.1541317"><ele>142.0</ele><time>2026-05-01T13:48:12.509Z</time></trkpt><trkpt lat="42.2800167" lon="14.1540633"><ele>142.5</ele><time>2026-05-01T13:48:13.509Z</time></trkpt><trkpt lat="42.2801267" lon="14.1540067"><ele>143.0</ele><time>2026-05-01T13:48:14.51Z</time></trkpt><trkpt lat="42.2802333" lon="14.1539467"><ele>143.0</ele><time>2026-05-01T13:48:15.518Z</time></trkpt><trkpt lat="42.28033" lon="14.1538867"><ele>143.0</ele><time>2026-05-01T13:48:16.509Z</time></trkpt><trkpt lat="42.2804217" lon="14.1538233"><ele>143.0</ele><time>2026-05-01T13:48:17.512Z</time></trkpt><trkpt lat="42.2805217" lon="14.153765"><ele>143.0</ele><time>2026-05-01T13:48:18.513Z</time></trkpt><trkpt lat="42.2806383" lon="14.153715"><ele>143.0</ele><time>2026-05-01T13:48:19.513Z</time></trkpt><trkpt lat="42.2807533" lon="14.1536717"><ele>141.33333333333331</ele><time>2026-05-01T13:48:20.512Z</time></trkpt><trkpt lat="42.280855" lon="14.1536383"><ele>139.66666666666666</ele><time>2026-05-01T13:48:21.511Z</time></trkpt><trkpt lat="42.280945" lon="14.153605"><ele>138.0</ele><time>2026-05-01T13:48:22.514Z</time></trkpt><trkpt lat="42.2810233" lon="14.1535733"><ele>136.33333333333334</ele><time>2026-05-01T13:48:23.513Z</time></trkpt><trkpt lat="42.2810983" lon="14.1535433"><ele>134.66666666666669</ele><time>2026-05-01T13:48:24.51Z</time></trkpt><trkpt lat="42.2811667" lon="14.1535217"><ele>133.0</ele><time>2026-05-01T13:48:25.509Z</time></trkpt><trkpt lat="42.2812317" lon="14.15352"><ele>133.0</ele><time>2026-05-01T13:48:26.511Z</time></trkpt><trkpt lat="42.28135" lon="14.1534917"><ele>133.0</ele><time>2026-05-01T13:48:28.509Z</time></trkpt><trkpt lat="42.2814583" lon="14.153405"><ele>133.0</ele><time>2026-05-01T13:48:30.512Z</time></trkpt><trkpt lat="42.28151" lon="14.15334"><ele>133.0</ele><time>2026-05-01T13:48:31.516Z</time></trkpt><trkpt lat="42.28157" lon="14.1532683"><ele>133.0</ele><time>2026-05-01T13:48:32.511Z</time></trkpt><trkpt lat="42.2816483" lon="14.153205"><ele>130.83333333333334</ele><time>2026-05-01T13:48:33.511Z</time></trkpt><trkpt lat="42.2817317" lon="14.153165"><ele>128.66666666666669</ele><time>2026-05-01T13:48:34.51Z</time></trkpt><trkpt lat="42.2818083" lon="14.1531233"><ele>126.5</ele><time>2026-05-01T13:48:35.509Z</time></trkpt><trkpt lat="42.2818883" lon="14.1531067"><ele>124.33333333333334</ele><time>2026-05-01T13:48:36.512Z</time></trkpt><trkpt lat="42.2819633" lon="14.1530783"><ele>122.16666666666667</ele><time>2026-05-01T13:48:37.512Z</time></trkpt><trkpt lat="42.2820217" lon="14.153045"><ele>120.0</ele><time>2026-05-01T13:48:38.511Z</time></trkpt><trkpt lat="42.2821083" lon="14.15302"><ele>120.0</ele><time>2026-05-01T13:48:39.513Z</time></trkpt><trkpt lat="42.282195" lon="14.1529917"><ele>120.0</ele><time>2026-05-01T13:48:40.512Z</time></trkpt><trkpt lat="42.2822667" lon="14.1529733"><ele>120.0</ele><time>2026-05-01T13:48:41.512Z</time></trkpt><trkpt lat="42.2823717" lon="14.1529683"><ele>120.0</ele><time>2026-05-01T13:48:43.512Z</time></trkpt><trkpt lat="42.28244" lon="14.1529517"><ele>120.0</ele><time>2026-05-01T13:48:48.511Z</time></trkpt><trkpt lat="42.282465" lon="14.15287"><ele>120.0</ele><time>2026-05-01T13:48:52.511Z</time></trkpt><trkpt lat="42.2824667" lon="14.1527833"><ele>119.83333333333333</ele><time>2026-05-01T13:48:54.51Z</time></trkpt><trkpt lat="42.2824383" lon="14.152685"><ele>119.66666666666666</ele><time>2026-05-01T13:48:57.51Z</time></trkpt><trkpt lat="42.2824217" lon="14.1525667"><ele>119.5</ele><time>2026-05-01T13:49:04.512Z</time></trkpt><trkpt lat="42.2824017" lon="14.152485"><ele>119.33333333333333</ele><time>2026-05-01T13:49:05.51Z</time></trkpt><trkpt lat="42.28238" lon="14.152395"><ele>119.16666666666666</ele><time>2026-05-01T13:49:06.515Z</time></trkpt><trkpt lat="42.2823533" lon="14.1523133"><ele>119.0</ele><time>2026-05-01T13:49:07.512Z</time></trkpt><trkpt lat="42.2823133" lon="14.1521967"><ele>119.0</ele><time>2026-05-01T13:49:09.512Z</time></trkpt><trkpt lat="42.2823683" lon="14.15211"><ele>119.0</ele><time>2026-05-01T13:49:12.515Z</time></trkpt><trkpt lat="42.2824933" lon="14.1520967"><ele>119.0</ele><time>2026-05-01T13:49:14.512Z</time></trkpt><trkpt lat="42.282595" lon="14.1520983"><ele>119.0</ele><time>2026-05-01T13:49:15.509Z</time></trkpt><trkpt lat="42.2827117" lon="14.152095"><ele>119.0</ele><time>2026-05-01T13:49:16.509Z</time></trkpt><trkpt lat="42.2828133" lon="14.1520917"><ele>118.99999999999999</ele><time>2026-05-01T13:49:17.516Z</time></trkpt><trkpt lat="42.2829017" lon="14.1520783"><ele>119.0</ele><time>2026-05-01T13:49:18.512Z</time></trkpt><trkpt lat="42.2829683" lon="14.1520233"><ele>119.0</ele><time>2026-05-01T13:49:19.511Z</time></trkpt><trkpt lat="42.28302" lon="14.1519467"><ele>119.0</ele><time>2026-05-01T13:49:20.514Z</time></trkpt><trkpt lat="42.2830567" lon="14.1518517"><ele>118.99999999999999</ele><time>2026-05-01T13:49:21.512Z</time></trkpt><trkpt lat="42.2830733" lon="14.1517367"><ele>119.0</ele><time>2026-05-01T13:49:22.511Z</time></trkpt><trkpt lat="42.2830933" lon="14.1516183"><ele>121.99999999999999</ele><time>2026-05-01T13:49:23.514Z</time></trkpt><trkpt lat="42.283115" lon="14.1514983"><ele>125.0</ele><time>2026-05-01T13:49:24.52Z</time></trkpt><trkpt lat="42.283135" lon="14.1513917"><ele>128.0</ele><time>2026-05-01T13:49:25.512Z</time></trkpt><trkpt lat="42.283155" lon="14.15131"><ele>131.0</ele><time>2026-05-01T13:49:26.514Z</time></trkpt><trkpt lat="42.28318" lon="14.1512117"><ele>134.0</ele><time>2026-05-01T13:49:28.511Z</time></trkpt><trkpt lat="42.283195" lon="14.151125"><ele>137.0</ele><time>2026-05-01T13:49:31.512Z</time></trkpt><trkpt lat="42.2831667" lon="14.1510317"><ele>137.0</ele><time>2026-05-01T13:49:35.514Z</time></trkpt><trkpt lat="42.2831283" lon="14.1509217"><ele>137.0</ele><time>2026-05-01T13:49:39.51Z</time></trkpt><trkpt lat="42.2831083" lon="14.1507767"><ele>137.0</ele><time>2026-05-01T13:49:41.51Z</time></trkpt><trkpt lat="42.2830717" lon="14.1506483"><ele>137.0</ele><time>2026-05-01T13:49:43.511Z</time></trkpt><trkpt lat="42.2830217" lon="14.1505333"><ele>137.0</ele><time>2026-05-01T13:49:45.512Z</time></trkpt><trkpt lat="42.282975" lon="14.1504283"><ele>137.66666666666666</ele><time>2026-05-01T13:49:47.513Z</time></trkpt><trkpt lat="42.282945" lon="14.15033"><ele>138.33333333333331</ele><time>2026-05-01T13:49:49.508Z</time></trkpt><trkpt lat="42.2829267" lon="14.1502317"><ele>139.0</ele><time>2026-05-01T13:49:51.516Z</time></trkpt><trkpt lat="42.2829167" lon="14.1501333"><ele>139.66666666666666</ele><time>2026-05-01T13:49:53.509Z</time></trkpt><trkpt lat="42.2829083" lon="14.1500333"><ele>140.33333333333334</ele><time>2026-05-01T13:49:55.509Z</time></trkpt><trkpt lat="42.2829067" lon="14.149925"><ele>141.0</ele><time>2026-05-01T13:49:57.51Z</time></trkpt><trkpt lat="42.2829117" lon="14.1498117"><ele>141.0</ele><time>2026-05-01T13:49:59.512Z</time></trkpt><trkpt lat="42.2829283" lon="14.14971"><ele>141.0</ele><time>2026-05-01T13:50:01.512Z</time></trkpt><trkpt lat="42.282915" lon="14.1496233"><ele>141.0</ele><time>2026-05-01T13:50:10.51Z</time></trkpt><trkpt lat="42.2829183" lon="14.14971"><ele>141.0</ele><time>2026-05-01T13:50:52.511Z</time></trkpt><trkpt lat="42.2829017" lon="14.1498317"><ele>141.0</ele><time>2026-05-01T13:50:55.511Z</time></trkpt><trkpt lat="42.282895" lon="14.1499383"><ele>141.0</ele><time>2026-05-01T13:50:57.51Z</time></trkpt><trkpt lat="42.28289" lon="14.1500333"><ele>141.0</ele><time>2026-05-01T13:50:59.51Z</time></trkpt><trkpt lat="42.2828917" lon="14.1501267"><ele>139.2</ele><time>2026-05-01T13:51:01.516Z</time></trkpt><trkpt lat="42.2829017" lon="14.1502417"><ele>137.39999999999998</ele><time>2026-05-01T13:51:03.512Z</time></trkpt><trkpt lat="42.2829383" lon="14.1503867"><ele>135.6</ele><time>2026-05-01T13:51:05.512Z</time></trkpt><trkpt lat="42.2829933" lon="14.1505167"><ele>133.79999999999998</ele><time>2026-05-01T13:51:07.518Z</time></trkpt><trkpt lat="42.2830417" lon="14.1506233"><ele>132.0</ele><time>2026-05-01T13:51:09.511Z</time></trkpt><trkpt lat="42.2830817" lon="14.1507217"><ele>130.5</ele><time>2026-05-01T13:51:11.511Z</time></trkpt><trkpt lat="42.283095" lon="14.1508333"><ele>129.0</ele><time>2026-05-01T13:51:13.51Z</time></trkpt><trkpt lat="42.2830933" lon="14.150925"><ele>127.5</ele><time>2026-05-01T13:51:15.517Z</time></trkpt><trkpt lat="42.2830417" lon="14.1509817"><ele>126.0</ele><time>2026-05-01T13:51:19.51Z</time></trkpt><trkpt lat="42.2829433" lon="14.1509233"><ele>124.5</ele><time>2026-05-01T13:51:21.51Z</time></trkpt><trkpt lat="42.2828617" lon="14.1508583"><ele>123.0</ele><time>2026-05-01T13:51:22.51Z</time></trkpt><trkpt lat="42.2827683" lon="14.150765"><ele>125.25</ele><time>2026-05-01T13:51:23.511Z</time></trkpt><trkpt lat="42.2826733" lon="14.15066"><ele>127.5</ele><time>2026-05-01T13:51:24.512Z</time></trkpt><trkpt lat="42.28258" lon="14.1505433"><ele>129.75</ele><time>2026-05-01T13:51:25.51Z</time></trkpt><trkpt lat="42.2824983" lon="14.1504233"><ele>132.0</ele><time>2026-05-01T13:51:26.511Z</time></trkpt><trkpt lat="42.2824267" lon="14.15029"><ele>132.0</ele><time>2026-05-01T13:51:27.512Z</time></trkpt><trkpt lat="42.2823583" lon="14.1501533"><ele>132.0</ele><time>2026-05-01T13:51:28.512Z</time></trkpt><trkpt lat="42.2822867" lon="14.15002"><ele>132.0</ele><time>2026-05-01T13:51:29.509Z</time></trkpt><trkpt lat="42.2822167" lon="14.1498933"><ele>132.0</ele><time>2026-05-01T13:51:30.509Z</time></trkpt><trkpt lat="42.28215" lon="14.1497767"><ele>130.4</ele><time>2026-05-01T13:51:31.509Z</time></trkpt><trkpt lat="42.2820867" lon="14.1496633"><ele>128.79999999999998</ele><time>2026-05-01T13:51:32.509Z</time></trkpt><trkpt lat="42.2820233" lon="14.1495467"><ele>127.2</ele><time>2026-05-01T13:51:33.512Z</time></trkpt><trkpt lat="42.28196" lon="14.1494183"><ele>125.6</ele><time>2026-05-01T13:51:34.509Z</time></trkpt><trkpt lat="42.2818983" lon="14.1492883"><ele>124.0</ele><time>2026-05-01T13:51:35.509Z</time></trkpt><trkpt lat="42.2818333" lon="14.1491533"><ele>125.0</ele><time>2026-05-01T13:51:36.509Z</time></trkpt><trkpt lat="42.281765" lon="14.1490117"><ele>126.0</ele><time>2026-05-01T13:51:37.509Z</time></trkpt><trkpt lat="42.2816917" lon="14.1488617"><ele>127.0</ele><time>2026-05-01T13:51:38.509Z</time></trkpt><trkpt lat="42.2816233" lon="14.1487"><ele>128.0</ele><time>2026-05-01T13:51:39.509Z</time></trkpt><trkpt lat="42.2815517" lon="14.148535"><ele>128.0</ele><time>2026-05-01T13:51:40.512Z</time></trkpt><trkpt lat="42.28148" lon="14.148365"><ele>128.0</ele><time>2026-05-01T13:51:41.516Z</time></trkpt><trkpt lat="42.2814017" lon="14.1481967"><ele>128.0</ele><time>2026-05-01T13:51:42.509Z</time></trkpt><trkpt lat="42.2813283" lon="14.14804"><ele>128.0</ele><time>2026-05-01T13:51:43.509Z</time></trkpt><trkpt lat="42.2812717" lon="14.1479133"><ele>126.99999999999999</ele><time>2026-05-01T13:51:44.514Z</time></trkpt><trkpt lat="42.2812283" lon="14.147825"><ele>126.0</ele><time>2026-05-01T13:51:45.51Z</time></trkpt><trkpt lat="42.28117" lon="14.147725"><ele>125.0</ele><time>2026-05-01T13:51:47.51Z</time></trkpt><trkpt lat="42.28118" lon="14.147635"><ele>124.0</ele><time>2026-05-01T13:51:51.513Z</time></trkpt><trkpt lat="42.2812433" lon="14.1475917"><ele>122.99999999999999</ele><time>2026-05-01T13:51:54.513Z</time></trkpt><trkpt lat="42.2813167" lon="14.1475183"><ele>122.0</ele><time>2026-05-01T13:51:56.513Z</time></trkpt><trkpt lat="42.281395" lon="14.1474217"><ele>123.49999999999999</ele><time>2026-05-01T13:51:58.511Z</time></trkpt><trkpt lat="42.28145" lon="14.1473367"><ele>125.0</ele><time>2026-05-01T13:52:00.511Z</time></trkpt><trkpt lat="42.2815" lon="14.1472183"><ele>126.5</ele><time>2026-05-01T13:52:02.511Z</time></trkpt><trkpt lat="42.2815317" lon="14.1471367"><ele>128.0</ele><time>2026-05-01T13:52:03.512Z</time></trkpt><trkpt lat="42.2815583" lon="14.14705"><ele>129.5</ele><time>2026-05-01T13:52:04.518Z</time></trkpt><trkpt lat="42.2815767" lon="14.1469133"><ele>131.0</ele><time>2026-05-01T13:52:06.512Z</time></trkpt><trkpt lat="42.2815483" lon="14.146805"><ele>131.0</ele><time>2026-05-01T13:52:08.513Z</time></trkpt><trkpt lat="42.2815383" lon="14.1466817"><ele>131.0</ele><time>2026-05-01T13:52:10.512Z</time></trkpt><trkpt lat="42.2815167" lon="14.1465283"><ele>131.0</ele><time>2026-05-01T13:52:12.512Z</time></trkpt><trkpt lat="42.2814983" lon="14.14644"><ele>131.0</ele><time>2026-05-01T13:52:13.512Z</time></trkpt><trkpt lat="42.2814767" lon="14.1463417"><ele>131.0</ele><time>2026-05-01T13:52:14.51Z</time></trkpt><trkpt lat="42.2814533" lon="14.1462467"><ele>131.0</ele><time>2026-05-01T13:52:15.513Z</time></trkpt><trkpt lat="42.28144" lon="14.14615"><ele>131.2</ele><time>2026-05-01T13:52:16.511Z</time></trkpt><trkpt lat="42.2814217" lon="14.14606"><ele>131.39999999999998</ele><time>2026-05-01T13:52:17.516Z</time></trkpt><trkpt lat="42.2814083" lon="14.14597"><ele>131.6</ele><time>2026-05-01T13:52:18.511Z</time></trkpt><trkpt lat="42.2813567" lon="14.1458383"><ele>131.79999999999998</ele><time>2026-05-01T13:52:20.511Z</time></trkpt><trkpt lat="42.2813167" lon="14.14572"><ele>132.0</ele><time>2026-05-01T13:52:22.516Z</time></trkpt><trkpt lat="42.281255" lon="14.145595"><ele>133.66666666666666</ele><time>2026-05-01T13:52:24.513Z</time></trkpt><trkpt lat="42.281215" lon="14.1455233"><ele>135.33333333333334</ele><time>2026-05-01T13:52:25.513Z</time></trkpt><trkpt lat="42.2811867" lon="14.1454433"><ele>137.0</ele><time>2026-05-01T13:52:26.512Z</time></trkpt><trkpt lat="42.281165" lon="14.1452883"><ele>138.66666666666669</ele><time>2026-05-01T13:52:28.512Z</time></trkpt><trkpt lat="42.2811717" lon="14.1452033"><ele>140.33333333333334</ele><time>2026-05-01T13:52:29.512Z</time></trkpt><trkpt lat="42.28118" lon="14.1451033"><ele>142.0</ele><time>2026-05-01T13:52:30.512Z</time></trkpt><trkpt lat="42.2811867" lon="14.144995"><ele>142.0</ele><time>2026-05-01T13:52:31.511Z</time></trkpt><trkpt lat="42.2812" lon="14.144885"><ele>142.0</ele><time>2026-05-01T13:52:32.511Z</time></trkpt><trkpt lat="42.2812083" lon="14.1447717"><ele>142.0</ele><time>2026-05-01T13:52:33.513Z</time></trkpt><trkpt lat="42.2812167" lon="14.14466"><ele>142.0</ele><time>2026-05-01T13:52:34.512Z</time></trkpt><trkpt lat="42.2812267" lon="14.1445533"><ele>142.0</ele><time>2026-05-01T13:52:35.509Z</time></trkpt><trkpt lat="42.281235" lon="14.1444583"><ele>142.0</ele><time>2026-05-01T13:52:36.511Z</time></trkpt><trkpt lat="42.281245" lon="14.14437"><ele>143.14285714285714</ele><time>2026-05-01T13:52:37.512Z</time></trkpt><trkpt lat="42.2812517" lon="14.14428"><ele>144.28571428571428</ele><time>2026-05-01T13:52:38.511Z</time></trkpt><trkpt lat="42.2812633" lon="14.14418"><ele>145.42857142857142</ele><time>2026-05-01T13:52:39.511Z</time></trkpt><trkpt lat="42.2812767" lon="14.144085"><ele>146.57142857142856</ele><time>2026-05-01T13:52:40.515Z</time></trkpt><trkpt lat="42.2812867" lon="14.143995"><ele>147.71428571428572</ele><time>2026-05-01T13:52:41.511Z</time></trkpt><trkpt lat="42.2812917" lon="14.1439"><ele>148.85714285714283</ele><time>2026-05-01T13:52:42.512Z</time></trkpt><trkpt lat="42.2813017" lon="14.1438133"><ele>150.0</ele><time>2026-05-01T13:52:43.51Z</time></trkpt><trkpt lat="42.2813083" lon="14.1436583"><ele>152.75</ele><time>2026-05-01T13:52:45.511Z</time></trkpt><trkpt lat="42.2813017" lon="14.1435017"><ele>155.5</ele><time>2026-05-01T13:52:47.511Z</time></trkpt><trkpt lat="42.281275" lon="14.14336"><ele>158.25</ele><time>2026-05-01T13:52:49.514Z</time></trkpt><trkpt lat="42.2812467" lon="14.143205"><ele>161.0</ele><time>2026-05-01T13:52:51.51Z</time></trkpt><trkpt lat="42.2812" lon="14.14306"><ele>162.8</ele><time>2026-05-01T13:52:53.515Z</time></trkpt><trkpt lat="42.28122" lon="14.1429433"><ele>164.60000000000002</ele><time>2026-05-01T13:52:55.511Z</time></trkpt><trkpt lat="42.28129" lon="14.142835"><ele>166.4</ele><time>2026-05-01T13:52:57.512Z</time></trkpt><trkpt lat="42.2813567" lon="14.14275"><ele>168.2</ele><time>2026-05-01T13:52:59.512Z</time></trkpt><trkpt lat="42.281435" lon="14.1426467"><ele>170.0</ele><time>2026-05-01T13:53:01.511Z</time></trkpt><trkpt lat="42.2815033" lon="14.1425433"><ele>170.0</ele><time>2026-05-01T13:53:03.513Z</time></trkpt><trkpt lat="42.28153" lon="14.1424533"><ele>170.0</ele><time>2026-05-01T13:53:05.511Z</time></trkpt><trkpt lat="42.2814783" lon="14.1423867"><ele>170.0</ele><time>2026-05-01T13:53:09.511Z</time></trkpt><trkpt lat="42.2814117" lon="14.1423733"><ele>170.0</ele><time>2026-05-01T13:53:11.511Z</time></trkpt><trkpt lat="42.28131" lon="14.1423467"><ele>170.0</ele><time>2026-05-01T13:53:13.511Z</time></trkpt><trkpt lat="42.2812483" lon="14.142325"><ele>170.0</ele><time>2026-05-01T13:53:14.511Z</time></trkpt><trkpt lat="42.2811333" lon="14.1422817"><ele>173.66666666666666</ele><time>2026-05-01T13:53:16.51Z</time></trkpt><trkpt lat="42.281075" lon="14.1422483"><ele>177.33333333333331</ele><time>2026-05-01T13:53:17.514Z</time></trkpt><trkpt lat="42.2809783" lon="14.1421717"><ele>181.0</ele><time>2026-05-01T13:53:19.516Z</time></trkpt><trkpt lat="42.2809217" lon="14.1420667"><ele>184.66666666666666</ele><time>2026-05-01T13:53:21.509Z</time></trkpt><trkpt lat="42.2808933" lon="14.1419233"><ele>188.33333333333334</ele><time>2026-05-01T13:53:23.512Z</time></trkpt><trkpt lat="42.2808767" lon="14.1418367"><ele>192.0</ele><time>2026-05-01T13:53:24.515Z</time></trkpt><trkpt lat="42.2808633" lon="14.1417433"><ele>192.0</ele><time>2026-05-01T13:53:25.511Z</time></trkpt><trkpt lat="42.28085" lon="14.14165"><ele>192.0</ele><time>2026-05-01T13:53:26.511Z</time></trkpt><trkpt lat="42.2808333" lon="14.141555"><ele>192.0</ele><time>2026-05-01T13:53:27.512Z</time></trkpt><trkpt lat="42.28082" lon="14.141465"><ele>192.0</ele><time>2026-05-01T13:53:28.509Z</time></trkpt><trkpt lat="42.2807917" lon="14.1413067"><ele>192.0</ele><time>2026-05-01T13:53:30.509Z</time></trkpt><trkpt lat="42.2807633" lon="14.1411433"><ele>192.0</ele><time>2026-05-01T13:53:32.514Z</time></trkpt><trkpt lat="42.28076" lon="14.1410017"><ele>192.0</ele><time>2026-05-01T13:53:34.511Z</time></trkpt><trkpt lat="42.2807933" lon="14.140925"><ele>192.0</ele><time>2026-05-01T13:53:36.511Z</time></trkpt><trkpt lat="42.2808617" lon="14.1408867"><ele>192.0</ele><time>2026-05-01T13:53:38.511Z</time></trkpt><trkpt lat="42.28094" lon="14.1408483"><ele>192.0</ele><time>2026-05-01T13:53:40.51Z</time></trkpt><trkpt lat="42.2810267" lon="14.1408117"><ele>192.0</ele><time>2026-05-01T13:53:42.511Z</time></trkpt><trkpt lat="42.2811217" lon="14.1407683"><ele>192.0</ele><time>2026-05-01T13:53:44.512Z</time></trkpt><trkpt lat="42.2812117" lon="14.14072"><ele>192.0</ele><time>2026-05-01T13:53:46.51Z</time></trkpt><trkpt lat="42.2813017" lon="14.1406767"><ele>192.0</ele><time>2026-05-01T13:53:48.516Z</time></trkpt><trkpt lat="42.281425" lon="14.1406267"><ele>192.0</ele><time>2026-05-01T13:53:50.511Z</time></trkpt><trkpt lat="42.2814933" lon="14.14059"><ele>192.0</ele><time>2026-05-01T13:53:51.51Z</time></trkpt><trkpt lat="42.281555" lon="14.1405533"><ele>195.39999999999998</ele><time>2026-05-01T13:53:52.51Z</time></trkpt><trkpt lat="42.2816483" lon="14.14047"><ele>198.79999999999998</ele><time>2026-05-01T13:53:54.51Z</time></trkpt><trkpt lat="42.2817383" lon="14.1403583"><ele>202.2</ele><time>2026-05-01T13:53:56.511Z</time></trkpt><trkpt lat="42.2817917" lon="14.1402867"><ele>205.6</ele><time>2026-05-01T13:53:57.511Z</time></trkpt><trkpt lat="42.2818467" lon="14.140215"><ele>209.0</ele><time>2026-05-01T13:53:58.511Z</time></trkpt><trkpt lat="42.2818917" lon="14.14015"><ele>209.0</ele><time>2026-05-01T13:53:59.513Z</time></trkpt><trkpt lat="42.28197" lon="14.14003"><ele>209.0</ele><time>2026-05-01T13:54:01.513Z</time></trkpt><trkpt lat="42.2820617" lon="14.13991"><ele>209.0</ele><time>2026-05-01T13:54:03.512Z</time></trkpt><trkpt lat="42.282115" lon="14.1398367"><ele>209.0</ele><time>2026-05-01T13:54:04.511Z</time></trkpt><trkpt lat="42.282175" lon="14.1397583"><ele>209.0</ele><time>2026-05-01T13:54:05.512Z</time></trkpt><trkpt lat="42.28224" lon="14.13968"><ele>209.79999999999998</ele><time>2026-05-01T13:54:06.513Z</time></trkpt><trkpt lat="42.282305" lon="14.13961"><ele>210.6</ele><time>2026-05-01T13:54:07.513Z</time></trkpt><trkpt lat="42.2823717" lon="14.1395417"><ele>211.4</ele><time>2026-05-01T13:54:08.517Z</time></trkpt><trkpt lat="42.282445" lon="14.1394633"><ele>212.2</ele><time>2026-05-01T13:54:09.511Z</time></trkpt><trkpt lat="42.282525" lon="14.1393667"><ele>213.0</ele><time>2026-05-01T13:54:10.513Z</time></trkpt><trkpt lat="42.2826083" lon="14.13925"><ele>213.0</ele><time>2026-05-01T13:54:11.511Z</time></trkpt><trkpt lat="42.2826967" lon="14.1391217"><ele>213.0</ele><time>2026-05-01T13:54:12.511Z</time></trkpt><trkpt lat="42.282785" lon="14.1389883"><ele>213.0</ele><time>2026-05-01T13:54:13.512Z</time></trkpt><trkpt lat="42.2828717" lon="14.138855"><ele>213.0</ele><time>2026-05-01T13:54:14.513Z</time></trkpt><trkpt lat="42.2829533" lon="14.1387233"><ele>213.8</ele><time>2026-05-01T13:54:15.511Z</time></trkpt><trkpt lat="42.28303" lon="14.1386067"><ele>214.60000000000002</ele><time>2026-05-01T13:54:16.51Z</time></trkpt><trkpt lat="42.2830983" lon="14.1385083"><ele>215.39999999999998</ele><time>2026-05-01T13:54:17.515Z</time></trkpt><trkpt lat="42.283165" lon="14.1384283"><ele>216.2</ele><time>2026-05-01T13:54:18.512Z</time></trkpt><trkpt lat="42.2832267" lon="14.13837"><ele>217.0</ele><time>2026-05-01T13:54:19.511Z</time></trkpt><trkpt lat="42.2833167" lon="14.1383"><ele>217.0</ele><time>2026-05-01T13:54:21.509Z</time></trkpt><trkpt lat="42.283285" lon="14.1382217"><ele>217.0</ele><time>2026-05-01T13:54:24.511Z</time></trkpt><trkpt lat="42.283155" lon="14.1381983"><ele>217.0</ele><time>2026-05-01T13:54:26.511Z</time></trkpt><trkpt lat="42.2830517" lon="14.1381717"><ele>217.0</ele><time>2026-05-01T13:54:27.511Z</time></trkpt><trkpt lat="42.282955" lon="14.138155"><ele>217.0</ele><time>2026-05-01T13:54:28.51Z</time></trkpt><trkpt lat="42.2828717" lon="14.1381433"><ele>214.33333333333331</ele><time>2026-05-01T13:54:29.51Z</time></trkpt><trkpt lat="42.2828067" lon="14.1381317"><ele>211.66666666666666</ele><time>2026-05-01T13:54:30.509Z</time></trkpt><trkpt lat="42.282715" lon="14.138095"><ele>209.0</ele><time>2026-05-01T13:54:32.512Z</time></trkpt><trkpt lat="42.2827117" lon="14.1379933"><ele>206.33333333333331</ele><time>2026-05-01T13:54:35.512Z</time></trkpt><trkpt lat="42.2827583" lon="14.137935"><ele>203.66666666666666</ele><time>2026-05-01T13:54:37.514Z</time></trkpt><trkpt lat="42.28284" lon="14.1378383"><ele>201.0</ele><time>2026-05-01T13:54:39.511Z</time></trkpt><trkpt lat="42.2828917" lon="14.1377417"><ele>201.0</ele><time>2026-05-01T13:54:41.51Z</time></trkpt><trkpt lat="42.28291" lon="14.1376167"><ele>201.0</ele><time>2026-05-01T13:54:43.511Z</time></trkpt><trkpt lat="42.282905" lon="14.1375017"><ele>201.0</ele><time>2026-05-01T13:54:45.512Z</time></trkpt><trkpt lat="42.2828633" lon="14.1373917"><ele>201.0</ele><time>2026-05-01T13:54:47.509Z</time></trkpt><trkpt lat="42.2828183" lon="14.13729"><ele>201.0</ele><time>2026-05-01T13:54:49.511Z</time></trkpt><trkpt lat="42.2827817" lon="14.1371783"><ele>201.0</ele><time>2026-05-01T13:54:51.51Z</time></trkpt><trkpt lat="42.2827567" lon="14.13703"><ele>202.20000000000002</ele><time>2026-05-01T13:54:53.509Z</time></trkpt><trkpt lat="42.2827467" lon="14.1369433"><ele>203.4</ele><time>2026-05-01T13:54:54.511Z</time></trkpt><trkpt lat="42.282735" lon="14.1367817"><ele>204.6</ele><time>2026-05-01T13:54:56.51Z</time></trkpt><trkpt lat="42.2827117" lon="14.136615"><ele>205.8</ele><time>2026-05-01T13:54:58.509Z</time></trkpt><trkpt lat="42.2826883" lon="14.13652"><ele>207.0</ele><time>2026-05-01T13:54:59.511Z</time></trkpt><trkpt lat="42.2826633" lon="14.136425"><ele>208.00000000000003</ele><time>2026-05-01T13:55:00.51Z</time></trkpt><trkpt lat="42.2826383" lon="14.1363367"><ele>209.0</ele><time>2026-05-01T13:55:01.51Z</time></trkpt><trkpt lat="42.28261" lon="14.1362517"><ele>210.0</ele><time>2026-05-01T13:55:02.509Z</time></trkpt><trkpt lat="42.2825667" lon="14.13617"><ele>211.0</ele><time>2026-05-01T13:55:03.51Z</time></trkpt><trkpt lat="42.2825167" lon="14.1360917"><ele>212.0</ele><time>2026-05-01T13:55:04.512Z</time></trkpt><trkpt lat="42.2824667" lon="14.13602"><ele>213.00000000000003</ele><time>2026-05-01T13:55:05.511Z</time></trkpt><trkpt lat="42.2824167" lon="14.13595"><ele>214.0</ele><time>2026-05-01T13:55:06.512Z</time></trkpt><trkpt lat="42.2823667" lon="14.13587"><ele>214.0</ele><time>2026-05-01T13:55:07.513Z</time></trkpt><trkpt lat="42.2823217" lon="14.1357733"><ele>213.99999999999997</ele><time>2026-05-01T13:55:08.511Z</time></trkpt><trkpt lat="42.2822867" lon="14.1356783"><ele>213.99999999999997</ele><time>2026-05-01T13:55:09.512Z</time></trkpt><trkpt lat="42.28225" lon="14.1355483"><ele>214.0</ele><time>2026-05-01T13:55:11.512Z</time></trkpt><trkpt lat="42.282225" lon="14.1353917"><ele>214.0</ele><time>2026-05-01T13:55:13.513Z</time></trkpt><trkpt lat="42.2822133" lon="14.1352833"><ele>214.2</ele><time>2026-05-01T13:55:14.516Z</time></trkpt><trkpt lat="42.2821967" lon="14.1351533"><ele>214.39999999999998</ele><time>2026-05-01T13:55:15.512Z</time></trkpt><trkpt lat="42.2821767" lon="14.135015"><ele>214.6</ele><time>2026-05-01T13:55:16.514Z</time></trkpt><trkpt lat="42.28216" lon="14.1348817"><ele>214.8</ele><time>2026-05-01T13:55:17.51Z</time></trkpt><trkpt lat="42.2821433" lon="14.1347517"><ele>215.0</ele><time>2026-05-01T13:55:18.509Z</time></trkpt><trkpt lat="42.2821267" lon="14.13462"><ele>215.0</ele><time>2026-05-01T13:55:19.51Z</time></trkpt><trkpt lat="42.2821067" lon="14.1344833"><ele>215.0</ele><time>2026-05-01T13:55:20.512Z</time></trkpt><trkpt lat="42.2820817" lon="14.1343517"><ele>215.0</ele><time>2026-05-01T13:55:21.509Z</time></trkpt><trkpt lat="42.2820567" lon="14.134225"><ele>215.0</ele><time>2026-05-01T13:55:22.51Z</time></trkpt><trkpt lat="42.2820383" lon="14.134095"><ele>215.0</ele><time>2026-05-01T13:55:23.517Z</time></trkpt><trkpt lat="42.2820183" lon="14.133965"><ele>216.0</ele><time>2026-05-01T13:55:24.512Z</time></trkpt><trkpt lat="42.282" lon="14.1338333"><ele>217.0</ele><time>2026-05-01T13:55:25.514Z</time></trkpt><trkpt lat="42.2819817" lon="14.1336967"><ele>218.0</ele><time>2026-05-01T13:55:26.515Z</time></trkpt><trkpt lat="42.2819717" lon="14.1335783"><ele>219.0</ele><time>2026-05-01T13:55:27.512Z</time></trkpt><trkpt lat="42.281965" lon="14.1334833"><ele>220.0</ele><time>2026-05-01T13:55:28.519Z</time></trkpt><trkpt lat="42.2819367" lon="14.1333367"><ele>220.0</ele><time>2026-05-01T13:55:30.514Z</time></trkpt><trkpt lat="42.2818633" lon="14.1332617"><ele>220.0</ele><time>2026-05-01T13:55:32.512Z</time></trkpt><trkpt lat="42.281745" lon="14.1332"><ele>220.0</ele><time>2026-05-01T13:55:34.514Z</time></trkpt><trkpt lat="42.2816883" lon="14.1331483"><ele>220.0</ele><time>2026-05-01T13:55:35.511Z</time></trkpt><trkpt lat="42.2815983" lon="14.1330517"><ele>220.0</ele><time>2026-05-01T13:55:37.511Z</time></trkpt><trkpt lat="42.28148" lon="14.1330283"><ele>220.66666666666666</ele><time>2026-05-01T13:55:39.511Z</time></trkpt><trkpt lat="42.2814017" lon="14.1330483"><ele>221.33333333333331</ele><time>2026-05-01T13:55:40.514Z</time></trkpt><trkpt lat="42.2813133" lon="14.1330683"><ele>222.0</ele><time>2026-05-01T13:55:41.511Z</time></trkpt><trkpt lat="42.281215" lon="14.1330933"><ele>222.66666666666669</ele><time>2026-05-01T13:55:42.511Z</time></trkpt><trkpt lat="42.2811217" lon="14.1331233"><ele>223.33333333333334</ele><time>2026-05-01T13:55:43.512Z</time></trkpt><trkpt lat="42.2810417" lon="14.1331467"><ele>224.0</ele><time>2026-05-01T13:55:44.512Z</time></trkpt><trkpt lat="42.2809283" lon="14.1331767"><ele>224.0</ele><time>2026-05-01T13:55:46.515Z</time></trkpt><trkpt lat="42.2808317" lon="14.13313"><ele>223.99999999999997</ele><time>2026-05-01T13:55:48.51Z</time></trkpt><trkpt lat="42.2807617" lon="14.1330533"><ele>223.99999999999997</ele><time>2026-05-01T13:55:49.511Z</time></trkpt><trkpt lat="42.2806867" lon="14.13297"><ele>224.0</ele><time>2026-05-01T13:55:50.513Z</time></trkpt><trkpt lat="42.2806117" lon="14.1329033"><ele>224.0</ele><time>2026-05-01T13:55:51.51Z</time></trkpt><trkpt lat="42.2805333" lon="14.1328533"><ele>222.6</ele><time>2026-05-01T13:55:52.517Z</time></trkpt><trkpt lat="42.2804483" lon="14.1328117"><ele>221.2</ele><time>2026-05-01T13:55:53.51Z</time></trkpt><trkpt lat="42.280355" lon="14.13276"><ele>219.79999999999998</ele><time>2026-05-01T13:55:54.509Z</time></trkpt><trkpt lat="42.2802567" lon="14.1327017"><ele>218.39999999999998</ele><time>2026-05-01T13:55:55.513Z</time></trkpt><trkpt lat="42.2801683" lon="14.13265"><ele>217.0</ele><time>2026-05-01T13:55:56.511Z</time></trkpt><trkpt lat="42.2800883" lon="14.1326033"><ele>217.0</ele><time>2026-05-01T13:55:57.513Z</time></trkpt><trkpt lat="42.28002" lon="14.1325533"><ele>217.0</ele><time>2026-05-01T13:55:58.511Z</time></trkpt><trkpt lat="42.27996" lon="14.1325117"><ele>217.0</ele><time>2026-05-01T13:55:59.513Z</time></trkpt><trkpt lat="42.279865" lon="14.1324383"><ele>217.0</ele><time>2026-05-01T13:56:01.509Z</time></trkpt><trkpt lat="42.2798217" lon="14.132325"><ele>217.0</ele><time>2026-05-01T13:56:03.509Z</time></trkpt><trkpt lat="42.2797867" lon="14.1321567"><ele>217.99999999999997</ele><time>2026-05-01T13:56:05.509Z</time></trkpt><trkpt lat="42.27975" lon="14.13204"><ele>219.0</ele><time>2026-05-01T13:56:06.509Z</time></trkpt><trkpt lat="42.27972" lon="14.13193"><ele>220.0</ele><time>2026-05-01T13:56:07.509Z</time></trkpt><trkpt lat="42.2796983" lon="14.13183"><ele>221.0</ele><time>2026-05-01T13:56:08.509Z</time></trkpt><trkpt lat="42.279685" lon="14.131735"><ele>221.99999999999997</ele><time>2026-05-01T13:56:09.509Z</time></trkpt><trkpt lat="42.2796617" lon="14.1315867"><ele>223.0</ele><time>2026-05-01T13:56:11.51Z</time></trkpt><trkpt lat="42.27969" lon="14.131505"><ele>227.2</ele><time>2026-05-01T13:56:13.51Z</time></trkpt><trkpt lat="42.2798" lon="14.1314933"><ele>231.4</ele><time>2026-05-01T13:56:16.508Z</time></trkpt><trkpt lat="42.27987" lon="14.1315033"><ele>235.59999999999997</ele><time>2026-05-01T13:56:17.511Z</time></trkpt><trkpt lat="42.2799567" lon="14.1315167"><ele>239.79999999999998</ele><time>2026-05-01T13:56:18.508Z</time></trkpt><trkpt lat="42.2800483" lon="14.1315233"><ele>244.0</ele><time>2026-05-01T13:56:19.51Z</time></trkpt><trkpt lat="42.2801383" lon="14.1315217"><ele>244.0</ele><time>2026-05-01T13:56:20.508Z</time></trkpt><trkpt lat="42.28023" lon="14.1315167"><ele>243.99999999999997</ele><time>2026-05-01T13:56:21.509Z</time></trkpt><trkpt lat="42.2803217" lon="14.1314933"><ele>243.99999999999997</ele><time>2026-05-01T13:56:22.51Z</time></trkpt><trkpt lat="42.2804183" lon="14.1314767"><ele>244.0</ele><time>2026-05-01T13:56:23.51Z</time></trkpt><trkpt lat="42.2805233" lon="14.1314517"><ele>244.0</ele><time>2026-05-01T13:56:24.509Z</time></trkpt><trkpt lat="42.2806233" lon="14.1314083"><ele>243.6</ele><time>2026-05-01T13:56:25.51Z</time></trkpt><trkpt lat="42.2807117" lon="14.1313583"><ele>243.2</ele><time>2026-05-01T13:56:26.509Z</time></trkpt><trkpt lat="42.28078" lon="14.1312683"><ele>242.79999999999998</ele><time>2026-05-01T13:56:27.509Z</time></trkpt><trkpt lat="42.2808283" lon="14.1311317"><ele>242.39999999999998</ele><time>2026-05-01T13:56:28.51Z</time></trkpt><trkpt lat="42.28088" lon="14.1309633"><ele>242.0</ele><time>2026-05-01T13:56:29.512Z</time></trkpt><trkpt lat="42.2809467" lon="14.1307633"><ele>243.5</ele><time>2026-05-01T13:56:30.511Z</time></trkpt><trkpt lat="42.2809883" lon="14.13056"><ele>245.0</ele><time>2026-05-01T13:56:31.51Z</time></trkpt><trkpt lat="42.2810167" lon="14.1303783"><ele>246.5</ele><time>2026-05-01T13:56:32.512Z</time></trkpt><trkpt lat="42.2810267" lon="14.130235"><ele>248.0</ele><time>2026-05-01T13:56:33.511Z</time></trkpt><trkpt lat="42.2810183" lon="14.130115"><ele>248.00000000000003</ele><time>2026-05-01T13:56:34.511Z</time></trkpt><trkpt lat="42.2809883" lon="14.13001"><ele>248.0</ele><time>2026-05-01T13:56:35.51Z</time></trkpt><trkpt lat="42.2809433" lon="14.1299133"><ele>248.0</ele><time>2026-05-01T13:56:36.512Z</time></trkpt><trkpt lat="42.2808733" lon="14.1298717"><ele>248.0</ele><time>2026-05-01T13:56:37.511Z</time></trkpt><trkpt lat="42.2807967" lon="14.1298667"><ele>248.00000000000003</ele><time>2026-05-01T13:56:38.513Z</time></trkpt><trkpt lat="42.28071" lon="14.129905"><ele>248.0</ele><time>2026-05-01T13:56:39.511Z</time></trkpt><trkpt lat="42.2806117" lon="14.1300317"><ele>249.5</ele><time>2026-05-01T13:56:40.516Z</time></trkpt><trkpt lat="42.2805017" lon="14.13017"><ele>251.0</ele><time>2026-05-01T13:56:41.512Z</time></trkpt><trkpt lat="42.2803917" lon="14.1303033"><ele>252.5</ele><time>2026-05-01T13:56:42.511Z</time></trkpt><trkpt lat="42.2802833" lon="14.1304033"><ele>254.0</ele><time>2026-05-01T13:56:43.511Z</time></trkpt><trkpt lat="42.28018" lon="14.130465"><ele>254.0</ele><time>2026-05-01T13:56:44.511Z</time></trkpt><trkpt lat="42.2800717" lon="14.1304817"><ele>254.0</ele><time>2026-05-01T13:56:45.508Z</time></trkpt><trkpt lat="42.279965" lon="14.1304517"><ele>254.0</ele><time>2026-05-01T13:56:46.509Z</time></trkpt><trkpt lat="42.2798517" lon="14.1303817"><ele>254.0</ele><time>2026-05-01T13:56:47.508Z</time></trkpt><trkpt lat="42.2797267" lon="14.1303067"><ele>253.6</ele><time>2026-05-01T13:56:48.509Z</time></trkpt><trkpt lat="42.2796017" lon="14.1302283"><ele>253.2</ele><time>2026-05-01T13:56:49.515Z</time></trkpt><trkpt lat="42.2794967" lon="14.130165"><ele>252.79999999999998</ele><time>2026-05-01T13:56:50.513Z</time></trkpt><trkpt lat="42.2794067" lon="14.1300967"><ele>252.39999999999998</ele><time>2026-05-01T13:56:51.51Z</time></trkpt><trkpt lat="42.279335" lon="14.1300283"><ele>252.0</ele><time>2026-05-01T13:56:52.51Z</time></trkpt><trkpt lat="42.2792883" lon="14.129945"><ele>254.16666666666666</ele><time>2026-05-01T13:56:53.512Z</time></trkpt><trkpt lat="42.27927" lon="14.1298617"><ele>256.3333333333333</ele><time>2026-05-01T13:56:54.512Z</time></trkpt><trkpt lat="42.27927" lon="14.1297517"><ele>258.5</ele><time>2026-05-01T13:56:56.508Z</time></trkpt><trkpt lat="42.2792983" lon="14.1296667"><ele>260.66666666666663</ele><time>2026-05-01T13:56:58.51Z</time></trkpt><trkpt lat="42.2793767" lon="14.129605"><ele>262.8333333333333</ele><time>2026-05-01T13:57:00.511Z</time></trkpt><trkpt lat="42.27951" lon="14.1295767"><ele>265.0</ele><time>2026-05-01T13:57:02.51Z</time></trkpt><trkpt lat="42.2795883" lon="14.1295767"><ele>265.0</ele><time>2026-05-01T13:57:03.517Z</time></trkpt><trkpt lat="42.2796683" lon="14.1295633"><ele>265.0</ele><time>2026-05-01T13:57:04.512Z</time></trkpt><trkpt lat="42.2797467" lon="14.1295167"><ele>265.0</ele><time>2026-05-01T13:57:05.511Z</time></trkpt><trkpt lat="42.2798233" lon="14.1294517"><ele>265.0</ele><time>2026-05-01T13:57:06.509Z</time></trkpt><trkpt lat="42.2798917" lon="14.12935"><ele>265.0</ele><time>2026-05-01T13:57:07.508Z</time></trkpt><trkpt lat="42.2799433" lon="14.1292133"><ele>263.75</ele><time>2026-05-01T13:57:08.513Z</time></trkpt><trkpt lat="42.28" lon="14.1290683"><ele>262.5</ele><time>2026-05-01T13:57:09.511Z</time></trkpt><trkpt lat="42.2800617" lon="14.1289133"><ele>261.25</ele><time>2026-05-01T13:57:10.518Z</time></trkpt><trkpt lat="42.2801233" lon="14.1287533"><ele>260.0</ele><time>2026-05-01T13:57:11.514Z</time></trkpt><trkpt lat="42.280185" lon="14.1285933"><ele>262.2</ele><time>2026-05-01T13:57:12.511Z</time></trkpt><trkpt lat="42.28024" lon="14.1284533"><ele>264.4</ele><time>2026-05-01T13:57:13.511Z</time></trkpt><trkpt lat="42.280305" lon="14.128335"><ele>266.6</ele><time>2026-05-01T13:57:14.511Z</time></trkpt><trkpt lat="42.2803867" lon="14.1282383"><ele>268.8</ele><time>2026-05-01T13:57:15.515Z</time></trkpt><trkpt lat="42.2804883" lon="14.1281667"><ele>271.0</ele><time>2026-05-01T13:57:16.51Z</time></trkpt><trkpt lat="42.2806033" lon="14.1281133"><ele>272.2</ele><time>2026-05-01T13:57:17.509Z</time></trkpt><trkpt lat="42.2807183" lon="14.12805"><ele>273.40000000000003</ele><time>2026-05-01T13:57:18.51Z</time></trkpt><trkpt lat="42.28083" lon="14.1279867"><ele>274.6</ele><time>2026-05-01T13:57:19.509Z</time></trkpt><trkpt lat="42.2809217" lon="14.127925"><ele>275.8</ele><time>2026-05-01T13:57:20.511Z</time></trkpt><trkpt lat="42.28099" lon="14.127855"><ele>277.0</ele><time>2026-05-01T13:57:21.508Z</time></trkpt><trkpt lat="42.2810333" lon="14.127765"><ele>277.0</ele><time>2026-05-01T13:57:22.509Z</time></trkpt><trkpt lat="42.2810617" lon="14.1276717"><ele>277.0</ele><time>2026-05-01T13:57:23.508Z</time></trkpt><trkpt lat="42.28107" lon="14.1275733"><ele>277.0</ele><time>2026-05-01T13:57:24.51Z</time></trkpt><trkpt lat="42.2810433" lon="14.127475"><ele>277.0</ele><time>2026-05-01T13:57:25.508Z</time></trkpt><trkpt lat="42.2809983" lon="14.1273967"><ele>277.0</ele><time>2026-05-01T13:57:26.51Z</time></trkpt><trkpt lat="42.2809317" lon="14.127335"><ele>277.0</ele><time>2026-05-01T13:57:27.509Z</time></trkpt><trkpt lat="42.2808383" lon="14.1273017"><ele>279.75</ele><time>2026-05-01T13:57:28.511Z</time></trkpt><trkpt lat="42.280725" lon="14.1273083"><ele>282.5</ele><time>2026-05-01T13:57:29.509Z</time></trkpt><trkpt lat="42.2805933" lon="14.1273383"><ele>285.25</ele><time>2026-05-01T13:57:30.51Z</time></trkpt><trkpt lat="42.2804517" lon="14.12735"><ele>288.0</ele><time>2026-05-01T13:57:31.51Z</time></trkpt><trkpt lat="42.2802967" lon="14.1273517"><ele>288.0</ele><time>2026-05-01T13:57:32.511Z</time></trkpt><trkpt lat="42.2801283" lon="14.127365"><ele>288.0</ele><time>2026-05-01T13:57:33.51Z</time></trkpt><trkpt lat="42.2799517" lon="14.1273867"><ele>288.0</ele><time>2026-05-01T13:57:34.509Z</time></trkpt><trkpt lat="42.279775" lon="14.1274067"><ele>286.0</ele><time>2026-05-01T13:57:35.511Z</time></trkpt><trkpt lat="42.2795917" lon="14.1274283"><ele>284.0</ele><time>2026-05-01T13:57:36.512Z</time></trkpt><trkpt lat="42.2794083" lon="14.12745"><ele>282.0</ele><time>2026-05-01T13:57:37.512Z</time></trkpt><trkpt lat="42.27923" lon="14.12747"><ele>282.0</ele><time>2026-05-01T13:57:38.516Z</time></trkpt><trkpt lat="42.2790617" lon="14.12749"><ele>282.0</ele><time>2026-05-01T13:57:39.511Z</time></trkpt><trkpt lat="42.2789083" lon="14.127505"><ele>282.0</ele><time>2026-05-01T13:57:40.51Z</time></trkpt><trkpt lat="42.27877" lon="14.12751"><ele>282.5</ele><time>2026-05-01T13:57:41.509Z</time></trkpt><trkpt lat="42.27865" lon="14.127485"><ele>283.0</ele><time>2026-05-01T13:57:42.51Z</time></trkpt><trkpt lat="42.2785533" lon="14.1274083"><ele>283.5</ele><time>2026-05-01T13:57:43.511Z</time></trkpt><trkpt lat="42.2784767" lon="14.1273017"><ele>284.0</ele><time>2026-05-01T13:57:44.512Z</time></trkpt><trkpt lat="42.2784283" lon="14.1271683"><ele>284.6666666666667</ele><time>2026-05-01T13:57:45.518Z</time></trkpt><trkpt lat="42.2784067" lon="14.1270467"><ele>285.33333333333337</ele><time>2026-05-01T13:57:46.511Z</time></trkpt><trkpt lat="42.2784033" lon="14.126935"><ele>286.0</ele><time>2026-05-01T13:57:47.512Z</time></trkpt><trkpt lat="42.2784083" lon="14.1268317"><ele>286.6666666666667</ele><time>2026-05-01T13:57:48.512Z</time></trkpt><trkpt lat="42.2784233" lon="14.1267433"><ele>287.3333333333333</ele><time>2026-05-01T13:57:49.512Z</time></trkpt><trkpt lat="42.27849" lon="14.1266267"><ele>288.0</ele><time>2026-05-01T13:57:51.512Z</time></trkpt><trkpt lat="42.2785817" lon="14.1265717"><ele>289.6</ele><time>2026-05-01T13:57:53.512Z</time></trkpt><trkpt lat="42.278675" lon="14.1265417"><ele>291.20000000000005</ele><time>2026-05-01T13:57:55.51Z</time></trkpt><trkpt lat="42.278765" lon="14.1265233"><ele>292.8</ele><time>2026-05-01T13:57:57.51Z</time></trkpt><trkpt lat="42.278855" lon="14.1265117"><ele>294.40000000000003</ele><time>2026-05-01T13:57:59.51Z</time></trkpt><trkpt lat="42.2789517" lon="14.1264933"><ele>296.0</ele><time>2026-05-01T13:58:01.509Z</time></trkpt><trkpt lat="42.2790267" lon="14.1264767"><ele>296.0</ele><time>2026-05-01T13:58:03.507Z</time></trkpt><trkpt lat="42.2789133" lon="14.1264633"><ele>296.0</ele><time>2026-05-01T13:58:08.511Z</time></trkpt><trkpt lat="42.2788167" lon="14.126495"><ele>296.0</ele><time>2026-05-01T13:58:09.509Z</time></trkpt><trkpt lat="42.278695" lon="14.12653"><ele>296.0</ele><time>2026-05-01T13:58:10.508Z</time></trkpt><trkpt lat="42.27859" lon="14.1265933"><ele>294.6666666666667</ele><time>2026-05-01T13:58:11.509Z</time></trkpt><trkpt lat="42.2785117" lon="14.1266867"><ele>293.33333333333337</ele><time>2026-05-01T13:58:12.512Z</time></trkpt><trkpt lat="42.2784617" lon="14.126795"><ele>292.0</ele><time>2026-05-01T13:58:13.51Z</time></trkpt><trkpt lat="42.2784183" lon="14.1268933"><ele>290.6666666666667</ele><time>2026-05-01T13:58:14.51Z</time></trkpt><trkpt lat="42.278385" lon="14.1269833"><ele>289.3333333333333</ele><time>2026-05-01T13:58:15.512Z</time></trkpt><trkpt lat="42.2783867" lon="14.1270833"><ele>288.0</ele><time>2026-05-01T13:58:16.513Z</time></trkpt><trkpt lat="42.2784" lon="14.12717"><ele>288.0</ele><time>2026-05-01T13:58:17.511Z</time></trkpt><trkpt lat="42.2784567" lon="14.1273317"><ele>288.0</ele><time>2026-05-01T13:58:19.512Z</time></trkpt><trkpt lat="42.2785067" lon="14.1274033"><ele>288.0</ele><time>2026-05-01T13:58:20.512Z</time></trkpt><trkpt lat="42.2785633" lon="14.1274567"><ele>288.0</ele><time>2026-05-01T13:58:21.515Z</time></trkpt><trkpt lat="42.2786233" lon="14.1275"><ele>288.0</ele><time>2026-05-01T13:58:22.511Z</time></trkpt><trkpt lat="42.2786883" lon="14.1275283"><ele>288.0</ele><time>2026-05-01T13:58:23.512Z</time></trkpt><trkpt lat="42.2787583" lon="14.127535"><ele>287.2</ele><time>2026-05-01T13:58:24.516Z</time></trkpt><trkpt lat="42.2788767" lon="14.1275233"><ele>286.4</ele><time>2026-05-01T13:58:26.512Z</time></trkpt><trkpt lat="42.278955" lon="14.1275217"><ele>285.59999999999997</ele><time>2026-05-01T13:58:28.511Z</time></trkpt><trkpt lat="42.2790233" lon="14.127535"><ele>284.8</ele><time>2026-05-01T13:58:30.512Z</time></trkpt><trkpt lat="42.279105" lon="14.1275133"><ele>284.0</ele><time>2026-05-01T13:58:32.514Z</time></trkpt><trkpt lat="42.2792167" lon="14.1275083"><ele>284.0</ele><time>2026-05-01T13:58:34.51Z</time></trkpt><trkpt lat="42.2793117" lon="14.1275117"><ele>284.0</ele><time>2026-05-01T13:58:36.51Z</time></trkpt><trkpt lat="42.27926" lon="14.127615"><ele>284.0</ele><time>2026-05-01T13:58:40.509Z</time></trkpt><trkpt lat="42.27912" lon="14.1276383"><ele>284.0</ele><time>2026-05-01T13:58:42.509Z</time></trkpt><trkpt lat="42.27902" lon="14.1276383"><ele>284.0</ele><time>2026-05-01T13:58:43.51Z</time></trkpt><trkpt lat="42.2789033" lon="14.1276367"><ele>284.0</ele><time>2026-05-01T13:58:44.511Z</time></trkpt><trkpt lat="42.2787817" lon="14.1276267"><ele>284.0</ele><time>2026-05-01T13:58:45.51Z</time></trkpt><trkpt lat="42.2786683" lon="14.1276217"><ele>284.0</ele><time>2026-05-01T13:58:46.509Z</time></trkpt><trkpt lat="42.27857" lon="14.127615"><ele>284.0</ele><time>2026-05-01T13:58:47.516Z</time></trkpt><trkpt lat="42.278475" lon="14.1276117"><ele>284.0</ele><time>2026-05-01T13:58:48.511Z</time></trkpt><trkpt lat="42.2783867" lon="14.1276083"><ele>284.0</ele><time>2026-05-01T13:58:49.512Z</time></trkpt><trkpt lat="42.2782983" lon="14.1276033"><ele>284.0</ele><time>2026-05-01T13:58:50.512Z</time></trkpt><trkpt lat="42.2782017" lon="14.1276067"><ele>284.0</ele><time>2026-05-01T13:58:51.512Z</time></trkpt><trkpt lat="42.2781017" lon="14.1275933"><ele>284.0</ele><time>2026-05-01T13:58:52.513Z</time></trkpt><trkpt lat="42.278" lon="14.12756"><ele>284.0</ele><time>2026-05-01T13:58:53.513Z</time></trkpt><trkpt lat="42.2778967" lon="14.127525"><ele>284.4</ele><time>2026-05-01T13:58:54.508Z</time></trkpt><trkpt lat="42.2777967" lon="14.1274917"><ele>284.79999999999995</ele><time>2026-05-01T13:58:55.513Z</time></trkpt><trkpt lat="42.27769" lon="14.12745"><ele>285.20000000000005</ele><time>2026-05-01T13:58:56.509Z</time></trkpt><trkpt lat="42.2775933" lon="14.1274083"><ele>285.6</ele><time>2026-05-01T13:58:57.511Z</time></trkpt><trkpt lat="42.27749" lon="14.1273817"><ele>286.0</ele><time>2026-05-01T13:58:58.509Z</time></trkpt><trkpt lat="42.2773867" lon="14.12738"><ele>286.0</ele><time>2026-05-01T13:58:59.509Z</time></trkpt><trkpt lat="42.277285" lon="14.1274033"><ele>286.0</ele><time>2026-05-01T13:59:00.509Z</time></trkpt><trkpt lat="42.2771883" lon="14.1274267"><ele>286.0</ele><time>2026-05-01T13:59:01.508Z</time></trkpt><trkpt lat="42.2771017" lon="14.1274217"><ele>286.0</ele><time>2026-05-01T13:59:02.51Z</time></trkpt><trkpt lat="42.27702" lon="14.1274017"><ele>286.0</ele><time>2026-05-01T13:59:03.508Z</time></trkpt><trkpt lat="42.2769417" lon="14.1273667"><ele>287.8333333333333</ele><time>2026-05-01T13:59:04.514Z</time></trkpt><trkpt lat="42.2768667" lon="14.127325"><ele>289.66666666666663</ele><time>2026-05-01T13:59:05.509Z</time></trkpt><trkpt lat="42.2767967" lon="14.1272833"><ele>291.5</ele><time>2026-05-01T13:59:06.515Z</time></trkpt><trkpt lat="42.2767267" lon="14.1272533"><ele>293.3333333333333</ele><time>2026-05-01T13:59:07.509Z</time></trkpt><trkpt lat="42.2766617" lon="14.12722"><ele>295.1666666666667</ele><time>2026-05-01T13:59:08.51Z</time></trkpt><trkpt lat="42.2765533" lon="14.1272217"><ele>297.0</ele><time>2026-05-01T13:59:10.51Z</time></trkpt><trkpt lat="42.27646" lon="14.127305"><ele>297.2</ele><time>2026-05-01T13:59:12.513Z</time></trkpt><trkpt lat="42.2764033" lon="14.12739"><ele>297.4</ele><time>2026-05-01T13:59:13.508Z</time></trkpt><trkpt lat="42.2763433" lon="14.1274833"><ele>297.6</ele><time>2026-05-01T13:59:14.51Z</time></trkpt><trkpt lat="42.2762783" lon="14.1275883"><ele>297.8</ele><time>2026-05-01T13:59:15.51Z</time></trkpt><trkpt lat="42.2762133" lon="14.1276983"><ele>298.0</ele><time>2026-05-01T13:59:16.513Z</time></trkpt><trkpt lat="42.2761483" lon="14.127785"><ele>297.66666666666663</ele><time>2026-05-01T13:59:17.51Z</time></trkpt><trkpt lat="42.276075" lon="14.12785"><ele>297.3333333333333</ele><time>2026-05-01T13:59:18.514Z</time></trkpt><trkpt lat="42.2760033" lon="14.127905"><ele>297.0</ele><time>2026-05-01T13:59:19.511Z</time></trkpt><trkpt lat="42.2759233" lon="14.1279517"><ele>296.6666666666667</ele><time>2026-05-01T13:59:20.509Z</time></trkpt><trkpt lat="42.275835" lon="14.1279867"><ele>296.33333333333337</ele><time>2026-05-01T13:59:21.51Z</time></trkpt><trkpt lat="42.275745" lon="14.1280067"><ele>296.0</ele><time>2026-05-01T13:59:22.508Z</time></trkpt><trkpt lat="42.275655" lon="14.12803"><ele>296.8</ele><time>2026-05-01T13:59:23.515Z</time></trkpt><trkpt lat="42.27556" lon="14.1280583"><ele>297.6</ele><time>2026-05-01T13:59:24.509Z</time></trkpt><trkpt lat="42.27547" lon="14.1281033"><ele>298.4</ele><time>2026-05-01T13:59:25.508Z</time></trkpt><trkpt lat="42.2753883" lon="14.12817"><ele>299.2</ele><time>2026-05-01T13:59:26.512Z</time></trkpt><trkpt lat="42.275325" lon="14.12823"><ele>300.0</ele><time>2026-05-01T13:59:27.511Z</time></trkpt><trkpt lat="42.27523" lon="14.1282983"><ele>300.0</ele><time>2026-05-01T13:59:29.512Z</time></trkpt><trkpt lat="42.275155" lon="14.12826"><ele>300.0</ele><time>2026-05-01T13:59:31.51Z</time></trkpt><trkpt lat="42.2751033" lon="14.1281333"><ele>300.0</ele><time>2026-05-01T13:59:33.509Z</time></trkpt><trkpt lat="42.2750783" lon="14.1280433"><ele>300.0</ele><time>2026-05-01T13:59:34.513Z</time></trkpt><trkpt lat="42.27505" lon="14.1279333"><ele>300.0</ele><time>2026-05-01T13:59:35.508Z</time></trkpt><trkpt lat="42.2750133" lon="14.1278083"><ele>300.0</ele><time>2026-05-01T13:59:36.509Z</time></trkpt><trkpt lat="42.27497" lon="14.12768"><ele>299.8</ele><time>2026-05-01T13:59:37.508Z</time></trkpt><trkpt lat="42.2749183" lon="14.1275483"><ele>299.6</ele><time>2026-05-01T13:59:38.509Z</time></trkpt><trkpt lat="42.2748683" lon="14.12741"><ele>299.4</ele><time>2026-05-01T13:59:39.509Z</time></trkpt><trkpt lat="42.2748267" lon="14.1272717"><ele>299.2</ele><time>2026-05-01T13:59:40.508Z</time></trkpt><trkpt lat="42.2747817" lon="14.1271333"><ele>299.0</ele><time>2026-05-01T13:59:41.509Z</time></trkpt><trkpt lat="42.2747383" lon="14.126995"><ele>299.0</ele><time>2026-05-01T13:59:42.511Z</time></trkpt><trkpt lat="42.2747" lon="14.1268567"><ele>299.0</ele><time>2026-05-01T13:59:43.516Z</time></trkpt><trkpt lat="42.2746633" lon="14.1267183"><ele>299.0</ele><time>2026-05-01T13:59:44.51Z</time></trkpt><trkpt lat="42.2746333" lon="14.1265783"><ele>299.0</ele><time>2026-05-01T13:59:45.509Z</time></trkpt><trkpt lat="42.274605" lon="14.126435"><ele>299.0</ele><time>2026-05-01T13:59:46.509Z</time></trkpt><trkpt lat="42.2745817" lon="14.1262917"><ele>297.59999999999997</ele><time>2026-05-01T13:59:47.512Z</time></trkpt><trkpt lat="42.2745833" lon="14.1261483"><ele>296.2</ele><time>2026-05-01T13:59:48.512Z</time></trkpt><trkpt lat="42.274605" lon="14.1260117"><ele>294.79999999999995</ele><time>2026-05-01T13:59:49.512Z</time></trkpt><trkpt lat="42.2746317" lon="14.1258817"><ele>293.4</ele><time>2026-05-01T13:59:50.514Z</time></trkpt><trkpt lat="42.2746667" lon="14.1257517"><ele>292.0</ele><time>2026-05-01T13:59:51.511Z</time></trkpt><trkpt lat="42.2747117" lon="14.125615"><ele>292.0</ele><time>2026-05-01T13:59:52.512Z</time></trkpt><trkpt lat="42.2747517" lon="14.1254667"><ele>292.0</ele><time>2026-05-01T13:59:53.513Z</time></trkpt><trkpt lat="42.274795" lon="14.1253167"><ele>292.0</ele><time>2026-05-01T13:59:54.515Z</time></trkpt><trkpt lat="42.27484" lon="14.1251667"><ele>292.0</ele><time>2026-05-01T13:59:55.509Z</time></trkpt><trkpt lat="42.2748817" lon="14.1250267"><ele>297.4</ele><time>2026-05-01T13:59:56.511Z</time></trkpt><trkpt lat="42.274915" lon="14.1248967"><ele>302.79999999999995</ele><time>2026-05-01T13:59:57.51Z</time></trkpt><trkpt lat="42.274955" lon="14.124795"><ele>308.2</ele><time>2026-05-01T13:59:58.511Z</time></trkpt><trkpt lat="42.27499" lon="14.1247133"><ele>313.59999999999997</ele><time>2026-05-01T13:59:59.514Z</time></trkpt><trkpt lat="42.275025" lon="14.1246383"><ele>319.0</ele><time>2026-05-01T14:00:00.511Z</time></trkpt><trkpt lat="42.275095" lon="14.12449"><ele>320.6</ele><time>2026-05-01T14:00:02.511Z</time></trkpt><trkpt lat="42.2751333" lon="14.1244183"><ele>322.2</ele><time>2026-05-01T14:00:03.512Z</time></trkpt><trkpt lat="42.27521" lon="14.1243083"><ele>323.8</ele><time>2026-05-01T14:00:05.512Z</time></trkpt><trkpt lat="42.275295" lon="14.1242567"><ele>325.40000000000003</ele><time>2026-05-01T14:00:07.512Z</time></trkpt><trkpt lat="42.2754067" lon="14.1242467"><ele>327.0</ele><time>2026-05-01T14:00:09.512Z</time></trkpt><trkpt lat="42.2754783" lon="14.124235"><ele>327.0</ele><time>2026-05-01T14:00:10.513Z</time></trkpt><trkpt lat="42.2755617" lon="14.124225"><ele>327.0</ele><time>2026-05-01T14:00:11.514Z</time></trkpt><trkpt lat="42.2756483" lon="14.12421"><ele>327.0</ele><time>2026-05-01T14:00:12.514Z</time></trkpt><trkpt lat="42.2757333" lon="14.1241917"><ele>327.0</ele><time>2026-05-01T14:00:13.515Z</time></trkpt><trkpt lat="42.2758167" lon="14.124185"><ele>327.0</ele><time>2026-05-01T14:00:14.516Z</time></trkpt><trkpt lat="42.2758933" lon="14.1241817"><ele>327.0</ele><time>2026-05-01T14:00:15.513Z</time></trkpt><trkpt lat="42.275965" lon="14.1241767"><ele>326.0</ele><time>2026-05-01T14:00:16.511Z</time></trkpt><trkpt lat="42.2760717" lon="14.12415"><ele>325.0</ele><time>2026-05-01T14:00:18.514Z</time></trkpt><trkpt lat="42.276135" lon="14.124095"><ele>324.0</ele><time>2026-05-01T14:00:37.508Z</time></trkpt><trkpt lat="42.276165" lon="14.1239867"><ele>323.0</ele><time>2026-05-01T14:00:40.512Z</time></trkpt><trkpt lat="42.27616" lon="14.1238583"><ele>322.0</ele><time>2026-05-01T14:00:43.51Z</time></trkpt><trkpt lat="42.276155" lon="14.1237717"><ele>321.0</ele><time>2026-05-01T14:00:45.51Z</time></trkpt><trkpt lat="42.2761717" lon="14.1236717"><ele>320.3333333333333</ele><time>2026-05-01T14:00:48.513Z</time></trkpt><trkpt lat="42.2761483" lon="14.1235867"><ele>319.6666666666667</ele><time>2026-05-01T14:00:50.513Z</time></trkpt><trkpt lat="42.2761033" lon="14.123515"><ele>319.0</ele><time>2026-05-01T14:00:52.514Z</time></trkpt><trkpt lat="42.276035" lon="14.1234517"><ele>318.33333333333337</ele><time>2026-05-01T14:00:54.511Z</time></trkpt><trkpt lat="42.27595" lon="14.123415"><ele>317.6666666666667</ele><time>2026-05-01T14:00:56.509Z</time></trkpt><trkpt lat="42.2758317" lon="14.1233783"><ele>317.0</ele><time>2026-05-01T14:00:58.514Z</time></trkpt><trkpt lat="42.2757617" lon="14.123355"><ele>317.0</ele><time>2026-05-01T14:00:59.511Z</time></trkpt><trkpt lat="42.27568" lon="14.1233333"><ele>317.0</ele><time>2026-05-01T14:01:00.512Z</time></trkpt><trkpt lat="42.2755917" lon="14.1233117"><ele>317.0</ele><time>2026-05-01T14:01:01.512Z</time></trkpt><trkpt lat="42.2754983" lon="14.1232867"><ele>317.0</ele><time>2026-05-01T14:01:02.512Z</time></trkpt><trkpt lat="42.27541" lon="14.1232583"><ele>317.0</ele><time>2026-05-01T14:01:03.513Z</time></trkpt><trkpt lat="42.2753317" lon="14.1232367"><ele>317.0</ele><time>2026-05-01T14:01:04.512Z</time></trkpt><trkpt lat="42.2752583" lon="14.1232183"><ele>316.5</ele><time>2026-05-01T14:01:05.511Z</time></trkpt><trkpt lat="42.275185" lon="14.1232017"><ele>316.0</ele><time>2026-05-01T14:01:06.513Z</time></trkpt><trkpt lat="42.2751117" lon="14.12318"><ele>315.5</ele><time>2026-05-01T14:01:07.513Z</time></trkpt><trkpt lat="42.2750467" lon="14.12316"><ele>315.0</ele><time>2026-05-01T14:01:08.515Z</time></trkpt><trkpt lat="42.274955" lon="14.1231433"><ele>314.5</ele><time>2026-05-01T14:01:10.512Z</time></trkpt><trkpt lat="42.2748567" lon="14.1231217"><ele>314.0</ele><time>2026-05-01T14:11:50.513Z</time></trkpt><trkpt lat="42.27478" lon="14.1231017"><ele>315.2</ele><time>2026-05-01T14:11:56.514Z</time></trkpt><trkpt lat="42.2747017" lon="14.123085"><ele>316.4</ele><time>2026-05-01T14:11:58.509Z</time></trkpt><trkpt lat="42.2746067" lon="14.1230783"><ele>317.6</ele><time>2026-05-01T14:12:00.509Z</time></trkpt><trkpt lat="42.2745117" lon="14.1230517"><ele>318.8</ele><time>2026-05-01T14:12:02.511Z</time></trkpt><trkpt lat="42.2744" lon="14.1229967"><ele>320.0</ele><time>2026-05-01T14:12:04.512Z</time></trkpt><trkpt lat="42.2743383" lon="14.1229533"><ele>320.0</ele><time>2026-05-01T14:12:05.51Z</time></trkpt><trkpt lat="42.2742783" lon="14.12291"><ele>320.0</ele><time>2026-05-01T14:12:06.511Z</time></trkpt><trkpt lat="42.27422" lon="14.12287"><ele>320.0</ele><time>2026-05-01T14:12:07.511Z</time></trkpt><trkpt lat="42.27412" lon="14.1227767"><ele>320.0</ele><time>2026-05-01T14:12:09.511Z</time></trkpt><trkpt lat="42.27408" lon="14.12271"><ele>320.0</ele><time>2026-05-01T14:12:10.511Z</time></trkpt><trkpt lat="42.274045" lon="14.1226317"><ele>320.0</ele><time>2026-05-01T14:12:11.511Z</time></trkpt><trkpt lat="42.273995" lon="14.1224967"><ele>320.0</ele><time>2026-05-01T14:12:13.516Z</time></trkpt><trkpt lat="42.2739617" lon="14.1224133"><ele>320.0</ele><time>2026-05-01T14:12:15.509Z</time></trkpt><trkpt lat="42.2738933" lon="14.122355"><ele>320.0</ele><time>2026-05-01T14:12:21.516Z</time></trkpt><trkpt lat="42.27383" lon="14.1222933"><ele>320.0</ele><time>2026-05-01T14:12:23.51Z</time></trkpt><trkpt lat="42.273745" lon="14.1222067"><ele>320.0</ele><time>2026-05-01T14:12:25.512Z</time></trkpt><trkpt lat="42.273685" lon="14.1220817"><ele>320.0</ele><time>2026-05-01T14:12:27.509Z</time></trkpt><trkpt lat="42.2736617" lon="14.1220017"><ele>316.2</ele><time>2026-05-01T14:12:28.51Z</time></trkpt><trkpt lat="42.2736367" lon="14.121895"><ele>312.4</ele><time>2026-05-01T14:12:29.512Z</time></trkpt><trkpt lat="42.2736083" lon="14.1217917"><ele>308.6</ele><time>2026-05-01T14:12:30.509Z</time></trkpt><trkpt lat="42.273575" lon="14.1217"><ele>304.8</ele><time>2026-05-01T14:12:31.51Z</time></trkpt><trkpt lat="42.273505" lon="14.1215717"><ele>301.0</ele><time>2026-05-01T14:12:33.515Z</time></trkpt><trkpt lat="42.2734317" lon="14.121485"><ele>300.40000000000003</ele><time>2026-05-01T14:12:35.509Z</time></trkpt><trkpt lat="42.2733533" lon="14.12142"><ele>299.8</ele><time>2026-05-01T14:12:37.51Z</time></trkpt><trkpt lat="42.273275" lon="14.1213317"><ele>299.20000000000005</ele><time>2026-05-01T14:12:39.51Z</time></trkpt><trkpt lat="42.2732283" lon="14.1212117"><ele>298.6</ele><time>2026-05-01T14:12:41.512Z</time></trkpt><trkpt lat="42.2731667" lon="14.12108"><ele>298.0</ele><time>2026-05-01T14:12:43.509Z</time></trkpt><trkpt lat="42.2731083" lon="14.1210267"><ele>297.0</ele><time>2026-05-01T14:12:44.511Z</time></trkpt><trkpt lat="42.2730367" lon="14.1209817"><ele>296.0</ele><time>2026-05-01T14:12:45.51Z</time></trkpt><trkpt lat="42.2729567" lon="14.120935"><ele>295.0</ele><time>2026-05-01T14:12:46.511Z</time></trkpt><trkpt lat="42.2728867" lon="14.120885"><ele>294.0</ele><time>2026-05-01T14:12:47.512Z</time></trkpt><trkpt lat="42.272825" lon="14.1208367"><ele>293.0</ele><time>2026-05-01T14:12:48.511Z</time></trkpt><trkpt lat="42.2727617" lon="14.1207933"><ele>292.0</ele><time>2026-05-01T14:12:49.514Z</time></trkpt><trkpt lat="42.2727017" lon="14.1207533"><ele>290.5</ele><time>2026-05-01T14:12:50.519Z</time></trkpt><trkpt lat="42.2726417" lon="14.1207167"><ele>289.0</ele><time>2026-05-01T14:12:51.511Z</time></trkpt><trkpt lat="42.2725333" lon="14.12065"><ele>287.5</ele><time>2026-05-01T14:12:53.511Z</time></trkpt><trkpt lat="42.2724267" lon="14.1205783"><ele>286.0</ele><time>2026-05-01T14:12:55.511Z</time></trkpt><trkpt lat="42.2723683" lon="14.1205333"><ele>284.5</ele><time>2026-05-01T14:12:56.509Z</time></trkpt><trkpt lat="42.2723117" lon="14.120485"><ele>283.0</ele><time>2026-05-01T14:12:57.511Z</time></trkpt><trkpt lat="42.2722533" lon="14.1204367"><ele>282.5</ele><time>2026-05-01T14:12:58.512Z</time></trkpt><trkpt lat="42.272145" lon="14.1203667"><ele>282.0</ele><time>2026-05-01T14:13:00.509Z</time></trkpt><trkpt lat="42.2720467" lon="14.1202917"><ele>281.5</ele><time>2026-05-01T14:13:02.511Z</time></trkpt><trkpt lat="42.2719433" lon="14.12021"><ele>281.0</ele><time>2026-05-01T14:13:04.51Z</time></trkpt><trkpt lat="42.2718367" lon="14.1201233"><ele>281.0</ele><time>2026-05-01T14:13:06.509Z</time></trkpt><trkpt lat="42.2717317" lon="14.1200383"><ele>281.0</ele><time>2026-05-01T14:13:08.51Z</time></trkpt><trkpt lat="42.2716733" lon="14.1199983"><ele>281.0</ele><time>2026-05-01T14:13:09.511Z</time></trkpt><trkpt lat="42.2716117" lon="14.1199533"><ele>281.0</ele><time>2026-05-01T14:13:10.509Z</time></trkpt><trkpt lat="42.27151" lon="14.1198567"><ele>281.0</ele><time>2026-05-01T14:13:12.509Z</time></trkpt><trkpt lat="42.2714683" lon="14.1197867"><ele>281.0</ele><time>2026-05-01T14:13:13.51Z</time></trkpt><trkpt lat="42.2714283" lon="14.1197033"><ele>280.40000000000003</ele><time>2026-05-01T14:13:14.509Z</time></trkpt><trkpt lat="42.2713983" lon="14.1196033"><ele>279.8</ele><time>2026-05-01T14:13:15.51Z</time></trkpt><trkpt lat="42.271365" lon="14.119495"><ele>279.20000000000005</ele><time>2026-05-01T14:13:16.51Z</time></trkpt><trkpt lat="42.2713267" lon="14.1193783"><ele>278.6</ele><time>2026-05-01T14:13:17.514Z</time></trkpt><trkpt lat="42.271285" lon="14.1192633"><ele>278.0</ele><time>2026-05-01T14:13:18.511Z</time></trkpt><trkpt lat="42.27124" lon="14.11915"><ele>277.33333333333337</ele><time>2026-05-01T14:13:19.512Z</time></trkpt><trkpt lat="42.27119" lon="14.11904"><ele>276.6666666666667</ele><time>2026-05-01T14:13:20.509Z</time></trkpt><trkpt lat="42.2711317" lon="14.1189417"><ele>276.0</ele><time>2026-05-01T14:13:21.509Z</time></trkpt><trkpt lat="42.2710733" lon="14.11887"><ele>275.3333333333333</ele><time>2026-05-01T14:13:22.509Z</time></trkpt><trkpt lat="42.2710183" lon="14.1188217"><ele>274.66666666666663</ele><time>2026-05-01T14:13:23.51Z</time></trkpt><trkpt lat="42.2709217" lon="14.1187933"><ele>274.0</ele><time>2026-05-01T14:13:25.509Z</time></trkpt><trkpt lat="42.2708267" lon="14.11879"><ele>274.0</ele><time>2026-05-01T14:13:27.511Z</time></trkpt><trkpt lat="42.2707633" lon="14.118785"><ele>274.0</ele><time>2026-05-01T14:13:28.511Z</time></trkpt><trkpt lat="42.2706883" lon="14.11878"><ele>274.0</ele><time>2026-05-01T14:13:29.51Z</time></trkpt><trkpt lat="42.27061" lon="14.11877"><ele>274.0</ele><time>2026-05-01T14:13:30.512Z</time></trkpt><trkpt lat="42.2705233" lon="14.118755"><ele>274.0</ele><time>2026-05-01T14:13:31.509Z</time></trkpt><trkpt lat="42.2704383" lon="14.1187333"><ele>274.0</ele><time>2026-05-01T14:13:32.51Z</time></trkpt><trkpt lat="42.2703583" lon="14.1187067"><ele>275.3333333333333</ele><time>2026-05-01T14:13:33.509Z</time></trkpt><trkpt lat="42.2702817" lon="14.11867"><ele>276.66666666666663</ele><time>2026-05-01T14:13:34.512Z</time></trkpt><trkpt lat="42.2702" lon="14.118625"><ele>278.0</ele><time>2026-05-01T14:13:35.512Z</time></trkpt><trkpt lat="42.2701167" lon="14.11858"><ele>279.3333333333333</ele><time>2026-05-01T14:13:36.51Z</time></trkpt><trkpt lat="42.2700317" lon="14.1185383"><ele>280.6666666666667</ele><time>2026-05-01T14:13:37.511Z</time></trkpt><trkpt lat="42.2699483" lon="14.1185"><ele>282.0</ele><time>2026-05-01T14:13:38.51Z</time></trkpt><trkpt lat="42.26988" lon="14.1184617"><ele>282.0</ele><time>2026-05-01T14:13:39.513Z</time></trkpt><trkpt lat="42.2697933" lon="14.1183967"><ele>282.0</ele><time>2026-05-01T14:13:41.51Z</time></trkpt><trkpt lat="42.2697217" lon="14.1183267"><ele>282.0</ele><time>2026-05-01T14:13:43.509Z</time></trkpt><trkpt lat="42.26965" lon="14.1182633"><ele>282.0</ele><time>2026-05-01T14:13:46.511Z</time></trkpt><trkpt lat="42.2695817" lon="14.1181767"><ele>282.0</ele><time>2026-05-01T14:13:49.511Z</time></trkpt><trkpt lat="42.2695183" lon="14.1181"><ele>278.75</ele><time>2026-05-01T14:13:51.51Z</time></trkpt><trkpt lat="42.26945" lon="14.1180033"><ele>275.5</ele><time>2026-05-01T14:13:53.512Z</time></trkpt><trkpt lat="42.2693917" lon="14.1178717"><ele>272.25</ele><time>2026-05-01T14:13:55.509Z</time></trkpt><trkpt lat="42.2693617" lon="14.1177167"><ele>269.0</ele><time>2026-05-01T14:13:57.511Z</time></trkpt><trkpt lat="42.2693617" lon="14.1175483"><ele>269.0</ele><time>2026-05-01T14:13:59.513Z</time></trkpt><trkpt lat="42.269375" lon="14.117455"><ele>269.0</ele><time>2026-05-01T14:14:00.51Z</time></trkpt><trkpt lat="42.2694067" lon="14.1173417"><ele>269.0</ele><time>2026-05-01T14:14:01.519Z</time></trkpt><trkpt lat="42.2694533" lon="14.1172283"><ele>269.0</ele><time>2026-05-01T14:14:02.51Z</time></trkpt><trkpt lat="42.2694967" lon="14.1171333"><ele>269.0</ele><time>2026-05-01T14:14:03.509Z</time></trkpt><trkpt lat="42.2695233" lon="14.1170483"><ele>269.0</ele><time>2026-05-01T14:14:04.51Z</time></trkpt><trkpt lat="42.2695417" lon="14.1169617"><ele>267.0</ele><time>2026-05-01T14:14:05.511Z</time></trkpt><trkpt lat="42.2695517" lon="14.1168617"><ele>265.0</ele><time>2026-05-01T14:14:06.515Z</time></trkpt><trkpt lat="42.2695483" lon="14.1167333"><ele>263.0</ele><time>2026-05-01T14:14:07.51Z</time></trkpt><trkpt lat="42.2695433" lon="14.1166"><ele>261.0</ele><time>2026-05-01T14:14:08.511Z</time></trkpt><trkpt lat="42.26954" lon="14.11647"><ele>259.0</ele><time>2026-05-01T14:14:09.509Z</time></trkpt><trkpt lat="42.2695383" lon="14.11635"><ele>258.0</ele><time>2026-05-01T14:14:10.51Z</time></trkpt><trkpt lat="42.2695383" lon="14.1162417"><ele>257.0</ele><time>2026-05-01T14:14:11.51Z</time></trkpt><trkpt lat="42.269535" lon="14.1161417"><ele>256.0</ele><time>2026-05-01T14:14:12.511Z</time></trkpt><trkpt lat="42.2695217" lon="14.116045"><ele>255.0</ele><time>2026-05-01T14:14:13.511Z</time></trkpt><trkpt lat="42.2695" lon="14.1159467"><ele>253.99999999999997</ele><time>2026-05-01T14:14:14.51Z</time></trkpt><trkpt lat="42.269465" lon="14.1158567"><ele>253.0</ele><time>2026-05-01T14:14:15.512Z</time></trkpt><trkpt lat="42.2694167" lon="14.1157767"><ele>251.99999999999997</ele><time>2026-05-01T14:14:16.509Z</time></trkpt><trkpt lat="42.2693583" lon="14.1157083"><ele>251.0</ele><time>2026-05-01T14:14:17.514Z</time></trkpt><trkpt lat="42.2692917" lon="14.11565"><ele>250.0</ele><time>2026-05-01T14:14:18.511Z</time></trkpt><trkpt lat="42.2692283" lon="14.1155983"><ele>249.0</ele><time>2026-05-01T14:14:19.509Z</time></trkpt><trkpt lat="42.2691717" lon="14.11554"><ele>247.99999999999997</ele><time>2026-05-01T14:14:20.511Z</time></trkpt><trkpt lat="42.2690867" lon="14.1153983"><ele>247.0</ele><time>2026-05-01T14:14:22.509Z</time></trkpt><trkpt lat="42.269045" lon="14.1153067"><ele>247.0</ele><time>2026-05-01T14:14:23.509Z</time></trkpt><trkpt lat="42.2690083" lon="14.11522"><ele>247.0</ele><time>2026-05-01T14:14:24.512Z</time></trkpt><trkpt lat="42.2689733" lon="14.1151367"><ele>247.0</ele><time>2026-05-01T14:14:25.512Z</time></trkpt><trkpt lat="42.2689367" lon="14.114995"><ele>247.0</ele><time>2026-05-01T14:14:27.51Z</time></trkpt><trkpt lat="42.2688833" lon="14.1148583"><ele>247.0</ele><time>2026-05-01T14:14:29.513Z</time></trkpt><trkpt lat="42.2688267" lon="14.11473"><ele>243.39999999999998</ele><time>2026-05-01T14:14:31.511Z</time></trkpt><trkpt lat="42.26879" lon="14.1145883"><ele>239.79999999999998</ele><time>2026-05-01T14:14:33.513Z</time></trkpt><trkpt lat="42.2687617" lon="14.1144483"><ele>236.2</ele><time>2026-05-01T14:14:35.51Z</time></trkpt><trkpt lat="42.26872" lon="14.1142683"><ele>232.6</ele><time>2026-05-01T14:14:37.512Z</time></trkpt><trkpt lat="42.2686967" lon="14.1141583"><ele>229.0</ele><time>2026-05-01T14:14:38.515Z</time></trkpt><trkpt lat="42.26867" lon="14.1140583"><ele>229.0</ele><time>2026-05-01T14:14:39.512Z</time></trkpt><trkpt lat="42.2686283" lon="14.1139683"><ele>228.99999999999997</ele><time>2026-05-01T14:14:40.509Z</time></trkpt><trkpt lat="42.26857" lon="14.1138817"><ele>228.99999999999997</ele><time>2026-05-01T14:14:41.51Z</time></trkpt><trkpt lat="42.2684833" lon="14.1138083"><ele>229.0</ele><time>2026-05-01T14:14:42.51Z</time></trkpt><trkpt lat="42.2683883" lon="14.1137333"><ele>229.0</ele><time>2026-05-01T14:14:43.51Z</time></trkpt><trkpt lat="42.268295" lon="14.113665"><ele>229.0</ele><time>2026-05-01T14:14:44.513Z</time></trkpt><trkpt lat="42.2682133" lon="14.11361"><ele>228.99999999999997</ele><time>2026-05-01T14:14:45.509Z</time></trkpt><trkpt lat="42.2681417" lon="14.1135667"><ele>228.99999999999997</ele><time>2026-05-01T14:14:46.511Z</time></trkpt><trkpt lat="42.2680733" lon="14.1135067"><ele>229.0</ele><time>2026-05-01T14:14:47.51Z</time></trkpt><trkpt lat="42.268005" lon="14.11342"><ele>229.0</ele><time>2026-05-01T14:14:48.512Z</time></trkpt><trkpt lat="42.26793" lon="14.1133083"><ele>229.79999999999998</ele><time>2026-05-01T14:14:49.51Z</time></trkpt><trkpt lat="42.2678633" lon="14.113195"><ele>230.59999999999997</ele><time>2026-05-01T14:14:50.514Z</time></trkpt><trkpt lat="42.2678133" lon="14.1130883"><ele>231.4</ele><time>2026-05-01T14:14:51.51Z</time></trkpt><trkpt lat="42.2677717" lon="14.1129933"><ele>232.2</ele><time>2026-05-01T14:14:52.511Z</time></trkpt><trkpt lat="42.2677217" lon="14.1129017"><ele>233.0</ele><time>2026-05-01T14:14:53.511Z</time></trkpt><trkpt lat="42.2676583" lon="14.11281"><ele>233.0</ele><time>2026-05-01T14:14:54.512Z</time></trkpt><trkpt lat="42.26758" lon="14.112715"><ele>233.0</ele><time>2026-05-01T14:14:55.509Z</time></trkpt><trkpt lat="42.2675067" lon="14.1126333"><ele>233.0</ele><time>2026-05-01T14:14:56.511Z</time></trkpt><trkpt lat="42.267445" lon="14.1125567"><ele>233.0</ele><time>2026-05-01T14:14:57.509Z</time></trkpt><trkpt lat="42.2674033" lon="14.1124717"><ele>233.0</ele><time>2026-05-01T14:14:58.511Z</time></trkpt><trkpt lat="42.2673717" lon="14.11234"><ele>232.2</ele><time>2026-05-01T14:14:59.51Z</time></trkpt><trkpt lat="42.2673417" lon="14.1122"><ele>231.4</ele><time>2026-05-01T14:15:00.51Z</time></trkpt><trkpt lat="42.2673083" lon="14.112065"><ele>230.59999999999997</ele><time>2026-05-01T14:15:01.511Z</time></trkpt><trkpt lat="42.26727" lon="14.1119317"><ele>229.79999999999998</ele><time>2026-05-01T14:15:02.511Z</time></trkpt><trkpt lat="42.2672317" lon="14.1117883"><ele>229.0</ele><time>2026-05-01T14:15:03.512Z</time></trkpt><trkpt lat="42.26719" lon="14.111635"><ele>232.75</ele><time>2026-05-01T14:15:04.509Z</time></trkpt><trkpt lat="42.2671417" lon="14.1114733"><ele>236.5</ele><time>2026-05-01T14:15:05.512Z</time></trkpt><trkpt lat="42.2670867" lon="14.1112917"><ele>240.25</ele><time>2026-05-01T14:15:06.511Z</time></trkpt><trkpt lat="42.2670233" lon="14.11109"><ele>244.0</ele><time>2026-05-01T14:15:07.509Z</time></trkpt><trkpt lat="42.2669633" lon="14.1109133"><ele>244.0</ele><time>2026-05-01T14:15:08.518Z</time></trkpt><trkpt lat="42.2669167" lon="14.1107683"><ele>243.99999999999997</ele><time>2026-05-01T14:15:09.509Z</time></trkpt><trkpt lat="42.26688" lon="14.110645"><ele>243.99999999999997</ele><time>2026-05-01T14:15:10.512Z</time></trkpt><trkpt lat="42.2668483" lon="14.110525"><ele>244.0</ele><time>2026-05-01T14:15:11.51Z</time></trkpt><trkpt lat="42.26682" lon="14.1104017"><ele>244.0</ele><time>2026-05-01T14:15:12.51Z</time></trkpt><trkpt lat="42.2667967" lon="14.1102783"><ele>244.49999999999997</ele><time>2026-05-01T14:15:13.51Z</time></trkpt><trkpt lat="42.2667767" lon="14.110165"><ele>245.0</ele><time>2026-05-01T14:15:14.511Z</time></trkpt><trkpt lat="42.2667633" lon="14.110065"><ele>245.5</ele><time>2026-05-01T14:15:15.511Z</time></trkpt><trkpt lat="42.2667483" lon="14.1099683"><ele>246.0</ele><time>2026-05-01T14:15:16.51Z</time></trkpt><trkpt lat="42.2667267" lon="14.1098833"><ele>246.49999999999997</ele><time>2026-05-01T14:15:17.512Z</time></trkpt><trkpt lat="42.2666967" lon="14.1098083"><ele>247.0</ele><time>2026-05-01T14:15:18.511Z</time></trkpt><trkpt lat="42.26664" lon="14.1096667"><ele>248.0</ele><time>2026-05-01T14:15:20.513Z</time></trkpt><trkpt lat="42.2666067" lon="14.10959"><ele>249.0</ele><time>2026-05-01T14:15:21.511Z</time></trkpt><trkpt lat="42.2665617" lon="14.109495"><ele>250.0</ele><time>2026-05-01T14:15:22.511Z</time></trkpt><trkpt lat="42.266505" lon="14.1093717"><ele>251.0</ele><time>2026-05-01T14:15:23.511Z</time></trkpt><trkpt lat="42.2664517" lon="14.1092433"><ele>252.0</ele><time>2026-05-01T14:15:24.513Z</time></trkpt><trkpt lat="42.2664017" lon="14.1091283"><ele>255.0</ele><time>2026-05-01T14:15:25.511Z</time></trkpt><trkpt lat="42.2663483" lon="14.1090217"><ele>258.0</ele><time>2026-05-01T14:15:26.514Z</time></trkpt><trkpt lat="42.26629" lon="14.1089217"><ele>261.0</ele><time>2026-05-01T14:15:27.511Z</time></trkpt><trkpt lat="42.2662267" lon="14.108825"><ele>264.0</ele><time>2026-05-01T14:15:28.517Z</time></trkpt><trkpt lat="42.2661583" lon="14.1087283"><ele>267.0</ele><time>2026-05-01T14:15:29.511Z</time></trkpt><trkpt lat="42.2660883" lon="14.1086317"><ele>267.0</ele><time>2026-05-01T14:15:30.511Z</time></trkpt><trkpt lat="42.2660217" lon="14.1085283"><ele>267.0</ele><time>2026-05-01T14:15:31.511Z</time></trkpt><trkpt lat="42.265955" lon="14.1084233"><ele>267.0</ele><time>2026-05-01T14:15:32.512Z</time></trkpt><trkpt lat="42.2658967" lon="14.1083267"><ele>267.0</ele><time>2026-05-01T14:15:33.509Z</time></trkpt><trkpt lat="42.26584" lon="14.10822"><ele>267.0</ele><time>2026-05-01T14:15:34.511Z</time></trkpt><trkpt lat="42.2657867" lon="14.1081"><ele>267.4</ele><time>2026-05-01T14:15:35.516Z</time></trkpt><trkpt lat="42.2657383" lon="14.107975"><ele>267.79999999999995</ele><time>2026-05-01T14:15:36.509Z</time></trkpt><trkpt lat="42.2656983" lon="14.1078533"><ele>268.2</ele><time>2026-05-01T14:15:37.51Z</time></trkpt><trkpt lat="42.2656633" lon="14.1077467"><ele>268.59999999999997</ele><time>2026-05-01T14:15:38.512Z</time></trkpt><trkpt lat="42.2656283" lon="14.1076633"><ele>269.0</ele><time>2026-05-01T14:15:39.509Z</time></trkpt><trkpt lat="42.2655767" lon="14.107545"><ele>269.1666666666667</ele><time>2026-05-01T14:15:41.512Z</time></trkpt><trkpt lat="42.265535" lon="14.1074633"><ele>269.33333333333337</ele><time>2026-05-01T14:15:43.511Z</time></trkpt><trkpt lat="42.26549" lon="14.1073867"><ele>269.5</ele><time>2026-05-01T14:15:46.51Z</time></trkpt><trkpt lat="42.2654583" lon="14.10729"><ele>269.6666666666667</ele><time>2026-05-01T14:16:03.509Z</time></trkpt><trkpt lat="42.2654383" lon="14.107205"><ele>269.8333333333333</ele><time>2026-05-01T14:16:05.512Z</time></trkpt><trkpt lat="42.2653917" lon="14.1071"><ele>270.0</ele><time>2026-05-01T14:16:30.51Z</time></trkpt><trkpt lat="42.2653317" lon="14.107035"><ele>270.0</ele><time>2026-05-01T14:16:33.509Z</time></trkpt><trkpt lat="42.265365" lon="14.1069267"><ele>270.0</ele><time>2026-05-01T14:16:37.511Z</time></trkpt><trkpt lat="42.2654083" lon="14.1068517"><ele>270.0</ele><time>2026-05-01T14:16:39.511Z</time></trkpt><trkpt lat="42.2654517" lon="14.1067533"><ele>270.0</ele><time>2026-05-01T14:16:41.509Z</time></trkpt><trkpt lat="42.2655033" lon="14.1066367"><ele>270.0</ele><time>2026-05-01T14:16:43.511Z</time></trkpt><trkpt lat="42.2655667" lon="14.1065283"><ele>270.0</ele><time>2026-05-01T14:16:45.51Z</time></trkpt><trkpt lat="42.2656317" lon="14.1064583"><ele>265.8333333333333</ele><time>2026-05-01T14:16:47.512Z</time></trkpt><trkpt lat="42.2657017" lon="14.1064267"><ele>261.6666666666667</ele><time>2026-05-01T14:16:49.512Z</time></trkpt><trkpt lat="42.2657683" lon="14.1063883"><ele>257.5</ele><time>2026-05-01T14:16:51.513Z</time></trkpt><trkpt lat="42.265825" lon="14.106345"><ele>253.33333333333334</ele><time>2026-05-01T14:16:53.512Z</time></trkpt><trkpt lat="42.26589" lon="14.106295"><ele>249.16666666666669</ele><time>2026-05-01T14:16:55.513Z</time></trkpt><trkpt lat="42.2659533" lon="14.1062367"><ele>245.0</ele><time>2026-05-01T14:16:57.513Z</time></trkpt><trkpt lat="42.2660183" lon="14.1061583"><ele>245.00000000000003</ele><time>2026-05-01T14:16:59.514Z</time></trkpt><trkpt lat="42.2660733" lon="14.10608"><ele>245.0</ele><time>2026-05-01T14:17:01.508Z</time></trkpt><trkpt lat="42.2661167" lon="14.105985"><ele>245.0</ele><time>2026-05-01T14:17:03.509Z</time></trkpt><trkpt lat="42.2661633" lon="14.1058633"><ele>245.0</ele><time>2026-05-01T14:17:05.509Z</time></trkpt><trkpt lat="42.2662" lon="14.105745"><ele>245.00000000000003</ele><time>2026-05-01T14:17:07.509Z</time></trkpt><trkpt lat="42.266215" lon="14.1056617"><ele>245.0</ele><time>2026-05-01T14:17:09.508Z</time></trkpt><trkpt lat="42.2662367" lon="14.10555"><ele>241.50000000000003</ele><time>2026-05-01T14:17:12.51Z</time></trkpt><trkpt lat="42.26625" lon="14.10544"><ele>238.0</ele><time>2026-05-01T14:17:16.51Z</time></trkpt><trkpt lat="42.2662633" lon="14.1053283"><ele>234.5</ele><time>2026-05-01T14:17:21.512Z</time></trkpt><trkpt lat="42.26628" lon="14.10524"><ele>231.0</ele><time>2026-05-01T14:17:24.511Z</time></trkpt><trkpt lat="42.266315" lon="14.105135"><ele>227.50000000000003</ele><time>2026-05-01T14:17:26.51Z</time></trkpt><trkpt lat="42.2663783" lon="14.1050183"><ele>224.0</ele><time>2026-05-01T14:17:28.51Z</time></trkpt><trkpt lat="42.2664583" lon="14.1049217"><ele>221.00000000000003</ele><time>2026-05-01T14:17:30.51Z</time></trkpt><trkpt lat="42.26651" lon="14.10487"><ele>218.0</ele><time>2026-05-01T14:17:31.509Z</time></trkpt><trkpt lat="42.2665717" lon="14.1048217"><ele>215.0</ele><time>2026-05-01T14:17:32.509Z</time></trkpt><trkpt lat="42.266645" lon="14.1047817"><ele>212.0</ele><time>2026-05-01T14:17:33.509Z</time></trkpt><trkpt lat="42.266725" lon="14.104755"><ele>209.00000000000003</ele><time>2026-05-01T14:17:34.51Z</time></trkpt><trkpt lat="42.266805" lon="14.1047417"><ele>206.0</ele><time>2026-05-01T14:17:35.508Z</time></trkpt><trkpt lat="42.2668783" lon="14.1047283"><ele>206.00000000000003</ele><time>2026-05-01T14:17:36.509Z</time></trkpt><trkpt lat="42.2669517" lon="14.10472"><ele>206.0</ele><time>2026-05-01T14:17:37.514Z</time></trkpt><trkpt lat="42.2670267" lon="14.104705"><ele>206.0</ele><time>2026-05-01T14:17:38.509Z</time></trkpt><trkpt lat="42.2671083" lon="14.1046867"><ele>206.0</ele><time>2026-05-01T14:17:39.509Z</time></trkpt><trkpt lat="42.2671883" lon="14.1046667"><ele>206.00000000000003</ele><time>2026-05-01T14:17:40.51Z</time></trkpt><trkpt lat="42.267275" lon="14.1046417"><ele>206.0</ele><time>2026-05-01T14:17:41.512Z</time></trkpt><trkpt lat="42.2673633" lon="14.1046167"><ele>206.75</ele><time>2026-05-01T14:17:42.511Z</time></trkpt><trkpt lat="42.2674667" lon="14.1045967"><ele>207.5</ele><time>2026-05-01T14:17:43.51Z</time></trkpt><trkpt lat="42.267585" lon="14.1045833"><ele>208.25</ele><time>2026-05-01T14:17:44.509Z</time></trkpt><trkpt lat="42.267705" lon="14.10457"><ele>209.0</ele><time>2026-05-01T14:17:45.511Z</time></trkpt><trkpt lat="42.2678233" lon="14.1045567"><ele>209.0</ele><time>2026-05-01T14:17:46.509Z</time></trkpt><trkpt lat="42.2679383" lon="14.1045383"><ele>209.0</ele><time>2026-05-01T14:17:47.513Z</time></trkpt><trkpt lat="42.2680467" lon="14.1045167"><ele>209.0</ele><time>2026-05-01T14:17:48.512Z</time></trkpt><trkpt lat="42.268155" lon="14.1044917"><ele>209.0</ele><time>2026-05-01T14:17:49.515Z</time></trkpt><trkpt lat="42.2682467" lon="14.1044617"><ele>209.0</ele><time>2026-05-01T14:17:50.513Z</time></trkpt><trkpt lat="42.2683333" lon="14.1044333"><ele>209.71428571428572</ele><time>2026-05-01T14:17:51.513Z</time></trkpt><trkpt lat="42.268415" lon="14.104405"><ele>210.42857142857142</ele><time>2026-05-01T14:17:52.512Z</time></trkpt><trkpt lat="42.26848" lon="14.1043883"><ele>211.14285714285717</ele><time>2026-05-01T14:17:53.512Z</time></trkpt><trkpt lat="42.268545" lon="14.1043833"><ele>211.85714285714286</ele><time>2026-05-01T14:17:54.518Z</time></trkpt><trkpt lat="42.26861" lon="14.104385"><ele>212.57142857142858</ele><time>2026-05-01T14:17:55.51Z</time></trkpt><trkpt lat="42.2686817" lon="14.1044017"><ele>213.2857142857143</ele><time>2026-05-01T14:17:56.509Z</time></trkpt><trkpt lat="42.2687583" lon="14.1044233"><ele>214.0</ele><time>2026-05-01T14:17:57.51Z</time></trkpt><trkpt lat="42.2688417" lon="14.1044467"><ele>213.99999999999997</ele><time>2026-05-01T14:17:58.509Z</time></trkpt><trkpt lat="42.2689333" lon="14.104475"><ele>214.0</ele><time>2026-05-01T14:17:59.513Z</time></trkpt><trkpt lat="42.2690283" lon="14.1045017"><ele>214.0</ele><time>2026-05-01T14:18:00.51Z</time></trkpt><trkpt lat="42.2691133" lon="14.1045217"><ele>214.0</ele><time>2026-05-01T14:18:01.509Z</time></trkpt><trkpt lat="42.269185" lon="14.104545"><ele>213.99999999999997</ele><time>2026-05-01T14:18:02.512Z</time></trkpt><trkpt lat="42.26926" lon="14.1045783"><ele>214.0</ele><time>2026-05-01T14:18:03.509Z</time></trkpt><trkpt lat="42.269345" lon="14.1046133"><ele>213.83333333333331</ele><time>2026-05-01T14:18:04.508Z</time></trkpt><trkpt lat="42.269425" lon="14.1046333"><ele>213.66666666666666</ele><time>2026-05-01T14:18:05.51Z</time></trkpt><trkpt lat="42.2695" lon="14.1046383"><ele>213.5</ele><time>2026-05-01T14:18:06.513Z</time></trkpt><trkpt lat="42.2695867" lon="14.1046267"><ele>213.33333333333331</ele><time>2026-05-01T14:18:07.511Z</time></trkpt><trkpt lat="42.2696783" lon="14.1046133"><ele>213.16666666666666</ele><time>2026-05-01T14:18:08.509Z</time></trkpt><trkpt lat="42.2697683" lon="14.104605"><ele>213.0</ele><time>2026-05-01T14:18:09.514Z</time></trkpt><trkpt lat="42.2698617" lon="14.1046017"><ele>214.0</ele><time>2026-05-01T14:18:10.51Z</time></trkpt><trkpt lat="42.26995" lon="14.1046033"><ele>215.0</ele><time>2026-05-01T14:18:11.51Z</time></trkpt><trkpt lat="42.2700433" lon="14.1046117"><ele>216.0</ele><time>2026-05-01T14:18:12.509Z</time></trkpt><trkpt lat="42.2701483" lon="14.1046183"><ele>217.0</ele><time>2026-05-01T14:18:13.511Z</time></trkpt><trkpt lat="42.2702483" lon="14.1046233"><ele>218.0</ele><time>2026-05-01T14:18:14.512Z</time></trkpt><trkpt lat="42.27034" lon="14.1046233"><ele>218.00000000000003</ele><time>2026-05-01T14:18:15.509Z</time></trkpt><trkpt lat="42.2704283" lon="14.104615"><ele>218.0</ele><time>2026-05-01T14:18:16.509Z</time></trkpt><trkpt lat="42.2705167" lon="14.1046067"><ele>218.0</ele><time>2026-05-01T14:18:17.509Z</time></trkpt><trkpt lat="42.2705883" lon="14.1045983"><ele>218.0</ele><time>2026-05-01T14:18:18.509Z</time></trkpt><trkpt lat="42.2706567" lon="14.1045867"><ele>218.00000000000003</ele><time>2026-05-01T14:18:19.512Z</time></trkpt><trkpt lat="42.270725" lon="14.104575"><ele>218.0</ele><time>2026-05-01T14:18:20.509Z</time></trkpt><trkpt lat="42.2707983" lon="14.1045667"><ele>217.60000000000002</ele><time>2026-05-01T14:18:21.511Z</time></trkpt><trkpt lat="42.27088" lon="14.10455"><ele>217.20000000000002</ele><time>2026-05-01T14:18:22.509Z</time></trkpt><trkpt lat="42.2709733" lon="14.10453"><ele>216.8</ele><time>2026-05-01T14:18:23.509Z</time></trkpt><trkpt lat="42.27109" lon="14.1044983"><ele>216.4</ele><time>2026-05-01T14:18:24.518Z</time></trkpt><trkpt lat="42.2712133" lon="14.1044667"><ele>216.0</ele><time>2026-05-01T14:18:25.509Z</time></trkpt><trkpt lat="42.2713283" lon="14.1044467"><ele>216.0</ele><time>2026-05-01T14:18:26.513Z</time></trkpt><trkpt lat="42.2714317" lon="14.1044333"><ele>216.0</ele><time>2026-05-01T14:18:27.509Z</time></trkpt><trkpt lat="42.2715183" lon="14.1044267"><ele>216.0</ele><time>2026-05-01T14:18:28.513Z</time></trkpt><trkpt lat="42.2715933" lon="14.1044117"><ele>216.0</ele><time>2026-05-01T14:18:29.51Z</time></trkpt><trkpt lat="42.2716683" lon="14.1043767"><ele>216.0</ele><time>2026-05-01T14:18:30.51Z</time></trkpt><trkpt lat="42.271745" lon="14.1043133"><ele>216.0</ele><time>2026-05-01T14:18:31.513Z</time></trkpt><trkpt lat="42.2718233" lon="14.104235"><ele>214.83333333333334</ele><time>2026-05-01T14:18:32.514Z</time></trkpt><trkpt lat="42.27189" lon="14.104165"><ele>213.66666666666669</ele><time>2026-05-01T14:18:33.512Z</time></trkpt><trkpt lat="42.2719467" lon="14.10409"><ele>212.5</ele><time>2026-05-01T14:18:34.513Z</time></trkpt><trkpt lat="42.2719933" lon="14.1040117"><ele>211.33333333333334</ele><time>2026-05-01T14:18:35.509Z</time></trkpt><trkpt lat="42.2720317" lon="14.1039283"><ele>210.16666666666669</ele><time>2026-05-01T14:18:36.512Z</time></trkpt><trkpt lat="42.2720633" lon="14.10384"><ele>209.0</ele><time>2026-05-01T14:18:37.51Z</time></trkpt><trkpt lat="42.2720867" lon="14.1037533"><ele>206.2</ele><time>2026-05-01T14:18:38.514Z</time></trkpt><trkpt lat="42.2721167" lon="14.1036067"><ele>203.39999999999998</ele><time>2026-05-01T14:18:40.51Z</time></trkpt><trkpt lat="42.2721383" lon="14.103495"><ele>200.6</ele><time>2026-05-01T14:18:42.513Z</time></trkpt><trkpt lat="42.2721667" lon="14.1033567"><ele>197.8</ele><time>2026-05-01T14:18:44.511Z</time></trkpt><trkpt lat="42.2721833" lon="14.103185"><ele>195.0</ele><time>2026-05-01T14:18:46.509Z</time></trkpt><trkpt lat="42.2721883" lon="14.1030933"><ele>193.16666666666666</ele><time>2026-05-01T14:18:47.508Z</time></trkpt><trkpt lat="42.2721917" lon="14.1030083"><ele>191.33333333333334</ele><time>2026-05-01T14:18:48.514Z</time></trkpt><trkpt lat="42.2722133" lon="14.10284"><ele>189.5</ele><time>2026-05-01T14:18:50.513Z</time></trkpt><trkpt lat="42.27224" lon="14.1027617"><ele>187.66666666666669</ele><time>2026-05-01T14:18:51.514Z</time></trkpt><trkpt lat="42.2722817" lon="14.1026933"><ele>185.83333333333334</ele><time>2026-05-01T14:18:52.509Z</time></trkpt><trkpt lat="42.2723417" lon="14.1026233"><ele>184.0</ele><time>2026-05-01T14:18:53.51Z</time></trkpt><trkpt lat="42.27242" lon="14.102555"><ele>185.6</ele><time>2026-05-01T14:18:54.511Z</time></trkpt><trkpt lat="42.2725067" lon="14.1024817"><ele>187.2</ele><time>2026-05-01T14:18:55.51Z</time></trkpt><trkpt lat="42.2725883" lon="14.10241"><ele>188.79999999999998</ele><time>2026-05-01T14:18:56.513Z</time></trkpt><trkpt lat="42.272665" lon="14.1023383"><ele>190.39999999999998</ele><time>2026-05-01T14:18:57.511Z</time></trkpt><trkpt lat="42.2727267" lon="14.1022567"><ele>192.0</ele><time>2026-05-01T14:18:58.512Z</time></trkpt><trkpt lat="42.2727833" lon="14.10216"><ele>192.0</ele><time>2026-05-01T14:18:59.512Z</time></trkpt><trkpt lat="42.2728217" lon="14.1020367"><ele>192.0</ele><time>2026-05-01T14:19:00.508Z</time></trkpt><trkpt lat="42.272845" lon="14.1019017"><ele>192.0</ele><time>2026-05-01T14:19:01.511Z</time></trkpt><trkpt lat="42.2728783" lon="14.101785"><ele>192.0</ele><time>2026-05-01T14:19:02.512Z</time></trkpt><trkpt lat="42.2729183" lon="14.1016783"><ele>192.0</ele><time>2026-05-01T14:19:03.512Z</time></trkpt><trkpt lat="42.2729633" lon="14.1015883"><ele>191.83333333333334</ele><time>2026-05-01T14:19:04.51Z</time></trkpt><trkpt lat="42.2730183" lon="14.1015067"><ele>191.66666666666666</ele><time>2026-05-01T14:19:05.511Z</time></trkpt><trkpt lat="42.273085" lon="14.101445"><ele>191.5</ele><time>2026-05-01T14:19:06.509Z</time></trkpt><trkpt lat="42.2731633" lon="14.101415"><ele>191.33333333333331</ele><time>2026-05-01T14:19:07.509Z</time></trkpt><trkpt lat="42.2732467" lon="14.10142"><ele>191.16666666666666</ele><time>2026-05-01T14:19:08.509Z</time></trkpt><trkpt lat="42.27335" lon="14.1014483"><ele>191.0</ele><time>2026-05-01T14:19:09.508Z</time></trkpt><trkpt lat="42.2734817" lon="14.1015"><ele>191.0</ele><time>2026-05-01T14:19:10.509Z</time></trkpt><trkpt lat="42.2736183" lon="14.1015533"><ele>191.0</ele><time>2026-05-01T14:19:11.509Z</time></trkpt><trkpt lat="42.2737533" lon="14.1016183"><ele>191.0</ele><time>2026-05-01T14:19:12.509Z</time></trkpt><trkpt lat="42.2738817" lon="14.10168"><ele>191.0</ele><time>2026-05-01T14:19:13.509Z</time></trkpt><trkpt lat="42.2739983" lon="14.10173"><ele>189.8</ele><time>2026-05-01T14:19:14.51Z</time></trkpt><trkpt lat="42.2741033" lon="14.1017617"><ele>188.60000000000002</ele><time>2026-05-01T14:19:15.51Z</time></trkpt><trkpt lat="42.27421" lon="14.10178"><ele>187.4</ele><time>2026-05-01T14:19:16.511Z</time></trkpt><trkpt lat="42.2743183" lon="14.1017733"><ele>186.2</ele><time>2026-05-01T14:19:17.51Z</time></trkpt><trkpt lat="42.2744267" lon="14.101745"><ele>185.0</ele><time>2026-05-01T14:19:18.51Z</time></trkpt><trkpt lat="42.27453" lon="14.1016983"><ele>185.0</ele><time>2026-05-01T14:19:19.508Z</time></trkpt><trkpt lat="42.2746233" lon="14.1016283"><ele>185.0</ele><time>2026-05-01T14:19:20.509Z</time></trkpt><trkpt lat="42.2747083" lon="14.101545"><ele>185.0</ele><time>2026-05-01T14:19:21.508Z</time></trkpt><trkpt lat="42.2747833" lon="14.1014367"><ele>185.0</ele><time>2026-05-01T14:19:22.511Z</time></trkpt><trkpt lat="42.2748617" lon="14.101335"><ele>185.0</ele><time>2026-05-01T14:19:23.51Z</time></trkpt><trkpt lat="42.2749233" lon="14.1012183"><ele>183.8</ele><time>2026-05-01T14:19:24.51Z</time></trkpt><trkpt lat="42.2749717" lon="14.1010867"><ele>182.6</ele><time>2026-05-01T14:19:25.509Z</time></trkpt><trkpt lat="42.2750133" lon="14.1009517"><ele>181.39999999999998</ele><time>2026-05-01T14:19:26.516Z</time></trkpt><trkpt lat="42.2750617" lon="14.100815"><ele>180.2</ele><time>2026-05-01T14:19:27.511Z</time></trkpt><trkpt lat="42.2751167" lon="14.1006817"><ele>179.0</ele><time>2026-05-01T14:19:28.512Z</time></trkpt><trkpt lat="42.2751783" lon="14.100555"><ele>177.75</ele><time>2026-05-01T14:19:29.51Z</time></trkpt><trkpt lat="42.2752367" lon="14.1004267"><ele>176.5</ele><time>2026-05-01T14:19:30.51Z</time></trkpt><trkpt lat="42.2752867" lon="14.1002883"><ele>175.25</ele><time>2026-05-01T14:19:31.511Z</time></trkpt><trkpt lat="42.2753433" lon="14.100145"><ele>174.0</ele><time>2026-05-01T14:19:32.511Z</time></trkpt><trkpt lat="42.2753967" lon="14.0999983"><ele>174.2</ele><time>2026-05-01T14:19:33.511Z</time></trkpt><trkpt lat="42.2754417" lon="14.09986"><ele>174.39999999999998</ele><time>2026-05-01T14:19:34.511Z</time></trkpt><trkpt lat="42.2754783" lon="14.099725"><ele>174.6</ele><time>2026-05-01T14:19:35.51Z</time></trkpt><trkpt lat="42.2755033" lon="14.09958"><ele>174.8</ele><time>2026-05-01T14:19:36.515Z</time></trkpt><trkpt lat="42.2754983" lon="14.0994183"><ele>175.0</ele><time>2026-05-01T14:19:37.51Z</time></trkpt><trkpt lat="42.2754733" lon="14.09924"><ele>176.66666666666669</ele><time>2026-05-01T14:19:38.512Z</time></trkpt><trkpt lat="42.2754333" lon="14.0990483"><ele>178.33333333333334</ele><time>2026-05-01T14:19:39.51Z</time></trkpt><trkpt lat="42.275395" lon="14.0988467"><ele>180.0</ele><time>2026-05-01T14:19:40.511Z</time></trkpt><trkpt lat="42.2753683" lon="14.0986383"><ele>180.0</ele><time>2026-05-01T14:19:41.514Z</time></trkpt><trkpt lat="42.2753467" lon="14.0984333"><ele>180.0</ele><time>2026-05-01T14:19:42.515Z</time></trkpt><trkpt lat="42.275325" lon="14.0982467"><ele>180.0</ele><time>2026-05-01T14:19:43.512Z</time></trkpt><trkpt lat="42.2753133" lon="14.0980683"><ele>180.0</ele><time>2026-05-01T14:19:44.511Z</time></trkpt><trkpt lat="42.2753067" lon="14.0978933"><ele>180.0</ele><time>2026-05-01T14:19:45.509Z</time></trkpt><trkpt lat="42.2753067" lon="14.09772"><ele>180.0</ele><time>2026-05-01T14:19:46.511Z</time></trkpt><trkpt lat="42.275315" lon="14.0975583"><ele>180.0</ele><time>2026-05-01T14:19:47.513Z</time></trkpt><trkpt lat="42.2753283" lon="14.0974083"><ele>180.0</ele><time>2026-05-01T14:19:48.509Z</time></trkpt><trkpt lat="42.27534" lon="14.097265"><ele>179.0</ele><time>2026-05-01T14:19:49.508Z</time></trkpt><trkpt lat="42.2753533" lon="14.097125"><ele>178.0</ele><time>2026-05-01T14:19:50.51Z</time></trkpt><trkpt lat="42.2753633" lon="14.096985"><ele>177.0</ele><time>2026-05-01T14:19:51.509Z</time></trkpt><trkpt lat="42.2753717" lon="14.0968467"><ele>176.0</ele><time>2026-05-01T14:19:52.51Z</time></trkpt><trkpt lat="42.2753767" lon="14.0967083"><ele>175.0</ele><time>2026-05-01T14:19:53.511Z</time></trkpt><trkpt lat="42.2753883" lon="14.0965683"><ele>173.6</ele><time>2026-05-01T14:19:54.512Z</time></trkpt><trkpt lat="42.2754067" lon="14.096425"><ele>172.2</ele><time>2026-05-01T14:19:55.511Z</time></trkpt><trkpt lat="42.2754167" lon="14.0962783"><ele>170.8</ele><time>2026-05-01T14:19:56.511Z</time></trkpt><trkpt lat="42.27543" lon="14.0961333"><ele>169.4</ele><time>2026-05-01T14:19:57.51Z</time></trkpt><trkpt lat="42.2754533" lon="14.09599"><ele>168.0</ele><time>2026-05-01T14:19:58.51Z</time></trkpt><trkpt lat="42.275485" lon="14.0958517"><ele>166.60000000000002</ele><time>2026-05-01T14:19:59.508Z</time></trkpt><trkpt lat="42.2755167" lon="14.0957133"><ele>165.20000000000002</ele><time>2026-05-01T14:20:00.509Z</time></trkpt><trkpt lat="42.2755367" lon="14.0955717"><ele>163.8</ele><time>2026-05-01T14:20:01.515Z</time></trkpt><trkpt lat="42.2755417" lon="14.095445"><ele>162.4</ele><time>2026-05-01T14:20:02.509Z</time></trkpt><trkpt lat="42.2755517" lon="14.09533"><ele>161.0</ele><time>2026-05-01T14:20:03.51Z</time></trkpt><trkpt lat="42.2755567" lon="14.0952367"><ele>161.8</ele><time>2026-05-01T14:20:04.512Z</time></trkpt><trkpt lat="42.27565" lon="14.0951083"><ele>162.60000000000002</ele><time>2026-05-01T14:20:06.514Z</time></trkpt><trkpt lat="42.2757167" lon="14.09504"><ele>163.4</ele><time>2026-05-01T14:20:07.512Z</time></trkpt><trkpt lat="42.2758083" lon="14.0949733"><ele>164.2</ele><time>2026-05-01T14:20:08.511Z</time></trkpt><trkpt lat="42.275915" lon="14.0949133"><ele>165.0</ele><time>2026-05-01T14:20:09.511Z</time></trkpt><trkpt lat="42.2760183" lon="14.094865"><ele>162.8</ele><time>2026-05-01T14:20:10.51Z</time></trkpt><trkpt lat="42.2761133" lon="14.094815"><ele>160.6</ele><time>2026-05-01T14:20:11.515Z</time></trkpt><trkpt lat="42.2762017" lon="14.094765"><ele>158.4</ele><time>2026-05-01T14:20:12.514Z</time></trkpt><trkpt lat="42.27629" lon="14.0947183"><ele>156.2</ele><time>2026-05-01T14:20:13.511Z</time></trkpt><trkpt lat="42.276375" lon="14.0946633"><ele>154.0</ele><time>2026-05-01T14:20:14.51Z</time></trkpt><trkpt lat="42.2764567" lon="14.0946117"><ele>154.0</ele><time>2026-05-01T14:20:15.509Z</time></trkpt><trkpt lat="42.276535" lon="14.0945717"><ele>154.0</ele><time>2026-05-01T14:20:16.51Z</time></trkpt><trkpt lat="42.2766033" lon="14.09451"><ele>154.0</ele><time>2026-05-01T14:20:17.512Z</time></trkpt><trkpt lat="42.2766733" lon="14.0944417"><ele>154.0</ele><time>2026-05-01T14:20:18.511Z</time></trkpt><trkpt lat="42.2767333" lon="14.0943617"><ele>154.0</ele><time>2026-05-01T14:20:19.511Z</time></trkpt><trkpt lat="42.2767783" lon="14.0942417"><ele>154.0</ele><time>2026-05-01T14:20:20.51Z</time></trkpt><trkpt lat="42.276815" lon="14.0940967"><ele>151.75</ele><time>2026-05-01T14:20:21.509Z</time></trkpt><trkpt lat="42.27685" lon="14.0939367"><ele>149.5</ele><time>2026-05-01T14:20:22.51Z</time></trkpt><trkpt lat="42.2768867" lon="14.0937633"><ele>147.25</ele><time>2026-05-01T14:20:23.514Z</time></trkpt><trkpt lat="42.276925" lon="14.0935783"><ele>145.0</ele><time>2026-05-01T14:20:24.512Z</time></trkpt><trkpt lat="42.27697" lon="14.0933917"><ele>142.75</ele><time>2026-05-01T14:20:25.509Z</time></trkpt><trkpt lat="42.2770133" lon="14.09321"><ele>140.5</ele><time>2026-05-01T14:20:26.512Z</time></trkpt><trkpt lat="42.2770467" lon="14.0930417"><ele>138.25</ele><time>2026-05-01T14:20:27.512Z</time></trkpt><trkpt lat="42.2770733" lon="14.0928833"><ele>136.0</ele><time>2026-05-01T14:20:28.511Z</time></trkpt><trkpt lat="42.27709" lon="14.092735"><ele>136.0</ele><time>2026-05-01T14:20:29.511Z</time></trkpt><trkpt lat="42.2770967" lon="14.0925933"><ele>136.0</ele><time>2026-05-01T14:20:30.512Z</time></trkpt><trkpt lat="42.2771" lon="14.0924533"><ele>136.0</ele><time>2026-05-01T14:20:31.511Z</time></trkpt><trkpt lat="42.2771" lon="14.092315"><ele>136.0</ele><time>2026-05-01T14:20:32.512Z</time></trkpt><trkpt lat="42.2771" lon="14.09217"><ele>136.0</ele><time>2026-05-01T14:20:33.511Z</time></trkpt><trkpt lat="42.2771083" lon="14.09202"><ele>134.2</ele><time>2026-05-01T14:20:34.51Z</time></trkpt><trkpt lat="42.2771167" lon="14.09187"><ele>132.39999999999998</ele><time>2026-05-01T14:20:35.512Z</time></trkpt><trkpt lat="42.2771217" lon="14.091725"><ele>130.6</ele><time>2026-05-01T14:20:36.514Z</time></trkpt><trkpt lat="42.2771333" lon="14.0915833"><ele>128.79999999999998</ele><time>2026-05-01T14:20:37.512Z</time></trkpt><trkpt lat="42.277155" lon="14.0914467"><ele>127.0</ele><time>2026-05-01T14:20:38.511Z</time></trkpt><trkpt lat="42.2771867" lon="14.0913183"><ele>128.0</ele><time>2026-05-01T14:20:39.512Z</time></trkpt><trkpt lat="42.2772233" lon="14.0912067"><ele>129.0</ele><time>2026-05-01T14:20:40.509Z</time></trkpt><trkpt lat="42.277265" lon="14.091115"><ele>130.0</ele><time>2026-05-01T14:20:41.51Z</time></trkpt><trkpt lat="42.2773133" lon="14.0910483"><ele>131.0</ele><time>2026-05-01T14:20:42.513Z</time></trkpt><trkpt lat="42.27737" lon="14.091005"><ele>132.0</ele><time>2026-05-01T14:20:43.511Z</time></trkpt><trkpt lat="42.2774417" lon="14.09098"><ele>133.0</ele><time>2026-05-01T14:20:44.514Z</time></trkpt><trkpt lat="42.2775333" lon="14.0909883"><ele>133.0</ele><time>2026-05-01T14:20:45.509Z</time></trkpt><trkpt lat="42.27764" lon="14.0910433"><ele>133.0</ele><time>2026-05-01T14:20:46.509Z</time></trkpt><trkpt lat="42.2777483" lon="14.0911117"><ele>133.0</ele><time>2026-05-01T14:20:47.509Z</time></trkpt><trkpt lat="42.2778383" lon="14.0911633"><ele>133.0</ele><time>2026-05-01T14:20:48.51Z</time></trkpt><trkpt lat="42.277915" lon="14.091195"><ele>133.0</ele><time>2026-05-01T14:20:49.511Z</time></trkpt><trkpt lat="42.2779883" lon="14.091185"><ele>133.0</ele><time>2026-05-01T14:20:50.51Z</time></trkpt><trkpt lat="42.278075" lon="14.0910783"><ele>133.0</ele><time>2026-05-01T14:20:52.51Z</time></trkpt><trkpt lat="42.2780883" lon="14.0909317"><ele>133.0</ele><time>2026-05-01T14:20:54.514Z</time></trkpt><trkpt lat="42.2780583" lon="14.090765"><ele>133.0</ele><time>2026-05-01T14:20:56.51Z</time></trkpt><trkpt lat="42.2780533" lon="14.09065"><ele>133.0</ele><time>2026-05-01T14:20:58.509Z</time></trkpt><trkpt lat="42.278135" lon="14.0906933"><ele>130.4</ele><time>2026-05-01T14:21:02.51Z</time></trkpt><trkpt lat="42.278195" lon="14.0908383"><ele>127.80000000000001</ele><time>2026-05-01T14:21:04.513Z</time></trkpt><trkpt lat="42.27824" lon="14.0909367"><ele>125.2</ele><time>2026-05-01T14:21:05.51Z</time></trkpt><trkpt lat="42.278275" lon="14.09105"><ele>122.6</ele><time>2026-05-01T14:21:06.511Z</time></trkpt><trkpt lat="42.2783083" lon="14.0911683"><ele>120.0</ele><time>2026-05-01T14:21:07.51Z</time></trkpt><trkpt lat="42.2783417" lon="14.091295"><ele>120.0</ele><time>2026-05-01T14:21:08.51Z</time></trkpt><trkpt lat="42.2783717" lon="14.0914333"><ele>120.0</ele><time>2026-05-01T14:21:09.513Z</time></trkpt><trkpt lat="42.2783933" lon="14.0915867"><ele>120.0</ele><time>2026-05-01T14:21:10.512Z</time></trkpt><trkpt lat="42.27842" lon="14.0917383"><ele>120.0</ele><time>2026-05-01T14:21:11.511Z</time></trkpt><trkpt lat="42.2784483" lon="14.09189"><ele>121.0</ele><time>2026-05-01T14:21:12.513Z</time></trkpt><trkpt lat="42.278475" lon="14.0920417"><ele>122.0</ele><time>2026-05-01T14:21:13.511Z</time></trkpt><trkpt lat="42.2784983" lon="14.0921933"><ele>123.0</ele><time>2026-05-01T14:21:14.51Z</time></trkpt><trkpt lat="42.2785133" lon="14.09234"><ele>124.0</ele><time>2026-05-01T14:21:15.509Z</time></trkpt><trkpt lat="42.27853" lon="14.0924883"><ele>124.2</ele><time>2026-05-01T14:21:16.511Z</time></trkpt><trkpt lat="42.2785517" lon="14.0926367"><ele>124.4</ele><time>2026-05-01T14:21:17.509Z</time></trkpt><trkpt lat="42.2785783" lon="14.0927717"><ele>124.6</ele><time>2026-05-01T14:21:18.513Z</time></trkpt><trkpt lat="42.27861" lon="14.0928967"><ele>124.8</ele><time>2026-05-01T14:21:19.509Z</time></trkpt><trkpt lat="42.27866" lon="14.0930017"><ele>125.0</ele><time>2026-05-01T14:21:20.51Z</time></trkpt><trkpt lat="42.278715" lon="14.09309"><ele>124.99999999999999</ele><time>2026-05-01T14:21:21.513Z</time></trkpt><trkpt lat="42.2787833" lon="14.0931567"><ele>125.0</ele><time>2026-05-01T14:21:22.509Z</time></trkpt><trkpt lat="42.2788583" lon="14.0932033"><ele>125.0</ele><time>2026-05-01T14:21:23.509Z</time></trkpt><trkpt lat="42.2789383" lon="14.093215"><ele>125.0</ele><time>2026-05-01T14:21:24.51Z</time></trkpt><trkpt lat="42.27903" lon="14.0931983"><ele>124.99999999999999</ele><time>2026-05-01T14:21:25.511Z</time></trkpt><trkpt lat="42.2791283" lon="14.0931733"><ele>125.0</ele><time>2026-05-01T14:21:26.509Z</time></trkpt><trkpt lat="42.2792233" lon="14.0931567"><ele>123.2</ele><time>2026-05-01T14:21:27.51Z</time></trkpt><trkpt lat="42.2793183" lon="14.09315"><ele>121.4</ele><time>2026-05-01T14:21:28.515Z</time></trkpt><trkpt lat="42.2794083" lon="14.09317"><ele>119.6</ele><time>2026-05-01T14:21:29.509Z</time></trkpt><trkpt lat="42.279495" lon="14.0932117"><ele>117.8</ele><time>2026-05-01T14:21:30.51Z</time></trkpt><trkpt lat="42.279575" lon="14.0932883"><ele>116.0</ele><time>2026-05-01T14:21:31.509Z</time></trkpt><trkpt lat="42.27964" lon="14.09342"><ele>116.0</ele><time>2026-05-01T14:21:32.514Z</time></trkpt><trkpt lat="42.2797167" lon="14.09354"><ele>116.0</ele><time>2026-05-01T14:21:33.513Z</time></trkpt><trkpt lat="42.2798033" lon="14.0936417"><ele>116.0</ele><time>2026-05-01T14:21:34.512Z</time></trkpt><trkpt lat="42.2798817" lon="14.0937383"><ele>116.0</ele><time>2026-05-01T14:21:35.511Z</time></trkpt><trkpt lat="42.27995" lon="14.093815"><ele>116.0</ele><time>2026-05-01T14:21:36.51Z</time></trkpt><trkpt lat="42.2800117" lon="14.0938783"><ele>113.0</ele><time>2026-05-01T14:21:37.512Z</time></trkpt><trkpt lat="42.28007" lon="14.0939383"><ele>110.0</ele><time>2026-05-01T14:21:38.511Z</time></trkpt><trkpt lat="42.2801083" lon="14.09403"><ele>107.0</ele><time>2026-05-01T14:21:39.509Z</time></trkpt><trkpt lat="42.2801367" lon="14.0941533"><ele>104.0</ele><time>2026-05-01T14:21:40.512Z</time></trkpt><trkpt lat="42.2801383" lon="14.0943117"><ele>101.0</ele><time>2026-05-01T14:21:41.512Z</time></trkpt><trkpt lat="42.2801333" lon="14.0944833"><ele>100.75</ele><time>2026-05-01T14:21:42.51Z</time></trkpt><trkpt lat="42.2801433" lon="14.0946583"><ele>100.5</ele><time>2026-05-01T14:21:43.51Z</time></trkpt><trkpt lat="42.2801517" lon="14.0948467"><ele>100.25</ele><time>2026-05-01T14:21:44.513Z</time></trkpt><trkpt lat="42.28016" lon="14.0950383"><ele>100.0</ele><time>2026-05-01T14:21:45.512Z</time></trkpt><trkpt lat="42.280175" lon="14.0952267"><ele>100.0</ele><time>2026-05-01T14:21:46.509Z</time></trkpt><trkpt lat="42.280185" lon="14.0954133"><ele>100.0</ele><time>2026-05-01T14:21:47.512Z</time></trkpt><trkpt lat="42.2802" lon="14.0956"><ele>100.0</ele><time>2026-05-01T14:21:48.515Z</time></trkpt><trkpt lat="42.2802083" lon="14.0957917"><ele>100.0</ele><time>2026-05-01T14:21:49.513Z</time></trkpt><trkpt lat="42.28023" lon="14.0959767"><ele>100.0</ele><time>2026-05-01T14:21:50.513Z</time></trkpt><trkpt lat="42.2802483" lon="14.0961667"><ele>100.0</ele><time>2026-05-01T14:21:51.512Z</time></trkpt><trkpt lat="42.2802783" lon="14.09635"><ele>100.0</ele><time>2026-05-01T14:21:52.514Z</time></trkpt><trkpt lat="42.2803067" lon="14.0965283"><ele>100.0</ele><time>2026-05-01T14:21:53.511Z</time></trkpt><trkpt lat="42.2803483" lon="14.096695"><ele>100.75</ele><time>2026-05-01T14:21:54.515Z</time></trkpt><trkpt lat="42.28039" lon="14.0968567"><ele>101.5</ele><time>2026-05-01T14:21:55.512Z</time></trkpt><trkpt lat="42.28042" lon="14.09702"><ele>102.25</ele><time>2026-05-01T14:21:56.514Z</time></trkpt><trkpt lat="42.2804317" lon="14.097185"><ele>103.0</ele><time>2026-05-01T14:21:57.509Z</time></trkpt><trkpt lat="42.2804333" lon="14.097355"><ele>103.0</ele><time>2026-05-01T14:21:58.513Z</time></trkpt><trkpt lat="42.2804467" lon="14.0975333"><ele>103.0</ele><time>2026-05-01T14:21:59.513Z</time></trkpt><trkpt lat="42.2804783" lon="14.09771"><ele>103.0</ele><time>2026-05-01T14:22:00.513Z</time></trkpt><trkpt lat="42.28051" lon="14.0979"><ele>103.0</ele><time>2026-05-01T14:22:01.514Z</time></trkpt><trkpt lat="42.2805467" lon="14.0981"><ele>103.66666666666667</ele><time>2026-05-01T14:22:02.514Z</time></trkpt><trkpt lat="42.28059" lon="14.098305"><ele>104.33333333333334</ele><time>2026-05-01T14:22:03.513Z</time></trkpt><trkpt lat="42.2806283" lon="14.0985167"><ele>105.0</ele><time>2026-05-01T14:22:04.514Z</time></trkpt><trkpt lat="42.2806767" lon="14.0987217"><ele>106.66666666666666</ele><time>2026-05-01T14:22:05.513Z</time></trkpt><trkpt lat="42.2807183" lon="14.0989267"><ele>108.33333333333333</ele><time>2026-05-01T14:22:06.513Z</time></trkpt><trkpt lat="42.280765" lon="14.099125"><ele>110.0</ele><time>2026-05-01T14:22:07.512Z</time></trkpt><trkpt lat="42.2808017" lon="14.0993083"><ele>111.4</ele><time>2026-05-01T14:22:08.514Z</time></trkpt><trkpt lat="42.2808367" lon="14.0994617"><ele>112.8</ele><time>2026-05-01T14:22:09.517Z</time></trkpt><trkpt lat="42.2808667" lon="14.0995833"><ele>114.19999999999999</ele><time>2026-05-01T14:22:10.512Z</time></trkpt><trkpt lat="42.280895" lon="14.0996933"><ele>115.6</ele><time>2026-05-01T14:22:11.512Z</time></trkpt><trkpt lat="42.28092" lon="14.0997933"><ele>117.0</ele><time>2026-05-01T14:22:12.512Z</time></trkpt><trkpt lat="42.28094" lon="14.0998883"><ele>118.16666666666667</ele><time>2026-05-01T14:22:13.513Z</time></trkpt><trkpt lat="42.28096" lon="14.0999717"><ele>119.33333333333334</ele><time>2026-05-01T14:22:14.513Z</time></trkpt><trkpt lat="42.2810083" lon="14.10009"><ele>120.5</ele><time>2026-05-01T14:22:16.513Z</time></trkpt><trkpt lat="42.2810783" lon="14.1002083"><ele>121.66666666666667</ele><time>2026-05-01T14:22:18.512Z</time></trkpt><trkpt lat="42.2811167" lon="14.100285"><ele>122.83333333333334</ele><time>2026-05-01T14:22:19.51Z</time></trkpt><trkpt lat="42.2811583" lon="14.10037"><ele>124.0</ele><time>2026-05-01T14:22:20.515Z</time></trkpt><trkpt lat="42.281205" lon="14.1004467"><ele>124.00000000000001</ele><time>2026-05-01T14:22:21.51Z</time></trkpt><trkpt lat="42.2812533" lon="14.100525"><ele>124.0</ele><time>2026-05-01T14:22:22.511Z</time></trkpt><trkpt lat="42.2813" lon="14.1006083"><ele>124.0</ele><time>2026-05-01T14:22:23.511Z</time></trkpt><trkpt lat="42.2813533" lon="14.1006983"><ele>124.0</ele><time>2026-05-01T14:22:24.51Z</time></trkpt><trkpt lat="42.2814017" lon="14.1007933"><ele>124.00000000000001</ele><time>2026-05-01T14:22:25.511Z</time></trkpt><trkpt lat="42.2814583" lon="14.1008883"><ele>124.0</ele><time>2026-05-01T14:22:26.51Z</time></trkpt><trkpt lat="42.28151" lon="14.1009983"><ele>124.0</ele><time>2026-05-01T14:22:27.514Z</time></trkpt><trkpt lat="42.2815667" lon="14.1011183"><ele>124.0</ele><time>2026-05-01T14:22:28.51Z</time></trkpt><trkpt lat="42.2816267" lon="14.10126"><ele>124.0</ele><time>2026-05-01T14:22:29.509Z</time></trkpt><trkpt lat="42.2816933" lon="14.1014083"><ele>124.0</ele><time>2026-05-01T14:22:30.509Z</time></trkpt><trkpt lat="42.2817633" lon="14.1015383"><ele>125.80000000000001</ele><time>2026-05-01T14:22:31.512Z</time></trkpt><trkpt lat="42.2818267" lon="14.1016567"><ele>127.60000000000001</ele><time>2026-05-01T14:22:32.513Z</time></trkpt><trkpt lat="42.2818833" lon="14.1017817"><ele>129.4</ele><time>2026-05-01T14:22:33.51Z</time></trkpt><trkpt lat="42.281935" lon="14.1019133"><ele>131.20000000000002</ele><time>2026-05-01T14:22:34.514Z</time></trkpt><trkpt lat="42.281995" lon="14.1020467"><ele>133.0</ele><time>2026-05-01T14:22:35.511Z</time></trkpt><trkpt lat="42.2820567" lon="14.10219"><ele>133.0</ele><time>2026-05-01T14:22:36.509Z</time></trkpt><trkpt lat="42.28212" lon="14.1023283"><ele>133.0</ele><time>2026-05-01T14:22:37.511Z</time></trkpt><trkpt lat="42.2821783" lon="14.102455"><ele>133.0</ele><time>2026-05-01T14:22:38.509Z</time></trkpt><trkpt lat="42.282225" lon="14.1025783"><ele>133.0</ele><time>2026-05-01T14:22:39.51Z</time></trkpt><trkpt lat="42.2822817" lon="14.102705"><ele>133.0</ele><time>2026-05-01T14:22:40.51Z</time></trkpt><trkpt lat="42.2823417" lon="14.10284"><ele>132.0</ele><time>2026-05-01T14:22:41.511Z</time></trkpt><trkpt lat="42.2824" lon="14.102985"><ele>131.0</ele><time>2026-05-01T14:22:42.509Z</time></trkpt><trkpt lat="42.28246" lon="14.1031367"><ele>130.0</ele><time>2026-05-01T14:22:43.509Z</time></trkpt><trkpt lat="42.2825233" lon="14.10328"><ele>129.0</ele><time>2026-05-01T14:22:44.512Z</time></trkpt><trkpt lat="42.2825817" lon="14.10342"><ele>129.0</ele><time>2026-05-01T14:22:45.509Z</time></trkpt><trkpt lat="42.2826367" lon="14.103565"><ele>129.0</ele><time>2026-05-01T14:22:46.509Z</time></trkpt><trkpt lat="42.2826833" lon="14.1037033"><ele>129.0</ele><time>2026-05-01T14:22:47.513Z</time></trkpt><trkpt lat="42.2827333" lon="14.1038267"><ele>129.0</ele><time>2026-05-01T14:22:48.517Z</time></trkpt><trkpt lat="42.2827783" lon="14.1039367"><ele>129.0</ele><time>2026-05-01T14:22:49.513Z</time></trkpt><trkpt lat="42.2828167" lon="14.104045"><ele>130.16666666666666</ele><time>2026-05-01T14:22:50.511Z</time></trkpt><trkpt lat="42.2828517" lon="14.104145"><ele>131.33333333333334</ele><time>2026-05-01T14:22:51.513Z</time></trkpt><trkpt lat="42.2828917" lon="14.1042383"><ele>132.5</ele><time>2026-05-01T14:22:52.512Z</time></trkpt><trkpt lat="42.2829267" lon="14.104335"><ele>133.66666666666669</ele><time>2026-05-01T14:22:53.512Z</time></trkpt><trkpt lat="42.2829583" lon="14.104425"><ele>134.83333333333334</ele><time>2026-05-01T14:22:54.512Z</time></trkpt><trkpt lat="42.282995" lon="14.10452"><ele>136.0</ele><time>2026-05-01T14:22:55.509Z</time></trkpt><trkpt lat="42.283025" lon="14.1046167"><ele>136.0</ele><time>2026-05-01T14:22:56.513Z</time></trkpt><trkpt lat="42.2830583" lon="14.10471"><ele>136.0</ele><time>2026-05-01T14:22:57.51Z</time></trkpt><trkpt lat="42.2831033" lon="14.1048083"><ele>136.0</ele><time>2026-05-01T14:22:58.51Z</time></trkpt><trkpt lat="42.283145" lon="14.1049233"><ele>136.0</ele><time>2026-05-01T14:22:59.511Z</time></trkpt><trkpt lat="42.2831967" lon="14.1050467"><ele>136.0</ele><time>2026-05-01T14:23:00.512Z</time></trkpt><trkpt lat="42.2832467" lon="14.105185"><ele>134.4</ele><time>2026-05-01T14:23:01.513Z</time></trkpt><trkpt lat="42.2832933" lon="14.105325"><ele>132.8</ele><time>2026-05-01T14:23:02.509Z</time></trkpt><trkpt lat="42.2833317" lon="14.105455"><ele>131.20000000000002</ele><time>2026-05-01T14:23:03.51Z</time></trkpt><trkpt lat="42.2833783" lon="14.1055717"><ele>129.6</ele><time>2026-05-01T14:23:04.511Z</time></trkpt><trkpt lat="42.28342" lon="14.105695"><ele>128.0</ele><time>2026-05-01T14:23:05.511Z</time></trkpt><trkpt lat="42.28346" lon="14.1058133"><ele>128.0</ele><time>2026-05-01T14:23:06.512Z</time></trkpt><trkpt lat="42.2834967" lon="14.1059183"><ele>128.0</ele><time>2026-05-01T14:23:07.509Z</time></trkpt><trkpt lat="42.2835383" lon="14.1060167"><ele>128.0</ele><time>2026-05-01T14:23:08.512Z</time></trkpt><trkpt lat="42.2835817" lon="14.1061217"><ele>128.0</ele><time>2026-05-01T14:23:09.511Z</time></trkpt><trkpt lat="42.2836183" lon="14.1062383"><ele>128.0</ele><time>2026-05-01T14:23:10.51Z</time></trkpt><trkpt lat="42.2836567" lon="14.10636"><ele>128.0</ele><time>2026-05-01T14:23:11.512Z</time></trkpt><trkpt lat="42.2836933" lon="14.1064983"><ele>128.0</ele><time>2026-05-01T14:23:12.51Z</time></trkpt><trkpt lat="42.2837417" lon="14.106625"><ele>128.0</ele><time>2026-05-01T14:23:13.512Z</time></trkpt><trkpt lat="42.283785" lon="14.1067567"><ele>128.0</ele><time>2026-05-01T14:23:14.51Z</time></trkpt><trkpt lat="42.2838267" lon="14.1068883"><ele>128.0</ele><time>2026-05-01T14:23:15.509Z</time></trkpt><trkpt lat="42.283865" lon="14.107015"><ele>128.16666666666666</ele><time>2026-05-01T14:23:16.51Z</time></trkpt><trkpt lat="42.283905" lon="14.1071317"><ele>128.33333333333331</ele><time>2026-05-01T14:23:17.512Z</time></trkpt><trkpt lat="42.2839383" lon="14.10724"><ele>128.5</ele><time>2026-05-01T14:23:18.511Z</time></trkpt><trkpt lat="42.2839717" lon="14.107345"><ele>128.66666666666666</ele><time>2026-05-01T14:23:19.515Z</time></trkpt><trkpt lat="42.2840017" lon="14.1074517"><ele>128.83333333333334</ele><time>2026-05-01T14:23:20.513Z</time></trkpt><trkpt lat="42.2840367" lon="14.1075583"><ele>129.0</ele><time>2026-05-01T14:23:21.512Z</time></trkpt><trkpt lat="42.2840683" lon="14.107665"><ele>129.0</ele><time>2026-05-01T14:23:22.51Z</time></trkpt><trkpt lat="42.2840983" lon="14.1077817"><ele>129.0</ele><time>2026-05-01T14:23:23.511Z</time></trkpt><trkpt lat="42.2841333" lon="14.1079"><ele>129.0</ele><time>2026-05-01T14:23:24.514Z</time></trkpt><trkpt lat="42.284165" lon="14.1080183"><ele>129.0</ele><time>2026-05-01T14:23:25.51Z</time></trkpt><trkpt lat="42.2842" lon="14.1081283"><ele>129.0</ele><time>2026-05-01T14:23:26.517Z</time></trkpt><trkpt lat="42.284235" lon="14.1082317"><ele>129.5</ele><time>2026-05-01T14:23:27.51Z</time></trkpt><trkpt lat="42.2842667" lon="14.1083333"><ele>130.0</ele><time>2026-05-01T14:23:28.517Z</time></trkpt><trkpt lat="42.284305" lon="14.108425"><ele>130.5</ele><time>2026-05-01T14:23:29.51Z</time></trkpt><trkpt lat="42.2843367" lon="14.1085133"><ele>131.0</ele><time>2026-05-01T14:23:30.509Z</time></trkpt><trkpt lat="42.2843633" lon="14.1085917"><ele>131.5</ele><time>2026-05-01T14:23:31.513Z</time></trkpt><trkpt lat="42.2844183" lon="14.1087217"><ele>132.0</ele><time>2026-05-01T14:23:33.509Z</time></trkpt><trkpt lat="42.284465" lon="14.1088683"><ele>132.0</ele><time>2026-05-01T14:23:35.513Z</time></trkpt><trkpt lat="42.2844917" lon="14.10895"><ele>132.0</ele><time>2026-05-01T14:23:36.51Z</time></trkpt><trkpt lat="42.2845217" lon="14.1090267"><ele>132.0</ele><time>2026-05-01T14:23:37.513Z</time></trkpt><trkpt lat="42.2845767" lon="14.1091717"><ele>132.0</ele><time>2026-05-01T14:23:39.511Z</time></trkpt><trkpt lat="42.2846083" lon="14.1092583"><ele>132.0</ele><time>2026-05-01T14:23:40.511Z</time></trkpt><trkpt lat="42.2846433" lon="14.1093517"><ele>132.0</ele><time>2026-05-01T14:23:41.511Z</time></trkpt><trkpt lat="42.2846733" lon="14.1094433"><ele>132.83333333333334</ele><time>2026-05-01T14:23:42.509Z</time></trkpt><trkpt lat="42.2847083" lon="14.1095367"><ele>133.66666666666666</ele><time>2026-05-01T14:23:43.509Z</time></trkpt><trkpt lat="42.2847467" lon="14.1096317"><ele>134.5</ele><time>2026-05-01T14:23:44.514Z</time></trkpt><trkpt lat="42.2847933" lon="14.1097233"><ele>135.33333333333331</ele><time>2026-05-01T14:23:45.509Z</time></trkpt><trkpt lat="42.28484" lon="14.1098283"><ele>136.16666666666666</ele><time>2026-05-01T14:23:46.511Z</time></trkpt><trkpt lat="42.28489" lon="14.1099467"><ele>137.0</ele><time>2026-05-01T14:23:47.511Z</time></trkpt><trkpt lat="42.28493" lon="14.1100783"><ele>134.5</ele><time>2026-05-01T14:23:48.511Z</time></trkpt><trkpt lat="42.2849733" lon="14.11022"><ele>132.0</ele><time>2026-05-01T14:23:49.511Z</time></trkpt><trkpt lat="42.28501" lon="14.110375"><ele>129.5</ele><time>2026-05-01T14:23:50.513Z</time></trkpt><trkpt lat="42.285055" lon="14.11052"><ele>127.0</ele><time>2026-05-01T14:23:51.514Z</time></trkpt><trkpt lat="42.2850967" lon="14.1106533"><ele>128.6</ele><time>2026-05-01T14:23:52.511Z</time></trkpt><trkpt lat="42.2851333" lon="14.1107933"><ele>130.2</ele><time>2026-05-01T14:23:53.513Z</time></trkpt><trkpt lat="42.2851717" lon="14.1109333"><ele>131.8</ele><time>2026-05-01T14:23:54.511Z</time></trkpt><trkpt lat="42.285205" lon="14.1110683"><ele>133.4</ele><time>2026-05-01T14:23:55.515Z</time></trkpt><trkpt lat="42.2852317" lon="14.1111967"><ele>135.0</ele><time>2026-05-01T14:23:56.513Z</time></trkpt><trkpt lat="42.2852617" lon="14.1113217"><ele>135.0</ele><time>2026-05-01T14:23:57.512Z</time></trkpt><trkpt lat="42.2852867" lon="14.1114417"><ele>135.0</ele><time>2026-05-01T14:23:58.509Z</time></trkpt><trkpt lat="42.2853133" lon="14.1115483"><ele>135.0</ele><time>2026-05-01T14:23:59.512Z</time></trkpt><trkpt lat="42.2853367" lon="14.1116417"><ele>135.0</ele><time>2026-05-01T14:24:00.512Z</time></trkpt><trkpt lat="42.2853933" lon="14.111785"><ele>135.0</ele><time>2026-05-01T14:24:02.512Z</time></trkpt><trkpt lat="42.28541" lon="14.1119283"><ele>136.0</ele><time>2026-05-01T14:24:04.509Z</time></trkpt><trkpt lat="42.28549" lon="14.1120833"><ele>137.0</ele><time>2026-05-01T14:24:06.511Z</time></trkpt><trkpt lat="42.2855533" lon="14.1121817"><ele>138.0</ele><time>2026-05-01T14:24:07.511Z</time></trkpt><trkpt lat="42.2856267" lon="14.1123017"><ele>139.0</ele><time>2026-05-01T14:24:08.511Z</time></trkpt><trkpt lat="42.2856983" lon="14.1124183"><ele>136.75</ele><time>2026-05-01T14:24:09.51Z</time></trkpt><trkpt lat="42.2857717" lon="14.1125317"><ele>134.5</ele><time>2026-05-01T14:24:10.511Z</time></trkpt><trkpt lat="42.2858533" lon="14.1126433"><ele>132.25</ele><time>2026-05-01T14:24:11.51Z</time></trkpt><trkpt lat="42.2859317" lon="14.1127617"><ele>130.0</ele><time>2026-05-01T14:24:12.51Z</time></trkpt><trkpt lat="42.2860033" lon="14.1128717"><ele>130.0</ele><time>2026-05-01T14:24:13.511Z</time></trkpt><trkpt lat="42.28606" lon="14.112965"><ele>130.0</ele><time>2026-05-01T14:24:14.509Z</time></trkpt><trkpt lat="42.28611" lon="14.1130483"><ele>130.0</ele><time>2026-05-01T14:24:15.51Z</time></trkpt><trkpt lat="42.2861517" lon="14.1131317"><ele>130.0</ele><time>2026-05-01T14:24:16.51Z</time></trkpt><trkpt lat="42.2861867" lon="14.1132183"><ele>130.0</ele><time>2026-05-01T14:24:17.511Z</time></trkpt><trkpt lat="42.2862167" lon="14.1133167"><ele>130.0</ele><time>2026-05-01T14:24:18.512Z</time></trkpt><trkpt lat="42.2862333" lon="14.11343"><ele>131.8</ele><time>2026-05-01T14:24:19.51Z</time></trkpt><trkpt lat="42.28625" lon="14.113555"><ele>133.6</ele><time>2026-05-01T14:24:20.512Z</time></trkpt><trkpt lat="42.2862583" lon="14.1136983"><ele>135.4</ele><time>2026-05-01T14:24:21.51Z</time></trkpt><trkpt lat="42.2862783" lon="14.1138567"><ele>137.2</ele><time>2026-05-01T14:24:22.511Z</time></trkpt><trkpt lat="42.2862967" lon="14.1140083"><ele>139.0</ele><time>2026-05-01T14:24:23.511Z</time></trkpt><trkpt lat="42.2863167" lon="14.114145"><ele>140.0</ele><time>2026-05-01T14:24:24.509Z</time></trkpt><trkpt lat="42.2863267" lon="14.1142717"><ele>141.0</ele><time>2026-05-01T14:24:25.516Z</time></trkpt><trkpt lat="42.2863433" lon="14.1143983"><ele>142.0</ele><time>2026-05-01T14:24:26.509Z</time></trkpt><trkpt lat="42.286355" lon="14.1145333"><ele>143.0</ele><time>2026-05-01T14:24:27.512Z</time></trkpt><trkpt lat="42.2863733" lon="14.1146717"><ele>144.0</ele><time>2026-05-01T14:24:28.51Z</time></trkpt><trkpt lat="42.2863833" lon="14.1148"><ele>145.4</ele><time>2026-05-01T14:24:29.514Z</time></trkpt><trkpt lat="42.2864117" lon="14.11491"><ele>146.8</ele><time>2026-05-01T14:24:30.509Z</time></trkpt><trkpt lat="42.28643" lon="14.1150183"><ele>148.2</ele><time>2026-05-01T14:24:31.51Z</time></trkpt><trkpt lat="42.286455" lon="14.1151333"><ele>149.6</ele><time>2026-05-01T14:24:32.511Z</time></trkpt><trkpt lat="42.2864867" lon="14.1152717"><ele>151.0</ele><time>2026-05-01T14:24:33.51Z</time></trkpt><trkpt lat="42.2865233" lon="14.1154183"><ele>148.2</ele><time>2026-05-01T14:24:34.51Z</time></trkpt><trkpt lat="42.28656" lon="14.115545"><ele>145.39999999999998</ele><time>2026-05-01T14:24:35.511Z</time></trkpt><trkpt lat="42.2865883" lon="14.1156433"><ele>142.6</ele><time>2026-05-01T14:24:36.511Z</time></trkpt><trkpt lat="42.2866" lon="14.1157317"><ele>139.79999999999998</ele><time>2026-05-01T14:24:37.511Z</time></trkpt><trkpt lat="42.2865933" lon="14.1158583"><ele>137.0</ele><time>2026-05-01T14:24:39.51Z</time></trkpt><trkpt lat="42.28651" lon="14.1159667"><ele>137.0</ele><time>2026-05-01T14:24:55.513Z</time></trkpt><trkpt lat="42.286445" lon="14.1161067"><ele>137.0</ele><time>2026-05-01T14:24:57.511Z</time></trkpt><trkpt lat="42.2864017" lon="14.1161883"><ele>137.0</ele><time>2026-05-01T14:24:58.51Z</time></trkpt><trkpt lat="42.28636" lon="14.1162717"><ele>137.0</ele><time>2026-05-01T14:24:59.509Z</time></trkpt><trkpt lat="42.2863133" lon="14.1163483"><ele>137.0</ele><time>2026-05-01T14:25:00.513Z</time></trkpt><trkpt lat="42.2862733" lon="14.11642"><ele>137.0</ele><time>2026-05-01T14:25:01.51Z</time></trkpt><trkpt lat="42.2862067" lon="14.116555"><ele>139.0</ele><time>2026-05-01T14:25:03.511Z</time></trkpt><trkpt lat="42.2861883" lon="14.116645"><ele>141.0</ele><time>2026-05-01T14:25:04.511Z</time></trkpt><trkpt lat="42.2861667" lon="14.1167333"><ele>143.0</ele><time>2026-05-01T14:25:05.513Z</time></trkpt><trkpt lat="42.286155" lon="14.11683"><ele>145.0</ele><time>2026-05-01T14:25:06.512Z</time></trkpt><trkpt lat="42.2861483" lon="14.1169467"><ele>147.0</ele><time>2026-05-01T14:25:07.511Z</time></trkpt><trkpt lat="42.28614" lon="14.117085"><ele>149.0</ele><time>2026-05-01T14:25:08.509Z</time></trkpt><trkpt lat="42.2861317" lon="14.11723"><ele>149.0</ele><time>2026-05-01T14:25:09.509Z</time></trkpt><trkpt lat="42.2861233" lon="14.11736"><ele>149.0</ele><time>2026-05-01T14:25:10.511Z</time></trkpt><trkpt lat="42.2861133" lon="14.11749"><ele>149.0</ele><time>2026-05-01T14:25:11.511Z</time></trkpt><trkpt lat="42.286105" lon="14.117625"><ele>149.0</ele><time>2026-05-01T14:25:12.509Z</time></trkpt><trkpt lat="42.28609" lon="14.1177533"><ele>149.0</ele><time>2026-05-01T14:25:13.513Z</time></trkpt><trkpt lat="42.2860667" lon="14.1178767"><ele>149.33333333333331</ele><time>2026-05-01T14:25:14.511Z</time></trkpt><trkpt lat="42.2860367" lon="14.118"><ele>149.66666666666666</ele><time>2026-05-01T14:25:15.512Z</time></trkpt><trkpt lat="42.2860033" lon="14.118115"><ele>150.0</ele><time>2026-05-01T14:25:16.51Z</time></trkpt><trkpt lat="42.28597" lon="14.1182217"><ele>150.33333333333334</ele><time>2026-05-01T14:25:17.512Z</time></trkpt><trkpt lat="42.28594" lon="14.1183317"><ele>150.66666666666669</ele><time>2026-05-01T14:25:18.511Z</time></trkpt><trkpt lat="42.2859167" lon="14.1184333"><ele>151.0</ele><time>2026-05-01T14:25:19.509Z</time></trkpt><trkpt lat="42.28589" lon="14.1185283"><ele>151.8</ele><time>2026-05-01T14:25:20.511Z</time></trkpt><trkpt lat="42.285865" lon="14.1186983"><ele>152.6</ele><time>2026-05-01T14:25:22.514Z</time></trkpt><trkpt lat="42.2858683" lon="14.1188067"><ele>153.4</ele><time>2026-05-01T14:25:23.51Z</time></trkpt><trkpt lat="42.2858583" lon="14.11892"><ele>154.2</ele><time>2026-05-01T14:25:24.51Z</time></trkpt><trkpt lat="42.2858267" lon="14.1190233"><ele>155.0</ele><time>2026-05-01T14:25:25.512Z</time></trkpt><trkpt lat="42.28579" lon="14.1191167"><ele>155.71428571428572</ele><time>2026-05-01T14:25:26.516Z</time></trkpt><trkpt lat="42.2857517" lon="14.1192033"><ele>156.42857142857142</ele><time>2026-05-01T14:25:27.513Z</time></trkpt><trkpt lat="42.2857" lon="14.1192733"><ele>157.14285714285714</ele><time>2026-05-01T14:25:28.509Z</time></trkpt><trkpt lat="42.285655" lon="14.1193417"><ele>157.85714285714286</ele><time>2026-05-01T14:25:29.51Z</time></trkpt><trkpt lat="42.285605" lon="14.1194067"><ele>158.57142857142858</ele><time>2026-05-01T14:25:30.513Z</time></trkpt><trkpt lat="42.2855433" lon="14.1194767"><ele>159.28571428571428</ele><time>2026-05-01T14:25:31.511Z</time></trkpt><trkpt lat="42.2854817" lon="14.11954"><ele>160.0</ele><time>2026-05-01T14:25:32.51Z</time></trkpt><trkpt lat="42.28542" lon="14.1196133"><ele>162.0</ele><time>2026-05-01T14:25:33.51Z</time></trkpt><trkpt lat="42.2853583" lon="14.1196733"><ele>164.0</ele><time>2026-05-01T14:25:34.513Z</time></trkpt><trkpt lat="42.285295" lon="14.1197367"><ele>166.0</ele><time>2026-05-01T14:25:35.512Z</time></trkpt><trkpt lat="42.2852333" lon="14.1197883"><ele>168.0</ele><time>2026-05-01T14:25:36.515Z</time></trkpt><trkpt lat="42.285175" lon="14.119845"><ele>170.0</ele><time>2026-05-01T14:25:37.511Z</time></trkpt><trkpt lat="42.2851083" lon="14.11989"><ele>172.0</ele><time>2026-05-01T14:25:38.515Z</time></trkpt><trkpt lat="42.28504" lon="14.119935"><ele>172.00000000000003</ele><time>2026-05-01T14:25:39.509Z</time></trkpt><trkpt lat="42.2849767" lon="14.1199933"><ele>172.0</ele><time>2026-05-01T14:25:40.512Z</time></trkpt><trkpt lat="42.28491" lon="14.1200483"><ele>172.0</ele><time>2026-05-01T14:25:41.512Z</time></trkpt><trkpt lat="42.2848483" lon="14.12011"><ele>172.0</ele><time>2026-05-01T14:25:42.509Z</time></trkpt><trkpt lat="42.2847883" lon="14.1201633"><ele>172.0</ele><time>2026-05-01T14:25:43.512Z</time></trkpt><trkpt lat="42.2847317" lon="14.1202083"><ele>172.00000000000003</ele><time>2026-05-01T14:25:44.51Z</time></trkpt><trkpt lat="42.284675" lon="14.1202467"><ele>172.0</ele><time>2026-05-01T14:25:45.51Z</time></trkpt><trkpt lat="42.2845983" lon="14.1203517"><ele>175.2</ele><time>2026-05-01T14:25:47.512Z</time></trkpt><trkpt lat="42.284525" lon="14.120495"><ele>178.39999999999998</ele><time>2026-05-01T14:25:49.511Z</time></trkpt><trkpt lat="42.28449" lon="14.1205817"><ele>181.60000000000002</ele><time>2026-05-01T14:25:50.513Z</time></trkpt><trkpt lat="42.2844667" lon="14.1206667"><ele>184.8</ele><time>2026-05-01T14:25:51.51Z</time></trkpt><trkpt lat="42.2844467" lon="14.120755"><ele>188.0</ele><time>2026-05-01T14:25:52.509Z</time></trkpt><trkpt lat="42.2844217" lon="14.12091"><ele>188.0</ele><time>2026-05-01T14:25:54.509Z</time></trkpt><trkpt lat="42.28441" lon="14.120995"><ele>188.0</ele><time>2026-05-01T14:25:55.51Z</time></trkpt><trkpt lat="42.2844" lon="14.1210983"><ele>188.0</ele><time>2026-05-01T14:25:56.512Z</time></trkpt><trkpt lat="42.2843917" lon="14.1212167"><ele>188.0</ele><time>2026-05-01T14:25:57.511Z</time></trkpt><trkpt lat="42.2843833" lon="14.1213317"><ele>188.0</ele><time>2026-05-01T14:25:58.51Z</time></trkpt><trkpt lat="42.28437" lon="14.1214367"><ele>188.0</ele><time>2026-05-01T14:25:59.51Z</time></trkpt><trkpt lat="42.28437" lon="14.1215333"><ele>188.14285714285714</ele><time>2026-05-01T14:26:00.509Z</time></trkpt><trkpt lat="42.2843517" lon="14.1216233"><ele>188.28571428571428</ele><time>2026-05-01T14:26:01.509Z</time></trkpt><trkpt lat="42.2843383" lon="14.1217083"><ele>188.42857142857144</ele><time>2026-05-01T14:26:02.511Z</time></trkpt><trkpt lat="42.2843217" lon="14.121795"><ele>188.57142857142856</ele><time>2026-05-01T14:26:03.511Z</time></trkpt><trkpt lat="42.2842933" lon="14.1218767"><ele>188.71428571428572</ele><time>2026-05-01T14:26:04.513Z</time></trkpt><trkpt lat="42.2842583" lon="14.1219617"><ele>188.85714285714286</ele><time>2026-05-01T14:26:05.513Z</time></trkpt><trkpt lat="42.2842183" lon="14.1220367"><ele>189.0</ele><time>2026-05-01T14:26:06.51Z</time></trkpt><trkpt lat="42.2841617" lon="14.1220867"><ele>189.0</ele><time>2026-05-01T14:26:07.513Z</time></trkpt><trkpt lat="42.284095" lon="14.1221167"><ele>189.0</ele><time>2026-05-01T14:26:08.511Z</time></trkpt><trkpt lat="42.2840183" lon="14.1221267"><ele>189.0</ele><time>2026-05-01T14:26:09.51Z</time></trkpt><trkpt lat="42.2839417" lon="14.1221317"><ele>189.0</ele><time>2026-05-01T14:26:10.514Z</time></trkpt><trkpt lat="42.2838767" lon="14.122115"><ele>189.0</ele><time>2026-05-01T14:26:11.512Z</time></trkpt><trkpt lat="42.28379" lon="14.122025"><ele>189.0</ele><time>2026-05-01T14:26:13.511Z</time></trkpt><trkpt lat="42.28373" lon="14.1219233"><ele>193.33333333333334</ele><time>2026-05-01T14:26:15.511Z</time></trkpt><trkpt lat="42.283675" lon="14.121815"><ele>197.66666666666669</ele><time>2026-05-01T14:26:17.511Z</time></trkpt><trkpt lat="42.2835967" lon="14.1217"><ele>202.0</ele><time>2026-05-01T14:26:19.512Z</time></trkpt><trkpt lat="42.28355" lon="14.1216317"><ele>206.33333333333334</ele><time>2026-05-01T14:26:20.513Z</time></trkpt><trkpt lat="42.2835067" lon="14.1215617"><ele>210.66666666666669</ele><time>2026-05-01T14:26:21.509Z</time></trkpt><trkpt lat="42.2834533" lon="14.12149"><ele>215.0</ele><time>2026-05-01T14:26:22.51Z</time></trkpt><trkpt lat="42.2834083" lon="14.1214083"><ele>215.0</ele><time>2026-05-01T14:26:23.509Z</time></trkpt><trkpt lat="42.2833667" lon="14.1213233"><ele>215.0</ele><time>2026-05-01T14:26:24.512Z</time></trkpt><trkpt lat="42.283325" lon="14.12124"><ele>215.0</ele><time>2026-05-01T14:26:25.51Z</time></trkpt><trkpt lat="42.2832817" lon="14.1211633"><ele>215.0</ele><time>2026-05-01T14:26:26.513Z</time></trkpt><trkpt lat="42.283245" lon="14.1210817"><ele>215.0</ele><time>2026-05-01T14:26:27.511Z</time></trkpt><trkpt lat="42.2832033" lon="14.1210167"><ele>215.0</ele><time>2026-05-01T14:26:28.511Z</time></trkpt><trkpt lat="42.2831733" lon="14.1209333"><ele>215.0</ele><time>2026-05-01T14:26:29.511Z</time></trkpt><trkpt lat="42.2831617" lon="14.1208483"><ele>215.0</ele><time>2026-05-01T14:26:30.512Z</time></trkpt><trkpt lat="42.2831417" lon="14.1207617"><ele>215.0</ele><time>2026-05-01T14:26:31.512Z</time></trkpt><trkpt lat="42.28312" lon="14.1206517"><ele>215.0</ele><time>2026-05-01T14:26:32.511Z</time></trkpt><trkpt lat="42.2830767" lon="14.1205117"><ele>215.0</ele><time>2026-05-01T14:26:33.516Z</time></trkpt><trkpt lat="42.28302" lon="14.1203233"><ele>215.0</ele><time>2026-05-01T14:26:34.514Z</time></trkpt><trkpt lat="42.2829667" lon="14.120105"><ele>218.75</ele><time>2026-05-01T14:26:35.51Z</time></trkpt><trkpt lat="42.2829117" lon="14.1199067"><ele>222.5</ele><time>2026-05-01T14:26:36.511Z</time></trkpt><trkpt lat="42.28286" lon="14.11973"><ele>226.25</ele><time>2026-05-01T14:26:37.51Z</time></trkpt><trkpt lat="42.2828183" lon="14.119575"><ele>230.0</ele><time>2026-05-01T14:26:38.52Z</time></trkpt><trkpt lat="42.28278" lon="14.1194317"><ele>230.0</ele><time>2026-05-01T14:26:39.513Z</time></trkpt><trkpt lat="42.282745" lon="14.1192883"><ele>230.0</ele><time>2026-05-01T14:26:40.513Z</time></trkpt><trkpt lat="42.2827033" lon="14.1191483"><ele>230.0</ele><time>2026-05-01T14:26:41.511Z</time></trkpt><trkpt lat="42.282665" lon="14.11902"><ele>230.0</ele><time>2026-05-01T14:26:42.511Z</time></trkpt><trkpt lat="42.2826317" lon="14.118905"><ele>230.0</ele><time>2026-05-01T14:26:43.511Z</time></trkpt><trkpt lat="42.2826017" lon="14.11881"><ele>229.33333333333334</ele><time>2026-05-01T14:26:44.512Z</time></trkpt><trkpt lat="42.2825783" lon="14.1187283"><ele>228.66666666666669</ele><time>2026-05-01T14:26:45.511Z</time></trkpt><trkpt lat="42.282555" lon="14.1186467"><ele>228.0</ele><time>2026-05-01T14:26:47.509Z</time></trkpt><trkpt lat="42.2825233" lon="14.118545"><ele>227.33333333333331</ele><time>2026-05-01T14:26:50.51Z</time></trkpt><trkpt lat="42.2824767" lon="14.1184133"><ele>226.66666666666666</ele><time>2026-05-01T14:26:52.513Z</time></trkpt><trkpt lat="42.2824233" lon="14.1182583"><ele>226.0</ele><time>2026-05-01T14:26:54.511Z</time></trkpt><trkpt lat="42.2823867" lon="14.118165"><ele>225.49999999999997</ele><time>2026-05-01T14:26:55.511Z</time></trkpt><trkpt lat="42.2823417" lon="14.118065"><ele>225.0</ele><time>2026-05-01T14:26:56.512Z</time></trkpt><trkpt lat="42.2822917" lon="14.1179533"><ele>224.5</ele><time>2026-05-01T14:26:57.514Z</time></trkpt><trkpt lat="42.2822367" lon="14.1178433"><ele>224.0</ele><time>2026-05-01T14:26:58.512Z</time></trkpt><trkpt lat="42.282185" lon="14.11775"><ele>223.49999999999997</ele><time>2026-05-01T14:26:59.515Z</time></trkpt><trkpt lat="42.2821383" lon="14.1176717"><ele>223.0</ele><time>2026-05-01T14:27:00.512Z</time></trkpt><trkpt lat="42.2820583" lon="14.11759"><ele>222.99999999999997</ele><time>2026-05-01T14:27:02.511Z</time></trkpt><trkpt lat="42.2819933" lon="14.1176083"><ele>223.0</ele><time>2026-05-01T14:27:05.512Z</time></trkpt><trkpt lat="42.2819883" lon="14.1177083"><ele>223.0</ele><time>2026-05-01T14:27:07.511Z</time></trkpt><trkpt lat="42.281995" lon="14.1178"><ele>223.0</ele><time>2026-05-01T14:27:08.514Z</time></trkpt><trkpt lat="42.2819983" lon="14.1179383"><ele>222.99999999999997</ele><time>2026-05-01T14:27:09.512Z</time></trkpt><trkpt lat="42.281995" lon="14.1180933"><ele>223.0</ele><time>2026-05-01T14:27:10.512Z</time></trkpt><trkpt lat="42.2819933" lon="14.11825"><ele>224.0</ele><time>2026-05-01T14:27:11.512Z</time></trkpt><trkpt lat="42.2819867" lon="14.1184067"><ele>225.0</ele><time>2026-05-01T14:27:12.512Z</time></trkpt><trkpt lat="42.2819767" lon="14.1185533"><ele>226.0</ele><time>2026-05-01T14:27:13.51Z</time></trkpt><trkpt lat="42.2819633" lon="14.1186917"><ele>227.0</ele><time>2026-05-01T14:27:14.511Z</time></trkpt><trkpt lat="42.2819467" lon="14.1188317"><ele>228.0</ele><time>2026-05-01T14:27:15.51Z</time></trkpt><trkpt lat="42.2819283" lon="14.1189733"><ele>229.60000000000002</ele><time>2026-05-01T14:27:16.51Z</time></trkpt><trkpt lat="42.28191" lon="14.11912"><ele>231.20000000000002</ele><time>2026-05-01T14:27:17.51Z</time></trkpt><trkpt lat="42.2818917" lon="14.1192683"><ele>232.8</ele><time>2026-05-01T14:27:18.51Z</time></trkpt><trkpt lat="42.28188" lon="14.1194183"><ele>234.4</ele><time>2026-05-01T14:27:19.514Z</time></trkpt><trkpt lat="42.2818783" lon="14.1195733"><ele>236.0</ele><time>2026-05-01T14:27:20.511Z</time></trkpt><trkpt lat="42.281885" lon="14.1197267"><ele>236.0</ele><time>2026-05-01T14:27:21.511Z</time></trkpt><trkpt lat="42.281905" lon="14.11988"><ele>236.0</ele><time>2026-05-01T14:27:22.511Z</time></trkpt><trkpt lat="42.2819333" lon="14.12003"><ele>236.0</ele><time>2026-05-01T14:27:23.511Z</time></trkpt><trkpt lat="42.2819683" lon="14.1201817"><ele>236.0</ele><time>2026-05-01T14:27:24.514Z</time></trkpt><trkpt lat="42.2820033" lon="14.1203333"><ele>237.20000000000002</ele><time>2026-05-01T14:27:25.512Z</time></trkpt><trkpt lat="42.28204" lon="14.1204717"><ele>238.40000000000003</ele><time>2026-05-01T14:27:26.515Z</time></trkpt><trkpt lat="42.28206" lon="14.1206117"><ele>239.6</ele><time>2026-05-01T14:27:27.513Z</time></trkpt><trkpt lat="42.28207" lon="14.12076"><ele>240.8</ele><time>2026-05-01T14:27:28.512Z</time></trkpt><trkpt lat="42.282075" lon="14.1209117"><ele>242.0</ele><time>2026-05-01T14:27:29.511Z</time></trkpt><trkpt lat="42.282065" lon="14.1210667"><ele>243.2</ele><time>2026-05-01T14:27:30.511Z</time></trkpt><trkpt lat="42.2820467" lon="14.121215"><ele>244.39999999999998</ele><time>2026-05-01T14:27:31.512Z</time></trkpt><trkpt lat="42.282025" lon="14.12136"><ele>245.60000000000002</ele><time>2026-05-01T14:27:32.511Z</time></trkpt><trkpt lat="42.2819967" lon="14.1215067"><ele>246.8</ele><time>2026-05-01T14:27:33.513Z</time></trkpt><trkpt lat="42.2819717" lon="14.12165"><ele>248.0</ele><time>2026-05-01T14:27:34.51Z</time></trkpt><trkpt lat="42.2819683" lon="14.1218067"><ele>249.0</ele><time>2026-05-01T14:27:35.512Z</time></trkpt><trkpt lat="42.281985" lon="14.121965"><ele>250.0</ele><time>2026-05-01T14:27:36.51Z</time></trkpt><trkpt lat="42.28201" lon="14.1221217"><ele>251.0</ele><time>2026-05-01T14:27:37.514Z</time></trkpt><trkpt lat="42.2820367" lon="14.1222733"><ele>252.0</ele><time>2026-05-01T14:27:38.512Z</time></trkpt><trkpt lat="42.2820633" lon="14.1224233"><ele>253.39999999999998</ele><time>2026-05-01T14:27:39.51Z</time></trkpt><trkpt lat="42.2820833" lon="14.1225683"><ele>254.79999999999998</ele><time>2026-05-01T14:27:40.512Z</time></trkpt><trkpt lat="42.2821" lon="14.122715"><ele>256.2</ele><time>2026-05-01T14:27:41.51Z</time></trkpt><trkpt lat="42.2821183" lon="14.1228633"><ele>257.59999999999997</ele><time>2026-05-01T14:27:42.51Z</time></trkpt><trkpt lat="42.28213" lon="14.1230167"><ele>259.0</ele><time>2026-05-01T14:27:43.51Z</time></trkpt><trkpt lat="42.2821383" lon="14.123175"><ele>262.0</ele><time>2026-05-01T14:27:44.512Z</time></trkpt><trkpt lat="42.282145" lon="14.1233317"><ele>265.0</ele><time>2026-05-01T14:27:45.51Z</time></trkpt><trkpt lat="42.2821433" lon="14.123495"><ele>268.0</ele><time>2026-05-01T14:27:46.511Z</time></trkpt><trkpt lat="42.2821417" lon="14.1236533"><ele>271.0</ele><time>2026-05-01T14:27:47.512Z</time></trkpt><trkpt lat="42.2821417" lon="14.1238117"><ele>271.0</ele><time>2026-05-01T14:27:48.511Z</time></trkpt><trkpt lat="42.2821467" lon="14.123975"><ele>271.0</ele><time>2026-05-01T14:27:49.511Z</time></trkpt><trkpt lat="42.282155" lon="14.124145"><ele>271.0</ele><time>2026-05-01T14:27:50.512Z</time></trkpt><trkpt lat="42.2821617" lon="14.1243167"><ele>271.0</ele><time>2026-05-01T14:27:51.512Z</time></trkpt><trkpt lat="42.2821683" lon="14.1244883"><ele>273.0</ele><time>2026-05-01T14:27:52.512Z</time></trkpt><trkpt lat="42.2821817" lon="14.124665"><ele>275.0</ele><time>2026-05-01T14:27:53.513Z</time></trkpt><trkpt lat="42.2822" lon="14.1248433"><ele>277.0</ele><time>2026-05-01T14:27:54.513Z</time></trkpt><trkpt lat="42.2822217" lon="14.12503"><ele>279.0</ele><time>2026-05-01T14:27:55.513Z</time></trkpt><trkpt lat="42.2822433" lon="14.1252317"><ele>279.6666666666667</ele><time>2026-05-01T14:27:56.513Z</time></trkpt><trkpt lat="42.2822667" lon="14.1254583"><ele>280.33333333333337</ele><time>2026-05-01T14:27:57.515Z</time></trkpt><trkpt lat="42.2822867" lon="14.1257083"><ele>281.0</ele><time>2026-05-01T14:27:58.512Z</time></trkpt><trkpt lat="42.2823067" lon="14.1259533"><ele>283.0</ele><time>2026-05-01T14:27:59.513Z</time></trkpt><trkpt lat="42.2823333" lon="14.12617"><ele>285.0</ele><time>2026-05-01T14:28:00.513Z</time></trkpt><trkpt lat="42.2823733" lon="14.1263667"><ele>287.0</ele><time>2026-05-01T14:28:01.511Z</time></trkpt><trkpt lat="42.2824317" lon="14.1265283"><ele>289.0</ele><time>2026-05-01T14:28:02.515Z</time></trkpt><trkpt lat="42.2825" lon="14.12666"><ele>290.8333333333333</ele><time>2026-05-01T14:28:03.511Z</time></trkpt><trkpt lat="42.2825517" lon="14.1267767"><ele>292.66666666666663</ele><time>2026-05-01T14:28:04.511Z</time></trkpt><trkpt lat="42.2825917" lon="14.1268733"><ele>294.5</ele><time>2026-05-01T14:28:05.511Z</time></trkpt><trkpt lat="42.2826233" lon="14.1269533"><ele>296.3333333333333</ele><time>2026-05-01T14:28:06.516Z</time></trkpt><trkpt lat="42.2826633" lon="14.1270967"><ele>298.1666666666667</ele><time>2026-05-01T14:28:08.514Z</time></trkpt><trkpt lat="42.2826933" lon="14.1271767"><ele>300.0</ele><time>2026-05-01T14:28:09.514Z</time></trkpt><trkpt lat="42.2827433" lon="14.12727"><ele>300.0</ele><time>2026-05-01T14:28:10.511Z</time></trkpt><trkpt lat="42.2828067" lon="14.1273717"><ele>300.0</ele><time>2026-05-01T14:28:11.511Z</time></trkpt><trkpt lat="42.282875" lon="14.1274833"><ele>300.0</ele><time>2026-05-01T14:28:12.513Z</time></trkpt><trkpt lat="42.282945" lon="14.1276067"><ele>300.0</ele><time>2026-05-01T14:28:13.513Z</time></trkpt><trkpt lat="42.28302" lon="14.1277417"><ele>300.0</ele><time>2026-05-01T14:28:14.513Z</time></trkpt><trkpt lat="42.2830983" lon="14.127875"><ele>299.6</ele><time>2026-05-01T14:28:15.51Z</time></trkpt><trkpt lat="42.283165" lon="14.1280067"><ele>299.2</ele><time>2026-05-01T14:28:16.509Z</time></trkpt><trkpt lat="42.2832317" lon="14.12812"><ele>298.8</ele><time>2026-05-01T14:28:17.51Z</time></trkpt><trkpt lat="42.283295" lon="14.1282183"><ele>298.4</ele><time>2026-05-01T14:28:18.512Z</time></trkpt><trkpt lat="42.28335" lon="14.1283183"><ele>298.0</ele><time>2026-05-01T14:28:19.514Z</time></trkpt><trkpt lat="42.283405" lon="14.1284083"><ele>298.66666666666663</ele><time>2026-05-01T14:28:20.512Z</time></trkpt><trkpt lat="42.28346" lon="14.1284933"><ele>299.3333333333333</ele><time>2026-05-01T14:28:21.514Z</time></trkpt><trkpt lat="42.2835233" lon="14.128565"><ele>300.0</ele><time>2026-05-01T14:28:22.51Z</time></trkpt><trkpt lat="42.2835983" lon="14.1286267"><ele>300.6666666666667</ele><time>2026-05-01T14:28:23.514Z</time></trkpt><trkpt lat="42.283685" lon="14.12867"><ele>301.33333333333337</ele><time>2026-05-01T14:28:24.512Z</time></trkpt><trkpt lat="42.2837817" lon="14.1286883"><ele>302.0</ele><time>2026-05-01T14:28:25.51Z</time></trkpt><trkpt lat="42.2838867" lon="14.1286917"><ele>302.4</ele><time>2026-05-01T14:28:26.514Z</time></trkpt><trkpt lat="42.2839967" lon="14.1287017"><ele>302.79999999999995</ele><time>2026-05-01T14:28:27.513Z</time></trkpt><trkpt lat="42.284105" lon="14.128725"><ele>303.2</ele><time>2026-05-01T14:28:28.515Z</time></trkpt><trkpt lat="42.28421" lon="14.1287617"><ele>303.59999999999997</ele><time>2026-05-01T14:28:29.51Z</time></trkpt><trkpt lat="42.2843133" lon="14.1288217"><ele>304.0</ele><time>2026-05-01T14:28:30.509Z</time></trkpt><trkpt lat="42.2844033" lon="14.12891"><ele>304.0</ele><time>2026-05-01T14:28:31.512Z</time></trkpt><trkpt lat="42.284485" lon="14.1289917"><ele>304.0</ele><time>2026-05-01T14:28:32.511Z</time></trkpt><trkpt lat="42.2845683" lon="14.129065"><ele>304.0</ele><time>2026-05-01T14:28:33.51Z</time></trkpt><trkpt lat="42.28465" lon="14.1291333"><ele>304.0</ele><time>2026-05-01T14:28:34.509Z</time></trkpt><trkpt lat="42.2847317" lon="14.1292183"><ele>304.0</ele><time>2026-05-01T14:28:35.508Z</time></trkpt><trkpt lat="42.2848133" lon="14.129305"><ele>303.59999999999997</ele><time>2026-05-01T14:28:36.51Z</time></trkpt><trkpt lat="42.2848967" lon="14.1293867"><ele>303.2</ele><time>2026-05-01T14:28:37.511Z</time></trkpt><trkpt lat="42.28498" lon="14.1294733"><ele>302.79999999999995</ele><time>2026-05-01T14:28:38.51Z</time></trkpt><trkpt lat="42.2850583" lon="14.12957"><ele>302.4</ele><time>2026-05-01T14:28:39.511Z</time></trkpt><trkpt lat="42.2851383" lon="14.1296667"><ele>302.0</ele><time>2026-05-01T14:28:40.512Z</time></trkpt><trkpt lat="42.2852133" lon="14.1297767"><ele>302.0</ele><time>2026-05-01T14:28:41.512Z</time></trkpt><trkpt lat="42.2852883" lon="14.12989"><ele>302.0</ele><time>2026-05-01T14:28:42.513Z</time></trkpt><trkpt lat="42.2853683" lon="14.1300033"><ele>302.0</ele><time>2026-05-01T14:28:43.511Z</time></trkpt><trkpt lat="42.285455" lon="14.13012"><ele>302.0</ele><time>2026-05-01T14:28:44.511Z</time></trkpt><trkpt lat="42.285545" lon="14.1302467"><ele>301.0</ele><time>2026-05-01T14:28:45.509Z</time></trkpt><trkpt lat="42.2856317" lon="14.1303917"><ele>300.0</ele><time>2026-05-01T14:28:46.509Z</time></trkpt><trkpt lat="42.28571" lon="14.13055"><ele>299.0</ele><time>2026-05-01T14:28:47.511Z</time></trkpt><trkpt lat="42.2857833" lon="14.130715"><ele>298.0</ele><time>2026-05-01T14:28:48.511Z</time></trkpt><trkpt lat="42.28586" lon="14.1308783"><ele>298.0</ele><time>2026-05-01T14:28:49.516Z</time></trkpt><trkpt lat="42.2859367" lon="14.1310383"><ele>298.0</ele><time>2026-05-01T14:28:50.512Z</time></trkpt><trkpt lat="42.286025" lon="14.1311917"><ele>298.0</ele><time>2026-05-01T14:28:51.511Z</time></trkpt><trkpt lat="42.28612" lon="14.131335"><ele>298.0</ele><time>2026-05-01T14:28:52.512Z</time></trkpt><trkpt lat="42.286215" lon="14.13148"><ele>299.0</ele><time>2026-05-01T14:28:53.511Z</time></trkpt><trkpt lat="42.2863083" lon="14.131625"><ele>300.0</ele><time>2026-05-01T14:28:54.512Z</time></trkpt><trkpt lat="42.2863983" lon="14.1317733"><ele>301.0</ele><time>2026-05-01T14:28:55.511Z</time></trkpt><trkpt lat="42.2864833" lon="14.1319283"><ele>302.0</ele><time>2026-05-01T14:28:56.512Z</time></trkpt><trkpt lat="42.2865633" lon="14.132085"><ele>299.5</ele><time>2026-05-01T14:28:57.513Z</time></trkpt><trkpt lat="42.2866383" lon="14.132245"><ele>297.0</ele><time>2026-05-01T14:28:58.511Z</time></trkpt><trkpt lat="42.2866967" lon="14.1324233"><ele>294.5</ele><time>2026-05-01T14:28:59.512Z</time></trkpt><trkpt lat="42.2867383" lon="14.13261"><ele>292.0</ele><time>2026-05-01T14:29:00.514Z</time></trkpt><trkpt lat="42.2867717" lon="14.1327917"><ele>292.0</ele><time>2026-05-01T14:29:01.512Z</time></trkpt><trkpt lat="42.2868017" lon="14.1329617"><ele>292.0</ele><time>2026-05-01T14:29:02.513Z</time></trkpt><trkpt lat="42.2868367" lon="14.1331167"><ele>292.0</ele><time>2026-05-01T14:29:03.51Z</time></trkpt><trkpt lat="42.28689" lon="14.133245"><ele>292.0</ele><time>2026-05-01T14:29:04.511Z</time></trkpt><trkpt lat="42.28696" lon="14.1333483"><ele>291.25</ele><time>2026-05-01T14:29:05.514Z</time></trkpt><trkpt lat="42.2870567" lon="14.1334133"><ele>290.5</ele><time>2026-05-01T14:29:06.514Z</time></trkpt><trkpt lat="42.2871717" lon="14.13346"><ele>289.75</ele><time>2026-05-01T14:29:07.512Z</time></trkpt><trkpt lat="42.28729" lon="14.133505"><ele>289.0</ele><time>2026-05-01T14:29:08.512Z</time></trkpt><trkpt lat="42.28741" lon="14.1335533"><ele>289.0</ele><time>2026-05-01T14:29:09.513Z</time></trkpt><trkpt lat="42.287525" lon="14.133605"><ele>289.0</ele><time>2026-05-01T14:29:10.511Z</time></trkpt><trkpt lat="42.28764" lon="14.1336517"><ele>289.0</ele><time>2026-05-01T14:29:11.511Z</time></trkpt><trkpt lat="42.2877567" lon="14.1337017"><ele>289.0</ele><time>2026-05-01T14:29:12.51Z</time></trkpt><trkpt lat="42.2878683" lon="14.1337633"><ele>289.0</ele><time>2026-05-01T14:29:13.509Z</time></trkpt><trkpt lat="42.2879683" lon="14.1338483"><ele>289.0</ele><time>2026-05-01T14:29:14.514Z</time></trkpt><trkpt lat="42.28805" lon="14.13396"><ele>289.0</ele><time>2026-05-01T14:29:15.51Z</time></trkpt><trkpt lat="42.28811" lon="14.1340967"><ele>289.0</ele><time>2026-05-01T14:29:16.508Z</time></trkpt><trkpt lat="42.2881767" lon="14.1342283"><ele>291.25</ele><time>2026-05-01T14:29:17.511Z</time></trkpt><trkpt lat="42.2882467" lon="14.134355"><ele>293.5</ele><time>2026-05-01T14:29:18.51Z</time></trkpt><trkpt lat="42.2883267" lon="14.1344717"><ele>295.75</ele><time>2026-05-01T14:29:19.512Z</time></trkpt><trkpt lat="42.2884117" lon="14.1345817"><ele>298.0</ele><time>2026-05-01T14:29:20.513Z</time></trkpt><trkpt lat="42.2885033" lon="14.1346783"><ele>298.0</ele><time>2026-05-01T14:29:21.513Z</time></trkpt><trkpt lat="42.288605" lon="14.1347617"><ele>298.0</ele><time>2026-05-01T14:29:22.511Z</time></trkpt><trkpt lat="42.2887083" lon="14.1348333"><ele>298.0</ele><time>2026-05-01T14:29:23.511Z</time></trkpt><trkpt lat="42.28881" lon="14.134905"><ele>298.0</ele><time>2026-05-01T14:29:24.511Z</time></trkpt><trkpt lat="42.288905" lon="14.1349867"><ele>301.0</ele><time>2026-05-01T14:29:25.51Z</time></trkpt><trkpt lat="42.2889967" lon="14.1350767"><ele>304.0</ele><time>2026-05-01T14:29:26.511Z</time></trkpt><trkpt lat="42.2890867" lon="14.13517"><ele>307.0</ele><time>2026-05-01T14:29:27.512Z</time></trkpt><trkpt lat="42.289175" lon="14.1352667"><ele>310.0</ele><time>2026-05-01T14:29:28.513Z</time></trkpt><trkpt lat="42.289265" lon="14.1353667"><ele>310.0</ele><time>2026-05-01T14:29:29.512Z</time></trkpt><trkpt lat="42.289355" lon="14.1354633"><ele>310.0</ele><time>2026-05-01T14:29:30.512Z</time></trkpt><trkpt lat="42.2894483" lon="14.1355567"><ele>310.0</ele><time>2026-05-01T14:29:31.511Z</time></trkpt><trkpt lat="42.28955" lon="14.1356333"><ele>310.0</ele><time>2026-05-01T14:29:32.512Z</time></trkpt><trkpt lat="42.28966" lon="14.1356933"><ele>310.25</ele><time>2026-05-01T14:29:33.511Z</time></trkpt><trkpt lat="42.2897733" lon="14.135745"><ele>310.5</ele><time>2026-05-01T14:29:34.513Z</time></trkpt><trkpt lat="42.289895" lon="14.1357817"><ele>310.75</ele><time>2026-05-01T14:29:35.51Z</time></trkpt><trkpt lat="42.29002" lon="14.1358183"><ele>311.0</ele><time>2026-05-01T14:29:36.511Z</time></trkpt><trkpt lat="42.2901417" lon="14.135855"><ele>311.0</ele><time>2026-05-01T14:29:37.512Z</time></trkpt><trkpt lat="42.290255" lon="14.1358933"><ele>311.0</ele><time>2026-05-01T14:29:38.512Z</time></trkpt><trkpt lat="42.2903617" lon="14.13592"><ele>311.0</ele><time>2026-05-01T14:29:39.515Z</time></trkpt><trkpt lat="42.29046" lon="14.1359517"><ele>311.0</ele><time>2026-05-01T14:29:40.51Z</time></trkpt><trkpt lat="42.2905583" lon="14.1359833"><ele>311.0</ele><time>2026-05-01T14:29:41.509Z</time></trkpt><trkpt lat="42.29066" lon="14.1360133"><ele>312.2</ele><time>2026-05-01T14:29:42.51Z</time></trkpt><trkpt lat="42.2907633" lon="14.13604"><ele>313.40000000000003</ele><time>2026-05-01T14:29:43.511Z</time></trkpt><trkpt lat="42.290865" lon="14.1360717"><ele>314.6</ele><time>2026-05-01T14:29:44.515Z</time></trkpt><trkpt lat="42.290965" lon="14.1360983"><ele>315.8</ele><time>2026-05-01T14:29:45.51Z</time></trkpt><trkpt lat="42.2910617" lon="14.1360967"><ele>317.0</ele><time>2026-05-01T14:29:46.51Z</time></trkpt><trkpt lat="42.2911517" lon="14.1360733"><ele>317.0</ele><time>2026-05-01T14:29:47.513Z</time></trkpt><trkpt lat="42.2912317" lon="14.136045"><ele>317.0</ele><time>2026-05-01T14:29:48.51Z</time></trkpt><trkpt lat="42.2913033" lon="14.13602"><ele>317.0</ele><time>2026-05-01T14:29:49.512Z</time></trkpt><trkpt lat="42.29142" lon="14.13597"><ele>317.0</ele><time>2026-05-01T14:29:51.51Z</time></trkpt><trkpt lat="42.2914833" lon="14.1359033"><ele>317.0</ele><time>2026-05-01T14:29:53.51Z</time></trkpt><trkpt lat="42.2914783" lon="14.1358017"><ele>317.0</ele><time>2026-05-01T14:29:56.512Z</time></trkpt><trkpt lat="42.2915017" lon="14.1357217"><ele>315.5</ele><time>2026-05-01T14:30:00.509Z</time></trkpt><trkpt lat="42.2915617" lon="14.135635"><ele>314.0</ele><time>2026-05-01T14:30:10.511Z</time></trkpt><trkpt lat="42.291605" lon="14.1355567"><ele>312.5</ele><time>2026-05-01T14:30:13.508Z</time></trkpt><trkpt lat="42.2915733" lon="14.1356317"><ele>311.0</ele><time>2026-05-01T14:30:26.509Z</time></trkpt><trkpt lat="42.2914517" lon="14.1357"><ele>309.5</ele><time>2026-05-01T14:30:28.51Z</time></trkpt><trkpt lat="42.2913867" lon="14.135695"><ele>308.0</ele><time>2026-05-01T14:30:30.511Z</time></trkpt><trkpt lat="42.2913267" lon="14.1356583"><ele>311.33333333333337</ele><time>2026-05-01T14:30:33.51Z</time></trkpt><trkpt lat="42.2912767" lon="14.1355983"><ele>314.6666666666667</ele><time>2026-05-01T14:30:35.511Z</time></trkpt><trkpt lat="42.29121" lon="14.1355017"><ele>318.0</ele><time>2026-05-01T14:30:37.511Z</time></trkpt><trkpt lat="42.29115" lon="14.135355"><ele>321.3333333333333</ele><time>2026-05-01T14:30:39.51Z</time></trkpt><trkpt lat="42.2911133" lon="14.13528"><ele>324.66666666666663</ele><time>2026-05-01T14:30:40.513Z</time></trkpt><trkpt lat="42.291075" lon="14.1352"><ele>328.0</ele><time>2026-05-01T14:30:41.513Z</time></trkpt><trkpt lat="42.2910417" lon="14.1351167"><ele>328.0</ele><time>2026-05-01T14:30:42.512Z</time></trkpt><trkpt lat="42.2910067" lon="14.135035"><ele>328.0</ele><time>2026-05-01T14:30:43.511Z</time></trkpt><trkpt lat="42.29097" lon="14.13496"><ele>328.0</ele><time>2026-05-01T14:30:44.515Z</time></trkpt><trkpt lat="42.2909133" lon="14.1348217"><ele>328.0</ele><time>2026-05-01T14:30:46.51Z</time></trkpt><trkpt lat="42.290895" lon="14.134735"><ele>328.0</ele><time>2026-05-01T14:30:48.511Z</time></trkpt><trkpt lat="42.2909067" lon="14.13465"><ele>328.0</ele><time>2026-05-01T14:30:51.509Z</time></trkpt><trkpt lat="42.2908617" lon="14.13457"><ele>326.8333333333333</ele><time>2026-05-01T14:30:54.511Z</time></trkpt><trkpt lat="42.290805" lon="14.134425"><ele>325.66666666666663</ele><time>2026-05-01T14:30:56.512Z</time></trkpt><trkpt lat="42.2907767" lon="14.134345"><ele>324.5</ele><time>2026-05-01T14:30:57.512Z</time></trkpt><trkpt lat="42.2907433" lon="14.13427"><ele>323.3333333333333</ele><time>2026-05-01T14:30:58.51Z</time></trkpt><trkpt lat="42.2907067" lon="14.1341917"><ele>322.1666666666667</ele><time>2026-05-01T14:30:59.515Z</time></trkpt><trkpt lat="42.2906567" lon="14.1341183"><ele>321.0</ele><time>2026-05-01T14:31:00.512Z</time></trkpt><trkpt lat="42.2905933" lon="14.1340367"><ele>320.6</ele><time>2026-05-01T14:31:01.512Z</time></trkpt><trkpt lat="42.2905217" lon="14.1339617"><ele>320.20000000000005</ele><time>2026-05-01T14:31:02.511Z</time></trkpt><trkpt lat="42.2904217" lon="14.1339133"><ele>319.79999999999995</ele><time>2026-05-01T14:31:03.511Z</time></trkpt><trkpt lat="42.2903183" lon="14.1338667"><ele>319.4</ele><time>2026-05-01T14:31:04.511Z</time></trkpt><trkpt lat="42.2902183" lon="14.1338133"><ele>319.0</ele><time>2026-05-01T14:31:05.511Z</time></trkpt><trkpt lat="42.2901233" lon="14.1337517"><ele>319.0</ele><time>2026-05-01T14:31:06.513Z</time></trkpt><trkpt lat="42.2900417" lon="14.133665"><ele>319.0</ele><time>2026-05-01T14:31:07.514Z</time></trkpt><trkpt lat="42.2899733" lon="14.1335583"><ele>319.0</ele><time>2026-05-01T14:31:08.514Z</time></trkpt><trkpt lat="42.28992" lon="14.1334417"><ele>319.0</ele><time>2026-05-01T14:31:09.511Z</time></trkpt><trkpt lat="42.289875" lon="14.133335"><ele>319.0</ele><time>2026-05-01T14:31:10.511Z</time></trkpt><trkpt lat="42.289825" lon="14.133245"><ele>318.5</ele><time>2026-05-01T14:31:11.512Z</time></trkpt><trkpt lat="42.2897717" lon="14.1331667"><ele>318.0</ele><time>2026-05-01T14:31:12.512Z</time></trkpt><trkpt lat="42.2897133" lon="14.1331083"><ele>317.5</ele><time>2026-05-01T14:31:13.511Z</time></trkpt><trkpt lat="42.2896317" lon="14.13301"><ele>317.0</ele><time>2026-05-01T14:31:15.509Z</time></trkpt><trkpt lat="42.28959" lon="14.1329217"><ele>316.5</ele><time>2026-05-01T14:31:17.509Z</time></trkpt><trkpt lat="42.2895883" lon="14.1328283"><ele>316.0</ele><time>2026-05-01T14:31:19.508Z</time></trkpt><trkpt lat="42.2896267" lon="14.13267"><ele>315.66666666666663</ele><time>2026-05-01T14:31:21.51Z</time></trkpt><trkpt lat="42.2896367" lon="14.132585"><ele>315.3333333333333</ele><time>2026-05-01T14:31:22.511Z</time></trkpt><trkpt lat="42.289645" lon="14.132485"><ele>315.0</ele><time>2026-05-01T14:31:23.509Z</time></trkpt><trkpt lat="42.28966" lon="14.1323733"><ele>314.6666666666667</ele><time>2026-05-01T14:31:24.512Z</time></trkpt><trkpt lat="42.2896867" lon="14.132265"><ele>314.33333333333337</ele><time>2026-05-01T14:31:25.513Z</time></trkpt><trkpt lat="42.289715" lon="14.132155"><ele>314.0</ele><time>2026-05-01T14:31:26.512Z</time></trkpt><trkpt lat="42.2897467" lon="14.1320467"><ele>313.1666666666667</ele><time>2026-05-01T14:31:27.51Z</time></trkpt><trkpt lat="42.2897833" lon="14.1319533"><ele>312.33333333333337</ele><time>2026-05-01T14:31:28.511Z</time></trkpt><trkpt lat="42.289825" lon="14.13186"><ele>311.5</ele><time>2026-05-01T14:31:29.511Z</time></trkpt><trkpt lat="42.2898667" lon="14.1317717"><ele>310.6666666666667</ele><time>2026-05-01T14:31:30.512Z</time></trkpt><trkpt lat="42.289905" lon="14.1316867"><ele>309.8333333333333</ele><time>2026-05-01T14:31:31.517Z</time></trkpt><trkpt lat="42.28997" lon="14.1315667"><ele>309.0</ele><time>2026-05-01T14:31:33.509Z</time></trkpt><trkpt lat="42.2900183" lon="14.1314783"><ele>306.3333333333333</ele><time>2026-05-01T14:31:35.512Z</time></trkpt><trkpt lat="42.2900783" lon="14.1314017"><ele>303.6666666666667</ele><time>2026-05-01T14:31:38.514Z</time></trkpt><trkpt lat="42.2901083" lon="14.131315"><ele>301.0</ele><time>2026-05-01T14:31:41.51Z</time></trkpt><trkpt lat="42.290125" lon="14.1311983"><ele>298.33333333333337</ele><time>2026-05-01T14:31:44.51Z</time></trkpt><trkpt lat="42.29016" lon="14.1311033"><ele>295.6666666666667</ele><time>2026-05-01T14:31:46.508Z</time></trkpt><trkpt lat="42.2901917" lon="14.1310067"><ele>293.0</ele><time>2026-05-01T14:31:48.509Z</time></trkpt><trkpt lat="42.2902183" lon="14.13089"><ele>293.0</ele><time>2026-05-01T14:31:50.512Z</time></trkpt><trkpt lat="42.2902567" lon="14.1307367"><ele>293.0</ele><time>2026-05-01T14:31:52.512Z</time></trkpt><trkpt lat="42.2902733" lon="14.13065"><ele>293.0</ele><time>2026-05-01T14:31:53.508Z</time></trkpt><trkpt lat="42.2902933" lon="14.1305617"><ele>293.0</ele><time>2026-05-01T14:31:54.51Z</time></trkpt><trkpt lat="42.2903167" lon="14.1304783"><ele>293.0</ele><time>2026-05-01T14:31:55.511Z</time></trkpt><trkpt lat="42.290335" lon="14.130395"><ele>293.0</ele><time>2026-05-01T14:31:56.51Z</time></trkpt><trkpt lat="42.2903717" lon="14.1302383"><ele>290.33333333333337</ele><time>2026-05-01T14:31:58.51Z</time></trkpt><trkpt lat="42.2903833" lon="14.1300633"><ele>287.6666666666667</ele><time>2026-05-01T14:32:00.511Z</time></trkpt><trkpt lat="42.2903833" lon="14.1299667"><ele>285.0</ele><time>2026-05-01T14:32:01.514Z</time></trkpt><trkpt lat="42.2903833" lon="14.12987"><ele>282.3333333333333</ele><time>2026-05-01T14:32:02.511Z</time></trkpt><trkpt lat="42.290375" lon="14.1297667"><ele>279.66666666666663</ele><time>2026-05-01T14:32:03.51Z</time></trkpt><trkpt lat="42.2903733" lon="14.1296533"><ele>277.0</ele><time>2026-05-01T14:32:04.51Z</time></trkpt><trkpt lat="42.2903667" lon="14.12955"><ele>275.85714285714283</ele><time>2026-05-01T14:32:05.51Z</time></trkpt><trkpt lat="42.2903533" lon="14.1294567"><ele>274.71428571428567</ele><time>2026-05-01T14:32:06.512Z</time></trkpt><trkpt lat="42.290345" lon="14.12937"><ele>273.57142857142856</ele><time>2026-05-01T14:32:07.51Z</time></trkpt><trkpt lat="42.2903467" lon="14.1292783"><ele>272.42857142857144</ele><time>2026-05-01T14:32:08.514Z</time></trkpt><trkpt lat="42.29035" lon="14.1291783"><ele>271.28571428571433</ele><time>2026-05-01T14:32:09.512Z</time></trkpt><trkpt lat="42.2903533" lon="14.1290767"><ele>270.14285714285717</ele><time>2026-05-01T14:32:10.512Z</time></trkpt><trkpt lat="42.2903617" lon="14.1289733"><ele>269.0</ele><time>2026-05-01T14:32:11.51Z</time></trkpt><trkpt lat="42.29037" lon="14.128875"><ele>266.14285714285717</ele><time>2026-05-01T14:32:12.514Z</time></trkpt><trkpt lat="42.290385" lon="14.1287817"><ele>263.28571428571433</ele><time>2026-05-01T14:32:13.51Z</time></trkpt><trkpt lat="42.2903983" lon="14.128695"><ele>260.42857142857144</ele><time>2026-05-01T14:32:14.512Z</time></trkpt><trkpt lat="42.2904033" lon="14.1286067"><ele>257.57142857142856</ele><time>2026-05-01T14:32:15.511Z</time></trkpt><trkpt lat="42.2904183" lon="14.128515"><ele>254.7142857142857</ele><time>2026-05-01T14:32:16.509Z</time></trkpt><trkpt lat="42.2904283" lon="14.128425"><ele>251.85714285714283</ele><time>2026-05-01T14:32:17.509Z</time></trkpt><trkpt lat="42.2904367" lon="14.1283367"><ele>249.0</ele><time>2026-05-01T14:32:18.509Z</time></trkpt><trkpt lat="42.29045" lon="14.128245"><ele>246.0</ele><time>2026-05-01T14:32:19.511Z</time></trkpt><trkpt lat="42.2904667" lon="14.1281617"><ele>242.99999999999997</ele><time>2026-05-01T14:32:20.509Z</time></trkpt><trkpt lat="42.29048" lon="14.128075"><ele>240.0</ele><time>2026-05-01T14:32:21.51Z</time></trkpt><trkpt lat="42.2904933" lon="14.1279883"><ele>237.0</ele><time>2026-05-01T14:32:22.509Z</time></trkpt><trkpt lat="42.2905067" lon="14.127905"><ele>233.99999999999997</ele><time>2026-05-01T14:32:23.51Z</time></trkpt><trkpt lat="42.29052" lon="14.12782"><ele>231.0</ele><time>2026-05-01T14:32:24.511Z</time></trkpt><trkpt lat="42.2905317" lon="14.1277267"><ele>228.0</ele><time>2026-05-01T14:32:25.515Z</time></trkpt><trkpt lat="42.2905433" lon="14.1276333"><ele>228.0</ele><time>2026-05-01T14:32:26.51Z</time></trkpt><trkpt lat="42.29056" lon="14.127545"><ele>227.99999999999997</ele><time>2026-05-01T14:32:27.516Z</time></trkpt><trkpt lat="42.2905733" lon="14.12746"><ele>228.0</ele><time>2026-05-01T14:32:28.51Z</time></trkpt><trkpt lat="42.2905867" lon="14.1273683"><ele>228.0</ele><time>2026-05-01T14:32:29.51Z</time></trkpt><trkpt lat="42.2906" lon="14.1272817"><ele>227.99999999999997</ele><time>2026-05-01T14:32:30.51Z</time></trkpt><trkpt lat="42.2906083" lon="14.127195"><ele>228.0</ele><time>2026-05-01T14:32:31.51Z</time></trkpt><trkpt lat="42.2906217" lon="14.12711"><ele>228.0</ele><time>2026-05-01T14:32:32.511Z</time></trkpt><trkpt lat="42.2906333" lon="14.127025"><ele>227.33333333333334</ele><time>2026-05-01T14:32:33.511Z</time></trkpt><trkpt lat="42.2906417" lon="14.12694"><ele>226.66666666666669</ele><time>2026-05-01T14:32:34.516Z</time></trkpt><trkpt lat="42.29064" lon="14.1267683"><ele>226.0</ele><time>2026-05-01T14:32:36.51Z</time></trkpt><trkpt lat="42.290635" lon="14.12668"><ele>225.33333333333334</ele><time>2026-05-01T14:32:37.51Z</time></trkpt><trkpt lat="42.2906233" lon="14.12659"><ele>224.66666666666669</ele><time>2026-05-01T14:32:38.513Z</time></trkpt><trkpt lat="42.2906067" lon="14.1264867"><ele>224.0</ele><time>2026-05-01T14:32:39.512Z</time></trkpt><trkpt lat="42.2905917" lon="14.1263767"><ele>220.85714285714286</ele><time>2026-05-01T14:32:40.511Z</time></trkpt><trkpt lat="42.290575" lon="14.1262717"><ele>217.71428571428572</ele><time>2026-05-01T14:32:41.511Z</time></trkpt><trkpt lat="42.2905617" lon="14.1261733"><ele>214.57142857142856</ele><time>2026-05-01T14:32:42.512Z</time></trkpt><trkpt lat="42.2905467" lon="14.1260833"><ele>211.42857142857144</ele><time>2026-05-01T14:32:43.513Z</time></trkpt><trkpt lat="42.2905417" lon="14.1259967"><ele>208.28571428571428</ele><time>2026-05-01T14:32:44.513Z</time></trkpt><trkpt lat="42.2905467" lon="14.1259067"><ele>205.14285714285714</ele><time>2026-05-01T14:32:45.509Z</time></trkpt><trkpt lat="42.2905383" lon="14.12582"><ele>202.0</ele><time>2026-05-01T14:32:46.509Z</time></trkpt><trkpt lat="42.2905333" lon="14.1257283"><ele>201.39999999999998</ele><time>2026-05-01T14:32:47.509Z</time></trkpt><trkpt lat="42.2905233" lon="14.1256433"><ele>200.79999999999998</ele><time>2026-05-01T14:32:48.513Z</time></trkpt><trkpt lat="42.2905033" lon="14.125495"><ele>200.2</ele><time>2026-05-01T14:32:50.511Z</time></trkpt><trkpt lat="42.2905" lon="14.125365"><ele>199.6</ele><time>2026-05-01T14:32:52.509Z</time></trkpt><trkpt lat="42.290505" lon="14.1252383"><ele>199.0</ele><time>2026-05-01T14:32:54.51Z</time></trkpt><trkpt lat="42.29051" lon="14.125115"><ele>198.99999999999997</ele><time>2026-05-01T14:32:56.51Z</time></trkpt><trkpt lat="42.2905133" lon="14.125005"><ele>199.0</ele><time>2026-05-01T14:32:58.511Z</time></trkpt><trkpt lat="42.2905433" lon="14.1249017"><ele>199.0</ele><time>2026-05-01T14:33:01.513Z</time></trkpt><trkpt lat="42.2905883" lon="14.12481"><ele>199.0</ele><time>2026-05-01T14:33:04.51Z</time></trkpt><trkpt lat="42.29063" lon="14.124725"><ele>198.99999999999997</ele><time>2026-05-01T14:33:07.51Z</time></trkpt><trkpt lat="42.29068" lon="14.1246183"><ele>199.0</ele><time>2026-05-01T14:33:10.512Z</time></trkpt><trkpt lat="42.2907217" lon="14.1245367"><ele>198.28571428571428</ele><time>2026-05-01T14:33:12.513Z</time></trkpt><trkpt lat="42.290765" lon="14.1244483"><ele>197.57142857142856</ele><time>2026-05-01T14:33:14.509Z</time></trkpt><trkpt lat="42.290805" lon="14.12437"><ele>196.85714285714283</ele><time>2026-05-01T14:33:16.509Z</time></trkpt><trkpt lat="42.2908367" lon="14.124295"><ele>196.14285714285714</ele><time>2026-05-01T14:33:18.511Z</time></trkpt><trkpt lat="42.2908633" lon="14.1242167"><ele>195.42857142857144</ele><time>2026-05-01T14:33:20.511Z</time></trkpt><trkpt lat="42.2908883" lon="14.1241217"><ele>194.7142857142857</ele><time>2026-05-01T14:33:23.511Z</time></trkpt><trkpt lat="42.2909133" lon="14.12402"><ele>194.0</ele><time>2026-05-01T14:33:26.513Z</time></trkpt><trkpt lat="42.2909417" lon="14.1239"><ele>190.39999999999998</ele><time>2026-05-01T14:33:29.513Z</time></trkpt><trkpt lat="42.2909583" lon="14.123805"><ele>186.8</ele><time>2026-05-01T14:33:31.512Z</time></trkpt><trkpt lat="42.29097" lon="14.1236967"><ele>183.2</ele><time>2026-05-01T14:33:33.511Z</time></trkpt><trkpt lat="42.2909617" lon="14.1235633"><ele>179.60000000000002</ele><time>2026-05-01T14:33:35.511Z</time></trkpt><trkpt lat="42.2909233" lon="14.123425"><ele>176.0</ele><time>2026-05-01T14:33:37.512Z</time></trkpt><trkpt lat="42.2908867" lon="14.1233083"><ele>173.85714285714286</ele><time>2026-05-01T14:33:39.511Z</time></trkpt><trkpt lat="42.290855" lon="14.123225"><ele>171.71428571428572</ele><time>2026-05-01T14:33:41.514Z</time></trkpt><trkpt lat="42.2908183" lon="14.1231433"><ele>169.57142857142856</ele><time>2026-05-01T14:33:44.512Z</time></trkpt><trkpt lat="42.29079" lon="14.1230433"><ele>167.42857142857144</ele><time>2026-05-01T14:33:48.513Z</time></trkpt><trkpt lat="42.290765" lon="14.1229633"><ele>165.28571428571428</ele><time>2026-05-01T14:33:51.511Z</time></trkpt><trkpt lat="42.2907133" lon="14.1228567"><ele>163.14285714285714</ele><time>2026-05-01T14:34:03.512Z</time></trkpt><trkpt lat="42.2906833" lon="14.12278"><ele>161.0</ele><time>2026-05-01T14:34:07.515Z</time></trkpt><trkpt lat="42.2906767" lon="14.1226933"><ele>161.0</ele><time>2026-05-01T14:34:12.511Z</time></trkpt><trkpt lat="42.29069" lon="14.12259"><ele>161.0</ele><time>2026-05-01T14:34:17.511Z</time></trkpt><trkpt lat="42.2907467" lon="14.1225033"><ele>161.0</ele><time>2026-05-01T14:34:19.514Z</time></trkpt><trkpt lat="42.2907967" lon="14.1224333"><ele>161.0</ele><time>2026-05-01T14:34:21.511Z</time></trkpt><trkpt lat="42.2908617" lon="14.12238"><ele>161.0</ele><time>2026-05-01T14:34:23.512Z</time></trkpt><trkpt lat="42.2909267" lon="14.1223117"><ele>161.0</ele><time>2026-05-01T14:34:25.512Z</time></trkpt><trkpt lat="42.2909917" lon="14.1222567"><ele>161.0</ele><time>2026-05-01T14:34:27.51Z</time></trkpt><trkpt lat="42.2910033" lon="14.1221617"><ele>161.0</ele><time>2026-05-01T14:34:29.515Z</time></trkpt><trkpt lat="42.291" lon="14.1220233"><ele>161.0</ele><time>2026-05-01T14:34:31.51Z</time></trkpt><trkpt lat="42.29101" lon="14.121885"><ele>161.0</ele><time>2026-05-01T14:34:33.51Z</time></trkpt><trkpt lat="42.2910767" lon="14.12176"><ele>161.0</ele><time>2026-05-01T14:34:35.51Z</time></trkpt><trkpt lat="42.2911117" lon="14.121685"><ele>161.0</ele><time>2026-05-01T14:34:36.51Z</time></trkpt><trkpt lat="42.2911483" lon="14.1216033"><ele>161.0</ele><time>2026-05-01T14:34:37.511Z</time></trkpt><trkpt lat="42.291185" lon="14.1215"><ele>161.0</ele><time>2026-05-01T14:34:38.516Z</time></trkpt><trkpt lat="42.2912317" lon="14.1213933"><ele>161.0</ele><time>2026-05-01T14:34:39.511Z</time></trkpt><trkpt lat="42.2912833" lon="14.1212867"><ele>161.0</ele><time>2026-05-01T14:34:40.511Z</time></trkpt><trkpt lat="42.291335" lon="14.1211867"><ele>161.0</ele><time>2026-05-01T14:34:41.511Z</time></trkpt><trkpt lat="42.29138" lon="14.1210867"><ele>162.66666666666666</ele><time>2026-05-01T14:34:42.51Z</time></trkpt><trkpt lat="42.2914167" lon="14.1209783"><ele>164.33333333333331</ele><time>2026-05-01T14:34:43.509Z</time></trkpt><trkpt lat="42.291455" lon="14.120875"><ele>166.0</ele><time>2026-05-01T14:34:44.511Z</time></trkpt><trkpt lat="42.2915017" lon="14.1207733"><ele>167.66666666666666</ele><time>2026-05-01T14:34:45.51Z</time></trkpt><trkpt lat="42.2915467" lon="14.12068"><ele>169.33333333333334</ele><time>2026-05-01T14:34:46.511Z</time></trkpt><trkpt lat="42.2915967" lon="14.1205917"><ele>171.0</ele><time>2026-05-01T14:34:47.511Z</time></trkpt><trkpt lat="42.2916383" lon="14.1205"><ele>176.20000000000002</ele><time>2026-05-01T14:34:48.511Z</time></trkpt><trkpt lat="42.2916833" lon="14.120415"><ele>181.4</ele><time>2026-05-01T14:34:49.511Z</time></trkpt><trkpt lat="42.2917217" lon="14.1203283"><ele>186.6</ele><time>2026-05-01T14:34:50.517Z</time></trkpt><trkpt lat="42.291765" lon="14.12025"><ele>191.8</ele><time>2026-05-01T14:34:51.512Z</time></trkpt><trkpt lat="42.2918183" lon="14.1200967"><ele>197.0</ele><time>2026-05-01T14:34:53.509Z</time></trkpt><trkpt lat="42.2918117" lon="14.1199283"><ele>200.00000000000003</ele><time>2026-05-01T14:34:55.514Z</time></trkpt><trkpt lat="42.291805" lon="14.119835"><ele>203.0</ele><time>2026-05-01T14:34:56.512Z</time></trkpt><trkpt lat="42.29179" lon="14.1197333"><ele>206.0</ele><time>2026-05-01T14:34:57.511Z</time></trkpt><trkpt lat="42.2917783" lon="14.1196333"><ele>209.0</ele><time>2026-05-01T14:34:58.513Z</time></trkpt><trkpt lat="42.29175" lon="14.1195417"><ele>212.00000000000003</ele><time>2026-05-01T14:34:59.512Z</time></trkpt><trkpt lat="42.2917267" lon="14.1194217"><ele>215.0</ele><time>2026-05-01T14:35:01.51Z</time></trkpt><trkpt lat="42.2918283" lon="14.1194583"><ele>215.0</ele><time>2026-05-01T14:35:06.513Z</time></trkpt><trkpt lat="42.2919317" lon="14.1195017"><ele>215.0</ele><time>2026-05-01T14:35:08.513Z</time></trkpt><trkpt lat="42.2920433" lon="14.1194817"><ele>215.0</ele><time>2026-05-01T14:35:10.514Z</time></trkpt><trkpt lat="42.292155" lon="14.1194183"><ele>215.0</ele><time>2026-05-01T14:35:12.511Z</time></trkpt><trkpt lat="42.2922633" lon="14.1193383"><ele>217.50000000000003</ele><time>2026-05-01T14:35:14.513Z</time></trkpt><trkpt lat="42.292325" lon="14.119295"><ele>220.0</ele><time>2026-05-01T14:35:15.509Z</time></trkpt><trkpt lat="42.2923883" lon="14.11925"><ele>222.5</ele><time>2026-05-01T14:35:16.513Z</time></trkpt><trkpt lat="42.292445" lon="14.11921"><ele>225.0</ele><time>2026-05-01T14:35:17.511Z</time></trkpt><trkpt lat="42.2925467" lon="14.1191267"><ele>227.50000000000003</ele><time>2026-05-01T14:35:19.512Z</time></trkpt><trkpt lat="42.2926383" lon="14.1190183"><ele>230.0</ele><time>2026-05-01T14:35:21.51Z</time></trkpt><trkpt lat="42.2926883" lon="14.1189567"><ele>232.83333333333334</ele><time>2026-05-01T14:35:22.51Z</time></trkpt><trkpt lat="42.2927417" lon="14.1188867"><ele>235.66666666666669</ele><time>2026-05-01T14:35:23.512Z</time></trkpt><trkpt lat="42.2928017" lon="14.11881"><ele>238.5</ele><time>2026-05-01T14:35:24.511Z</time></trkpt><trkpt lat="42.292865" lon="14.1187367"><ele>241.33333333333331</ele><time>2026-05-01T14:35:25.511Z</time></trkpt><trkpt lat="42.2929317" lon="14.1186767"><ele>244.16666666666666</ele><time>2026-05-01T14:35:26.512Z</time></trkpt><trkpt lat="42.2929833" lon="14.1186267"><ele>247.0</ele><time>2026-05-01T14:35:27.51Z</time></trkpt><trkpt lat="42.2930367" lon="14.1185283"><ele>246.99999999999997</ele><time>2026-05-01T14:35:29.513Z</time></trkpt><trkpt lat="42.2930483" lon="14.1184"><ele>247.0</ele><time>2026-05-01T14:35:31.51Z</time></trkpt><trkpt lat="42.2930067" lon="14.1182633"><ele>247.0</ele><time>2026-05-01T14:35:33.51Z</time></trkpt><trkpt lat="42.2929967" lon="14.1181717"><ele>247.0</ele><time>2026-05-01T14:35:35.514Z</time></trkpt><trkpt lat="42.2930567" lon="14.11814"><ele>246.99999999999997</ele><time>2026-05-01T14:35:58.512Z</time></trkpt><trkpt lat="42.2931217" lon="14.11815"><ele>247.0</ele><time>2026-05-01T14:36:00.513Z</time></trkpt><trkpt lat="42.293185" lon="14.1181417"><ele>245.83333333333331</ele><time>2026-05-01T14:36:01.514Z</time></trkpt><trkpt lat="42.293255" lon="14.1181183"><ele>244.66666666666666</ele><time>2026-05-01T14:36:02.512Z</time></trkpt><trkpt lat="42.2933567" lon="14.1180817"><ele>243.5</ele><time>2026-05-01T14:36:04.513Z</time></trkpt><trkpt lat="42.2934183" lon="14.1180583"><ele>242.33333333333331</ele><time>2026-05-01T14:36:06.513Z</time></trkpt><trkpt lat="42.293515" lon="14.1180167"><ele>241.16666666666666</ele><time>2026-05-01T14:36:09.511Z</time></trkpt><trkpt lat="42.2935933" lon="14.1179633"><ele>240.0</ele><time>2026-05-01T14:36:11.509Z</time></trkpt><trkpt lat="42.2934983" lon="14.11801"><ele>240.0</ele><time>2026-05-01T14:36:28.512Z</time></trkpt><trkpt lat="42.2934133" lon="14.11806"><ele>240.0</ele><time>2026-05-01T14:36:29.513Z</time></trkpt><trkpt lat="42.2933317" lon="14.1181017"><ele>240.0</ele><time>2026-05-01T14:36:30.51Z</time></trkpt><trkpt lat="42.2932617" lon="14.1181383"><ele>240.0</ele><time>2026-05-01T14:36:31.515Z</time></trkpt><trkpt lat="42.2931583" lon="14.1181717"><ele>240.0</ele><time>2026-05-01T14:36:33.51Z</time></trkpt><trkpt lat="42.293095" lon="14.118185"><ele>240.0</ele><time>2026-05-01T14:36:35.509Z</time></trkpt><trkpt lat="42.2930217" lon="14.1181733"><ele>240.4</ele><time>2026-05-01T14:36:38.513Z</time></trkpt><trkpt lat="42.292955" lon="14.1181483"><ele>240.8</ele><time>2026-05-01T14:36:41.511Z</time></trkpt><trkpt lat="42.2927883" lon="14.118115"><ele>241.2</ele><time>2026-05-01T14:37:48.509Z</time></trkpt><trkpt lat="42.2927217" lon="14.1180883"><ele>241.6</ele><time>2026-05-01T14:37:49.511Z</time></trkpt><trkpt lat="42.29265" lon="14.118055"><ele>242.0</ele><time>2026-05-01T14:37:50.51Z</time></trkpt><trkpt lat="42.2925783" lon="14.1180233"><ele>242.00000000000003</ele><time>2026-05-01T14:37:51.509Z</time></trkpt><trkpt lat="42.2925117" lon="14.1179833"><ele>242.0</ele><time>2026-05-01T14:37:52.509Z</time></trkpt><trkpt lat="42.2924533" lon="14.1179367"><ele>242.0</ele><time>2026-05-01T14:37:53.511Z</time></trkpt><trkpt lat="42.29241" lon="14.1178733"><ele>242.0</ele><time>2026-05-01T14:37:54.512Z</time></trkpt><trkpt lat="42.2923833" lon="14.117795"><ele>242.00000000000003</ele><time>2026-05-01T14:37:55.511Z</time></trkpt><trkpt lat="42.2923917" lon="14.1176217"><ele>242.0</ele><time>2026-05-01T14:37:57.51Z</time></trkpt><trkpt lat="42.29248" lon="14.1175183"><ele>242.00000000000003</ele><time>2026-05-01T14:37:59.513Z</time></trkpt><trkpt lat="42.2925883" lon="14.117495"><ele>242.0</ele><time>2026-05-01T14:38:01.515Z</time></trkpt><trkpt lat="42.2926517" lon="14.1175133"><ele>242.0</ele><time>2026-05-01T14:38:02.512Z</time></trkpt><trkpt lat="42.2927333" lon="14.1175717"><ele>242.0</ele><time>2026-05-01T14:38:03.509Z</time></trkpt><trkpt lat="42.2928117" lon="14.1176333"><ele>242.00000000000003</ele><time>2026-05-01T14:38:04.511Z</time></trkpt><trkpt lat="42.2928867" lon="14.117685"><ele>242.0</ele><time>2026-05-01T14:38:05.51Z</time></trkpt><trkpt lat="42.2929583" lon="14.1177117"><ele>242.00000000000003</ele><time>2026-05-01T14:38:06.515Z</time></trkpt><trkpt lat="42.2930283" lon="14.1177333"><ele>242.0</ele><time>2026-05-01T14:38:07.51Z</time></trkpt><trkpt lat="42.2930967" lon="14.1177483"><ele>242.0</ele><time>2026-05-01T14:38:08.511Z</time></trkpt><trkpt lat="42.293145" lon="14.1176517"><ele>242.0</ele><time>2026-05-01T14:38:10.51Z</time></trkpt><trkpt lat="42.293095" lon="14.1175783"><ele>242.00000000000003</ele><time>2026-05-01T14:38:11.514Z</time></trkpt><trkpt lat="42.2930367" lon="14.1174517"><ele>242.0</ele><time>2026-05-01T14:38:13.51Z</time></trkpt><trkpt lat="42.29297" lon="14.117355"><ele>237.66666666666669</ele><time>2026-05-01T14:38:14.513Z</time></trkpt><trkpt lat="42.29282" lon="14.11718"><ele>233.33333333333331</ele><time>2026-05-01T14:38:15.509Z</time></trkpt><trkpt lat="42.2927067" lon="14.117015"><ele>229.0</ele><time>2026-05-01T14:38:16.514Z</time></trkpt><trkpt lat="42.2926117" lon="14.1168533"><ele>229.0</ele><time>2026-05-01T14:38:17.512Z</time></trkpt><trkpt lat="42.2925267" lon="14.1167"><ele>229.0</ele><time>2026-05-01T14:38:18.509Z</time></trkpt><trkpt lat="42.29244" lon="14.1165567"><ele>229.0</ele><time>2026-05-01T14:38:19.516Z</time></trkpt><trkpt lat="42.29235" lon="14.116425"><ele>229.0</ele><time>2026-05-01T14:38:20.51Z</time></trkpt><trkpt lat="42.2922533" lon="14.116295"><ele>225.5</ele><time>2026-05-01T14:38:21.511Z</time></trkpt><trkpt lat="42.292155" lon="14.11617"><ele>222.0</ele><time>2026-05-01T14:38:22.509Z</time></trkpt><trkpt lat="42.2920533" lon="14.1160483"><ele>218.5</ele><time>2026-05-01T14:38:23.509Z</time></trkpt><trkpt lat="42.291955" lon="14.1159217"><ele>215.0</ele><time>2026-05-01T14:38:24.514Z</time></trkpt><trkpt lat="42.29186" lon="14.1157917"><ele>214.25</ele><time>2026-05-01T14:38:25.514Z</time></trkpt><trkpt lat="42.2917633" lon="14.1156583"><ele>213.5</ele><time>2026-05-01T14:38:26.513Z</time></trkpt><trkpt lat="42.29167" lon="14.1155183"><ele>212.75</ele><time>2026-05-01T14:38:27.512Z</time></trkpt><trkpt lat="42.2915783" lon="14.1153767"><ele>212.0</ele><time>2026-05-01T14:38:28.512Z</time></trkpt><trkpt lat="42.29149" lon="14.1152283"><ele>212.0</ele><time>2026-05-01T14:38:29.518Z</time></trkpt><trkpt lat="42.2914033" lon="14.1150833"><ele>212.0</ele><time>2026-05-01T14:38:30.512Z</time></trkpt><trkpt lat="42.2913217" lon="14.1149333"><ele>212.0</ele><time>2026-05-01T14:38:31.513Z</time></trkpt><trkpt lat="42.2912467" lon="14.1147767"><ele>212.0</ele><time>2026-05-01T14:38:32.513Z</time></trkpt><trkpt lat="42.2911733" lon="14.1146183"><ele>212.5</ele><time>2026-05-01T14:38:33.514Z</time></trkpt><trkpt lat="42.2911" lon="14.1144633"><ele>213.0</ele><time>2026-05-01T14:38:34.512Z</time></trkpt><trkpt lat="42.2910233" lon="14.1143083"><ele>213.5</ele><time>2026-05-01T14:38:35.514Z</time></trkpt><trkpt lat="42.29095" lon="14.114145"><ele>214.0</ele><time>2026-05-01T14:38:36.513Z</time></trkpt><trkpt lat="42.290875" lon="14.1139817"><ele>214.0</ele><time>2026-05-01T14:38:37.517Z</time></trkpt><trkpt lat="42.2908017" lon="14.11382"><ele>214.0</ele><time>2026-05-01T14:38:38.514Z</time></trkpt><trkpt lat="42.2907267" lon="14.1136567"><ele>214.0</ele><time>2026-05-01T14:38:39.512Z</time></trkpt><trkpt lat="42.2906567" lon="14.1134933"><ele>214.0</ele><time>2026-05-01T14:38:40.512Z</time></trkpt><trkpt lat="42.29059" lon="14.1133283"><ele>216.5</ele><time>2026-05-01T14:38:41.515Z</time></trkpt><trkpt lat="42.290525" lon="14.11316"><ele>219.0</ele><time>2026-05-01T14:38:42.513Z</time></trkpt><trkpt lat="42.29047" lon="14.11299"><ele>221.5</ele><time>2026-05-01T14:38:43.514Z</time></trkpt><trkpt lat="42.2904217" lon="14.112815"><ele>224.0</ele><time>2026-05-01T14:38:44.513Z</time></trkpt><trkpt lat="42.29038" lon="14.1126333"><ele>224.0</ele><time>2026-05-01T14:38:45.51Z</time></trkpt><trkpt lat="42.29034" lon="14.112445"><ele>224.0</ele><time>2026-05-01T14:38:46.512Z</time></trkpt><trkpt lat="42.2903017" lon="14.1122467"><ele>224.0</ele><time>2026-05-01T14:38:47.51Z</time></trkpt><trkpt lat="42.29026" lon="14.11204"><ele>222.33333333333334</ele><time>2026-05-01T14:38:48.511Z</time></trkpt><trkpt lat="42.290215" lon="14.1118317"><ele>220.66666666666669</ele><time>2026-05-01T14:38:49.514Z</time></trkpt><trkpt lat="42.2901683" lon="14.1116267"><ele>219.0</ele><time>2026-05-01T14:38:50.512Z</time></trkpt><trkpt lat="42.2901383" lon="14.111435"><ele>217.25</ele><time>2026-05-01T14:38:51.511Z</time></trkpt><trkpt lat="42.2901283" lon="14.111255"><ele>215.5</ele><time>2026-05-01T14:38:52.511Z</time></trkpt><trkpt lat="42.2901383" lon="14.1110867"><ele>213.75</ele><time>2026-05-01T14:38:53.51Z</time></trkpt><trkpt lat="42.2901667" lon="14.110925"><ele>212.0</ele><time>2026-05-01T14:38:54.51Z</time></trkpt><trkpt lat="42.290205" lon="14.1107667"><ele>209.8</ele><time>2026-05-01T14:38:55.513Z</time></trkpt><trkpt lat="42.2902483" lon="14.1106267"><ele>207.6</ele><time>2026-05-01T14:38:56.514Z</time></trkpt><trkpt lat="42.2903" lon="14.1105"><ele>205.4</ele><time>2026-05-01T14:38:57.513Z</time></trkpt><trkpt lat="42.2903617" lon="14.11039"><ele>203.20000000000002</ele><time>2026-05-01T14:38:58.51Z</time></trkpt><trkpt lat="42.2904467" lon="14.1102967"><ele>201.0</ele><time>2026-05-01T14:38:59.515Z</time></trkpt><trkpt lat="42.29055" lon="14.110205"><ele>202.5</ele><time>2026-05-01T14:39:00.519Z</time></trkpt><trkpt lat="42.2906617" lon="14.1101017"><ele>204.0</ele><time>2026-05-01T14:39:01.511Z</time></trkpt><trkpt lat="42.29078" lon="14.1099867"><ele>205.5</ele><time>2026-05-01T14:39:02.513Z</time></trkpt><trkpt lat="42.2909033" lon="14.1098667"><ele>207.0</ele><time>2026-05-01T14:39:03.513Z</time></trkpt><trkpt lat="42.2910217" lon="14.10974"><ele>207.0</ele><time>2026-05-01T14:39:04.519Z</time></trkpt><trkpt lat="42.291135" lon="14.10961"><ele>207.0</ele><time>2026-05-01T14:39:05.515Z</time></trkpt><trkpt lat="42.29124" lon="14.1094867"><ele>207.0</ele><time>2026-05-01T14:39:06.516Z</time></trkpt><trkpt lat="42.2913417" lon="14.1093783"><ele>207.0</ele><time>2026-05-01T14:39:07.513Z</time></trkpt><trkpt lat="42.29145" lon="14.10928"><ele>211.25</ele><time>2026-05-01T14:39:08.514Z</time></trkpt><trkpt lat="42.2915683" lon="14.1091983"><ele>215.5</ele><time>2026-05-01T14:39:09.514Z</time></trkpt><trkpt lat="42.2916883" lon="14.10912"><ele>219.75</ele><time>2026-05-01T14:39:10.511Z</time></trkpt><trkpt lat="42.29181" lon="14.109035"><ele>224.0</ele><time>2026-05-01T14:39:11.511Z</time></trkpt><trkpt lat="42.2919283" lon="14.1089467"><ele>223.5</ele><time>2026-05-01T14:39:12.511Z</time></trkpt><trkpt lat="42.2920367" lon="14.1088583"><ele>223.0</ele><time>2026-05-01T14:39:13.511Z</time></trkpt><trkpt lat="42.2921367" lon="14.10876"><ele>222.5</ele><time>2026-05-01T14:39:14.51Z</time></trkpt><trkpt lat="42.2922267" lon="14.1086467"><ele>222.0</ele><time>2026-05-01T14:39:15.51Z</time></trkpt><trkpt lat="42.29231" lon="14.1085233"><ele>222.0</ele><time>2026-05-01T14:39:16.51Z</time></trkpt><trkpt lat="42.2923867" lon="14.1083833"><ele>222.0</ele><time>2026-05-01T14:39:17.509Z</time></trkpt><trkpt lat="42.29246" lon="14.1082233"><ele>222.0</ele><time>2026-05-01T14:39:18.512Z</time></trkpt><trkpt lat="42.29254" lon="14.1080517"><ele>222.0</ele><time>2026-05-01T14:39:19.512Z</time></trkpt><trkpt lat="42.2926117" lon="14.1078783"><ele>223.66666666666669</ele><time>2026-05-01T14:39:20.512Z</time></trkpt><trkpt lat="42.2926783" lon="14.1076983"><ele>225.33333333333334</ele><time>2026-05-01T14:39:21.515Z</time></trkpt><trkpt lat="42.292745" lon="14.10751"><ele>227.0</ele><time>2026-05-01T14:39:22.511Z</time></trkpt><trkpt lat="42.2928183" lon="14.107315"><ele>228.0</ele><time>2026-05-01T14:39:23.512Z</time></trkpt><trkpt lat="42.29289" lon="14.1071167"><ele>229.0</ele><time>2026-05-01T14:39:24.513Z</time></trkpt><trkpt lat="42.2929617" lon="14.10692"><ele>230.0</ele><time>2026-05-01T14:39:25.512Z</time></trkpt><trkpt lat="42.29303" lon="14.1067333"><ele>226.75</ele><time>2026-05-01T14:39:26.512Z</time></trkpt><trkpt lat="42.2930967" lon="14.1065533"><ele>223.5</ele><time>2026-05-01T14:39:27.515Z</time></trkpt><trkpt lat="42.2931633" lon="14.106385"><ele>220.25</ele><time>2026-05-01T14:39:28.514Z</time></trkpt><trkpt lat="42.2932367" lon="14.1062233"><ele>217.0</ele><time>2026-05-01T14:39:29.513Z</time></trkpt><trkpt lat="42.2933167" lon="14.1060667"><ele>217.0</ele><time>2026-05-01T14:39:30.514Z</time></trkpt><trkpt lat="42.2934033" lon="14.1059133"><ele>217.0</ele><time>2026-05-01T14:39:31.514Z</time></trkpt><trkpt lat="42.2934967" lon="14.1057733"><ele>217.0</ele><time>2026-05-01T14:39:32.515Z</time></trkpt><trkpt lat="42.2935917" lon="14.1056367"><ele>217.0</ele><time>2026-05-01T14:39:33.513Z</time></trkpt><trkpt lat="42.2936883" lon="14.1054983"><ele>217.75</ele><time>2026-05-01T14:39:34.512Z</time></trkpt><trkpt lat="42.2937817" lon="14.1053583"><ele>218.5</ele><time>2026-05-01T14:39:35.513Z</time></trkpt><trkpt lat="42.2938717" lon="14.105215"><ele>219.25</ele><time>2026-05-01T14:39:36.513Z</time></trkpt><trkpt lat="42.2939567" lon="14.105065"><ele>220.0</ele><time>2026-05-01T14:39:37.513Z</time></trkpt><trkpt lat="42.294035" lon="14.1049067"><ele>217.25</ele><time>2026-05-01T14:39:38.513Z</time></trkpt><trkpt lat="42.294115" lon="14.1047467"><ele>214.5</ele><time>2026-05-01T14:39:39.512Z</time></trkpt><trkpt lat="42.2941967" lon="14.1045883"><ele>211.75</ele><time>2026-05-01T14:39:40.512Z</time></trkpt><trkpt lat="42.294275" lon="14.104425"><ele>209.0</ele><time>2026-05-01T14:39:41.512Z</time></trkpt><trkpt lat="42.2943533" lon="14.1042583"><ele>209.0</ele><time>2026-05-01T14:39:42.512Z</time></trkpt><trkpt lat="42.2944333" lon="14.104095"><ele>209.0</ele><time>2026-05-01T14:39:43.514Z</time></trkpt><trkpt lat="42.2945133" lon="14.1039317"><ele>209.0</ele><time>2026-05-01T14:39:44.513Z</time></trkpt><trkpt lat="42.2945967" lon="14.103765"><ele>209.0</ele><time>2026-05-01T14:39:45.509Z</time></trkpt><trkpt lat="42.29468" lon="14.1035983"><ele>207.75</ele><time>2026-05-01T14:39:46.509Z</time></trkpt><trkpt lat="42.2947617" lon="14.103435"><ele>206.5</ele><time>2026-05-01T14:39:47.515Z</time></trkpt><trkpt lat="42.29484" lon="14.10327"><ele>205.25</ele><time>2026-05-01T14:39:48.512Z</time></trkpt><trkpt lat="42.29492" lon="14.1031067"><ele>204.0</ele><time>2026-05-01T14:39:49.512Z</time></trkpt><trkpt lat="42.2950033" lon="14.1029467"><ele>204.0</ele><time>2026-05-01T14:39:50.511Z</time></trkpt><trkpt lat="42.2950883" lon="14.1027917"><ele>204.0</ele><time>2026-05-01T14:39:51.515Z</time></trkpt><trkpt lat="42.2951733" lon="14.1026383"><ele>204.0</ele><time>2026-05-01T14:39:52.511Z</time></trkpt><trkpt lat="42.2952617" lon="14.1024833"><ele>204.0</ele><time>2026-05-01T14:39:53.512Z</time></trkpt><trkpt lat="42.295355" lon="14.10233"><ele>203.75</ele><time>2026-05-01T14:39:54.514Z</time></trkpt><trkpt lat="42.29546" lon="14.1021867"><ele>203.5</ele><time>2026-05-01T14:39:55.514Z</time></trkpt><trkpt lat="42.295565" lon="14.1020483"><ele>203.25</ele><time>2026-05-01T14:39:56.514Z</time></trkpt><trkpt lat="42.2956733" lon="14.1019167"><ele>203.0</ele><time>2026-05-01T14:39:57.513Z</time></trkpt><trkpt lat="42.2957867" lon="14.1017883"><ele>202.75</ele><time>2026-05-01T14:39:58.511Z</time></trkpt><trkpt lat="42.2958933" lon="14.10165"><ele>202.5</ele><time>2026-05-01T14:39:59.513Z</time></trkpt><trkpt lat="42.2959967" lon="14.1015067"><ele>202.25</ele><time>2026-05-01T14:40:00.514Z</time></trkpt><trkpt lat="42.2960967" lon="14.10135"><ele>202.0</ele><time>2026-05-01T14:40:01.512Z</time></trkpt><trkpt lat="42.2962017" lon="14.1012017"><ele>201.5</ele><time>2026-05-01T14:40:02.514Z</time></trkpt><trkpt lat="42.2963083" lon="14.1010583"><ele>201.0</ele><time>2026-05-01T14:40:03.511Z</time></trkpt><trkpt lat="42.2964117" lon="14.10092"><ele>200.5</ele><time>2026-05-01T14:40:04.511Z</time></trkpt><trkpt lat="42.2965167" lon="14.10079"><ele>200.0</ele><time>2026-05-01T14:40:05.509Z</time></trkpt><trkpt lat="42.2966283" lon="14.1006717"><ele>200.0</ele><time>2026-05-01T14:40:06.509Z</time></trkpt><trkpt lat="42.2967567" lon="14.1005667"><ele>200.0</ele><time>2026-05-01T14:40:07.512Z</time></trkpt><trkpt lat="42.29689" lon="14.1004583"><ele>200.0</ele><time>2026-05-01T14:40:08.509Z</time></trkpt><trkpt lat="42.2970117" lon="14.100335"><ele>200.0</ele><time>2026-05-01T14:40:09.511Z</time></trkpt><trkpt lat="42.2971233" lon="14.1001967"><ele>200.0</ele><time>2026-05-01T14:40:10.51Z</time></trkpt><trkpt lat="42.297225" lon="14.1000533"><ele>200.0</ele><time>2026-05-01T14:40:11.514Z</time></trkpt><trkpt lat="42.2973167" lon="14.099905"><ele>200.0</ele><time>2026-05-01T14:40:12.511Z</time></trkpt><trkpt lat="42.2973967" lon="14.0997567"><ele>196.0</ele><time>2026-05-01T14:40:13.51Z</time></trkpt><trkpt lat="42.2974617" lon="14.0996067"><ele>192.0</ele><time>2026-05-01T14:40:14.511Z</time></trkpt><trkpt lat="42.2975183" lon="14.099455"><ele>188.0</ele><time>2026-05-01T14:40:15.513Z</time></trkpt><trkpt lat="42.297565" lon="14.0993017"><ele>184.0</ele><time>2026-05-01T14:40:16.511Z</time></trkpt><trkpt lat="42.2975967" lon="14.099145"><ele>182.75</ele><time>2026-05-01T14:40:17.512Z</time></trkpt><trkpt lat="42.2976117" lon="14.0989833"><ele>181.5</ele><time>2026-05-01T14:40:18.512Z</time></trkpt><trkpt lat="42.2976167" lon="14.098815"><ele>180.25</ele><time>2026-05-01T14:40:19.513Z</time></trkpt><trkpt lat="42.2976167" lon="14.098645"><ele>179.0</ele><time>2026-05-01T14:40:20.513Z</time></trkpt><trkpt lat="42.2976183" lon="14.0984767"><ele>179.0</ele><time>2026-05-01T14:40:21.515Z</time></trkpt><trkpt lat="42.29762" lon="14.098315"><ele>179.0</ele><time>2026-05-01T14:40:22.511Z</time></trkpt><trkpt lat="42.297625" lon="14.0981617"><ele>179.0</ele><time>2026-05-01T14:40:23.512Z</time></trkpt><trkpt lat="42.2976467" lon="14.0980133"><ele>179.0</ele><time>2026-05-01T14:40:24.513Z</time></trkpt><trkpt lat="42.2976717" lon="14.097885"><ele>179.0</ele><time>2026-05-01T14:40:25.515Z</time></trkpt><trkpt lat="42.2976967" lon="14.0977817"><ele>179.16666666666666</ele><time>2026-05-01T14:40:26.513Z</time></trkpt><trkpt lat="42.2977317" lon="14.0976567"><ele>179.33333333333331</ele><time>2026-05-01T14:40:28.513Z</time></trkpt><trkpt lat="42.2977917" lon="14.097695"><ele>179.5</ele><time>2026-05-01T14:40:31.515Z</time></trkpt><trkpt lat="42.297815" lon="14.09783"><ele>179.66666666666666</ele><time>2026-05-01T14:40:33.513Z</time></trkpt><trkpt lat="42.2978483" lon="14.09792"><ele>179.83333333333334</ele><time>2026-05-01T14:40:34.512Z</time></trkpt><trkpt lat="42.2978933" lon="14.0980083"><ele>180.0</ele><time>2026-05-01T14:40:35.515Z</time></trkpt><trkpt lat="42.2979483" lon="14.09808"><ele>180.0</ele><time>2026-05-01T14:40:36.514Z</time></trkpt><trkpt lat="42.2980133" lon="14.0981267"><ele>180.0</ele><time>2026-05-01T14:40:37.513Z</time></trkpt><trkpt lat="42.2980867" lon="14.098185"><ele>180.0</ele><time>2026-05-01T14:40:38.514Z</time></trkpt><trkpt lat="42.2981583" lon="14.0982567"><ele>180.0</ele><time>2026-05-01T14:40:39.514Z</time></trkpt><trkpt lat="42.2982267" lon="14.0983333"><ele>180.0</ele><time>2026-05-01T14:40:40.511Z</time></trkpt><trkpt lat="42.2983017" lon="14.0984083"><ele>180.0</ele><time>2026-05-01T14:40:41.518Z</time></trkpt><trkpt lat="42.2983817" lon="14.0984767"><ele>176.0</ele><time>2026-05-01T14:40:42.516Z</time></trkpt><trkpt lat="42.2984667" lon="14.0985383"><ele>172.0</ele><time>2026-05-01T14:40:43.512Z</time></trkpt><trkpt lat="42.2985583" lon="14.0985883"><ele>168.0</ele><time>2026-05-01T14:40:44.516Z</time></trkpt><trkpt lat="42.298655" lon="14.098625"><ele>164.0</ele><time>2026-05-01T14:40:45.511Z</time></trkpt><trkpt lat="42.2987683" lon="14.0986533"><ele>160.0</ele><time>2026-05-01T14:40:46.51Z</time></trkpt><trkpt lat="42.2988933" lon="14.0986783"><ele>154.75</ele><time>2026-05-01T14:40:47.513Z</time></trkpt><trkpt lat="42.29902" lon="14.0987067"><ele>149.5</ele><time>2026-05-01T14:40:48.511Z</time></trkpt><trkpt lat="42.299145" lon="14.0987333"><ele>144.25</ele><time>2026-05-01T14:40:49.514Z</time></trkpt><trkpt lat="42.299265" lon="14.0987567"><ele>139.0</ele><time>2026-05-01T14:40:50.513Z</time></trkpt><trkpt lat="42.2993817" lon="14.098765"><ele>139.0</ele><time>2026-05-01T14:40:51.514Z</time></trkpt><trkpt lat="42.299495" lon="14.0987633"><ele>139.0</ele><time>2026-05-01T14:40:52.51Z</time></trkpt><trkpt lat="42.2996083" lon="14.09875"><ele>139.0</ele><time>2026-05-01T14:40:53.51Z</time></trkpt><trkpt lat="42.2997217" lon="14.0987333"><ele>139.0</ele><time>2026-05-01T14:40:54.514Z</time></trkpt><trkpt lat="42.2998333" lon="14.0987117"><ele>136.4</ele><time>2026-05-01T14:40:55.512Z</time></trkpt><trkpt lat="42.2999383" lon="14.0986833"><ele>133.8</ele><time>2026-05-01T14:40:56.516Z</time></trkpt><trkpt lat="42.3000417" lon="14.09865"><ele>131.2</ele><time>2026-05-01T14:40:57.51Z</time></trkpt><trkpt lat="42.300145" lon="14.0986017"><ele>128.6</ele><time>2026-05-01T14:40:58.511Z</time></trkpt><trkpt lat="42.3002533" lon="14.0985433"><ele>126.0</ele><time>2026-05-01T14:40:59.512Z</time></trkpt><trkpt lat="42.3003617" lon="14.0984767"><ele>126.0</ele><time>2026-05-01T14:41:00.513Z</time></trkpt><trkpt lat="42.3004583" lon="14.098395"><ele>126.0</ele><time>2026-05-01T14:41:01.513Z</time></trkpt><trkpt lat="42.3005483" lon="14.0983067"><ele>126.0</ele><time>2026-05-01T14:41:02.513Z</time></trkpt><trkpt lat="42.3006317" lon="14.09821"><ele>126.0</ele><time>2026-05-01T14:41:03.512Z</time></trkpt><trkpt lat="42.3007117" lon="14.0981083"><ele>126.0</ele><time>2026-05-01T14:41:04.511Z</time></trkpt><trkpt lat="42.3007933" lon="14.0980233"><ele>123.0</ele><time>2026-05-01T14:41:05.511Z</time></trkpt><trkpt lat="42.300885" lon="14.09795"><ele>120.0</ele><time>2026-05-01T14:41:06.512Z</time></trkpt><trkpt lat="42.3009883" lon="14.097895"><ele>117.0</ele><time>2026-05-01T14:41:07.512Z</time></trkpt><trkpt lat="42.3010967" lon="14.0978517"><ele>114.0</ele><time>2026-05-01T14:41:08.514Z</time></trkpt><trkpt lat="42.301205" lon="14.0978217"><ele>111.0</ele><time>2026-05-01T14:41:09.512Z</time></trkpt><trkpt lat="42.3013117" lon="14.097805"><ele>111.0</ele><time>2026-05-01T14:41:10.511Z</time></trkpt><trkpt lat="42.3014067" lon="14.0978017"><ele>111.0</ele><time>2026-05-01T14:41:11.512Z</time></trkpt><trkpt lat="42.3014883" lon="14.097805"><ele>111.0</ele><time>2026-05-01T14:41:12.511Z</time></trkpt><trkpt lat="42.301555" lon="14.0978083"><ele>111.0</ele><time>2026-05-01T14:41:13.515Z</time></trkpt><trkpt lat="42.3016583" lon="14.0978033"><ele>111.0</ele><time>2026-05-01T14:41:15.51Z</time></trkpt><trkpt lat="42.3016983" lon="14.0976833"><ele>111.0</ele><time>2026-05-01T14:41:17.512Z</time></trkpt><trkpt lat="42.301715" lon="14.0975617"><ele>109.5</ele><time>2026-05-01T14:41:18.512Z</time></trkpt><trkpt lat="42.3017383" lon="14.0974067"><ele>108.0</ele><time>2026-05-01T14:41:19.51Z</time></trkpt><trkpt lat="42.301765" lon="14.0972333"><ele>106.5</ele><time>2026-05-01T14:41:20.513Z</time></trkpt><trkpt lat="42.3017917" lon="14.0970417"><ele>105.0</ele><time>2026-05-01T14:41:21.51Z</time></trkpt><trkpt lat="42.3018217" lon="14.096855"><ele>105.0</ele><time>2026-05-01T14:41:22.51Z</time></trkpt><trkpt lat="42.301845" lon="14.0966783"><ele>105.0</ele><time>2026-05-01T14:41:23.508Z</time></trkpt><trkpt lat="42.3018717" lon="14.0965033"><ele>105.0</ele><time>2026-05-01T14:41:24.509Z</time></trkpt><trkpt lat="42.3018967" lon="14.0963267"><ele>105.0</ele><time>2026-05-01T14:41:25.513Z</time></trkpt><trkpt lat="42.3019233" lon="14.09615"><ele>105.25</ele><time>2026-05-01T14:41:26.51Z</time></trkpt><trkpt lat="42.3019483" lon="14.0959683"><ele>105.5</ele><time>2026-05-01T14:41:27.509Z</time></trkpt><trkpt lat="42.3019717" lon="14.0957767"><ele>105.75</ele><time>2026-05-01T14:41:28.51Z</time></trkpt><trkpt lat="42.3019983" lon="14.0955783"><ele>106.0</ele><time>2026-05-01T14:41:29.509Z</time></trkpt><trkpt lat="42.3020183" lon="14.09538"><ele>106.0</ele><time>2026-05-01T14:41:30.509Z</time></trkpt><trkpt lat="42.3020433" lon="14.0951833"><ele>106.0</ele><time>2026-05-01T14:41:31.512Z</time></trkpt><trkpt lat="42.3020633" lon="14.09502"><ele>106.0</ele><time>2026-05-01T14:41:32.513Z</time></trkpt><trkpt lat="42.302075" lon="14.0948817"><ele>106.0</ele><time>2026-05-01T14:41:33.511Z</time></trkpt><trkpt lat="42.3020767" lon="14.0947517"><ele>105.8</ele><time>2026-05-01T14:41:34.509Z</time></trkpt><trkpt lat="42.3020633" lon="14.0946283"><ele>105.6</ele><time>2026-05-01T14:41:35.511Z</time></trkpt><trkpt lat="42.3020333" lon="14.09451"><ele>105.4</ele><time>2026-05-01T14:41:36.511Z</time></trkpt><trkpt lat="42.302005" lon="14.0943917"><ele>105.2</ele><time>2026-05-01T14:41:37.51Z</time></trkpt><trkpt lat="42.301985" lon="14.0942733"><ele>105.0</ele><time>2026-05-01T14:41:38.517Z</time></trkpt><trkpt lat="42.3019667" lon="14.0941583"><ele>105.16666666666667</ele><time>2026-05-01T14:41:39.51Z</time></trkpt><trkpt lat="42.30194" lon="14.0940617"><ele>105.33333333333334</ele><time>2026-05-01T14:41:40.51Z</time></trkpt><trkpt lat="42.3019067" lon="14.09397"><ele>105.5</ele><time>2026-05-01T14:41:41.511Z</time></trkpt><trkpt lat="42.30185" lon="14.093895"><ele>105.66666666666667</ele><time>2026-05-01T14:41:42.511Z</time></trkpt><trkpt lat="42.30179" lon="14.0938133"><ele>105.83333333333334</ele><time>2026-05-01T14:41:43.512Z</time></trkpt><trkpt lat="42.3017317" lon="14.093725"><ele>106.0</ele><time>2026-05-01T14:41:44.514Z</time></trkpt><trkpt lat="42.3016917" lon="14.0936367"><ele>106.00000000000001</ele><time>2026-05-01T14:41:45.509Z</time></trkpt><trkpt lat="42.3016733" lon="14.0935467"><ele>106.0</ele><time>2026-05-01T14:41:46.509Z</time></trkpt><trkpt lat="42.3016767" lon="14.0934583"><ele>106.0</ele><time>2026-05-01T14:41:47.513Z</time></trkpt><trkpt lat="42.30171" lon="14.0933833"><ele>106.0</ele><time>2026-05-01T14:41:48.513Z</time></trkpt><trkpt lat="42.30177" lon="14.0933233"><ele>106.00000000000001</ele><time>2026-05-01T14:41:49.51Z</time></trkpt><trkpt lat="42.3018917" lon="14.09326"><ele>106.0</ele><time>2026-05-01T14:41:50.511Z</time></trkpt><trkpt lat="42.3020367" lon="14.0931817"><ele>108.25</ele><time>2026-05-01T14:41:51.512Z</time></trkpt><trkpt lat="42.3021783" lon="14.093105"><ele>110.5</ele><time>2026-05-01T14:41:52.514Z</time></trkpt><trkpt lat="42.3023183" lon="14.0930267"><ele>112.75</ele><time>2026-05-01T14:41:53.512Z</time></trkpt><trkpt lat="42.3024417" lon="14.09296"><ele>115.0</ele><time>2026-05-01T14:41:54.511Z</time></trkpt><trkpt lat="42.3025467" lon="14.0929017"><ele>115.0</ele><time>2026-05-01T14:41:55.509Z</time></trkpt><trkpt lat="42.3026367" lon="14.0928517"><ele>115.0</ele><time>2026-05-01T14:41:56.509Z</time></trkpt><trkpt lat="42.3027133" lon="14.09281"><ele>115.0</ele><time>2026-05-01T14:41:57.51Z</time></trkpt><trkpt lat="42.3027883" lon="14.09276"><ele>115.0</ele><time>2026-05-01T14:41:58.511Z</time></trkpt><trkpt lat="42.30287" lon="14.0927"><ele>115.0</ele><time>2026-05-01T14:41:59.514Z</time></trkpt><trkpt lat="42.302955" lon="14.0925967"><ele>115.0</ele><time>2026-05-01T14:42:00.511Z</time></trkpt><trkpt lat="42.30305" lon="14.0924733"><ele>115.0</ele><time>2026-05-01T14:42:01.516Z</time></trkpt><trkpt lat="42.30314" lon="14.092345"><ele>115.0</ele><time>2026-05-01T14:42:02.512Z</time></trkpt><trkpt lat="42.303225" lon="14.0922267"><ele>115.0</ele><time>2026-05-01T14:42:03.512Z</time></trkpt><trkpt lat="42.3033117" lon="14.0921083"><ele>114.0</ele><time>2026-05-01T14:42:04.512Z</time></trkpt><trkpt lat="42.3034067" lon="14.091995"><ele>113.0</ele><time>2026-05-01T14:42:05.516Z</time></trkpt><trkpt lat="42.303515" lon="14.0918967"><ele>112.0</ele><time>2026-05-01T14:42:06.512Z</time></trkpt><trkpt lat="42.3036367" lon="14.0918067"><ele>111.0</ele><time>2026-05-01T14:42:07.516Z</time></trkpt><trkpt lat="42.30377" lon="14.091725"><ele>111.0</ele><time>2026-05-01T14:42:08.519Z</time></trkpt><trkpt lat="42.3039083" lon="14.09165"><ele>111.0</ele><time>2026-05-01T14:42:09.511Z</time></trkpt><trkpt lat="42.3040417" lon="14.091575"><ele>111.0</ele><time>2026-05-01T14:42:10.511Z</time></trkpt><trkpt lat="42.3041733" lon="14.0915033"><ele>111.0</ele><time>2026-05-01T14:42:11.513Z</time></trkpt><trkpt lat="42.3043033" lon="14.091435"><ele>111.25</ele><time>2026-05-01T14:42:12.511Z</time></trkpt><trkpt lat="42.3044283" lon="14.0913667"><ele>111.5</ele><time>2026-05-01T14:42:13.51Z</time></trkpt><trkpt lat="42.3045533" lon="14.091295"><ele>111.75</ele><time>2026-05-01T14:42:14.511Z</time></trkpt><trkpt lat="42.30468" lon="14.0912167"><ele>112.0</ele><time>2026-05-01T14:42:15.511Z</time></trkpt><trkpt lat="42.3048067" lon="14.0911417"><ele>109.0</ele><time>2026-05-01T14:42:16.511Z</time></trkpt><trkpt lat="42.304935" lon="14.091065"><ele>106.0</ele><time>2026-05-01T14:42:17.509Z</time></trkpt><trkpt lat="42.30506" lon="14.0909867"><ele>103.0</ele><time>2026-05-01T14:42:18.508Z</time></trkpt><trkpt lat="42.30518" lon="14.09091"><ele>100.0</ele><time>2026-05-01T14:42:19.512Z</time></trkpt><trkpt lat="42.3052917" lon="14.090835"><ele>99.0</ele><time>2026-05-01T14:42:20.514Z</time></trkpt><trkpt lat="42.305405" lon="14.0907567"><ele>98.0</ele><time>2026-05-01T14:42:21.51Z</time></trkpt><trkpt lat="42.3055283" lon="14.0906833"><ele>97.0</ele><time>2026-05-01T14:42:22.508Z</time></trkpt><trkpt lat="42.3056483" lon="14.0906083"><ele>96.0</ele><time>2026-05-01T14:42:23.509Z</time></trkpt><trkpt lat="42.30576" lon="14.0905267"><ele>96.0</ele><time>2026-05-01T14:42:24.511Z</time></trkpt><trkpt lat="42.3058683" lon="14.090445"><ele>96.0</ele><time>2026-05-01T14:42:25.509Z</time></trkpt><trkpt lat="42.3059783" lon="14.09035"><ele>96.0</ele><time>2026-05-01T14:42:26.511Z</time></trkpt><trkpt lat="42.3060883" lon="14.0902533"><ele>96.0</ele><time>2026-05-01T14:42:27.51Z</time></trkpt><trkpt lat="42.3061867" lon="14.0901467"><ele>96.0</ele><time>2026-05-01T14:42:28.51Z</time></trkpt><trkpt lat="42.30628" lon="14.0900283"><ele>96.0</ele><time>2026-05-01T14:42:29.511Z</time></trkpt><trkpt lat="42.30637" lon="14.0898783"><ele>96.0</ele><time>2026-05-01T14:42:30.512Z</time></trkpt><trkpt lat="42.30644" lon="14.0897133"><ele>96.0</ele><time>2026-05-01T14:42:31.513Z</time></trkpt><trkpt lat="42.3065067" lon="14.089565"><ele>95.5</ele><time>2026-05-01T14:42:32.512Z</time></trkpt><trkpt lat="42.3065717" lon="14.0894467"><ele>95.0</ele><time>2026-05-01T14:42:33.512Z</time></trkpt><trkpt lat="42.30665" lon="14.089375"><ele>94.5</ele><time>2026-05-01T14:42:34.509Z</time></trkpt><trkpt lat="42.3067267" lon="14.0893317"><ele>94.0</ele><time>2026-05-01T14:42:35.514Z</time></trkpt><trkpt lat="42.3068067" lon="14.0893267"><ele>93.5</ele><time>2026-05-01T14:42:36.514Z</time></trkpt><trkpt lat="42.3068867" lon="14.0893433"><ele>93.0</ele><time>2026-05-01T14:42:37.512Z</time></trkpt><trkpt lat="42.30697" lon="14.0893767"><ele>93.0</ele><time>2026-05-01T14:42:38.51Z</time></trkpt><trkpt lat="42.307065" lon="14.0894417"><ele>93.0</ele><time>2026-05-01T14:42:39.512Z</time></trkpt><trkpt lat="42.30717" lon="14.0895117"><ele>93.0</ele><time>2026-05-01T14:42:40.512Z</time></trkpt><trkpt lat="42.3072633" lon="14.0895667"><ele>93.0</ele><time>2026-05-01T14:42:41.508Z</time></trkpt><trkpt lat="42.3073683" lon="14.089585"><ele>93.0</ele><time>2026-05-01T14:42:42.512Z</time></trkpt><trkpt lat="42.3074667" lon="14.0895983"><ele>92.75</ele><time>2026-05-01T14:42:43.51Z</time></trkpt><trkpt lat="42.307565" lon="14.0896383"><ele>92.5</ele><time>2026-05-01T14:42:44.512Z</time></trkpt><trkpt lat="42.3076833" lon="14.0896817"><ele>92.25</ele><time>2026-05-01T14:42:45.509Z</time></trkpt><trkpt lat="42.30781" lon="14.08971"><ele>92.0</ele><time>2026-05-01T14:42:46.508Z</time></trkpt><trkpt lat="42.307935" lon="14.0897517"><ele>92.0</ele><time>2026-05-01T14:42:47.509Z</time></trkpt><trkpt lat="42.308065" lon="14.08979"><ele>92.0</ele><time>2026-05-01T14:42:48.509Z</time></trkpt><trkpt lat="42.30819" lon="14.0898367"><ele>92.0</ele><time>2026-05-01T14:42:49.509Z</time></trkpt><trkpt lat="42.3083167" lon="14.08988"><ele>92.0</ele><time>2026-05-01T14:42:50.511Z</time></trkpt><trkpt lat="42.308445" lon="14.0899183"><ele>90.0</ele><time>2026-05-01T14:42:51.508Z</time></trkpt><trkpt lat="42.3085683" lon="14.0899583"><ele>88.0</ele><time>2026-05-01T14:42:52.51Z</time></trkpt><trkpt lat="42.3086833" lon="14.0900067"><ele>86.0</ele><time>2026-05-01T14:42:53.509Z</time></trkpt><trkpt lat="42.3087817" lon="14.090035"><ele>84.0</ele><time>2026-05-01T14:42:54.508Z</time></trkpt><trkpt lat="42.308855" lon="14.09006"><ele>82.0</ele><time>2026-05-01T14:42:55.509Z</time></trkpt><trkpt lat="42.30894" lon="14.0900883"><ele>81.33333333333333</ele><time>2026-05-01T14:42:57.51Z</time></trkpt><trkpt lat="42.3090067" lon="14.0901033"><ele>80.66666666666666</ele><time>2026-05-01T14:43:07.51Z</time></trkpt><trkpt lat="42.3090783" lon="14.090125"><ele>80.0</ele><time>2026-05-01T14:43:10.516Z</time></trkpt><trkpt lat="42.3091217" lon="14.0901867"><ele>79.33333333333333</ele><time>2026-05-01T14:43:12.509Z</time></trkpt><trkpt lat="42.3091817" lon="14.0902933"><ele>78.66666666666667</ele><time>2026-05-01T14:43:14.512Z</time></trkpt><trkpt lat="42.3092267" lon="14.0904517"><ele>78.0</ele><time>2026-05-01T14:43:16.514Z</time></trkpt><trkpt lat="42.3092633" lon="14.0905967"><ele>78.0</ele><time>2026-05-01T14:43:18.511Z</time></trkpt><trkpt lat="42.30929" lon="14.090755"><ele>78.0</ele><time>2026-05-01T14:43:20.508Z</time></trkpt><trkpt lat="42.3093183" lon="14.090835"><ele>78.0</ele><time>2026-05-01T14:43:21.509Z</time></trkpt><trkpt lat="42.3093617" lon="14.090905"><ele>78.0</ele><time>2026-05-01T14:43:22.511Z</time></trkpt><trkpt lat="42.3094217" lon="14.0909517"><ele>78.0</ele><time>2026-05-01T14:43:23.508Z</time></trkpt><trkpt lat="42.30948" lon="14.0909967"><ele>78.0</ele><time>2026-05-01T14:43:24.509Z</time></trkpt><trkpt lat="42.3095333" lon="14.0910467"><ele>77.71428571428572</ele><time>2026-05-01T14:43:25.51Z</time></trkpt><trkpt lat="42.3095833" lon="14.0911117"><ele>77.42857142857142</ele><time>2026-05-01T14:43:26.512Z</time></trkpt><trkpt lat="42.3096367" lon="14.09116"><ele>77.14285714285714</ele><time>2026-05-01T14:43:27.513Z</time></trkpt><trkpt lat="42.3096867" lon="14.0912233"><ele>76.85714285714286</ele><time>2026-05-01T14:43:28.511Z</time></trkpt><trkpt lat="42.309745" lon="14.0913"><ele>76.57142857142858</ele><time>2026-05-01T14:43:29.515Z</time></trkpt><trkpt lat="42.3098083" lon="14.0913783"><ele>76.28571428571428</ele><time>2026-05-01T14:43:30.512Z</time></trkpt><trkpt lat="42.30986" lon="14.0914583"><ele>76.0</ele><time>2026-05-01T14:43:31.513Z</time></trkpt><trkpt lat="42.3099317" lon="14.0916017"><ele>77.66666666666666</ele><time>2026-05-01T14:43:33.511Z</time></trkpt><trkpt lat="42.3099733" lon="14.0916817"><ele>79.33333333333333</ele><time>2026-05-01T14:43:34.513Z</time></trkpt><trkpt lat="42.3100233" lon="14.0917667"><ele>81.0</ele><time>2026-05-01T14:43:35.511Z</time></trkpt><trkpt lat="42.310075" lon="14.0918533"><ele>82.66666666666667</ele><time>2026-05-01T14:43:36.511Z</time></trkpt><trkpt lat="42.3101233" lon="14.0919467"><ele>84.33333333333334</ele><time>2026-05-01T14:43:37.512Z</time></trkpt><trkpt lat="42.31018" lon="14.0920383"><ele>86.0</ele><time>2026-05-01T14:43:38.511Z</time></trkpt><trkpt lat="42.3102383" lon="14.092125"><ele>86.0</ele><time>2026-05-01T14:43:39.513Z</time></trkpt><trkpt lat="42.3102983" lon="14.0922"><ele>86.0</ele><time>2026-05-01T14:43:40.511Z</time></trkpt><trkpt lat="42.310355" lon="14.0922733"><ele>86.0</ele><time>2026-05-01T14:43:41.51Z</time></trkpt><trkpt lat="42.3104033" lon="14.0923533"><ele>86.0</ele><time>2026-05-01T14:43:42.514Z</time></trkpt><trkpt lat="42.3104533" lon="14.0924467"><ele>86.0</ele><time>2026-05-01T14:43:43.512Z</time></trkpt><trkpt lat="42.3105183" lon="14.09256"><ele>86.0</ele><time>2026-05-01T14:43:44.512Z</time></trkpt><trkpt lat="42.3105933" lon="14.0926767"><ele>87.19999999999999</ele><time>2026-05-01T14:43:45.51Z</time></trkpt><trkpt lat="42.31067" lon="14.0928"><ele>88.39999999999999</ele><time>2026-05-01T14:43:46.509Z</time></trkpt><trkpt lat="42.310745" lon="14.09292"><ele>89.6</ele><time>2026-05-01T14:43:47.509Z</time></trkpt><trkpt lat="42.31081" lon="14.093025"><ele>90.8</ele><time>2026-05-01T14:43:48.507Z</time></trkpt><trkpt lat="42.31087" lon="14.093125"><ele>92.0</ele><time>2026-05-01T14:43:49.512Z</time></trkpt><trkpt lat="42.31093" lon="14.093215"><ele>92.83333333333334</ele><time>2026-05-01T14:43:50.509Z</time></trkpt><trkpt lat="42.31099" lon="14.0932967"><ele>93.66666666666667</ele><time>2026-05-01T14:43:51.513Z</time></trkpt><trkpt lat="42.31104" lon="14.093375"><ele>94.5</ele><time>2026-05-01T14:43:52.511Z</time></trkpt><trkpt lat="42.31109" lon="14.093445"><ele>95.33333333333334</ele><time>2026-05-01T14:43:53.508Z</time></trkpt><trkpt lat="42.3111367" lon="14.0935133"><ele>96.16666666666667</ele><time>2026-05-01T14:43:54.512Z</time></trkpt><trkpt lat="42.31117" lon="14.0935917"><ele>97.0</ele><time>2026-05-01T14:43:55.51Z</time></trkpt><trkpt lat="42.311215" lon="14.0936933"><ele>97.0</ele><time>2026-05-01T14:43:57.512Z</time></trkpt><trkpt lat="42.3112833" lon="14.0937683"><ele>97.0</ele><time>2026-05-01T14:43:59.511Z</time></trkpt><trkpt lat="42.3113517" lon="14.0938733"><ele>97.0</ele><time>2026-05-01T14:44:01.51Z</time></trkpt><trkpt lat="42.3114167" lon="14.0939233"><ele>97.0</ele><time>2026-05-01T14:44:03.508Z</time></trkpt><trkpt lat="42.311475" lon="14.0938017"><ele>97.0</ele><time>2026-05-01T14:44:06.511Z</time></trkpt><trkpt lat="42.31154" lon="14.0936433"><ele>96.8</ele><time>2026-05-01T14:44:08.51Z</time></trkpt><trkpt lat="42.3115817" lon="14.093535"><ele>96.6</ele><time>2026-05-01T14:44:09.51Z</time></trkpt><trkpt lat="42.311635" lon="14.0934117"><ele>96.39999999999999</ele><time>2026-05-01T14:44:10.51Z</time></trkpt><trkpt lat="42.3116983" lon="14.0932867"><ele>96.19999999999999</ele><time>2026-05-01T14:44:11.511Z</time></trkpt><trkpt lat="42.31177" lon="14.0931617"><ele>96.0</ele><time>2026-05-01T14:44:12.511Z</time></trkpt><trkpt lat="42.3118467" lon="14.0930367"><ele>95.0</ele><time>2026-05-01T14:44:13.51Z</time></trkpt><trkpt lat="42.311925" lon="14.0929033"><ele>94.0</ele><time>2026-05-01T14:44:14.51Z</time></trkpt><trkpt lat="42.312005" lon="14.0927633"><ele>93.0</ele><time>2026-05-01T14:44:15.511Z</time></trkpt><trkpt lat="42.3120817" lon="14.09262"><ele>92.0</ele><time>2026-05-01T14:44:16.512Z</time></trkpt><trkpt lat="42.312155" lon="14.0924733"><ele>92.39999999999999</ele><time>2026-05-01T14:44:17.513Z</time></trkpt><trkpt lat="42.3122283" lon="14.0923383"><ele>92.8</ele><time>2026-05-01T14:44:18.511Z</time></trkpt><trkpt lat="42.3122967" lon="14.092225"><ele>93.2</ele><time>2026-05-01T14:44:19.512Z</time></trkpt><trkpt lat="42.3123683" lon="14.092125"><ele>93.6</ele><time>2026-05-01T14:44:20.513Z</time></trkpt><trkpt lat="42.3124383" lon="14.0920367"><ele>94.0</ele><time>2026-05-01T14:44:21.508Z</time></trkpt><trkpt lat="42.31251" lon="14.0919583"><ele>94.0</ele><time>2026-05-01T14:44:22.51Z</time></trkpt><trkpt lat="42.3125933" lon="14.0918817"><ele>94.0</ele><time>2026-05-01T14:44:23.512Z</time></trkpt><trkpt lat="42.3126867" lon="14.0918017"><ele>94.0</ele><time>2026-05-01T14:44:24.512Z</time></trkpt><trkpt lat="42.31278" lon="14.09172"><ele>94.0</ele><time>2026-05-01T14:44:25.513Z</time></trkpt><trkpt lat="42.3128667" lon="14.09164"><ele>94.0</ele><time>2026-05-01T14:44:26.512Z</time></trkpt><trkpt lat="42.31294" lon="14.0915567"><ele>94.0</ele><time>2026-05-01T14:44:27.514Z</time></trkpt><trkpt lat="42.312995" lon="14.091455"><ele>94.0</ele><time>2026-05-01T14:44:28.514Z</time></trkpt><trkpt lat="42.3130317" lon="14.0913317"><ele>94.0</ele><time>2026-05-01T14:44:29.513Z</time></trkpt><trkpt lat="42.313065" lon="14.0911767"><ele>94.0</ele><time>2026-05-01T14:44:30.511Z</time></trkpt><trkpt lat="42.3131" lon="14.09099"><ele>94.0</ele><time>2026-05-01T14:44:31.517Z</time></trkpt><trkpt lat="42.3131383" lon="14.09078"><ele>94.0</ele><time>2026-05-01T14:44:32.515Z</time></trkpt><trkpt lat="42.3131717" lon="14.090565"><ele>94.0</ele><time>2026-05-01T14:44:33.513Z</time></trkpt><trkpt lat="42.3132017" lon="14.09036"><ele>94.0</ele><time>2026-05-01T14:44:34.512Z</time></trkpt><trkpt lat="42.313225" lon="14.0901733"><ele>94.0</ele><time>2026-05-01T14:44:35.512Z</time></trkpt><trkpt lat="42.3132517" lon="14.089995"><ele>94.0</ele><time>2026-05-01T14:44:36.513Z</time></trkpt><trkpt lat="42.31328" lon="14.0898117"><ele>94.0</ele><time>2026-05-01T14:44:37.514Z</time></trkpt><trkpt lat="42.3133083" lon="14.08963"><ele>93.5</ele><time>2026-05-01T14:44:38.513Z</time></trkpt><trkpt lat="42.313345" lon="14.089455"><ele>93.0</ele><time>2026-05-01T14:44:39.514Z</time></trkpt><trkpt lat="42.313395" lon="14.0892767"><ele>92.5</ele><time>2026-05-01T14:44:40.511Z</time></trkpt><trkpt lat="42.3134483" lon="14.0890983"><ele>92.0</ele><time>2026-05-01T14:44:41.512Z</time></trkpt><trkpt lat="42.313505" lon="14.0889283"><ele>91.5</ele><time>2026-05-01T14:44:42.512Z</time></trkpt><trkpt lat="42.3135567" lon="14.08877"><ele>91.0</ele><time>2026-05-01T14:44:43.512Z</time></trkpt><trkpt lat="42.313615" lon="14.0886233"><ele>90.5</ele><time>2026-05-01T14:44:44.512Z</time></trkpt><trkpt lat="42.3136833" lon="14.0884817"><ele>90.0</ele><time>2026-05-01T14:44:45.509Z</time></trkpt><trkpt lat="42.3137717" lon="14.0883383"><ele>89.0</ele><time>2026-05-01T14:44:46.513Z</time></trkpt><trkpt lat="42.313885" lon="14.0881817"><ele>88.0</ele><time>2026-05-01T14:44:47.509Z</time></trkpt><trkpt lat="42.314015" lon="14.0880067"><ele>87.0</ele><time>2026-05-01T14:44:48.509Z</time></trkpt><trkpt lat="42.3141467" lon="14.087835"><ele>86.0</ele><time>2026-05-01T14:44:49.513Z</time></trkpt><trkpt lat="42.3142683" lon="14.0876733"><ele>85.0</ele><time>2026-05-01T14:44:50.508Z</time></trkpt><trkpt lat="42.31439" lon="14.08752"><ele>84.0</ele><time>2026-05-01T14:44:51.509Z</time></trkpt><trkpt lat="42.314505" lon="14.0873733"><ele>83.5</ele><time>2026-05-01T14:44:52.509Z</time></trkpt><trkpt lat="42.3146117" lon="14.0872367"><ele>83.0</ele><time>2026-05-01T14:44:53.512Z</time></trkpt><trkpt lat="42.3147167" lon="14.08712"><ele>82.5</ele><time>2026-05-01T14:44:54.51Z</time></trkpt><trkpt lat="42.3148167" lon="14.08702"><ele>82.0</ele><time>2026-05-01T14:44:55.694Z</time></trkpt><trkpt lat="42.3150167" lon="14.086845"><ele>81.6</ele><time>2026-05-01T14:44:57.512Z</time></trkpt><trkpt lat="42.3151133" lon="14.0867817"><ele>81.19999999999999</ele><time>2026-05-01T14:44:58.513Z</time></trkpt><trkpt lat="42.315215" lon="14.086735"><ele>80.8</ele><time>2026-05-01T14:44:59.512Z</time></trkpt><trkpt lat="42.3153217" lon="14.0867083"><ele>80.4</ele><time>2026-05-01T14:45:00.515Z</time></trkpt><trkpt lat="42.3154367" lon="14.0866983"><ele>80.0</ele><time>2026-05-01T14:45:01.514Z</time></trkpt><trkpt lat="42.3155733" lon="14.0867083"><ele>80.0</ele><time>2026-05-01T14:45:02.511Z</time></trkpt><trkpt lat="42.3157333" lon="14.0867317"><ele>80.0</ele><time>2026-05-01T14:45:03.512Z</time></trkpt><trkpt lat="42.3159033" lon="14.0867633"><ele>80.0</ele><time>2026-05-01T14:45:04.512Z</time></trkpt><trkpt lat="42.3160667" lon="14.0867917"><ele>80.0</ele><time>2026-05-01T14:45:05.513Z</time></trkpt><trkpt lat="42.3162133" lon="14.08682"><ele>80.0</ele><time>2026-05-01T14:45:06.513Z</time></trkpt><trkpt lat="42.3163483" lon="14.08686"><ele>80.0</ele><time>2026-05-01T14:45:07.515Z</time></trkpt><trkpt lat="42.3164783" lon="14.0869183"><ele>80.0</ele><time>2026-05-01T14:45:08.511Z</time></trkpt><trkpt lat="42.3166183" lon="14.086995"><ele>79.0</ele><time>2026-05-01T14:45:09.512Z</time></trkpt><trkpt lat="42.3167667" lon="14.0870867"><ele>78.0</ele><time>2026-05-01T14:45:10.512Z</time></trkpt><trkpt lat="42.3169283" lon="14.087185"><ele>77.0</ele><time>2026-05-01T14:45:11.513Z</time></trkpt><trkpt lat="42.3170883" lon="14.087275"><ele>74.5</ele><time>2026-05-01T14:45:12.512Z</time></trkpt><trkpt lat="42.3172383" lon="14.0873583"><ele>72.0</ele><time>2026-05-01T14:45:13.513Z</time></trkpt><trkpt lat="42.3173717" lon="14.0874417"><ele>69.5</ele><time>2026-05-01T14:45:14.518Z</time></trkpt><trkpt lat="42.317495" lon="14.0875233"><ele>67.0</ele><time>2026-05-01T14:45:15.512Z</time></trkpt><trkpt lat="42.3176067" lon="14.0876033"><ele>67.0</ele><time>2026-05-01T14:45:16.511Z</time></trkpt><trkpt lat="42.3177067" lon="14.0876883"><ele>67.0</ele><time>2026-05-01T14:45:17.51Z</time></trkpt><trkpt lat="42.317795" lon="14.0877833"><ele>67.0</ele><time>2026-05-01T14:45:18.511Z</time></trkpt><trkpt lat="42.3178783" lon="14.087885"><ele>67.0</ele><time>2026-05-01T14:45:19.509Z</time></trkpt><trkpt lat="42.3179567" lon="14.087985"><ele>67.0</ele><time>2026-05-01T14:45:20.513Z</time></trkpt><trkpt lat="42.3180317" lon="14.0880817"><ele>67.0</ele><time>2026-05-01T14:45:21.512Z</time></trkpt><trkpt lat="42.318105" lon="14.0881667"><ele>67.0</ele><time>2026-05-01T14:45:22.51Z</time></trkpt><trkpt lat="42.31818" lon="14.0882317"><ele>67.0</ele><time>2026-05-01T14:45:23.509Z</time></trkpt><trkpt lat="42.3182617" lon="14.0882817"><ele>67.0</ele><time>2026-05-01T14:45:24.512Z</time></trkpt><trkpt lat="42.31836" lon="14.0883133"><ele>66.25</ele><time>2026-05-01T14:45:25.511Z</time></trkpt><trkpt lat="42.31848" lon="14.0883233"><ele>65.5</ele><time>2026-05-01T14:45:26.51Z</time></trkpt><trkpt lat="42.3185967" lon="14.0883433"><ele>64.75</ele><time>2026-05-01T14:45:27.514Z</time></trkpt><trkpt lat="42.3187167" lon="14.0883767"><ele>64.0</ele><time>2026-05-01T14:45:28.51Z</time></trkpt><trkpt lat="42.318835" lon="14.0884267"><ele>63.6</ele><time>2026-05-01T14:45:29.51Z</time></trkpt><trkpt lat="42.31895" lon="14.0884783"><ele>63.2</ele><time>2026-05-01T14:45:30.514Z</time></trkpt><trkpt lat="42.3190583" lon="14.0885233"><ele>62.800000000000004</ele><time>2026-05-01T14:45:31.511Z</time></trkpt><trkpt lat="42.31916" lon="14.0885533"><ele>62.400000000000006</ele><time>2026-05-01T14:45:32.513Z</time></trkpt><trkpt lat="42.31925" lon="14.0885767"><ele>62.0</ele><time>2026-05-01T14:45:33.51Z</time></trkpt><trkpt lat="42.319335" lon="14.0886"><ele>62.00000000000001</ele><time>2026-05-01T14:45:34.511Z</time></trkpt><trkpt lat="42.3194033" lon="14.08862"><ele>62.0</ele><time>2026-05-01T14:45:35.513Z</time></trkpt><trkpt lat="42.3194967" lon="14.088645"><ele>62.0</ele><time>2026-05-01T14:45:37.511Z</time></trkpt><trkpt lat="42.3195517" lon="14.0885917"><ele>62.0</ele><time>2026-05-01T14:45:39.512Z</time></trkpt><trkpt lat="42.319615" lon="14.0884333"><ele>62.00000000000001</ele><time>2026-05-01T14:45:41.511Z</time></trkpt><trkpt lat="42.3196533" lon="14.088335"><ele>62.0</ele><time>2026-05-01T14:45:42.509Z</time></trkpt><trkpt lat="42.3197083" lon="14.0882333"><ele>61.833333333333336</ele><time>2026-05-01T14:45:43.511Z</time></trkpt><trkpt lat="42.3197617" lon="14.0881367"><ele>61.66666666666667</ele><time>2026-05-01T14:45:44.513Z</time></trkpt><trkpt lat="42.319815" lon="14.0880467"><ele>61.5</ele><time>2026-05-01T14:45:45.51Z</time></trkpt><trkpt lat="42.3198667" lon="14.08795"><ele>61.33333333333333</ele><time>2026-05-01T14:45:46.512Z</time></trkpt><trkpt lat="42.3199167" lon="14.08786"><ele>61.166666666666664</ele><time>2026-05-01T14:45:47.511Z</time></trkpt><trkpt lat="42.3199617" lon="14.08778"><ele>61.0</ele><time>2026-05-01T14:45:48.511Z</time></trkpt><trkpt lat="42.320005" lon="14.08771"><ele>60.99999999999999</ele><time>2026-05-01T14:45:49.51Z</time></trkpt><trkpt lat="42.32005" lon="14.0876467"><ele>61.0</ele><time>2026-05-01T14:45:50.512Z</time></trkpt><trkpt lat="42.3201433" lon="14.087535"><ele>61.0</ele><time>2026-05-01T14:45:52.511Z</time></trkpt><trkpt lat="42.320215" lon="14.0874533"><ele>61.0</ele><time>2026-05-01T14:45:54.511Z</time></trkpt><trkpt lat="42.32028" lon="14.0874017"><ele>60.99999999999999</ele><time>2026-05-01T14:45:56.512Z</time></trkpt><trkpt lat="42.3203633" lon="14.087385"><ele>61.0</ele><time>2026-05-01T14:46:04.511Z</time></trkpt><trkpt lat="42.3204333" lon="14.087455"><ele>61.0</ele><time>2026-05-01T14:46:06.509Z</time></trkpt><trkpt lat="42.3204817" lon="14.0875583"><ele>60.99999999999999</ele><time>2026-05-01T14:46:07.508Z</time></trkpt><trkpt lat="42.3205367" lon="14.0876717"><ele>60.99999999999999</ele><time>2026-05-01T14:46:08.512Z</time></trkpt><trkpt lat="42.3205983" lon="14.087785"><ele>61.0</ele><time>2026-05-01T14:46:09.51Z</time></trkpt><trkpt lat="42.32066" lon="14.0879017"><ele>61.0</ele><time>2026-05-01T14:46:10.508Z</time></trkpt><trkpt lat="42.32072" lon="14.088025"><ele>60.75</ele><time>2026-05-01T14:46:11.51Z</time></trkpt><trkpt lat="42.3207817" lon="14.0881467"><ele>60.5</ele><time>2026-05-01T14:46:12.512Z</time></trkpt><trkpt lat="42.3208433" lon="14.0882783"><ele>60.25</ele><time>2026-05-01T14:46:13.51Z</time></trkpt><trkpt lat="42.3209067" lon="14.0884067"><ele>60.0</ele><time>2026-05-01T14:46:14.51Z</time></trkpt><trkpt lat="42.320965" lon="14.088535"><ele>60.0</ele><time>2026-05-01T14:46:15.51Z</time></trkpt><trkpt lat="42.3210217" lon="14.088655"><ele>60.0</ele><time>2026-05-01T14:46:16.513Z</time></trkpt><trkpt lat="42.3210767" lon="14.0887617"><ele>60.0</ele><time>2026-05-01T14:46:17.51Z</time></trkpt><trkpt lat="42.3211317" lon="14.088865"><ele>60.0</ele><time>2026-05-01T14:46:18.51Z</time></trkpt><trkpt lat="42.321185" lon="14.0889717"><ele>60.0</ele><time>2026-05-01T14:46:19.514Z</time></trkpt><trkpt lat="42.3212383" lon="14.0890783"><ele>59.833333333333336</ele><time>2026-05-01T14:46:20.511Z</time></trkpt><trkpt lat="42.3212917" lon="14.0891833"><ele>59.66666666666667</ele><time>2026-05-01T14:46:21.513Z</time></trkpt><trkpt lat="42.3213383" lon="14.08929"><ele>59.5</ele><time>2026-05-01T14:46:22.512Z</time></trkpt><trkpt lat="42.3213817" lon="14.08939"><ele>59.333333333333336</ele><time>2026-05-01T14:46:23.514Z</time></trkpt><trkpt lat="42.3214267" lon="14.089485"><ele>59.16666666666667</ele><time>2026-05-01T14:46:24.509Z</time></trkpt><trkpt lat="42.3214733" lon="14.08958"><ele>59.0</ele><time>2026-05-01T14:46:25.512Z</time></trkpt><trkpt lat="42.3215217" lon="14.0896833"><ele>59.00000000000001</ele><time>2026-05-01T14:46:26.512Z</time></trkpt><trkpt lat="42.32157" lon="14.0897917"><ele>59.0</ele><time>2026-05-01T14:46:27.51Z</time></trkpt><trkpt lat="42.3216183" lon="14.0898967"><ele>59.0</ele><time>2026-05-01T14:46:28.51Z</time></trkpt><trkpt lat="42.3216633" lon="14.0899933"><ele>59.0</ele><time>2026-05-01T14:46:29.512Z</time></trkpt><trkpt lat="42.321705" lon="14.09008"><ele>59.00000000000001</ele><time>2026-05-01T14:46:30.51Z</time></trkpt><trkpt lat="42.3217417" lon="14.0901667"><ele>59.0</ele><time>2026-05-01T14:46:31.51Z</time></trkpt><trkpt lat="42.3217767" lon="14.0902433"><ele>58.800000000000004</ele><time>2026-05-01T14:46:32.513Z</time></trkpt><trkpt lat="42.3218433" lon="14.0903717"><ele>58.60000000000001</ele><time>2026-05-01T14:46:34.512Z</time></trkpt><trkpt lat="42.321885" lon="14.0904833"><ele>58.4</ele><time>2026-05-01T14:46:36.51Z</time></trkpt><trkpt lat="42.3219483" lon="14.09061"><ele>58.2</ele><time>2026-05-01T14:46:38.509Z</time></trkpt><trkpt lat="42.3219817" lon="14.0906883"><ele>58.0</ele><time>2026-05-01T14:46:39.511Z</time></trkpt><trkpt lat="42.32202" lon="14.09076"><ele>57.99999999999999</ele><time>2026-05-01T14:46:40.51Z</time></trkpt><trkpt lat="42.32206" lon="14.090835"><ele>58.0</ele><time>2026-05-01T14:46:41.51Z</time></trkpt><trkpt lat="42.3220967" lon="14.09092"><ele>58.0</ele><time>2026-05-01T14:46:42.511Z</time></trkpt><trkpt lat="42.3221367" lon="14.0910033"><ele>58.0</ele><time>2026-05-01T14:46:43.513Z</time></trkpt><trkpt lat="42.3221783" lon="14.0910983"><ele>57.99999999999999</ele><time>2026-05-01T14:46:44.512Z</time></trkpt><trkpt lat="42.3222267" lon="14.0911967"><ele>58.0</ele><time>2026-05-01T14:46:45.509Z</time></trkpt><trkpt lat="42.3222733" lon="14.0913033"><ele>58.2</ele><time>2026-05-01T14:46:46.51Z</time></trkpt><trkpt lat="42.3223183" lon="14.091415"><ele>58.4</ele><time>2026-05-01T14:46:47.511Z</time></trkpt><trkpt lat="42.3223683" lon="14.0915183"><ele>58.60000000000001</ele><time>2026-05-01T14:46:48.511Z</time></trkpt><trkpt lat="42.3224233" lon="14.0916317"><ele>58.800000000000004</ele><time>2026-05-01T14:46:49.513Z</time></trkpt><trkpt lat="42.32248" lon="14.0917517"><ele>59.0</ele><time>2026-05-01T14:46:50.512Z</time></trkpt><trkpt lat="42.3225433" lon="14.09188"><ele>59.0</ele><time>2026-05-01T14:46:51.515Z</time></trkpt><trkpt lat="42.322605" lon="14.0920183"><ele>59.0</ele><time>2026-05-01T14:46:52.51Z</time></trkpt><trkpt lat="42.322675" lon="14.09216"><ele>59.0</ele><time>2026-05-01T14:46:53.514Z</time></trkpt><trkpt lat="42.3227433" lon="14.092305"><ele>59.0</ele><time>2026-05-01T14:46:54.512Z</time></trkpt><trkpt lat="42.322815" lon="14.092445"><ele>58.75</ele><time>2026-05-01T14:46:55.51Z</time></trkpt><trkpt lat="42.322885" lon="14.0925933"><ele>58.5</ele><time>2026-05-01T14:46:56.52Z</time></trkpt><trkpt lat="42.3229583" lon="14.09275"><ele>58.25</ele><time>2026-05-01T14:46:57.509Z</time></trkpt><trkpt lat="42.3230333" lon="14.0929117"><ele>58.0</ele><time>2026-05-01T14:46:58.513Z</time></trkpt><trkpt lat="42.3231117" lon="14.0930767"><ele>58.0</ele><time>2026-05-01T14:46:59.511Z</time></trkpt><trkpt lat="42.3231867" lon="14.09325"><ele>58.0</ele><time>2026-05-01T14:47:00.511Z</time></trkpt><trkpt lat="42.3232683" lon="14.0934183"><ele>58.0</ele><time>2026-05-01T14:47:01.51Z</time></trkpt><trkpt lat="42.323345" lon="14.0935817"><ele>58.0</ele><time>2026-05-01T14:47:02.513Z</time></trkpt><trkpt lat="42.3234133" lon="14.093745"><ele>58.0</ele><time>2026-05-01T14:47:03.512Z</time></trkpt><trkpt lat="42.32348" lon="14.0939083"><ele>58.0</ele><time>2026-05-01T14:47:04.51Z</time></trkpt><trkpt lat="42.3235417" lon="14.0940733"><ele>58.0</ele><time>2026-05-01T14:47:05.512Z</time></trkpt><trkpt lat="42.3235983" lon="14.0942383"><ele>58.0</ele><time>2026-05-01T14:47:06.514Z</time></trkpt><trkpt lat="42.3236383" lon="14.0944167"><ele>58.0</ele><time>2026-05-01T14:47:07.51Z</time></trkpt><trkpt lat="42.323675" lon="14.0945917"><ele>58.0</ele><time>2026-05-01T14:47:08.511Z</time></trkpt><trkpt lat="42.3237067" lon="14.0947733"><ele>58.0</ele><time>2026-05-01T14:47:09.51Z</time></trkpt><trkpt lat="42.323745" lon="14.0949483"><ele>58.0</ele><time>2026-05-01T14:47:10.511Z</time></trkpt><trkpt lat="42.323775" lon="14.0951217"><ele>58.0</ele><time>2026-05-01T14:47:11.51Z</time></trkpt><trkpt lat="42.3238117" lon="14.095295"><ele>58.0</ele><time>2026-05-01T14:47:12.513Z</time></trkpt><trkpt lat="42.32385" lon="14.0954733"><ele>58.0</ele><time>2026-05-01T14:47:13.514Z</time></trkpt><trkpt lat="42.32389" lon="14.0956517"><ele>58.0</ele><time>2026-05-01T14:47:14.511Z</time></trkpt><trkpt lat="42.3239233" lon="14.0958317"><ele>58.0</ele><time>2026-05-01T14:47:15.509Z</time></trkpt><trkpt lat="42.3239617" lon="14.09601"><ele>58.0</ele><time>2026-05-01T14:47:16.511Z</time></trkpt><trkpt lat="42.3239933" lon="14.09619"><ele>58.0</ele><time>2026-05-01T14:47:17.51Z</time></trkpt><trkpt lat="42.3240283" lon="14.096365"><ele>58.0</ele><time>2026-05-01T14:47:18.511Z</time></trkpt><trkpt lat="42.3240633" lon="14.09654"><ele>58.0</ele><time>2026-05-01T14:47:19.511Z</time></trkpt><trkpt lat="42.3240967" lon="14.096715"><ele>58.0</ele><time>2026-05-01T14:47:20.511Z</time></trkpt><trkpt lat="42.32413" lon="14.0968917"><ele>58.0</ele><time>2026-05-01T14:47:21.512Z</time></trkpt><trkpt lat="42.3241667" lon="14.0970667"><ele>58.0</ele><time>2026-05-01T14:47:22.511Z</time></trkpt><trkpt lat="42.324205" lon="14.0972433"><ele>58.0</ele><time>2026-05-01T14:47:23.513Z</time></trkpt><trkpt lat="42.324245" lon="14.0974183"><ele>58.0</ele><time>2026-05-01T14:47:24.514Z</time></trkpt><trkpt lat="42.3242933" lon="14.09759"><ele>58.0</ele><time>2026-05-01T14:47:25.513Z</time></trkpt><trkpt lat="42.32435" lon="14.097755"><ele>58.0</ele><time>2026-05-01T14:47:26.515Z</time></trkpt><trkpt lat="42.3244133" lon="14.0979217"><ele>57.75</ele><time>2026-05-01T14:47:27.512Z</time></trkpt><trkpt lat="42.3244883" lon="14.0980767"><ele>57.5</ele><time>2026-05-01T14:47:28.512Z</time></trkpt><trkpt lat="42.324575" lon="14.098225"><ele>57.25</ele><time>2026-05-01T14:47:29.513Z</time></trkpt><trkpt lat="42.3246633" lon="14.098375"><ele>57.0</ele><time>2026-05-01T14:47:30.513Z</time></trkpt><trkpt lat="42.324755" lon="14.0985217"><ele>56.75</ele><time>2026-05-01T14:47:31.51Z</time></trkpt><trkpt lat="42.324845" lon="14.0986733"><ele>56.5</ele><time>2026-05-01T14:47:32.512Z</time></trkpt><trkpt lat="42.3249333" lon="14.09882"><ele>56.25</ele><time>2026-05-01T14:47:33.511Z</time></trkpt><trkpt lat="42.325025" lon="14.098965"><ele>56.0</ele><time>2026-05-01T14:47:34.511Z</time></trkpt><trkpt lat="42.3251133" lon="14.0991083"><ele>56.0</ele><time>2026-05-01T14:47:35.511Z</time></trkpt><trkpt lat="42.3252" lon="14.0992517"><ele>56.0</ele><time>2026-05-01T14:47:36.51Z</time></trkpt><trkpt lat="42.325285" lon="14.09939"><ele>56.0</ele><time>2026-05-01T14:47:37.511Z</time></trkpt><trkpt lat="42.3253633" lon="14.0995183"><ele>56.0</ele><time>2026-05-01T14:47:38.512Z</time></trkpt><trkpt lat="42.325445" lon="14.0996483"><ele>56.0</ele><time>2026-05-01T14:47:39.512Z</time></trkpt><trkpt lat="42.3255267" lon="14.0997833"><ele>56.0</ele><time>2026-05-01T14:47:40.512Z</time></trkpt><trkpt lat="42.3256083" lon="14.0999067"><ele>56.0</ele><time>2026-05-01T14:47:41.51Z</time></trkpt><trkpt lat="42.32568" lon="14.1000217"><ele>56.0</ele><time>2026-05-01T14:47:42.512Z</time></trkpt><trkpt lat="42.3257467" lon="14.1001283"><ele>55.4</ele><time>2026-05-01T14:47:43.512Z</time></trkpt><trkpt lat="42.3258433" lon="14.1001433"><ele>54.8</ele><time>2026-05-01T14:47:44.868Z</time></trkpt><trkpt lat="42.3258817" lon="14.10027"><ele>54.199999999999996</ele><time>2026-05-01T14:47:46.012Z</time></trkpt><trkpt lat="42.3259583" lon="14.10042"><ele>53.599999999999994</ele><time>2026-05-01T14:47:47.511Z</time></trkpt><trkpt lat="42.3260117" lon="14.1005217"><ele>53.0</ele><time>2026-05-01T14:47:48.513Z</time></trkpt><trkpt lat="42.32606" lon="14.10062"><ele>53.0</ele><time>2026-05-01T14:47:49.514Z</time></trkpt><trkpt lat="42.3260967" lon="14.1007067"><ele>53.0</ele><time>2026-05-01T14:47:50.512Z</time></trkpt><trkpt lat="42.32614" lon="14.1008517"><ele>53.0</ele><time>2026-05-01T14:47:52.511Z</time></trkpt><trkpt lat="42.326165" lon="14.1009717"><ele>53.0</ele><time>2026-05-01T14:47:54.513Z</time></trkpt><trkpt lat="42.3262117" lon="14.1010733"><ele>53.0</ele><time>2026-05-01T14:47:56.512Z</time></trkpt><trkpt lat="42.3263067" lon="14.101155"><ele>53.333333333333336</ele><time>2026-05-01T14:47:58.512Z</time></trkpt><trkpt lat="42.326375" lon="14.1011933"><ele>53.66666666666667</ele><time>2026-05-01T14:47:59.515Z</time></trkpt><trkpt lat="42.32645" lon="14.1012383"><ele>54.0</ele><time>2026-05-01T14:48:00.512Z</time></trkpt><trkpt lat="42.3265133" lon="14.1013133"><ele>54.33333333333333</ele><time>2026-05-01T14:48:01.512Z</time></trkpt><trkpt lat="42.32657" lon="14.1013967"><ele>54.666666666666664</ele><time>2026-05-01T14:48:02.513Z</time></trkpt><trkpt lat="42.32663" lon="14.1014883"><ele>55.0</ele><time>2026-05-01T14:48:03.512Z</time></trkpt><trkpt lat="42.32669" lon="14.10159"><ele>55.0</ele><time>2026-05-01T14:48:04.511Z</time></trkpt><trkpt lat="42.3267533" lon="14.1016933"><ele>55.0</ele><time>2026-05-01T14:48:05.516Z</time></trkpt><trkpt lat="42.3268183" lon="14.1017933"><ele>55.0</ele><time>2026-05-01T14:48:06.513Z</time></trkpt><trkpt lat="42.3268833" lon="14.101895"><ele>55.0</ele><time>2026-05-01T14:48:07.512Z</time></trkpt><trkpt lat="42.3269417" lon="14.1020033"><ele>55.0</ele><time>2026-05-01T14:48:08.513Z</time></trkpt><trkpt lat="42.327005" lon="14.1021067"><ele>55.0</ele><time>2026-05-01T14:48:09.511Z</time></trkpt><trkpt lat="42.327065" lon="14.1022117"><ele>55.0</ele><time>2026-05-01T14:48:10.513Z</time></trkpt><trkpt lat="42.3271233" lon="14.1023233"><ele>55.0</ele><time>2026-05-01T14:48:11.513Z</time></trkpt><trkpt lat="42.3271767" lon="14.102445"><ele>55.0</ele><time>2026-05-01T14:48:12.512Z</time></trkpt><trkpt lat="42.3272267" lon="14.1025717"><ele>55.0</ele><time>2026-05-01T14:48:13.511Z</time></trkpt><trkpt lat="42.3272717" lon="14.1027033"><ele>53.8</ele><time>2026-05-01T14:48:14.513Z</time></trkpt><trkpt lat="42.327315" lon="14.1028333"><ele>52.6</ele><time>2026-05-01T14:48:15.512Z</time></trkpt><trkpt lat="42.32736" lon="14.1029633"><ele>51.400000000000006</ele><time>2026-05-01T14:48:16.512Z</time></trkpt><trkpt lat="42.3274033" lon="14.1030983"><ele>50.2</ele><time>2026-05-01T14:48:17.512Z</time></trkpt><trkpt lat="42.3274467" lon="14.1032333"><ele>49.0</ele><time>2026-05-01T14:48:18.512Z</time></trkpt><trkpt lat="42.3274917" lon="14.1033717"><ele>49.0</ele><time>2026-05-01T14:48:19.512Z</time></trkpt><trkpt lat="42.3275333" lon="14.10351"><ele>49.0</ele><time>2026-05-01T14:48:20.512Z</time></trkpt><trkpt lat="42.3275717" lon="14.10365"><ele>49.0</ele><time>2026-05-01T14:48:21.513Z</time></trkpt><trkpt lat="42.3276083" lon="14.10379"><ele>49.0</ele><time>2026-05-01T14:48:22.513Z</time></trkpt><trkpt lat="42.32765" lon="14.103925"><ele>49.0</ele><time>2026-05-01T14:48:23.511Z</time></trkpt><trkpt lat="42.32769" lon="14.1040633"><ele>48.6</ele><time>2026-05-01T14:48:24.511Z</time></trkpt><trkpt lat="42.32773" lon="14.1042"><ele>48.2</ele><time>2026-05-01T14:48:25.511Z</time></trkpt><trkpt lat="42.3277717" lon="14.104335"><ele>47.800000000000004</ele><time>2026-05-01T14:48:26.513Z</time></trkpt><trkpt lat="42.3278133" lon="14.10447"><ele>47.400000000000006</ele><time>2026-05-01T14:48:27.511Z</time></trkpt><trkpt lat="42.3278567" lon="14.1046017"><ele>47.0</ele><time>2026-05-01T14:48:28.512Z</time></trkpt><trkpt lat="42.3278983" lon="14.1047367"><ele>47.0</ele><time>2026-05-01T14:48:29.513Z</time></trkpt><trkpt lat="42.32794" lon="14.1048717"><ele>47.0</ele><time>2026-05-01T14:48:30.512Z</time></trkpt><trkpt lat="42.32798" lon="14.1050067"><ele>47.0</ele><time>2026-05-01T14:48:31.514Z</time></trkpt><trkpt lat="42.3280217" lon="14.10514"><ele>47.0</ele><time>2026-05-01T14:48:32.513Z</time></trkpt><trkpt lat="42.3280633" lon="14.1052733"><ele>47.0</ele><time>2026-05-01T14:48:33.513Z</time></trkpt><trkpt lat="42.3280983" lon="14.1054033"><ele>46.8</ele><time>2026-05-01T14:48:34.512Z</time></trkpt><trkpt lat="42.3281367" lon="14.10553"><ele>46.6</ele><time>2026-05-01T14:48:35.512Z</time></trkpt><trkpt lat="42.328175" lon="14.1056617"><ele>46.4</ele><time>2026-05-01T14:48:36.512Z</time></trkpt><trkpt lat="42.3282183" lon="14.1057983"><ele>46.199999999999996</ele><time>2026-05-01T14:48:37.511Z</time></trkpt><trkpt lat="42.3282633" lon="14.1059367"><ele>46.0</ele><time>2026-05-01T14:48:38.515Z</time></trkpt><trkpt lat="42.3283017" lon="14.1060733"><ele>46.0</ele><time>2026-05-01T14:48:39.512Z</time></trkpt><trkpt lat="42.3283467" lon="14.1062"><ele>46.0</ele><time>2026-05-01T14:48:40.512Z</time></trkpt><trkpt lat="42.328395" lon="14.1063283"><ele>46.0</ele><time>2026-05-01T14:48:41.512Z</time></trkpt><trkpt lat="42.328445" lon="14.1064617"><ele>46.0</ele><time>2026-05-01T14:48:42.514Z</time></trkpt><trkpt lat="42.3284917" lon="14.106595"><ele>46.0</ele><time>2026-05-01T14:48:43.513Z</time></trkpt><trkpt lat="42.3285317" lon="14.1067367"><ele>46.0</ele><time>2026-05-01T14:48:44.513Z</time></trkpt><trkpt lat="42.3285717" lon="14.10687"><ele>46.0</ele><time>2026-05-01T14:48:45.514Z</time></trkpt><trkpt lat="42.3286083" lon="14.1070083"><ele>46.0</ele><time>2026-05-01T14:48:46.512Z</time></trkpt><trkpt lat="42.3286467" lon="14.10714"><ele>46.0</ele><time>2026-05-01T14:48:47.511Z</time></trkpt><trkpt lat="42.3286917" lon="14.1072717"><ele>46.0</ele><time>2026-05-01T14:48:48.512Z</time></trkpt><trkpt lat="42.3287333" lon="14.1073933"><ele>46.0</ele><time>2026-05-01T14:48:49.512Z</time></trkpt><trkpt lat="42.32877" lon="14.10751"><ele>46.0</ele><time>2026-05-01T14:48:50.513Z</time></trkpt><trkpt lat="42.3288017" lon="14.1076183"><ele>46.0</ele><time>2026-05-01T14:48:51.512Z</time></trkpt><trkpt lat="42.3288333" lon="14.1077167"><ele>46.0</ele><time>2026-05-01T14:48:52.512Z</time></trkpt><trkpt lat="42.328865" lon="14.1078167"><ele>46.0</ele><time>2026-05-01T14:48:53.515Z</time></trkpt><trkpt lat="42.3289017" lon="14.10792"><ele>46.0</ele><time>2026-05-01T14:48:54.511Z</time></trkpt><trkpt lat="42.32894" lon="14.1080283"><ele>45.0</ele><time>2026-05-01T14:48:55.51Z</time></trkpt><trkpt lat="42.3289767" lon="14.1081433"><ele>44.0</ele><time>2026-05-01T14:48:56.509Z</time></trkpt><trkpt lat="42.3290133" lon="14.1082633"><ele>43.0</ele><time>2026-05-01T14:48:57.51Z</time></trkpt><trkpt lat="42.3290583" lon="14.1083917"><ele>42.0</ele><time>2026-05-01T14:48:58.51Z</time></trkpt><trkpt lat="42.3291017" lon="14.1085283"><ele>41.0</ele><time>2026-05-01T14:48:59.51Z</time></trkpt><trkpt lat="42.3291417" lon="14.1086667"><ele>41.0</ele><time>2026-05-01T14:49:00.511Z</time></trkpt><trkpt lat="42.3291883" lon="14.108805"><ele>41.0</ele><time>2026-05-01T14:49:01.509Z</time></trkpt><trkpt lat="42.3292367" lon="14.1089467"><ele>41.0</ele><time>2026-05-01T14:49:02.516Z</time></trkpt><trkpt lat="42.329285" lon="14.10909"><ele>41.0</ele><time>2026-05-01T14:49:03.51Z</time></trkpt><trkpt lat="42.329335" lon="14.109235"><ele>41.5</ele><time>2026-05-01T14:49:04.51Z</time></trkpt><trkpt lat="42.329385" lon="14.1093817"><ele>42.0</ele><time>2026-05-01T14:49:05.511Z</time></trkpt><trkpt lat="42.3294283" lon="14.10953"><ele>42.5</ele><time>2026-05-01T14:49:06.514Z</time></trkpt><trkpt lat="42.3294633" lon="14.1096683"><ele>43.0</ele><time>2026-05-01T14:49:07.512Z</time></trkpt><trkpt lat="42.3295083" lon="14.1098117"><ele>43.25</ele><time>2026-05-01T14:49:08.513Z</time></trkpt><trkpt lat="42.3295517" lon="14.109955"><ele>43.5</ele><time>2026-05-01T14:49:09.511Z</time></trkpt><trkpt lat="42.3295983" lon="14.1100967"><ele>43.75</ele><time>2026-05-01T14:49:10.511Z</time></trkpt><trkpt lat="42.329645" lon="14.1102367"><ele>44.0</ele><time>2026-05-01T14:49:11.516Z</time></trkpt><trkpt lat="42.3296917" lon="14.1103733"><ele>43.5</ele><time>2026-05-01T14:49:12.51Z</time></trkpt><trkpt lat="42.3297383" lon="14.1105167"><ele>43.0</ele><time>2026-05-01T14:49:13.511Z</time></trkpt><trkpt lat="42.3297817" lon="14.11066"><ele>42.5</ele><time>2026-05-01T14:49:14.511Z</time></trkpt><trkpt lat="42.3298283" lon="14.1108017"><ele>42.0</ele><time>2026-05-01T14:49:15.509Z</time></trkpt><trkpt lat="42.3298767" lon="14.1109467"><ele>42.0</ele><time>2026-05-01T14:49:16.512Z</time></trkpt><trkpt lat="42.3299217" lon="14.1110917"><ele>42.0</ele><time>2026-05-01T14:49:17.511Z</time></trkpt><trkpt lat="42.329965" lon="14.111235"><ele>42.0</ele><time>2026-05-01T14:49:18.51Z</time></trkpt><trkpt lat="42.3300083" lon="14.11138"><ele>42.0</ele><time>2026-05-01T14:49:19.511Z</time></trkpt><trkpt lat="42.3300517" lon="14.1115267"><ele>42.25</ele><time>2026-05-01T14:49:20.511Z</time></trkpt><trkpt lat="42.3300967" lon="14.1116733"><ele>42.5</ele><time>2026-05-01T14:49:21.513Z</time></trkpt><trkpt lat="42.3301433" lon="14.1118167"><ele>42.75</ele><time>2026-05-01T14:49:22.512Z</time></trkpt><trkpt lat="42.3301883" lon="14.11196"><ele>43.0</ele><time>2026-05-01T14:49:23.515Z</time></trkpt><trkpt lat="42.3302283" lon="14.1121083"><ele>43.0</ele><time>2026-05-01T14:49:24.511Z</time></trkpt><trkpt lat="42.3302683" lon="14.11225"><ele>43.0</ele><time>2026-05-01T14:49:25.51Z</time></trkpt><trkpt lat="42.3303133" lon="14.1123917"><ele>43.0</ele><time>2026-05-01T14:49:26.512Z</time></trkpt><trkpt lat="42.3303567" lon="14.1125317"><ele>43.0</ele><time>2026-05-01T14:49:27.512Z</time></trkpt><trkpt lat="42.3303967" lon="14.11266"><ele>43.0</ele><time>2026-05-01T14:49:28.51Z</time></trkpt><trkpt lat="42.3304283" lon="14.112775"><ele>43.00000000000001</ele><time>2026-05-01T14:49:29.51Z</time></trkpt><trkpt lat="42.3304483" lon="14.1128817"><ele>43.0</ele><time>2026-05-01T14:49:30.512Z</time></trkpt><trkpt lat="42.330455" lon="14.1129767"><ele>43.0</ele><time>2026-05-01T14:49:31.512Z</time></trkpt><trkpt lat="42.33045" lon="14.11307"><ele>43.0</ele><time>2026-05-01T14:49:32.509Z</time></trkpt><trkpt lat="42.33045" lon="14.1131583"><ele>43.0</ele><time>2026-05-01T14:49:33.511Z</time></trkpt><trkpt lat="42.3304833" lon="14.1132367"><ele>43.00000000000001</ele><time>2026-05-01T14:49:34.509Z</time></trkpt><trkpt lat="42.330545" lon="14.1132967"><ele>43.0</ele><time>2026-05-01T14:49:35.513Z</time></trkpt><trkpt lat="42.3306017" lon="14.1133717"><ele>42.16666666666667</ele><time>2026-05-01T14:49:36.511Z</time></trkpt><trkpt lat="42.3306433" lon="14.1134617"><ele>41.333333333333336</ele><time>2026-05-01T14:49:37.509Z</time></trkpt><trkpt lat="42.3306833" lon="14.1135583"><ele>40.5</ele><time>2026-05-01T14:49:38.513Z</time></trkpt><trkpt lat="42.33072" lon="14.1136683"><ele>39.666666666666664</ele><time>2026-05-01T14:49:39.512Z</time></trkpt><trkpt lat="42.3307567" lon="14.1137867"><ele>38.83333333333333</ele><time>2026-05-01T14:49:40.515Z</time></trkpt><trkpt lat="42.3308" lon="14.11391"><ele>38.0</ele><time>2026-05-01T14:49:41.509Z</time></trkpt><trkpt lat="42.3308383" lon="14.1140317"><ele>38.0</ele><time>2026-05-01T14:49:42.509Z</time></trkpt><trkpt lat="42.3308783" lon="14.11416"><ele>38.0</ele><time>2026-05-01T14:49:43.51Z</time></trkpt><trkpt lat="42.3309167" lon="14.1142883"><ele>38.0</ele><time>2026-05-01T14:49:44.51Z</time></trkpt><trkpt lat="42.3309567" lon="14.1144183"><ele>38.0</ele><time>2026-05-01T14:49:45.512Z</time></trkpt><trkpt lat="42.33099" lon="14.11455"><ele>38.0</ele><time>2026-05-01T14:49:46.511Z</time></trkpt><trkpt lat="42.33103" lon="14.1146833"><ele>38.0</ele><time>2026-05-01T14:49:47.511Z</time></trkpt><trkpt lat="42.3310683" lon="14.1148183"><ele>38.0</ele><time>2026-05-01T14:49:48.509Z</time></trkpt><trkpt lat="42.3311117" lon="14.114955"><ele>38.0</ele><time>2026-05-01T14:49:49.512Z</time></trkpt><trkpt lat="42.3311567" lon="14.1150917"><ele>38.0</ele><time>2026-05-01T14:49:50.511Z</time></trkpt><trkpt lat="42.3312" lon="14.1152317"><ele>38.0</ele><time>2026-05-01T14:49:51.509Z</time></trkpt><trkpt lat="42.331245" lon="14.1153683"><ele>38.0</ele><time>2026-05-01T14:49:52.513Z</time></trkpt><trkpt lat="42.331285" lon="14.1155033"><ele>38.0</ele><time>2026-05-01T14:49:53.512Z</time></trkpt><trkpt lat="42.3313217" lon="14.1156317"><ele>38.0</ele><time>2026-05-01T14:49:54.509Z</time></trkpt><trkpt lat="42.331355" lon="14.1157533"><ele>38.0</ele><time>2026-05-01T14:49:55.51Z</time></trkpt><trkpt lat="42.3313933" lon="14.115865"><ele>38.0</ele><time>2026-05-01T14:49:56.51Z</time></trkpt><trkpt lat="42.33143" lon="14.115975"><ele>38.0</ele><time>2026-05-01T14:49:57.511Z</time></trkpt><trkpt lat="42.33147" lon="14.116085"><ele>38.0</ele><time>2026-05-01T14:49:58.51Z</time></trkpt><trkpt lat="42.3315083" lon="14.116195"><ele>38.0</ele><time>2026-05-01T14:49:59.509Z</time></trkpt><trkpt lat="42.3315517" lon="14.1163133"><ele>38.0</ele><time>2026-05-01T14:50:00.513Z</time></trkpt><trkpt lat="42.3315833" lon="14.1164417"><ele>38.0</ele><time>2026-05-01T14:50:01.509Z</time></trkpt><trkpt lat="42.3316267" lon="14.1165717"><ele>38.0</ele><time>2026-05-01T14:50:02.51Z</time></trkpt><trkpt lat="42.3316667" lon="14.116695"><ele>38.0</ele><time>2026-05-01T14:50:03.511Z</time></trkpt><trkpt lat="42.3317083" lon="14.11682"><ele>38.0</ele><time>2026-05-01T14:50:04.509Z</time></trkpt><trkpt lat="42.3317467" lon="14.116945"><ele>38.0</ele><time>2026-05-01T14:50:05.509Z</time></trkpt><trkpt lat="42.3317883" lon="14.11707"><ele>38.0</ele><time>2026-05-01T14:50:06.509Z</time></trkpt><trkpt lat="42.3318283" lon="14.117195"><ele>38.0</ele><time>2026-05-01T14:50:07.514Z</time></trkpt><trkpt lat="42.3318667" lon="14.1173217"><ele>38.0</ele><time>2026-05-01T14:50:08.509Z</time></trkpt><trkpt lat="42.3319033" lon="14.1174483"><ele>38.0</ele><time>2026-05-01T14:50:09.511Z</time></trkpt><trkpt lat="42.3319433" lon="14.11757"><ele>38.0</ele><time>2026-05-01T14:50:10.513Z</time></trkpt><trkpt lat="42.3319833" lon="14.117695"><ele>38.0</ele><time>2026-05-01T14:50:11.509Z</time></trkpt><trkpt lat="42.3320233" lon="14.1178233"><ele>38.0</ele><time>2026-05-01T14:50:12.51Z</time></trkpt><trkpt lat="42.332065" lon="14.1179533"><ele>38.0</ele><time>2026-05-01T14:50:13.509Z</time></trkpt><trkpt lat="42.332105" lon="14.1180817"><ele>38.0</ele><time>2026-05-01T14:50:14.513Z</time></trkpt><trkpt lat="42.3321417" lon="14.1182133"><ele>38.0</ele><time>2026-05-01T14:50:15.511Z</time></trkpt><trkpt lat="42.33218" lon="14.1183417"><ele>38.0</ele><time>2026-05-01T14:50:16.509Z</time></trkpt><trkpt lat="42.3322233" lon="14.118465"><ele>38.0</ele><time>2026-05-01T14:50:17.511Z</time></trkpt><trkpt lat="42.3322617" lon="14.1185883"><ele>38.0</ele><time>2026-05-01T14:50:18.511Z</time></trkpt><trkpt lat="42.3322983" lon="14.118715"><ele>38.0</ele><time>2026-05-01T14:50:19.512Z</time></trkpt><trkpt lat="42.3323383" lon="14.1188383"><ele>38.0</ele><time>2026-05-01T14:50:20.51Z</time></trkpt><trkpt lat="42.3323767" lon="14.1189633"><ele>38.0</ele><time>2026-05-01T14:50:21.511Z</time></trkpt><trkpt lat="42.332415" lon="14.1190883"><ele>37.8</ele><time>2026-05-01T14:50:22.51Z</time></trkpt><trkpt lat="42.3324583" lon="14.1192167"><ele>37.599999999999994</ele><time>2026-05-01T14:50:23.516Z</time></trkpt><trkpt lat="42.3325017" lon="14.1193467"><ele>37.400000000000006</ele><time>2026-05-01T14:50:24.51Z</time></trkpt><trkpt lat="42.33255" lon="14.1194833"><ele>37.2</ele><time>2026-05-01T14:50:25.509Z</time></trkpt><trkpt lat="42.332595" lon="14.1196283"><ele>37.0</ele><time>2026-05-01T14:50:26.512Z</time></trkpt><trkpt lat="42.33264" lon="14.1197767"><ele>37.75</ele><time>2026-05-01T14:50:27.513Z</time></trkpt><trkpt lat="42.3326883" lon="14.1199283"><ele>38.5</ele><time>2026-05-01T14:50:28.511Z</time></trkpt><trkpt lat="42.3327383" lon="14.1200833"><ele>39.25</ele><time>2026-05-01T14:50:29.51Z</time></trkpt><trkpt lat="42.3327867" lon="14.1202433"><ele>40.0</ele><time>2026-05-01T14:50:30.512Z</time></trkpt><trkpt lat="42.332835" lon="14.1204033"><ele>40.0</ele><time>2026-05-01T14:50:31.509Z</time></trkpt><trkpt lat="42.3328833" lon="14.1205533"><ele>40.0</ele><time>2026-05-01T14:50:32.514Z</time></trkpt><trkpt lat="42.33293" lon="14.1206967"><ele>40.0</ele><time>2026-05-01T14:50:33.51Z</time></trkpt><trkpt lat="42.3329733" lon="14.120835"><ele>40.0</ele><time>2026-05-01T14:50:34.511Z</time></trkpt><trkpt lat="42.3330117" lon="14.12097"><ele>40.0</ele><time>2026-05-01T14:50:35.511Z</time></trkpt><trkpt lat="42.33305" lon="14.121105"><ele>40.0</ele><time>2026-05-01T14:50:36.512Z</time></trkpt><trkpt lat="42.33309" lon="14.1212333"><ele>40.0</ele><time>2026-05-01T14:50:37.509Z</time></trkpt><trkpt lat="42.3331367" lon="14.1213583"><ele>40.0</ele><time>2026-05-01T14:50:38.51Z</time></trkpt><trkpt lat="42.3331783" lon="14.1214833"><ele>40.0</ele><time>2026-05-01T14:50:39.516Z</time></trkpt><trkpt lat="42.33322" lon="14.121605"><ele>40.4</ele><time>2026-05-01T14:50:40.511Z</time></trkpt><trkpt lat="42.3332583" lon="14.1217267"><ele>40.8</ele><time>2026-05-01T14:50:41.511Z</time></trkpt><trkpt lat="42.333295" lon="14.1218483"><ele>41.2</ele><time>2026-05-01T14:50:42.511Z</time></trkpt><trkpt lat="42.33333" lon="14.1219683"><ele>41.6</ele><time>2026-05-01T14:50:43.51Z</time></trkpt><trkpt lat="42.3333683" lon="14.1220867"><ele>42.0</ele><time>2026-05-01T14:50:44.512Z</time></trkpt><trkpt lat="42.3334067" lon="14.1222067"><ele>42.0</ele><time>2026-05-01T14:50:45.511Z</time></trkpt><trkpt lat="42.3334483" lon="14.12233"><ele>42.0</ele><time>2026-05-01T14:50:46.509Z</time></trkpt><trkpt lat="42.3334867" lon="14.12246"><ele>42.0</ele><time>2026-05-01T14:50:47.513Z</time></trkpt><trkpt lat="42.3335267" lon="14.12259"><ele>42.0</ele><time>2026-05-01T14:50:48.52Z</time></trkpt><trkpt lat="42.3335683" lon="14.1227133"><ele>42.0</ele><time>2026-05-01T14:50:49.51Z</time></trkpt><trkpt lat="42.3336083" lon="14.1228333"><ele>42.2</ele><time>2026-05-01T14:50:50.51Z</time></trkpt><trkpt lat="42.33365" lon="14.1229583"><ele>42.400000000000006</ele><time>2026-05-01T14:50:51.51Z</time></trkpt><trkpt lat="42.33369" lon="14.1230867"><ele>42.599999999999994</ele><time>2026-05-01T14:50:52.512Z</time></trkpt><trkpt lat="42.3337283" lon="14.1232167"><ele>42.8</ele><time>2026-05-01T14:50:53.514Z</time></trkpt><trkpt lat="42.3337683" lon="14.1233567"><ele>43.0</ele><time>2026-05-01T14:50:54.513Z</time></trkpt><trkpt lat="42.3338117" lon="14.1235083"><ele>43.0</ele><time>2026-05-01T14:50:55.511Z</time></trkpt><trkpt lat="42.33386" lon="14.1236617"><ele>43.0</ele><time>2026-05-01T14:50:56.512Z</time></trkpt><trkpt lat="42.3339133" lon="14.1238117"><ele>43.0</ele><time>2026-05-01T14:50:57.51Z</time></trkpt><trkpt lat="42.33396" lon="14.1239567"><ele>43.0</ele><time>2026-05-01T14:50:58.511Z</time></trkpt><trkpt lat="42.334005" lon="14.1241017"><ele>42.5</ele><time>2026-05-01T14:50:59.513Z</time></trkpt><trkpt lat="42.33405" lon="14.12425"><ele>42.0</ele><time>2026-05-01T14:51:00.512Z</time></trkpt><trkpt lat="42.3341" lon="14.1243933"><ele>41.5</ele><time>2026-05-01T14:51:01.51Z</time></trkpt><trkpt lat="42.3341467" lon="14.12454"><ele>41.0</ele><time>2026-05-01T14:51:02.512Z</time></trkpt><trkpt lat="42.3341917" lon="14.1246867"><ele>41.0</ele><time>2026-05-01T14:51:03.514Z</time></trkpt><trkpt lat="42.3342367" lon="14.1248333"><ele>41.0</ele><time>2026-05-01T14:51:04.511Z</time></trkpt><trkpt lat="42.3342833" lon="14.1249833"><ele>41.0</ele><time>2026-05-01T14:51:05.51Z</time></trkpt><trkpt lat="42.3343317" lon="14.1251317"><ele>41.0</ele><time>2026-05-01T14:51:06.512Z</time></trkpt><trkpt lat="42.3343783" lon="14.1252817"><ele>41.5</ele><time>2026-05-01T14:51:07.509Z</time></trkpt><trkpt lat="42.334425" lon="14.12543"><ele>42.0</ele><time>2026-05-01T14:51:08.511Z</time></trkpt><trkpt lat="42.3344717" lon="14.1255783"><ele>42.5</ele><time>2026-05-01T14:51:09.513Z</time></trkpt><trkpt lat="42.3345167" lon="14.1257267"><ele>43.0</ele><time>2026-05-01T14:51:10.511Z</time></trkpt><trkpt lat="42.334565" lon="14.1258717"><ele>43.5</ele><time>2026-05-01T14:51:11.511Z</time></trkpt><trkpt lat="42.334615" lon="14.1260167"><ele>44.0</ele><time>2026-05-01T14:51:12.511Z</time></trkpt><trkpt lat="42.3346617" lon="14.126165"><ele>44.5</ele><time>2026-05-01T14:51:13.512Z</time></trkpt><trkpt lat="42.3347067" lon="14.126315"><ele>45.0</ele><time>2026-05-01T14:51:14.513Z</time></trkpt><trkpt lat="42.33475" lon="14.1264667"><ele>45.25</ele><time>2026-05-01T14:51:15.514Z</time></trkpt><trkpt lat="42.3347933" lon="14.1266217"><ele>45.5</ele><time>2026-05-01T14:51:16.509Z</time></trkpt><trkpt lat="42.3348333" lon="14.126775"><ele>45.75</ele><time>2026-05-01T14:51:17.509Z</time></trkpt><trkpt lat="42.3348783" lon="14.126925"><ele>46.0</ele><time>2026-05-01T14:51:18.513Z</time></trkpt><trkpt lat="42.334925" lon="14.1270783"><ele>46.0</ele><time>2026-05-01T14:51:19.519Z</time></trkpt><trkpt lat="42.3349683" lon="14.12722"><ele>46.0</ele><time>2026-05-01T14:51:20.511Z</time></trkpt><trkpt lat="42.3350133" lon="14.1273617"><ele>46.0</ele><time>2026-05-01T14:51:21.512Z</time></trkpt><trkpt lat="42.335055" lon="14.127495"><ele>46.0</ele><time>2026-05-01T14:51:22.51Z</time></trkpt><trkpt lat="42.3351" lon="14.1276267"><ele>46.0</ele><time>2026-05-01T14:51:23.511Z</time></trkpt><trkpt lat="42.3351417" lon="14.12776"><ele>46.4</ele><time>2026-05-01T14:51:24.512Z</time></trkpt><trkpt lat="42.3351833" lon="14.1278867"><ele>46.8</ele><time>2026-05-01T14:51:25.511Z</time></trkpt><trkpt lat="42.3352217" lon="14.12802"><ele>47.199999999999996</ele><time>2026-05-01T14:51:26.511Z</time></trkpt><trkpt lat="42.3352617" lon="14.128155"><ele>47.599999999999994</ele><time>2026-05-01T14:51:27.511Z</time></trkpt><trkpt lat="42.3353067" lon="14.1282867"><ele>48.0</ele><time>2026-05-01T14:51:28.514Z</time></trkpt><trkpt lat="42.3353583" lon="14.1284083"><ele>48.2</ele><time>2026-05-01T14:51:29.511Z</time></trkpt><trkpt lat="42.3354" lon="14.1285333"><ele>48.4</ele><time>2026-05-01T14:51:30.513Z</time></trkpt><trkpt lat="42.335435" lon="14.12866"><ele>48.6</ele><time>2026-05-01T14:51:31.511Z</time></trkpt><trkpt lat="42.3354733" lon="14.128785"><ele>48.800000000000004</ele><time>2026-05-01T14:51:32.513Z</time></trkpt><trkpt lat="42.3355133" lon="14.12891"><ele>49.0</ele><time>2026-05-01T14:51:33.509Z</time></trkpt><trkpt lat="42.33555" lon="14.1290417"><ele>49.2</ele><time>2026-05-01T14:51:34.512Z</time></trkpt><trkpt lat="42.3355883" lon="14.1291733"><ele>49.400000000000006</ele><time>2026-05-01T14:51:35.511Z</time></trkpt><trkpt lat="42.3356283" lon="14.1293033"><ele>49.6</ele><time>2026-05-01T14:51:36.511Z</time></trkpt><trkpt lat="42.3356717" lon="14.1294367"><ele>49.8</ele><time>2026-05-01T14:51:37.513Z</time></trkpt><trkpt lat="42.3357133" lon="14.1295683"><ele>50.0</ele><time>2026-05-01T14:51:38.511Z</time></trkpt><trkpt lat="42.3357533" lon="14.1297"><ele>50.0</ele><time>2026-05-01T14:51:39.511Z</time></trkpt><trkpt lat="42.3357917" lon="14.12983"><ele>50.0</ele><time>2026-05-01T14:51:40.515Z</time></trkpt><trkpt lat="42.3358333" lon="14.1299583"><ele>50.0</ele><time>2026-05-01T14:51:41.513Z</time></trkpt><trkpt lat="42.3358767" lon="14.1300917"><ele>50.0</ele><time>2026-05-01T14:51:42.513Z</time></trkpt><trkpt lat="42.3359183" lon="14.1302233"><ele>50.0</ele><time>2026-05-01T14:51:43.511Z</time></trkpt><trkpt lat="42.3359633" lon="14.1303567"><ele>50.4</ele><time>2026-05-01T14:51:44.512Z</time></trkpt><trkpt lat="42.3360067" lon="14.1304883"><ele>50.8</ele><time>2026-05-01T14:51:45.514Z</time></trkpt><trkpt lat="42.3360517" lon="14.13062"><ele>51.2</ele><time>2026-05-01T14:51:46.511Z</time></trkpt><trkpt lat="42.336095" lon="14.1307517"><ele>51.6</ele><time>2026-05-01T14:51:47.512Z</time></trkpt><trkpt lat="42.3361367" lon="14.1308833"><ele>52.0</ele><time>2026-05-01T14:51:48.51Z</time></trkpt><trkpt lat="42.336175" lon="14.131015"><ele>52.0</ele><time>2026-05-01T14:51:49.512Z</time></trkpt><trkpt lat="42.336215" lon="14.1311467"><ele>52.0</ele><time>2026-05-01T14:51:50.516Z</time></trkpt><trkpt lat="42.3362533" lon="14.1312767"><ele>52.0</ele><time>2026-05-01T14:51:51.512Z</time></trkpt><trkpt lat="42.336295" lon="14.1314067"><ele>52.0</ele><time>2026-05-01T14:51:52.513Z</time></trkpt><trkpt lat="42.3363367" lon="14.1315383"><ele>52.0</ele><time>2026-05-01T14:51:53.512Z</time></trkpt><trkpt lat="42.3363817" lon="14.13167"><ele>52.0</ele><time>2026-05-01T14:51:54.511Z</time></trkpt><trkpt lat="42.3364267" lon="14.1318033"><ele>52.0</ele><time>2026-05-01T14:51:55.512Z</time></trkpt><trkpt lat="42.336475" lon="14.1319367"><ele>52.0</ele><time>2026-05-01T14:51:56.514Z</time></trkpt><trkpt lat="42.3365317" lon="14.1320633"><ele>52.0</ele><time>2026-05-01T14:51:57.511Z</time></trkpt><trkpt lat="42.3365933" lon="14.1321867"><ele>52.0</ele><time>2026-05-01T14:51:58.514Z</time></trkpt><trkpt lat="42.3366633" lon="14.1323033"><ele>52.5</ele><time>2026-05-01T14:51:59.51Z</time></trkpt><trkpt lat="42.3367467" lon="14.1324117"><ele>53.0</ele><time>2026-05-01T14:52:00.511Z</time></trkpt><trkpt lat="42.3368367" lon="14.132515"><ele>53.5</ele><time>2026-05-01T14:52:01.51Z</time></trkpt><trkpt lat="42.336935" lon="14.1326083"><ele>54.0</ele><time>2026-05-01T14:52:02.513Z</time></trkpt><trkpt lat="42.337035" lon="14.1326967"><ele>54.0</ele><time>2026-05-01T14:52:03.513Z</time></trkpt><trkpt lat="42.3371383" lon="14.1327767"><ele>54.0</ele><time>2026-05-01T14:52:04.51Z</time></trkpt><trkpt lat="42.3372433" lon="14.1328517"><ele>54.0</ele><time>2026-05-01T14:52:05.517Z</time></trkpt><trkpt lat="42.3373567" lon="14.1329083"><ele>54.0</ele><time>2026-05-01T14:52:06.511Z</time></trkpt><trkpt lat="42.3374733" lon="14.1329533"><ele>54.25</ele><time>2026-05-01T14:52:07.512Z</time></trkpt><trkpt lat="42.3375883" lon="14.1329933"><ele>54.5</ele><time>2026-05-01T14:52:08.511Z</time></trkpt><trkpt lat="42.337715" lon="14.133025"><ele>54.75</ele><time>2026-05-01T14:52:09.511Z</time></trkpt><trkpt lat="42.3378317" lon="14.1330483"><ele>55.0</ele><time>2026-05-01T14:52:10.516Z</time></trkpt><trkpt lat="42.3379483" lon="14.133085"><ele>55.0</ele><time>2026-05-01T14:52:11.513Z</time></trkpt><trkpt lat="42.338065" lon="14.1331267"><ele>55.0</ele><time>2026-05-01T14:52:12.511Z</time></trkpt><trkpt lat="42.3381817" lon="14.1331583"><ele>55.0</ele><time>2026-05-01T14:52:13.513Z</time></trkpt><trkpt lat="42.3383" lon="14.1331883"><ele>55.0</ele><time>2026-05-01T14:52:14.514Z</time></trkpt><trkpt lat="42.3384183" lon="14.1332267"><ele>55.0</ele><time>2026-05-01T14:52:15.509Z</time></trkpt><trkpt lat="42.3385333" lon="14.1332633"><ele>55.0</ele><time>2026-05-01T14:52:16.511Z</time></trkpt><trkpt lat="42.3386467" lon="14.1332933"><ele>55.0</ele><time>2026-05-01T14:52:17.51Z</time></trkpt><trkpt lat="42.3387617" lon="14.133325"><ele>55.0</ele><time>2026-05-01T14:52:18.513Z</time></trkpt><trkpt lat="42.3388783" lon="14.1333567"><ele>55.25</ele><time>2026-05-01T14:52:19.511Z</time></trkpt><trkpt lat="42.338995" lon="14.1333867"><ele>55.5</ele><time>2026-05-01T14:52:20.512Z</time></trkpt><trkpt lat="42.33911" lon="14.1334167"><ele>55.75</ele><time>2026-05-01T14:52:21.515Z</time></trkpt><trkpt lat="42.3392267" lon="14.13345"><ele>56.0</ele><time>2026-05-01T14:52:22.512Z</time></trkpt><trkpt lat="42.3393433" lon="14.1334817"><ele>56.0</ele><time>2026-05-01T14:52:23.514Z</time></trkpt><trkpt lat="42.33946" lon="14.1335133"><ele>56.0</ele><time>2026-05-01T14:52:24.511Z</time></trkpt><trkpt lat="42.3395783" lon="14.1335433"><ele>56.0</ele><time>2026-05-01T14:52:25.513Z</time></trkpt><trkpt lat="42.3396967" lon="14.1335767"><ele>56.0</ele><time>2026-05-01T14:52:26.513Z</time></trkpt><trkpt lat="42.3398133" lon="14.1336133"><ele>55.8</ele><time>2026-05-01T14:52:27.511Z</time></trkpt><trkpt lat="42.339925" lon="14.133655"><ele>55.599999999999994</ele><time>2026-05-01T14:52:28.514Z</time></trkpt><trkpt lat="42.3400317" lon="14.133695"><ele>55.4</ele><time>2026-05-01T14:52:29.509Z</time></trkpt><trkpt lat="42.34013" lon="14.1337267"><ele>55.2</ele><time>2026-05-01T14:52:30.513Z</time></trkpt><trkpt lat="42.34022" lon="14.133755"><ele>55.0</ele><time>2026-05-01T14:52:31.51Z</time></trkpt><trkpt lat="42.3402983" lon="14.13378"><ele>55.0</ele><time>2026-05-01T14:52:32.509Z</time></trkpt><trkpt lat="42.34036" lon="14.1338183"><ele>55.0</ele><time>2026-05-01T14:52:33.511Z</time></trkpt><trkpt lat="42.3404517" lon="14.1338983"><ele>55.0</ele><time>2026-05-01T14:52:35.512Z</time></trkpt><trkpt lat="42.3405317" lon="14.13399"><ele>55.0</ele><time>2026-05-01T14:52:37.509Z</time></trkpt><trkpt lat="42.3406383" lon="14.133995"><ele>55.0</ele><time>2026-05-01T14:52:39.51Z</time></trkpt><trkpt lat="42.3407067" lon="14.1339217"><ele>54.666666666666664</ele><time>2026-05-01T14:52:41.511Z</time></trkpt><trkpt lat="42.34071" lon="14.1337667"><ele>54.33333333333333</ele><time>2026-05-01T14:52:43.511Z</time></trkpt><trkpt lat="42.3406933" lon="14.133675"><ele>54.0</ele><time>2026-05-01T14:52:44.512Z</time></trkpt><trkpt lat="42.340695" lon="14.1335767"><ele>53.66666666666667</ele><time>2026-05-01T14:52:45.512Z</time></trkpt><trkpt lat="42.3407233" lon="14.1334783"><ele>53.333333333333336</ele><time>2026-05-01T14:52:46.509Z</time></trkpt><trkpt lat="42.3407667" lon="14.1333717"><ele>53.0</ele><time>2026-05-01T14:52:47.512Z</time></trkpt><trkpt lat="42.3408233" lon="14.133255"><ele>52.5</ele><time>2026-05-01T14:52:48.511Z</time></trkpt><trkpt lat="42.34089" lon="14.1331283"><ele>52.0</ele><time>2026-05-01T14:52:49.512Z</time></trkpt><trkpt lat="42.34096" lon="14.1330017"><ele>51.5</ele><time>2026-05-01T14:52:50.511Z</time></trkpt><trkpt lat="42.3410317" lon="14.132885"><ele>51.0</ele><time>2026-05-01T14:52:51.511Z</time></trkpt><trkpt lat="42.341105" lon="14.1327717"><ele>51.0</ele><time>2026-05-01T14:52:52.511Z</time></trkpt><trkpt lat="42.34118" lon="14.1326517"><ele>51.0</ele><time>2026-05-01T14:52:53.511Z</time></trkpt><trkpt lat="42.3412567" lon="14.1325317"><ele>51.0</ele><time>2026-05-01T14:52:54.511Z</time></trkpt><trkpt lat="42.3413367" lon="14.132405"><ele>51.0</ele><time>2026-05-01T14:52:55.513Z</time></trkpt><trkpt lat="42.341415" lon="14.13227"><ele>50.25</ele><time>2026-05-01T14:52:56.513Z</time></trkpt><trkpt lat="42.34148" lon="14.1321267"><ele>49.5</ele><time>2026-05-01T14:52:57.513Z</time></trkpt><trkpt lat="42.34153" lon="14.1319767"><ele>48.75</ele><time>2026-05-01T14:52:58.512Z</time></trkpt><trkpt lat="42.3415733" lon="14.13183"><ele>48.0</ele><time>2026-05-01T14:52:59.512Z</time></trkpt><trkpt lat="42.341615" lon="14.1316917"><ele>48.0</ele><time>2026-05-01T14:53:00.512Z</time></trkpt><trkpt lat="42.3416517" lon="14.1315617"><ele>48.0</ele><time>2026-05-01T14:53:01.512Z</time></trkpt><trkpt lat="42.3416917" lon="14.1314367"><ele>48.0</ele><time>2026-05-01T14:53:02.512Z</time></trkpt><trkpt lat="42.3417417" lon="14.1313283"><ele>48.0</ele><time>2026-05-01T14:53:03.514Z</time></trkpt><trkpt lat="42.3417933" lon="14.1312167"><ele>48.0</ele><time>2026-05-01T14:53:04.512Z</time></trkpt><trkpt lat="42.3418383" lon="14.13109"><ele>47.75</ele><time>2026-05-01T14:53:05.508Z</time></trkpt><trkpt lat="42.3418583" lon="14.1309367"><ele>47.5</ele><time>2026-05-01T14:53:06.511Z</time></trkpt><trkpt lat="42.3418767" lon="14.1307733"><ele>47.25</ele><time>2026-05-01T14:53:07.51Z</time></trkpt><trkpt lat="42.3419183" lon="14.1306183"><ele>47.0</ele><time>2026-05-01T14:53:08.512Z</time></trkpt><trkpt lat="42.341955" lon="14.130465"><ele>46.8</ele><time>2026-05-01T14:53:09.51Z</time></trkpt><trkpt lat="42.341985" lon="14.13032"><ele>46.6</ele><time>2026-05-01T14:53:10.513Z</time></trkpt><trkpt lat="42.34202" lon="14.1301833"><ele>46.4</ele><time>2026-05-01T14:53:11.51Z</time></trkpt><trkpt lat="42.34205" lon="14.1300617"><ele>46.199999999999996</ele><time>2026-05-01T14:53:12.512Z</time></trkpt><trkpt lat="42.3420583" lon="14.1299517"><ele>46.0</ele><time>2026-05-01T14:53:13.513Z</time></trkpt><trkpt lat="42.3420617" lon="14.129845"><ele>45.66666666666667</ele><time>2026-05-01T14:53:14.511Z</time></trkpt><trkpt lat="42.3420867" lon="14.1297567"><ele>45.333333333333336</ele><time>2026-05-01T14:53:15.509Z</time></trkpt><trkpt lat="42.3421317" lon="14.1296767"><ele>45.0</ele><time>2026-05-01T14:53:16.509Z</time></trkpt><trkpt lat="42.3421783" lon="14.1295867"><ele>44.666666666666664</ele><time>2026-05-01T14:53:17.51Z</time></trkpt><trkpt lat="42.3421867" lon="14.1294817"><ele>44.33333333333333</ele><time>2026-05-01T14:53:18.511Z</time></trkpt><trkpt lat="42.3421783" lon="14.1293733"><ele>44.0</ele><time>2026-05-01T14:53:19.512Z</time></trkpt><trkpt lat="42.3421467" lon="14.1292667"><ele>44.0</ele><time>2026-05-01T14:53:20.511Z</time></trkpt><trkpt lat="42.3420883" lon="14.129185"><ele>44.0</ele><time>2026-05-01T14:53:21.511Z</time></trkpt><trkpt lat="42.3420133" lon="14.12911"><ele>44.0</ele><time>2026-05-01T14:53:22.513Z</time></trkpt><trkpt lat="42.34196" lon="14.1290117"><ele>44.0</ele><time>2026-05-01T14:53:23.512Z</time></trkpt><trkpt lat="42.3419133" lon="14.1288783"><ele>44.0</ele><time>2026-05-01T14:53:24.513Z</time></trkpt><trkpt lat="42.3418667" lon="14.1287267"><ele>42.33333333333333</ele><time>2026-05-01T14:53:25.513Z</time></trkpt><trkpt lat="42.3418133" lon="14.1285583"><ele>40.666666666666664</ele><time>2026-05-01T14:53:26.511Z</time></trkpt><trkpt lat="42.3417683" lon="14.12836"><ele>39.0</ele><time>2026-05-01T14:53:27.514Z</time></trkpt><trkpt lat="42.3417267" lon="14.1281433"><ele>38.333333333333336</ele><time>2026-05-01T14:53:28.512Z</time></trkpt><trkpt lat="42.34168" lon="14.1279217"><ele>37.66666666666667</ele><time>2026-05-01T14:53:29.513Z</time></trkpt><trkpt lat="42.3416367" lon="14.1277017"><ele>37.0</ele><time>2026-05-01T14:53:30.516Z</time></trkpt><trkpt lat="42.3415983" lon="14.1274817"><ele>36.333333333333336</ele><time>2026-05-01T14:53:31.511Z</time></trkpt><trkpt lat="42.3415617" lon="14.1272633"><ele>35.666666666666664</ele><time>2026-05-01T14:53:32.512Z</time></trkpt><trkpt lat="42.34152" lon="14.1270467"><ele>35.0</ele><time>2026-05-01T14:53:33.511Z</time></trkpt><trkpt lat="42.3414817" lon="14.1268317"><ele>35.0</ele><time>2026-05-01T14:53:34.512Z</time></trkpt><trkpt lat="42.3414467" lon="14.1266183"><ele>35.0</ele><time>2026-05-01T14:53:35.513Z</time></trkpt><trkpt lat="42.34141" lon="14.12641"><ele>35.0</ele><time>2026-05-01T14:53:36.512Z</time></trkpt><trkpt lat="42.34138" lon="14.1262017"><ele>35.0</ele><time>2026-05-01T14:53:37.517Z</time></trkpt><trkpt lat="42.3413433" lon="14.125995"><ele>35.0</ele><time>2026-05-01T14:53:38.511Z</time></trkpt><trkpt lat="42.3413083" lon="14.125785"><ele>35.0</ele><time>2026-05-01T14:53:39.513Z</time></trkpt><trkpt lat="42.341275" lon="14.12557"><ele>34.666666666666664</ele><time>2026-05-01T14:53:40.511Z</time></trkpt><trkpt lat="42.34123" lon="14.1253533"><ele>34.333333333333336</ele><time>2026-05-01T14:53:41.512Z</time></trkpt><trkpt lat="42.3411917" lon="14.1251317"><ele>34.0</ele><time>2026-05-01T14:53:42.516Z</time></trkpt><trkpt lat="42.3411533" lon="14.1249067"><ele>34.333333333333336</ele><time>2026-05-01T14:53:43.511Z</time></trkpt><trkpt lat="42.3411117" lon="14.1246817"><ele>34.666666666666664</ele><time>2026-05-01T14:53:44.514Z</time></trkpt><trkpt lat="42.34107" lon="14.124455"><ele>35.0</ele><time>2026-05-01T14:53:45.511Z</time></trkpt><trkpt lat="42.3410283" lon="14.1242283"><ele>35.33333333333333</ele><time>2026-05-01T14:53:46.508Z</time></trkpt><trkpt lat="42.3409867" lon="14.1240017"><ele>35.666666666666664</ele><time>2026-05-01T14:53:47.509Z</time></trkpt><trkpt lat="42.34095" lon="14.123775"><ele>36.0</ele><time>2026-05-01T14:53:48.509Z</time></trkpt><trkpt lat="42.3409183" lon="14.123565"><ele>36.0</ele><time>2026-05-01T14:53:49.512Z</time></trkpt><trkpt lat="42.3408883" lon="14.12336"><ele>36.0</ele><time>2026-05-01T14:53:50.51Z</time></trkpt><trkpt lat="42.340855" lon="14.12316"><ele>36.0</ele><time>2026-05-01T14:53:51.51Z</time></trkpt><trkpt lat="42.3408233" lon="14.122965"><ele>35.75</ele><time>2026-05-01T14:53:52.51Z</time></trkpt><trkpt lat="42.340795" lon="14.12278"><ele>35.5</ele><time>2026-05-01T14:53:53.51Z</time></trkpt><trkpt lat="42.3407717" lon="14.122605"><ele>35.25</ele><time>2026-05-01T14:53:54.51Z</time></trkpt><trkpt lat="42.3407617" lon="14.12244"><ele>35.0</ele><time>2026-05-01T14:53:55.511Z</time></trkpt><trkpt lat="42.34077" lon="14.1222783"><ele>34.8</ele><time>2026-05-01T14:53:56.511Z</time></trkpt><trkpt lat="42.3407867" lon="14.1221233"><ele>34.6</ele><time>2026-05-01T14:53:57.51Z</time></trkpt><trkpt lat="42.3408133" lon="14.1219817"><ele>34.4</ele><time>2026-05-01T14:53:58.511Z</time></trkpt><trkpt lat="42.3408517" lon="14.1218533"><ele>34.2</ele><time>2026-05-01T14:53:59.513Z</time></trkpt><trkpt lat="42.340905" lon="14.1217433"><ele>34.0</ele><time>2026-05-01T14:54:00.511Z</time></trkpt><trkpt lat="42.3409633" lon="14.12165"><ele>34.0</ele><time>2026-05-01T14:54:01.51Z</time></trkpt><trkpt lat="42.341035" lon="14.1215833"><ele>34.0</ele><time>2026-05-01T14:54:02.51Z</time></trkpt><trkpt lat="42.3411067" lon="14.1215067"><ele>34.0</ele><time>2026-05-01T14:54:03.511Z</time></trkpt><trkpt lat="42.3411583" lon="14.1214233"><ele>34.0</ele><time>2026-05-01T14:54:04.511Z</time></trkpt><trkpt lat="42.341185" lon="14.1213267"><ele>34.0</ele><time>2026-05-01T14:54:05.509Z</time></trkpt><trkpt lat="42.3412" lon="14.1212133"><ele>34.0</ele><time>2026-05-01T14:54:06.512Z</time></trkpt><trkpt lat="42.341205" lon="14.12109"><ele>33.8</ele><time>2026-05-01T14:54:07.512Z</time></trkpt><trkpt lat="42.3412367" lon="14.1209783"><ele>33.599999999999994</ele><time>2026-05-01T14:54:08.511Z</time></trkpt><trkpt lat="42.3412867" lon="14.1208767"><ele>33.4</ele><time>2026-05-01T14:54:09.51Z</time></trkpt><trkpt lat="42.341345" lon="14.1207733"><ele>33.199999999999996</ele><time>2026-05-01T14:54:10.514Z</time></trkpt><trkpt lat="42.341405" lon="14.1206583"><ele>33.0</ele><time>2026-05-01T14:54:11.515Z</time></trkpt><trkpt lat="42.3414733" lon="14.1205317"><ele>33.0</ele><time>2026-05-01T14:54:12.51Z</time></trkpt><trkpt lat="42.3415467" lon="14.120395"><ele>33.0</ele><time>2026-05-01T14:54:13.511Z</time></trkpt><trkpt lat="42.3416267" lon="14.12025"><ele>33.0</ele><time>2026-05-01T14:54:14.511Z</time></trkpt><trkpt lat="42.34171" lon="14.120095"><ele>33.0</ele><time>2026-05-01T14:54:15.511Z</time></trkpt><trkpt lat="42.3417983" lon="14.119935"><ele>32.333333333333336</ele><time>2026-05-01T14:54:16.512Z</time></trkpt><trkpt lat="42.34189" lon="14.11977"><ele>31.666666666666668</ele><time>2026-05-01T14:54:17.514Z</time></trkpt><trkpt lat="42.3419817" lon="14.119605"><ele>31.0</ele><time>2026-05-01T14:54:18.51Z</time></trkpt><trkpt lat="42.3420783" lon="14.1194267"><ele>31.0</ele><time>2026-05-01T14:54:19.508Z</time></trkpt><trkpt lat="42.3421817" lon="14.11924"><ele>31.0</ele><time>2026-05-01T14:54:20.511Z</time></trkpt><trkpt lat="42.3422883" lon="14.11903"><ele>31.0</ele><time>2026-05-01T14:54:21.513Z</time></trkpt><trkpt lat="42.3423933" lon="14.1187917"><ele>31.666666666666668</ele><time>2026-05-01T14:54:22.51Z</time></trkpt><trkpt lat="42.342485" lon="14.11853"><ele>32.333333333333336</ele><time>2026-05-01T14:54:23.511Z</time></trkpt><trkpt lat="42.3425567" lon="14.11825"><ele>33.0</ele><time>2026-05-01T14:54:24.51Z</time></trkpt><trkpt lat="42.34261" lon="14.1179717"><ele>35.0</ele><time>2026-05-01T14:54:25.51Z</time></trkpt><trkpt lat="42.3426567" lon="14.1177033"><ele>37.0</ele><time>2026-05-01T14:54:26.51Z</time></trkpt><trkpt lat="42.3426967" lon="14.1174583"><ele>39.0</ele><time>2026-05-01T14:54:27.51Z</time></trkpt><trkpt lat="42.34274" lon="14.1172217"><ele>41.0</ele><time>2026-05-01T14:54:28.512Z</time></trkpt><trkpt lat="42.3427917" lon="14.1169867"><ele>43.0</ele><time>2026-05-01T14:54:29.513Z</time></trkpt><trkpt lat="42.3428367" lon="14.1167533"><ele>45.0</ele><time>2026-05-01T14:54:30.513Z</time></trkpt><trkpt lat="42.3428783" lon="14.1165217"><ele>45.333333333333336</ele><time>2026-05-01T14:54:31.512Z</time></trkpt><trkpt lat="42.3429233" lon="14.1163017"><ele>45.66666666666667</ele><time>2026-05-01T14:54:32.511Z</time></trkpt><trkpt lat="42.34296" lon="14.1160867"><ele>46.0</ele><time>2026-05-01T14:54:33.51Z</time></trkpt><trkpt lat="42.3429817" lon="14.11588"><ele>46.5</ele><time>2026-05-01T14:54:34.513Z</time></trkpt><trkpt lat="42.34302" lon="14.1156867"><ele>47.0</ele><time>2026-05-01T14:54:35.512Z</time></trkpt><trkpt lat="42.3430533" lon="14.115495"><ele>47.5</ele><time>2026-05-01T14:54:36.511Z</time></trkpt><trkpt lat="42.3430867" lon="14.1153017"><ele>48.0</ele><time>2026-05-01T14:54:37.512Z</time></trkpt><trkpt lat="42.34311" lon="14.1151083"><ele>48.0</ele><time>2026-05-01T14:54:38.511Z</time></trkpt><trkpt lat="42.3431333" lon="14.11492"><ele>48.0</ele><time>2026-05-01T14:54:39.515Z</time></trkpt><trkpt lat="42.3431583" lon="14.1147367"><ele>48.0</ele><time>2026-05-01T14:54:40.512Z</time></trkpt><trkpt lat="42.343185" lon="14.11455"><ele>48.0</ele><time>2026-05-01T14:54:41.51Z</time></trkpt><trkpt lat="42.34321" lon="14.1143683"><ele>48.0</ele><time>2026-05-01T14:54:42.512Z</time></trkpt><trkpt lat="42.3432333" lon="14.1141833"><ele>48.0</ele><time>2026-05-01T14:54:43.51Z</time></trkpt><trkpt lat="42.3432567" lon="14.1139983"><ele>48.0</ele><time>2026-05-01T14:54:44.511Z</time></trkpt><trkpt lat="42.3432783" lon="14.113815"><ele>48.0</ele><time>2026-05-01T14:54:45.508Z</time></trkpt><trkpt lat="42.3432983" lon="14.1136317"><ele>47.75</ele><time>2026-05-01T14:54:46.509Z</time></trkpt><trkpt lat="42.3433217" lon="14.113445"><ele>47.5</ele><time>2026-05-01T14:54:47.509Z</time></trkpt><trkpt lat="42.3433433" lon="14.1132567"><ele>47.25</ele><time>2026-05-01T14:54:48.511Z</time></trkpt><trkpt lat="42.34337" lon="14.11307"><ele>47.0</ele><time>2026-05-01T14:54:49.514Z</time></trkpt><trkpt lat="42.3433967" lon="14.1128817"><ele>47.0</ele><time>2026-05-01T14:54:50.511Z</time></trkpt><trkpt lat="42.3434217" lon="14.1127"><ele>47.0</ele><time>2026-05-01T14:54:51.509Z</time></trkpt><trkpt lat="42.3434433" lon="14.11253"><ele>47.0</ele><time>2026-05-01T14:54:52.508Z</time></trkpt><trkpt lat="42.34346" lon="14.1123733"><ele>47.0</ele><time>2026-05-01T14:54:53.512Z</time></trkpt><trkpt lat="42.3434783" lon="14.112225"><ele>47.0</ele><time>2026-05-01T14:54:54.509Z</time></trkpt><trkpt lat="42.3434967" lon="14.1120867"><ele>47.0</ele><time>2026-05-01T14:54:55.51Z</time></trkpt><trkpt lat="42.3435167" lon="14.1119567"><ele>47.0</ele><time>2026-05-01T14:54:56.511Z</time></trkpt><trkpt lat="42.3435333" lon="14.1118317"><ele>47.0</ele><time>2026-05-01T14:54:57.511Z</time></trkpt><trkpt lat="42.3435517" lon="14.1117117"><ele>47.0</ele><time>2026-05-01T14:54:58.51Z</time></trkpt><trkpt lat="42.3435683" lon="14.111605"><ele>47.166666666666664</ele><time>2026-05-01T14:54:59.51Z</time></trkpt><trkpt lat="42.3435933" lon="14.1115133"><ele>47.33333333333333</ele><time>2026-05-01T14:55:00.513Z</time></trkpt><trkpt lat="42.3436417" lon="14.1114583"><ele>47.5</ele><time>2026-05-01T14:55:01.511Z</time></trkpt><trkpt lat="42.3437617" lon="14.11145"><ele>47.666666666666664</ele><time>2026-05-01T14:55:03.511Z</time></trkpt><trkpt lat="42.3438333" lon="14.1114983"><ele>47.833333333333336</ele><time>2026-05-01T14:55:04.51Z</time></trkpt><trkpt lat="42.3439183" lon="14.111565"><ele>48.0</ele><time>2026-05-01T14:55:05.509Z</time></trkpt><trkpt lat="42.344015" lon="14.1116317"><ele>48.0</ele><time>2026-05-01T14:55:06.511Z</time></trkpt><trkpt lat="42.34412" lon="14.1117"><ele>48.0</ele><time>2026-05-01T14:55:07.512Z</time></trkpt><trkpt lat="42.3442283" lon="14.1117717"><ele>48.0</ele><time>2026-05-01T14:55:08.51Z</time></trkpt><trkpt lat="42.34434" lon="14.1118383"><ele>48.0</ele><time>2026-05-01T14:55:09.51Z</time></trkpt><trkpt lat="42.3444533" lon="14.111905"><ele>48.0</ele><time>2026-05-01T14:55:10.508Z</time></trkpt><trkpt lat="42.3445667" lon="14.1119783"><ele>48.0</ele><time>2026-05-01T14:55:11.51Z</time></trkpt><trkpt lat="42.344675" lon="14.112055"><ele>48.0</ele><time>2026-05-01T14:55:12.511Z</time></trkpt><trkpt lat="42.3447833" lon="14.1121233"><ele>48.0</ele><time>2026-05-01T14:55:13.512Z</time></trkpt><trkpt lat="42.3448867" lon="14.1121867"><ele>47.599999999999994</ele><time>2026-05-01T14:55:14.509Z</time></trkpt><trkpt lat="42.34499" lon="14.1122517"><ele>47.199999999999996</ele><time>2026-05-01T14:55:15.512Z</time></trkpt><trkpt lat="42.34509" lon="14.11231"><ele>46.8</ele><time>2026-05-01T14:55:16.51Z</time></trkpt><trkpt lat="42.345195" lon="14.112355"><ele>46.4</ele><time>2026-05-01T14:55:17.512Z</time></trkpt><trkpt lat="42.3453017" lon="14.112395"><ele>46.0</ele><time>2026-05-01T14:55:18.511Z</time></trkpt><trkpt lat="42.3454133" lon="14.11243"><ele>46.0</ele><time>2026-05-01T14:55:19.509Z</time></trkpt><trkpt lat="42.3455267" lon="14.112465"><ele>46.0</ele><time>2026-05-01T14:55:20.512Z</time></trkpt><trkpt lat="42.3456417" lon="14.1125017"><ele>46.0</ele><time>2026-05-01T14:55:21.514Z</time></trkpt><trkpt lat="42.3457583" lon="14.112545"><ele>46.0</ele><time>2026-05-01T14:55:22.513Z</time></trkpt><trkpt lat="42.3458733" lon="14.1125883"><ele>46.0</ele><time>2026-05-01T14:55:23.51Z</time></trkpt><trkpt lat="42.345995" lon="14.1126217"><ele>46.0</ele><time>2026-05-01T14:55:24.51Z</time></trkpt><trkpt lat="42.3461183" lon="14.1126617"><ele>46.0</ele><time>2026-05-01T14:55:25.509Z</time></trkpt><trkpt lat="42.3462417" lon="14.1127133"><ele>46.0</ele><time>2026-05-01T14:55:26.515Z</time></trkpt><trkpt lat="42.3463683" lon="14.11277"><ele>45.5</ele><time>2026-05-01T14:55:27.509Z</time></trkpt><trkpt lat="42.3464967" lon="14.1128317"><ele>45.0</ele><time>2026-05-01T14:55:28.511Z</time></trkpt><trkpt lat="42.3466233" lon="14.1128933"><ele>44.5</ele><time>2026-05-01T14:55:29.511Z</time></trkpt><trkpt lat="42.34675" lon="14.1129533"><ele>44.0</ele><time>2026-05-01T14:55:30.51Z</time></trkpt><trkpt lat="42.3468767" lon="14.1130133"><ele>44.0</ele><time>2026-05-01T14:55:31.509Z</time></trkpt><trkpt lat="42.3470033" lon="14.11307"><ele>44.0</ele><time>2026-05-01T14:55:32.511Z</time></trkpt><trkpt lat="42.3471283" lon="14.1131233"><ele>44.0</ele><time>2026-05-01T14:55:33.515Z</time></trkpt><trkpt lat="42.347245" lon="14.1131783"><ele>44.0</ele><time>2026-05-01T14:55:34.513Z</time></trkpt><trkpt lat="42.3473533" lon="14.1132367"><ele>44.2</ele><time>2026-05-01T14:55:35.51Z</time></trkpt><trkpt lat="42.3474583" lon="14.1132867"><ele>44.400000000000006</ele><time>2026-05-01T14:55:36.512Z</time></trkpt><trkpt lat="42.3475583" lon="14.1133333"><ele>44.6</ele><time>2026-05-01T14:55:37.511Z</time></trkpt><trkpt lat="42.3476617" lon="14.1133867"><ele>44.8</ele><time>2026-05-01T14:55:38.512Z</time></trkpt><trkpt lat="42.3477683" lon="14.1134433"><ele>45.0</ele><time>2026-05-01T14:55:39.512Z</time></trkpt><trkpt lat="42.3478783" lon="14.1134983"><ele>45.0</ele><time>2026-05-01T14:55:40.512Z</time></trkpt><trkpt lat="42.34799" lon="14.1135517"><ele>45.0</ele><time>2026-05-01T14:55:41.51Z</time></trkpt><trkpt lat="42.3481033" lon="14.1135933"><ele>45.0</ele><time>2026-05-01T14:55:42.512Z</time></trkpt><trkpt lat="42.3482133" lon="14.113625"><ele>45.0</ele><time>2026-05-01T14:55:43.508Z</time></trkpt><trkpt lat="42.3483233" lon="14.11363"><ele>45.0</ele><time>2026-05-01T14:55:44.509Z</time></trkpt><trkpt lat="42.3484383" lon="14.1136083"><ele>45.0</ele><time>2026-05-01T14:55:45.508Z</time></trkpt><trkpt lat="42.3485583" lon="14.1135633"><ele>45.0</ele><time>2026-05-01T14:55:46.51Z</time></trkpt><trkpt lat="42.3486783" lon="14.11349"><ele>45.0</ele><time>2026-05-01T14:55:47.512Z</time></trkpt><trkpt lat="42.3488" lon="14.1134117"><ele>44.25</ele><time>2026-05-01T14:55:48.51Z</time></trkpt><trkpt lat="42.3489283" lon="14.1133317"><ele>43.5</ele><time>2026-05-01T14:55:49.509Z</time></trkpt><trkpt lat="42.3490583" lon="14.1132533"><ele>42.75</ele><time>2026-05-01T14:55:50.51Z</time></trkpt><trkpt lat="42.3491817" lon="14.1131717"><ele>42.0</ele><time>2026-05-01T14:55:51.509Z</time></trkpt><trkpt lat="42.349295" lon="14.1130933"><ele>41.75</ele><time>2026-05-01T14:55:52.511Z</time></trkpt><trkpt lat="42.3494033" lon="14.1130283"><ele>41.5</ele><time>2026-05-01T14:55:53.512Z</time></trkpt><trkpt lat="42.34951" lon="14.112965"><ele>41.25</ele><time>2026-05-01T14:55:54.514Z</time></trkpt><trkpt lat="42.3496183" lon="14.1128967"><ele>41.0</ele><time>2026-05-01T14:55:55.51Z</time></trkpt><trkpt lat="42.3497283" lon="14.1128233"><ele>41.75</ele><time>2026-05-01T14:55:56.511Z</time></trkpt><trkpt lat="42.349845" lon="14.112745"><ele>42.5</ele><time>2026-05-01T14:55:57.51Z</time></trkpt><trkpt lat="42.3499667" lon="14.112665"><ele>43.25</ele><time>2026-05-01T14:55:58.511Z</time></trkpt><trkpt lat="42.3500967" lon="14.1125933"><ele>44.0</ele><time>2026-05-01T14:55:59.51Z</time></trkpt><trkpt lat="42.3502367" lon="14.1125433"><ele>44.0</ele><time>2026-05-01T14:56:00.51Z</time></trkpt><trkpt lat="42.3503833" lon="14.1125117"><ele>44.0</ele><time>2026-05-01T14:56:01.511Z</time></trkpt><trkpt lat="42.3505367" lon="14.1125033"><ele>44.0</ele><time>2026-05-01T14:56:02.511Z</time></trkpt><trkpt lat="42.3506933" lon="14.1125067"><ele>44.0</ele><time>2026-05-01T14:56:03.511Z</time></trkpt><trkpt lat="42.350845" lon="14.1125333"><ele>44.0</ele><time>2026-05-01T14:56:04.511Z</time></trkpt><trkpt lat="42.3509933" lon="14.1125667"><ele>44.0</ele><time>2026-05-01T14:56:05.512Z</time></trkpt><trkpt lat="42.3511383" lon="14.112605"><ele>44.0</ele><time>2026-05-01T14:56:06.513Z</time></trkpt><trkpt lat="42.3512817" lon="14.1126483"><ele>44.0</ele><time>2026-05-01T14:56:07.514Z</time></trkpt><trkpt lat="42.3514233" lon="14.1127083"><ele>44.0</ele><time>2026-05-01T14:56:08.512Z</time></trkpt><trkpt lat="42.3515667" lon="14.1127683"><ele>44.0</ele><time>2026-05-01T14:56:09.514Z</time></trkpt><trkpt lat="42.3517117" lon="14.1128233"><ele>42.666666666666664</ele><time>2026-05-01T14:56:10.516Z</time></trkpt><trkpt lat="42.3518567" lon="14.11288"><ele>41.333333333333336</ele><time>2026-05-01T14:56:11.512Z</time></trkpt><trkpt lat="42.3520067" lon="14.1129467"><ele>40.0</ele><time>2026-05-01T14:56:12.516Z</time></trkpt><trkpt lat="42.3521667" lon="14.1130167"><ele>38.66666666666667</ele><time>2026-05-01T14:56:13.511Z</time></trkpt><trkpt lat="42.3523467" lon="14.1130917"><ele>37.333333333333336</ele><time>2026-05-01T14:56:14.513Z</time></trkpt><trkpt lat="42.3525417" lon="14.113175"><ele>36.0</ele><time>2026-05-01T14:56:15.511Z</time></trkpt><trkpt lat="42.3527533" lon="14.1132533"><ele>36.0</ele><time>2026-05-01T14:56:16.51Z</time></trkpt><trkpt lat="42.3529717" lon="14.1133267"><ele>36.0</ele><time>2026-05-01T14:56:17.512Z</time></trkpt><trkpt lat="42.3531983" lon="14.1134067"><ele>35.5</ele><time>2026-05-01T14:56:18.511Z</time></trkpt><trkpt lat="42.35343" lon="14.1134967"><ele>35.0</ele><time>2026-05-01T14:56:19.515Z</time></trkpt><trkpt lat="42.353655" lon="14.1135933"><ele>35.0</ele><time>2026-05-01T14:56:20.51Z</time></trkpt><trkpt lat="42.35387" lon="14.1136933"><ele>35.0</ele><time>2026-05-01T14:56:21.511Z</time></trkpt><trkpt lat="42.3540717" lon="14.113785"><ele>35.0</ele><time>2026-05-01T14:56:22.511Z</time></trkpt><trkpt lat="42.354265" lon="14.1138667"><ele>35.33333333333333</ele><time>2026-05-01T14:56:23.512Z</time></trkpt><trkpt lat="42.3544583" lon="14.11394"><ele>35.666666666666664</ele><time>2026-05-01T14:56:24.512Z</time></trkpt><trkpt lat="42.3546483" lon="14.114015"><ele>36.0</ele><time>2026-05-01T14:56:25.512Z</time></trkpt><trkpt lat="42.3548383" lon="14.1140917"><ele>36.333333333333336</ele><time>2026-05-01T14:56:26.516Z</time></trkpt><trkpt lat="42.3550283" lon="14.114165"><ele>36.66666666666667</ele><time>2026-05-01T14:56:27.511Z</time></trkpt><trkpt lat="42.3552167" lon="14.1142367"><ele>37.0</ele><time>2026-05-01T14:56:28.515Z</time></trkpt><trkpt lat="42.3554" lon="14.1143033"><ele>40.333333333333336</ele><time>2026-05-01T14:56:29.512Z</time></trkpt><trkpt lat="42.35558" lon="14.1143733"><ele>43.666666666666664</ele><time>2026-05-01T14:56:30.511Z</time></trkpt><trkpt lat="42.35576" lon="14.114445"><ele>47.0</ele><time>2026-05-01T14:56:31.512Z</time></trkpt><trkpt lat="42.355935" lon="14.1145233"><ele>47.0</ele><time>2026-05-01T14:56:32.512Z</time></trkpt><trkpt lat="42.3561117" lon="14.1146"><ele>47.0</ele><time>2026-05-01T14:56:33.514Z</time></trkpt><trkpt lat="42.3562917" lon="14.1146783"><ele>47.0</ele><time>2026-05-01T14:56:34.511Z</time></trkpt><trkpt lat="42.3564733" lon="14.114755"><ele>47.666666666666664</ele><time>2026-05-01T14:56:35.512Z</time></trkpt><trkpt lat="42.3566567" lon="14.114825"><ele>48.33333333333333</ele><time>2026-05-01T14:56:36.511Z</time></trkpt><trkpt lat="42.3568433" lon="14.114895"><ele>49.0</ele><time>2026-05-01T14:56:37.511Z</time></trkpt><trkpt lat="42.3570283" lon="14.11497"><ele>46.33333333333333</ele><time>2026-05-01T14:56:38.512Z</time></trkpt><trkpt lat="42.357215" lon="14.115045"><ele>43.666666666666664</ele><time>2026-05-01T14:56:39.512Z</time></trkpt><trkpt lat="42.3574" lon="14.11512"><ele>41.0</ele><time>2026-05-01T14:56:40.516Z</time></trkpt><trkpt lat="42.3575833" lon="14.1151933"><ele>41.0</ele><time>2026-05-01T14:56:41.513Z</time></trkpt><trkpt lat="42.3577667" lon="14.1152667"><ele>41.0</ele><time>2026-05-01T14:56:42.512Z</time></trkpt><trkpt lat="42.3579467" lon="14.1153417"><ele>41.0</ele><time>2026-05-01T14:56:43.512Z</time></trkpt><trkpt lat="42.3581233" lon="14.1154133"><ele>41.0</ele><time>2026-05-01T14:56:44.512Z</time></trkpt><trkpt lat="42.3583017" lon="14.1154817"><ele>41.0</ele><time>2026-05-01T14:56:45.512Z</time></trkpt><trkpt lat="42.3584783" lon="14.11555"><ele>41.0</ele><time>2026-05-01T14:56:46.512Z</time></trkpt><trkpt lat="42.358655" lon="14.115625"><ele>41.0</ele><time>2026-05-01T14:56:47.516Z</time></trkpt><trkpt lat="42.35883" lon="14.1157033"><ele>41.0</ele><time>2026-05-01T14:56:48.512Z</time></trkpt><trkpt lat="42.3590067" lon="14.1157733"><ele>41.0</ele><time>2026-05-01T14:56:49.512Z</time></trkpt><trkpt lat="42.3591833" lon="14.115845"><ele>39.666666666666664</ele><time>2026-05-01T14:56:50.514Z</time></trkpt><trkpt lat="42.35936" lon="14.1159233"><ele>38.333333333333336</ele><time>2026-05-01T14:56:51.512Z</time></trkpt><trkpt lat="42.3595367" lon="14.1160067"><ele>37.0</ele><time>2026-05-01T14:56:52.511Z</time></trkpt><trkpt lat="42.3597133" lon="14.1160833"><ele>37.0</ele><time>2026-05-01T14:56:53.512Z</time></trkpt><trkpt lat="42.3598917" lon="14.1161617"><ele>37.0</ele><time>2026-05-01T14:56:54.514Z</time></trkpt><trkpt lat="42.3600683" lon="14.11624"><ele>37.0</ele><time>2026-05-01T14:56:55.511Z</time></trkpt><trkpt lat="42.3602433" lon="14.1163217"><ele>37.0</ele><time>2026-05-01T14:56:56.511Z</time></trkpt><trkpt lat="42.360415" lon="14.1164083"><ele>37.0</ele><time>2026-05-01T14:56:57.511Z</time></trkpt><trkpt lat="42.3605883" lon="14.11649"><ele>37.0</ele><time>2026-05-01T14:56:58.515Z</time></trkpt><trkpt lat="42.3607617" lon="14.1165683"><ele>34.66666666666667</ele><time>2026-05-01T14:56:59.511Z</time></trkpt><trkpt lat="42.3609333" lon="14.1166433"><ele>32.333333333333336</ele><time>2026-05-01T14:57:00.511Z</time></trkpt><trkpt lat="42.361105" lon="14.11672"><ele>30.0</ele><time>2026-05-01T14:57:01.512Z</time></trkpt><trkpt lat="42.3612733" lon="14.1168"><ele>32.0</ele><time>2026-05-01T14:57:02.509Z</time></trkpt><trkpt lat="42.3614433" lon="14.1168767"><ele>34.0</ele><time>2026-05-01T14:57:03.513Z</time></trkpt><trkpt lat="42.3616117" lon="14.1169533"><ele>36.0</ele><time>2026-05-01T14:57:04.511Z</time></trkpt><trkpt lat="42.3617817" lon="14.11703"><ele>36.0</ele><time>2026-05-01T14:57:05.509Z</time></trkpt><trkpt lat="42.3619517" lon="14.1171133"><ele>36.0</ele><time>2026-05-01T14:57:06.51Z</time></trkpt><trkpt lat="42.362125" lon="14.1171917"><ele>36.0</ele><time>2026-05-01T14:57:07.51Z</time></trkpt><trkpt lat="42.3623017" lon="14.1172667"><ele>33.666666666666664</ele><time>2026-05-01T14:57:08.511Z</time></trkpt><trkpt lat="42.3624783" lon="14.1173383"><ele>31.333333333333332</ele><time>2026-05-01T14:57:09.51Z</time></trkpt><trkpt lat="42.362655" lon="14.1174"><ele>29.0</ele><time>2026-05-01T14:57:10.514Z</time></trkpt><trkpt lat="42.3628333" lon="14.1174433"><ele>29.0</ele><time>2026-05-01T14:57:11.51Z</time></trkpt><trkpt lat="42.363015" lon="14.11747"><ele>29.0</ele><time>2026-05-01T14:57:12.513Z</time></trkpt><trkpt lat="42.3631967" lon="14.1174783"><ele>29.0</ele><time>2026-05-01T14:57:13.514Z</time></trkpt><trkpt lat="42.3633783" lon="14.1174783"><ele>29.666666666666664</ele><time>2026-05-01T14:57:14.511Z</time></trkpt><trkpt lat="42.3635633" lon="14.117485"><ele>30.333333333333336</ele><time>2026-05-01T14:57:15.515Z</time></trkpt><trkpt lat="42.3637517" lon="14.1174917"><ele>31.0</ele><time>2026-05-01T14:57:16.513Z</time></trkpt><trkpt lat="42.3639383" lon="14.1175017"><ele>31.666666666666668</ele><time>2026-05-01T14:57:17.515Z</time></trkpt><trkpt lat="42.3641283" lon="14.11752"><ele>32.333333333333336</ele><time>2026-05-01T14:57:18.516Z</time></trkpt><trkpt lat="42.3643167" lon="14.1175633"><ele>33.0</ele><time>2026-05-01T14:57:19.51Z</time></trkpt><trkpt lat="42.3644983" lon="14.1176367"><ele>33.0</ele><time>2026-05-01T14:57:20.513Z</time></trkpt><trkpt lat="42.3646783" lon="14.117725"><ele>33.0</ele><time>2026-05-01T14:57:21.514Z</time></trkpt><trkpt lat="42.3648533" lon="14.1178333"><ele>33.0</ele><time>2026-05-01T14:57:22.51Z</time></trkpt><trkpt lat="42.3650267" lon="14.1179467"><ele>32.666666666666664</ele><time>2026-05-01T14:57:23.51Z</time></trkpt><trkpt lat="42.3651983" lon="14.1180617"><ele>32.33333333333333</ele><time>2026-05-01T14:57:24.512Z</time></trkpt><trkpt lat="42.3653683" lon="14.1181733"><ele>32.0</ele><time>2026-05-01T14:57:25.51Z</time></trkpt><trkpt lat="42.36554" lon="14.118275"><ele>30.666666666666664</ele><time>2026-05-01T14:57:26.513Z</time></trkpt><trkpt lat="42.36571" lon="14.118385"><ele>29.333333333333336</ele><time>2026-05-01T14:57:27.511Z</time></trkpt><trkpt lat="42.36588" lon="14.118495"><ele>28.0</ele><time>2026-05-01T14:57:28.514Z</time></trkpt><trkpt lat="42.3660483" lon="14.11861"><ele>28.0</ele><time>2026-05-01T14:57:29.512Z</time></trkpt><trkpt lat="42.3662183" lon="14.118725"><ele>28.0</ele><time>2026-05-01T14:57:30.51Z</time></trkpt><trkpt lat="42.3663867" lon="14.11884"><ele>28.0</ele><time>2026-05-01T14:57:31.51Z</time></trkpt><trkpt lat="42.3665533" lon="14.11896"><ele>27.666666666666668</ele><time>2026-05-01T14:57:32.511Z</time></trkpt><trkpt lat="42.3667233" lon="14.119075"><ele>27.333333333333336</ele><time>2026-05-01T14:57:33.511Z</time></trkpt><trkpt lat="42.36689" lon="14.1191967"><ele>27.0</ele><time>2026-05-01T14:57:34.511Z</time></trkpt><trkpt lat="42.3670533" lon="14.1193233"><ele>27.333333333333336</ele><time>2026-05-01T14:57:35.51Z</time></trkpt><trkpt lat="42.36722" lon="14.1194383"><ele>27.666666666666668</ele><time>2026-05-01T14:57:36.515Z</time></trkpt><trkpt lat="42.3673867" lon="14.119555"><ele>28.0</ele><time>2026-05-01T14:57:37.511Z</time></trkpt><trkpt lat="42.3675517" lon="14.1196717"><ele>28.0</ele><time>2026-05-01T14:57:38.512Z</time></trkpt><trkpt lat="42.3677183" lon="14.1197867"><ele>28.0</ele><time>2026-05-01T14:57:39.51Z</time></trkpt><trkpt lat="42.3678867" lon="14.1199"><ele>28.0</ele><time>2026-05-01T14:57:40.51Z</time></trkpt><trkpt lat="42.3680533" lon="14.1200167"><ele>28.333333333333336</ele><time>2026-05-01T14:57:41.511Z</time></trkpt><trkpt lat="42.3682233" lon="14.12012"><ele>28.666666666666664</ele><time>2026-05-01T14:57:42.514Z</time></trkpt><trkpt lat="42.3684033" lon="14.1201917"><ele>29.0</ele><time>2026-05-01T14:57:43.514Z</time></trkpt><trkpt lat="42.3685883" lon="14.1202417"><ele>29.0</ele><time>2026-05-01T14:57:44.514Z</time></trkpt><trkpt lat="42.3687783" lon="14.120275"><ele>29.0</ele><time>2026-05-01T14:57:45.515Z</time></trkpt><trkpt lat="42.3689667" lon="14.1203"><ele>29.0</ele><time>2026-05-01T14:57:46.513Z</time></trkpt><trkpt lat="42.3691533" lon="14.1203233"><ele>31.666666666666664</ele><time>2026-05-01T14:57:47.513Z</time></trkpt><trkpt lat="42.3693417" lon="14.120345"><ele>34.333333333333336</ele><time>2026-05-01T14:57:48.514Z</time></trkpt><trkpt lat="42.3695317" lon="14.1203717"><ele>37.0</ele><time>2026-05-01T14:57:49.511Z</time></trkpt><trkpt lat="42.3697233" lon="14.1203967"><ele>37.0</ele><time>2026-05-01T14:57:50.51Z</time></trkpt><trkpt lat="42.3699133" lon="14.12042"><ele>37.0</ele><time>2026-05-01T14:57:51.512Z</time></trkpt><trkpt lat="42.3701017" lon="14.1204417"><ele>37.0</ele><time>2026-05-01T14:57:52.511Z</time></trkpt><trkpt lat="42.37029" lon="14.120465"><ele>37.0</ele><time>2026-05-01T14:57:53.513Z</time></trkpt><trkpt lat="42.3704783" lon="14.1204967"><ele>37.0</ele><time>2026-05-01T14:57:54.511Z</time></trkpt><trkpt lat="42.370665" lon="14.1205333"><ele>37.0</ele><time>2026-05-01T14:57:55.511Z</time></trkpt><trkpt lat="42.3708483" lon="14.1205733"><ele>37.333333333333336</ele><time>2026-05-01T14:57:56.51Z</time></trkpt><trkpt lat="42.3710267" lon="14.1206333"><ele>37.666666666666664</ele><time>2026-05-01T14:57:57.514Z</time></trkpt><trkpt lat="42.3712017" lon="14.120715"><ele>38.0</ele><time>2026-05-01T14:57:58.513Z</time></trkpt><trkpt lat="42.3713733" lon="14.1207817"><ele>36.33333333333333</ele><time>2026-05-01T14:57:59.515Z</time></trkpt><trkpt lat="42.371545" lon="14.1208517"><ele>34.666666666666664</ele><time>2026-05-01T14:58:00.511Z</time></trkpt><trkpt lat="42.37171" lon="14.120925"><ele>33.0</ele><time>2026-05-01T14:58:01.509Z</time></trkpt><trkpt lat="42.37186" lon="14.1209983"><ele>33.0</ele><time>2026-05-01T14:58:02.509Z</time></trkpt><trkpt lat="42.3719967" lon="14.1210733"><ele>33.0</ele><time>2026-05-01T14:58:03.51Z</time></trkpt><trkpt lat="42.3721233" lon="14.1211517"><ele>33.0</ele><time>2026-05-01T14:58:04.51Z</time></trkpt><trkpt lat="42.3722483" lon="14.121235"><ele>33.0</ele><time>2026-05-01T14:58:05.509Z</time></trkpt><trkpt lat="42.3723717" lon="14.1213233"><ele>33.333333333333336</ele><time>2026-05-01T14:58:06.508Z</time></trkpt><trkpt lat="42.3724967" lon="14.1214267"><ele>33.66666666666667</ele><time>2026-05-01T14:58:07.508Z</time></trkpt><trkpt lat="42.37263" lon="14.1215267"><ele>34.0</ele><time>2026-05-01T14:58:08.509Z</time></trkpt><trkpt lat="42.3727617" lon="14.12163"><ele>34.0</ele><time>2026-05-01T14:58:09.512Z</time></trkpt><trkpt lat="42.37289" lon="14.121735"><ele>34.0</ele><time>2026-05-01T14:58:10.512Z</time></trkpt><trkpt lat="42.3730133" lon="14.1218333"><ele>34.0</ele><time>2026-05-01T14:58:11.509Z</time></trkpt><trkpt lat="42.37313" lon="14.1219233"><ele>34.0</ele><time>2026-05-01T14:58:12.511Z</time></trkpt><trkpt lat="42.3732417" lon="14.1220083"><ele>35.4</ele><time>2026-05-01T14:58:13.51Z</time></trkpt><trkpt lat="42.373345" lon="14.12209"><ele>36.8</ele><time>2026-05-01T14:58:14.514Z</time></trkpt><trkpt lat="42.373445" lon="14.1221667"><ele>38.199999999999996</ele><time>2026-05-01T14:58:15.51Z</time></trkpt><trkpt lat="42.3735367" lon="14.122245"><ele>39.599999999999994</ele><time>2026-05-01T14:58:16.509Z</time></trkpt><trkpt lat="42.3736233" lon="14.1223183"><ele>41.0</ele><time>2026-05-01T14:58:17.511Z</time></trkpt><trkpt lat="42.373705" lon="14.1223817"><ele>41.0</ele><time>2026-05-01T14:58:18.51Z</time></trkpt><trkpt lat="42.37378" lon="14.1224417"><ele>41.0</ele><time>2026-05-01T14:58:19.513Z</time></trkpt><trkpt lat="42.3738517" lon="14.1224933"><ele>41.0</ele><time>2026-05-01T14:58:20.513Z</time></trkpt><trkpt lat="42.373915" lon="14.1225417"><ele>41.0</ele><time>2026-05-01T14:58:21.511Z</time></trkpt><trkpt lat="42.3739717" lon="14.12258"><ele>41.0</ele><time>2026-05-01T14:58:22.512Z</time></trkpt><trkpt lat="42.3740517" lon="14.1226383"><ele>41.0</ele><time>2026-05-01T14:58:24.511Z</time></trkpt><trkpt lat="42.3741167" lon="14.12271"><ele>41.0</ele><time>2026-05-01T14:59:12.511Z</time></trkpt><trkpt lat="42.3741967" lon="14.1227667"><ele>41.0</ele><time>2026-05-01T14:59:13.511Z</time></trkpt><trkpt lat="42.3743033" lon="14.122855"><ele>41.0</ele><time>2026-05-01T14:59:14.512Z</time></trkpt><trkpt lat="42.3744533" lon="14.122975"><ele>41.0</ele><time>2026-05-01T14:59:15.512Z</time></trkpt><trkpt lat="42.3746483" lon="14.1231317"><ele>40.0</ele><time>2026-05-01T14:59:16.515Z</time></trkpt><trkpt lat="42.3748733" lon="14.123325"><ele>39.0</ele><time>2026-05-01T14:59:17.514Z</time></trkpt><trkpt lat="42.3750817" lon="14.1235"><ele>39.0</ele><time>2026-05-01T14:59:18.511Z</time></trkpt><trkpt lat="42.3752733" lon="14.1236567"><ele>39.0</ele><time>2026-05-01T14:59:19.512Z</time></trkpt><trkpt lat="42.37544" lon="14.1237933"><ele>39.0</ele><time>2026-05-01T14:59:20.512Z</time></trkpt><trkpt lat="42.37559" lon="14.1239"><ele>38.75</ele><time>2026-05-01T14:59:21.516Z</time></trkpt><trkpt lat="42.3757367" lon="14.123985"><ele>38.5</ele><time>2026-05-01T14:59:22.512Z</time></trkpt><trkpt lat="42.3758717" lon="14.124045"><ele>38.25</ele><time>2026-05-01T14:59:23.514Z</time></trkpt><trkpt lat="42.3759983" lon="14.1240867"><ele>38.0</ele><time>2026-05-01T14:59:24.509Z</time></trkpt><trkpt lat="42.3761067" lon="14.12412"><ele>38.0</ele><time>2026-05-01T14:59:25.51Z</time></trkpt><trkpt lat="42.376185" lon="14.1241517"><ele>38.0</ele><time>2026-05-01T14:59:26.51Z</time></trkpt><trkpt lat="42.3762433" lon="14.124195"><ele>38.0</ele><time>2026-05-01T14:59:27.513Z</time></trkpt><trkpt lat="42.3763167" lon="14.124305"><ele>38.0</ele><time>2026-05-01T14:59:29.513Z</time></trkpt><trkpt lat="42.3763667" lon="14.1244233"><ele>38.0</ele><time>2026-05-01T14:59:31.511Z</time></trkpt><trkpt lat="42.3764233" lon="14.1245333"><ele>37.8</ele><time>2026-05-01T14:59:33.511Z</time></trkpt><trkpt lat="42.3765067" lon="14.12458"><ele>37.599999999999994</ele><time>2026-05-01T14:59:35.512Z</time></trkpt><trkpt lat="42.3765933" lon="14.124525"><ele>37.400000000000006</ele><time>2026-05-01T14:59:37.512Z</time></trkpt><trkpt lat="42.37667" lon="14.1243783"><ele>37.2</ele><time>2026-05-01T14:59:39.511Z</time></trkpt><trkpt lat="42.37673" lon="14.12427"><ele>37.0</ele><time>2026-05-01T14:59:40.51Z</time></trkpt><trkpt lat="42.3768217" lon="14.1241383"><ele>38.75</ele><time>2026-05-01T14:59:41.512Z</time></trkpt><trkpt lat="42.3769167" lon="14.1239983"><ele>40.5</ele><time>2026-05-01T14:59:42.513Z</time></trkpt><trkpt lat="42.3769983" lon="14.1238617"><ele>42.25</ele><time>2026-05-01T14:59:43.512Z</time></trkpt><trkpt lat="42.37707" lon="14.1237317"><ele>44.0</ele><time>2026-05-01T14:59:44.51Z</time></trkpt><trkpt lat="42.3771383" lon="14.1236267"><ele>44.400000000000006</ele><time>2026-05-01T14:59:45.511Z</time></trkpt><trkpt lat="42.377215" lon="14.123545"><ele>44.8</ele><time>2026-05-01T14:59:46.51Z</time></trkpt><trkpt lat="42.3773067" lon="14.1234833"><ele>45.2</ele><time>2026-05-01T14:59:47.512Z</time></trkpt><trkpt lat="42.3774133" lon="14.1234517"><ele>45.599999999999994</ele><time>2026-05-01T14:59:48.513Z</time></trkpt><trkpt lat="42.37753" lon="14.1234483"><ele>46.0</ele><time>2026-05-01T14:59:49.511Z</time></trkpt><trkpt lat="42.3776483" lon="14.1234667"><ele>46.0</ele><time>2026-05-01T14:59:50.511Z</time></trkpt><trkpt lat="42.3777717" lon="14.1234917"><ele>46.0</ele><time>2026-05-01T14:59:51.51Z</time></trkpt><trkpt lat="42.3778983" lon="14.12351"><ele>46.0</ele><time>2026-05-01T14:59:52.51Z</time></trkpt><trkpt lat="42.37803" lon="14.1235217"><ele>46.0</ele><time>2026-05-01T14:59:53.513Z</time></trkpt><trkpt lat="42.3781633" lon="14.12354"><ele>48.25</ele><time>2026-05-01T14:59:54.509Z</time></trkpt><trkpt lat="42.378295" lon="14.12356"><ele>50.5</ele><time>2026-05-01T14:59:55.509Z</time></trkpt><trkpt lat="42.3784267" lon="14.1235833"><ele>52.75</ele><time>2026-05-01T14:59:56.511Z</time></trkpt><trkpt lat="42.3785617" lon="14.12361"><ele>55.0</ele><time>2026-05-01T14:59:57.511Z</time></trkpt><trkpt lat="42.3786933" lon="14.1236317"><ele>55.0</ele><time>2026-05-01T14:59:58.511Z</time></trkpt><trkpt lat="42.3788233" lon="14.123645"><ele>55.0</ele><time>2026-05-01T14:59:59.513Z</time></trkpt><trkpt lat="42.3789483" lon="14.123665"><ele>55.0</ele><time>2026-05-01T15:00:00.51Z</time></trkpt><trkpt lat="42.379065" lon="14.1236867"><ele>55.0</ele><time>2026-05-01T15:00:01.511Z</time></trkpt><trkpt lat="42.3791717" lon="14.1237067"><ele>55.666666666666664</ele><time>2026-05-01T15:00:02.511Z</time></trkpt><trkpt lat="42.37927" lon="14.123735"><ele>56.33333333333333</ele><time>2026-05-01T15:00:03.511Z</time></trkpt><trkpt lat="42.3793583" lon="14.1237767"><ele>57.0</ele><time>2026-05-01T15:00:04.512Z</time></trkpt><trkpt lat="42.3794417" lon="14.1238333"><ele>57.66666666666667</ele><time>2026-05-01T15:00:05.512Z</time></trkpt><trkpt lat="42.37951" lon="14.1238983"><ele>58.333333333333336</ele><time>2026-05-01T15:00:06.511Z</time></trkpt><trkpt lat="42.3795567" lon="14.123965"><ele>59.0</ele><time>2026-05-01T15:00:07.513Z</time></trkpt><trkpt lat="42.37961" lon="14.1240733"><ele>57.6</ele><time>2026-05-01T15:00:09.514Z</time></trkpt><trkpt lat="42.3797033" lon="14.1241433"><ele>56.2</ele><time>2026-05-01T15:00:11.51Z</time></trkpt><trkpt lat="42.3797617" lon="14.124205"><ele>54.800000000000004</ele><time>2026-05-01T15:00:12.51Z</time></trkpt><trkpt lat="42.3798383" lon="14.1242667"><ele>53.400000000000006</ele><time>2026-05-01T15:00:13.51Z</time></trkpt><trkpt lat="42.3799283" lon="14.1243383"><ele>52.0</ele><time>2026-05-01T15:00:14.51Z</time></trkpt><trkpt lat="42.3800267" lon="14.12441"><ele>52.0</ele><time>2026-05-01T15:00:15.509Z</time></trkpt><trkpt lat="42.380135" lon="14.12448"><ele>52.0</ele><time>2026-05-01T15:00:16.51Z</time></trkpt><trkpt lat="42.3802483" lon="14.1245583"><ele>52.0</ele><time>2026-05-01T15:00:17.511Z</time></trkpt><trkpt lat="42.3803633" lon="14.1246383"><ele>52.0</ele><time>2026-05-01T15:00:18.511Z</time></trkpt><trkpt lat="42.38048" lon="14.12473"><ele>51.0</ele><time>2026-05-01T15:00:19.512Z</time></trkpt><trkpt lat="42.3806033" lon="14.1248217"><ele>50.0</ele><time>2026-05-01T15:00:20.51Z</time></trkpt><trkpt lat="42.380735" lon="14.124915"><ele>49.0</ele><time>2026-05-01T15:00:21.512Z</time></trkpt><trkpt lat="42.3808667" lon="14.1250133"><ele>48.0</ele><time>2026-05-01T15:00:22.51Z</time></trkpt><trkpt lat="42.3809967" lon="14.1251117"><ele>48.0</ele><time>2026-05-01T15:00:23.511Z</time></trkpt><trkpt lat="42.381125" lon="14.1252017"><ele>48.0</ele><time>2026-05-01T15:00:24.511Z</time></trkpt><trkpt lat="42.381255" lon="14.1252883"><ele>48.0</ele><time>2026-05-01T15:00:25.509Z</time></trkpt><trkpt lat="42.3813883" lon="14.1253783"><ele>48.0</ele><time>2026-05-01T15:00:26.513Z</time></trkpt><trkpt lat="42.3815217" lon="14.125475"><ele>46.666666666666664</ele><time>2026-05-01T15:00:27.509Z</time></trkpt><trkpt lat="42.381655" lon="14.1255717"><ele>45.33333333333333</ele><time>2026-05-01T15:00:28.511Z</time></trkpt><trkpt lat="42.381785" lon="14.1256733"><ele>44.0</ele><time>2026-05-01T15:00:29.512Z</time></trkpt><trkpt lat="42.381915" lon="14.1257783"><ele>44.0</ele><time>2026-05-01T15:00:30.514Z</time></trkpt><trkpt lat="42.382045" lon="14.1258983"><ele>44.0</ele><time>2026-05-01T15:00:31.513Z</time></trkpt><trkpt lat="42.3821767" lon="14.1260117"><ele>44.0</ele><time>2026-05-01T15:00:32.513Z</time></trkpt><trkpt lat="42.3823033" lon="14.1261267"><ele>47.0</ele><time>2026-05-01T15:00:33.514Z</time></trkpt><trkpt lat="42.3824317" lon="14.1262333"><ele>50.0</ele><time>2026-05-01T15:00:34.512Z</time></trkpt><trkpt lat="42.3825717" lon="14.1263167"><ele>53.0</ele><time>2026-05-01T15:00:35.514Z</time></trkpt><trkpt lat="42.3827233" lon="14.1263717"><ele>53.0</ele><time>2026-05-01T15:00:36.512Z</time></trkpt><trkpt lat="42.3828817" lon="14.1264117"><ele>53.0</ele><time>2026-05-01T15:00:37.512Z</time></trkpt><trkpt lat="42.3830317" lon="14.1264333"><ele>53.0</ele><time>2026-05-01T15:00:38.513Z</time></trkpt><trkpt lat="42.3831717" lon="14.126435"><ele>53.0</ele><time>2026-05-01T15:00:39.513Z</time></trkpt><trkpt lat="42.3833" lon="14.1264433"><ele>53.0</ele><time>2026-05-01T15:00:40.512Z</time></trkpt><trkpt lat="42.38342" lon="14.126465"><ele>53.0</ele><time>2026-05-01T15:00:41.513Z</time></trkpt><trkpt lat="42.3835433" lon="14.1265117"><ele>53.0</ele><time>2026-05-01T15:00:42.512Z</time></trkpt><trkpt lat="42.3836667" lon="14.1265817"><ele>50.25</ele><time>2026-05-01T15:00:43.513Z</time></trkpt><trkpt lat="42.3837983" lon="14.1266683"><ele>47.5</ele><time>2026-05-01T15:00:44.51Z</time></trkpt><trkpt lat="42.3839317" lon="14.1267483"><ele>44.75</ele><time>2026-05-01T15:00:45.512Z</time></trkpt><trkpt lat="42.38407" lon="14.1268167"><ele>42.0</ele><time>2026-05-01T15:00:46.512Z</time></trkpt><trkpt lat="42.3842083" lon="14.1268817"><ele>42.0</ele><time>2026-05-01T15:00:47.515Z</time></trkpt><trkpt lat="42.3843467" lon="14.1269383"><ele>42.0</ele><time>2026-05-01T15:00:48.51Z</time></trkpt><trkpt lat="42.3844783" lon="14.1269917"><ele>42.0</ele><time>2026-05-01T15:00:49.51Z</time></trkpt><trkpt lat="42.3846033" lon="14.12704"><ele>42.0</ele><time>2026-05-01T15:00:50.513Z</time></trkpt><trkpt lat="42.384725" lon="14.1270767"><ele>42.75</ele><time>2026-05-01T15:00:51.511Z</time></trkpt><trkpt lat="42.3848433" lon="14.127125"><ele>43.5</ele><time>2026-05-01T15:00:52.512Z</time></trkpt><trkpt lat="42.38496" lon="14.127195"><ele>44.25</ele><time>2026-05-01T15:00:53.513Z</time></trkpt><trkpt lat="42.3850733" lon="14.1272817"><ele>45.0</ele><time>2026-05-01T15:00:54.513Z</time></trkpt><trkpt lat="42.3851867" lon="14.127385"><ele>42.75</ele><time>2026-05-01T15:00:55.512Z</time></trkpt><trkpt lat="42.3852983" lon="14.1275"><ele>40.5</ele><time>2026-05-01T15:00:56.511Z</time></trkpt><trkpt lat="42.38541" lon="14.127625"><ele>38.25</ele><time>2026-05-01T15:00:57.512Z</time></trkpt><trkpt lat="42.3855267" lon="14.1277533"><ele>36.0</ele><time>2026-05-01T15:00:58.512Z</time></trkpt><trkpt lat="42.38565" lon="14.1278767"><ele>36.0</ele><time>2026-05-01T15:00:59.511Z</time></trkpt><trkpt lat="42.38578" lon="14.1279933"><ele>36.0</ele><time>2026-05-01T15:01:00.511Z</time></trkpt><trkpt lat="42.3859117" lon="14.1281117"><ele>36.0</ele><time>2026-05-01T15:01:01.515Z</time></trkpt><trkpt lat="42.3860367" lon="14.128225"><ele>35.666666666666664</ele><time>2026-05-01T15:01:02.514Z</time></trkpt><trkpt lat="42.3861583" lon="14.1283517"><ele>35.33333333333333</ele><time>2026-05-01T15:01:03.512Z</time></trkpt><trkpt lat="42.3862733" lon="14.128495"><ele>35.0</ele><time>2026-05-01T15:01:04.514Z</time></trkpt><trkpt lat="42.3863783" lon="14.128655"><ele>35.5</ele><time>2026-05-01T15:01:05.513Z</time></trkpt><trkpt lat="42.38647" lon="14.1288167"><ele>36.0</ele><time>2026-05-01T15:01:06.518Z</time></trkpt><trkpt lat="42.38656" lon="14.1289683"><ele>36.5</ele><time>2026-05-01T15:01:07.512Z</time></trkpt><trkpt lat="42.3866433" lon="14.1291083"><ele>37.0</ele><time>2026-05-01T15:01:08.511Z</time></trkpt><trkpt lat="42.3867233" lon="14.1292367"><ele>36.0</ele><time>2026-05-01T15:01:09.51Z</time></trkpt><trkpt lat="42.386805" lon="14.1293533"><ele>35.0</ele><time>2026-05-01T15:01:10.511Z</time></trkpt><trkpt lat="42.3868933" lon="14.1294617"><ele>34.0</ele><time>2026-05-01T15:01:11.514Z</time></trkpt><trkpt lat="42.3869917" lon="14.1295633"><ele>33.0</ele><time>2026-05-01T15:01:12.51Z</time></trkpt><trkpt lat="42.3870933" lon="14.1296617"><ele>32.75</ele><time>2026-05-01T15:01:13.515Z</time></trkpt><trkpt lat="42.3871967" lon="14.1297617"><ele>32.5</ele><time>2026-05-01T15:01:14.513Z</time></trkpt><trkpt lat="42.3873" lon="14.129855"><ele>32.25</ele><time>2026-05-01T15:01:15.513Z</time></trkpt><trkpt lat="42.3873983" lon="14.1299433"><ele>32.0</ele><time>2026-05-01T15:01:16.511Z</time></trkpt><trkpt lat="42.38749" lon="14.1300233"><ele>32.0</ele><time>2026-05-01T15:01:17.511Z</time></trkpt><trkpt lat="42.3875783" lon="14.1301017"><ele>32.0</ele><time>2026-05-01T15:01:18.512Z</time></trkpt><trkpt lat="42.38766" lon="14.1301783"><ele>32.0</ele><time>2026-05-01T15:01:19.51Z</time></trkpt><trkpt lat="42.3877367" lon="14.13025"><ele>32.0</ele><time>2026-05-01T15:01:20.512Z</time></trkpt><trkpt lat="42.3878067" lon="14.1303217"><ele>32.0</ele><time>2026-05-01T15:01:21.513Z</time></trkpt><trkpt lat="42.387865" lon="14.1303833"><ele>31.999999999999996</ele><time>2026-05-01T15:01:22.511Z</time></trkpt><trkpt lat="42.3879567" lon="14.13045"><ele>32.0</ele><time>2026-05-01T15:01:24.511Z</time></trkpt><trkpt lat="42.3880333" lon="14.1305033"><ele>32.0</ele><time>2026-05-01T15:01:33.511Z</time></trkpt><trkpt lat="42.38813" lon="14.1305267"><ele>32.0</ele><time>2026-05-01T15:01:39.512Z</time></trkpt><trkpt lat="42.3882033" lon="14.1305567"><ele>31.999999999999996</ele><time>2026-05-01T15:01:40.512Z</time></trkpt><trkpt lat="42.3882833" lon="14.1305883"><ele>32.0</ele><time>2026-05-01T15:01:41.51Z</time></trkpt><trkpt lat="42.388365" lon="14.130635"><ele>31.999999999999996</ele><time>2026-05-01T15:01:42.512Z</time></trkpt><trkpt lat="42.3884467" lon="14.1306833"><ele>32.0</ele><time>2026-05-01T15:01:43.512Z</time></trkpt><trkpt lat="42.3885233" lon="14.13073"><ele>32.0</ele><time>2026-05-01T15:01:44.51Z</time></trkpt><trkpt lat="42.3885983" lon="14.1307817"><ele>32.0</ele><time>2026-05-01T15:01:45.51Z</time></trkpt><trkpt lat="42.38868" lon="14.1308417"><ele>31.999999999999996</ele><time>2026-05-01T15:01:46.512Z</time></trkpt><trkpt lat="42.388765" lon="14.1308983"><ele>32.0</ele><time>2026-05-01T15:01:47.514Z</time></trkpt><trkpt lat="42.3888467" lon="14.1309483"><ele>32.166666666666664</ele><time>2026-05-01T15:01:48.511Z</time></trkpt><trkpt lat="42.38892" lon="14.1310017"><ele>32.33333333333333</ele><time>2026-05-01T15:01:49.509Z</time></trkpt><trkpt lat="42.3889883" lon="14.13105"><ele>32.5</ele><time>2026-05-01T15:01:50.509Z</time></trkpt><trkpt lat="42.38906" lon="14.1310933"><ele>32.666666666666664</ele><time>2026-05-01T15:01:51.509Z</time></trkpt><trkpt lat="42.3891333" lon="14.1311467"><ele>32.833333333333336</ele><time>2026-05-01T15:01:52.515Z</time></trkpt><trkpt lat="42.3892117" lon="14.1312067"><ele>33.0</ele><time>2026-05-01T15:01:53.509Z</time></trkpt><trkpt lat="42.3892967" lon="14.1312733"><ele>33.0</ele><time>2026-05-01T15:01:54.509Z</time></trkpt><trkpt lat="42.3893883" lon="14.1313433"><ele>33.0</ele><time>2026-05-01T15:01:55.509Z</time></trkpt><trkpt lat="42.3894883" lon="14.1314233"><ele>33.0</ele><time>2026-05-01T15:01:56.517Z</time></trkpt><trkpt lat="42.3895883" lon="14.1315167"><ele>33.0</ele><time>2026-05-01T15:01:57.514Z</time></trkpt><trkpt lat="42.38969" lon="14.1316117"><ele>32.6</ele><time>2026-05-01T15:01:58.51Z</time></trkpt><trkpt lat="42.3897867" lon="14.1317"><ele>32.199999999999996</ele><time>2026-05-01T15:01:59.511Z</time></trkpt><trkpt lat="42.3898767" lon="14.1317817"><ele>31.8</ele><time>2026-05-01T15:02:00.51Z</time></trkpt><trkpt lat="42.389965" lon="14.1318617"><ele>31.4</ele><time>2026-05-01T15:02:01.511Z</time></trkpt><trkpt lat="42.3900533" lon="14.13194"><ele>31.0</ele><time>2026-05-01T15:02:02.518Z</time></trkpt><trkpt lat="42.3901433" lon="14.1320233"><ele>31.0</ele><time>2026-05-01T15:02:03.512Z</time></trkpt><trkpt lat="42.3902383" lon="14.1320983"><ele>31.0</ele><time>2026-05-01T15:02:04.511Z</time></trkpt><trkpt lat="42.3903333" lon="14.1321767"><ele>31.0</ele><time>2026-05-01T15:02:05.511Z</time></trkpt><trkpt lat="42.3904317" lon="14.13226"><ele>31.0</ele><time>2026-05-01T15:02:06.511Z</time></trkpt><trkpt lat="42.3905333" lon="14.13235"><ele>30.75</ele><time>2026-05-01T15:02:07.51Z</time></trkpt><trkpt lat="42.3906367" lon="14.1324433"><ele>30.5</ele><time>2026-05-01T15:02:08.51Z</time></trkpt><trkpt lat="42.3907433" lon="14.1325317"><ele>30.25</ele><time>2026-05-01T15:02:09.513Z</time></trkpt><trkpt lat="42.3908433" lon="14.1326267"><ele>30.0</ele><time>2026-05-01T15:02:10.511Z</time></trkpt><trkpt lat="42.3909433" lon="14.1327183"><ele>30.0</ele><time>2026-05-01T15:02:11.514Z</time></trkpt><trkpt lat="42.3910433" lon="14.1328083"><ele>30.0</ele><time>2026-05-01T15:02:12.511Z</time></trkpt><trkpt lat="42.3911467" lon="14.1328967"><ele>30.0</ele><time>2026-05-01T15:02:13.51Z</time></trkpt><trkpt lat="42.3912467" lon="14.13299"><ele>30.0</ele><time>2026-05-01T15:02:14.509Z</time></trkpt><trkpt lat="42.391345" lon="14.1330817"><ele>30.0</ele><time>2026-05-01T15:02:15.51Z</time></trkpt><trkpt lat="42.3914433" lon="14.1331683"><ele>30.0</ele><time>2026-05-01T15:02:16.512Z</time></trkpt><trkpt lat="42.3915417" lon="14.1332517"><ele>30.0</ele><time>2026-05-01T15:02:17.511Z</time></trkpt><trkpt lat="42.3916367" lon="14.1333333"><ele>30.0</ele><time>2026-05-01T15:02:18.511Z</time></trkpt><trkpt lat="42.3917233" lon="14.133415"><ele>30.0</ele><time>2026-05-01T15:02:19.51Z</time></trkpt><trkpt lat="42.3918017" lon="14.1334917"><ele>30.0</ele><time>2026-05-01T15:02:20.509Z</time></trkpt><trkpt lat="42.39188" lon="14.1335683"><ele>30.0</ele><time>2026-05-01T15:02:21.511Z</time></trkpt><trkpt lat="42.39196" lon="14.133645"><ele>30.0</ele><time>2026-05-01T15:02:22.509Z</time></trkpt><trkpt lat="42.3920433" lon="14.13372"><ele>30.0</ele><time>2026-05-01T15:02:23.515Z</time></trkpt><trkpt lat="42.3921283" lon="14.1337867"><ele>29.8</ele><time>2026-05-01T15:02:24.512Z</time></trkpt><trkpt lat="42.3922117" lon="14.1338583"><ele>29.6</ele><time>2026-05-01T15:02:25.51Z</time></trkpt><trkpt lat="42.3922883" lon="14.1339417"><ele>29.4</ele><time>2026-05-01T15:02:26.513Z</time></trkpt><trkpt lat="42.3923833" lon="14.1340267"><ele>29.2</ele><time>2026-05-01T15:02:27.511Z</time></trkpt><trkpt lat="42.3924683" lon="14.13411"><ele>29.0</ele><time>2026-05-01T15:02:28.514Z</time></trkpt><trkpt lat="42.39255" lon="14.1342"><ele>29.0</ele><time>2026-05-01T15:02:29.511Z</time></trkpt><trkpt lat="42.392635" lon="14.13429"><ele>29.0</ele><time>2026-05-01T15:02:30.51Z</time></trkpt><trkpt lat="42.3927217" lon="14.1343617"><ele>29.0</ele><time>2026-05-01T15:02:31.51Z</time></trkpt><trkpt lat="42.3927983" lon="14.1344633"><ele>29.0</ele><time>2026-05-01T15:02:32.509Z</time></trkpt><trkpt lat="42.3928667" lon="14.1345517"><ele>29.0</ele><time>2026-05-01T15:02:33.51Z</time></trkpt><trkpt lat="42.3930133" lon="14.1346317"><ele>29.2</ele><time>2026-05-01T15:02:34.51Z</time></trkpt><trkpt lat="42.3930917" lon="14.1347"><ele>29.4</ele><time>2026-05-01T15:02:35.512Z</time></trkpt><trkpt lat="42.3931833" lon="14.1347717"><ele>29.6</ele><time>2026-05-01T15:02:36.51Z</time></trkpt><trkpt lat="42.39328" lon="14.1348467"><ele>29.8</ele><time>2026-05-01T15:02:37.511Z</time></trkpt><trkpt lat="42.3933733" lon="14.13493"><ele>30.0</ele><time>2026-05-01T15:02:38.511Z</time></trkpt><trkpt lat="42.3934633" lon="14.13501"><ele>30.0</ele><time>2026-05-01T15:02:39.51Z</time></trkpt><trkpt lat="42.3935567" lon="14.13509"><ele>30.0</ele><time>2026-05-01T15:02:40.509Z</time></trkpt><trkpt lat="42.39365" lon="14.1351733"><ele>30.0</ele><time>2026-05-01T15:02:41.512Z</time></trkpt><trkpt lat="42.393745" lon="14.1352533"><ele>30.0</ele><time>2026-05-01T15:02:42.511Z</time></trkpt><trkpt lat="42.3938383" lon="14.13534"><ele>30.0</ele><time>2026-05-01T15:02:43.513Z</time></trkpt><trkpt lat="42.3939317" lon="14.1354233"><ele>30.0</ele><time>2026-05-01T15:02:44.51Z</time></trkpt><trkpt lat="42.3940283" lon="14.1355083"><ele>30.0</ele><time>2026-05-01T15:02:45.515Z</time></trkpt><trkpt lat="42.3941217" lon="14.13559"><ele>30.0</ele><time>2026-05-01T15:02:46.51Z</time></trkpt><trkpt lat="42.394215" lon="14.135675"><ele>30.0</ele><time>2026-05-01T15:02:47.51Z</time></trkpt><trkpt lat="42.3943133" lon="14.1357533"><ele>29.8</ele><time>2026-05-01T15:02:48.511Z</time></trkpt><trkpt lat="42.3944067" lon="14.1358317"><ele>29.6</ele><time>2026-05-01T15:02:49.51Z</time></trkpt><trkpt lat="42.3944933" lon="14.1359133"><ele>29.4</ele><time>2026-05-01T15:02:50.514Z</time></trkpt><trkpt lat="42.3945767" lon="14.1359933"><ele>29.2</ele><time>2026-05-01T15:02:51.511Z</time></trkpt><trkpt lat="42.3946567" lon="14.1360683"><ele>29.0</ele><time>2026-05-01T15:02:52.512Z</time></trkpt><trkpt lat="42.3947417" lon="14.1361417"><ele>29.0</ele><time>2026-05-01T15:02:53.512Z</time></trkpt><trkpt lat="42.39483" lon="14.13621"><ele>29.0</ele><time>2026-05-01T15:02:54.509Z</time></trkpt><trkpt lat="42.3949167" lon="14.1362817"><ele>29.0</ele><time>2026-05-01T15:02:55.512Z</time></trkpt><trkpt lat="42.395005" lon="14.13636"><ele>29.0</ele><time>2026-05-01T15:02:56.512Z</time></trkpt><trkpt lat="42.3950917" lon="14.13644"><ele>29.0</ele><time>2026-05-01T15:02:57.516Z</time></trkpt><trkpt lat="42.3951733" lon="14.1365183"><ele>28.4</ele><time>2026-05-01T15:02:58.51Z</time></trkpt><trkpt lat="42.3952567" lon="14.1365917"><ele>27.799999999999997</ele><time>2026-05-01T15:02:59.51Z</time></trkpt><trkpt lat="42.39534" lon="14.1366667"><ele>27.200000000000003</ele><time>2026-05-01T15:03:00.513Z</time></trkpt><trkpt lat="42.3954217" lon="14.1367417"><ele>26.6</ele><time>2026-05-01T15:03:01.512Z</time></trkpt><trkpt lat="42.395505" lon="14.1368133"><ele>26.0</ele><time>2026-05-01T15:03:02.515Z</time></trkpt><trkpt lat="42.39559" lon="14.1368883"><ele>26.0</ele><time>2026-05-01T15:03:03.51Z</time></trkpt><trkpt lat="42.3956733" lon="14.136965"><ele>26.0</ele><time>2026-05-01T15:03:04.511Z</time></trkpt><trkpt lat="42.3957583" lon="14.13704"><ele>26.0</ele><time>2026-05-01T15:03:05.511Z</time></trkpt><trkpt lat="42.39584" lon="14.13712"><ele>26.0</ele><time>2026-05-01T15:03:06.511Z</time></trkpt><trkpt lat="42.3959183" lon="14.1371917"><ele>26.0</ele><time>2026-05-01T15:03:07.513Z</time></trkpt><trkpt lat="42.3959917" lon="14.1372617"><ele>26.0</ele><time>2026-05-01T15:03:08.512Z</time></trkpt><trkpt lat="42.396065" lon="14.1373333"><ele>26.0</ele><time>2026-05-01T15:03:09.511Z</time></trkpt><trkpt lat="42.3961433" lon="14.1374"><ele>26.0</ele><time>2026-05-01T15:03:10.511Z</time></trkpt><trkpt lat="42.3962217" lon="14.1374717"><ele>26.0</ele><time>2026-05-01T15:03:11.511Z</time></trkpt><trkpt lat="42.3963067" lon="14.13753"><ele>26.0</ele><time>2026-05-01T15:03:12.513Z</time></trkpt><trkpt lat="42.396385" lon="14.1375933"><ele>26.200000000000003</ele><time>2026-05-01T15:03:13.511Z</time></trkpt><trkpt lat="42.3964583" lon="14.137665"><ele>26.400000000000002</ele><time>2026-05-01T15:03:14.515Z</time></trkpt><trkpt lat="42.3965317" lon="14.1377383"><ele>26.6</ele><time>2026-05-01T15:03:15.511Z</time></trkpt><trkpt lat="42.396615" lon="14.1378133"><ele>26.8</ele><time>2026-05-01T15:03:16.513Z</time></trkpt><trkpt lat="42.3967183" lon="14.1379017"><ele>27.0</ele><time>2026-05-01T15:03:17.51Z</time></trkpt><trkpt lat="42.3968383" lon="14.1380017"><ele>27.0</ele><time>2026-05-01T15:03:18.511Z</time></trkpt><trkpt lat="42.39696" lon="14.1381033"><ele>27.0</ele><time>2026-05-01T15:03:19.511Z</time></trkpt><trkpt lat="42.397075" lon="14.1381967"><ele>27.0</ele><time>2026-05-01T15:03:20.512Z</time></trkpt><trkpt lat="42.3971867" lon="14.1382917"><ele>27.0</ele><time>2026-05-01T15:03:21.513Z</time></trkpt><trkpt lat="42.3972967" lon="14.1383883"><ele>26.75</ele><time>2026-05-01T15:03:22.512Z</time></trkpt><trkpt lat="42.3974" lon="14.1384833"><ele>26.5</ele><time>2026-05-01T15:03:23.518Z</time></trkpt><trkpt lat="42.397495" lon="14.1385767"><ele>26.25</ele><time>2026-05-01T15:03:24.511Z</time></trkpt><trkpt lat="42.3975833" lon="14.1386617"><ele>26.0</ele><time>2026-05-01T15:03:25.514Z</time></trkpt><trkpt lat="42.3976733" lon="14.1387383"><ele>26.0</ele><time>2026-05-01T15:03:26.511Z</time></trkpt><trkpt lat="42.3977683" lon="14.1388167"><ele>26.0</ele><time>2026-05-01T15:03:27.511Z</time></trkpt><trkpt lat="42.3978733" lon="14.1389"><ele>26.0</ele><time>2026-05-01T15:03:28.511Z</time></trkpt><trkpt lat="42.397995" lon="14.1389983"><ele>26.0</ele><time>2026-05-01T15:03:29.512Z</time></trkpt><trkpt lat="42.3981217" lon="14.1391133"><ele>26.0</ele><time>2026-05-01T15:03:30.512Z</time></trkpt><trkpt lat="42.3982417" lon="14.139235"><ele>26.0</ele><time>2026-05-01T15:03:31.516Z</time></trkpt><trkpt lat="42.3983617" lon="14.1393433"><ele>26.0</ele><time>2026-05-01T15:03:32.512Z</time></trkpt><trkpt lat="42.398485" lon="14.13945"><ele>26.0</ele><time>2026-05-01T15:03:33.511Z</time></trkpt><trkpt lat="42.398615" lon="14.1395533"><ele>26.0</ele><time>2026-05-01T15:03:34.516Z</time></trkpt><trkpt lat="42.3987467" lon="14.1396633"><ele>26.0</ele><time>2026-05-01T15:03:35.513Z</time></trkpt><trkpt lat="42.3988783" lon="14.139785"><ele>26.0</ele><time>2026-05-01T15:03:36.511Z</time></trkpt><trkpt lat="42.3990183" lon="14.1399083"><ele>25.666666666666664</ele><time>2026-05-01T15:03:37.515Z</time></trkpt><trkpt lat="42.3991567" lon="14.140035"><ele>25.333333333333336</ele><time>2026-05-01T15:03:38.512Z</time></trkpt><trkpt lat="42.3993017" lon="14.140165"><ele>25.0</ele><time>2026-05-01T15:03:39.514Z</time></trkpt><trkpt lat="42.3994433" lon="14.140295"><ele>25.0</ele><time>2026-05-01T15:03:40.511Z</time></trkpt><trkpt lat="42.399575" lon="14.140415"><ele>25.0</ele><time>2026-05-01T15:03:41.513Z</time></trkpt><trkpt lat="42.3996983" lon="14.1405267"><ele>25.0</ele><time>2026-05-01T15:03:42.513Z</time></trkpt><trkpt lat="42.3998083" lon="14.1406367"><ele>25.0</ele><time>2026-05-01T15:03:43.51Z</time></trkpt><trkpt lat="42.3999083" lon="14.1407333"><ele>25.25</ele><time>2026-05-01T15:03:44.509Z</time></trkpt><trkpt lat="42.400005" lon="14.1408183"><ele>25.5</ele><time>2026-05-01T15:03:45.51Z</time></trkpt><trkpt lat="42.4001" lon="14.14091"><ele>25.75</ele><time>2026-05-01T15:03:46.511Z</time></trkpt><trkpt lat="42.4001967" lon="14.140995"><ele>26.0</ele><time>2026-05-01T15:03:47.513Z</time></trkpt><trkpt lat="42.40029" lon="14.1410783"><ele>26.0</ele><time>2026-05-01T15:03:48.511Z</time></trkpt><trkpt lat="42.4003767" lon="14.1411633"><ele>26.0</ele><time>2026-05-01T15:03:49.511Z</time></trkpt><trkpt lat="42.4004667" lon="14.1412467"><ele>26.0</ele><time>2026-05-01T15:03:50.513Z</time></trkpt><trkpt lat="42.4005617" lon="14.141335"><ele>26.0</ele><time>2026-05-01T15:03:51.511Z</time></trkpt><trkpt lat="42.4006683" lon="14.141425"><ele>25.75</ele><time>2026-05-01T15:03:52.512Z</time></trkpt><trkpt lat="42.4007883" lon="14.1415217"><ele>25.5</ele><time>2026-05-01T15:03:53.511Z</time></trkpt><trkpt lat="42.400905" lon="14.14163"><ele>25.25</ele><time>2026-05-01T15:03:54.511Z</time></trkpt><trkpt lat="42.4010167" lon="14.1417383"><ele>25.0</ele><time>2026-05-01T15:03:55.511Z</time></trkpt><trkpt lat="42.401125" lon="14.1418333"><ele>25.0</ele><time>2026-05-01T15:03:56.513Z</time></trkpt><trkpt lat="42.4012283" lon="14.14192"><ele>25.0</ele><time>2026-05-01T15:03:57.511Z</time></trkpt><trkpt lat="42.4013283" lon="14.1420017"><ele>25.0</ele><time>2026-05-01T15:03:58.51Z</time></trkpt><trkpt lat="42.40142" lon="14.1420833"><ele>25.0</ele><time>2026-05-01T15:03:59.514Z</time></trkpt><trkpt lat="42.4015033" lon="14.14216"><ele>25.0</ele><time>2026-05-01T15:04:00.516Z</time></trkpt><trkpt lat="42.4015867" lon="14.1422367"><ele>25.0</ele><time>2026-05-01T15:04:01.512Z</time></trkpt><trkpt lat="42.4016683" lon="14.1423183"><ele>25.0</ele><time>2026-05-01T15:04:02.512Z</time></trkpt><trkpt lat="42.4017517" lon="14.1423983"><ele>25.0</ele><time>2026-05-01T15:04:03.511Z</time></trkpt><trkpt lat="42.401835" lon="14.1424783"><ele>25.0</ele><time>2026-05-01T15:04:04.514Z</time></trkpt><trkpt lat="42.4019233" lon="14.1425567"><ele>25.0</ele><time>2026-05-01T15:04:05.514Z</time></trkpt><trkpt lat="42.4020117" lon="14.1426383"><ele>24.75</ele><time>2026-05-01T15:04:06.513Z</time></trkpt><trkpt lat="42.4021067" lon="14.1427233"><ele>24.5</ele><time>2026-05-01T15:04:07.511Z</time></trkpt><trkpt lat="42.40221" lon="14.14281"><ele>24.25</ele><time>2026-05-01T15:04:08.512Z</time></trkpt><trkpt lat="42.4023267" lon="14.1429183"><ele>24.0</ele><time>2026-05-01T15:04:09.51Z</time></trkpt><trkpt lat="42.402465" lon="14.1430383"><ele>24.0</ele><time>2026-05-01T15:04:10.511Z</time></trkpt><trkpt lat="42.4026167" lon="14.1431633"><ele>24.0</ele><time>2026-05-01T15:04:11.51Z</time></trkpt><trkpt lat="42.4027767" lon="14.143295"><ele>24.0</ele><time>2026-05-01T15:04:12.512Z</time></trkpt><trkpt lat="42.40293" lon="14.1434283"><ele>24.0</ele><time>2026-05-01T15:04:13.512Z</time></trkpt><trkpt lat="42.403065" lon="14.1435633"><ele>24.0</ele><time>2026-05-01T15:04:14.516Z</time></trkpt><trkpt lat="42.4031983" lon="14.14369"><ele>24.0</ele><time>2026-05-01T15:04:15.511Z</time></trkpt><trkpt lat="42.4033317" lon="14.14381"><ele>24.0</ele><time>2026-05-01T15:04:16.511Z</time></trkpt><trkpt lat="42.403465" lon="14.1439283"><ele>24.0</ele><time>2026-05-01T15:04:17.513Z</time></trkpt><trkpt lat="42.4035983" lon="14.144045"><ele>24.0</ele><time>2026-05-01T15:04:18.512Z</time></trkpt><trkpt lat="42.4037317" lon="14.1441633"><ele>24.333333333333336</ele><time>2026-05-01T15:04:19.513Z</time></trkpt><trkpt lat="42.4038617" lon="14.1442783"><ele>24.666666666666668</ele><time>2026-05-01T15:04:20.513Z</time></trkpt><trkpt lat="42.40399" lon="14.14439"><ele>25.0</ele><time>2026-05-01T15:04:21.512Z</time></trkpt><trkpt lat="42.4041133" lon="14.1445033"><ele>25.0</ele><time>2026-05-01T15:04:22.514Z</time></trkpt><trkpt lat="42.4042367" lon="14.144615"><ele>25.0</ele><time>2026-05-01T15:04:23.511Z</time></trkpt><trkpt lat="42.4043533" lon="14.1447283"><ele>25.0</ele><time>2026-05-01T15:04:24.513Z</time></trkpt><trkpt lat="42.40447" lon="14.1448367"><ele>25.0</ele><time>2026-05-01T15:04:25.516Z</time></trkpt><trkpt lat="42.4045867" lon="14.14494"><ele>24.5</ele><time>2026-05-01T15:04:26.515Z</time></trkpt><trkpt lat="42.4047033" lon="14.14504"><ele>24.0</ele><time>2026-05-01T15:04:27.513Z</time></trkpt><trkpt lat="42.4048167" lon="14.1451417"><ele>23.5</ele><time>2026-05-01T15:04:28.512Z</time></trkpt><trkpt lat="42.40493" lon="14.145245"><ele>23.0</ele><time>2026-05-01T15:04:29.516Z</time></trkpt><trkpt lat="42.4050417" lon="14.1453467"><ele>23.0</ele><time>2026-05-01T15:04:30.519Z</time></trkpt><trkpt lat="42.4051467" lon="14.1454483"><ele>23.0</ele><time>2026-05-01T15:04:31.511Z</time></trkpt><trkpt lat="42.4052433" lon="14.1455367"><ele>23.0</ele><time>2026-05-01T15:04:32.514Z</time></trkpt><trkpt lat="42.4053233" lon="14.1456117"><ele>23.0</ele><time>2026-05-01T15:04:33.512Z</time></trkpt><trkpt lat="42.405385" lon="14.1456783"><ele>23.0</ele><time>2026-05-01T15:04:34.515Z</time></trkpt><trkpt lat="42.405425" lon="14.1457533"><ele>22.799999999999997</ele><time>2026-05-01T15:04:35.516Z</time></trkpt><trkpt lat="42.40545" lon="14.1459033"><ele>22.6</ele><time>2026-05-01T15:04:37.511Z</time></trkpt><trkpt lat="42.4054783" lon="14.14605"><ele>22.4</ele><time>2026-05-01T15:04:39.511Z</time></trkpt><trkpt lat="42.4055683" lon="14.1461233"><ele>22.200000000000003</ele><time>2026-05-01T15:04:41.512Z</time></trkpt><trkpt lat="42.4056533" lon="14.146095"><ele>22.0</ele><time>2026-05-01T15:04:42.514Z</time></trkpt><trkpt lat="42.405745" lon="14.1460467"><ele>22.0</ele><time>2026-05-01T15:04:43.512Z</time></trkpt><trkpt lat="42.4058267" lon="14.1460683"><ele>22.0</ele><time>2026-05-01T15:04:44.511Z</time></trkpt><trkpt lat="42.40592" lon="14.14613"><ele>22.0</ele><time>2026-05-01T15:04:45.512Z</time></trkpt><trkpt lat="42.40604" lon="14.1462333"><ele>22.0</ele><time>2026-05-01T15:04:46.509Z</time></trkpt><trkpt lat="42.40618" lon="14.1463467"><ele>22.0</ele><time>2026-05-01T15:04:47.514Z</time></trkpt><trkpt lat="42.4063133" lon="14.1464617"><ele>22.0</ele><time>2026-05-01T15:04:48.515Z</time></trkpt><trkpt lat="42.4064383" lon="14.1465717"><ele>22.0</ele><time>2026-05-01T15:04:49.516Z</time></trkpt><trkpt lat="42.4065633" lon="14.1466767"><ele>22.0</ele><time>2026-05-01T15:04:50.515Z</time></trkpt><trkpt lat="42.4066933" lon="14.14677"><ele>22.0</ele><time>2026-05-01T15:04:51.511Z</time></trkpt><trkpt lat="42.4068283" lon="14.1468567"><ele>22.0</ele><time>2026-05-01T15:04:52.51Z</time></trkpt><trkpt lat="42.40697" lon="14.146935"><ele>22.0</ele><time>2026-05-01T15:04:53.516Z</time></trkpt><trkpt lat="42.4071167" lon="14.146995"><ele>22.0</ele><time>2026-05-01T15:04:54.515Z</time></trkpt><trkpt lat="42.4072617" lon="14.14704"><ele>22.0</ele><time>2026-05-01T15:04:55.511Z</time></trkpt><trkpt lat="42.4074067" lon="14.1470783"><ele>21.0</ele><time>2026-05-01T15:04:56.512Z</time></trkpt><trkpt lat="42.4075483" lon="14.14711"><ele>20.0</ele><time>2026-05-01T15:04:57.514Z</time></trkpt><trkpt lat="42.4076917" lon="14.1471383"><ele>19.0</ele><time>2026-05-01T15:04:58.514Z</time></trkpt><trkpt lat="42.4078383" lon="14.1471683"><ele>18.0</ele><time>2026-05-01T15:04:59.514Z</time></trkpt><trkpt lat="42.40799" lon="14.1472033"><ele>17.666666666666668</ele><time>2026-05-01T15:05:00.513Z</time></trkpt><trkpt lat="42.4081433" lon="14.1472467"><ele>17.333333333333336</ele><time>2026-05-01T15:05:01.515Z</time></trkpt><trkpt lat="42.4082983" lon="14.1472983"><ele>17.0</ele><time>2026-05-01T15:05:02.51Z</time></trkpt><trkpt lat="42.408455" lon="14.147365"><ele>17.0</ele><time>2026-05-01T15:05:03.511Z</time></trkpt><trkpt lat="42.40861" lon="14.147445"><ele>17.0</ele><time>2026-05-01T15:05:04.51Z</time></trkpt><trkpt lat="42.4087617" lon="14.14754"><ele>17.0</ele><time>2026-05-01T15:05:05.51Z</time></trkpt><trkpt lat="42.40891" lon="14.14765"><ele>17.0</ele><time>2026-05-01T15:05:06.513Z</time></trkpt><trkpt lat="42.4090567" lon="14.1477617"><ele>17.0</ele><time>2026-05-01T15:05:07.51Z</time></trkpt><trkpt lat="42.4092067" lon="14.1478783"><ele>17.0</ele><time>2026-05-01T15:05:08.51Z</time></trkpt><trkpt lat="42.4093567" lon="14.148"><ele>17.0</ele><time>2026-05-01T15:05:09.51Z</time></trkpt><trkpt lat="42.4095117" lon="14.1481217"><ele>17.0</ele><time>2026-05-01T15:05:10.509Z</time></trkpt><trkpt lat="42.4096683" lon="14.1482467"><ele>17.0</ele><time>2026-05-01T15:05:11.51Z</time></trkpt><trkpt lat="42.4098267" lon="14.14837"><ele>17.666666666666668</ele><time>2026-05-01T15:05:12.512Z</time></trkpt><trkpt lat="42.409985" lon="14.1484917"><ele>18.333333333333332</ele><time>2026-05-01T15:05:13.513Z</time></trkpt><trkpt lat="42.4101433" lon="14.1486133"><ele>19.0</ele><time>2026-05-01T15:05:14.51Z</time></trkpt><trkpt lat="42.410305" lon="14.148735"><ele>19.0</ele><time>2026-05-01T15:05:15.511Z</time></trkpt><trkpt lat="42.4104683" lon="14.1488617"><ele>19.0</ele><time>2026-05-01T15:05:16.511Z</time></trkpt><trkpt lat="42.4106317" lon="14.1489933"><ele>19.0</ele><time>2026-05-01T15:05:17.514Z</time></trkpt><trkpt lat="42.4107983" lon="14.149125"><ele>19.666666666666664</ele><time>2026-05-01T15:05:18.515Z</time></trkpt><trkpt lat="42.410965" lon="14.1492583"><ele>20.333333333333332</ele><time>2026-05-01T15:05:19.51Z</time></trkpt><trkpt lat="42.411135" lon="14.14939"><ele>21.0</ele><time>2026-05-01T15:05:20.516Z</time></trkpt><trkpt lat="42.411305" lon="14.1495217"><ele>21.0</ele><time>2026-05-01T15:05:21.51Z</time></trkpt><trkpt lat="42.4114767" lon="14.14965"><ele>21.0</ele><time>2026-05-01T15:05:22.509Z</time></trkpt><trkpt lat="42.411645" lon="14.14978"><ele>21.0</ele><time>2026-05-01T15:05:23.511Z</time></trkpt><trkpt lat="42.4118117" lon="14.1499133"><ele>20.0</ele><time>2026-05-01T15:05:24.51Z</time></trkpt><trkpt lat="42.4119767" lon="14.150045"><ele>19.0</ele><time>2026-05-01T15:05:25.515Z</time></trkpt><trkpt lat="42.4121433" lon="14.1501783"><ele>18.0</ele><time>2026-05-01T15:05:26.51Z</time></trkpt><trkpt lat="42.4123117" lon="14.15031"><ele>17.0</ele><time>2026-05-01T15:05:27.514Z</time></trkpt><trkpt lat="42.4124783" lon="14.150445"><ele>16.0</ele><time>2026-05-01T15:05:28.509Z</time></trkpt><trkpt lat="42.4126433" lon="14.15058"><ele>15.0</ele><time>2026-05-01T15:05:29.51Z</time></trkpt><trkpt lat="42.4128083" lon="14.1507183"><ele>15.0</ele><time>2026-05-01T15:05:30.513Z</time></trkpt><trkpt lat="42.41297" lon="14.1508633"><ele>15.0</ele><time>2026-05-01T15:05:31.509Z</time></trkpt><trkpt lat="42.4131283" lon="14.151015"><ele>15.0</ele><time>2026-05-01T15:05:32.516Z</time></trkpt><trkpt lat="42.4132767" lon="14.1511667"><ele>15.0</ele><time>2026-05-01T15:05:33.512Z</time></trkpt><trkpt lat="42.41341" lon="14.151305"><ele>15.0</ele><time>2026-05-01T15:05:34.509Z</time></trkpt><trkpt lat="42.41353" lon="14.1514317"><ele>15.0</ele><time>2026-05-01T15:05:35.509Z</time></trkpt><trkpt lat="42.4136467" lon="14.1515417"><ele>15.25</ele><time>2026-05-01T15:05:36.51Z</time></trkpt><trkpt lat="42.413765" lon="14.1516333"><ele>15.5</ele><time>2026-05-01T15:05:37.513Z</time></trkpt><trkpt lat="42.413885" lon="14.1517117"><ele>15.75</ele><time>2026-05-01T15:05:38.509Z</time></trkpt><trkpt lat="42.4140067" lon="14.1517867"><ele>16.0</ele><time>2026-05-01T15:05:39.509Z</time></trkpt><trkpt lat="42.4141333" lon="14.1518533"><ele>16.0</ele><time>2026-05-01T15:05:40.511Z</time></trkpt><trkpt lat="42.414265" lon="14.1519183"><ele>16.0</ele><time>2026-05-01T15:05:41.511Z</time></trkpt><trkpt lat="42.4144017" lon="14.1519717"><ele>16.0</ele><time>2026-05-01T15:05:42.508Z</time></trkpt><trkpt lat="42.414545" lon="14.152005"><ele>16.0</ele><time>2026-05-01T15:05:43.509Z</time></trkpt><trkpt lat="42.4146933" lon="14.1520383"><ele>15.666666666666666</ele><time>2026-05-01T15:05:44.51Z</time></trkpt><trkpt lat="42.414845" lon="14.1520667"><ele>15.333333333333332</ele><time>2026-05-01T15:05:45.511Z</time></trkpt><trkpt lat="42.414995" lon="14.15209"><ele>15.0</ele><time>2026-05-01T15:05:46.509Z</time></trkpt><trkpt lat="42.4151467" lon="14.1520967"><ele>15.0</ele><time>2026-05-01T15:05:47.511Z</time></trkpt><trkpt lat="42.4152967" lon="14.1521"><ele>15.0</ele><time>2026-05-01T15:05:48.514Z</time></trkpt><trkpt lat="42.41545" lon="14.1521183"><ele>15.0</ele><time>2026-05-01T15:05:49.513Z</time></trkpt><trkpt lat="42.4156083" lon="14.1521367"><ele>15.333333333333332</ele><time>2026-05-01T15:05:50.524Z</time></trkpt><trkpt lat="42.41577" lon="14.1521567"><ele>15.666666666666666</ele><time>2026-05-01T15:05:51.51Z</time></trkpt><trkpt lat="42.4159367" lon="14.1521933"><ele>16.0</ele><time>2026-05-01T15:05:52.514Z</time></trkpt><trkpt lat="42.4161" lon="14.1522517"><ele>16.0</ele><time>2026-05-01T15:05:53.511Z</time></trkpt><trkpt lat="42.4162517" lon="14.1523483"><ele>16.0</ele><time>2026-05-01T15:05:54.516Z</time></trkpt><trkpt lat="42.4163933" lon="14.1524733"><ele>16.0</ele><time>2026-05-01T15:05:55.508Z</time></trkpt><trkpt lat="42.4165217" lon="14.1526317"><ele>17.333333333333332</ele><time>2026-05-01T15:05:56.51Z</time></trkpt><trkpt lat="42.4166417" lon="14.1528067"><ele>18.666666666666668</ele><time>2026-05-01T15:05:57.51Z</time></trkpt><trkpt lat="42.41676" lon="14.15298"><ele>20.0</ele><time>2026-05-01T15:05:58.51Z</time></trkpt><trkpt lat="42.4168767" lon="14.1531467"><ele>19.666666666666668</ele><time>2026-05-01T15:05:59.512Z</time></trkpt><trkpt lat="42.4169933" lon="14.1533067"><ele>19.333333333333332</ele><time>2026-05-01T15:06:00.511Z</time></trkpt><trkpt lat="42.4171117" lon="14.1534617"><ele>19.0</ele><time>2026-05-01T15:06:01.511Z</time></trkpt><trkpt lat="42.4172233" lon="14.1536117"><ele>19.0</ele><time>2026-05-01T15:06:02.509Z</time></trkpt><trkpt lat="42.4173317" lon="14.15376"><ele>19.0</ele><time>2026-05-01T15:06:03.51Z</time></trkpt><trkpt lat="42.41744" lon="14.153905"><ele>19.0</ele><time>2026-05-01T15:06:04.509Z</time></trkpt><trkpt lat="42.41755" lon="14.1540483"><ele>19.0</ele><time>2026-05-01T15:06:05.508Z</time></trkpt><trkpt lat="42.4176617" lon="14.1541917"><ele>19.0</ele><time>2026-05-01T15:06:06.509Z</time></trkpt><trkpt lat="42.4177767" lon="14.154335"><ele>19.0</ele><time>2026-05-01T15:06:07.511Z</time></trkpt><trkpt lat="42.4178833" lon="14.1544867"><ele>19.0</ele><time>2026-05-01T15:06:08.513Z</time></trkpt><trkpt lat="42.4179867" lon="14.1546417"><ele>19.0</ele><time>2026-05-01T15:06:09.509Z</time></trkpt><trkpt lat="42.418085" lon="14.154795"><ele>19.0</ele><time>2026-05-01T15:06:10.508Z</time></trkpt><trkpt lat="42.4181933" lon="14.154945"><ele>18.333333333333332</ele><time>2026-05-01T15:06:11.512Z</time></trkpt><trkpt lat="42.418305" lon="14.1550933"><ele>17.666666666666668</ele><time>2026-05-01T15:06:12.509Z</time></trkpt><trkpt lat="42.4184133" lon="14.15524"><ele>17.0</ele><time>2026-05-01T15:06:13.51Z</time></trkpt><trkpt lat="42.4185233" lon="14.1553883"><ele>17.0</ele><time>2026-05-01T15:06:14.509Z</time></trkpt><trkpt lat="42.418635" lon="14.1555383"><ele>17.0</ele><time>2026-05-01T15:06:15.512Z</time></trkpt><trkpt lat="42.418745" lon="14.1556983"><ele>17.0</ele><time>2026-05-01T15:06:16.511Z</time></trkpt><trkpt lat="42.4188517" lon="14.1558533"><ele>19.0</ele><time>2026-05-01T15:06:17.509Z</time></trkpt><trkpt lat="42.41896" lon="14.1560067"><ele>21.0</ele><time>2026-05-01T15:06:18.51Z</time></trkpt><trkpt lat="42.4190717" lon="14.1561517"><ele>23.0</ele><time>2026-05-01T15:06:19.514Z</time></trkpt><trkpt lat="42.4191917" lon="14.156285"><ele>23.0</ele><time>2026-05-01T15:06:20.512Z</time></trkpt><trkpt lat="42.4193283" lon="14.1563817"><ele>23.0</ele><time>2026-05-01T15:06:21.509Z</time></trkpt><trkpt lat="42.41947" lon="14.15646"><ele>23.0</ele><time>2026-05-01T15:06:22.508Z</time></trkpt><trkpt lat="42.4196183" lon="14.1565217"><ele>22.0</ele><time>2026-05-01T15:06:23.509Z</time></trkpt><trkpt lat="42.4197667" lon="14.15658"><ele>21.0</ele><time>2026-05-01T15:06:24.509Z</time></trkpt><trkpt lat="42.4199167" lon="14.1566417"><ele>20.0</ele><time>2026-05-01T15:06:25.509Z</time></trkpt><trkpt lat="42.420065" lon="14.1567083"><ele>20.0</ele><time>2026-05-01T15:06:26.51Z</time></trkpt><trkpt lat="42.4202133" lon="14.15678"><ele>20.0</ele><time>2026-05-01T15:06:27.509Z</time></trkpt><trkpt lat="42.4203617" lon="14.156845"><ele>20.0</ele><time>2026-05-01T15:06:28.514Z</time></trkpt><trkpt lat="42.4205117" lon="14.156925"><ele>20.333333333333336</ele><time>2026-05-01T15:06:29.513Z</time></trkpt><trkpt lat="42.42066" lon="14.1569917"><ele>20.666666666666668</ele><time>2026-05-01T15:06:30.512Z</time></trkpt><trkpt lat="42.4208083" lon="14.1570467"><ele>21.0</ele><time>2026-05-01T15:06:31.508Z</time></trkpt><trkpt lat="42.4209567" lon="14.1570983"><ele>21.0</ele><time>2026-05-01T15:06:32.509Z</time></trkpt><trkpt lat="42.421105" lon="14.1571583"><ele>21.0</ele><time>2026-05-01T15:06:33.509Z</time></trkpt><trkpt lat="42.421255" lon="14.15722"><ele>21.0</ele><time>2026-05-01T15:06:34.509Z</time></trkpt><trkpt lat="42.4214017" lon="14.1572867"><ele>21.5</ele><time>2026-05-01T15:06:35.508Z</time></trkpt><trkpt lat="42.421545" lon="14.157335"><ele>22.0</ele><time>2026-05-01T15:06:36.513Z</time></trkpt><trkpt lat="42.42168" lon="14.1573767"><ele>22.5</ele><time>2026-05-01T15:06:37.509Z</time></trkpt><trkpt lat="42.4218067" lon="14.1574033"><ele>23.0</ele><time>2026-05-01T15:06:38.51Z</time></trkpt><trkpt lat="42.421925" lon="14.1574167"><ele>22.4</ele><time>2026-05-01T15:06:39.512Z</time></trkpt><trkpt lat="42.4220367" lon="14.1574133"><ele>21.799999999999997</ele><time>2026-05-01T15:06:40.51Z</time></trkpt><trkpt lat="42.422145" lon="14.157425"><ele>21.2</ele><time>2026-05-01T15:06:41.509Z</time></trkpt><trkpt lat="42.4222533" lon="14.1574583"><ele>20.6</ele><time>2026-05-01T15:06:42.509Z</time></trkpt><trkpt lat="42.42236" lon="14.1575067"><ele>20.0</ele><time>2026-05-01T15:06:43.508Z</time></trkpt><trkpt lat="42.4224533" lon="14.1575467"><ele>20.0</ele><time>2026-05-01T15:06:44.509Z</time></trkpt><trkpt lat="42.4225267" lon="14.15758"><ele>20.0</ele><time>2026-05-01T15:06:45.51Z</time></trkpt><trkpt lat="42.4225867" lon="14.1576167"><ele>20.0</ele><time>2026-05-01T15:06:46.513Z</time></trkpt><trkpt lat="42.4226817" lon="14.1577017"><ele>20.0</ele><time>2026-05-01T15:06:48.508Z</time></trkpt><trkpt lat="42.4227533" lon="14.1577617"><ele>20.0</ele><time>2026-05-01T15:06:50.511Z</time></trkpt><trkpt lat="42.4228267" lon="14.1577983"><ele>20.0</ele><time>2026-05-01T15:06:53.512Z</time></trkpt><trkpt lat="42.4229" lon="14.1578267"><ele>20.0</ele><time>2026-05-01T15:06:56.512Z</time></trkpt><trkpt lat="42.4229767" lon="14.1578467"><ele>20.0</ele><time>2026-05-01T15:06:58.508Z</time></trkpt><trkpt lat="42.4230683" lon="14.1578833"><ele>20.0</ele><time>2026-05-01T15:07:00.509Z</time></trkpt><trkpt lat="42.4231883" lon="14.1579267"><ele>20.0</ele><time>2026-05-01T15:07:02.509Z</time></trkpt><trkpt lat="42.4232717" lon="14.1579583"><ele>20.0</ele><time>2026-05-01T15:07:03.516Z</time></trkpt><trkpt lat="42.42337" lon="14.1580017"><ele>19.6</ele><time>2026-05-01T15:07:04.511Z</time></trkpt><trkpt lat="42.4234667" lon="14.15805"><ele>19.2</ele><time>2026-05-01T15:07:05.513Z</time></trkpt><trkpt lat="42.4235633" lon="14.1580967"><ele>18.8</ele><time>2026-05-01T15:07:06.509Z</time></trkpt><trkpt lat="42.4236617" lon="14.15814"><ele>18.4</ele><time>2026-05-01T15:07:07.508Z</time></trkpt><trkpt lat="42.4237617" lon="14.1581867"><ele>18.0</ele><time>2026-05-01T15:07:08.509Z</time></trkpt><trkpt lat="42.4238583" lon="14.1582267"><ele>17.8</ele><time>2026-05-01T15:07:09.509Z</time></trkpt><trkpt lat="42.4239517" lon="14.1582733"><ele>17.6</ele><time>2026-05-01T15:07:10.513Z</time></trkpt><trkpt lat="42.4240433" lon="14.1583217"><ele>17.4</ele><time>2026-05-01T15:07:11.509Z</time></trkpt><trkpt lat="42.424135" lon="14.158365"><ele>17.2</ele><time>2026-05-01T15:07:12.512Z</time></trkpt><trkpt lat="42.4242267" lon="14.1584033"><ele>17.0</ele><time>2026-05-01T15:07:13.511Z</time></trkpt><trkpt lat="42.4243183" lon="14.15844"><ele>17.0</ele><time>2026-05-01T15:07:14.509Z</time></trkpt><trkpt lat="42.4244167" lon="14.1584883"><ele>17.0</ele><time>2026-05-01T15:07:15.512Z</time></trkpt><trkpt lat="42.4245167" lon="14.1585317"><ele>17.0</ele><time>2026-05-01T15:07:16.509Z</time></trkpt><trkpt lat="42.4246183" lon="14.1585733"><ele>17.0</ele><time>2026-05-01T15:07:17.51Z</time></trkpt><trkpt lat="42.4247217" lon="14.1586233"><ele>17.0</ele><time>2026-05-01T15:07:18.51Z</time></trkpt><trkpt lat="42.42483" lon="14.1586717"><ele>17.2</ele><time>2026-05-01T15:07:19.51Z</time></trkpt><trkpt lat="42.42494" lon="14.1587217"><ele>17.4</ele><time>2026-05-01T15:07:20.509Z</time></trkpt><trkpt lat="42.4250483" lon="14.1587667"><ele>17.6</ele><time>2026-05-01T15:07:21.509Z</time></trkpt><trkpt lat="42.4251467" lon="14.1588067"><ele>17.8</ele><time>2026-05-01T15:07:22.514Z</time></trkpt><trkpt lat="42.4252383" lon="14.158845"><ele>18.0</ele><time>2026-05-01T15:07:23.509Z</time></trkpt><trkpt lat="42.4253183" lon="14.1588817"><ele>18.0</ele><time>2026-05-01T15:07:24.508Z</time></trkpt><trkpt lat="42.4253967" lon="14.15892"><ele>18.0</ele><time>2026-05-01T15:07:25.513Z</time></trkpt><trkpt lat="42.4254733" lon="14.1589617"><ele>18.0</ele><time>2026-05-01T15:07:26.508Z</time></trkpt><trkpt lat="42.4255517" lon="14.1590017"><ele>18.0</ele><time>2026-05-01T15:07:27.511Z</time></trkpt><trkpt lat="42.4256333" lon="14.1590433"><ele>18.0</ele><time>2026-05-01T15:07:28.509Z</time></trkpt><trkpt lat="42.4257183" lon="14.1590883"><ele>18.0</ele><time>2026-05-01T15:07:29.511Z</time></trkpt><trkpt lat="42.42581" lon="14.1591367"><ele>18.2</ele><time>2026-05-01T15:07:30.512Z</time></trkpt><trkpt lat="42.4259067" lon="14.1591917"><ele>18.4</ele><time>2026-05-01T15:07:31.509Z</time></trkpt><trkpt lat="42.426005" lon="14.1592467"><ele>18.599999999999998</ele><time>2026-05-01T15:07:32.512Z</time></trkpt><trkpt lat="42.426105" lon="14.1593033"><ele>18.8</ele><time>2026-05-01T15:07:33.51Z</time></trkpt><trkpt lat="42.4262083" lon="14.159365"><ele>19.0</ele><time>2026-05-01T15:07:34.51Z</time></trkpt><trkpt lat="42.4263083" lon="14.15943"><ele>19.2</ele><time>2026-05-01T15:07:35.508Z</time></trkpt><trkpt lat="42.4264017" lon="14.1594933"><ele>19.4</ele><time>2026-05-01T15:07:36.509Z</time></trkpt><trkpt lat="42.4264933" lon="14.1595533"><ele>19.6</ele><time>2026-05-01T15:07:37.508Z</time></trkpt><trkpt lat="42.4265833" lon="14.1596117"><ele>19.8</ele><time>2026-05-01T15:07:38.512Z</time></trkpt><trkpt lat="42.4266717" lon="14.15968"><ele>20.0</ele><time>2026-05-01T15:07:39.509Z</time></trkpt><trkpt lat="42.4267667" lon="14.1597467"><ele>20.0</ele><time>2026-05-01T15:07:40.51Z</time></trkpt><trkpt lat="42.4268633" lon="14.159815"><ele>20.0</ele><time>2026-05-01T15:07:41.516Z</time></trkpt><trkpt lat="42.4269583" lon="14.1598883"><ele>20.0</ele><time>2026-05-01T15:07:42.515Z</time></trkpt><trkpt lat="42.4270533" lon="14.1599633"><ele>20.0</ele><time>2026-05-01T15:07:43.515Z</time></trkpt><trkpt lat="42.4271533" lon="14.1600417"><ele>20.0</ele><time>2026-05-01T15:07:44.512Z</time></trkpt><trkpt lat="42.4272517" lon="14.160125"><ele>19.6</ele><time>2026-05-01T15:07:45.512Z</time></trkpt><trkpt lat="42.4273467" lon="14.1602067"><ele>19.2</ele><time>2026-05-01T15:07:46.515Z</time></trkpt><trkpt lat="42.4274383" lon="14.1602867"><ele>18.8</ele><time>2026-05-01T15:07:47.512Z</time></trkpt><trkpt lat="42.4275283" lon="14.1603717"><ele>18.4</ele><time>2026-05-01T15:07:48.51Z</time></trkpt><trkpt lat="42.4276167" lon="14.1604617"><ele>18.0</ele><time>2026-05-01T15:07:49.511Z</time></trkpt><trkpt lat="42.4277067" lon="14.1605533"><ele>18.0</ele><time>2026-05-01T15:07:50.509Z</time></trkpt><trkpt lat="42.4277983" lon="14.1606417"><ele>18.0</ele><time>2026-05-01T15:07:51.517Z</time></trkpt><trkpt lat="42.4278917" lon="14.1607317"><ele>18.0</ele><time>2026-05-01T15:07:52.511Z</time></trkpt><trkpt lat="42.4279817" lon="14.160825"><ele>18.0</ele><time>2026-05-01T15:07:53.51Z</time></trkpt><trkpt lat="42.42807" lon="14.160915"><ele>17.8</ele><time>2026-05-01T15:07:54.512Z</time></trkpt><trkpt lat="42.4281567" lon="14.1609983"><ele>17.6</ele><time>2026-05-01T15:07:55.512Z</time></trkpt><trkpt lat="42.428245" lon="14.1610767"><ele>17.4</ele><time>2026-05-01T15:07:56.511Z</time></trkpt><trkpt lat="42.4283267" lon="14.1611533"><ele>17.2</ele><time>2026-05-01T15:07:57.514Z</time></trkpt><trkpt lat="42.4284067" lon="14.1612317"><ele>17.0</ele><time>2026-05-01T15:07:58.511Z</time></trkpt><trkpt lat="42.4284833" lon="14.1613083"><ele>17.0</ele><time>2026-05-01T15:07:59.51Z</time></trkpt><trkpt lat="42.42856" lon="14.1613817"><ele>17.0</ele><time>2026-05-01T15:08:00.513Z</time></trkpt><trkpt lat="42.4286333" lon="14.16146"><ele>17.0</ele><time>2026-05-01T15:08:01.511Z</time></trkpt><trkpt lat="42.428705" lon="14.1615383"><ele>17.0</ele><time>2026-05-01T15:08:02.511Z</time></trkpt><trkpt lat="42.4287733" lon="14.1616183"><ele>17.0</ele><time>2026-05-01T15:08:03.509Z</time></trkpt><trkpt lat="42.4288417" lon="14.16169"><ele>18.666666666666668</ele><time>2026-05-01T15:08:04.509Z</time></trkpt><trkpt lat="42.4289117" lon="14.1617533"><ele>20.333333333333336</ele><time>2026-05-01T15:08:05.509Z</time></trkpt><trkpt lat="42.42897" lon="14.16181"><ele>22.0</ele><time>2026-05-01T15:08:06.508Z</time></trkpt><trkpt lat="42.4290433" lon="14.1618833"><ele>23.666666666666668</ele><time>2026-05-01T15:08:08.509Z</time></trkpt><trkpt lat="42.429095" lon="14.16195"><ele>25.333333333333332</ele><time>2026-05-01T15:08:11.509Z</time></trkpt><trkpt lat="42.4291633" lon="14.1620133"><ele>27.0</ele><time>2026-05-01T15:08:14.509Z</time></trkpt><trkpt lat="42.4292433" lon="14.1620983"><ele>27.0</ele><time>2026-05-01T15:08:16.508Z</time></trkpt><trkpt lat="42.4293017" lon="14.162145"><ele>27.0</ele><time>2026-05-01T15:08:17.509Z</time></trkpt><trkpt lat="42.4293567" lon="14.1621983"><ele>27.0</ele><time>2026-05-01T15:08:18.51Z</time></trkpt><trkpt lat="42.4294083" lon="14.1622517"><ele>27.0</ele><time>2026-05-01T15:08:19.513Z</time></trkpt><trkpt lat="42.429475" lon="14.162315"><ele>27.0</ele><time>2026-05-01T15:08:20.513Z</time></trkpt><trkpt lat="42.429555" lon="14.1623917"><ele>27.0</ele><time>2026-05-01T15:08:21.508Z</time></trkpt><trkpt lat="42.42966" lon="14.1625033"><ele>25.5</ele><time>2026-05-01T15:08:22.513Z</time></trkpt><trkpt lat="42.4297683" lon="14.162595"><ele>24.0</ele><time>2026-05-01T15:08:23.508Z</time></trkpt><trkpt lat="42.4298733" lon="14.1626617"><ele>22.5</ele><time>2026-05-01T15:08:24.512Z</time></trkpt><trkpt lat="42.4299783" lon="14.1627083"><ele>21.0</ele><time>2026-05-01T15:08:25.509Z</time></trkpt><trkpt lat="42.4300833" lon="14.1627483"><ele>21.0</ele><time>2026-05-01T15:08:26.509Z</time></trkpt><trkpt lat="42.4301867" lon="14.1627817"><ele>21.0</ele><time>2026-05-01T15:08:27.509Z</time></trkpt><trkpt lat="42.4302783" lon="14.1628067"><ele>21.0</ele><time>2026-05-01T15:08:28.51Z</time></trkpt><trkpt lat="42.4303583" lon="14.162825"><ele>21.0</ele><time>2026-05-01T15:08:29.514Z</time></trkpt><trkpt lat="42.4304433" lon="14.162815"><ele>21.0</ele><time>2026-05-01T15:08:31.511Z</time></trkpt><trkpt lat="42.4305133" lon="14.1627883"><ele>21.0</ele><time>2026-05-01T15:08:44.512Z</time></trkpt><trkpt lat="42.4304817" lon="14.1627"><ele>21.0</ele><time>2026-05-01T15:08:54.51Z</time></trkpt><trkpt lat="42.430425" lon="14.16263"><ele>21.0</ele><time>2026-05-01T15:08:56.51Z</time></trkpt><trkpt lat="42.4303517" lon="14.162535"><ele>21.0</ele><time>2026-05-01T15:08:58.51Z</time></trkpt><trkpt lat="42.4303233" lon="14.1624217"><ele>21.0</ele><time>2026-05-01T15:09:00.509Z</time></trkpt><trkpt lat="42.4303517" lon="14.1623183"><ele>21.0</ele><time>2026-05-01T15:09:02.509Z</time></trkpt><trkpt lat="42.4303917" lon="14.1622167"><ele>21.0</ele><time>2026-05-01T15:09:04.513Z</time></trkpt><trkpt lat="42.4304417" lon="14.1621"><ele>21.285714285714285</ele><time>2026-05-01T15:09:06.51Z</time></trkpt><trkpt lat="42.4304767" lon="14.1620233"><ele>21.57142857142857</ele><time>2026-05-01T15:09:07.51Z</time></trkpt><trkpt lat="42.4305467" lon="14.161895"><ele>21.857142857142858</ele><time>2026-05-01T15:09:09.51Z</time></trkpt><trkpt lat="42.4305833" lon="14.161825"><ele>22.142857142857142</ele><time>2026-05-01T15:09:10.509Z</time></trkpt><trkpt lat="42.4306167" lon="14.1617467"><ele>22.428571428571427</ele><time>2026-05-01T15:09:11.511Z</time></trkpt><trkpt lat="42.4306483" lon="14.16167"><ele>22.714285714285715</ele><time>2026-05-01T15:09:12.511Z</time></trkpt><trkpt lat="42.4306817" lon="14.1615917"><ele>23.0</ele><time>2026-05-01T15:09:13.51Z</time></trkpt><trkpt lat="42.4307217" lon="14.16151"><ele>23.666666666666668</ele><time>2026-05-01T15:09:14.51Z</time></trkpt><trkpt lat="42.4307567" lon="14.1614217"><ele>24.333333333333336</ele><time>2026-05-01T15:09:15.51Z</time></trkpt><trkpt lat="42.4307883" lon="14.16134"><ele>25.0</ele><time>2026-05-01T15:09:16.51Z</time></trkpt><trkpt lat="42.43084" lon="14.1612133"><ele>25.666666666666668</ele><time>2026-05-01T15:09:18.512Z</time></trkpt><trkpt lat="42.4308633" lon="14.1611183"><ele>26.333333333333332</ele><time>2026-05-01T15:09:22.509Z</time></trkpt><trkpt lat="42.4309033" lon="14.1609967"><ele>27.0</ele><time>2026-05-01T15:09:24.512Z</time></trkpt><trkpt lat="42.43094" lon="14.1609167"><ele>27.0</ele><time>2026-05-01T15:09:25.511Z</time></trkpt><trkpt lat="42.4309817" lon="14.1608283"><ele>27.000000000000004</ele><time>2026-05-01T15:09:26.511Z</time></trkpt><trkpt lat="42.431025" lon="14.1607267"><ele>27.000000000000004</ele><time>2026-05-01T15:09:27.511Z</time></trkpt><trkpt lat="42.4310733" lon="14.1606133"><ele>27.0</ele><time>2026-05-01T15:09:28.51Z</time></trkpt><trkpt lat="42.4311283" lon="14.1604917"><ele>27.0</ele><time>2026-05-01T15:09:29.512Z</time></trkpt><trkpt lat="42.431185" lon="14.1603667"><ele>27.0</ele><time>2026-05-01T15:09:30.51Z</time></trkpt><trkpt lat="42.4312417" lon="14.1602433"><ele>27.000000000000004</ele><time>2026-05-01T15:09:31.512Z</time></trkpt><trkpt lat="42.431295" lon="14.1601217"><ele>27.000000000000004</ele><time>2026-05-01T15:09:32.511Z</time></trkpt><trkpt lat="42.4313467" lon="14.1600017"><ele>27.0</ele><time>2026-05-01T15:09:33.511Z</time></trkpt><trkpt lat="42.4313983" lon="14.1598817"><ele>27.0</ele><time>2026-05-01T15:09:34.51Z</time></trkpt><trkpt lat="42.4314467" lon="14.15976"><ele>28.0</ele><time>2026-05-01T15:09:35.509Z</time></trkpt><trkpt lat="42.431495" lon="14.1596383"><ele>29.000000000000004</ele><time>2026-05-01T15:09:36.51Z</time></trkpt><trkpt lat="42.4315417" lon="14.159515"><ele>30.000000000000004</ele><time>2026-05-01T15:09:37.509Z</time></trkpt><trkpt lat="42.43159" lon="14.1593933"><ele>31.0</ele><time>2026-05-01T15:09:38.511Z</time></trkpt><trkpt lat="42.43164" lon="14.1592767"><ele>32.0</ele><time>2026-05-01T15:09:39.509Z</time></trkpt><trkpt lat="42.4316917" lon="14.1591633"><ele>32.0</ele><time>2026-05-01T15:09:40.51Z</time></trkpt><trkpt lat="42.43174" lon="14.1590467"><ele>32.0</ele><time>2026-05-01T15:09:41.51Z</time></trkpt><trkpt lat="42.43179" lon="14.1589283"><ele>32.0</ele><time>2026-05-01T15:09:42.509Z</time></trkpt><trkpt lat="42.4318367" lon="14.1588033"><ele>32.0</ele><time>2026-05-01T15:09:43.509Z</time></trkpt><trkpt lat="42.43188" lon="14.1586767"><ele>32.0</ele><time>2026-05-01T15:09:44.51Z</time></trkpt><trkpt lat="42.4319283" lon="14.1585517"><ele>32.2</ele><time>2026-05-01T15:09:45.509Z</time></trkpt><trkpt lat="42.4319783" lon="14.1584283"><ele>32.400000000000006</ele><time>2026-05-01T15:09:46.509Z</time></trkpt><trkpt lat="42.43203" lon="14.1583083"><ele>32.599999999999994</ele><time>2026-05-01T15:09:47.513Z</time></trkpt><trkpt lat="42.432085" lon="14.1581883"><ele>32.8</ele><time>2026-05-01T15:09:48.511Z</time></trkpt><trkpt lat="42.4321367" lon="14.1580667"><ele>33.0</ele><time>2026-05-01T15:09:49.511Z</time></trkpt><trkpt lat="42.4321883" lon="14.157945"><ele>35.0</ele><time>2026-05-01T15:09:50.511Z</time></trkpt><trkpt lat="42.4322416" lon="14.1578261"><ele>37.0</ele><time>2026-05-01T15:09:51.509Z</time></trkpt><trkpt lat="42.4322935" lon="14.1577054"><ele>39.0</ele><time>2026-05-01T15:09:52.51Z</time></trkpt><trkpt lat="42.4323553" lon="14.1575743"><ele>41.0</ele><time>2026-05-01T15:09:53.512Z</time></trkpt><trkpt lat="42.4324466" lon="14.1574194"><ele>42.33333333333333</ele><time>2026-05-01T15:09:54.51Z</time></trkpt><trkpt lat="42.4325835" lon="14.1572499"><ele>43.666666666666664</ele><time>2026-05-01T15:09:55.511Z</time></trkpt><trkpt lat="42.4327411" lon="14.1570867"><ele>45.0</ele><time>2026-05-01T15:09:56.511Z</time></trkpt><trkpt lat="42.4328901" lon="14.1569511"><ele>46.66666666666667</ele><time>2026-05-01T15:09:57.514Z</time></trkpt><trkpt lat="42.4330282" lon="14.1568288"><ele>48.333333333333336</ele><time>2026-05-01T15:09:58.512Z</time></trkpt><trkpt lat="42.4331633" lon="14.1567119"><ele>50.0</ele><time>2026-05-01T15:09:59.509Z</time></trkpt><trkpt lat="42.4332965" lon="14.1565935"><ele>50.5</ele><time>2026-05-01T15:10:00.512Z</time></trkpt><trkpt lat="42.4334261" lon="14.1564815"><ele>51.0</ele><time>2026-05-01T15:10:01.512Z</time></trkpt><trkpt lat="42.4335437" lon="14.1563798"><ele>51.5</ele><time>2026-05-01T15:10:02.515Z</time></trkpt><trkpt lat="42.4336596" lon="14.1562904"><ele>52.0</ele><time>2026-05-01T15:10:03.512Z</time></trkpt><trkpt lat="42.4337784" lon="14.1562034"><ele>52.5</ele><time>2026-05-01T15:10:04.51Z</time></trkpt><trkpt lat="42.4339032" lon="14.1561145"><ele>53.0</ele><time>2026-05-01T15:10:05.51Z</time></trkpt><trkpt lat="42.4340277" lon="14.1560218"><ele>53.5</ele><time>2026-05-01T15:10:06.511Z</time></trkpt><trkpt lat="42.4341508" lon="14.1559302"><ele>54.0</ele><time>2026-05-01T15:10:07.517Z</time></trkpt><trkpt lat="42.4342732" lon="14.1558385"><ele>54.0</ele><time>2026-05-01T15:10:08.509Z</time></trkpt><trkpt lat="42.4343941" lon="14.1557475"><ele>54.0</ele><time>2026-05-01T15:10:09.513Z</time></trkpt><trkpt lat="42.4345127" lon="14.1556571"><ele>54.0</ele><time>2026-05-01T15:10:10.51Z</time></trkpt><trkpt lat="42.4346353" lon="14.1555724"><ele>54.0</ele><time>2026-05-01T15:10:11.515Z</time></trkpt><trkpt lat="42.4347539" lon="14.1554855"><ele>55.25</ele><time>2026-05-01T15:10:12.51Z</time></trkpt><trkpt lat="42.4348711" lon="14.1553939"><ele>56.5</ele><time>2026-05-01T15:10:13.508Z</time></trkpt><trkpt lat="42.4349902" lon="14.1553001"><ele>57.75</ele><time>2026-05-01T15:10:14.51Z</time></trkpt><trkpt lat="42.4351097" lon="14.1552036"><ele>59.0</ele><time>2026-05-01T15:10:15.509Z</time></trkpt><trkpt lat="42.4352308" lon="14.1551112"><ele>59.0</ele><time>2026-05-01T15:10:16.509Z</time></trkpt><trkpt lat="42.4353526" lon="14.1550191"><ele>59.0</ele><time>2026-05-01T15:10:17.511Z</time></trkpt><trkpt lat="42.4354757" lon="14.1549249"><ele>59.0</ele><time>2026-05-01T15:10:18.516Z</time></trkpt><trkpt lat="42.4355977" lon="14.154829"><ele>59.0</ele><time>2026-05-01T15:10:19.516Z</time></trkpt><trkpt lat="42.4357215" lon="14.1547355"><ele>60.0</ele><time>2026-05-01T15:10:20.51Z</time></trkpt><trkpt lat="42.4358458" lon="14.1546443"><ele>61.0</ele><time>2026-05-01T15:10:21.512Z</time></trkpt><trkpt lat="42.4359692" lon="14.154551"><ele>62.0</ele><time>2026-05-01T15:10:22.512Z</time></trkpt><trkpt lat="42.4360907" lon="14.1544601"><ele>63.0</ele><time>2026-05-01T15:10:23.513Z</time></trkpt><trkpt lat="42.4362095" lon="14.1543616"><ele>63.25</ele><time>2026-05-01T15:10:24.513Z</time></trkpt><trkpt lat="42.4363248" lon="14.1542588"><ele>63.5</ele><time>2026-05-01T15:10:25.51Z</time></trkpt><trkpt lat="42.4364383" lon="14.1541534"><ele>63.75</ele><time>2026-05-01T15:10:26.511Z</time></trkpt><trkpt lat="42.4365516" lon="14.1540513"><ele>64.0</ele><time>2026-05-01T15:10:27.509Z</time></trkpt><trkpt lat="42.4366665" lon="14.1539523"><ele>65.25</ele><time>2026-05-01T15:10:28.514Z</time></trkpt><trkpt lat="42.436785" lon="14.1538555"><ele>66.5</ele><time>2026-05-01T15:10:29.51Z</time></trkpt><trkpt lat="42.436904" lon="14.1537575"><ele>67.75</ele><time>2026-05-01T15:10:30.509Z</time></trkpt><trkpt lat="42.4370215" lon="14.153655"><ele>69.0</ele><time>2026-05-01T15:10:31.509Z</time></trkpt><trkpt lat="42.437141" lon="14.153553"><ele>69.0</ele><time>2026-05-01T15:10:32.51Z</time></trkpt><trkpt lat="42.4372613" lon="14.1534555"><ele>69.0</ele><time>2026-05-01T15:10:33.509Z</time></trkpt><trkpt lat="42.4373845" lon="14.1533654"><ele>69.0</ele><time>2026-05-01T15:10:34.509Z</time></trkpt><trkpt lat="42.4375129" lon="14.1532907"><ele>69.0</ele><time>2026-05-01T15:10:35.516Z</time></trkpt><trkpt lat="42.4376481" lon="14.1532433"><ele>69.0</ele><time>2026-05-01T15:10:36.509Z</time></trkpt><trkpt lat="42.4377881" lon="14.1532104"><ele>69.0</ele><time>2026-05-01T15:10:37.509Z</time></trkpt><trkpt lat="42.4379301" lon="14.1531798"><ele>69.0</ele><time>2026-05-01T15:10:38.51Z</time></trkpt><trkpt lat="42.4380694" lon="14.1531404"><ele>69.0</ele><time>2026-05-01T15:10:39.51Z</time></trkpt><trkpt lat="42.4382037" lon="14.1530842"><ele>67.5</ele><time>2026-05-01T15:10:40.51Z</time></trkpt><trkpt lat="42.4383299" lon="14.1529998"><ele>66.0</ele><time>2026-05-01T15:10:41.51Z</time></trkpt><trkpt lat="42.4384464" lon="14.1528966"><ele>64.5</ele><time>2026-05-01T15:10:42.512Z</time></trkpt><trkpt lat="42.4385545" lon="14.1527852"><ele>63.0</ele><time>2026-05-01T15:10:43.51Z</time></trkpt><trkpt lat="42.43866" lon="14.1526681"><ele>63.0</ele><time>2026-05-01T15:10:44.51Z</time></trkpt><trkpt lat="42.4387628" lon="14.1525456"><ele>63.0</ele><time>2026-05-01T15:10:45.511Z</time></trkpt><trkpt lat="42.4388624" lon="14.1524164"><ele>63.0</ele><time>2026-05-01T15:10:46.515Z</time></trkpt><trkpt lat="42.4389587" lon="14.1522853"><ele>63.0</ele><time>2026-05-01T15:10:47.512Z</time></trkpt><trkpt lat="42.4390545" lon="14.1521551"><ele>65.5</ele><time>2026-05-01T15:10:48.512Z</time></trkpt><trkpt lat="42.4391465" lon="14.1520247"><ele>68.0</ele><time>2026-05-01T15:10:49.509Z</time></trkpt><trkpt lat="42.4392399" lon="14.1518956"><ele>70.5</ele><time>2026-05-01T15:10:50.511Z</time></trkpt><trkpt lat="42.4393415" lon="14.1517788"><ele>73.0</ele><time>2026-05-01T15:10:51.51Z</time></trkpt><trkpt lat="42.4394559" lon="14.1516761"><ele>73.0</ele><time>2026-05-01T15:10:52.516Z</time></trkpt><trkpt lat="42.4395785" lon="14.1515888"><ele>73.0</ele><time>2026-05-01T15:10:53.516Z</time></trkpt><trkpt lat="42.4397104" lon="14.1515134"><ele>73.0</ele><time>2026-05-01T15:10:54.598Z</time></trkpt><trkpt lat="42.4398393" lon="14.1514526"><ele>73.0</ele><time>2026-05-01T15:10:55.513Z</time></trkpt><trkpt lat="42.4399771" lon="14.1513913"><ele>73.75</ele><time>2026-05-01T15:10:56.516Z</time></trkpt><trkpt lat="42.4401144" lon="14.1513279"><ele>74.5</ele><time>2026-05-01T15:10:57.509Z</time></trkpt><trkpt lat="42.4402478" lon="14.1512525"><ele>75.25</ele><time>2026-05-01T15:10:58.511Z</time></trkpt><trkpt lat="42.4403782" lon="14.1511629"><ele>76.0</ele><time>2026-05-01T15:10:59.509Z</time></trkpt><trkpt lat="42.4405059" lon="14.1510636"><ele>80.0</ele><time>2026-05-01T15:11:00.514Z</time></trkpt><trkpt lat="42.4406364" lon="14.1509677"><ele>84.0</ele><time>2026-05-01T15:11:01.509Z</time></trkpt><trkpt lat="42.4407754" lon="14.1508879"><ele>88.0</ele><time>2026-05-01T15:11:02.511Z</time></trkpt><trkpt lat="42.4409223" lon="14.1508307"><ele>88.0</ele><time>2026-05-01T15:11:03.509Z</time></trkpt><trkpt lat="42.4410749" lon="14.1508013"><ele>88.0</ele><time>2026-05-01T15:11:04.509Z</time></trkpt><trkpt lat="42.4412259" lon="14.150815"><ele>88.0</ele><time>2026-05-01T15:11:05.514Z</time></trkpt><trkpt lat="42.441374" lon="14.1508563"><ele>89.0</ele><time>2026-05-01T15:11:06.512Z</time></trkpt><trkpt lat="42.4415253" lon="14.150911"><ele>90.0</ele><time>2026-05-01T15:11:07.511Z</time></trkpt><trkpt lat="42.4416708" lon="14.1509507"><ele>91.0</ele><time>2026-05-01T15:11:08.511Z</time></trkpt><trkpt lat="42.4418159" lon="14.1509536"><ele>91.0</ele><time>2026-05-01T15:11:09.515Z</time></trkpt><trkpt lat="42.4419553" lon="14.1509352"><ele>91.0</ele><time>2026-05-01T15:11:10.511Z</time></trkpt><trkpt lat="42.4420874" lon="14.1508922"><ele>91.0</ele><time>2026-05-01T15:11:11.513Z</time></trkpt><trkpt lat="42.4421999" lon="14.1508279"><ele>91.0</ele><time>2026-05-01T15:11:12.511Z</time></trkpt><trkpt lat="42.4422881" lon="14.1507354"><ele>91.75</ele><time>2026-05-01T15:11:13.509Z</time></trkpt><trkpt lat="42.4423483" lon="14.1506104"><ele>92.5</ele><time>2026-05-01T15:11:14.511Z</time></trkpt><trkpt lat="42.4423934" lon="14.1504623"><ele>93.25</ele><time>2026-05-01T15:11:15.509Z</time></trkpt><trkpt lat="42.442422" lon="14.1503013"><ele>94.0</ele><time>2026-05-01T15:11:16.51Z</time></trkpt><trkpt lat="42.4424484" lon="14.1501314"><ele>94.0</ele><time>2026-05-01T15:11:17.511Z</time></trkpt><trkpt lat="42.4424776" lon="14.1499656"><ele>94.0</ele><time>2026-05-01T15:11:18.511Z</time></trkpt><trkpt lat="42.4425119" lon="14.1498034"><ele>94.0</ele><time>2026-05-01T15:11:19.511Z</time></trkpt><trkpt lat="42.4425527" lon="14.149641"><ele>94.0</ele><time>2026-05-01T15:11:20.516Z</time></trkpt><trkpt lat="42.4425996" lon="14.1494813"><ele>95.0</ele><time>2026-05-01T15:11:21.514Z</time></trkpt><trkpt lat="42.442651" lon="14.1493201"><ele>96.0</ele><time>2026-05-01T15:11:22.513Z</time></trkpt><trkpt lat="42.4427113" lon="14.1491606"><ele>97.0</ele><time>2026-05-01T15:11:23.511Z</time></trkpt><trkpt lat="42.4427731" lon="14.149"><ele>98.0</ele><time>2026-05-01T15:11:24.51Z</time></trkpt><trkpt lat="42.4428443" lon="14.1488445"><ele>99.5</ele><time>2026-05-01T15:11:25.51Z</time></trkpt><trkpt lat="42.4429229" lon="14.1486981"><ele>101.0</ele><time>2026-05-01T15:11:26.514Z</time></trkpt><trkpt lat="42.4430104" lon="14.148562"><ele>102.5</ele><time>2026-05-01T15:11:27.514Z</time></trkpt><trkpt lat="42.4431032" lon="14.1484302"><ele>104.0</ele><time>2026-05-01T15:11:28.513Z</time></trkpt><trkpt lat="42.4431951" lon="14.1482985"><ele>107.75</ele><time>2026-05-01T15:11:29.511Z</time></trkpt><trkpt lat="42.4432902" lon="14.1481702"><ele>111.5</ele><time>2026-05-01T15:11:30.512Z</time></trkpt><trkpt lat="42.4433867" lon="14.14804"><ele>115.25</ele><time>2026-05-01T15:11:31.515Z</time></trkpt><trkpt lat="42.443485" lon="14.1478967"><ele>119.0</ele><time>2026-05-01T15:11:32.51Z</time></trkpt><trkpt lat="42.443575" lon="14.1477583"><ele>119.0</ele><time>2026-05-01T15:11:33.514Z</time></trkpt><trkpt lat="42.443685" lon="14.1476467"><ele>119.0</ele><time>2026-05-01T15:11:34.51Z</time></trkpt><trkpt lat="42.4438067" lon="14.147565"><ele>119.0</ele><time>2026-05-01T15:11:35.513Z</time></trkpt><trkpt lat="42.443935" lon="14.1475083"><ele>119.0</ele><time>2026-05-01T15:11:36.51Z</time></trkpt><trkpt lat="42.4440583" lon="14.1474683"><ele>118.0</ele><time>2026-05-01T15:11:37.51Z</time></trkpt><trkpt lat="42.444175" lon="14.1474383"><ele>117.0</ele><time>2026-05-01T15:11:38.595Z</time></trkpt><trkpt lat="42.444275" lon="14.1474083"><ele>116.0</ele><time>2026-05-01T15:11:39.509Z</time></trkpt><trkpt lat="42.4443617" lon="14.14736"><ele>115.0</ele><time>2026-05-01T15:11:40.513Z</time></trkpt><trkpt lat="42.4444317" lon="14.1472883"><ele>114.0</ele><time>2026-05-01T15:11:41.513Z</time></trkpt><trkpt lat="42.4444883" lon="14.1472017"><ele>115.4</ele><time>2026-05-01T15:11:42.509Z</time></trkpt><trkpt lat="42.44453" lon="14.1471083"><ele>116.80000000000001</ele><time>2026-05-01T15:11:43.512Z</time></trkpt><trkpt lat="42.444565" lon="14.1470317"><ele>118.19999999999999</ele><time>2026-05-01T15:11:44.509Z</time></trkpt><trkpt lat="42.4446167" lon="14.1469"><ele>119.6</ele><time>2026-05-01T15:11:46.511Z</time></trkpt><trkpt lat="42.4447" lon="14.1467667"><ele>121.0</ele><time>2026-05-01T15:11:48.514Z</time></trkpt><trkpt lat="42.4447533" lon="14.1466917"><ele>121.0</ele><time>2026-05-01T15:11:49.514Z</time></trkpt><trkpt lat="42.4448167" lon="14.146605"><ele>121.0</ele><time>2026-05-01T15:11:50.511Z</time></trkpt><trkpt lat="42.4448717" lon="14.1465033"><ele>121.0</ele><time>2026-05-01T15:11:51.514Z</time></trkpt><trkpt lat="42.4449233" lon="14.1463983"><ele>121.0</ele><time>2026-05-01T15:11:52.511Z</time></trkpt><trkpt lat="42.44498" lon="14.146295"><ele>121.0</ele><time>2026-05-01T15:11:53.512Z</time></trkpt><trkpt lat="42.4450367" lon="14.1461917"><ele>122.0</ele><time>2026-05-01T15:11:54.515Z</time></trkpt><trkpt lat="42.4450967" lon="14.1460883"><ele>123.0</ele><time>2026-05-01T15:11:55.511Z</time></trkpt><trkpt lat="42.4451633" lon="14.145985"><ele>124.0</ele><time>2026-05-01T15:11:56.516Z</time></trkpt><trkpt lat="42.445225" lon="14.145875"><ele>125.0</ele><time>2026-05-01T15:11:57.512Z</time></trkpt><trkpt lat="42.4452833" lon="14.1457567"><ele>126.0</ele><time>2026-05-01T15:11:58.51Z</time></trkpt><trkpt lat="42.4453417" lon="14.1456333"><ele>124.5</ele><time>2026-05-01T15:11:59.513Z</time></trkpt><trkpt lat="42.4454083" lon="14.1455167"><ele>123.0</ele><time>2026-05-01T15:12:00.511Z</time></trkpt><trkpt lat="42.4454883" lon="14.1454083"><ele>121.5</ele><time>2026-05-01T15:12:01.513Z</time></trkpt><trkpt lat="42.44558" lon="14.1453067"><ele>120.0</ele><time>2026-05-01T15:12:02.513Z</time></trkpt><trkpt lat="42.4456683" lon="14.1452117"><ele>120.0</ele><time>2026-05-01T15:12:03.513Z</time></trkpt><trkpt lat="42.44575" lon="14.14512"><ele>120.0</ele><time>2026-05-01T15:12:04.514Z</time></trkpt><trkpt lat="42.4458317" lon="14.145045"><ele>120.0</ele><time>2026-05-01T15:12:05.515Z</time></trkpt><trkpt lat="42.44592" lon="14.144975"><ele>120.0</ele><time>2026-05-01T15:12:06.51Z</time></trkpt><trkpt lat="42.4460167" lon="14.14491"><ele>120.0</ele><time>2026-05-01T15:12:07.513Z</time></trkpt><trkpt lat="42.4461083" lon="14.1448483"><ele>120.2</ele><time>2026-05-01T15:12:08.512Z</time></trkpt><trkpt lat="42.4462" lon="14.1447933"><ele>120.4</ele><time>2026-05-01T15:12:09.511Z</time></trkpt><trkpt lat="42.446295" lon="14.1447617"><ele>120.6</ele><time>2026-05-01T15:12:10.511Z</time></trkpt><trkpt lat="42.446395" lon="14.14472"><ele>120.8</ele><time>2026-05-01T15:12:11.512Z</time></trkpt><trkpt lat="42.4465167" lon="14.144675"><ele>121.0</ele><time>2026-05-01T15:12:12.518Z</time></trkpt><trkpt lat="42.4466583" lon="14.1446283"><ele>121.0</ele><time>2026-05-01T15:12:13.512Z</time></trkpt><trkpt lat="42.4468133" lon="14.1445867"><ele>121.0</ele><time>2026-05-01T15:12:14.513Z</time></trkpt><trkpt lat="42.4469617" lon="14.1445517"><ele>121.0</ele><time>2026-05-01T15:12:15.51Z</time></trkpt><trkpt lat="42.4470917" lon="14.1445133"><ele>121.0</ele><time>2026-05-01T15:12:16.51Z</time></trkpt><trkpt lat="42.4472083" lon="14.1444883"><ele>122.0</ele><time>2026-05-01T15:12:17.51Z</time></trkpt><trkpt lat="42.44732" lon="14.144485"><ele>123.0</ele><time>2026-05-01T15:12:18.513Z</time></trkpt><trkpt lat="42.4474183" lon="14.14453"><ele>124.0</ele><time>2026-05-01T15:12:19.513Z</time></trkpt><trkpt lat="42.4474967" lon="14.1446217"><ele>125.0</ele><time>2026-05-01T15:12:20.512Z</time></trkpt><trkpt lat="42.4475483" lon="14.144735"><ele>126.0</ele><time>2026-05-01T15:12:21.513Z</time></trkpt><trkpt lat="42.4475683" lon="14.1448783"><ele>126.25</ele><time>2026-05-01T15:12:22.512Z</time></trkpt><trkpt lat="42.4475683" lon="14.1450483"><ele>126.5</ele><time>2026-05-01T15:12:23.511Z</time></trkpt><trkpt lat="42.4475783" lon="14.1452267"><ele>126.75</ele><time>2026-05-01T15:12:24.51Z</time></trkpt><trkpt lat="42.447595" lon="14.1454083"><ele>127.0</ele><time>2026-05-01T15:12:25.512Z</time></trkpt><trkpt lat="42.4476233" lon="14.1455717"><ele>127.5</ele><time>2026-05-01T15:12:26.512Z</time></trkpt><trkpt lat="42.4476583" lon="14.1457267"><ele>128.0</ele><time>2026-05-01T15:12:27.512Z</time></trkpt><trkpt lat="42.4477367" lon="14.14586"><ele>128.5</ele><time>2026-05-01T15:12:28.509Z</time></trkpt><trkpt lat="42.4478283" lon="14.145985"><ele>129.0</ele><time>2026-05-01T15:12:29.511Z</time></trkpt><trkpt lat="42.4479233" lon="14.1461067"><ele>133.33333333333334</ele><time>2026-05-01T15:12:30.51Z</time></trkpt><trkpt lat="42.4480533" lon="14.1462083"><ele>137.66666666666669</ele><time>2026-05-01T15:12:31.513Z</time></trkpt><trkpt lat="42.4481967" lon="14.1462933"><ele>142.0</ele><time>2026-05-01T15:12:32.512Z</time></trkpt><trkpt lat="42.4483383" lon="14.146365"><ele>142.0</ele><time>2026-05-01T15:12:33.51Z</time></trkpt><trkpt lat="42.4484717" lon="14.14643"><ele>142.0</ele><time>2026-05-01T15:12:34.509Z</time></trkpt><trkpt lat="42.4486067" lon="14.14646"><ele>142.0</ele><time>2026-05-01T15:12:35.51Z</time></trkpt><trkpt lat="42.4487417" lon="14.146455"><ele>142.0</ele><time>2026-05-01T15:12:36.51Z</time></trkpt><trkpt lat="42.4488717" lon="14.1464083"><ele>142.5</ele><time>2026-05-01T15:12:37.513Z</time></trkpt><trkpt lat="42.4489933" lon="14.1463367"><ele>143.0</ele><time>2026-05-01T15:12:38.511Z</time></trkpt><trkpt lat="42.4491067" lon="14.1462367"><ele>143.5</ele><time>2026-05-01T15:12:39.514Z</time></trkpt><trkpt lat="42.449205" lon="14.1460967"><ele>144.0</ele><time>2026-05-01T15:12:40.512Z</time></trkpt><trkpt lat="42.4492983" lon="14.1459333"><ele>144.0</ele><time>2026-05-01T15:12:41.509Z</time></trkpt><trkpt lat="42.4493933" lon="14.14577"><ele>144.0</ele><time>2026-05-01T15:12:42.509Z</time></trkpt><trkpt lat="42.4494783" lon="14.1455983"><ele>144.0</ele><time>2026-05-01T15:12:43.511Z</time></trkpt><trkpt lat="42.449565" lon="14.1454267"><ele>143.33333333333334</ele><time>2026-05-01T15:12:44.514Z</time></trkpt><trkpt lat="42.4496583" lon="14.1452467"><ele>142.66666666666669</ele><time>2026-05-01T15:12:45.512Z</time></trkpt><trkpt lat="42.44974" lon="14.145045"><ele>142.0</ele><time>2026-05-01T15:12:46.514Z</time></trkpt><trkpt lat="42.4498117" lon="14.1448467"><ele>142.0</ele><time>2026-05-01T15:12:47.511Z</time></trkpt><trkpt lat="42.449875" lon="14.1446567"><ele>142.0</ele><time>2026-05-01T15:12:48.511Z</time></trkpt><trkpt lat="42.4499217" lon="14.1444683"><ele>142.0</ele><time>2026-05-01T15:12:49.512Z</time></trkpt><trkpt lat="42.4499617" lon="14.1442783"><ele>142.0</ele><time>2026-05-01T15:12:50.515Z</time></trkpt><trkpt lat="42.44997" lon="14.1440733"><ele>141.0</ele><time>2026-05-01T15:12:51.515Z</time></trkpt><trkpt lat="42.449965" lon="14.143865"><ele>140.0</ele><time>2026-05-01T15:12:52.51Z</time></trkpt><trkpt lat="42.4499517" lon="14.143665"><ele>139.0</ele><time>2026-05-01T15:12:53.514Z</time></trkpt><trkpt lat="42.449935" lon="14.14348"><ele>138.0</ele><time>2026-05-01T15:12:54.51Z</time></trkpt><trkpt lat="42.4499133" lon="14.1433083"><ele>137.75</ele><time>2026-05-01T15:12:55.513Z</time></trkpt><trkpt lat="42.4499" lon="14.1431467"><ele>137.5</ele><time>2026-05-01T15:12:56.509Z</time></trkpt><trkpt lat="42.4498767" lon="14.1429867"><ele>137.25</ele><time>2026-05-01T15:12:57.511Z</time></trkpt><trkpt lat="42.4498333" lon="14.1428217"><ele>137.0</ele><time>2026-05-01T15:12:58.51Z</time></trkpt><trkpt lat="42.4497683" lon="14.142655"><ele>137.0</ele><time>2026-05-01T15:12:59.509Z</time></trkpt><trkpt lat="42.4497033" lon="14.1424883"><ele>137.0</ele><time>2026-05-01T15:13:00.51Z</time></trkpt><trkpt lat="42.4496417" lon="14.14233"><ele>137.0</ele><time>2026-05-01T15:13:01.509Z</time></trkpt><trkpt lat="42.4495883" lon="14.1421883"><ele>137.0</ele><time>2026-05-01T15:13:02.515Z</time></trkpt><trkpt lat="42.4495533" lon="14.142065"><ele>137.5</ele><time>2026-05-01T15:13:03.511Z</time></trkpt><trkpt lat="42.4495467" lon="14.1419483"><ele>138.0</ele><time>2026-05-01T15:13:04.509Z</time></trkpt><trkpt lat="42.4495667" lon="14.1418417"><ele>138.5</ele><time>2026-05-01T15:13:05.508Z</time></trkpt><trkpt lat="42.4496117" lon="14.141745"><ele>139.0</ele><time>2026-05-01T15:13:06.513Z</time></trkpt><trkpt lat="42.4496783" lon="14.1416617"><ele>139.5</ele><time>2026-05-01T15:13:07.513Z</time></trkpt><trkpt lat="42.4497667" lon="14.1415867"><ele>140.0</ele><time>2026-05-01T15:13:08.509Z</time></trkpt><trkpt lat="42.4498683" lon="14.141515"><ele>141.0</ele><time>2026-05-01T15:13:09.51Z</time></trkpt><trkpt lat="42.44997" lon="14.14145"><ele>142.0</ele><time>2026-05-01T15:13:10.509Z</time></trkpt><trkpt lat="42.4500783" lon="14.1413967"><ele>143.0</ele><time>2026-05-01T15:13:11.512Z</time></trkpt><trkpt lat="42.4501867" lon="14.14135"><ele>144.0</ele><time>2026-05-01T15:13:12.515Z</time></trkpt><trkpt lat="42.4502867" lon="14.1413033"><ele>145.0</ele><time>2026-05-01T15:13:13.51Z</time></trkpt><trkpt lat="42.4503833" lon="14.1412683"><ele>146.0</ele><time>2026-05-01T15:13:14.51Z</time></trkpt><trkpt lat="42.45047" lon="14.141235"><ele>147.0</ele><time>2026-05-01T15:13:15.51Z</time></trkpt><trkpt lat="42.4505583" lon="14.1412017"><ele>148.0</ele><time>2026-05-01T15:13:16.513Z</time></trkpt><trkpt lat="42.450645" lon="14.1411667"><ele>149.0</ele><time>2026-05-01T15:13:17.511Z</time></trkpt><trkpt lat="42.45074" lon="14.141135"><ele>150.0</ele><time>2026-05-01T15:13:18.513Z</time></trkpt><trkpt lat="42.4508417" lon="14.14111"><ele>150.0</ele><time>2026-05-01T15:13:19.512Z</time></trkpt><trkpt lat="42.4509417" lon="14.1410717"><ele>150.0</ele><time>2026-05-01T15:13:20.511Z</time></trkpt><trkpt lat="42.4510433" lon="14.141035"><ele>150.0</ele><time>2026-05-01T15:13:21.512Z</time></trkpt><trkpt lat="42.45115" lon="14.141005"><ele>150.0</ele><time>2026-05-01T15:13:22.511Z</time></trkpt><trkpt lat="42.4512567" lon="14.1409767"><ele>150.0</ele><time>2026-05-01T15:13:23.511Z</time></trkpt><trkpt lat="42.451365" lon="14.1409467"><ele>150.4</ele><time>2026-05-01T15:13:24.513Z</time></trkpt><trkpt lat="42.4514767" lon="14.140925"><ele>150.8</ele><time>2026-05-01T15:13:25.512Z</time></trkpt><trkpt lat="42.4515867" lon="14.1409067"><ele>151.2</ele><time>2026-05-01T15:13:26.509Z</time></trkpt><trkpt lat="42.451695" lon="14.140895"><ele>151.6</ele><time>2026-05-01T15:13:27.509Z</time></trkpt><trkpt lat="42.4518" lon="14.140875"><ele>152.0</ele><time>2026-05-01T15:13:28.51Z</time></trkpt><trkpt lat="42.4519083" lon="14.1408533"><ele>152.0</ele><time>2026-05-01T15:13:29.513Z</time></trkpt><trkpt lat="42.4520167" lon="14.140835"><ele>152.0</ele><time>2026-05-01T15:13:30.51Z</time></trkpt><trkpt lat="42.4521267" lon="14.1408117"><ele>152.0</ele><time>2026-05-01T15:13:31.509Z</time></trkpt><trkpt lat="42.4522367" lon="14.1407867"><ele>152.0</ele><time>2026-05-01T15:13:32.51Z</time></trkpt><trkpt lat="42.4523417" lon="14.14076"><ele>152.0</ele><time>2026-05-01T15:13:33.51Z</time></trkpt><trkpt lat="42.4524467" lon="14.1407417"><ele>152.0</ele><time>2026-05-01T15:13:34.51Z</time></trkpt><trkpt lat="42.4525483" lon="14.1407217"><ele>152.0</ele><time>2026-05-01T15:13:35.51Z</time></trkpt><trkpt lat="42.452645" lon="14.140705"><ele>152.0</ele><time>2026-05-01T15:13:36.51Z</time></trkpt><trkpt lat="42.4527333" lon="14.1406883"><ele>152.0</ele><time>2026-05-01T15:13:37.51Z</time></trkpt><trkpt lat="42.452815" lon="14.1406683"><ele>152.0</ele><time>2026-05-01T15:13:38.51Z</time></trkpt><trkpt lat="42.4528933" lon="14.1406467"><ele>154.83333333333331</ele><time>2026-05-01T15:13:39.51Z</time></trkpt><trkpt lat="42.4529683" lon="14.1406283"><ele>157.66666666666666</ele><time>2026-05-01T15:13:40.517Z</time></trkpt><trkpt lat="42.453035" lon="14.14061"><ele>160.5</ele><time>2026-05-01T15:13:41.511Z</time></trkpt><trkpt lat="42.4531017" lon="14.1405783"><ele>163.33333333333334</ele><time>2026-05-01T15:13:42.511Z</time></trkpt><trkpt lat="42.453175" lon="14.1405333"><ele>166.16666666666669</ele><time>2026-05-01T15:13:43.514Z</time></trkpt><trkpt lat="42.4532533" lon="14.140485"><ele>169.0</ele><time>2026-05-01T15:13:44.514Z</time></trkpt><trkpt lat="42.453335" lon="14.1404383"><ele>169.0</ele><time>2026-05-01T15:13:45.511Z</time></trkpt><trkpt lat="42.4534167" lon="14.140395"><ele>169.0</ele><time>2026-05-01T15:13:46.511Z</time></trkpt><trkpt lat="42.453495" lon="14.1403517"><ele>169.0</ele><time>2026-05-01T15:13:47.51Z</time></trkpt><trkpt lat="42.4536333" lon="14.140335"><ele>169.0</ele><time>2026-05-01T15:13:48.778Z</time></trkpt><trkpt lat="42.4537067" lon="14.14019"><ele>169.0</ele><time>2026-05-01T15:13:50.441Z</time></trkpt><trkpt lat="42.453775" lon="14.1401367"><ele>169.6</ele><time>2026-05-01T15:13:51.514Z</time></trkpt><trkpt lat="42.4538417" lon="14.1400717"><ele>170.2</ele><time>2026-05-01T15:13:52.511Z</time></trkpt><trkpt lat="42.4539233" lon="14.1399917"><ele>170.79999999999998</ele><time>2026-05-01T15:13:53.515Z</time></trkpt><trkpt lat="42.4540033" lon="14.1398983"><ele>171.39999999999998</ele><time>2026-05-01T15:13:54.51Z</time></trkpt><trkpt lat="42.4540717" lon="14.1397967"><ele>172.0</ele><time>2026-05-01T15:13:55.511Z</time></trkpt><trkpt lat="42.4541333" lon="14.1396817"><ele>172.39999999999998</ele><time>2026-05-01T15:13:56.513Z</time></trkpt><trkpt lat="42.454195" lon="14.1395633"><ele>172.79999999999998</ele><time>2026-05-01T15:13:57.511Z</time></trkpt><trkpt lat="42.4542567" lon="14.13945"><ele>173.2</ele><time>2026-05-01T15:13:58.514Z</time></trkpt><trkpt lat="42.454315" lon="14.1393433"><ele>173.6</ele><time>2026-05-01T15:13:59.51Z</time></trkpt><trkpt lat="42.4543617" lon="14.1392367"><ele>174.0</ele><time>2026-05-01T15:14:00.514Z</time></trkpt><trkpt lat="42.4544117" lon="14.1391483"><ele>174.0</ele><time>2026-05-01T15:14:01.512Z</time></trkpt><trkpt lat="42.4544567" lon="14.1390667"><ele>174.0</ele><time>2026-05-01T15:14:02.51Z</time></trkpt><trkpt lat="42.454495" lon="14.1389917"><ele>174.0</ele><time>2026-05-01T15:14:03.512Z</time></trkpt><trkpt lat="42.4545317" lon="14.1389183"><ele>174.0</ele><time>2026-05-01T15:14:04.511Z</time></trkpt><trkpt lat="42.4545683" lon="14.1388433"><ele>174.0</ele><time>2026-05-01T15:14:05.51Z</time></trkpt><trkpt lat="42.4546067" lon="14.13876"><ele>174.0</ele><time>2026-05-01T15:14:06.512Z</time></trkpt><trkpt lat="42.4546533" lon="14.1386767"><ele>174.0</ele><time>2026-05-01T15:14:07.514Z</time></trkpt><trkpt lat="42.4547033" lon="14.138585"><ele>173.79999999999998</ele><time>2026-05-01T15:14:08.512Z</time></trkpt><trkpt lat="42.454765" lon="14.1384933"><ele>173.6</ele><time>2026-05-01T15:14:09.512Z</time></trkpt><trkpt lat="42.4548267" lon="14.1383933"><ele>173.4</ele><time>2026-05-01T15:14:10.511Z</time></trkpt><trkpt lat="42.454885" lon="14.13829"><ele>173.2</ele><time>2026-05-01T15:14:11.511Z</time></trkpt><trkpt lat="42.4549433" lon="14.1381883"><ele>173.0</ele><time>2026-05-01T15:14:12.514Z</time></trkpt><trkpt lat="42.454995" lon="14.138085"><ele>172.57142857142856</ele><time>2026-05-01T15:14:13.512Z</time></trkpt><trkpt lat="42.455035" lon="14.137985"><ele>172.14285714285717</ele><time>2026-05-01T15:14:14.513Z</time></trkpt><trkpt lat="42.455055" lon="14.1378817"><ele>171.71428571428572</ele><time>2026-05-01T15:14:15.512Z</time></trkpt><trkpt lat="42.45506" lon="14.13779"><ele>171.28571428571428</ele><time>2026-05-01T15:14:16.51Z</time></trkpt><trkpt lat="42.4550567" lon="14.1377017"><ele>170.85714285714283</ele><time>2026-05-01T15:14:17.514Z</time></trkpt><trkpt lat="42.4550567" lon="14.1376133"><ele>170.42857142857144</ele><time>2026-05-01T15:14:18.513Z</time></trkpt><trkpt lat="42.4550567" lon="14.137515"><ele>170.0</ele><time>2026-05-01T15:14:19.514Z</time></trkpt><trkpt lat="42.4550483" lon="14.1374083"><ele>170.5</ele><time>2026-05-01T15:14:20.512Z</time></trkpt><trkpt lat="42.4550483" lon="14.137305"><ele>171.0</ele><time>2026-05-01T15:14:21.509Z</time></trkpt><trkpt lat="42.4550483" lon="14.1371983"><ele>171.5</ele><time>2026-05-01T15:14:22.515Z</time></trkpt><trkpt lat="42.45505" lon="14.1370867"><ele>172.0</ele><time>2026-05-01T15:14:23.511Z</time></trkpt><trkpt lat="42.4550483" lon="14.1369683"><ele>172.5</ele><time>2026-05-01T15:14:24.515Z</time></trkpt><trkpt lat="42.4550483" lon="14.1368433"><ele>173.0</ele><time>2026-05-01T15:14:25.513Z</time></trkpt><trkpt lat="42.4550483" lon="14.1367283"><ele>173.0</ele><time>2026-05-01T15:14:26.512Z</time></trkpt><trkpt lat="42.4550517" lon="14.1366317"><ele>173.0</ele><time>2026-05-01T15:14:27.513Z</time></trkpt><trkpt lat="42.4550717" lon="14.1365483"><ele>173.0</ele><time>2026-05-01T15:14:28.512Z</time></trkpt><trkpt lat="42.4551583" lon="14.1364433"><ele>173.0</ele><time>2026-05-01T15:14:30.512Z</time></trkpt><trkpt lat="42.4552233" lon="14.1364217"><ele>173.0</ele><time>2026-05-01T15:14:31.511Z</time></trkpt><trkpt lat="42.4552933" lon="14.1363883"><ele>173.0</ele><time>2026-05-01T15:14:32.513Z</time></trkpt><trkpt lat="42.4553667" lon="14.1363583"><ele>174.16666666666666</ele><time>2026-05-01T15:14:33.513Z</time></trkpt><trkpt lat="42.4554283" lon="14.1363117"><ele>175.33333333333331</ele><time>2026-05-01T15:14:34.514Z</time></trkpt><trkpt lat="42.4554917" lon="14.1362683"><ele>176.5</ele><time>2026-05-01T15:14:35.513Z</time></trkpt><trkpt lat="42.455555" lon="14.1362217"><ele>177.66666666666666</ele><time>2026-05-01T15:14:36.513Z</time></trkpt><trkpt lat="42.4556183" lon="14.1361717"><ele>178.83333333333334</ele><time>2026-05-01T15:14:37.512Z</time></trkpt><trkpt lat="42.4556933" lon="14.1361217"><ele>180.0</ele><time>2026-05-01T15:14:38.512Z</time></trkpt><trkpt lat="42.4557817" lon="14.1360667"><ele>180.0</ele><time>2026-05-01T15:14:39.514Z</time></trkpt><trkpt lat="42.4558683" lon="14.13601"><ele>180.0</ele><time>2026-05-01T15:14:40.512Z</time></trkpt><trkpt lat="42.4559417" lon="14.135935"><ele>180.0</ele><time>2026-05-01T15:14:41.515Z</time></trkpt><trkpt lat="42.456" lon="14.135845"><ele>180.0</ele><time>2026-05-01T15:14:42.513Z</time></trkpt><trkpt lat="42.456055" lon="14.1357433"><ele>180.0</ele><time>2026-05-01T15:14:43.513Z</time></trkpt><trkpt lat="42.4561117" lon="14.13564"><ele>182.8</ele><time>2026-05-01T15:14:44.516Z</time></trkpt><trkpt lat="42.4561683" lon="14.1355233"><ele>185.6</ele><time>2026-05-01T15:14:45.512Z</time></trkpt><trkpt lat="42.4562083" lon="14.1353917"><ele>188.39999999999998</ele><time>2026-05-01T15:14:46.51Z</time></trkpt><trkpt lat="42.456245" lon="14.1352533"><ele>191.2</ele><time>2026-05-01T15:14:47.514Z</time></trkpt><trkpt lat="42.45629" lon="14.13511"><ele>194.0</ele><time>2026-05-01T15:14:48.514Z</time></trkpt><trkpt lat="42.4563383" lon="14.1349617"><ele>187.5</ele><time>2026-05-01T15:14:49.514Z</time></trkpt><trkpt lat="42.4563867" lon="14.13481"><ele>181.0</ele><time>2026-05-01T15:14:50.513Z</time></trkpt><trkpt lat="42.4564383" lon="14.13466"><ele>174.5</ele><time>2026-05-01T15:14:51.512Z</time></trkpt><trkpt lat="42.4564933" lon="14.1345083"><ele>168.0</ele><time>2026-05-01T15:14:52.513Z</time></trkpt><trkpt lat="42.4565517" lon="14.13435"><ele>168.0</ele><time>2026-05-01T15:14:53.512Z</time></trkpt><trkpt lat="42.456605" lon="14.1341817"><ele>168.0</ele><time>2026-05-01T15:14:54.512Z</time></trkpt><trkpt lat="42.456655" lon="14.1340067"><ele>168.0</ele><time>2026-05-01T15:14:55.511Z</time></trkpt><trkpt lat="42.4566983" lon="14.1338283"><ele>168.0</ele><time>2026-05-01T15:14:56.51Z</time></trkpt><trkpt lat="42.45673" lon="14.1336483"><ele>168.0</ele><time>2026-05-01T15:14:57.51Z</time></trkpt><trkpt lat="42.4567583" lon="14.1334783"><ele>168.0</ele><time>2026-05-01T15:14:58.51Z</time></trkpt><trkpt lat="42.4567817" lon="14.1333083"><ele>168.0</ele><time>2026-05-01T15:14:59.511Z</time></trkpt><trkpt lat="42.4568033" lon="14.1331283"><ele>168.0</ele><time>2026-05-01T15:15:00.512Z</time></trkpt><trkpt lat="42.45683" lon="14.1329367"><ele>167.33333333333334</ele><time>2026-05-01T15:15:01.513Z</time></trkpt><trkpt lat="42.4568667" lon="14.13274"><ele>166.66666666666669</ele><time>2026-05-01T15:15:02.513Z</time></trkpt><trkpt lat="42.4569183" lon="14.13254"><ele>166.0</ele><time>2026-05-01T15:15:03.513Z</time></trkpt><trkpt lat="42.45698" lon="14.132345"><ele>166.0</ele><time>2026-05-01T15:15:04.51Z</time></trkpt><trkpt lat="42.457045" lon="14.132145"><ele>166.0</ele><time>2026-05-01T15:15:05.515Z</time></trkpt><trkpt lat="42.4571233" lon="14.1319533"><ele>166.0</ele><time>2026-05-01T15:15:06.511Z</time></trkpt><trkpt lat="42.4572033" lon="14.13177"><ele>164.5</ele><time>2026-05-01T15:15:07.51Z</time></trkpt><trkpt lat="42.45728" lon="14.1315983"><ele>163.0</ele><time>2026-05-01T15:15:08.512Z</time></trkpt><trkpt lat="42.45735" lon="14.1314333"><ele>161.5</ele><time>2026-05-01T15:15:09.513Z</time></trkpt><trkpt lat="42.4574183" lon="14.1312683"><ele>160.0</ele><time>2026-05-01T15:15:10.512Z</time></trkpt><trkpt lat="42.45749" lon="14.1311067"><ele>160.0</ele><time>2026-05-01T15:15:11.516Z</time></trkpt><trkpt lat="42.4575683" lon="14.1309467"><ele>160.0</ele><time>2026-05-01T15:15:12.512Z</time></trkpt><trkpt lat="42.45766" lon="14.1307933"><ele>160.0</ele><time>2026-05-01T15:15:13.515Z</time></trkpt><trkpt lat="42.45777" lon="14.13065"><ele>160.0</ele><time>2026-05-01T15:15:14.515Z</time></trkpt><trkpt lat="42.4578867" lon="14.1305033"><ele>159.33333333333334</ele><time>2026-05-01T15:15:15.512Z</time></trkpt><trkpt lat="42.458" lon="14.1303717"><ele>158.66666666666666</ele><time>2026-05-01T15:15:16.511Z</time></trkpt><trkpt lat="42.4581133" lon="14.1302417"><ele>158.0</ele><time>2026-05-01T15:15:17.51Z</time></trkpt><trkpt lat="42.4582267" lon="14.1301033"><ele>158.0</ele><time>2026-05-01T15:15:18.51Z</time></trkpt><trkpt lat="42.4583367" lon="14.1299517"><ele>158.0</ele><time>2026-05-01T15:15:19.512Z</time></trkpt><trkpt lat="42.458435" lon="14.1297833"><ele>158.0</ele><time>2026-05-01T15:15:20.514Z</time></trkpt><trkpt lat="42.4585167" lon="14.1296033"><ele>158.5</ele><time>2026-05-01T15:15:21.516Z</time></trkpt><trkpt lat="42.4585817" lon="14.1294167"><ele>159.0</ele><time>2026-05-01T15:15:22.511Z</time></trkpt><trkpt lat="42.4586383" lon="14.1292383"><ele>159.5</ele><time>2026-05-01T15:15:23.514Z</time></trkpt><trkpt lat="42.458675" lon="14.1290633"><ele>160.0</ele><time>2026-05-01T15:15:24.515Z</time></trkpt><trkpt lat="42.45869" lon="14.1288867"><ele>160.75</ele><time>2026-05-01T15:15:25.512Z</time></trkpt><trkpt lat="42.458685" lon="14.1287017"><ele>161.5</ele><time>2026-05-01T15:15:26.513Z</time></trkpt><trkpt lat="42.4586567" lon="14.1285083"><ele>162.25</ele><time>2026-05-01T15:15:27.513Z</time></trkpt><trkpt lat="42.4586067" lon="14.1283167"><ele>163.0</ele><time>2026-05-01T15:15:28.511Z</time></trkpt><trkpt lat="42.4585483" lon="14.1281267"><ele>163.0</ele><time>2026-05-01T15:15:29.509Z</time></trkpt><trkpt lat="42.4584867" lon="14.1279433"><ele>163.0</ele><time>2026-05-01T15:15:30.511Z</time></trkpt><trkpt lat="42.4584267" lon="14.127775"><ele>163.0</ele><time>2026-05-01T15:15:31.514Z</time></trkpt><trkpt lat="42.45837" lon="14.12762"><ele>163.0</ele><time>2026-05-01T15:15:32.514Z</time></trkpt><trkpt lat="42.4583117" lon="14.12748"><ele>161.6</ele><time>2026-05-01T15:15:33.512Z</time></trkpt><trkpt lat="42.4582417" lon="14.1273583"><ele>160.20000000000002</ele><time>2026-05-01T15:15:34.512Z</time></trkpt><trkpt lat="42.4581617" lon="14.127265"><ele>158.8</ele><time>2026-05-01T15:15:35.513Z</time></trkpt><trkpt lat="42.4580767" lon="14.1271833"><ele>157.4</ele><time>2026-05-01T15:15:36.515Z</time></trkpt><trkpt lat="42.4579867" lon="14.1270983"><ele>156.0</ele><time>2026-05-01T15:15:37.512Z</time></trkpt><trkpt lat="42.4579" lon="14.12699"><ele>156.0</ele><time>2026-05-01T15:15:38.513Z</time></trkpt><trkpt lat="42.4578183" lon="14.12685"><ele>156.0</ele><time>2026-05-01T15:15:39.512Z</time></trkpt><trkpt lat="42.4577383" lon="14.126695"><ele>156.0</ele><time>2026-05-01T15:15:40.512Z</time></trkpt><trkpt lat="42.45767" lon="14.12655"><ele>156.0</ele><time>2026-05-01T15:15:41.51Z</time></trkpt><trkpt lat="42.4576067" lon="14.126415"><ele>158.75</ele><time>2026-05-01T15:15:42.513Z</time></trkpt><trkpt lat="42.457545" lon="14.1262817"><ele>161.5</ele><time>2026-05-01T15:15:43.516Z</time></trkpt><trkpt lat="42.4574817" lon="14.12614"><ele>164.25</ele><time>2026-05-01T15:15:44.513Z</time></trkpt><trkpt lat="42.4574217" lon="14.1259883"><ele>167.0</ele><time>2026-05-01T15:15:45.508Z</time></trkpt><trkpt lat="42.4573617" lon="14.12583"><ele>168.75</ele><time>2026-05-01T15:15:46.51Z</time></trkpt><trkpt lat="42.4573167" lon="14.125665"><ele>170.5</ele><time>2026-05-01T15:15:47.509Z</time></trkpt><trkpt lat="42.4572817" lon="14.1255"><ele>172.25</ele><time>2026-05-01T15:15:48.513Z</time></trkpt><trkpt lat="42.457255" lon="14.1253333"><ele>174.0</ele><time>2026-05-01T15:15:49.512Z</time></trkpt><trkpt lat="42.4572433" lon="14.125155"><ele>174.0</ele><time>2026-05-01T15:15:50.513Z</time></trkpt><trkpt lat="42.457245" lon="14.12497"><ele>174.0</ele><time>2026-05-01T15:15:51.513Z</time></trkpt><trkpt lat="42.45726" lon="14.1247733"><ele>174.0</ele><time>2026-05-01T15:15:52.512Z</time></trkpt><trkpt lat="42.4572833" lon="14.12456"><ele>174.0</ele><time>2026-05-01T15:15:53.515Z</time></trkpt><trkpt lat="42.45732" lon="14.12433"><ele>173.0</ele><time>2026-05-01T15:15:54.514Z</time></trkpt><trkpt lat="42.4573733" lon="14.1240917"><ele>172.0</ele><time>2026-05-01T15:15:55.512Z</time></trkpt><trkpt lat="42.4574333" lon="14.1238567"><ele>171.0</ele><time>2026-05-01T15:15:56.512Z</time></trkpt><trkpt lat="42.4574933" lon="14.123635"><ele>168.66666666666666</ele><time>2026-05-01T15:15:57.512Z</time></trkpt><trkpt lat="42.45755" lon="14.123425"><ele>166.33333333333331</ele><time>2026-05-01T15:15:58.51Z</time></trkpt><trkpt lat="42.457605" lon="14.1232267"><ele>164.0</ele><time>2026-05-01T15:15:59.511Z</time></trkpt><trkpt lat="42.4576567" lon="14.123045"><ele>163.5</ele><time>2026-05-01T15:16:00.509Z</time></trkpt><trkpt lat="42.4577033" lon="14.1228733"><ele>163.0</ele><time>2026-05-01T15:16:01.508Z</time></trkpt><trkpt lat="42.4577533" lon="14.1227117"><ele>162.5</ele><time>2026-05-01T15:16:02.508Z</time></trkpt><trkpt lat="42.4578033" lon="14.1225617"><ele>162.0</ele><time>2026-05-01T15:16:03.512Z</time></trkpt><trkpt lat="42.45786" lon="14.122415"><ele>161.5</ele><time>2026-05-01T15:16:04.511Z</time></trkpt><trkpt lat="42.45793" lon="14.1222667"><ele>161.0</ele><time>2026-05-01T15:16:05.512Z</time></trkpt><trkpt lat="42.45801" lon="14.12212"><ele>160.5</ele><time>2026-05-01T15:16:06.511Z</time></trkpt><trkpt lat="42.4581067" lon="14.1219717"><ele>160.0</ele><time>2026-05-01T15:16:07.51Z</time></trkpt><trkpt lat="42.458215" lon="14.1218317"><ele>160.0</ele><time>2026-05-01T15:16:08.511Z</time></trkpt><trkpt lat="42.45833" lon="14.12169"><ele>160.0</ele><time>2026-05-01T15:16:09.509Z</time></trkpt><trkpt lat="42.45845" lon="14.1215517"><ele>160.0</ele><time>2026-05-01T15:16:10.509Z</time></trkpt><trkpt lat="42.4585733" lon="14.12142"><ele>160.0</ele><time>2026-05-01T15:16:11.509Z</time></trkpt><trkpt lat="42.458695" lon="14.1212933"><ele>160.0</ele><time>2026-05-01T15:16:12.509Z</time></trkpt><trkpt lat="42.4588117" lon="14.121165"><ele>160.0</ele><time>2026-05-01T15:16:13.514Z</time></trkpt><trkpt lat="42.4589283" lon="14.12104"><ele>160.0</ele><time>2026-05-01T15:16:14.512Z</time></trkpt><trkpt lat="42.4590433" lon="14.120915"><ele>160.0</ele><time>2026-05-01T15:16:15.511Z</time></trkpt><trkpt lat="42.459155" lon="14.1207883"><ele>160.0</ele><time>2026-05-01T15:16:16.509Z</time></trkpt><trkpt lat="42.4592633" lon="14.1206683"><ele>160.0</ele><time>2026-05-01T15:16:17.51Z</time></trkpt><trkpt lat="42.4593667" lon="14.1205617"><ele>160.0</ele><time>2026-05-01T15:16:18.51Z</time></trkpt><trkpt lat="42.4594667" lon="14.120465"><ele>160.0</ele><time>2026-05-01T15:16:19.511Z</time></trkpt><trkpt lat="42.4595583" lon="14.1203717"><ele>160.0</ele><time>2026-05-01T15:16:20.511Z</time></trkpt><trkpt lat="42.45964" lon="14.120295"><ele>160.0</ele><time>2026-05-01T15:16:21.514Z</time></trkpt><trkpt lat="42.4597133" lon="14.1202283"><ele>160.0</ele><time>2026-05-01T15:16:22.511Z</time></trkpt><trkpt lat="42.4597767" lon="14.120175"><ele>160.0</ele><time>2026-05-01T15:16:23.513Z</time></trkpt><trkpt lat="42.4598517" lon="14.120125"><ele>160.0</ele><time>2026-05-01T15:16:25.514Z</time></trkpt><trkpt lat="42.4599133" lon="14.1200967"><ele>160.0</ele><time>2026-05-01T15:16:27.512Z</time></trkpt><trkpt lat="42.4600417" lon="14.1200467"><ele>160.0</ele><time>2026-05-01T15:16:29.515Z</time></trkpt><trkpt lat="42.460125" lon="14.120015"><ele>160.0</ele><time>2026-05-01T15:16:30.512Z</time></trkpt><trkpt lat="42.4602383" lon="14.1200283"><ele>160.0</ele><time>2026-05-01T15:16:31.509Z</time></trkpt><trkpt lat="42.4603583" lon="14.1200667"><ele>160.0</ele><time>2026-05-01T15:16:32.51Z</time></trkpt><trkpt lat="42.4604883" lon="14.1201183"><ele>160.0</ele><time>2026-05-01T15:16:33.509Z</time></trkpt><trkpt lat="42.46064" lon="14.1201767"><ele>160.0</ele><time>2026-05-01T15:16:34.509Z</time></trkpt><trkpt lat="42.4608133" lon="14.12023"><ele>160.66666666666669</ele><time>2026-05-01T15:16:35.513Z</time></trkpt><trkpt lat="42.4610017" lon="14.12028"><ele>161.33333333333334</ele><time>2026-05-01T15:16:36.513Z</time></trkpt><trkpt lat="42.4611983" lon="14.1203483"><ele>162.0</ele><time>2026-05-01T15:16:37.51Z</time></trkpt><trkpt lat="42.4614033" lon="14.1204533"><ele>164.33333333333334</ele><time>2026-05-01T15:16:38.51Z</time></trkpt><trkpt lat="42.461605" lon="14.1205867"><ele>166.66666666666669</ele><time>2026-05-01T15:16:39.511Z</time></trkpt><trkpt lat="42.4617833" lon="14.1207183"><ele>169.0</ele><time>2026-05-01T15:16:40.512Z</time></trkpt><trkpt lat="42.461945" lon="14.120835"><ele>168.0</ele><time>2026-05-01T15:16:41.512Z</time></trkpt><trkpt lat="42.462095" lon="14.1209417"><ele>167.0</ele><time>2026-05-01T15:16:42.512Z</time></trkpt><trkpt lat="42.4622383" lon="14.1210433"><ele>166.0</ele><time>2026-05-01T15:16:43.509Z</time></trkpt><trkpt lat="42.46238" lon="14.121145"><ele>166.0</ele><time>2026-05-01T15:16:44.512Z</time></trkpt><trkpt lat="42.462515" lon="14.1212417"><ele>166.0</ele><time>2026-05-01T15:16:45.514Z</time></trkpt><trkpt lat="42.4626433" lon="14.12134"><ele>166.0</ele><time>2026-05-01T15:16:46.509Z</time></trkpt><trkpt lat="42.4627683" lon="14.12143"><ele>166.0</ele><time>2026-05-01T15:16:47.512Z</time></trkpt><trkpt lat="42.46288" lon="14.1215133"><ele>163.25</ele><time>2026-05-01T15:16:48.51Z</time></trkpt><trkpt lat="42.4629833" lon="14.1215983"><ele>160.5</ele><time>2026-05-01T15:16:49.513Z</time></trkpt><trkpt lat="42.4630867" lon="14.121675"><ele>157.75</ele><time>2026-05-01T15:16:50.517Z</time></trkpt><trkpt lat="42.4631917" lon="14.1217533"><ele>155.0</ele><time>2026-05-01T15:16:51.513Z</time></trkpt><trkpt lat="42.4632967" lon="14.12183"><ele>155.0</ele><time>2026-05-01T15:16:52.51Z</time></trkpt><trkpt lat="42.4634017" lon="14.1219083"><ele>155.0</ele><time>2026-05-01T15:16:53.51Z</time></trkpt><trkpt lat="42.4635067" lon="14.1219833"><ele>155.0</ele><time>2026-05-01T15:16:54.51Z</time></trkpt><trkpt lat="42.4636083" lon="14.1220583"><ele>155.0</ele><time>2026-05-01T15:16:55.513Z</time></trkpt><trkpt lat="42.4637083" lon="14.1221433"><ele>154.0</ele><time>2026-05-01T15:16:56.514Z</time></trkpt><trkpt lat="42.46381" lon="14.1222467"><ele>153.0</ele><time>2026-05-01T15:16:57.51Z</time></trkpt><trkpt lat="42.46391" lon="14.12238"><ele>152.0</ele><time>2026-05-01T15:16:58.512Z</time></trkpt><trkpt lat="42.4640017" lon="14.1225433"><ele>151.0</ele><time>2026-05-01T15:16:59.511Z</time></trkpt><trkpt lat="42.4640867" lon="14.122715"><ele>150.5</ele><time>2026-05-01T15:17:00.508Z</time></trkpt><trkpt lat="42.4641567" lon="14.1228917"><ele>150.0</ele><time>2026-05-01T15:17:01.514Z</time></trkpt><trkpt lat="42.46422" lon="14.1230633"><ele>149.5</ele><time>2026-05-01T15:17:02.512Z</time></trkpt><trkpt lat="42.4642783" lon="14.123235"><ele>149.0</ele><time>2026-05-01T15:17:03.511Z</time></trkpt><trkpt lat="42.464335" lon="14.1234233"><ele>149.0</ele><time>2026-05-01T15:17:04.513Z</time></trkpt><trkpt lat="42.4643817" lon="14.1236167"><ele>149.0</ele><time>2026-05-01T15:17:05.513Z</time></trkpt><trkpt lat="42.4644317" lon="14.1237917"><ele>149.0</ele><time>2026-05-01T15:17:06.514Z</time></trkpt><trkpt lat="42.46449" lon="14.12396"><ele>149.0</ele><time>2026-05-01T15:17:07.512Z</time></trkpt><trkpt lat="42.4645667" lon="14.1241183"><ele>147.0</ele><time>2026-05-01T15:17:08.509Z</time></trkpt><trkpt lat="42.4646567" lon="14.124265"><ele>145.0</ele><time>2026-05-01T15:17:09.509Z</time></trkpt><trkpt lat="42.464755" lon="14.124395"><ele>143.0</ele><time>2026-05-01T15:17:10.511Z</time></trkpt><trkpt lat="42.4648567" lon="14.1245233"><ele>141.0</ele><time>2026-05-01T15:17:11.51Z</time></trkpt><trkpt lat="42.4649517" lon="14.124655"><ele>141.0</ele><time>2026-05-01T15:17:12.512Z</time></trkpt><trkpt lat="42.4650433" lon="14.1247867"><ele>141.0</ele><time>2026-05-01T15:17:13.512Z</time></trkpt><trkpt lat="42.4651267" lon="14.1249233"><ele>141.0</ele><time>2026-05-01T15:17:14.51Z</time></trkpt><trkpt lat="42.4652067" lon="14.1250683"><ele>141.0</ele><time>2026-05-01T15:17:15.511Z</time></trkpt><trkpt lat="42.4652933" lon="14.1252217"><ele>141.5</ele><time>2026-05-01T15:17:16.51Z</time></trkpt><trkpt lat="42.4653867" lon="14.1253717"><ele>142.0</ele><time>2026-05-01T15:17:17.513Z</time></trkpt><trkpt lat="42.4654833" lon="14.125515"><ele>142.5</ele><time>2026-05-01T15:17:18.512Z</time></trkpt><trkpt lat="42.4655817" lon="14.12565"><ele>143.0</ele><time>2026-05-01T15:17:19.51Z</time></trkpt><trkpt lat="42.46568" lon="14.125775"><ele>143.0</ele><time>2026-05-01T15:17:20.51Z</time></trkpt><trkpt lat="42.4657817" lon="14.125885"><ele>143.0</ele><time>2026-05-01T15:17:21.511Z</time></trkpt><trkpt lat="42.4658867" lon="14.1259833"><ele>143.0</ele><time>2026-05-01T15:17:22.512Z</time></trkpt><trkpt lat="42.466005" lon="14.126065"><ele>143.0</ele><time>2026-05-01T15:17:23.512Z</time></trkpt><trkpt lat="42.4661383" lon="14.12611"><ele>143.0</ele><time>2026-05-01T15:17:24.512Z</time></trkpt><trkpt lat="42.4662717" lon="14.1261317"><ele>143.0</ele><time>2026-05-01T15:17:25.508Z</time></trkpt><trkpt lat="42.4663983" lon="14.126155"><ele>143.0</ele><time>2026-05-01T15:17:26.516Z</time></trkpt><trkpt lat="42.4665183" lon="14.1261867"><ele>143.0</ele><time>2026-05-01T15:17:27.513Z</time></trkpt><trkpt lat="42.4666267" lon="14.1262233"><ele>142.0</ele><time>2026-05-01T15:17:28.51Z</time></trkpt><trkpt lat="42.466725" lon="14.1263"><ele>141.0</ele><time>2026-05-01T15:17:29.51Z</time></trkpt><trkpt lat="42.4668133" lon="14.1264267"><ele>140.0</ele><time>2026-05-01T15:17:30.51Z</time></trkpt><trkpt lat="42.4668867" lon="14.1265783"><ele>139.0</ele><time>2026-05-01T15:17:31.51Z</time></trkpt><trkpt lat="42.466965" lon="14.12673"><ele>139.0</ele><time>2026-05-01T15:17:32.511Z</time></trkpt><trkpt lat="42.4670483" lon="14.1268817"><ele>139.0</ele><time>2026-05-01T15:17:33.509Z</time></trkpt><trkpt lat="42.4671217" lon="14.127035"><ele>139.0</ele><time>2026-05-01T15:17:34.512Z</time></trkpt><trkpt lat="42.46719" lon="14.1271883"><ele>139.0</ele><time>2026-05-01T15:17:35.509Z</time></trkpt><trkpt lat="42.4672533" lon="14.1273467"><ele>140.5</ele><time>2026-05-01T15:17:36.513Z</time></trkpt><trkpt lat="42.46732" lon="14.1275033"><ele>142.0</ele><time>2026-05-01T15:17:37.511Z</time></trkpt><trkpt lat="42.4673833" lon="14.1276683"><ele>143.5</ele><time>2026-05-01T15:17:38.512Z</time></trkpt><trkpt lat="42.4674467" lon="14.1278417"><ele>145.0</ele><time>2026-05-01T15:17:39.51Z</time></trkpt><trkpt lat="42.4675133" lon="14.1280133"><ele>145.0</ele><time>2026-05-01T15:17:40.51Z</time></trkpt><trkpt lat="42.4675783" lon="14.1281883"><ele>145.0</ele><time>2026-05-01T15:17:41.51Z</time></trkpt><trkpt lat="42.4676417" lon="14.1283517"><ele>145.0</ele><time>2026-05-01T15:17:42.51Z</time></trkpt><trkpt lat="42.4677033" lon="14.128495"><ele>145.0</ele><time>2026-05-01T15:17:43.512Z</time></trkpt><trkpt lat="42.4677733" lon="14.1286233"><ele>145.5</ele><time>2026-05-01T15:17:44.512Z</time></trkpt><trkpt lat="42.4678617" lon="14.1287267"><ele>146.0</ele><time>2026-05-01T15:17:45.511Z</time></trkpt><trkpt lat="42.46798" lon="14.1287867"><ele>146.5</ele><time>2026-05-01T15:17:46.508Z</time></trkpt><trkpt lat="42.4681067" lon="14.1288217"><ele>147.0</ele><time>2026-05-01T15:17:47.511Z</time></trkpt><trkpt lat="42.46822" lon="14.1288683"><ele>149.5</ele><time>2026-05-01T15:17:48.51Z</time></trkpt><trkpt lat="42.4683317" lon="14.128905"><ele>152.0</ele><time>2026-05-01T15:17:49.511Z</time></trkpt><trkpt lat="42.4684417" lon="14.128945"><ele>154.5</ele><time>2026-05-01T15:17:50.512Z</time></trkpt><trkpt lat="42.4685517" lon="14.1289917"><ele>157.0</ele><time>2026-05-01T15:17:51.514Z</time></trkpt><trkpt lat="42.4686617" lon="14.1290333"><ele>155.25</ele><time>2026-05-01T15:17:52.511Z</time></trkpt><trkpt lat="42.4687767" lon="14.1290817"><ele>153.5</ele><time>2026-05-01T15:17:53.515Z</time></trkpt><trkpt lat="42.4689" lon="14.1291267"><ele>151.75</ele><time>2026-05-01T15:17:54.509Z</time></trkpt><trkpt lat="42.4690267" lon="14.1291717"><ele>150.0</ele><time>2026-05-01T15:17:55.508Z</time></trkpt><trkpt lat="42.4691517" lon="14.129215"><ele>150.0</ele><time>2026-05-01T15:17:56.511Z</time></trkpt><trkpt lat="42.4692733" lon="14.1292767"><ele>150.0</ele><time>2026-05-01T15:17:57.51Z</time></trkpt><trkpt lat="42.4693933" lon="14.1293667"><ele>150.0</ele><time>2026-05-01T15:17:58.515Z</time></trkpt><trkpt lat="42.4695033" lon="14.1294833"><ele>150.0</ele><time>2026-05-01T15:17:59.512Z</time></trkpt><trkpt lat="42.4696117" lon="14.1295983"><ele>150.0</ele><time>2026-05-01T15:18:00.51Z</time></trkpt><trkpt lat="42.46972" lon="14.1297117"><ele>150.0</ele><time>2026-05-01T15:18:01.513Z</time></trkpt><trkpt lat="42.469825" lon="14.1298283"><ele>150.0</ele><time>2026-05-01T15:18:02.512Z</time></trkpt><trkpt lat="42.4699333" lon="14.1299517"><ele>150.0</ele><time>2026-05-01T15:18:03.512Z</time></trkpt><trkpt lat="42.4700417" lon="14.1300767"><ele>150.0</ele><time>2026-05-01T15:18:04.511Z</time></trkpt><trkpt lat="42.47015" lon="14.1302083"><ele>150.0</ele><time>2026-05-01T15:18:05.517Z</time></trkpt><trkpt lat="42.470255" lon="14.1303417"><ele>150.0</ele><time>2026-05-01T15:18:06.513Z</time></trkpt><trkpt lat="42.47036" lon="14.1304717"><ele>150.0</ele><time>2026-05-01T15:18:07.515Z</time></trkpt><trkpt lat="42.470465" lon="14.1306"><ele>148.5</ele><time>2026-05-01T15:18:08.512Z</time></trkpt><trkpt lat="42.4705733" lon="14.1307283"><ele>147.0</ele><time>2026-05-01T15:18:09.512Z</time></trkpt><trkpt lat="42.47068" lon="14.1308617"><ele>145.5</ele><time>2026-05-01T15:18:10.515Z</time></trkpt><trkpt lat="42.47078" lon="14.1309983"><ele>144.0</ele><time>2026-05-01T15:18:11.511Z</time></trkpt><trkpt lat="42.47088" lon="14.1311317"><ele>144.0</ele><time>2026-05-01T15:18:12.509Z</time></trkpt><trkpt lat="42.4709817" lon="14.131265"><ele>144.0</ele><time>2026-05-01T15:18:13.509Z</time></trkpt><trkpt lat="42.4710867" lon="14.131395"><ele>144.0</ele><time>2026-05-01T15:18:14.509Z</time></trkpt><trkpt lat="42.4711833" lon="14.1315333"><ele>144.0</ele><time>2026-05-01T15:18:15.515Z</time></trkpt><trkpt lat="42.471285" lon="14.131665"><ele>143.5</ele><time>2026-05-01T15:18:16.51Z</time></trkpt><trkpt lat="42.4713833" lon="14.1317983"><ele>143.0</ele><time>2026-05-01T15:18:17.51Z</time></trkpt><trkpt lat="42.4714733" lon="14.13194"><ele>142.5</ele><time>2026-05-01T15:18:18.509Z</time></trkpt><trkpt lat="42.471525" lon="14.1321067"><ele>142.0</ele><time>2026-05-01T15:18:19.509Z</time></trkpt><trkpt lat="42.4715467" lon="14.1322783"><ele>143.5</ele><time>2026-05-01T15:18:20.51Z</time></trkpt><trkpt lat="42.4715533" lon="14.1324583"><ele>145.0</ele><time>2026-05-01T15:18:21.509Z</time></trkpt><trkpt lat="42.4715633" lon="14.132645"><ele>146.5</ele><time>2026-05-01T15:18:22.51Z</time></trkpt><trkpt lat="42.4715917" lon="14.132835"><ele>148.0</ele><time>2026-05-01T15:18:23.51Z</time></trkpt><trkpt lat="42.4716433" lon="14.1330183"><ele>148.0</ele><time>2026-05-01T15:18:24.514Z</time></trkpt><trkpt lat="42.471715" lon="14.1331733"><ele>148.0</ele><time>2026-05-01T15:18:25.51Z</time></trkpt><trkpt lat="42.4718017" lon="14.1332917"><ele>148.0</ele><time>2026-05-01T15:18:26.513Z</time></trkpt><trkpt lat="42.471905" lon="14.1333633"><ele>148.0</ele><time>2026-05-01T15:18:27.512Z</time></trkpt><trkpt lat="42.47202" lon="14.1333967"><ele>150.5</ele><time>2026-05-01T15:18:28.51Z</time></trkpt><trkpt lat="42.4721367" lon="14.1334017"><ele>153.0</ele><time>2026-05-01T15:18:29.512Z</time></trkpt><trkpt lat="42.4722517" lon="14.1333983"><ele>155.5</ele><time>2026-05-01T15:18:30.513Z</time></trkpt><trkpt lat="42.4723667" lon="14.133405"><ele>158.0</ele><time>2026-05-01T15:18:31.512Z</time></trkpt><trkpt lat="42.4724767" lon="14.13345"><ele>158.0</ele><time>2026-05-01T15:18:32.51Z</time></trkpt><trkpt lat="42.47258" lon="14.1335317"><ele>158.0</ele><time>2026-05-01T15:18:33.512Z</time></trkpt><trkpt lat="42.4726717" lon="14.1336333"><ele>158.0</ele><time>2026-05-01T15:18:34.512Z</time></trkpt><trkpt lat="42.4727533" lon="14.133755"><ele>158.0</ele><time>2026-05-01T15:18:35.511Z</time></trkpt><trkpt lat="42.4728467" lon="14.1338467"><ele>160.0</ele><time>2026-05-01T15:18:36.511Z</time></trkpt><trkpt lat="42.4729433" lon="14.133925"><ele>162.0</ele><time>2026-05-01T15:18:37.514Z</time></trkpt><trkpt lat="42.4730483" lon="14.1339883"><ele>164.0</ele><time>2026-05-01T15:18:38.513Z</time></trkpt><trkpt lat="42.4731483" lon="14.1340583"><ele>166.0</ele><time>2026-05-01T15:18:39.51Z</time></trkpt><trkpt lat="42.473245" lon="14.1341417"><ele>166.0</ele><time>2026-05-01T15:18:40.512Z</time></trkpt><trkpt lat="42.4733333" lon="14.13424"><ele>166.0</ele><time>2026-05-01T15:18:41.512Z</time></trkpt><trkpt lat="42.4734133" lon="14.1343467"><ele>166.0</ele><time>2026-05-01T15:18:42.511Z</time></trkpt><trkpt lat="42.47348" lon="14.1344667"><ele>166.0</ele><time>2026-05-01T15:18:43.514Z</time></trkpt><trkpt lat="42.4735317" lon="14.1345917"><ele>166.0</ele><time>2026-05-01T15:18:44.51Z</time></trkpt><trkpt lat="42.4735583" lon="14.1347283"><ele>166.0</ele><time>2026-05-01T15:18:45.51Z</time></trkpt><trkpt lat="42.473575" lon="14.1348717"><ele>166.0</ele><time>2026-05-01T15:18:46.509Z</time></trkpt><trkpt lat="42.4735917" lon="14.1350217"><ele>166.0</ele><time>2026-05-01T15:18:47.509Z</time></trkpt><trkpt lat="42.4736267" lon="14.1351583"><ele>166.0</ele><time>2026-05-01T15:18:48.51Z</time></trkpt><trkpt lat="42.47367" lon="14.13528"><ele>166.0</ele><time>2026-05-01T15:18:49.511Z</time></trkpt><trkpt lat="42.473715" lon="14.1353933"><ele>169.75</ele><time>2026-05-01T15:18:50.509Z</time></trkpt><trkpt lat="42.4737867" lon="14.1354867"><ele>173.5</ele><time>2026-05-01T15:18:51.51Z</time></trkpt><trkpt lat="42.4738867" lon="14.1355533"><ele>177.25</ele><time>2026-05-01T15:18:52.513Z</time></trkpt><trkpt lat="42.4740017" lon="14.1356117"><ele>181.0</ele><time>2026-05-01T15:18:53.51Z</time></trkpt><trkpt lat="42.474125" lon="14.1356617"><ele>177.25</ele><time>2026-05-01T15:18:54.508Z</time></trkpt><trkpt lat="42.4742517" lon="14.1357283"><ele>173.5</ele><time>2026-05-01T15:18:55.51Z</time></trkpt><trkpt lat="42.4743767" lon="14.13581"><ele>169.75</ele><time>2026-05-01T15:18:56.51Z</time></trkpt><trkpt lat="42.4744883" lon="14.1359267"><ele>166.0</ele><time>2026-05-01T15:18:57.511Z</time></trkpt><trkpt lat="42.4745967" lon="14.1360417"><ele>170.25</ele><time>2026-05-01T15:18:58.512Z</time></trkpt><trkpt lat="42.4747117" lon="14.1361267"><ele>174.5</ele><time>2026-05-01T15:18:59.511Z</time></trkpt><trkpt lat="42.474835" lon="14.13617"><ele>178.75</ele><time>2026-05-01T15:19:00.513Z</time></trkpt><trkpt lat="42.474955" lon="14.1361917"><ele>183.0</ele><time>2026-05-01T15:19:01.509Z</time></trkpt><trkpt lat="42.4750633" lon="14.1362233"><ele>183.0</ele><time>2026-05-01T15:19:02.509Z</time></trkpt><trkpt lat="42.4751617" lon="14.1362817"><ele>183.0</ele><time>2026-05-01T15:19:03.509Z</time></trkpt><trkpt lat="42.4752383" lon="14.1363917"><ele>183.0</ele><time>2026-05-01T15:19:04.509Z</time></trkpt><trkpt lat="42.47531" lon="14.13652"><ele>183.0</ele><time>2026-05-01T15:19:05.509Z</time></trkpt><trkpt lat="42.4754017" lon="14.1366317"><ele>183.0</ele><time>2026-05-01T15:19:06.512Z</time></trkpt><trkpt lat="42.4755083" lon="14.1367217"><ele>183.0</ele><time>2026-05-01T15:19:07.513Z</time></trkpt><trkpt lat="42.4756167" lon="14.1368167"><ele>183.0</ele><time>2026-05-01T15:19:08.51Z</time></trkpt><trkpt lat="42.47573" lon="14.1369033"><ele>183.0</ele><time>2026-05-01T15:19:09.509Z</time></trkpt><trkpt lat="42.4758467" lon="14.1369917"><ele>183.0</ele><time>2026-05-01T15:19:10.512Z</time></trkpt><trkpt lat="42.47597" lon="14.137075"><ele>183.0</ele><time>2026-05-01T15:19:11.509Z</time></trkpt><trkpt lat="42.4760967" lon="14.1371567"><ele>183.0</ele><time>2026-05-01T15:19:12.509Z</time></trkpt><trkpt lat="42.4762217" lon="14.1372333"><ele>183.0</ele><time>2026-05-01T15:19:13.509Z</time></trkpt><trkpt lat="42.47635" lon="14.1373067"><ele>182.0</ele><time>2026-05-01T15:19:14.513Z</time></trkpt><trkpt lat="42.4764783" lon="14.13737"><ele>181.0</ele><time>2026-05-01T15:19:15.511Z</time></trkpt><trkpt lat="42.47661" lon="14.1374233"><ele>180.0</ele><time>2026-05-01T15:19:16.509Z</time></trkpt><trkpt lat="42.476745" lon="14.1374583"><ele>179.0</ele><time>2026-05-01T15:19:17.508Z</time></trkpt><trkpt lat="42.4768767" lon="14.1374733"><ele>179.0</ele><time>2026-05-01T15:19:18.512Z</time></trkpt><trkpt lat="42.4770117" lon="14.1374817"><ele>179.0</ele><time>2026-05-01T15:19:19.51Z</time></trkpt><trkpt lat="42.4771417" lon="14.137485"><ele>179.0</ele><time>2026-05-01T15:19:20.51Z</time></trkpt><trkpt lat="42.477265" lon="14.13748"><ele>179.0</ele><time>2026-05-01T15:19:21.512Z</time></trkpt><trkpt lat="42.4773767" lon="14.1374633"><ele>179.75</ele><time>2026-05-01T15:19:22.511Z</time></trkpt><trkpt lat="42.4774917" lon="14.1374333"><ele>180.5</ele><time>2026-05-01T15:19:23.524Z</time></trkpt><trkpt lat="42.47761" lon="14.1373933"><ele>181.25</ele><time>2026-05-01T15:19:24.514Z</time></trkpt><trkpt lat="42.47773" lon="14.1373383"><ele>182.0</ele><time>2026-05-01T15:19:25.511Z</time></trkpt><trkpt lat="42.4778517" lon="14.137285"><ele>178.5</ele><time>2026-05-01T15:19:26.51Z</time></trkpt><trkpt lat="42.4779683" lon="14.137235"><ele>175.0</ele><time>2026-05-01T15:19:27.51Z</time></trkpt><trkpt lat="42.47808" lon="14.1371917"><ele>171.5</ele><time>2026-05-01T15:19:28.51Z</time></trkpt><trkpt lat="42.4781917" lon="14.13718"><ele>168.0</ele><time>2026-05-01T15:19:29.509Z</time></trkpt><trkpt lat="42.4783033" lon="14.1372"><ele>168.0</ele><time>2026-05-01T15:19:30.509Z</time></trkpt><trkpt lat="42.478415" lon="14.1372567"><ele>168.0</ele><time>2026-05-01T15:19:31.507Z</time></trkpt><trkpt lat="42.4785333" lon="14.137315"><ele>168.0</ele><time>2026-05-01T15:19:32.51Z</time></trkpt><trkpt lat="42.4786567" lon="14.137345"><ele>168.0</ele><time>2026-05-01T15:19:33.509Z</time></trkpt><trkpt lat="42.47878" lon="14.1373233"><ele>167.75</ele><time>2026-05-01T15:19:34.509Z</time></trkpt><trkpt lat="42.4789" lon="14.13726"><ele>167.5</ele><time>2026-05-01T15:19:35.509Z</time></trkpt><trkpt lat="42.4790083" lon="14.1371867"><ele>167.25</ele><time>2026-05-01T15:19:36.511Z</time></trkpt><trkpt lat="42.479115" lon="14.137125"><ele>167.0</ele><time>2026-05-01T15:19:37.509Z</time></trkpt><trkpt lat="42.479215" lon="14.13706"><ele>167.0</ele><time>2026-05-01T15:19:38.509Z</time></trkpt><trkpt lat="42.4792967" lon="14.1369517"><ele>167.0</ele><time>2026-05-01T15:19:39.509Z</time></trkpt><trkpt lat="42.47937" lon="14.1368217"><ele>167.0</ele><time>2026-05-01T15:19:40.508Z</time></trkpt><trkpt lat="42.4794383" lon="14.1366867"><ele>167.0</ele><time>2026-05-01T15:19:41.511Z</time></trkpt><trkpt lat="42.4795117" lon="14.1365617"><ele>166.6</ele><time>2026-05-01T15:19:42.509Z</time></trkpt><trkpt lat="42.4795917" lon="14.1364533"><ele>166.2</ele><time>2026-05-01T15:19:43.511Z</time></trkpt><trkpt lat="42.4796783" lon="14.13636"><ele>165.8</ele><time>2026-05-01T15:19:44.514Z</time></trkpt><trkpt lat="42.4797583" lon="14.136265"><ele>165.4</ele><time>2026-05-01T15:19:45.509Z</time></trkpt><trkpt lat="42.4798333" lon="14.136155"><ele>165.0</ele><time>2026-05-01T15:19:46.511Z</time></trkpt><trkpt lat="42.4799033" lon="14.1360283"><ele>165.0</ele><time>2026-05-01T15:19:47.512Z</time></trkpt><trkpt lat="42.47996" lon="14.1358883"><ele>165.0</ele><time>2026-05-01T15:19:48.509Z</time></trkpt><trkpt lat="42.4799933" lon="14.135735"><ele>165.0</ele><time>2026-05-01T15:19:49.512Z</time></trkpt><trkpt lat="42.4800133" lon="14.1355817"><ele>165.0</ele><time>2026-05-01T15:19:50.516Z</time></trkpt><trkpt lat="42.4800467" lon="14.1354433"><ele>163.0</ele><time>2026-05-01T15:19:51.509Z</time></trkpt><trkpt lat="42.4801" lon="14.1353167"><ele>161.0</ele><time>2026-05-01T15:19:52.51Z</time></trkpt><trkpt lat="42.4801783" lon="14.1352017"><ele>159.0</ele><time>2026-05-01T15:19:53.51Z</time></trkpt><trkpt lat="42.4802667" lon="14.1350933"><ele>157.0</ele><time>2026-05-01T15:19:54.51Z</time></trkpt><trkpt lat="42.4803667" lon="14.134995"><ele>157.2</ele><time>2026-05-01T15:19:55.515Z</time></trkpt><trkpt lat="42.480455" lon="14.1349"><ele>157.39999999999998</ele><time>2026-05-01T15:19:56.51Z</time></trkpt><trkpt lat="42.4805483" lon="14.1348283"><ele>157.60000000000002</ele><time>2026-05-01T15:19:57.511Z</time></trkpt><trkpt lat="42.4806383" lon="14.1347817"><ele>157.8</ele><time>2026-05-01T15:19:58.513Z</time></trkpt><trkpt lat="42.4807333" lon="14.1347667"><ele>158.0</ele><time>2026-05-01T15:19:59.511Z</time></trkpt><trkpt lat="42.4808217" lon="14.1348083"><ele>158.0</ele><time>2026-05-01T15:20:00.51Z</time></trkpt><trkpt lat="42.4809017" lon="14.1348917"><ele>158.0</ele><time>2026-05-01T15:20:01.508Z</time></trkpt><trkpt lat="42.48098" lon="14.1349867"><ele>158.0</ele><time>2026-05-01T15:20:02.508Z</time></trkpt><trkpt lat="42.4810517" lon="14.1351033"><ele>158.0</ele><time>2026-05-01T15:20:03.512Z</time></trkpt><trkpt lat="42.4811167" lon="14.1352333"><ele>158.0</ele><time>2026-05-01T15:20:04.512Z</time></trkpt><trkpt lat="42.48117" lon="14.1353817"><ele>158.0</ele><time>2026-05-01T15:20:05.511Z</time></trkpt><trkpt lat="42.48122" lon="14.1355333"><ele>158.0</ele><time>2026-05-01T15:20:06.512Z</time></trkpt><trkpt lat="42.4812717" lon="14.1356867"><ele>158.0</ele><time>2026-05-01T15:20:07.515Z</time></trkpt><trkpt lat="42.4813367" lon="14.13584"><ele>158.0</ele><time>2026-05-01T15:20:08.511Z</time></trkpt><trkpt lat="42.4813933" lon="14.1359967"><ele>155.25</ele><time>2026-05-01T15:20:09.514Z</time></trkpt><trkpt lat="42.4814483" lon="14.136145"><ele>152.5</ele><time>2026-05-01T15:20:10.511Z</time></trkpt><trkpt lat="42.481505" lon="14.1362833"><ele>149.75</ele><time>2026-05-01T15:20:11.512Z</time></trkpt><trkpt lat="42.4815683" lon="14.1364067"><ele>147.0</ele><time>2026-05-01T15:20:12.51Z</time></trkpt><trkpt lat="42.4816417" lon="14.1365017"><ele>147.0</ele><time>2026-05-01T15:20:13.515Z</time></trkpt><trkpt lat="42.4817317" lon="14.1365567"><ele>147.0</ele><time>2026-05-01T15:20:14.512Z</time></trkpt><trkpt lat="42.4818317" lon="14.1365667"><ele>147.0</ele><time>2026-05-01T15:20:15.512Z</time></trkpt><trkpt lat="42.481935" lon="14.13653"><ele>147.0</ele><time>2026-05-01T15:20:16.514Z</time></trkpt><trkpt lat="42.4820283" lon="14.136455"><ele>147.0</ele><time>2026-05-01T15:20:17.513Z</time></trkpt><trkpt lat="42.482095" lon="14.136335"><ele>145.75</ele><time>2026-05-01T15:20:18.51Z</time></trkpt><trkpt lat="42.4821383" lon="14.1361783"><ele>144.5</ele><time>2026-05-01T15:20:19.51Z</time></trkpt><trkpt lat="42.4821783" lon="14.1360133"><ele>143.25</ele><time>2026-05-01T15:20:20.511Z</time></trkpt><trkpt lat="42.482215" lon="14.1358333"><ele>142.0</ele><time>2026-05-01T15:20:21.509Z</time></trkpt><trkpt lat="42.4822567" lon="14.1356433"><ele>141.0</ele><time>2026-05-01T15:20:22.511Z</time></trkpt><trkpt lat="42.482305" lon="14.1354483"><ele>140.0</ele><time>2026-05-01T15:20:23.514Z</time></trkpt><trkpt lat="42.4823533" lon="14.1352517"><ele>139.0</ele><time>2026-05-01T15:20:24.51Z</time></trkpt><trkpt lat="42.4824" lon="14.135055"><ele>138.5</ele><time>2026-05-01T15:20:25.513Z</time></trkpt><trkpt lat="42.4824433" lon="14.1348617"><ele>138.0</ele><time>2026-05-01T15:20:26.51Z</time></trkpt><trkpt lat="42.4824833" lon="14.1346717"><ele>137.5</ele><time>2026-05-01T15:20:27.51Z</time></trkpt><trkpt lat="42.4825183" lon="14.134485"><ele>137.0</ele><time>2026-05-01T15:20:28.514Z</time></trkpt><trkpt lat="42.4825483" lon="14.1343033"><ele>137.0</ele><time>2026-05-01T15:20:29.51Z</time></trkpt><trkpt lat="42.4825817" lon="14.134125"><ele>137.0</ele><time>2026-05-01T15:20:30.511Z</time></trkpt><trkpt lat="42.48262" lon="14.133945"><ele>137.0</ele><time>2026-05-01T15:20:31.515Z</time></trkpt><trkpt lat="42.4826583" lon="14.1337683"><ele>137.0</ele><time>2026-05-01T15:20:32.511Z</time></trkpt><trkpt lat="42.4826983" lon="14.1336017"><ele>136.0</ele><time>2026-05-01T15:20:33.513Z</time></trkpt><trkpt lat="42.4827517" lon="14.133455"><ele>135.0</ele><time>2026-05-01T15:20:34.512Z</time></trkpt><trkpt lat="42.4828333" lon="14.1333333"><ele>134.0</ele><time>2026-05-01T15:20:35.513Z</time></trkpt><trkpt lat="42.48295" lon="14.1332433"><ele>133.0</ele><time>2026-05-01T15:20:36.511Z</time></trkpt><trkpt lat="42.4831" lon="14.133165"><ele>131.66666666666669</ele><time>2026-05-01T15:20:37.512Z</time></trkpt><trkpt lat="42.4832567" lon="14.1330867"><ele>130.33333333333334</ele><time>2026-05-01T15:20:38.511Z</time></trkpt><trkpt lat="42.4834083" lon="14.1330083"><ele>129.0</ele><time>2026-05-01T15:20:39.509Z</time></trkpt><trkpt lat="42.4835483" lon="14.1329333"><ele>129.0</ele><time>2026-05-01T15:20:40.508Z</time></trkpt><trkpt lat="42.4836817" lon="14.1328617"><ele>129.0</ele><time>2026-05-01T15:20:41.508Z</time></trkpt><trkpt lat="42.4838083" lon="14.13279"><ele>129.0</ele><time>2026-05-01T15:20:42.511Z</time></trkpt><trkpt lat="42.4839367" lon="14.1327233"><ele>129.0</ele><time>2026-05-01T15:20:43.51Z</time></trkpt><trkpt lat="42.4840617" lon="14.1326667"><ele>128.0</ele><time>2026-05-01T15:20:44.511Z</time></trkpt><trkpt lat="42.484185" lon="14.1326067"><ele>127.0</ele><time>2026-05-01T15:20:45.51Z</time></trkpt><trkpt lat="42.4843167" lon="14.1325483"><ele>126.0</ele><time>2026-05-01T15:20:46.513Z</time></trkpt><trkpt lat="42.48445" lon="14.13249"><ele>125.0</ele><time>2026-05-01T15:20:47.511Z</time></trkpt><trkpt lat="42.4845783" lon="14.1324283"><ele>123.5</ele><time>2026-05-01T15:20:48.511Z</time></trkpt><trkpt lat="42.4846983" lon="14.1323717"><ele>122.0</ele><time>2026-05-01T15:20:49.51Z</time></trkpt><trkpt lat="42.4848117" lon="14.1323217"><ele>120.5</ele><time>2026-05-01T15:20:50.511Z</time></trkpt><trkpt lat="42.4849267" lon="14.132285"><ele>119.0</ele><time>2026-05-01T15:20:51.51Z</time></trkpt><trkpt lat="42.4850467" lon="14.1322883"><ele>119.0</ele><time>2026-05-01T15:20:52.509Z</time></trkpt><trkpt lat="42.4851633" lon="14.13232"><ele>119.0</ele><time>2026-05-01T15:20:53.511Z</time></trkpt><trkpt lat="42.4852767" lon="14.13238"><ele>119.0</ele><time>2026-05-01T15:20:54.509Z</time></trkpt><trkpt lat="42.4853867" lon="14.1324717"><ele>119.0</ele><time>2026-05-01T15:20:55.513Z</time></trkpt><trkpt lat="42.4854917" lon="14.132585"><ele>118.75</ele><time>2026-05-01T15:20:56.511Z</time></trkpt><trkpt lat="42.4855967" lon="14.1327167"><ele>118.5</ele><time>2026-05-01T15:20:57.517Z</time></trkpt><trkpt lat="42.4857067" lon="14.132855"><ele>118.25</ele><time>2026-05-01T15:20:58.51Z</time></trkpt><trkpt lat="42.48582" lon="14.132995"><ele>118.0</ele><time>2026-05-01T15:20:59.51Z</time></trkpt><trkpt lat="42.4859317" lon="14.13313"><ele>117.75</ele><time>2026-05-01T15:21:00.512Z</time></trkpt><trkpt lat="42.48604" lon="14.13325"><ele>117.5</ele><time>2026-05-01T15:21:01.511Z</time></trkpt><trkpt lat="42.4861417" lon="14.1333667"><ele>117.25</ele><time>2026-05-01T15:21:02.516Z</time></trkpt><trkpt lat="42.486235" lon="14.133475"><ele>117.0</ele><time>2026-05-01T15:21:03.511Z</time></trkpt><trkpt lat="42.4863217" lon="14.133575"><ele>117.0</ele><time>2026-05-01T15:21:04.51Z</time></trkpt><trkpt lat="42.4863967" lon="14.13367"><ele>117.0</ele><time>2026-05-01T15:21:05.511Z</time></trkpt><trkpt lat="42.4864567" lon="14.1337533"><ele>117.0</ele><time>2026-05-01T15:21:06.51Z</time></trkpt><trkpt lat="42.48651" lon="14.13383"><ele>117.0</ele><time>2026-05-01T15:21:07.513Z</time></trkpt><trkpt lat="42.486565" lon="14.1339067"><ele>117.0</ele><time>2026-05-01T15:21:08.512Z</time></trkpt><trkpt lat="42.4866233" lon="14.1339933"><ele>117.0</ele><time>2026-05-01T15:21:09.513Z</time></trkpt><trkpt lat="42.48667" lon="14.134115"><ele>117.0</ele><time>2026-05-01T15:21:10.509Z</time></trkpt><trkpt lat="42.4867" lon="14.1342817"><ele>117.0</ele><time>2026-05-01T15:21:11.511Z</time></trkpt><trkpt lat="42.486735" lon="14.134495"><ele>117.0</ele><time>2026-05-01T15:21:12.512Z</time></trkpt><trkpt lat="42.4867783" lon="14.1347433"><ele>117.0</ele><time>2026-05-01T15:21:13.514Z</time></trkpt><trkpt lat="42.48683" lon="14.1350233"><ele>117.0</ele><time>2026-05-01T15:21:14.511Z</time></trkpt><trkpt lat="42.4868933" lon="14.1353367"><ele>117.0</ele><time>2026-05-01T15:21:15.512Z</time></trkpt><trkpt lat="42.48696" lon="14.13567"><ele>117.0</ele><time>2026-05-01T15:21:16.512Z</time></trkpt><trkpt lat="42.48704" lon="14.135985"><ele>117.66666666666666</ele><time>2026-05-01T15:21:17.512Z</time></trkpt><trkpt lat="42.4871417" lon="14.13626"><ele>118.33333333333333</ele><time>2026-05-01T15:21:18.512Z</time></trkpt><trkpt lat="42.4872517" lon="14.1365083"><ele>119.0</ele><time>2026-05-01T15:21:19.515Z</time></trkpt><trkpt lat="42.4873433" lon="14.1367433"><ele>120.25</ele><time>2026-05-01T15:21:20.516Z</time></trkpt><trkpt lat="42.487415" lon="14.1369583"><ele>121.5</ele><time>2026-05-01T15:21:21.511Z</time></trkpt><trkpt lat="42.4874683" lon="14.13714"><ele>122.75</ele><time>2026-05-01T15:21:22.509Z</time></trkpt><trkpt lat="42.48751" lon="14.13729"><ele>124.0</ele><time>2026-05-01T15:21:23.514Z</time></trkpt><trkpt lat="42.4875567" lon="14.1374433"><ele>124.0</ele><time>2026-05-01T15:21:24.512Z</time></trkpt><trkpt lat="42.4876017" lon="14.137615"><ele>124.0</ele><time>2026-05-01T15:21:25.512Z</time></trkpt><trkpt lat="42.4876317" lon="14.1377967"><ele>124.0</ele><time>2026-05-01T15:21:26.512Z</time></trkpt><trkpt lat="42.48764" lon="14.137985"><ele>124.0</ele><time>2026-05-01T15:21:27.51Z</time></trkpt><trkpt lat="42.487635" lon="14.1381583"><ele>124.2</ele><time>2026-05-01T15:21:28.511Z</time></trkpt><trkpt lat="42.4876283" lon="14.1383067"><ele>124.4</ele><time>2026-05-01T15:21:29.509Z</time></trkpt><trkpt lat="42.48763" lon="14.13843"><ele>124.6</ele><time>2026-05-01T15:21:30.509Z</time></trkpt><trkpt lat="42.4876417" lon="14.1385417"><ele>124.8</ele><time>2026-05-01T15:21:31.51Z</time></trkpt><trkpt lat="42.48766" lon="14.1386483"><ele>125.0</ele><time>2026-05-01T15:21:32.51Z</time></trkpt><trkpt lat="42.48769" lon="14.1387617"><ele>125.0</ele><time>2026-05-01T15:21:33.509Z</time></trkpt><trkpt lat="42.48773" lon="14.1388767"><ele>125.0</ele><time>2026-05-01T15:21:34.512Z</time></trkpt><trkpt lat="42.4877783" lon="14.1389867"><ele>125.0</ele><time>2026-05-01T15:21:35.512Z</time></trkpt><trkpt lat="42.48784" lon="14.1390867"><ele>125.0</ele><time>2026-05-01T15:21:36.511Z</time></trkpt><trkpt lat="42.48791" lon="14.139175"><ele>125.0</ele><time>2026-05-01T15:21:37.51Z</time></trkpt><trkpt lat="42.487995" lon="14.1392483"><ele>127.25</ele><time>2026-05-01T15:21:38.597Z</time></trkpt><trkpt lat="42.4880983" lon="14.1393117"><ele>129.5</ele><time>2026-05-01T15:21:39.51Z</time></trkpt><trkpt lat="42.4882233" lon="14.1393617"><ele>131.75</ele><time>2026-05-01T15:21:40.514Z</time></trkpt><trkpt lat="42.4883733" lon="14.13939"><ele>134.0</ele><time>2026-05-01T15:21:41.509Z</time></trkpt><trkpt lat="42.4885267" lon="14.1393983"><ele>134.0</ele><time>2026-05-01T15:21:42.509Z</time></trkpt><trkpt lat="42.4886667" lon="14.1394"><ele>134.0</ele><time>2026-05-01T15:21:43.51Z</time></trkpt><trkpt lat="42.4887817" lon="14.1394033"><ele>134.0</ele><time>2026-05-01T15:21:44.51Z</time></trkpt><trkpt lat="42.4888783" lon="14.139415"><ele>134.0</ele><time>2026-05-01T15:21:45.518Z</time></trkpt><trkpt lat="42.4889667" lon="14.13944"><ele>134.0</ele><time>2026-05-01T15:21:46.512Z</time></trkpt><trkpt lat="42.489035" lon="14.13948"><ele>134.5</ele><time>2026-05-01T15:21:47.512Z</time></trkpt><trkpt lat="42.4890933" lon="14.1395217"><ele>135.0</ele><time>2026-05-01T15:21:48.511Z</time></trkpt><trkpt lat="42.4891517" lon="14.1395667"><ele>135.5</ele><time>2026-05-01T15:21:49.511Z</time></trkpt><trkpt lat="42.4892083" lon="14.139605"><ele>136.0</ele><time>2026-05-01T15:21:50.516Z</time></trkpt><trkpt lat="42.4893217" lon="14.13963"><ele>136.5</ele><time>2026-05-01T15:21:52.511Z</time></trkpt><trkpt lat="42.4894317" lon="14.1395617"><ele>137.0</ele><time>2026-05-01T15:21:54.512Z</time></trkpt><trkpt lat="42.4895033" lon="14.1395233"><ele>137.79999999999998</ele><time>2026-05-01T15:21:55.513Z</time></trkpt><trkpt lat="42.4895983" lon="14.1394983"><ele>138.6</ele><time>2026-05-01T15:21:56.51Z</time></trkpt><trkpt lat="42.4897067" lon="14.139475"><ele>139.39999999999998</ele><time>2026-05-01T15:21:57.509Z</time></trkpt><trkpt lat="42.4898117" lon="14.1394633"><ele>140.2</ele><time>2026-05-01T15:21:58.512Z</time></trkpt><trkpt lat="42.48991" lon="14.1394633"><ele>141.0</ele><time>2026-05-01T15:21:59.512Z</time></trkpt><trkpt lat="42.4899933" lon="14.139465"><ele>141.0</ele><time>2026-05-01T15:22:00.512Z</time></trkpt><trkpt lat="42.49007" lon="14.1394667"><ele>141.0</ele><time>2026-05-01T15:22:01.514Z</time></trkpt><trkpt lat="42.4901417" lon="14.1394667"><ele>141.0</ele><time>2026-05-01T15:22:02.514Z</time></trkpt><trkpt lat="42.490215" lon="14.1394767"><ele>141.0</ele><time>2026-05-01T15:22:03.51Z</time></trkpt><trkpt lat="42.4903" lon="14.1394867"><ele>141.0</ele><time>2026-05-01T15:22:04.511Z</time></trkpt><trkpt lat="42.4903917" lon="14.1394967"><ele>141.0</ele><time>2026-05-01T15:22:05.512Z</time></trkpt><trkpt lat="42.4904917" lon="14.139495"><ele>142.66666666666666</ele><time>2026-05-01T15:22:06.51Z</time></trkpt><trkpt lat="42.4906" lon="14.139495"><ele>144.33333333333334</ele><time>2026-05-01T15:22:07.51Z</time></trkpt><trkpt lat="42.4907" lon="14.13951"><ele>146.0</ele><time>2026-05-01T15:22:08.513Z</time></trkpt><trkpt lat="42.490785" lon="14.13954"><ele>147.66666666666669</ele><time>2026-05-01T15:22:09.509Z</time></trkpt><trkpt lat="42.4908483" lon="14.1395967"><ele>149.33333333333334</ele><time>2026-05-01T15:22:10.509Z</time></trkpt><trkpt lat="42.4908983" lon="14.139655"><ele>151.0</ele><time>2026-05-01T15:22:11.511Z</time></trkpt><trkpt lat="42.4909133" lon="14.1397667"><ele>152.33333333333334</ele><time>2026-05-01T15:22:12.513Z</time></trkpt><trkpt lat="42.4909183" lon="14.139925"><ele>153.66666666666666</ele><time>2026-05-01T15:22:13.51Z</time></trkpt><trkpt lat="42.49093" lon="14.1401667"><ele>155.0</ele><time>2026-05-01T15:22:14.51Z</time></trkpt><trkpt lat="42.49093" lon="14.1403967"><ele>155.0</ele><time>2026-05-01T15:22:15.515Z</time></trkpt><trkpt lat="42.4909317" lon="14.1405967"><ele>155.0</ele><time>2026-05-01T15:22:16.515Z</time></trkpt><trkpt lat="42.49095" lon="14.1407367"><ele>155.0</ele><time>2026-05-01T15:22:17.512Z</time></trkpt><trkpt lat="42.490985" lon="14.1408383"><ele>155.0</ele><time>2026-05-01T15:22:18.513Z</time></trkpt><trkpt lat="42.4910417" lon="14.1409133"><ele>155.0</ele><time>2026-05-01T15:22:19.511Z</time></trkpt><trkpt lat="42.4911067" lon="14.14095"><ele>155.0</ele><time>2026-05-01T15:22:20.511Z</time></trkpt><trkpt lat="42.49117" lon="14.1408567"><ele>155.0</ele><time>2026-05-01T15:22:21.512Z</time></trkpt><trkpt lat="42.4912167" lon="14.140775"><ele>155.0</ele><time>2026-05-01T15:22:22.512Z</time></trkpt><trkpt lat="42.4912533" lon="14.1407017"><ele>155.0</ele><time>2026-05-01T15:22:23.51Z</time></trkpt><trkpt lat="42.4912917" lon="14.1406"><ele>155.0</ele><time>2026-05-01T15:22:25.51Z</time></trkpt><trkpt lat="42.49134" lon="14.1404817"><ele>155.0</ele><time>2026-05-01T15:22:32.509Z</time></trkpt><trkpt lat="42.4913833" lon="14.1404133"><ele>156.2</ele><time>2026-05-01T15:22:34.509Z</time></trkpt><trkpt lat="42.49148" lon="14.14041"><ele>157.4</ele><time>2026-05-01T15:22:37.515Z</time></trkpt><trkpt lat="42.4915717" lon="14.1405417"><ele>158.60000000000002</ele><time>2026-05-01T15:22:39.512Z</time></trkpt><trkpt lat="42.4916117" lon="14.1406633"><ele>159.8</ele><time>2026-05-01T15:22:40.511Z</time></trkpt><trkpt lat="42.4916517" lon="14.1407817"><ele>161.0</ele><time>2026-05-01T15:22:41.51Z</time></trkpt><trkpt lat="42.4916917" lon="14.1409"><ele>161.0</ele><time>2026-05-01T15:22:42.514Z</time></trkpt><trkpt lat="42.4917283" lon="14.141015"><ele>161.0</ele><time>2026-05-01T15:22:43.511Z</time></trkpt><trkpt lat="42.491755" lon="14.14113"><ele>161.0</ele><time>2026-05-01T15:22:44.515Z</time></trkpt><trkpt lat="42.491765" lon="14.141245"><ele>161.0</ele><time>2026-05-01T15:22:45.512Z</time></trkpt><trkpt lat="42.4917617" lon="14.1413583"><ele>161.0</ele><time>2026-05-01T15:22:46.51Z</time></trkpt><trkpt lat="42.49176" lon="14.1414783"><ele>161.0</ele><time>2026-05-01T15:22:47.514Z</time></trkpt><trkpt lat="42.49174" lon="14.1416433"><ele>161.0</ele><time>2026-05-01T15:22:48.512Z</time></trkpt><trkpt lat="42.4916817" lon="14.14182"><ele>161.0</ele><time>2026-05-01T15:22:49.512Z</time></trkpt><trkpt lat="42.4916283" lon="14.141985"><ele>161.0</ele><time>2026-05-01T15:22:50.512Z</time></trkpt><trkpt lat="42.4916033" lon="14.1421367"><ele>161.0</ele><time>2026-05-01T15:22:51.511Z</time></trkpt><trkpt lat="42.4916133" lon="14.142285"><ele>160.20000000000002</ele><time>2026-05-01T15:22:52.511Z</time></trkpt><trkpt lat="42.49166" lon="14.142425"><ele>159.4</ele><time>2026-05-01T15:22:53.513Z</time></trkpt><trkpt lat="42.4917233" lon="14.14256"><ele>158.6</ele><time>2026-05-01T15:22:54.514Z</time></trkpt><trkpt lat="42.4917783" lon="14.1426733"><ele>157.8</ele><time>2026-05-01T15:22:55.511Z</time></trkpt><trkpt lat="42.4918067" lon="14.1427933"><ele>157.0</ele><time>2026-05-01T15:22:56.518Z</time></trkpt><trkpt lat="42.4918133" lon="14.14292"><ele>157.0</ele><time>2026-05-01T15:22:57.51Z</time></trkpt><trkpt lat="42.4917683" lon="14.1430283"><ele>157.0</ele><time>2026-05-01T15:22:58.51Z</time></trkpt><trkpt lat="42.4916683" lon="14.1431383"><ele>157.0</ele><time>2026-05-01T15:22:59.511Z</time></trkpt><trkpt lat="42.491605" lon="14.1432533"><ele>157.0</ele><time>2026-05-01T15:23:00.509Z</time></trkpt><trkpt lat="42.4915717" lon="14.1433817"><ele>157.0</ele><time>2026-05-01T15:23:01.517Z</time></trkpt><trkpt lat="42.4915767" lon="14.1435267"><ele>157.0</ele><time>2026-05-01T15:23:02.512Z</time></trkpt><trkpt lat="42.4916133" lon="14.14368"><ele>157.0</ele><time>2026-05-01T15:23:03.51Z</time></trkpt><trkpt lat="42.4916833" lon="14.14385"><ele>157.0</ele><time>2026-05-01T15:23:04.512Z</time></trkpt><trkpt lat="42.49177" lon="14.14399"><ele>157.0</ele><time>2026-05-01T15:23:05.515Z</time></trkpt><trkpt lat="42.4918717" lon="14.1441067"><ele>157.0</ele><time>2026-05-01T15:23:06.513Z</time></trkpt><trkpt lat="42.4920133" lon="14.1441883"><ele>157.0</ele><time>2026-05-01T15:23:07.51Z</time></trkpt><trkpt lat="42.49217" lon="14.144245"><ele>157.0</ele><time>2026-05-01T15:23:08.51Z</time></trkpt><trkpt lat="42.4923183" lon="14.1443133"><ele>150.75</ele><time>2026-05-01T15:23:09.51Z</time></trkpt><trkpt lat="42.492455" lon="14.144395"><ele>144.5</ele><time>2026-05-01T15:23:10.511Z</time></trkpt><trkpt lat="42.49258" lon="14.1444633"><ele>138.25</ele><time>2026-05-01T15:23:11.51Z</time></trkpt><trkpt lat="42.4926917" lon="14.1445417"><ele>132.0</ele><time>2026-05-01T15:23:12.51Z</time></trkpt><trkpt lat="42.4927933" lon="14.1446083"><ele>132.0</ele><time>2026-05-01T15:23:13.512Z</time></trkpt><trkpt lat="42.4928833" lon="14.1446867"><ele>132.0</ele><time>2026-05-01T15:23:14.51Z</time></trkpt><trkpt lat="42.4929683" lon="14.1447833"><ele>132.0</ele><time>2026-05-01T15:23:15.51Z</time></trkpt><trkpt lat="42.493055" lon="14.1449033"><ele>132.0</ele><time>2026-05-01T15:23:16.513Z</time></trkpt><trkpt lat="42.4931483" lon="14.1450367"><ele>133.25</ele><time>2026-05-01T15:23:17.511Z</time></trkpt><trkpt lat="42.49324" lon="14.1451617"><ele>134.5</ele><time>2026-05-01T15:23:18.514Z</time></trkpt><trkpt lat="42.4933417" lon="14.1452567"><ele>135.75</ele><time>2026-05-01T15:23:19.513Z</time></trkpt><trkpt lat="42.4934417" lon="14.14532"><ele>137.0</ele><time>2026-05-01T15:23:20.51Z</time></trkpt><trkpt lat="42.4935483" lon="14.1453433"><ele>137.0</ele><time>2026-05-01T15:23:21.51Z</time></trkpt><trkpt lat="42.4936567" lon="14.14531"><ele>137.0</ele><time>2026-05-01T15:23:22.509Z</time></trkpt><trkpt lat="42.49376" lon="14.1452433"><ele>137.0</ele><time>2026-05-01T15:23:23.511Z</time></trkpt><trkpt lat="42.493845" lon="14.1451683"><ele>137.0</ele><time>2026-05-01T15:23:24.51Z</time></trkpt><trkpt lat="42.4939167" lon="14.145055"><ele>137.0</ele><time>2026-05-01T15:23:25.51Z</time></trkpt><trkpt lat="42.4939617" lon="14.1448767"><ele>132.25</ele><time>2026-05-01T15:23:26.511Z</time></trkpt><trkpt lat="42.4940033" lon="14.14471"><ele>127.5</ele><time>2026-05-01T15:23:27.51Z</time></trkpt><trkpt lat="42.494045" lon="14.14454"><ele>122.75</ele><time>2026-05-01T15:23:28.514Z</time></trkpt><trkpt lat="42.4940883" lon="14.14438"><ele>118.0</ele><time>2026-05-01T15:23:29.51Z</time></trkpt><trkpt lat="42.494145" lon="14.1442367"><ele>118.0</ele><time>2026-05-01T15:23:30.517Z</time></trkpt><trkpt lat="42.4942217" lon="14.1441033"><ele>118.0</ele><time>2026-05-01T15:23:31.511Z</time></trkpt><trkpt lat="42.4943233" lon="14.1440033"><ele>118.0</ele><time>2026-05-01T15:23:32.509Z</time></trkpt><trkpt lat="42.49443" lon="14.143925"><ele>118.0</ele><time>2026-05-01T15:23:33.511Z</time></trkpt><trkpt lat="42.4945467" lon="14.143865"><ele>114.5</ele><time>2026-05-01T15:23:34.509Z</time></trkpt><trkpt lat="42.494685" lon="14.1438533"><ele>111.0</ele><time>2026-05-01T15:23:35.514Z</time></trkpt><trkpt lat="42.4948267" lon="14.143855"><ele>107.5</ele><time>2026-05-01T15:23:36.512Z</time></trkpt><trkpt lat="42.4949683" lon="14.14385"><ele>104.0</ele><time>2026-05-01T15:23:37.512Z</time></trkpt><trkpt lat="42.4951133" lon="14.1438283"><ele>104.0</ele><time>2026-05-01T15:23:38.51Z</time></trkpt><trkpt lat="42.4952533" lon="14.1437967"><ele>104.0</ele><time>2026-05-01T15:23:39.51Z</time></trkpt><trkpt lat="42.495395" lon="14.1437567"><ele>104.0</ele><time>2026-05-01T15:23:40.511Z</time></trkpt><trkpt lat="42.4955317" lon="14.1437"><ele>104.0</ele><time>2026-05-01T15:23:41.51Z</time></trkpt><trkpt lat="42.4956733" lon="14.143625"><ele>106.33333333333333</ele><time>2026-05-01T15:23:42.515Z</time></trkpt><trkpt lat="42.4958083" lon="14.1435167"><ele>108.66666666666666</ele><time>2026-05-01T15:23:43.512Z</time></trkpt><trkpt lat="42.4959467" lon="14.1433867"><ele>111.0</ele><time>2026-05-01T15:23:44.511Z</time></trkpt><trkpt lat="42.4960817" lon="14.1432567"><ele>108.0</ele><time>2026-05-01T15:23:45.51Z</time></trkpt><trkpt lat="42.4962167" lon="14.1431333"><ele>105.0</ele><time>2026-05-01T15:23:46.51Z</time></trkpt><trkpt lat="42.4963533" lon="14.1430183"><ele>102.0</ele><time>2026-05-01T15:23:47.514Z</time></trkpt><trkpt lat="42.4964833" lon="14.14291"><ele>101.5</ele><time>2026-05-01T15:23:48.513Z</time></trkpt><trkpt lat="42.49661" lon="14.1428033"><ele>101.0</ele><time>2026-05-01T15:23:49.511Z</time></trkpt><trkpt lat="42.4967317" lon="14.1426933"><ele>100.5</ele><time>2026-05-01T15:23:50.514Z</time></trkpt><trkpt lat="42.4968467" lon="14.1425817"><ele>100.0</ele><time>2026-05-01T15:23:51.515Z</time></trkpt><trkpt lat="42.4969533" lon="14.1424683"><ele>96.25</ele><time>2026-05-01T15:23:52.513Z</time></trkpt><trkpt lat="42.497055" lon="14.1423533"><ele>92.5</ele><time>2026-05-01T15:23:53.512Z</time></trkpt><trkpt lat="42.497155" lon="14.1422333"><ele>88.75</ele><time>2026-05-01T15:23:54.515Z</time></trkpt><trkpt lat="42.4972517" lon="14.1421283"><ele>85.0</ele><time>2026-05-01T15:23:55.511Z</time></trkpt><trkpt lat="42.4973333" lon="14.14204"><ele>85.0</ele><time>2026-05-01T15:23:56.513Z</time></trkpt><trkpt lat="42.497405" lon="14.14198"><ele>85.0</ele><time>2026-05-01T15:23:57.511Z</time></trkpt><trkpt lat="42.497475" lon="14.1419433"><ele>85.0</ele><time>2026-05-01T15:23:58.51Z</time></trkpt><trkpt lat="42.4975483" lon="14.141985"><ele>85.0</ele><time>2026-05-01T15:23:59.509Z</time></trkpt><trkpt lat="42.49759" lon="14.1420533"><ele>85.0</ele><time>2026-05-01T15:24:00.51Z</time></trkpt><trkpt lat="42.4975983" lon="14.1421467"><ele>85.0</ele><time>2026-05-01T15:24:01.512Z</time></trkpt><trkpt lat="42.49755" lon="14.1422783"><ele>85.25</ele><time>2026-05-01T15:24:02.516Z</time></trkpt><trkpt lat="42.497485" lon="14.1424117"><ele>85.5</ele><time>2026-05-01T15:24:03.512Z</time></trkpt><trkpt lat="42.4974033" lon="14.1425533"><ele>85.75</ele><time>2026-05-01T15:24:04.51Z</time></trkpt><trkpt lat="42.4973133" lon="14.1427"><ele>86.0</ele><time>2026-05-01T15:24:05.513Z</time></trkpt><trkpt lat="42.4972183" lon="14.1428567"><ele>86.0</ele><time>2026-05-01T15:24:06.513Z</time></trkpt><trkpt lat="42.4971217" lon="14.14302"><ele>86.0</ele><time>2026-05-01T15:24:07.517Z</time></trkpt><trkpt lat="42.49702" lon="14.1431833"><ele>86.0</ele><time>2026-05-01T15:24:08.515Z</time></trkpt><trkpt lat="42.4969217" lon="14.143345"><ele>88.5</ele><time>2026-05-01T15:24:09.515Z</time></trkpt><trkpt lat="42.4968233" lon="14.1435033"><ele>91.0</ele><time>2026-05-01T15:24:10.512Z</time></trkpt><trkpt lat="42.49673" lon="14.1436583"><ele>93.5</ele><time>2026-05-01T15:24:11.514Z</time></trkpt><trkpt lat="42.4966333" lon="14.1438"><ele>96.0</ele><time>2026-05-01T15:24:12.512Z</time></trkpt><trkpt lat="42.49654" lon="14.1439317"><ele>92.5</ele><time>2026-05-01T15:24:13.513Z</time></trkpt><trkpt lat="42.4964483" lon="14.1440617"><ele>89.0</ele><time>2026-05-01T15:24:14.513Z</time></trkpt><trkpt lat="42.4963883" lon="14.144195"><ele>85.5</ele><time>2026-05-01T15:24:15.509Z</time></trkpt><trkpt lat="42.4963533" lon="14.1443533"><ele>82.0</ele><time>2026-05-01T15:24:16.514Z</time></trkpt><trkpt lat="42.4963483" lon="14.14453"><ele>82.0</ele><time>2026-05-01T15:24:17.514Z</time></trkpt><trkpt lat="42.4963517" lon="14.1447"><ele>82.0</ele><time>2026-05-01T15:24:18.517Z</time></trkpt><trkpt lat="42.4963467" lon="14.1448567"><ele>82.0</ele><time>2026-05-01T15:24:19.509Z</time></trkpt><trkpt lat="42.496325" lon="14.1450133"><ele>82.0</ele><time>2026-05-01T15:24:20.512Z</time></trkpt><trkpt lat="42.4962733" lon="14.14517"><ele>82.0</ele><time>2026-05-01T15:24:21.512Z</time></trkpt><trkpt lat="42.49621" lon="14.1453033"><ele>82.0</ele><time>2026-05-01T15:24:22.509Z</time></trkpt><trkpt lat="42.4961583" lon="14.1454283"><ele>82.0</ele><time>2026-05-01T15:24:23.515Z</time></trkpt><trkpt lat="42.4961183" lon="14.1455483"><ele>82.0</ele><time>2026-05-01T15:24:24.51Z</time></trkpt><trkpt lat="42.496115" lon="14.1456767"><ele>82.0</ele><time>2026-05-01T15:24:25.513Z</time></trkpt><trkpt lat="42.4961533" lon="14.1458017"><ele>82.0</ele><time>2026-05-01T15:24:26.512Z</time></trkpt><trkpt lat="42.49622" lon="14.1459083"><ele>82.0</ele><time>2026-05-01T15:24:27.51Z</time></trkpt><trkpt lat="42.49631" lon="14.1459817"><ele>82.0</ele><time>2026-05-01T15:24:28.51Z</time></trkpt><trkpt lat="42.4964083" lon="14.1460117"><ele>82.0</ele><time>2026-05-01T15:24:29.51Z</time></trkpt><trkpt lat="42.4965083" lon="14.145995"><ele>82.0</ele><time>2026-05-01T15:24:30.512Z</time></trkpt><trkpt lat="42.4966017" lon="14.1459233"><ele>79.5</ele><time>2026-05-01T15:24:31.513Z</time></trkpt><trkpt lat="42.496675" lon="14.1457967"><ele>77.0</ele><time>2026-05-01T15:24:32.515Z</time></trkpt><trkpt lat="42.4967083" lon="14.1456283"><ele>74.5</ele><time>2026-05-01T15:24:33.515Z</time></trkpt><trkpt lat="42.4967067" lon="14.1454467"><ele>72.0</ele><time>2026-05-01T15:24:34.511Z</time></trkpt><trkpt lat="42.4967333" lon="14.1452767"><ele>71.5</ele><time>2026-05-01T15:24:35.516Z</time></trkpt><trkpt lat="42.4967933" lon="14.1451033"><ele>71.0</ele><time>2026-05-01T15:24:36.514Z</time></trkpt><trkpt lat="42.4968733" lon="14.14494"><ele>70.5</ele><time>2026-05-01T15:24:37.512Z</time></trkpt><trkpt lat="42.4969683" lon="14.1447967"><ele>70.0</ele><time>2026-05-01T15:24:38.512Z</time></trkpt><trkpt lat="42.497065" lon="14.1446717"><ele>67.5</ele><time>2026-05-01T15:24:39.515Z</time></trkpt><trkpt lat="42.4971683" lon="14.1445617"><ele>65.0</ele><time>2026-05-01T15:24:40.51Z</time></trkpt><trkpt lat="42.4972767" lon="14.1444633"><ele>62.5</ele><time>2026-05-01T15:24:41.512Z</time></trkpt><trkpt lat="42.4974" lon="14.1443633"><ele>60.0</ele><time>2026-05-01T15:24:42.513Z</time></trkpt><trkpt lat="42.497525" lon="14.1442533"><ele>60.0</ele><time>2026-05-01T15:24:43.512Z</time></trkpt><trkpt lat="42.4976483" lon="14.1441217"><ele>60.0</ele><time>2026-05-01T15:24:44.513Z</time></trkpt><trkpt lat="42.4977617" lon="14.1439833"><ele>60.0</ele><time>2026-05-01T15:24:45.509Z</time></trkpt><trkpt lat="42.497865" lon="14.14384"><ele>57.75</ele><time>2026-05-01T15:24:46.51Z</time></trkpt><trkpt lat="42.4979667" lon="14.1436967"><ele>55.5</ele><time>2026-05-01T15:24:47.513Z</time></trkpt><trkpt lat="42.49807" lon="14.1435467"><ele>53.25</ele><time>2026-05-01T15:24:48.509Z</time></trkpt><trkpt lat="42.49817" lon="14.1434017"><ele>51.0</ele><time>2026-05-01T15:24:49.509Z</time></trkpt><trkpt lat="42.49826" lon="14.1432667"><ele>53.599999999999994</ele><time>2026-05-01T15:24:50.512Z</time></trkpt><trkpt lat="42.4983383" lon="14.1431367"><ele>56.2</ele><time>2026-05-01T15:24:51.509Z</time></trkpt><trkpt lat="42.4984033" lon="14.143015"><ele>58.800000000000004</ele><time>2026-05-01T15:24:52.511Z</time></trkpt><trkpt lat="42.49846" lon="14.14291"><ele>61.400000000000006</ele><time>2026-05-01T15:24:53.51Z</time></trkpt><trkpt lat="42.4985133" lon="14.1428233"><ele>64.0</ele><time>2026-05-01T15:24:54.515Z</time></trkpt><trkpt lat="42.4985583" lon="14.1427583"><ele>64.0</ele><time>2026-05-01T15:24:55.509Z</time></trkpt><trkpt lat="42.498655" lon="14.14267"><ele>64.0</ele><time>2026-05-01T15:24:57.509Z</time></trkpt><trkpt lat="42.49869" lon="14.14258"><ele>64.0</ele><time>2026-05-01T15:24:58.51Z</time></trkpt><trkpt lat="42.498715" lon="14.142435"><ele>64.0</ele><time>2026-05-01T15:24:59.512Z</time></trkpt><trkpt lat="42.4987633" lon="14.1422367"><ele>57.0</ele><time>2026-05-01T15:25:00.514Z</time></trkpt><trkpt lat="42.4988483" lon="14.1420483"><ele>50.0</ele><time>2026-05-01T15:25:01.511Z</time></trkpt><trkpt lat="42.4989433" lon="14.1418633"><ele>43.0</ele><time>2026-05-01T15:25:02.511Z</time></trkpt><trkpt lat="42.4990367" lon="14.1416883"><ele>45.25</ele><time>2026-05-01T15:25:03.51Z</time></trkpt><trkpt lat="42.4991317" lon="14.141525"><ele>47.5</ele><time>2026-05-01T15:25:04.509Z</time></trkpt><trkpt lat="42.4992317" lon="14.1413767"><ele>49.75</ele><time>2026-05-01T15:25:05.512Z</time></trkpt><trkpt lat="42.4993367" lon="14.1412467"><ele>52.0</ele><time>2026-05-01T15:25:06.51Z</time></trkpt><trkpt lat="42.4994367" lon="14.1411333"><ele>52.0</ele><time>2026-05-01T15:25:07.509Z</time></trkpt><trkpt lat="42.4995333" lon="14.1410333"><ele>52.0</ele><time>2026-05-01T15:25:08.511Z</time></trkpt><trkpt lat="42.4996233" lon="14.1409317"><ele>52.0</ele><time>2026-05-01T15:25:09.511Z</time></trkpt><trkpt lat="42.4997083" lon="14.1408417"><ele>52.0</ele><time>2026-05-01T15:25:10.511Z</time></trkpt><trkpt lat="42.4997867" lon="14.1407483"><ele>48.75</ele><time>2026-05-01T15:25:11.512Z</time></trkpt><trkpt lat="42.499865" lon="14.1406467"><ele>45.5</ele><time>2026-05-01T15:25:12.514Z</time></trkpt><trkpt lat="42.4999467" lon="14.1405333"><ele>42.25</ele><time>2026-05-01T15:25:13.511Z</time></trkpt><trkpt lat="42.5000267" lon="14.1404117"><ele>39.0</ele><time>2026-05-01T15:25:14.511Z</time></trkpt><trkpt lat="42.5001083" lon="14.140285"><ele>39.0</ele><time>2026-05-01T15:25:15.509Z</time></trkpt><trkpt lat="42.5001917" lon="14.14016"><ele>39.0</ele><time>2026-05-01T15:25:16.512Z</time></trkpt><trkpt lat="42.5002717" lon="14.1400417"><ele>39.0</ele><time>2026-05-01T15:25:17.51Z</time></trkpt><trkpt lat="42.5003417" lon="14.1399267"><ele>39.0</ele><time>2026-05-01T15:25:18.513Z</time></trkpt><trkpt lat="42.5004133" lon="14.1398117"><ele>36.4</ele><time>2026-05-01T15:25:19.511Z</time></trkpt><trkpt lat="42.50048" lon="14.139695"><ele>33.8</ele><time>2026-05-01T15:25:20.511Z</time></trkpt><trkpt lat="42.500545" lon="14.1395817"><ele>31.200000000000003</ele><time>2026-05-01T15:25:21.512Z</time></trkpt><trkpt lat="42.50061" lon="14.1394733"><ele>28.6</ele><time>2026-05-01T15:25:22.511Z</time></trkpt><trkpt lat="42.5006667" lon="14.1393683"><ele>26.0</ele><time>2026-05-01T15:25:23.512Z</time></trkpt><trkpt lat="42.5007233" lon="14.1392633"><ele>26.0</ele><time>2026-05-01T15:25:24.511Z</time></trkpt><trkpt lat="42.5007717" lon="14.139155"><ele>26.0</ele><time>2026-05-01T15:25:25.509Z</time></trkpt><trkpt lat="42.5008217" lon="14.1390483"><ele>26.0</ele><time>2026-05-01T15:25:26.512Z</time></trkpt><trkpt lat="42.5008733" lon="14.1389417"><ele>26.0</ele><time>2026-05-01T15:25:27.511Z</time></trkpt><trkpt lat="42.5009267" lon="14.13884"><ele>26.0</ele><time>2026-05-01T15:25:28.513Z</time></trkpt><trkpt lat="42.5009683" lon="14.1387417"><ele>25.166666666666664</ele><time>2026-05-01T15:25:29.511Z</time></trkpt><trkpt lat="42.501005" lon="14.1386567"><ele>24.333333333333332</ele><time>2026-05-01T15:25:30.513Z</time></trkpt><trkpt lat="42.501065" lon="14.1385333"><ele>23.5</ele><time>2026-05-01T15:25:32.511Z</time></trkpt><trkpt lat="42.50113" lon="14.1384167"><ele>22.666666666666664</ele><time>2026-05-01T15:25:34.515Z</time></trkpt><trkpt lat="42.5011567" lon="14.1383317"><ele>21.833333333333332</ele><time>2026-05-01T15:25:35.511Z</time></trkpt><trkpt lat="42.5011883" lon="14.13823"><ele>21.0</ele><time>2026-05-01T15:25:36.512Z</time></trkpt><trkpt lat="42.50123" lon="14.1381083"><ele>19.333333333333332</ele><time>2026-05-01T15:25:37.514Z</time></trkpt><trkpt lat="42.5012667" lon="14.1379533"><ele>17.666666666666664</ele><time>2026-05-01T15:25:38.893Z</time></trkpt><trkpt lat="42.5013383" lon="14.1376267"><ele>16.0</ele><time>2026-05-01T15:25:40.511Z</time></trkpt><trkpt lat="42.5013783" lon="14.1374717"><ele>15.5</ele><time>2026-05-01T15:25:41.515Z</time></trkpt><trkpt lat="42.5014183" lon="14.1373183"><ele>15.0</ele><time>2026-05-01T15:25:42.513Z</time></trkpt><trkpt lat="42.5014567" lon="14.1371667"><ele>14.5</ele><time>2026-05-01T15:25:43.512Z</time></trkpt><trkpt lat="42.501495" lon="14.1370133"><ele>14.0</ele><time>2026-05-01T15:25:44.518Z</time></trkpt><trkpt lat="42.501535" lon="14.13686"><ele>14.0</ele><time>2026-05-01T15:25:45.511Z</time></trkpt><trkpt lat="42.5015733" lon="14.1366983"><ele>14.0</ele><time>2026-05-01T15:25:46.509Z</time></trkpt><trkpt lat="42.5016133" lon="14.1365417"><ele>14.0</ele><time>2026-05-01T15:25:47.51Z</time></trkpt><trkpt lat="42.5016533" lon="14.1363917"><ele>14.0</ele><time>2026-05-01T15:25:48.509Z</time></trkpt><trkpt lat="42.5016867" lon="14.1362483"><ele>14.0</ele><time>2026-05-01T15:25:49.516Z</time></trkpt><trkpt lat="42.5017233" lon="14.1361183"><ele>13.999999999999998</ele><time>2026-05-01T15:25:50.511Z</time></trkpt><trkpt lat="42.5017567" lon="14.135995"><ele>13.999999999999998</ele><time>2026-05-01T15:25:51.511Z</time></trkpt><trkpt lat="42.50179" lon="14.1358717"><ele>14.0</ele><time>2026-05-01T15:25:52.511Z</time></trkpt><trkpt lat="42.5018217" lon="14.1357483"><ele>14.0</ele><time>2026-05-01T15:25:53.51Z</time></trkpt><trkpt lat="42.5018583" lon="14.1356317"><ele>14.166666666666668</ele><time>2026-05-01T15:25:54.512Z</time></trkpt><trkpt lat="42.5018883" lon="14.1355133"><ele>14.333333333333334</ele><time>2026-05-01T15:25:55.509Z</time></trkpt><trkpt lat="42.50192" lon="14.1354"><ele>14.5</ele><time>2026-05-01T15:25:56.51Z</time></trkpt><trkpt lat="42.501945" lon="14.1352883"><ele>14.666666666666668</ele><time>2026-05-01T15:25:57.513Z</time></trkpt><trkpt lat="42.5019717" lon="14.13518"><ele>14.833333333333334</ele><time>2026-05-01T15:25:58.51Z</time></trkpt><trkpt lat="42.502" lon="14.135075"><ele>15.0</ele><time>2026-05-01T15:25:59.511Z</time></trkpt><trkpt lat="42.5020333" lon="14.1349833"><ele>15.0</ele><time>2026-05-01T15:26:00.511Z</time></trkpt><trkpt lat="42.5020783" lon="14.1348967"><ele>15.0</ele><time>2026-05-01T15:26:01.51Z</time></trkpt><trkpt lat="42.502135" lon="14.1348283"><ele>15.0</ele><time>2026-05-01T15:26:02.513Z</time></trkpt><trkpt lat="42.5021983" lon="14.13478"><ele>15.0</ele><time>2026-05-01T15:26:03.509Z</time></trkpt><trkpt lat="42.50226" lon="14.1347433"><ele>15.0</ele><time>2026-05-01T15:26:04.509Z</time></trkpt><trkpt lat="42.5023267" lon="14.1347283"><ele>15.0</ele><time>2026-05-01T15:26:05.51Z</time></trkpt><trkpt lat="42.502395" lon="14.1347317"><ele>15.0</ele><time>2026-05-01T15:26:06.509Z</time></trkpt><trkpt lat="42.5024567" lon="14.1347533"><ele>14.833333333333334</ele><time>2026-05-01T15:26:07.51Z</time></trkpt><trkpt lat="42.50252" lon="14.1348"><ele>14.666666666666668</ele><time>2026-05-01T15:26:08.514Z</time></trkpt><trkpt lat="42.502575" lon="14.1348617"><ele>14.5</ele><time>2026-05-01T15:26:09.51Z</time></trkpt><trkpt lat="42.5026267" lon="14.1349217"><ele>14.333333333333334</ele><time>2026-05-01T15:26:10.51Z</time></trkpt><trkpt lat="42.50268" lon="14.1349733"><ele>14.166666666666668</ele><time>2026-05-01T15:26:11.51Z</time></trkpt><trkpt lat="42.5027783" lon="14.1350683"><ele>14.0</ele><time>2026-05-01T15:26:13.512Z</time></trkpt><trkpt lat="42.5028583" lon="14.1351483"><ele>13.666666666666668</ele><time>2026-05-01T15:26:15.509Z</time></trkpt><trkpt lat="42.5029183" lon="14.1352167"><ele>13.333333333333334</ele><time>2026-05-01T15:26:17.509Z</time></trkpt><trkpt lat="42.5029783" lon="14.1352833"><ele>13.0</ele><time>2026-05-01T15:26:19.51Z</time></trkpt><trkpt lat="42.5030633" lon="14.1353067"><ele>12.666666666666668</ele><time>2026-05-01T15:26:21.51Z</time></trkpt><trkpt lat="42.5031317" lon="14.13522"><ele>12.333333333333334</ele><time>2026-05-01T15:26:23.51Z</time></trkpt><trkpt lat="42.5031533" lon="14.1351167"><ele>12.0</ele><time>2026-05-01T15:26:24.51Z</time></trkpt><trkpt lat="42.5031883" lon="14.135015"><ele>12.0</ele><time>2026-05-01T15:26:25.511Z</time></trkpt><trkpt lat="42.5032267" lon="14.13491"><ele>12.0</ele><time>2026-05-01T15:26:26.512Z</time></trkpt><trkpt lat="42.503255" lon="14.1348067"><ele>12.0</ele><time>2026-05-01T15:26:27.51Z</time></trkpt><trkpt lat="42.50327" lon="14.134705"><ele>12.0</ele><time>2026-05-01T15:26:28.511Z</time></trkpt><trkpt lat="42.503295" lon="14.1346017"><ele>12.0</ele><time>2026-05-01T15:26:29.51Z</time></trkpt><trkpt lat="42.5033167" lon="14.1344867"><ele>12.0</ele><time>2026-05-01T15:26:30.511Z</time></trkpt><trkpt lat="42.50334" lon="14.1343717"><ele>12.142857142857142</ele><time>2026-05-01T15:26:31.509Z</time></trkpt><trkpt lat="42.503365" lon="14.1342617"><ele>12.285714285714285</ele><time>2026-05-01T15:26:32.514Z</time></trkpt><trkpt lat="42.503385" lon="14.134155"><ele>12.428571428571427</ele><time>2026-05-01T15:26:33.51Z</time></trkpt><trkpt lat="42.5034133" lon="14.1340567"><ele>12.571428571428571</ele><time>2026-05-01T15:26:34.511Z</time></trkpt><trkpt lat="42.5034383" lon="14.1339683"><ele>12.714285714285715</ele><time>2026-05-01T15:26:35.51Z</time></trkpt><trkpt lat="42.5034683" lon="14.1338883"><ele>12.857142857142856</ele><time>2026-05-01T15:26:36.511Z</time></trkpt><trkpt lat="42.5035" lon="14.133805"><ele>13.0</ele><time>2026-05-01T15:26:37.514Z</time></trkpt><trkpt lat="42.5035533" lon="14.133715"><ele>13.0</ele><time>2026-05-01T15:26:38.516Z</time></trkpt><trkpt lat="42.5036417" lon="14.133615"><ele>13.0</ele><time>2026-05-01T15:26:39.511Z</time></trkpt><trkpt lat="42.5037633" lon="14.1335"><ele>13.0</ele><time>2026-05-01T15:26:40.512Z</time></trkpt><trkpt lat="42.5038917" lon="14.1333783"><ele>13.0</ele><time>2026-05-01T15:26:41.51Z</time></trkpt><trkpt lat="42.5040083" lon="14.1332583"><ele>13.0</ele><time>2026-05-01T15:26:42.511Z</time></trkpt><trkpt lat="42.5041183" lon="14.13315"><ele>13.0</ele><time>2026-05-01T15:26:43.513Z</time></trkpt><trkpt lat="42.5042233" lon="14.1330517"><ele>13.0</ele><time>2026-05-01T15:26:44.511Z</time></trkpt><trkpt lat="42.5043233" lon="14.1329617"><ele>13.0</ele><time>2026-05-01T15:26:45.509Z</time></trkpt><trkpt lat="42.5044117" lon="14.1328683"><ele>13.0</ele><time>2026-05-01T15:26:46.509Z</time></trkpt><trkpt lat="42.5045" lon="14.132785"><ele>13.0</ele><time>2026-05-01T15:26:47.514Z</time></trkpt><trkpt lat="42.5045933" lon="14.1327033"><ele>13.0</ele><time>2026-05-01T15:26:48.51Z</time></trkpt><trkpt lat="42.50469" lon="14.132615"><ele>13.0</ele><time>2026-05-01T15:26:49.514Z</time></trkpt><trkpt lat="42.5047833" lon="14.1325283"><ele>13.0</ele><time>2026-05-01T15:26:50.51Z</time></trkpt><trkpt lat="42.50488" lon="14.1324417"><ele>12.0</ele><time>2026-05-01T15:26:51.512Z</time></trkpt><trkpt lat="42.5049767" lon="14.1323533"><ele>11.0</ele><time>2026-05-01T15:26:52.511Z</time></trkpt><trkpt lat="42.5050717" lon="14.13226"><ele>10.0</ele><time>2026-05-01T15:26:53.511Z</time></trkpt><trkpt lat="42.5051683" lon="14.1321667"><ele>9.0</ele><time>2026-05-01T15:26:54.512Z</time></trkpt><trkpt lat="42.5052667" lon="14.1320783"><ele>9.0</ele><time>2026-05-01T15:26:55.51Z</time></trkpt><trkpt lat="42.5053667" lon="14.1320017"><ele>9.0</ele><time>2026-05-01T15:26:56.51Z</time></trkpt><trkpt lat="42.50546" lon="14.1319167"><ele>9.0</ele><time>2026-05-01T15:26:57.509Z</time></trkpt><trkpt lat="42.5055433" lon="14.131825"><ele>9.0</ele><time>2026-05-01T15:26:58.509Z</time></trkpt><trkpt lat="42.505625" lon="14.131745"><ele>9.0</ele><time>2026-05-01T15:26:59.512Z</time></trkpt><trkpt lat="42.5057083" lon="14.1316667"><ele>9.0</ele><time>2026-05-01T15:27:00.51Z</time></trkpt><trkpt lat="42.505795" lon="14.1315833"><ele>9.0</ele><time>2026-05-01T15:27:01.51Z</time></trkpt><trkpt lat="42.5058833" lon="14.1315"><ele>9.0</ele><time>2026-05-01T15:27:02.509Z</time></trkpt><trkpt lat="42.505975" lon="14.1314183"><ele>9.0</ele><time>2026-05-01T15:27:03.511Z</time></trkpt><trkpt lat="42.506065" lon="14.131335"><ele>9.0</ele><time>2026-05-01T15:27:04.51Z</time></trkpt><trkpt lat="42.50615" lon="14.1312467"><ele>9.0</ele><time>2026-05-01T15:27:05.515Z</time></trkpt><trkpt lat="42.5062383" lon="14.1311617"><ele>9.0</ele><time>2026-05-01T15:27:06.509Z</time></trkpt><trkpt lat="42.5063267" lon="14.1310883"><ele>9.0</ele><time>2026-05-01T15:27:07.51Z</time></trkpt><trkpt lat="42.5064167" lon="14.1310383"><ele>9.0</ele><time>2026-05-01T15:27:08.512Z</time></trkpt><trkpt lat="42.5065083" lon="14.13099"><ele>9.0</ele><time>2026-05-01T15:27:09.51Z</time></trkpt><trkpt lat="42.5066017" lon="14.1309433"><ele>9.0</ele><time>2026-05-01T15:27:10.512Z</time></trkpt><trkpt lat="42.5066933" lon="14.1308917"><ele>9.0</ele><time>2026-05-01T15:27:11.511Z</time></trkpt><trkpt lat="42.5067833" lon="14.1308417"><ele>9.0</ele><time>2026-05-01T15:27:12.51Z</time></trkpt><trkpt lat="42.5068733" lon="14.1307933"><ele>9.0</ele><time>2026-05-01T15:27:13.513Z</time></trkpt><trkpt lat="42.50697" lon="14.13075"><ele>9.0</ele><time>2026-05-01T15:27:14.512Z</time></trkpt><trkpt lat="42.5070633" lon="14.1307233"><ele>9.5</ele><time>2026-05-01T15:27:15.515Z</time></trkpt><trkpt lat="42.50715" lon="14.1306967"><ele>10.0</ele><time>2026-05-01T15:27:16.509Z</time></trkpt><trkpt lat="42.50723" lon="14.1306683"><ele>10.5</ele><time>2026-05-01T15:27:17.509Z</time></trkpt><trkpt lat="42.507305" lon="14.1306467"><ele>11.0</ele><time>2026-05-01T15:27:18.511Z</time></trkpt><trkpt lat="42.507375" lon="14.1306283"><ele>11.5</ele><time>2026-05-01T15:27:19.511Z</time></trkpt><trkpt lat="42.5074417" lon="14.1306117"><ele>12.0</ele><time>2026-05-01T15:27:20.514Z</time></trkpt><trkpt lat="42.50756" lon="14.1305667"><ele>12.0</ele><time>2026-05-01T15:27:22.513Z</time></trkpt><trkpt lat="42.5076817" lon="14.130505"><ele>12.0</ele><time>2026-05-01T15:27:24.518Z</time></trkpt><trkpt lat="42.50775" lon="14.1304633"><ele>12.0</ele><time>2026-05-01T15:27:25.513Z</time></trkpt><trkpt lat="42.5078233" lon="14.1304183"><ele>12.0</ele><time>2026-05-01T15:27:26.513Z</time></trkpt><trkpt lat="42.5079033" lon="14.130365"><ele>12.0</ele><time>2026-05-01T15:27:27.515Z</time></trkpt><trkpt lat="42.507985" lon="14.1303"><ele>12.0</ele><time>2026-05-01T15:27:28.513Z</time></trkpt><trkpt lat="42.5080733" lon="14.1302333"><ele>12.0</ele><time>2026-05-01T15:27:29.516Z</time></trkpt><trkpt lat="42.5081617" lon="14.1301567"><ele>12.0</ele><time>2026-05-01T15:27:30.51Z</time></trkpt><trkpt lat="42.5082483" lon="14.1300833"><ele>12.0</ele><time>2026-05-01T15:27:31.51Z</time></trkpt><trkpt lat="42.5083317" lon="14.1300217"><ele>12.0</ele><time>2026-05-01T15:27:32.51Z</time></trkpt><trkpt lat="42.5084083" lon="14.129965"><ele>12.0</ele><time>2026-05-01T15:27:33.512Z</time></trkpt><trkpt lat="42.5084817" lon="14.1299167"><ele>12.0</ele><time>2026-05-01T15:27:34.512Z</time></trkpt><trkpt lat="42.5085467" lon="14.1298667"><ele>12.0</ele><time>2026-05-01T15:27:35.511Z</time></trkpt><trkpt lat="42.5086083" lon="14.1298217"><ele>12.0</ele><time>2026-05-01T15:27:36.518Z</time></trkpt><trkpt lat="42.508665" lon="14.1297817"><ele>12.0</ele><time>2026-05-01T15:27:37.513Z</time></trkpt><trkpt lat="42.5087433" lon="14.129745"><ele>12.0</ele><time>2026-05-01T15:27:39.513Z</time></trkpt><trkpt lat="42.50884" lon="14.1297533"><ele>11.0</ele><time>2026-05-01T15:27:42.513Z</time></trkpt><trkpt lat="42.50897" lon="14.1298017"><ele>10.0</ele><time>2026-05-01T15:27:44.51Z</time></trkpt><trkpt lat="42.5090417" lon="14.12986"><ele>9.0</ele><time>2026-05-01T15:27:45.511Z</time></trkpt><trkpt lat="42.5091133" lon="14.1299417"><ele>8.0</ele><time>2026-05-01T15:27:46.509Z</time></trkpt><trkpt lat="42.5091933" lon="14.1300433"><ele>7.0</ele><time>2026-05-01T15:27:47.507Z</time></trkpt><trkpt lat="42.5092767" lon="14.130155"><ele>7.0</ele><time>2026-05-01T15:27:48.51Z</time></trkpt><trkpt lat="42.5093583" lon="14.1302683"><ele>7.0</ele><time>2026-05-01T15:27:49.511Z</time></trkpt><trkpt lat="42.50944" lon="14.13038"><ele>7.0</ele><time>2026-05-01T15:27:50.515Z</time></trkpt><trkpt lat="42.50952" lon="14.13049"><ele>7.0</ele><time>2026-05-01T15:27:51.51Z</time></trkpt><trkpt lat="42.509595" lon="14.1306017"><ele>7.0</ele><time>2026-05-01T15:27:52.51Z</time></trkpt><trkpt lat="42.5096733" lon="14.130715"><ele>7.0</ele><time>2026-05-01T15:27:53.511Z</time></trkpt><trkpt lat="42.50975" lon="14.1308333"><ele>7.0</ele><time>2026-05-01T15:27:54.513Z</time></trkpt><trkpt lat="42.5098317" lon="14.1309533"><ele>7.0</ele><time>2026-05-01T15:27:55.513Z</time></trkpt><trkpt lat="42.5099167" lon="14.1310817"><ele>6.75</ele><time>2026-05-01T15:27:56.512Z</time></trkpt><trkpt lat="42.5100033" lon="14.1312183"><ele>6.5</ele><time>2026-05-01T15:27:57.512Z</time></trkpt><trkpt lat="42.5100933" lon="14.1313617"><ele>6.25</ele><time>2026-05-01T15:27:58.513Z</time></trkpt><trkpt lat="42.5101833" lon="14.131515"><ele>6.0</ele><time>2026-05-01T15:27:59.51Z</time></trkpt><trkpt lat="42.510275" lon="14.131675"><ele>6.0</ele><time>2026-05-01T15:28:00.509Z</time></trkpt><trkpt lat="42.5103633" lon="14.131835"><ele>6.0</ele><time>2026-05-01T15:28:01.511Z</time></trkpt><trkpt lat="42.510445" lon="14.1319967"><ele>6.0</ele><time>2026-05-01T15:28:02.514Z</time></trkpt><trkpt lat="42.5105283" lon="14.1321517"><ele>6.0</ele><time>2026-05-01T15:28:03.508Z</time></trkpt><trkpt lat="42.5106083" lon="14.1323033"><ele>6.0</ele><time>2026-05-01T15:28:04.51Z</time></trkpt><trkpt lat="42.5106867" lon="14.1324533"><ele>6.0</ele><time>2026-05-01T15:28:05.512Z</time></trkpt><trkpt lat="42.5107583" lon="14.1326033"><ele>6.0</ele><time>2026-05-01T15:28:06.513Z</time></trkpt><trkpt lat="42.51083" lon="14.13275"><ele>6.0</ele><time>2026-05-01T15:28:07.514Z</time></trkpt><trkpt lat="42.5109083" lon="14.1328917"><ele>6.0</ele><time>2026-05-01T15:28:08.513Z</time></trkpt><trkpt lat="42.51099" lon="14.13303"><ele>6.0</ele><time>2026-05-01T15:28:09.509Z</time></trkpt><trkpt lat="42.5110733" lon="14.1331667"><ele>6.0</ele><time>2026-05-01T15:28:10.509Z</time></trkpt><trkpt lat="42.511155" lon="14.1333017"><ele>6.0</ele><time>2026-05-01T15:28:11.51Z</time></trkpt><trkpt lat="42.5112333" lon="14.1334233"><ele>5.75</ele><time>2026-05-01T15:28:12.514Z</time></trkpt><trkpt lat="42.511305" lon="14.1335417"><ele>5.5</ele><time>2026-05-01T15:28:13.514Z</time></trkpt><trkpt lat="42.5113717" lon="14.1336667"><ele>5.25</ele><time>2026-05-01T15:28:14.509Z</time></trkpt><trkpt lat="42.5114367" lon="14.133795"><ele>5.0</ele><time>2026-05-01T15:28:15.51Z</time></trkpt><trkpt lat="42.511495" lon="14.1339333"><ele>5.0</ele><time>2026-05-01T15:28:16.511Z</time></trkpt><trkpt lat="42.511555" lon="14.1340683"><ele>5.0</ele><time>2026-05-01T15:28:17.51Z</time></trkpt><trkpt lat="42.5116217" lon="14.1342"><ele>5.0</ele><time>2026-05-01T15:28:18.511Z</time></trkpt><trkpt lat="42.5116983" lon="14.1343233"><ele>5.0</ele><time>2026-05-01T15:28:19.511Z</time></trkpt><trkpt lat="42.5117917" lon="14.1344267"><ele>5.0</ele><time>2026-05-01T15:28:20.512Z</time></trkpt><trkpt lat="42.511895" lon="14.134515"><ele>5.0</ele><time>2026-05-01T15:28:21.511Z</time></trkpt><trkpt lat="42.5120033" lon="14.1345967"><ele>5.0</ele><time>2026-05-01T15:28:22.511Z</time></trkpt><trkpt lat="42.5121133" lon="14.1346733"><ele>5.0</ele><time>2026-05-01T15:28:23.512Z</time></trkpt><trkpt lat="42.5122233" lon="14.1347533"><ele>4.5</ele><time>2026-05-01T15:28:24.512Z</time></trkpt><trkpt lat="42.512335" lon="14.1348283"><ele>4.0</ele><time>2026-05-01T15:28:25.512Z</time></trkpt><trkpt lat="42.5124433" lon="14.1349033"><ele>3.5</ele><time>2026-05-01T15:28:26.516Z</time></trkpt><trkpt lat="42.51255" lon="14.13498"><ele>3.0</ele><time>2026-05-01T15:28:27.513Z</time></trkpt><trkpt lat="42.5126583" lon="14.13506"><ele>3.0</ele><time>2026-05-01T15:28:28.51Z</time></trkpt><trkpt lat="42.5127633" lon="14.1351467"><ele>3.0</ele><time>2026-05-01T15:28:29.511Z</time></trkpt><trkpt lat="42.5128617" lon="14.135245"><ele>3.0</ele><time>2026-05-01T15:28:30.513Z</time></trkpt><trkpt lat="42.5129533" lon="14.1353517"><ele>3.0</ele><time>2026-05-01T15:28:31.513Z</time></trkpt><trkpt lat="42.513035" lon="14.135475"><ele>3.0</ele><time>2026-05-01T15:28:32.51Z</time></trkpt><trkpt lat="42.5131083" lon="14.1356067"><ele>3.0</ele><time>2026-05-01T15:28:33.509Z</time></trkpt><trkpt lat="42.5131717" lon="14.1357467"><ele>3.0</ele><time>2026-05-01T15:28:34.513Z</time></trkpt><trkpt lat="42.5132317" lon="14.1358883"><ele>3.0</ele><time>2026-05-01T15:28:35.512Z</time></trkpt><trkpt lat="42.5132767" lon="14.1360317"><ele>3.0</ele><time>2026-05-01T15:28:36.513Z</time></trkpt><trkpt lat="42.513315" lon="14.1361633"><ele>3.0</ele><time>2026-05-01T15:28:37.51Z</time></trkpt><trkpt lat="42.5133467" lon="14.1362883"><ele>3.0</ele><time>2026-05-01T15:28:38.514Z</time></trkpt><trkpt lat="42.513375" lon="14.1364067"><ele>3.0</ele><time>2026-05-01T15:28:39.51Z</time></trkpt><trkpt lat="42.5134033" lon="14.1365233"><ele>3.0</ele><time>2026-05-01T15:28:40.512Z</time></trkpt><trkpt lat="42.513435" lon="14.13664"><ele>3.1666666666666665</ele><time>2026-05-01T15:28:41.517Z</time></trkpt><trkpt lat="42.51347" lon="14.13676"><ele>3.333333333333333</ele><time>2026-05-01T15:28:42.512Z</time></trkpt><trkpt lat="42.513505" lon="14.13688"><ele>3.5</ele><time>2026-05-01T15:28:43.511Z</time></trkpt><trkpt lat="42.5135433" lon="14.136995"><ele>3.6666666666666665</ele><time>2026-05-01T15:28:44.512Z</time></trkpt><trkpt lat="42.513585" lon="14.1370967"><ele>3.833333333333333</ele><time>2026-05-01T15:28:45.508Z</time></trkpt><trkpt lat="42.51362" lon="14.1371867"><ele>4.0</ele><time>2026-05-01T15:28:46.513Z</time></trkpt><trkpt lat="42.5136683" lon="14.1373217"><ele>4.333333333333333</ele><time>2026-05-01T15:28:48.512Z</time></trkpt><trkpt lat="42.5137017" lon="14.137405"><ele>4.666666666666666</ele><time>2026-05-01T15:28:50.513Z</time></trkpt><trkpt lat="42.51373" lon="14.13752"><ele>5.0</ele><time>2026-05-01T15:28:52.514Z</time></trkpt><trkpt lat="42.513745" lon="14.1376067"><ele>5.333333333333333</ele><time>2026-05-01T15:28:53.513Z</time></trkpt><trkpt lat="42.5137533" lon="14.1377067"><ele>5.666666666666667</ele><time>2026-05-01T15:28:54.511Z</time></trkpt><trkpt lat="42.513735" lon="14.13781"><ele>6.0</ele><time>2026-05-01T15:28:55.511Z</time></trkpt><trkpt lat="42.5137017" lon="14.13791"><ele>6.0</ele><time>2026-05-01T15:28:56.512Z</time></trkpt><trkpt lat="42.5136667" lon="14.1380083"><ele>6.0</ele><time>2026-05-01T15:28:57.511Z</time></trkpt><trkpt lat="42.51363" lon="14.13811"><ele>6.0</ele><time>2026-05-01T15:28:58.513Z</time></trkpt><trkpt lat="42.5135867" lon="14.138215"><ele>6.0</ele><time>2026-05-01T15:28:59.512Z</time></trkpt><trkpt lat="42.5135417" lon="14.1383217"><ele>6.0</ele><time>2026-05-01T15:29:00.512Z</time></trkpt><trkpt lat="42.5134983" lon="14.1384317"><ele>6.0</ele><time>2026-05-01T15:29:01.511Z</time></trkpt><trkpt lat="42.5134567" lon="14.1385433"><ele>5.8</ele><time>2026-05-01T15:29:02.514Z</time></trkpt><trkpt lat="42.5134183" lon="14.1386617"><ele>5.6</ele><time>2026-05-01T15:29:03.519Z</time></trkpt><trkpt lat="42.5133767" lon="14.1387833"><ele>5.4</ele><time>2026-05-01T15:29:04.512Z</time></trkpt><trkpt lat="42.51332" lon="14.1389017"><ele>5.2</ele><time>2026-05-01T15:29:05.512Z</time></trkpt><trkpt lat="42.5132717" lon="14.1390317"><ele>5.0</ele><time>2026-05-01T15:29:06.512Z</time></trkpt><trkpt lat="42.513225" lon="14.1391717"><ele>5.5</ele><time>2026-05-01T15:29:07.511Z</time></trkpt><trkpt lat="42.5131717" lon="14.139315"><ele>6.0</ele><time>2026-05-01T15:29:08.512Z</time></trkpt><trkpt lat="42.5131167" lon="14.1394583"><ele>6.5</ele><time>2026-05-01T15:29:09.513Z</time></trkpt><trkpt lat="42.513065" lon="14.1396"><ele>7.0</ele><time>2026-05-01T15:29:10.51Z</time></trkpt><trkpt lat="42.513015" lon="14.1397417"><ele>7.0</ele><time>2026-05-01T15:29:11.511Z</time></trkpt><trkpt lat="42.512965" lon="14.1398767"><ele>7.0</ele><time>2026-05-01T15:29:12.513Z</time></trkpt><trkpt lat="42.51291" lon="14.1400067"><ele>7.0</ele><time>2026-05-01T15:29:13.512Z</time></trkpt><trkpt lat="42.5128617" lon="14.1401433"><ele>7.0</ele><time>2026-05-01T15:29:14.514Z</time></trkpt><trkpt lat="42.51281" lon="14.1402867"><ele>6.75</ele><time>2026-05-01T15:29:15.509Z</time></trkpt><trkpt lat="42.5127517" lon="14.1404317"><ele>6.5</ele><time>2026-05-01T15:29:16.512Z</time></trkpt><trkpt lat="42.5126967" lon="14.14058"><ele>6.25</ele><time>2026-05-01T15:29:17.511Z</time></trkpt><trkpt lat="42.51264" lon="14.14072"><ele>6.0</ele><time>2026-05-01T15:29:18.513Z</time></trkpt><trkpt lat="42.51259" lon="14.140845"><ele>6.333333333333333</ele><time>2026-05-01T15:29:19.513Z</time></trkpt><trkpt lat="42.5125467" lon="14.1409617"><ele>6.666666666666666</ele><time>2026-05-01T15:29:20.512Z</time></trkpt><trkpt lat="42.5125067" lon="14.14107"><ele>7.0</ele><time>2026-05-01T15:29:21.516Z</time></trkpt><trkpt lat="42.5124717" lon="14.14117"><ele>7.333333333333333</ele><time>2026-05-01T15:29:22.512Z</time></trkpt><trkpt lat="42.5124383" lon="14.1412583"><ele>7.666666666666666</ele><time>2026-05-01T15:29:23.511Z</time></trkpt><trkpt lat="42.5124183" lon="14.141345"><ele>8.0</ele><time>2026-05-01T15:29:24.512Z</time></trkpt><trkpt lat="42.5124567" lon="14.1414983"><ele>8.0</ele><time>2026-05-01T15:29:26.517Z</time></trkpt><trkpt lat="42.5125817" lon="14.1415633"><ele>8.0</ele><time>2026-05-01T15:29:28.508Z</time></trkpt><trkpt lat="42.5126533" lon="14.1415717"><ele>8.0</ele><time>2026-05-01T15:29:29.512Z</time></trkpt><trkpt lat="42.5127417" lon="14.14156"><ele>8.0</ele><time>2026-05-01T15:29:30.51Z</time></trkpt><trkpt lat="42.5128467" lon="14.1415167"><ele>8.0</ele><time>2026-05-01T15:29:31.511Z</time></trkpt><trkpt lat="42.512955" lon="14.1414833"><ele>7.6000000000000005</ele><time>2026-05-01T15:29:32.511Z</time></trkpt><trkpt lat="42.5130617" lon="14.1414767"><ele>7.200000000000001</ele><time>2026-05-01T15:29:33.514Z</time></trkpt><trkpt lat="42.51317" lon="14.1414833"><ele>6.8</ele><time>2026-05-01T15:29:34.511Z</time></trkpt><trkpt lat="42.51328" lon="14.141495"><ele>6.4</ele><time>2026-05-01T15:29:35.51Z</time></trkpt><trkpt lat="42.513385" lon="14.1415183"><ele>6.0</ele><time>2026-05-01T15:29:36.51Z</time></trkpt><trkpt lat="42.51349" lon="14.141565"><ele>6.0</ele><time>2026-05-01T15:29:37.511Z</time></trkpt><trkpt lat="42.51359" lon="14.1416233"><ele>6.0</ele><time>2026-05-01T15:29:38.515Z</time></trkpt><trkpt lat="42.5136867" lon="14.1416883"><ele>6.0</ele><time>2026-05-01T15:29:39.509Z</time></trkpt><trkpt lat="42.51378" lon="14.141755"><ele>6.0</ele><time>2026-05-01T15:29:40.509Z</time></trkpt><trkpt lat="42.513865" lon="14.1418167"><ele>6.0</ele><time>2026-05-01T15:29:41.511Z</time></trkpt><trkpt lat="42.5139483" lon="14.1418617"><ele>5.5</ele><time>2026-05-01T15:29:42.515Z</time></trkpt><trkpt lat="42.5140217" lon="14.1419083"><ele>5.0</ele><time>2026-05-01T15:29:43.509Z</time></trkpt><trkpt lat="42.51409" lon="14.141955"><ele>4.5</ele><time>2026-05-01T15:29:44.512Z</time></trkpt><trkpt lat="42.5141517" lon="14.142005"><ele>4.0</ele><time>2026-05-01T15:29:45.51Z</time></trkpt><trkpt lat="42.5142067" lon="14.1420567"><ele>3.5</ele><time>2026-05-01T15:29:46.509Z</time></trkpt><trkpt lat="42.5142633" lon="14.1421917"><ele>3.0</ele><time>2026-05-01T15:29:48.512Z</time></trkpt><trkpt lat="42.5142983" lon="14.1423467"><ele>2.8</ele><time>2026-05-01T15:29:50.515Z</time></trkpt><trkpt lat="42.5143767" lon="14.1424683"><ele>2.5999999999999996</ele><time>2026-05-01T15:29:52.512Z</time></trkpt><trkpt lat="42.5145117" lon="14.1424567"><ele>2.4000000000000004</ele><time>2026-05-01T15:29:54.51Z</time></trkpt><trkpt lat="42.5145933" lon="14.1424233"><ele>2.2</ele><time>2026-05-01T15:29:55.511Z</time></trkpt><trkpt lat="42.5146817" lon="14.1424167"><ele>2.0</ele><time>2026-05-01T15:29:56.511Z</time></trkpt><trkpt lat="42.5147733" lon="14.1424667"><ele>2.0</ele><time>2026-05-01T15:29:57.51Z</time></trkpt><trkpt lat="42.5148683" lon="14.14255"><ele>2.0</ele><time>2026-05-01T15:29:58.51Z</time></trkpt><trkpt lat="42.5149667" lon="14.1426217"><ele>2.0</ele><time>2026-05-01T15:29:59.51Z</time></trkpt><trkpt lat="42.515075" lon="14.1426917"><ele>2.0</ele><time>2026-05-01T15:30:00.515Z</time></trkpt><trkpt lat="42.5151883" lon="14.1427667"><ele>2.0</ele><time>2026-05-01T15:30:01.512Z</time></trkpt><trkpt lat="42.5153067" lon="14.14284"><ele>2.0</ele><time>2026-05-01T15:30:02.515Z</time></trkpt><trkpt lat="42.515425" lon="14.142915"><ele>2.0</ele><time>2026-05-01T15:30:03.513Z</time></trkpt><trkpt lat="42.5155433" lon="14.142995"><ele>2.0</ele><time>2026-05-01T15:30:04.51Z</time></trkpt><trkpt lat="42.5156533" lon="14.1430833"><ele>2.25</ele><time>2026-05-01T15:30:05.512Z</time></trkpt><trkpt lat="42.515765" lon="14.143165"><ele>2.5</ele><time>2026-05-01T15:30:06.512Z</time></trkpt><trkpt lat="42.5158817" lon="14.1432433"><ele>2.75</ele><time>2026-05-01T15:30:07.511Z</time></trkpt><trkpt lat="42.516" lon="14.1433267"><ele>3.0</ele><time>2026-05-01T15:30:08.512Z</time></trkpt><trkpt lat="42.51612" lon="14.1434133"><ele>3.75</ele><time>2026-05-01T15:30:09.513Z</time></trkpt><trkpt lat="42.51624" lon="14.1435033"><ele>4.5</ele><time>2026-05-01T15:30:10.513Z</time></trkpt><trkpt lat="42.516365" lon="14.143595"><ele>5.25</ele><time>2026-05-01T15:30:11.512Z</time></trkpt><trkpt lat="42.5164917" lon="14.1436917"><ele>6.0</ele><time>2026-05-01T15:30:12.511Z</time></trkpt><trkpt lat="42.5166167" lon="14.1437833"><ele>6.0</ele><time>2026-05-01T15:30:13.512Z</time></trkpt><trkpt lat="42.5167367" lon="14.14388"><ele>6.0</ele><time>2026-05-01T15:30:14.513Z</time></trkpt><trkpt lat="42.5168583" lon="14.1439767"><ele>6.0</ele><time>2026-05-01T15:30:15.51Z</time></trkpt><trkpt lat="42.516985" lon="14.144065"><ele>6.0</ele><time>2026-05-01T15:30:16.509Z</time></trkpt><trkpt lat="42.5171083" lon="14.1441583"><ele>5.25</ele><time>2026-05-01T15:30:17.511Z</time></trkpt><trkpt lat="42.5172317" lon="14.1442483"><ele>4.5</ele><time>2026-05-01T15:30:18.509Z</time></trkpt><trkpt lat="42.5173533" lon="14.144335"><ele>3.75</ele><time>2026-05-01T15:30:19.514Z</time></trkpt><trkpt lat="42.5174733" lon="14.1444233"><ele>3.0</ele><time>2026-05-01T15:30:20.514Z</time></trkpt><trkpt lat="42.517595" lon="14.1445117"><ele>3.0</ele><time>2026-05-01T15:30:21.512Z</time></trkpt><trkpt lat="42.5177183" lon="14.1446017"><ele>3.0</ele><time>2026-05-01T15:30:22.509Z</time></trkpt><trkpt lat="42.517845" lon="14.1446917"><ele>3.0</ele><time>2026-05-01T15:30:23.509Z</time></trkpt><trkpt lat="42.51797" lon="14.1447833"><ele>3.0</ele><time>2026-05-01T15:30:24.511Z</time></trkpt><trkpt lat="42.518095" lon="14.1448733"><ele>3.0</ele><time>2026-05-01T15:30:25.511Z</time></trkpt><trkpt lat="42.5182183" lon="14.1449633"><ele>3.0</ele><time>2026-05-01T15:30:26.515Z</time></trkpt><trkpt lat="42.5183433" lon="14.1450533"><ele>3.0</ele><time>2026-05-01T15:30:27.51Z</time></trkpt><trkpt lat="42.5184683" lon="14.1451433"><ele>3.0</ele><time>2026-05-01T15:30:28.511Z</time></trkpt><trkpt lat="42.5185933" lon="14.1452333"><ele>3.0</ele><time>2026-05-01T15:30:29.515Z</time></trkpt><trkpt lat="42.51872" lon="14.1453183"><ele>3.0</ele><time>2026-05-01T15:30:30.512Z</time></trkpt><trkpt lat="42.5188383" lon="14.1454"><ele>3.0</ele><time>2026-05-01T15:30:31.516Z</time></trkpt><trkpt lat="42.518945" lon="14.1454783"><ele>3.0</ele><time>2026-05-01T15:30:32.512Z</time></trkpt><trkpt lat="42.5190417" lon="14.14555"><ele>3.0</ele><time>2026-05-01T15:30:33.512Z</time></trkpt><trkpt lat="42.519135" lon="14.145615"><ele>3.0</ele><time>2026-05-01T15:30:34.511Z</time></trkpt><trkpt lat="42.5192217" lon="14.1456683"><ele>3.0</ele><time>2026-05-01T15:30:35.512Z</time></trkpt><trkpt lat="42.5192917" lon="14.1457233"><ele>3.0</ele><time>2026-05-01T15:30:36.512Z</time></trkpt><trkpt lat="42.51938" lon="14.1458017"><ele>3.0</ele><time>2026-05-01T15:30:38.513Z</time></trkpt><trkpt lat="42.5194383" lon="14.145855"><ele>3.3333333333333335</ele><time>2026-05-01T15:30:41.511Z</time></trkpt><trkpt lat="42.5195133" lon="14.1459417"><ele>3.666666666666667</ele><time>2026-05-01T15:30:49.508Z</time></trkpt><trkpt lat="42.5195333" lon="14.1460583"><ele>4.0</ele><time>2026-05-01T15:30:52.511Z</time></trkpt><trkpt lat="42.5195017" lon="14.1461467"><ele>4.333333333333334</ele><time>2026-05-01T15:30:54.511Z</time></trkpt><trkpt lat="42.519465" lon="14.14623"><ele>4.666666666666667</ele><time>2026-05-01T15:30:56.512Z</time></trkpt><trkpt lat="42.5194133" lon="14.1463183"><ele>5.0</ele><time>2026-05-01T15:30:59.512Z</time></trkpt><trkpt lat="42.5193667" lon="14.1464267"><ele>5.0</ele><time>2026-05-01T15:31:08.512Z</time></trkpt><trkpt lat="42.519305" lon="14.1465117"><ele>5.0</ele><time>2026-05-01T15:31:11.509Z</time></trkpt><trkpt lat="42.5192517" lon="14.1465717"><ele>5.0</ele><time>2026-05-01T15:31:14.512Z</time></trkpt><trkpt lat="42.519175" lon="14.1466567"><ele>5.0</ele><time>2026-05-01T15:31:23.509Z</time></trkpt><trkpt lat="42.5191167" lon="14.146735"><ele>5.0</ele><time>2026-05-01T15:31:27.514Z</time></trkpt><trkpt lat="42.5190717" lon="14.146795"><ele>5.0</ele><time>2026-05-01T15:31:29.509Z</time></trkpt><trkpt lat="42.51904" lon="14.146875"><ele>4.666666666666667</ele><time>2026-05-01T15:31:31.51Z</time></trkpt><trkpt lat="42.5190333" lon="14.146975"><ele>4.333333333333334</ele><time>2026-05-01T15:31:33.509Z</time></trkpt><trkpt lat="42.5190583" lon="14.1470933"><ele>4.0</ele><time>2026-05-01T15:31:35.51Z</time></trkpt><trkpt lat="42.5191383" lon="14.1472017"><ele>3.666666666666667</ele><time>2026-05-01T15:31:37.509Z</time></trkpt><trkpt lat="42.5191933" lon="14.1472433"><ele>3.3333333333333335</ele><time>2026-05-01T15:31:38.512Z</time></trkpt><trkpt lat="42.519265" lon="14.1472783"><ele>3.0</ele><time>2026-05-01T15:31:39.509Z</time></trkpt><trkpt lat="42.5193517" lon="14.1473217"><ele>3.0</ele><time>2026-05-01T15:31:40.512Z</time></trkpt><trkpt lat="42.51943" lon="14.1473717"><ele>3.0</ele><time>2026-05-01T15:31:41.51Z</time></trkpt><trkpt lat="42.5194983" lon="14.147435"><ele>3.0</ele><time>2026-05-01T15:31:42.507Z</time></trkpt><trkpt lat="42.519565" lon="14.1475033"><ele>3.0</ele><time>2026-05-01T15:31:43.509Z</time></trkpt><trkpt lat="42.5196333" lon="14.1476017"><ele>3.0</ele><time>2026-05-01T15:31:44.511Z</time></trkpt><trkpt lat="42.5196967" lon="14.14771"><ele>2.8</ele><time>2026-05-01T15:31:45.513Z</time></trkpt><trkpt lat="42.5197633" lon="14.1478167"><ele>2.5999999999999996</ele><time>2026-05-01T15:31:46.511Z</time></trkpt><trkpt lat="42.5198233" lon="14.1479233"><ele>2.4000000000000004</ele><time>2026-05-01T15:31:47.515Z</time></trkpt><trkpt lat="42.5198817" lon="14.148035"><ele>2.2</ele><time>2026-05-01T15:31:48.51Z</time></trkpt><trkpt lat="42.519935" lon="14.1481467"><ele>2.0</ele><time>2026-05-01T15:31:49.511Z</time></trkpt><trkpt lat="42.51998" lon="14.1482567"><ele>2.0</ele><time>2026-05-01T15:31:50.512Z</time></trkpt><trkpt lat="42.5200183" lon="14.1483633"><ele>2.0</ele><time>2026-05-01T15:31:51.512Z</time></trkpt><trkpt lat="42.520055" lon="14.1484717"><ele>2.0</ele><time>2026-05-01T15:31:52.513Z</time></trkpt><trkpt lat="42.520095" lon="14.1485767"><ele>2.0</ele><time>2026-05-01T15:31:53.513Z</time></trkpt><trkpt lat="42.5201317" lon="14.1486933"><ele>2.0</ele><time>2026-05-01T15:31:54.509Z</time></trkpt><trkpt lat="42.5201567" lon="14.1488183"><ele>1.9999999999999998</ele><time>2026-05-01T15:31:55.511Z</time></trkpt><trkpt lat="42.52019" lon="14.1489417"><ele>2.0</ele><time>2026-05-01T15:31:56.514Z</time></trkpt><trkpt lat="42.5202267" lon="14.1490617"><ele>2.0</ele><time>2026-05-01T15:31:57.512Z</time></trkpt><trkpt lat="42.5202633" lon="14.14917"><ele>2.0</ele><time>2026-05-01T15:31:58.511Z</time></trkpt><trkpt lat="42.5203" lon="14.1492683"><ele>1.9999999999999998</ele><time>2026-05-01T15:31:59.512Z</time></trkpt><trkpt lat="42.520335" lon="14.1493633"><ele>2.0</ele><time>2026-05-01T15:32:00.514Z</time></trkpt><trkpt lat="42.52037" lon="14.1494533"><ele>1.9999999999999998</ele><time>2026-05-01T15:32:01.509Z</time></trkpt><trkpt lat="42.5204033" lon="14.14955"><ele>2.0</ele><time>2026-05-01T15:32:02.511Z</time></trkpt><trkpt lat="42.52044" lon="14.1496517"><ele>2.0</ele><time>2026-05-01T15:32:03.511Z</time></trkpt><trkpt lat="42.5204817" lon="14.1497533"><ele>2.0</ele><time>2026-05-01T15:32:04.51Z</time></trkpt><trkpt lat="42.5205183" lon="14.1498567"><ele>1.9999999999999998</ele><time>2026-05-01T15:32:05.509Z</time></trkpt><trkpt lat="42.5205517" lon="14.14996"><ele>2.0</ele><time>2026-05-01T15:32:06.509Z</time></trkpt><trkpt lat="42.520585" lon="14.150055"><ele>2.0</ele><time>2026-05-01T15:32:07.509Z</time></trkpt><trkpt lat="42.5206183" lon="14.1501467"><ele>1.9999999999999998</ele><time>2026-05-01T15:32:08.509Z</time></trkpt><trkpt lat="42.5206533" lon="14.1502383"><ele>2.0</ele><time>2026-05-01T15:32:09.511Z</time></trkpt><trkpt lat="42.5206867" lon="14.1503317"><ele>2.0</ele><time>2026-05-01T15:32:10.509Z</time></trkpt><trkpt lat="42.5207217" lon="14.150425"><ele>1.9999999999999998</ele><time>2026-05-01T15:32:11.51Z</time></trkpt><trkpt lat="42.5207483" lon="14.1505167"><ele>2.0</ele><time>2026-05-01T15:32:12.51Z</time></trkpt><trkpt lat="42.520775" lon="14.1506033"><ele>2.0</ele><time>2026-05-01T15:32:13.51Z</time></trkpt><trkpt lat="42.5208183" lon="14.1507317"><ele>1.9999999999999998</ele><time>2026-05-01T15:32:15.511Z</time></trkpt><trkpt lat="42.5208433" lon="14.1508183"><ele>2.0</ele><time>2026-05-01T15:32:17.511Z</time></trkpt><trkpt lat="42.5208833" lon="14.1509317"><ele>2.0</ele><time>2026-05-01T15:32:24.509Z</time></trkpt><trkpt lat="42.5209233" lon="14.15103"><ele>2.0</ele><time>2026-05-01T15:32:26.511Z</time></trkpt><trkpt lat="42.5209633" lon="14.1511417"><ele>1.9999999999999998</ele><time>2026-05-01T15:32:28.511Z</time></trkpt><trkpt lat="42.52101" lon="14.1512733"><ele>2.0</ele><time>2026-05-01T15:32:30.51Z</time></trkpt><trkpt lat="42.52104" lon="14.151355"><ele>1.9999999999999998</ele><time>2026-05-01T15:32:31.51Z</time></trkpt><trkpt lat="42.5210683" lon="14.1514417"><ele>2.0</ele><time>2026-05-01T15:32:32.513Z</time></trkpt><trkpt lat="42.5210933" lon="14.151525"><ele>2.0</ele><time>2026-05-01T15:32:33.515Z</time></trkpt><trkpt lat="42.5211217" lon="14.1516033"><ele>2.0</ele><time>2026-05-01T15:32:34.511Z</time></trkpt><trkpt lat="42.5211583" lon="14.1517333"><ele>1.9999999999999998</ele><time>2026-05-01T15:32:36.511Z</time></trkpt><trkpt lat="42.521195" lon="14.1518333"><ele>2.0</ele><time>2026-05-01T15:32:38.512Z</time></trkpt><trkpt lat="42.52123" lon="14.1519433"><ele>1.6666666666666665</ele><time>2026-05-01T15:32:40.511Z</time></trkpt><trkpt lat="42.5212717" lon="14.15207"><ele>1.3333333333333333</ele><time>2026-05-01T15:32:42.509Z</time></trkpt><trkpt lat="42.5213183" lon="14.1522067"><ele>1.0</ele><time>2026-05-01T15:32:44.509Z</time></trkpt><trkpt lat="42.5213483" lon="14.1522833"><ele>0.6666666666666666</ele><time>2026-05-01T15:32:45.513Z</time></trkpt><trkpt lat="42.5213783" lon="14.1523717"><ele>0.3333333333333333</ele><time>2026-05-01T15:32:46.512Z</time></trkpt><trkpt lat="42.5214133" lon="14.152465"><ele>0.0</ele><time>2026-05-01T15:32:47.509Z</time></trkpt><trkpt lat="42.5214433" lon="14.1525633"><ele>-0.16666666666666666</ele><time>2026-05-01T15:32:48.509Z</time></trkpt><trkpt lat="42.5214783" lon="14.152655"><ele>-0.3333333333333333</ele><time>2026-05-01T15:32:49.512Z</time></trkpt><trkpt lat="42.5215117" lon="14.1527467"><ele>-0.5</ele><time>2026-05-01T15:32:50.51Z</time></trkpt><trkpt lat="42.521545" lon="14.1528383"><ele>-0.6666666666666666</ele><time>2026-05-01T15:32:51.511Z</time></trkpt><trkpt lat="42.5215767" lon="14.1529233"><ele>-0.8333333333333333</ele><time>2026-05-01T15:32:52.509Z</time></trkpt><trkpt lat="42.521605" lon="14.153005"><ele>-1.0</ele><time>2026-05-01T15:32:53.509Z</time></trkpt><trkpt lat="42.521655" lon="14.1531417"><ele>-0.8333333333333333</ele><time>2026-05-01T15:32:55.516Z</time></trkpt><trkpt lat="42.5217033" lon="14.1532783"><ele>-0.6666666666666666</ele><time>2026-05-01T15:32:57.51Z</time></trkpt><trkpt lat="42.52175" lon="14.1534"><ele>-0.5</ele><time>2026-05-01T15:32:59.511Z</time></trkpt><trkpt lat="42.521775" lon="14.1534883"><ele>-0.3333333333333333</ele><time>2026-05-01T15:33:01.51Z</time></trkpt><trkpt lat="42.5218067" lon="14.1535633"><ele>-0.16666666666666666</ele><time>2026-05-01T15:33:04.513Z</time></trkpt><trkpt lat="42.5218567" lon="14.153635"><ele>0.0</ele><time>2026-05-01T15:33:09.509Z</time></trkpt><trkpt lat="42.521925" lon="14.1536433"><ele>0.0</ele><time>2026-05-01T15:33:11.509Z</time></trkpt><trkpt lat="42.52201" lon="14.1535833"><ele>0.0</ele><time>2026-05-01T15:33:13.51Z</time></trkpt><trkpt lat="42.5220717" lon="14.15353"><ele>0.0</ele><time>2026-05-01T15:33:14.51Z</time></trkpt><trkpt lat="42.5221317" lon="14.1534817"><ele>0.0</ele><time>2026-05-01T15:33:15.509Z</time></trkpt><trkpt lat="42.5222217" lon="14.15341"><ele>0.0</ele><time>2026-05-01T15:33:17.511Z</time></trkpt><trkpt lat="42.5222633" lon="14.1533433"><ele>0.0</ele><time>2026-05-01T15:33:19.509Z</time></trkpt><trkpt lat="42.5222683" lon="14.153255"><ele>-0.14285714285714285</ele><time>2026-05-01T15:33:22.509Z</time></trkpt><trkpt lat="42.5222517" lon="14.1531717"><ele>-0.2857142857142857</ele><time>2026-05-01T15:33:36.512Z</time></trkpt><trkpt lat="42.5222067" lon="14.1530933"><ele>-0.42857142857142855</ele><time>2026-05-01T15:33:41.517Z</time></trkpt><trkpt lat="42.5221733" lon="14.1530067"><ele>-0.5714285714285714</ele><time>2026-05-01T15:33:45.512Z</time></trkpt><trkpt lat="42.5221467" lon="14.152905"><ele>-0.7142857142857142</ele><time>2026-05-01T15:33:49.512Z</time></trkpt><trkpt lat="42.52211" lon="14.1527967"><ele>-0.8571428571428571</ele><time>2026-05-01T15:33:54.509Z</time></trkpt><trkpt lat="42.5220817" lon="14.1527183"><ele>-1.0</ele><time>2026-05-01T15:33:57.509Z</time></trkpt><trkpt lat="42.52204" lon="14.1526367"><ele>-0.9999999999999999</ele><time>2026-05-01T15:34:02.511Z</time></trkpt><trkpt lat="42.5219967" lon="14.1525633"><ele>-1.0</ele><time>2026-05-01T15:34:06.514Z</time></trkpt><trkpt lat="42.521925" lon="14.152465"><ele>-1.0</ele><time>2026-05-01T15:34:15.51Z</time></trkpt><trkpt lat="42.52188" lon="14.15239"><ele>-1.0</ele><time>2026-05-01T15:34:19.511Z</time></trkpt><trkpt lat="42.521825" lon="14.15228"><ele>-0.9999999999999999</ele><time>2026-05-01T15:34:23.515Z</time></trkpt><trkpt lat="42.5217917" lon="14.1522067"><ele>-1.0</ele><time>2026-05-01T15:34:27.512Z</time></trkpt><trkpt lat="42.52172" lon="14.1521933"><ele>0.0</ele><time>2026-05-01T15:34:43.51Z</time></trkpt></trkseg></trk></gpx>